<?xml version="1.0" encoding="UTF-8"?>
<gpx version="1.1" creator="https://www.youtrack.es" xsi:schemaLocation="http://www.topografix.com/GPX/1/1 http://www.topografix.com/GPX/1/1/gpx.xsd http://www.garmin.com/xmlschemas/GpxExtensions/v3 http://www.garmin.com/xmlschemas/GpxExtensionsv3.xsd http://www.garmin.com/xmlschemas/TrackPointExtension/v1 http://www.garmin.com/xmlschemas/TrackPointExtensionv1.xsd" xmlns:gpxtpx="http://www.garmin.com/xmlschemas/TrackPointExtension/v1" xmlns:gpxx="http://www.garmin.com/xmlschemas/GpxExtensions/v3" xmlns:xsi="http://www.w3.org/2001/XMLSchema-instance">
  <metadata>
    <link href="https://www.youtrack.es">
      <text>YouTrack.es</text>
    </link>
    <time>2026-05-08T15:00:36Z</time>
  </metadata>
  <trk>
    <src>https://www.youtrack.es</src>
    <link href="https://www.youtrack.es/ruta/11985-open">
      <text>YouTrack.es</text>
    </link>
    <trkseg>
      <trkpt lat="38.2738710" lon="-0.6838380">
        <ele>93.1</ele>
        <time>2020-03-15T06:09:16Z</time>
      </trkpt>
      <trkpt lat="38.2738710" lon="-0.6838370">
        <ele>93.1</ele>
        <time>2020-03-15T06:09:22Z</time>
      </trkpt>
      <trkpt lat="38.2739500" lon="-0.6840070">
        <ele>134.8</ele>
        <time>2020-03-15T06:54:47Z</time>
      </trkpt>
      <trkpt lat="38.2739450" lon="-0.6840410">
        <ele>134.8</ele>
        <time>2020-03-15T06:54:48Z</time>
      </trkpt>
      <trkpt lat="38.2739390" lon="-0.6840770">
        <ele>134.8</ele>
        <time>2020-03-15T06:54:49Z</time>
      </trkpt>
      <trkpt lat="38.2739270" lon="-0.6841150">
        <ele>134.8</ele>
        <time>2020-03-15T06:54:50Z</time>
      </trkpt>
      <trkpt lat="38.2739140" lon="-0.6841580">
        <ele>134.8</ele>
        <time>2020-03-15T06:54:51Z</time>
      </trkpt>
      <trkpt lat="38.2739080" lon="-0.6842000">
        <ele>134.8</ele>
        <time>2020-03-15T06:54:52Z</time>
      </trkpt>
      <trkpt lat="38.2739020" lon="-0.6842450">
        <ele>134.8</ele>
        <time>2020-03-15T06:54:53Z</time>
      </trkpt>
      <trkpt lat="38.2738900" lon="-0.6842910">
        <ele>134.8</ele>
        <time>2020-03-15T06:54:54Z</time>
      </trkpt>
      <trkpt lat="38.2738790" lon="-0.6843390">
        <ele>134.8</ele>
        <time>2020-03-15T06:54:55Z</time>
      </trkpt>
      <trkpt lat="38.2738750" lon="-0.6843860">
        <ele>134.8</ele>
        <time>2020-03-15T06:54:56Z</time>
      </trkpt>
      <trkpt lat="38.2738630" lon="-0.6844390">
        <ele>134.6</ele>
        <time>2020-03-15T06:54:57Z</time>
      </trkpt>
      <trkpt lat="38.2738490" lon="-0.6844870">
        <ele>134.4</ele>
        <time>2020-03-15T06:54:58Z</time>
      </trkpt>
      <trkpt lat="38.2738360" lon="-0.6845430">
        <ele>134.6</ele>
        <time>2020-03-15T06:54:59Z</time>
      </trkpt>
      <trkpt lat="38.2738300" lon="-0.6845920">
        <ele>134.4</ele>
        <time>2020-03-15T06:55:00Z</time>
      </trkpt>
      <trkpt lat="38.2738190" lon="-0.6846480">
        <ele>134.6</ele>
        <time>2020-03-15T06:55:01Z</time>
      </trkpt>
      <trkpt lat="38.2738080" lon="-0.6847070">
        <ele>134.6</ele>
        <time>2020-03-15T06:55:02Z</time>
      </trkpt>
      <trkpt lat="38.2737970" lon="-0.6847650">
        <ele>134.4</ele>
        <time>2020-03-15T06:55:03Z</time>
      </trkpt>
      <trkpt lat="38.2737920" lon="-0.6848230">
        <ele>134.4</ele>
        <time>2020-03-15T06:55:04Z</time>
      </trkpt>
      <trkpt lat="38.2737850" lon="-0.6848820">
        <ele>134.4</ele>
        <time>2020-03-15T06:55:05Z</time>
      </trkpt>
      <trkpt lat="38.2737760" lon="-0.6849460">
        <ele>134.4</ele>
        <time>2020-03-15T06:55:06Z</time>
      </trkpt>
      <trkpt lat="38.2737660" lon="-0.6850090">
        <ele>134.4</ele>
        <time>2020-03-15T06:55:07Z</time>
      </trkpt>
      <trkpt lat="38.2737550" lon="-0.6850710">
        <ele>134.4</ele>
        <time>2020-03-15T06:55:08Z</time>
      </trkpt>
      <trkpt lat="38.2737450" lon="-0.6851320">
        <ele>134.4</ele>
        <time>2020-03-15T06:55:09Z</time>
      </trkpt>
      <trkpt lat="38.2737340" lon="-0.6851960">
        <ele>134.4</ele>
        <time>2020-03-15T06:55:10Z</time>
      </trkpt>
      <trkpt lat="38.2737230" lon="-0.6852590">
        <ele>134.4</ele>
        <time>2020-03-15T06:55:11Z</time>
      </trkpt>
      <trkpt lat="38.2737100" lon="-0.6853230">
        <ele>134.2</ele>
        <time>2020-03-15T06:55:12Z</time>
      </trkpt>
      <trkpt lat="38.2736990" lon="-0.6853840">
        <ele>134.2</ele>
        <time>2020-03-15T06:55:13Z</time>
      </trkpt>
      <trkpt lat="38.2736860" lon="-0.6854450">
        <ele>134.4</ele>
        <time>2020-03-15T06:55:14Z</time>
      </trkpt>
      <trkpt lat="38.2736680" lon="-0.6855040">
        <ele>134.4</ele>
        <time>2020-03-15T06:55:15Z</time>
      </trkpt>
      <trkpt lat="38.2736530" lon="-0.6855670">
        <ele>134.4</ele>
        <time>2020-03-15T06:55:16Z</time>
      </trkpt>
      <trkpt lat="38.2736380" lon="-0.6856340">
        <ele>134.4</ele>
        <time>2020-03-15T06:55:17Z</time>
      </trkpt>
      <trkpt lat="38.2736260" lon="-0.6856970">
        <ele>134.2</ele>
        <time>2020-03-15T06:55:18Z</time>
      </trkpt>
      <trkpt lat="38.2736150" lon="-0.6857610">
        <ele>134.2</ele>
        <time>2020-03-15T06:55:19Z</time>
      </trkpt>
      <trkpt lat="38.2736020" lon="-0.6858230">
        <ele>134.2</ele>
        <time>2020-03-15T06:55:20Z</time>
      </trkpt>
      <trkpt lat="38.2735910" lon="-0.6858840">
        <ele>134.0</ele>
        <time>2020-03-15T06:55:21Z</time>
      </trkpt>
      <trkpt lat="38.2735760" lon="-0.6859480">
        <ele>133.8</ele>
        <time>2020-03-15T06:55:22Z</time>
      </trkpt>
      <trkpt lat="38.2735630" lon="-0.6860160">
        <ele>133.8</ele>
        <time>2020-03-15T06:55:23Z</time>
      </trkpt>
      <trkpt lat="38.2735540" lon="-0.6860820">
        <ele>133.8</ele>
        <time>2020-03-15T06:55:24Z</time>
      </trkpt>
      <trkpt lat="38.2735470" lon="-0.6861490">
        <ele>133.8</ele>
        <time>2020-03-15T06:55:25Z</time>
      </trkpt>
      <trkpt lat="38.2735410" lon="-0.6862130">
        <ele>134.0</ele>
        <time>2020-03-15T06:55:26Z</time>
      </trkpt>
      <trkpt lat="38.2735320" lon="-0.6862780">
        <ele>133.8</ele>
        <time>2020-03-15T06:55:27Z</time>
      </trkpt>
      <trkpt lat="38.2735210" lon="-0.6863430">
        <ele>133.8</ele>
        <time>2020-03-15T06:55:28Z</time>
      </trkpt>
      <trkpt lat="38.2735090" lon="-0.6864090">
        <ele>133.8</ele>
        <time>2020-03-15T06:55:29Z</time>
      </trkpt>
      <trkpt lat="38.2734990" lon="-0.6864740">
        <ele>133.8</ele>
        <time>2020-03-15T06:55:30Z</time>
      </trkpt>
      <trkpt lat="38.2734900" lon="-0.6865410">
        <ele>133.8</ele>
        <time>2020-03-15T06:55:31Z</time>
      </trkpt>
      <trkpt lat="38.2734710" lon="-0.6866090">
        <ele>133.8</ele>
        <time>2020-03-15T06:55:32Z</time>
      </trkpt>
      <trkpt lat="38.2734580" lon="-0.6866730">
        <ele>133.6</ele>
        <time>2020-03-15T06:55:33Z</time>
      </trkpt>
      <trkpt lat="38.2734470" lon="-0.6867410">
        <ele>133.6</ele>
        <time>2020-03-15T06:55:34Z</time>
      </trkpt>
      <trkpt lat="38.2734300" lon="-0.6868080">
        <ele>133.6</ele>
        <time>2020-03-15T06:55:35Z</time>
      </trkpt>
      <trkpt lat="38.2734090" lon="-0.6868730">
        <ele>133.6</ele>
        <time>2020-03-15T06:55:36Z</time>
      </trkpt>
      <trkpt lat="38.2733890" lon="-0.6869420">
        <ele>133.6</ele>
        <time>2020-03-15T06:55:37Z</time>
      </trkpt>
      <trkpt lat="38.2733740" lon="-0.6870130">
        <ele>133.6</ele>
        <time>2020-03-15T06:55:38Z</time>
      </trkpt>
      <trkpt lat="38.2733620" lon="-0.6870840">
        <ele>133.8</ele>
        <time>2020-03-15T06:55:39Z</time>
      </trkpt>
      <trkpt lat="38.2733530" lon="-0.6871520">
        <ele>133.8</ele>
        <time>2020-03-15T06:55:40Z</time>
      </trkpt>
      <trkpt lat="38.2733460" lon="-0.6872190">
        <ele>133.8</ele>
        <time>2020-03-15T06:55:41Z</time>
      </trkpt>
      <trkpt lat="38.2733370" lon="-0.6872850">
        <ele>133.6</ele>
        <time>2020-03-15T06:55:42Z</time>
      </trkpt>
      <trkpt lat="38.2733230" lon="-0.6873550">
        <ele>133.6</ele>
        <time>2020-03-15T06:55:43Z</time>
      </trkpt>
      <trkpt lat="38.2733190" lon="-0.6874290">
        <ele>133.4</ele>
        <time>2020-03-15T06:55:44Z</time>
      </trkpt>
      <trkpt lat="38.2733140" lon="-0.6875030">
        <ele>133.4</ele>
        <time>2020-03-15T06:55:45Z</time>
      </trkpt>
      <trkpt lat="38.2733060" lon="-0.6875710">
        <ele>133.4</ele>
        <time>2020-03-15T06:55:46Z</time>
      </trkpt>
      <trkpt lat="38.2732980" lon="-0.6876410">
        <ele>133.4</ele>
        <time>2020-03-15T06:55:47Z</time>
      </trkpt>
      <trkpt lat="38.2732920" lon="-0.6877120">
        <ele>133.4</ele>
        <time>2020-03-15T06:55:48Z</time>
      </trkpt>
      <trkpt lat="38.2732840" lon="-0.6877770">
        <ele>133.4</ele>
        <time>2020-03-15T06:55:49Z</time>
      </trkpt>
      <trkpt lat="38.2732750" lon="-0.6878430">
        <ele>133.6</ele>
        <time>2020-03-15T06:55:50Z</time>
      </trkpt>
      <trkpt lat="38.2732660" lon="-0.6879140">
        <ele>133.4</ele>
        <time>2020-03-15T06:55:51Z</time>
      </trkpt>
      <trkpt lat="38.2732590" lon="-0.6879840">
        <ele>133.6</ele>
        <time>2020-03-15T06:55:52Z</time>
      </trkpt>
      <trkpt lat="38.2732640" lon="-0.6880570">
        <ele>133.6</ele>
        <time>2020-03-15T06:55:53Z</time>
      </trkpt>
      <trkpt lat="38.2732790" lon="-0.6881180">
        <ele>133.8</ele>
        <time>2020-03-15T06:55:54Z</time>
      </trkpt>
      <trkpt lat="38.2732920" lon="-0.6881790">
        <ele>133.8</ele>
        <time>2020-03-15T06:55:55Z</time>
      </trkpt>
      <trkpt lat="38.2732960" lon="-0.6882390">
        <ele>134.0</ele>
        <time>2020-03-15T06:55:56Z</time>
      </trkpt>
      <trkpt lat="38.2732980" lon="-0.6883050">
        <ele>134.0</ele>
        <time>2020-03-15T06:55:57Z</time>
      </trkpt>
      <trkpt lat="38.2732990" lon="-0.6883700">
        <ele>134.2</ele>
        <time>2020-03-15T06:55:58Z</time>
      </trkpt>
      <trkpt lat="38.2732980" lon="-0.6884340">
        <ele>134.2</ele>
        <time>2020-03-15T06:55:59Z</time>
      </trkpt>
      <trkpt lat="38.2732970" lon="-0.6885020">
        <ele>134.2</ele>
        <time>2020-03-15T06:56:00Z</time>
      </trkpt>
      <trkpt lat="38.2732860" lon="-0.6885700">
        <ele>134.4</ele>
        <time>2020-03-15T06:56:01Z</time>
      </trkpt>
      <trkpt lat="38.2732780" lon="-0.6886380">
        <ele>134.4</ele>
        <time>2020-03-15T06:56:02Z</time>
      </trkpt>
      <trkpt lat="38.2732680" lon="-0.6887080">
        <ele>134.4</ele>
        <time>2020-03-15T06:56:03Z</time>
      </trkpt>
      <trkpt lat="38.2732610" lon="-0.6887750">
        <ele>134.4</ele>
        <time>2020-03-15T06:56:04Z</time>
      </trkpt>
      <trkpt lat="38.2732500" lon="-0.6888430">
        <ele>134.4</ele>
        <time>2020-03-15T06:56:05Z</time>
      </trkpt>
      <trkpt lat="38.2732410" lon="-0.6889080">
        <ele>134.4</ele>
        <time>2020-03-15T06:56:06Z</time>
      </trkpt>
      <trkpt lat="38.2732340" lon="-0.6889720">
        <ele>134.4</ele>
        <time>2020-03-15T06:56:07Z</time>
      </trkpt>
      <trkpt lat="38.2732230" lon="-0.6890350">
        <ele>134.4</ele>
        <time>2020-03-15T06:56:08Z</time>
      </trkpt>
      <trkpt lat="38.2732150" lon="-0.6890970">
        <ele>134.6</ele>
        <time>2020-03-15T06:56:09Z</time>
      </trkpt>
      <trkpt lat="38.2732070" lon="-0.6891570">
        <ele>134.6</ele>
        <time>2020-03-15T06:56:10Z</time>
      </trkpt>
      <trkpt lat="38.2731950" lon="-0.6892210">
        <ele>134.6</ele>
        <time>2020-03-15T06:56:11Z</time>
      </trkpt>
      <trkpt lat="38.2731840" lon="-0.6892860">
        <ele>134.6</ele>
        <time>2020-03-15T06:56:12Z</time>
      </trkpt>
      <trkpt lat="38.2731720" lon="-0.6893510">
        <ele>134.6</ele>
        <time>2020-03-15T06:56:13Z</time>
      </trkpt>
      <trkpt lat="38.2731630" lon="-0.6894150">
        <ele>134.6</ele>
        <time>2020-03-15T06:56:14Z</time>
      </trkpt>
      <trkpt lat="38.2731520" lon="-0.6894780">
        <ele>134.6</ele>
        <time>2020-03-15T06:56:15Z</time>
      </trkpt>
      <trkpt lat="38.2731450" lon="-0.6895420">
        <ele>134.8</ele>
        <time>2020-03-15T06:56:16Z</time>
      </trkpt>
      <trkpt lat="38.2731360" lon="-0.6896050">
        <ele>134.8</ele>
        <time>2020-03-15T06:56:17Z</time>
      </trkpt>
      <trkpt lat="38.2731290" lon="-0.6896680">
        <ele>134.8</ele>
        <time>2020-03-15T06:56:18Z</time>
      </trkpt>
      <trkpt lat="38.2731200" lon="-0.6897300">
        <ele>134.8</ele>
        <time>2020-03-15T06:56:19Z</time>
      </trkpt>
      <trkpt lat="38.2731090" lon="-0.6897910">
        <ele>134.8</ele>
        <time>2020-03-15T06:56:20Z</time>
      </trkpt>
      <trkpt lat="38.2731020" lon="-0.6898540">
        <ele>134.8</ele>
        <time>2020-03-15T06:56:21Z</time>
      </trkpt>
      <trkpt lat="38.2730930" lon="-0.6899180">
        <ele>134.8</ele>
        <time>2020-03-15T06:56:22Z</time>
      </trkpt>
      <trkpt lat="38.2730850" lon="-0.6899760">
        <ele>134.8</ele>
        <time>2020-03-15T06:56:23Z</time>
      </trkpt>
      <trkpt lat="38.2730730" lon="-0.6900370">
        <ele>135.0</ele>
        <time>2020-03-15T06:56:24Z</time>
      </trkpt>
      <trkpt lat="38.2730660" lon="-0.6900930">
        <ele>135.0</ele>
        <time>2020-03-15T06:56:25Z</time>
      </trkpt>
      <trkpt lat="38.2730580" lon="-0.6901510">
        <ele>135.0</ele>
        <time>2020-03-15T06:56:26Z</time>
      </trkpt>
      <trkpt lat="38.2730540" lon="-0.6902100">
        <ele>135.0</ele>
        <time>2020-03-15T06:56:27Z</time>
      </trkpt>
      <trkpt lat="38.2730560" lon="-0.6902760">
        <ele>135.2</ele>
        <time>2020-03-15T06:56:28Z</time>
      </trkpt>
      <trkpt lat="38.2730610" lon="-0.6903340">
        <ele>135.4</ele>
        <time>2020-03-15T06:56:29Z</time>
      </trkpt>
      <trkpt lat="38.2730660" lon="-0.6903930">
        <ele>135.4</ele>
        <time>2020-03-15T06:56:30Z</time>
      </trkpt>
      <trkpt lat="38.2730740" lon="-0.6904530">
        <ele>135.4</ele>
        <time>2020-03-15T06:56:31Z</time>
      </trkpt>
      <trkpt lat="38.2730790" lon="-0.6905140">
        <ele>135.6</ele>
        <time>2020-03-15T06:56:32Z</time>
      </trkpt>
      <trkpt lat="38.2730820" lon="-0.6905760">
        <ele>135.6</ele>
        <time>2020-03-15T06:56:33Z</time>
      </trkpt>
      <trkpt lat="38.2730730" lon="-0.6906380">
        <ele>135.6</ele>
        <time>2020-03-15T06:56:34Z</time>
      </trkpt>
      <trkpt lat="38.2730540" lon="-0.6906950">
        <ele>135.6</ele>
        <time>2020-03-15T06:56:35Z</time>
      </trkpt>
      <trkpt lat="38.2730290" lon="-0.6907500">
        <ele>135.6</ele>
        <time>2020-03-15T06:56:36Z</time>
      </trkpt>
      <trkpt lat="38.2730010" lon="-0.6908020">
        <ele>135.8</ele>
        <time>2020-03-15T06:56:37Z</time>
      </trkpt>
      <trkpt lat="38.2729730" lon="-0.6908540">
        <ele>135.8</ele>
        <time>2020-03-15T06:56:38Z</time>
      </trkpt>
      <trkpt lat="38.2729450" lon="-0.6909090">
        <ele>135.6</ele>
        <time>2020-03-15T06:56:39Z</time>
      </trkpt>
      <trkpt lat="38.2729230" lon="-0.6909680">
        <ele>135.6</ele>
        <time>2020-03-15T06:56:40Z</time>
      </trkpt>
      <trkpt lat="38.2729060" lon="-0.6910310">
        <ele>135.6</ele>
        <time>2020-03-15T06:56:41Z</time>
      </trkpt>
      <trkpt lat="38.2728950" lon="-0.6910940">
        <ele>135.4</ele>
        <time>2020-03-15T06:56:42Z</time>
      </trkpt>
      <trkpt lat="38.2728860" lon="-0.6911590">
        <ele>135.6</ele>
        <time>2020-03-15T06:56:43Z</time>
      </trkpt>
      <trkpt lat="38.2728780" lon="-0.6912230">
        <ele>135.6</ele>
        <time>2020-03-15T06:56:44Z</time>
      </trkpt>
      <trkpt lat="38.2728700" lon="-0.6912920">
        <ele>135.4</ele>
        <time>2020-03-15T06:56:45Z</time>
      </trkpt>
      <trkpt lat="38.2728630" lon="-0.6913580">
        <ele>135.4</ele>
        <time>2020-03-15T06:56:46Z</time>
      </trkpt>
      <trkpt lat="38.2728550" lon="-0.6914240">
        <ele>135.4</ele>
        <time>2020-03-15T06:56:47Z</time>
      </trkpt>
      <trkpt lat="38.2728440" lon="-0.6914910">
        <ele>135.4</ele>
        <time>2020-03-15T06:56:48Z</time>
      </trkpt>
      <trkpt lat="38.2728370" lon="-0.6915550">
        <ele>135.4</ele>
        <time>2020-03-15T06:56:49Z</time>
      </trkpt>
      <trkpt lat="38.2728270" lon="-0.6916210">
        <ele>135.4</ele>
        <time>2020-03-15T06:56:50Z</time>
      </trkpt>
      <trkpt lat="38.2728160" lon="-0.6916870">
        <ele>135.4</ele>
        <time>2020-03-15T06:56:51Z</time>
      </trkpt>
      <trkpt lat="38.2728060" lon="-0.6917550">
        <ele>135.4</ele>
        <time>2020-03-15T06:56:52Z</time>
      </trkpt>
      <trkpt lat="38.2727930" lon="-0.6918260">
        <ele>135.4</ele>
        <time>2020-03-15T06:56:53Z</time>
      </trkpt>
      <trkpt lat="38.2727800" lon="-0.6918970">
        <ele>135.4</ele>
        <time>2020-03-15T06:56:54Z</time>
      </trkpt>
      <trkpt lat="38.2727650" lon="-0.6919690">
        <ele>135.4</ele>
        <time>2020-03-15T06:56:55Z</time>
      </trkpt>
      <trkpt lat="38.2727540" lon="-0.6920410">
        <ele>135.4</ele>
        <time>2020-03-15T06:56:56Z</time>
      </trkpt>
      <trkpt lat="38.2727420" lon="-0.6921130">
        <ele>135.4</ele>
        <time>2020-03-15T06:56:57Z</time>
      </trkpt>
      <trkpt lat="38.2727320" lon="-0.6921880">
        <ele>135.4</ele>
        <time>2020-03-15T06:56:58Z</time>
      </trkpt>
      <trkpt lat="38.2727190" lon="-0.6922640">
        <ele>135.4</ele>
        <time>2020-03-15T06:56:59Z</time>
      </trkpt>
      <trkpt lat="38.2727060" lon="-0.6923390">
        <ele>135.4</ele>
        <time>2020-03-15T06:57:00Z</time>
      </trkpt>
      <trkpt lat="38.2726930" lon="-0.6924170">
        <ele>135.4</ele>
        <time>2020-03-15T06:57:01Z</time>
      </trkpt>
      <trkpt lat="38.2726820" lon="-0.6924920">
        <ele>135.4</ele>
        <time>2020-03-15T06:57:02Z</time>
      </trkpt>
      <trkpt lat="38.2726680" lon="-0.6925680">
        <ele>135.4</ele>
        <time>2020-03-15T06:57:03Z</time>
      </trkpt>
      <trkpt lat="38.2726540" lon="-0.6926460">
        <ele>135.6</ele>
        <time>2020-03-15T06:57:04Z</time>
      </trkpt>
      <trkpt lat="38.2726400" lon="-0.6927240">
        <ele>135.6</ele>
        <time>2020-03-15T06:57:05Z</time>
      </trkpt>
      <trkpt lat="38.2726270" lon="-0.6928040">
        <ele>135.6</ele>
        <time>2020-03-15T06:57:06Z</time>
      </trkpt>
      <trkpt lat="38.2726140" lon="-0.6928850">
        <ele>135.6</ele>
        <time>2020-03-15T06:57:07Z</time>
      </trkpt>
      <trkpt lat="38.2726000" lon="-0.6929660">
        <ele>135.6</ele>
        <time>2020-03-15T06:57:08Z</time>
      </trkpt>
      <trkpt lat="38.2725880" lon="-0.6930460">
        <ele>135.6</ele>
        <time>2020-03-15T06:57:09Z</time>
      </trkpt>
      <trkpt lat="38.2725710" lon="-0.6931250">
        <ele>135.6</ele>
        <time>2020-03-15T06:57:10Z</time>
      </trkpt>
      <trkpt lat="38.2725560" lon="-0.6932050">
        <ele>135.6</ele>
        <time>2020-03-15T06:57:11Z</time>
      </trkpt>
      <trkpt lat="38.2725420" lon="-0.6932830">
        <ele>135.6</ele>
        <time>2020-03-15T06:57:12Z</time>
      </trkpt>
      <trkpt lat="38.2725310" lon="-0.6933700">
        <ele>135.6</ele>
        <time>2020-03-15T06:57:13Z</time>
      </trkpt>
      <trkpt lat="38.2725190" lon="-0.6934520">
        <ele>135.6</ele>
        <time>2020-03-15T06:57:14Z</time>
      </trkpt>
      <trkpt lat="38.2725060" lon="-0.6935370">
        <ele>135.6</ele>
        <time>2020-03-15T06:57:15Z</time>
      </trkpt>
      <trkpt lat="38.2724930" lon="-0.6936230">
        <ele>135.8</ele>
        <time>2020-03-15T06:57:16Z</time>
      </trkpt>
      <trkpt lat="38.2724790" lon="-0.6937030">
        <ele>135.8</ele>
        <time>2020-03-15T06:57:17Z</time>
      </trkpt>
      <trkpt lat="38.2724660" lon="-0.6937820">
        <ele>135.8</ele>
        <time>2020-03-15T06:57:18Z</time>
      </trkpt>
      <trkpt lat="38.2724540" lon="-0.6938610">
        <ele>135.8</ele>
        <time>2020-03-15T06:57:19Z</time>
      </trkpt>
      <trkpt lat="38.2724390" lon="-0.6939410">
        <ele>135.8</ele>
        <time>2020-03-15T06:57:20Z</time>
      </trkpt>
      <trkpt lat="38.2724280" lon="-0.6940010">
        <ele>135.8</ele>
        <time>2020-03-15T06:57:21Z</time>
      </trkpt>
      <trkpt lat="38.2724160" lon="-0.6940610">
        <ele>135.8</ele>
        <time>2020-03-15T06:57:22Z</time>
      </trkpt>
      <trkpt lat="38.2723930" lon="-0.6941800">
        <ele>135.8</ele>
        <time>2020-03-15T06:57:23Z</time>
      </trkpt>
      <trkpt lat="38.2723820" lon="-0.6942610">
        <ele>136.0</ele>
        <time>2020-03-15T06:57:24Z</time>
      </trkpt>
      <trkpt lat="38.2723770" lon="-0.6943420">
        <ele>136.0</ele>
        <time>2020-03-15T06:57:25Z</time>
      </trkpt>
      <trkpt lat="38.2723830" lon="-0.6944200">
        <ele>136.2</ele>
        <time>2020-03-15T06:57:26Z</time>
      </trkpt>
      <trkpt lat="38.2723930" lon="-0.6944960">
        <ele>136.2</ele>
        <time>2020-03-15T06:57:27Z</time>
      </trkpt>
      <trkpt lat="38.2724020" lon="-0.6945770">
        <ele>136.4</ele>
        <time>2020-03-15T06:57:28Z</time>
      </trkpt>
      <trkpt lat="38.2724010" lon="-0.6946630">
        <ele>136.2</ele>
        <time>2020-03-15T06:57:29Z</time>
      </trkpt>
      <trkpt lat="38.2723820" lon="-0.6947390">
        <ele>136.2</ele>
        <time>2020-03-15T06:57:30Z</time>
      </trkpt>
      <trkpt lat="38.2723560" lon="-0.6948110">
        <ele>136.2</ele>
        <time>2020-03-15T06:57:31Z</time>
      </trkpt>
      <trkpt lat="38.2723280" lon="-0.6948830">
        <ele>136.2</ele>
        <time>2020-03-15T06:57:32Z</time>
      </trkpt>
      <trkpt lat="38.2722990" lon="-0.6949560">
        <ele>136.2</ele>
        <time>2020-03-15T06:57:33Z</time>
      </trkpt>
      <trkpt lat="38.2722740" lon="-0.6950330">
        <ele>136.0</ele>
        <time>2020-03-15T06:57:34Z</time>
      </trkpt>
      <trkpt lat="38.2722560" lon="-0.6951120">
        <ele>136.0</ele>
        <time>2020-03-15T06:57:35Z</time>
      </trkpt>
      <trkpt lat="38.2722410" lon="-0.6951940">
        <ele>135.8</ele>
        <time>2020-03-15T06:57:36Z</time>
      </trkpt>
      <trkpt lat="38.2722270" lon="-0.6952750">
        <ele>136.0</ele>
        <time>2020-03-15T06:57:37Z</time>
      </trkpt>
      <trkpt lat="38.2722150" lon="-0.6953570">
        <ele>135.8</ele>
        <time>2020-03-15T06:57:38Z</time>
      </trkpt>
      <trkpt lat="38.2722010" lon="-0.6954400">
        <ele>135.8</ele>
        <time>2020-03-15T06:57:39Z</time>
      </trkpt>
      <trkpt lat="38.2721870" lon="-0.6955230">
        <ele>135.8</ele>
        <time>2020-03-15T06:57:40Z</time>
      </trkpt>
      <trkpt lat="38.2721720" lon="-0.6956060">
        <ele>135.8</ele>
        <time>2020-03-15T06:57:41Z</time>
      </trkpt>
      <trkpt lat="38.2721620" lon="-0.6956870">
        <ele>135.8</ele>
        <time>2020-03-15T06:57:42Z</time>
      </trkpt>
      <trkpt lat="38.2721500" lon="-0.6957680">
        <ele>135.8</ele>
        <time>2020-03-15T06:57:43Z</time>
      </trkpt>
      <trkpt lat="38.2721370" lon="-0.6958500">
        <ele>135.8</ele>
        <time>2020-03-15T06:57:44Z</time>
      </trkpt>
      <trkpt lat="38.2721210" lon="-0.6959290">
        <ele>135.8</ele>
        <time>2020-03-15T06:57:45Z</time>
      </trkpt>
      <trkpt lat="38.2721080" lon="-0.6960070">
        <ele>135.6</ele>
        <time>2020-03-15T06:57:46Z</time>
      </trkpt>
      <trkpt lat="38.2720930" lon="-0.6960850">
        <ele>135.6</ele>
        <time>2020-03-15T06:57:47Z</time>
      </trkpt>
      <trkpt lat="38.2720770" lon="-0.6961640">
        <ele>135.6</ele>
        <time>2020-03-15T06:57:48Z</time>
      </trkpt>
      <trkpt lat="38.2720620" lon="-0.6962410">
        <ele>135.6</ele>
        <time>2020-03-15T06:57:49Z</time>
      </trkpt>
      <trkpt lat="38.2720470" lon="-0.6963180">
        <ele>135.4</ele>
        <time>2020-03-15T06:57:50Z</time>
      </trkpt>
      <trkpt lat="38.2720310" lon="-0.6963950">
        <ele>135.6</ele>
        <time>2020-03-15T06:57:51Z</time>
      </trkpt>
      <trkpt lat="38.2720160" lon="-0.6964720">
        <ele>135.6</ele>
        <time>2020-03-15T06:57:52Z</time>
      </trkpt>
      <trkpt lat="38.2720030" lon="-0.6965530">
        <ele>135.6</ele>
        <time>2020-03-15T06:57:53Z</time>
      </trkpt>
      <trkpt lat="38.2719890" lon="-0.6966320">
        <ele>135.6</ele>
        <time>2020-03-15T06:57:54Z</time>
      </trkpt>
      <trkpt lat="38.2719750" lon="-0.6967090">
        <ele>135.6</ele>
        <time>2020-03-15T06:57:55Z</time>
      </trkpt>
      <trkpt lat="38.2719570" lon="-0.6967850">
        <ele>135.6</ele>
        <time>2020-03-15T06:57:56Z</time>
      </trkpt>
      <trkpt lat="38.2719410" lon="-0.6968630">
        <ele>135.4</ele>
        <time>2020-03-15T06:57:57Z</time>
      </trkpt>
      <trkpt lat="38.2719220" lon="-0.6969400">
        <ele>135.4</ele>
        <time>2020-03-15T06:57:58Z</time>
      </trkpt>
      <trkpt lat="38.2719020" lon="-0.6970170">
        <ele>135.4</ele>
        <time>2020-03-15T06:57:59Z</time>
      </trkpt>
      <trkpt lat="38.2718830" lon="-0.6970930">
        <ele>135.4</ele>
        <time>2020-03-15T06:58:00Z</time>
      </trkpt>
      <trkpt lat="38.2718610" lon="-0.6971700">
        <ele>135.4</ele>
        <time>2020-03-15T06:58:01Z</time>
      </trkpt>
      <trkpt lat="38.2718410" lon="-0.6972470">
        <ele>135.2</ele>
        <time>2020-03-15T06:58:02Z</time>
      </trkpt>
      <trkpt lat="38.2718190" lon="-0.6973250">
        <ele>135.4</ele>
        <time>2020-03-15T06:58:03Z</time>
      </trkpt>
      <trkpt lat="38.2718000" lon="-0.6974060">
        <ele>135.4</ele>
        <time>2020-03-15T06:58:04Z</time>
      </trkpt>
      <trkpt lat="38.2717840" lon="-0.6974870">
        <ele>135.2</ele>
        <time>2020-03-15T06:58:05Z</time>
      </trkpt>
      <trkpt lat="38.2717630" lon="-0.6975650">
        <ele>135.2</ele>
        <time>2020-03-15T06:58:06Z</time>
      </trkpt>
      <trkpt lat="38.2717430" lon="-0.6976430">
        <ele>135.2</ele>
        <time>2020-03-15T06:58:07Z</time>
      </trkpt>
      <trkpt lat="38.2717200" lon="-0.6977220">
        <ele>135.2</ele>
        <time>2020-03-15T06:58:08Z</time>
      </trkpt>
      <trkpt lat="38.2716970" lon="-0.6978010">
        <ele>135.2</ele>
        <time>2020-03-15T06:58:09Z</time>
      </trkpt>
      <trkpt lat="38.2716800" lon="-0.6978830">
        <ele>135.2</ele>
        <time>2020-03-15T06:58:10Z</time>
      </trkpt>
      <trkpt lat="38.2716610" lon="-0.6979630">
        <ele>135.0</ele>
        <time>2020-03-15T06:58:11Z</time>
      </trkpt>
      <trkpt lat="38.2716430" lon="-0.6980440">
        <ele>135.0</ele>
        <time>2020-03-15T06:58:12Z</time>
      </trkpt>
      <trkpt lat="38.2716260" lon="-0.6981270">
        <ele>135.0</ele>
        <time>2020-03-15T06:58:13Z</time>
      </trkpt>
      <trkpt lat="38.2716070" lon="-0.6982090">
        <ele>134.8</ele>
        <time>2020-03-15T06:58:14Z</time>
      </trkpt>
      <trkpt lat="38.2715900" lon="-0.6982940">
        <ele>134.8</ele>
        <time>2020-03-15T06:58:15Z</time>
      </trkpt>
      <trkpt lat="38.2715750" lon="-0.6983730">
        <ele>134.8</ele>
        <time>2020-03-15T06:58:16Z</time>
      </trkpt>
      <trkpt lat="38.2715610" lon="-0.6984570">
        <ele>134.8</ele>
        <time>2020-03-15T06:58:17Z</time>
      </trkpt>
      <trkpt lat="38.2715470" lon="-0.6985410">
        <ele>135.0</ele>
        <time>2020-03-15T06:58:18Z</time>
      </trkpt>
      <trkpt lat="38.2715330" lon="-0.6986260">
        <ele>134.8</ele>
        <time>2020-03-15T06:58:19Z</time>
      </trkpt>
      <trkpt lat="38.2715190" lon="-0.6987110">
        <ele>134.8</ele>
        <time>2020-03-15T06:58:20Z</time>
      </trkpt>
      <trkpt lat="38.2715040" lon="-0.6987940">
        <ele>135.0</ele>
        <time>2020-03-15T06:58:21Z</time>
      </trkpt>
      <trkpt lat="38.2714910" lon="-0.6988760">
        <ele>134.8</ele>
        <time>2020-03-15T06:58:22Z</time>
      </trkpt>
      <trkpt lat="38.2714770" lon="-0.6989600">
        <ele>134.8</ele>
        <time>2020-03-15T06:58:23Z</time>
      </trkpt>
      <trkpt lat="38.2714650" lon="-0.6990440">
        <ele>134.6</ele>
        <time>2020-03-15T06:58:24Z</time>
      </trkpt>
      <trkpt lat="38.2714510" lon="-0.6991270">
        <ele>134.8</ele>
        <time>2020-03-15T06:58:25Z</time>
      </trkpt>
      <trkpt lat="38.2714370" lon="-0.6992110">
        <ele>134.8</ele>
        <time>2020-03-15T06:58:26Z</time>
      </trkpt>
      <trkpt lat="38.2714230" lon="-0.6992940">
        <ele>134.8</ele>
        <time>2020-03-15T06:58:27Z</time>
      </trkpt>
      <trkpt lat="38.2714090" lon="-0.6993760">
        <ele>134.8</ele>
        <time>2020-03-15T06:58:28Z</time>
      </trkpt>
      <trkpt lat="38.2713940" lon="-0.6994580">
        <ele>134.8</ele>
        <time>2020-03-15T06:58:29Z</time>
      </trkpt>
      <trkpt lat="38.2713800" lon="-0.6995400">
        <ele>134.6</ele>
        <time>2020-03-15T06:58:30Z</time>
      </trkpt>
      <trkpt lat="38.2713660" lon="-0.6996230">
        <ele>134.6</ele>
        <time>2020-03-15T06:58:31Z</time>
      </trkpt>
      <trkpt lat="38.2713530" lon="-0.6997050">
        <ele>134.6</ele>
        <time>2020-03-15T06:58:32Z</time>
      </trkpt>
      <trkpt lat="38.2713400" lon="-0.6997870">
        <ele>134.8</ele>
        <time>2020-03-15T06:58:33Z</time>
      </trkpt>
      <trkpt lat="38.2713270" lon="-0.6998700">
        <ele>134.6</ele>
        <time>2020-03-15T06:58:34Z</time>
      </trkpt>
      <trkpt lat="38.2713130" lon="-0.6999530">
        <ele>134.6</ele>
        <time>2020-03-15T06:58:35Z</time>
      </trkpt>
      <trkpt lat="38.2713020" lon="-0.7000340">
        <ele>134.8</ele>
        <time>2020-03-15T06:58:36Z</time>
      </trkpt>
      <trkpt lat="38.2712900" lon="-0.7001170">
        <ele>134.6</ele>
        <time>2020-03-15T06:58:37Z</time>
      </trkpt>
      <trkpt lat="38.2712790" lon="-0.7002020">
        <ele>134.4</ele>
        <time>2020-03-15T06:58:38Z</time>
      </trkpt>
      <trkpt lat="38.2712690" lon="-0.7002880">
        <ele>134.4</ele>
        <time>2020-03-15T06:58:39Z</time>
      </trkpt>
      <trkpt lat="38.2712610" lon="-0.7003740">
        <ele>134.4</ele>
        <time>2020-03-15T06:58:40Z</time>
      </trkpt>
      <trkpt lat="38.2712530" lon="-0.7004600">
        <ele>134.2</ele>
        <time>2020-03-15T06:58:41Z</time>
      </trkpt>
      <trkpt lat="38.2712460" lon="-0.7005450">
        <ele>134.0</ele>
        <time>2020-03-15T06:58:42Z</time>
      </trkpt>
      <trkpt lat="38.2712380" lon="-0.7006320">
        <ele>133.8</ele>
        <time>2020-03-15T06:58:43Z</time>
      </trkpt>
      <trkpt lat="38.2712300" lon="-0.7007170">
        <ele>133.8</ele>
        <time>2020-03-15T06:58:44Z</time>
      </trkpt>
      <trkpt lat="38.2712200" lon="-0.7008000">
        <ele>133.8</ele>
        <time>2020-03-15T06:58:45Z</time>
      </trkpt>
      <trkpt lat="38.2712050" lon="-0.7008830">
        <ele>133.8</ele>
        <time>2020-03-15T06:58:46Z</time>
      </trkpt>
      <trkpt lat="38.2711910" lon="-0.7009640">
        <ele>133.6</ele>
        <time>2020-03-15T06:58:47Z</time>
      </trkpt>
      <trkpt lat="38.2711820" lon="-0.7010460">
        <ele>133.4</ele>
        <time>2020-03-15T06:58:48Z</time>
      </trkpt>
      <trkpt lat="38.2711820" lon="-0.7011300">
        <ele>133.4</ele>
        <time>2020-03-15T06:58:49Z</time>
      </trkpt>
      <trkpt lat="38.2711810" lon="-0.7012190">
        <ele>133.4</ele>
        <time>2020-03-15T06:58:50Z</time>
      </trkpt>
      <trkpt lat="38.2711760" lon="-0.7013120">
        <ele>133.2</ele>
        <time>2020-03-15T06:58:51Z</time>
      </trkpt>
      <trkpt lat="38.2711630" lon="-0.7013940">
        <ele>133.4</ele>
        <time>2020-03-15T06:58:52Z</time>
      </trkpt>
      <trkpt lat="38.2711490" lon="-0.7014820">
        <ele>133.4</ele>
        <time>2020-03-15T06:58:53Z</time>
      </trkpt>
      <trkpt lat="38.2711320" lon="-0.7015670">
        <ele>133.4</ele>
        <time>2020-03-15T06:58:54Z</time>
      </trkpt>
      <trkpt lat="38.2711150" lon="-0.7016460">
        <ele>133.4</ele>
        <time>2020-03-15T06:58:55Z</time>
      </trkpt>
      <trkpt lat="38.2711020" lon="-0.7017340">
        <ele>133.4</ele>
        <time>2020-03-15T06:58:56Z</time>
      </trkpt>
      <trkpt lat="38.2710870" lon="-0.7018150">
        <ele>133.4</ele>
        <time>2020-03-15T06:58:57Z</time>
      </trkpt>
      <trkpt lat="38.2710710" lon="-0.7018970">
        <ele>133.6</ele>
        <time>2020-03-15T06:58:58Z</time>
      </trkpt>
      <trkpt lat="38.2710540" lon="-0.7019790">
        <ele>133.6</ele>
        <time>2020-03-15T06:58:59Z</time>
      </trkpt>
      <trkpt lat="38.2710350" lon="-0.7020560">
        <ele>133.6</ele>
        <time>2020-03-15T06:59:00Z</time>
      </trkpt>
      <trkpt lat="38.2710190" lon="-0.7021320">
        <ele>133.8</ele>
        <time>2020-03-15T06:59:01Z</time>
      </trkpt>
      <trkpt lat="38.2710010" lon="-0.7022080">
        <ele>133.8</ele>
        <time>2020-03-15T06:59:02Z</time>
      </trkpt>
      <trkpt lat="38.2709800" lon="-0.7022840">
        <ele>133.8</ele>
        <time>2020-03-15T06:59:03Z</time>
      </trkpt>
      <trkpt lat="38.2709660" lon="-0.7023630">
        <ele>134.0</ele>
        <time>2020-03-15T06:59:04Z</time>
      </trkpt>
      <trkpt lat="38.2709540" lon="-0.7024430">
        <ele>134.2</ele>
        <time>2020-03-15T06:59:05Z</time>
      </trkpt>
      <trkpt lat="38.2709350" lon="-0.7025230">
        <ele>134.2</ele>
        <time>2020-03-15T06:59:06Z</time>
      </trkpt>
      <trkpt lat="38.2709190" lon="-0.7026020">
        <ele>134.4</ele>
        <time>2020-03-15T06:59:07Z</time>
      </trkpt>
      <trkpt lat="38.2709050" lon="-0.7026820">
        <ele>134.6</ele>
        <time>2020-03-15T06:59:08Z</time>
      </trkpt>
      <trkpt lat="38.2708870" lon="-0.7027580">
        <ele>134.6</ele>
        <time>2020-03-15T06:59:09Z</time>
      </trkpt>
      <trkpt lat="38.2708720" lon="-0.7028330">
        <ele>134.8</ele>
        <time>2020-03-15T06:59:10Z</time>
      </trkpt>
      <trkpt lat="38.2708680" lon="-0.7029110">
        <ele>134.8</ele>
        <time>2020-03-15T06:59:11Z</time>
      </trkpt>
      <trkpt lat="38.2708490" lon="-0.7029800">
        <ele>135.0</ele>
        <time>2020-03-15T06:59:12Z</time>
      </trkpt>
      <trkpt lat="38.2708200" lon="-0.7030460">
        <ele>135.0</ele>
        <time>2020-03-15T06:59:13Z</time>
      </trkpt>
      <trkpt lat="38.2707960" lon="-0.7031150">
        <ele>135.0</ele>
        <time>2020-03-15T06:59:14Z</time>
      </trkpt>
      <trkpt lat="38.2707760" lon="-0.7031810">
        <ele>135.0</ele>
        <time>2020-03-15T06:59:15Z</time>
      </trkpt>
      <trkpt lat="38.2707540" lon="-0.7032470">
        <ele>135.2</ele>
        <time>2020-03-15T06:59:16Z</time>
      </trkpt>
      <trkpt lat="38.2707120" lon="-0.7032910">
        <ele>135.2</ele>
        <time>2020-03-15T06:59:17Z</time>
      </trkpt>
      <trkpt lat="38.2706910" lon="-0.7033550">
        <ele>135.2</ele>
        <time>2020-03-15T06:59:18Z</time>
      </trkpt>
      <trkpt lat="38.2706780" lon="-0.7034170">
        <ele>135.4</ele>
        <time>2020-03-15T06:59:19Z</time>
      </trkpt>
      <trkpt lat="38.2706600" lon="-0.7034630">
        <ele>135.4</ele>
        <time>2020-03-15T06:59:20Z</time>
      </trkpt>
      <trkpt lat="38.2706520" lon="-0.7035010">
        <ele>135.4</ele>
        <time>2020-03-15T06:59:21Z</time>
      </trkpt>
      <trkpt lat="38.2706350" lon="-0.7035360">
        <ele>135.4</ele>
        <time>2020-03-15T06:59:22Z</time>
      </trkpt>
      <trkpt lat="38.2706220" lon="-0.7035740">
        <ele>135.4</ele>
        <time>2020-03-15T06:59:23Z</time>
      </trkpt>
      <trkpt lat="38.2706020" lon="-0.7036150">
        <ele>135.4</ele>
        <time>2020-03-15T06:59:24Z</time>
      </trkpt>
      <trkpt lat="38.2705910" lon="-0.7036700">
        <ele>135.4</ele>
        <time>2020-03-15T06:59:25Z</time>
      </trkpt>
      <trkpt lat="38.2705760" lon="-0.7037270">
        <ele>135.4</ele>
        <time>2020-03-15T06:59:26Z</time>
      </trkpt>
      <trkpt lat="38.2705580" lon="-0.7037880">
        <ele>135.4</ele>
        <time>2020-03-15T06:59:27Z</time>
      </trkpt>
      <trkpt lat="38.2705370" lon="-0.7038500">
        <ele>135.4</ele>
        <time>2020-03-15T06:59:28Z</time>
      </trkpt>
      <trkpt lat="38.2705130" lon="-0.7039160">
        <ele>135.6</ele>
        <time>2020-03-15T06:59:29Z</time>
      </trkpt>
      <trkpt lat="38.2704870" lon="-0.7039850">
        <ele>135.8</ele>
        <time>2020-03-15T06:59:30Z</time>
      </trkpt>
      <trkpt lat="38.2704620" lon="-0.7040540">
        <ele>135.8</ele>
        <time>2020-03-15T06:59:31Z</time>
      </trkpt>
      <trkpt lat="38.2704320" lon="-0.7041230">
        <ele>135.6</ele>
        <time>2020-03-15T06:59:32Z</time>
      </trkpt>
      <trkpt lat="38.2704100" lon="-0.7041980">
        <ele>135.6</ele>
        <time>2020-03-15T06:59:33Z</time>
      </trkpt>
      <trkpt lat="38.2703820" lon="-0.7042690">
        <ele>135.6</ele>
        <time>2020-03-15T06:59:34Z</time>
      </trkpt>
      <trkpt lat="38.2703540" lon="-0.7043410">
        <ele>135.8</ele>
        <time>2020-03-15T06:59:35Z</time>
      </trkpt>
      <trkpt lat="38.2703250" lon="-0.7044110">
        <ele>135.8</ele>
        <time>2020-03-15T06:59:36Z</time>
      </trkpt>
      <trkpt lat="38.2702970" lon="-0.7044820">
        <ele>135.8</ele>
        <time>2020-03-15T06:59:37Z</time>
      </trkpt>
      <trkpt lat="38.2702670" lon="-0.7045540">
        <ele>135.6</ele>
        <time>2020-03-15T06:59:38Z</time>
      </trkpt>
      <trkpt lat="38.2702390" lon="-0.7046280">
        <ele>135.6</ele>
        <time>2020-03-15T06:59:39Z</time>
      </trkpt>
      <trkpt lat="38.2702120" lon="-0.7047030">
        <ele>135.6</ele>
        <time>2020-03-15T06:59:40Z</time>
      </trkpt>
      <trkpt lat="38.2701820" lon="-0.7047790">
        <ele>135.4</ele>
        <time>2020-03-15T06:59:41Z</time>
      </trkpt>
      <trkpt lat="38.2701560" lon="-0.7048570">
        <ele>135.4</ele>
        <time>2020-03-15T06:59:42Z</time>
      </trkpt>
      <trkpt lat="38.2701180" lon="-0.7049280">
        <ele>135.4</ele>
        <time>2020-03-15T06:59:43Z</time>
      </trkpt>
      <trkpt lat="38.2700850" lon="-0.7050010">
        <ele>135.4</ele>
        <time>2020-03-15T06:59:44Z</time>
      </trkpt>
      <trkpt lat="38.2700510" lon="-0.7050760">
        <ele>135.4</ele>
        <time>2020-03-15T06:59:45Z</time>
      </trkpt>
      <trkpt lat="38.2700170" lon="-0.7051500">
        <ele>135.4</ele>
        <time>2020-03-15T06:59:46Z</time>
      </trkpt>
      <trkpt lat="38.2699830" lon="-0.7052240">
        <ele>135.4</ele>
        <time>2020-03-15T06:59:47Z</time>
      </trkpt>
      <trkpt lat="38.2699510" lon="-0.7053000">
        <ele>135.4</ele>
        <time>2020-03-15T06:59:48Z</time>
      </trkpt>
      <trkpt lat="38.2699210" lon="-0.7053770">
        <ele>135.2</ele>
        <time>2020-03-15T06:59:49Z</time>
      </trkpt>
      <trkpt lat="38.2698870" lon="-0.7054510">
        <ele>135.2</ele>
        <time>2020-03-15T06:59:50Z</time>
      </trkpt>
      <trkpt lat="38.2698530" lon="-0.7055260">
        <ele>135.4</ele>
        <time>2020-03-15T06:59:51Z</time>
      </trkpt>
      <trkpt lat="38.2698250" lon="-0.7056030">
        <ele>135.2</ele>
        <time>2020-03-15T06:59:52Z</time>
      </trkpt>
      <trkpt lat="38.2697910" lon="-0.7056800">
        <ele>135.2</ele>
        <time>2020-03-15T06:59:53Z</time>
      </trkpt>
      <trkpt lat="38.2697600" lon="-0.7057560">
        <ele>135.2</ele>
        <time>2020-03-15T06:59:54Z</time>
      </trkpt>
      <trkpt lat="38.2697180" lon="-0.7058270">
        <ele>135.2</ele>
        <time>2020-03-15T06:59:55Z</time>
      </trkpt>
      <trkpt lat="38.2696830" lon="-0.7059020">
        <ele>135.2</ele>
        <time>2020-03-15T06:59:56Z</time>
      </trkpt>
      <trkpt lat="38.2696480" lon="-0.7059780">
        <ele>135.0</ele>
        <time>2020-03-15T06:59:57Z</time>
      </trkpt>
      <trkpt lat="38.2696130" lon="-0.7060560">
        <ele>135.0</ele>
        <time>2020-03-15T06:59:58Z</time>
      </trkpt>
      <trkpt lat="38.2695740" lon="-0.7061290">
        <ele>135.0</ele>
        <time>2020-03-15T06:59:59Z</time>
      </trkpt>
      <trkpt lat="38.2695370" lon="-0.7062040">
        <ele>135.0</ele>
        <time>2020-03-15T07:00:00Z</time>
      </trkpt>
      <trkpt lat="38.2694970" lon="-0.7062740">
        <ele>135.2</ele>
        <time>2020-03-15T07:00:01Z</time>
      </trkpt>
      <trkpt lat="38.2694600" lon="-0.7063450">
        <ele>135.2</ele>
        <time>2020-03-15T07:00:02Z</time>
      </trkpt>
      <trkpt lat="38.2694230" lon="-0.7064160">
        <ele>135.0</ele>
        <time>2020-03-15T07:00:03Z</time>
      </trkpt>
      <trkpt lat="38.2693860" lon="-0.7064860">
        <ele>135.0</ele>
        <time>2020-03-15T07:00:04Z</time>
      </trkpt>
      <trkpt lat="38.2693480" lon="-0.7065540">
        <ele>135.0</ele>
        <time>2020-03-15T07:00:05Z</time>
      </trkpt>
      <trkpt lat="38.2693100" lon="-0.7066200">
        <ele>135.0</ele>
        <time>2020-03-15T07:00:06Z</time>
      </trkpt>
      <trkpt lat="38.2692700" lon="-0.7066840">
        <ele>134.8</ele>
        <time>2020-03-15T07:00:07Z</time>
      </trkpt>
      <trkpt lat="38.2692380" lon="-0.7067540">
        <ele>135.0</ele>
        <time>2020-03-15T07:00:08Z</time>
      </trkpt>
      <trkpt lat="38.2692030" lon="-0.7068160">
        <ele>135.0</ele>
        <time>2020-03-15T07:00:09Z</time>
      </trkpt>
      <trkpt lat="38.2691660" lon="-0.7068820">
        <ele>135.0</ele>
        <time>2020-03-15T07:00:10Z</time>
      </trkpt>
      <trkpt lat="38.2691270" lon="-0.7069490">
        <ele>135.0</ele>
        <time>2020-03-15T07:00:11Z</time>
      </trkpt>
      <trkpt lat="38.2690870" lon="-0.7070150">
        <ele>135.0</ele>
        <time>2020-03-15T07:00:12Z</time>
      </trkpt>
      <trkpt lat="38.2690540" lon="-0.7070870">
        <ele>135.0</ele>
        <time>2020-03-15T07:00:13Z</time>
      </trkpt>
      <trkpt lat="38.2690170" lon="-0.7071540">
        <ele>135.0</ele>
        <time>2020-03-15T07:00:14Z</time>
      </trkpt>
      <trkpt lat="38.2689750" lon="-0.7072200">
        <ele>135.0</ele>
        <time>2020-03-15T07:00:15Z</time>
      </trkpt>
      <trkpt lat="38.2689370" lon="-0.7072880">
        <ele>135.2</ele>
        <time>2020-03-15T07:00:16Z</time>
      </trkpt>
      <trkpt lat="38.2689050" lon="-0.7073660">
        <ele>135.2</ele>
        <time>2020-03-15T07:00:17Z</time>
      </trkpt>
      <trkpt lat="38.2688670" lon="-0.7074350">
        <ele>135.0</ele>
        <time>2020-03-15T07:00:18Z</time>
      </trkpt>
      <trkpt lat="38.2688310" lon="-0.7075030">
        <ele>135.0</ele>
        <time>2020-03-15T07:00:19Z</time>
      </trkpt>
      <trkpt lat="38.2687920" lon="-0.7075720">
        <ele>135.0</ele>
        <time>2020-03-15T07:00:20Z</time>
      </trkpt>
      <trkpt lat="38.2687550" lon="-0.7076410">
        <ele>135.0</ele>
        <time>2020-03-15T07:00:21Z</time>
      </trkpt>
      <trkpt lat="38.2687090" lon="-0.7077030">
        <ele>135.0</ele>
        <time>2020-03-15T07:00:22Z</time>
      </trkpt>
      <trkpt lat="38.2686640" lon="-0.7077650">
        <ele>135.0</ele>
        <time>2020-03-15T07:00:23Z</time>
      </trkpt>
      <trkpt lat="38.2686180" lon="-0.7078250">
        <ele>135.2</ele>
        <time>2020-03-15T07:00:24Z</time>
      </trkpt>
      <trkpt lat="38.2685730" lon="-0.7078720">
        <ele>135.2</ele>
        <time>2020-03-15T07:00:25Z</time>
      </trkpt>
      <trkpt lat="38.2685250" lon="-0.7079190">
        <ele>135.0</ele>
        <time>2020-03-15T07:00:26Z</time>
      </trkpt>
      <trkpt lat="38.2684780" lon="-0.7079700">
        <ele>135.0</ele>
        <time>2020-03-15T07:00:27Z</time>
      </trkpt>
      <trkpt lat="38.2684340" lon="-0.7080210">
        <ele>135.0</ele>
        <time>2020-03-15T07:00:28Z</time>
      </trkpt>
      <trkpt lat="38.2683960" lon="-0.7080700">
        <ele>135.0</ele>
        <time>2020-03-15T07:00:29Z</time>
      </trkpt>
      <trkpt lat="38.2683550" lon="-0.7081200">
        <ele>134.8</ele>
        <time>2020-03-15T07:00:30Z</time>
      </trkpt>
      <trkpt lat="38.2683230" lon="-0.7081590">
        <ele>134.8</ele>
        <time>2020-03-15T07:00:31Z</time>
      </trkpt>
      <trkpt lat="38.2682980" lon="-0.7081990">
        <ele>134.6</ele>
        <time>2020-03-15T07:00:32Z</time>
      </trkpt>
      <trkpt lat="38.2682710" lon="-0.7082160">
        <ele>134.8</ele>
        <time>2020-03-15T07:00:33Z</time>
      </trkpt>
      <trkpt lat="38.2682500" lon="-0.7082460">
        <ele>134.8</ele>
        <time>2020-03-15T07:00:34Z</time>
      </trkpt>
      <trkpt lat="38.2682340" lon="-0.7082990">
        <ele>134.8</ele>
        <time>2020-03-15T07:00:35Z</time>
      </trkpt>
      <trkpt lat="38.2682150" lon="-0.7083420">
        <ele>134.6</ele>
        <time>2020-03-15T07:00:36Z</time>
      </trkpt>
      <trkpt lat="38.2681880" lon="-0.7083840">
        <ele>135.0</ele>
        <time>2020-03-15T07:00:37Z</time>
      </trkpt>
      <trkpt lat="38.2681630" lon="-0.7084290">
        <ele>134.8</ele>
        <time>2020-03-15T07:00:38Z</time>
      </trkpt>
      <trkpt lat="38.2681330" lon="-0.7084780">
        <ele>134.8</ele>
        <time>2020-03-15T07:00:39Z</time>
      </trkpt>
      <trkpt lat="38.2680990" lon="-0.7085270">
        <ele>134.8</ele>
        <time>2020-03-15T07:00:40Z</time>
      </trkpt>
      <trkpt lat="38.2680650" lon="-0.7085760">
        <ele>134.8</ele>
        <time>2020-03-15T07:00:41Z</time>
      </trkpt>
      <trkpt lat="38.2680270" lon="-0.7086270">
        <ele>134.8</ele>
        <time>2020-03-15T07:00:42Z</time>
      </trkpt>
      <trkpt lat="38.2679870" lon="-0.7086770">
        <ele>135.0</ele>
        <time>2020-03-15T07:00:43Z</time>
      </trkpt>
      <trkpt lat="38.2679460" lon="-0.7087140">
        <ele>135.0</ele>
        <time>2020-03-15T07:00:44Z</time>
      </trkpt>
      <trkpt lat="38.2679100" lon="-0.7087590">
        <ele>134.8</ele>
        <time>2020-03-15T07:00:45Z</time>
      </trkpt>
      <trkpt lat="38.2678780" lon="-0.7088100">
        <ele>134.8</ele>
        <time>2020-03-15T07:00:46Z</time>
      </trkpt>
      <trkpt lat="38.2678410" lon="-0.7088690">
        <ele>134.8</ele>
        <time>2020-03-15T07:00:47Z</time>
      </trkpt>
      <trkpt lat="38.2677970" lon="-0.7089220">
        <ele>134.8</ele>
        <time>2020-03-15T07:00:48Z</time>
      </trkpt>
      <trkpt lat="38.2677500" lon="-0.7089720">
        <ele>134.8</ele>
        <time>2020-03-15T07:00:49Z</time>
      </trkpt>
      <trkpt lat="38.2677030" lon="-0.7090170">
        <ele>134.8</ele>
        <time>2020-03-15T07:00:50Z</time>
      </trkpt>
      <trkpt lat="38.2676710" lon="-0.7090920">
        <ele>134.8</ele>
        <time>2020-03-15T07:00:51Z</time>
      </trkpt>
      <trkpt lat="38.2676270" lon="-0.7091440">
        <ele>134.8</ele>
        <time>2020-03-15T07:00:52Z</time>
      </trkpt>
      <trkpt lat="38.2675820" lon="-0.7091920">
        <ele>134.8</ele>
        <time>2020-03-15T07:00:53Z</time>
      </trkpt>
      <trkpt lat="38.2675370" lon="-0.7092400">
        <ele>134.8</ele>
        <time>2020-03-15T07:00:54Z</time>
      </trkpt>
      <trkpt lat="38.2674950" lon="-0.7093060">
        <ele>134.8</ele>
        <time>2020-03-15T07:00:55Z</time>
      </trkpt>
      <trkpt lat="38.2674590" lon="-0.7093720">
        <ele>134.8</ele>
        <time>2020-03-15T07:00:56Z</time>
      </trkpt>
      <trkpt lat="38.2674170" lon="-0.7094390">
        <ele>134.8</ele>
        <time>2020-03-15T07:00:57Z</time>
      </trkpt>
      <trkpt lat="38.2673730" lon="-0.7094950">
        <ele>134.6</ele>
        <time>2020-03-15T07:00:58Z</time>
      </trkpt>
      <trkpt lat="38.2673230" lon="-0.7095530">
        <ele>134.6</ele>
        <time>2020-03-15T07:00:59Z</time>
      </trkpt>
      <trkpt lat="38.2672660" lon="-0.7096310">
        <ele>134.4</ele>
        <time>2020-03-15T07:01:00Z</time>
      </trkpt>
      <trkpt lat="38.2672190" lon="-0.7096890">
        <ele>134.4</ele>
        <time>2020-03-15T07:01:01Z</time>
      </trkpt>
      <trkpt lat="38.2671710" lon="-0.7097450">
        <ele>134.4</ele>
        <time>2020-03-15T07:01:02Z</time>
      </trkpt>
      <trkpt lat="38.2671180" lon="-0.7097910">
        <ele>134.4</ele>
        <time>2020-03-15T07:01:03Z</time>
      </trkpt>
      <trkpt lat="38.2670730" lon="-0.7098400">
        <ele>134.4</ele>
        <time>2020-03-15T07:01:04Z</time>
      </trkpt>
      <trkpt lat="38.2670260" lon="-0.7098910">
        <ele>134.2</ele>
        <time>2020-03-15T07:01:05Z</time>
      </trkpt>
      <trkpt lat="38.2669770" lon="-0.7099490">
        <ele>134.2</ele>
        <time>2020-03-15T07:01:06Z</time>
      </trkpt>
      <trkpt lat="38.2669340" lon="-0.7099980">
        <ele>134.2</ele>
        <time>2020-03-15T07:01:07Z</time>
      </trkpt>
      <trkpt lat="38.2668840" lon="-0.7100410">
        <ele>134.2</ele>
        <time>2020-03-15T07:01:08Z</time>
      </trkpt>
      <trkpt lat="38.2668340" lon="-0.7100960">
        <ele>134.2</ele>
        <time>2020-03-15T07:01:09Z</time>
      </trkpt>
      <trkpt lat="38.2667890" lon="-0.7101490">
        <ele>134.2</ele>
        <time>2020-03-15T07:01:10Z</time>
      </trkpt>
      <trkpt lat="38.2667490" lon="-0.7102100">
        <ele>134.2</ele>
        <time>2020-03-15T07:01:11Z</time>
      </trkpt>
      <trkpt lat="38.2667010" lon="-0.7102590">
        <ele>133.8</ele>
        <time>2020-03-15T07:01:12Z</time>
      </trkpt>
      <trkpt lat="38.2666530" lon="-0.7102990">
        <ele>134.0</ele>
        <time>2020-03-15T07:01:13Z</time>
      </trkpt>
      <trkpt lat="38.2666060" lon="-0.7103490">
        <ele>134.0</ele>
        <time>2020-03-15T07:01:14Z</time>
      </trkpt>
      <trkpt lat="38.2665600" lon="-0.7104020">
        <ele>133.8</ele>
        <time>2020-03-15T07:01:15Z</time>
      </trkpt>
      <trkpt lat="38.2665100" lon="-0.7104440">
        <ele>133.8</ele>
        <time>2020-03-15T07:01:16Z</time>
      </trkpt>
      <trkpt lat="38.2664630" lon="-0.7104970">
        <ele>133.8</ele>
        <time>2020-03-15T07:01:17Z</time>
      </trkpt>
      <trkpt lat="38.2664200" lon="-0.7105410">
        <ele>133.6</ele>
        <time>2020-03-15T07:01:18Z</time>
      </trkpt>
      <trkpt lat="38.2663870" lon="-0.7105670">
        <ele>133.6</ele>
        <time>2020-03-15T07:01:19Z</time>
      </trkpt>
      <trkpt lat="38.2663680" lon="-0.7106020">
        <ele>133.4</ele>
        <time>2020-03-15T07:01:20Z</time>
      </trkpt>
      <trkpt lat="38.2663590" lon="-0.7106290">
        <ele>133.6</ele>
        <time>2020-03-15T07:01:21Z</time>
      </trkpt>
      <trkpt lat="38.2663430" lon="-0.7106500">
        <ele>133.4</ele>
        <time>2020-03-15T07:01:22Z</time>
      </trkpt>
      <trkpt lat="38.2663230" lon="-0.7106760">
        <ele>133.4</ele>
        <time>2020-03-15T07:01:23Z</time>
      </trkpt>
      <trkpt lat="38.2662980" lon="-0.7107150">
        <ele>133.4</ele>
        <time>2020-03-15T07:01:24Z</time>
      </trkpt>
      <trkpt lat="38.2662650" lon="-0.7107450">
        <ele>133.4</ele>
        <time>2020-03-15T07:01:25Z</time>
      </trkpt>
      <trkpt lat="38.2662220" lon="-0.7107700">
        <ele>133.4</ele>
        <time>2020-03-15T07:01:26Z</time>
      </trkpt>
      <trkpt lat="38.2661850" lon="-0.7108060">
        <ele>133.4</ele>
        <time>2020-03-15T07:01:27Z</time>
      </trkpt>
      <trkpt lat="38.2661480" lon="-0.7108480">
        <ele>133.4</ele>
        <time>2020-03-15T07:01:28Z</time>
      </trkpt>
      <trkpt lat="38.2661090" lon="-0.7109040">
        <ele>133.4</ele>
        <time>2020-03-15T07:01:29Z</time>
      </trkpt>
      <trkpt lat="38.2660730" lon="-0.7109580">
        <ele>133.4</ele>
        <time>2020-03-15T07:01:30Z</time>
      </trkpt>
      <trkpt lat="38.2660310" lon="-0.7110040">
        <ele>133.4</ele>
        <time>2020-03-15T07:01:31Z</time>
      </trkpt>
      <trkpt lat="38.2659880" lon="-0.7110570">
        <ele>133.4</ele>
        <time>2020-03-15T07:01:32Z</time>
      </trkpt>
      <trkpt lat="38.2659470" lon="-0.7111330">
        <ele>133.4</ele>
        <time>2020-03-15T07:01:33Z</time>
      </trkpt>
      <trkpt lat="38.2659010" lon="-0.7112090">
        <ele>133.4</ele>
        <time>2020-03-15T07:01:34Z</time>
      </trkpt>
      <trkpt lat="38.2658520" lon="-0.7112700">
        <ele>133.2</ele>
        <time>2020-03-15T07:01:35Z</time>
      </trkpt>
      <trkpt lat="38.2658030" lon="-0.7113290">
        <ele>133.2</ele>
        <time>2020-03-15T07:01:36Z</time>
      </trkpt>
      <trkpt lat="38.2657540" lon="-0.7113870">
        <ele>133.2</ele>
        <time>2020-03-15T07:01:37Z</time>
      </trkpt>
      <trkpt lat="38.2657030" lon="-0.7114380">
        <ele>133.4</ele>
        <time>2020-03-15T07:01:38Z</time>
      </trkpt>
      <trkpt lat="38.2656480" lon="-0.7114850">
        <ele>133.4</ele>
        <time>2020-03-15T07:01:39Z</time>
      </trkpt>
      <trkpt lat="38.2655960" lon="-0.7115360">
        <ele>133.2</ele>
        <time>2020-03-15T07:01:40Z</time>
      </trkpt>
      <trkpt lat="38.2655490" lon="-0.7115860">
        <ele>133.2</ele>
        <time>2020-03-15T07:01:41Z</time>
      </trkpt>
      <trkpt lat="38.2655000" lon="-0.7116410">
        <ele>133.0</ele>
        <time>2020-03-15T07:01:42Z</time>
      </trkpt>
      <trkpt lat="38.2654540" lon="-0.7116800">
        <ele>132.8</ele>
        <time>2020-03-15T07:01:43Z</time>
      </trkpt>
      <trkpt lat="38.2654090" lon="-0.7117390">
        <ele>133.0</ele>
        <time>2020-03-15T07:01:44Z</time>
      </trkpt>
      <trkpt lat="38.2653540" lon="-0.7118040">
        <ele>132.8</ele>
        <time>2020-03-15T07:01:45Z</time>
      </trkpt>
      <trkpt lat="38.2652950" lon="-0.7118590">
        <ele>133.2</ele>
        <time>2020-03-15T07:01:46Z</time>
      </trkpt>
      <trkpt lat="38.2652350" lon="-0.7119120">
        <ele>132.8</ele>
        <time>2020-03-15T07:01:47Z</time>
      </trkpt>
      <trkpt lat="38.2651780" lon="-0.7119740">
        <ele>132.8</ele>
        <time>2020-03-15T07:01:48Z</time>
      </trkpt>
      <trkpt lat="38.2651240" lon="-0.7120350">
        <ele>132.8</ele>
        <time>2020-03-15T07:01:49Z</time>
      </trkpt>
      <trkpt lat="38.2650670" lon="-0.7120940">
        <ele>132.8</ele>
        <time>2020-03-15T07:01:50Z</time>
      </trkpt>
      <trkpt lat="38.2650100" lon="-0.7121510">
        <ele>132.6</ele>
        <time>2020-03-15T07:01:51Z</time>
      </trkpt>
      <trkpt lat="38.2649530" lon="-0.7122150">
        <ele>132.6</ele>
        <time>2020-03-15T07:01:52Z</time>
      </trkpt>
      <trkpt lat="38.2648910" lon="-0.7122830">
        <ele>132.4</ele>
        <time>2020-03-15T07:01:53Z</time>
      </trkpt>
      <trkpt lat="38.2648370" lon="-0.7123460">
        <ele>132.2</ele>
        <time>2020-03-15T07:01:54Z</time>
      </trkpt>
      <trkpt lat="38.2647830" lon="-0.7124220">
        <ele>132.0</ele>
        <time>2020-03-15T07:01:55Z</time>
      </trkpt>
      <trkpt lat="38.2647430" lon="-0.7125150">
        <ele>131.8</ele>
        <time>2020-03-15T07:01:56Z</time>
      </trkpt>
      <trkpt lat="38.2647230" lon="-0.7126100">
        <ele>131.6</ele>
        <time>2020-03-15T07:01:57Z</time>
      </trkpt>
      <trkpt lat="38.2647090" lon="-0.7127030">
        <ele>131.6</ele>
        <time>2020-03-15T07:01:58Z</time>
      </trkpt>
      <trkpt lat="38.2647010" lon="-0.7127960">
        <ele>131.8</ele>
        <time>2020-03-15T07:01:59Z</time>
      </trkpt>
      <trkpt lat="38.2647020" lon="-0.7128930">
        <ele>131.8</ele>
        <time>2020-03-15T07:02:00Z</time>
      </trkpt>
      <trkpt lat="38.2647060" lon="-0.7129880">
        <ele>132.0</ele>
        <time>2020-03-15T07:02:01Z</time>
      </trkpt>
      <trkpt lat="38.2647080" lon="-0.7130750">
        <ele>132.2</ele>
        <time>2020-03-15T07:02:02Z</time>
      </trkpt>
      <trkpt lat="38.2647060" lon="-0.7131600">
        <ele>132.4</ele>
        <time>2020-03-15T07:02:03Z</time>
      </trkpt>
      <trkpt lat="38.2647060" lon="-0.7132440">
        <ele>132.4</ele>
        <time>2020-03-15T07:02:04Z</time>
      </trkpt>
      <trkpt lat="38.2647100" lon="-0.7133320">
        <ele>132.4</ele>
        <time>2020-03-15T07:02:05Z</time>
      </trkpt>
      <trkpt lat="38.2647130" lon="-0.7134220">
        <ele>132.4</ele>
        <time>2020-03-15T07:02:06Z</time>
      </trkpt>
      <trkpt lat="38.2647150" lon="-0.7135120">
        <ele>132.6</ele>
        <time>2020-03-15T07:02:07Z</time>
      </trkpt>
      <trkpt lat="38.2647200" lon="-0.7135990">
        <ele>132.8</ele>
        <time>2020-03-15T07:02:08Z</time>
      </trkpt>
      <trkpt lat="38.2647280" lon="-0.7136950">
        <ele>132.8</ele>
        <time>2020-03-15T07:02:09Z</time>
      </trkpt>
      <trkpt lat="38.2647300" lon="-0.7137840">
        <ele>132.8</ele>
        <time>2020-03-15T07:02:10Z</time>
      </trkpt>
      <trkpt lat="38.2647380" lon="-0.7138780">
        <ele>133.0</ele>
        <time>2020-03-15T07:02:11Z</time>
      </trkpt>
      <trkpt lat="38.2647410" lon="-0.7139640">
        <ele>133.2</ele>
        <time>2020-03-15T07:02:12Z</time>
      </trkpt>
      <trkpt lat="38.2647440" lon="-0.7140540">
        <ele>133.0</ele>
        <time>2020-03-15T07:02:13Z</time>
      </trkpt>
      <trkpt lat="38.2647490" lon="-0.7141470">
        <ele>133.0</ele>
        <time>2020-03-15T07:02:14Z</time>
      </trkpt>
      <trkpt lat="38.2647590" lon="-0.7142340">
        <ele>133.0</ele>
        <time>2020-03-15T07:02:15Z</time>
      </trkpt>
      <trkpt lat="38.2647630" lon="-0.7143230">
        <ele>133.2</ele>
        <time>2020-03-15T07:02:16Z</time>
      </trkpt>
      <trkpt lat="38.2647660" lon="-0.7144130">
        <ele>133.2</ele>
        <time>2020-03-15T07:02:17Z</time>
      </trkpt>
      <trkpt lat="38.2647700" lon="-0.7145000">
        <ele>133.4</ele>
        <time>2020-03-15T07:02:18Z</time>
      </trkpt>
      <trkpt lat="38.2647680" lon="-0.7145880">
        <ele>133.4</ele>
        <time>2020-03-15T07:02:19Z</time>
      </trkpt>
      <trkpt lat="38.2647640" lon="-0.7146770">
        <ele>133.4</ele>
        <time>2020-03-15T07:02:20Z</time>
      </trkpt>
      <trkpt lat="38.2647640" lon="-0.7147640">
        <ele>133.4</ele>
        <time>2020-03-15T07:02:21Z</time>
      </trkpt>
      <trkpt lat="38.2647620" lon="-0.7148530">
        <ele>133.4</ele>
        <time>2020-03-15T07:02:22Z</time>
      </trkpt>
      <trkpt lat="38.2647600" lon="-0.7149420">
        <ele>133.4</ele>
        <time>2020-03-15T07:02:23Z</time>
      </trkpt>
      <trkpt lat="38.2647570" lon="-0.7150280">
        <ele>133.4</ele>
        <time>2020-03-15T07:02:24Z</time>
      </trkpt>
      <trkpt lat="38.2647560" lon="-0.7151130">
        <ele>133.6</ele>
        <time>2020-03-15T07:02:25Z</time>
      </trkpt>
      <trkpt lat="38.2647560" lon="-0.7151990">
        <ele>133.6</ele>
        <time>2020-03-15T07:02:26Z</time>
      </trkpt>
      <trkpt lat="38.2647530" lon="-0.7152880">
        <ele>133.6</ele>
        <time>2020-03-15T07:02:27Z</time>
      </trkpt>
      <trkpt lat="38.2647500" lon="-0.7153700">
        <ele>133.6</ele>
        <time>2020-03-15T07:02:28Z</time>
      </trkpt>
      <trkpt lat="38.2647480" lon="-0.7154570">
        <ele>133.8</ele>
        <time>2020-03-15T07:02:29Z</time>
      </trkpt>
      <trkpt lat="38.2647470" lon="-0.7155440">
        <ele>133.8</ele>
        <time>2020-03-15T07:02:30Z</time>
      </trkpt>
      <trkpt lat="38.2647460" lon="-0.7156330">
        <ele>134.0</ele>
        <time>2020-03-15T07:02:31Z</time>
      </trkpt>
      <trkpt lat="38.2647480" lon="-0.7157180">
        <ele>134.0</ele>
        <time>2020-03-15T07:02:32Z</time>
      </trkpt>
      <trkpt lat="38.2647430" lon="-0.7158030">
        <ele>134.4</ele>
        <time>2020-03-15T07:02:33Z</time>
      </trkpt>
      <trkpt lat="38.2647400" lon="-0.7158900">
        <ele>134.4</ele>
        <time>2020-03-15T07:02:34Z</time>
      </trkpt>
      <trkpt lat="38.2647380" lon="-0.7159770">
        <ele>134.4</ele>
        <time>2020-03-15T07:02:35Z</time>
      </trkpt>
      <trkpt lat="38.2647370" lon="-0.7160620">
        <ele>134.6</ele>
        <time>2020-03-15T07:02:36Z</time>
      </trkpt>
      <trkpt lat="38.2647350" lon="-0.7161470">
        <ele>134.6</ele>
        <time>2020-03-15T07:02:37Z</time>
      </trkpt>
      <trkpt lat="38.2647330" lon="-0.7162330">
        <ele>134.8</ele>
        <time>2020-03-15T07:02:38Z</time>
      </trkpt>
      <trkpt lat="38.2647310" lon="-0.7163180">
        <ele>134.8</ele>
        <time>2020-03-15T07:02:39Z</time>
      </trkpt>
      <trkpt lat="38.2647330" lon="-0.7164020">
        <ele>134.8</ele>
        <time>2020-03-15T07:02:40Z</time>
      </trkpt>
      <trkpt lat="38.2647310" lon="-0.7164880">
        <ele>134.8</ele>
        <time>2020-03-15T07:02:41Z</time>
      </trkpt>
      <trkpt lat="38.2647270" lon="-0.7165730">
        <ele>134.8</ele>
        <time>2020-03-15T07:02:42Z</time>
      </trkpt>
      <trkpt lat="38.2647250" lon="-0.7166580">
        <ele>134.8</ele>
        <time>2020-03-15T07:02:43Z</time>
      </trkpt>
      <trkpt lat="38.2647240" lon="-0.7167440">
        <ele>135.0</ele>
        <time>2020-03-15T07:02:44Z</time>
      </trkpt>
      <trkpt lat="38.2647250" lon="-0.7168280">
        <ele>135.0</ele>
        <time>2020-03-15T07:02:45Z</time>
      </trkpt>
      <trkpt lat="38.2647220" lon="-0.7169130">
        <ele>135.2</ele>
        <time>2020-03-15T07:02:46Z</time>
      </trkpt>
      <trkpt lat="38.2647170" lon="-0.7170000">
        <ele>135.4</ele>
        <time>2020-03-15T07:02:47Z</time>
      </trkpt>
      <trkpt lat="38.2647140" lon="-0.7170860">
        <ele>135.4</ele>
        <time>2020-03-15T07:02:48Z</time>
      </trkpt>
      <trkpt lat="38.2647110" lon="-0.7171710">
        <ele>135.4</ele>
        <time>2020-03-15T07:02:49Z</time>
      </trkpt>
      <trkpt lat="38.2647080" lon="-0.7172580">
        <ele>135.4</ele>
        <time>2020-03-15T07:02:50Z</time>
      </trkpt>
      <trkpt lat="38.2647060" lon="-0.7173430">
        <ele>135.4</ele>
        <time>2020-03-15T07:02:51Z</time>
      </trkpt>
      <trkpt lat="38.2647050" lon="-0.7174280">
        <ele>135.6</ele>
        <time>2020-03-15T07:02:52Z</time>
      </trkpt>
      <trkpt lat="38.2647040" lon="-0.7175140">
        <ele>135.6</ele>
        <time>2020-03-15T07:02:53Z</time>
      </trkpt>
      <trkpt lat="38.2647040" lon="-0.7175990">
        <ele>135.8</ele>
        <time>2020-03-15T07:02:54Z</time>
      </trkpt>
      <trkpt lat="38.2647040" lon="-0.7176840">
        <ele>135.8</ele>
        <time>2020-03-15T07:02:55Z</time>
      </trkpt>
      <trkpt lat="38.2647010" lon="-0.7177700">
        <ele>136.0</ele>
        <time>2020-03-15T07:02:56Z</time>
      </trkpt>
      <trkpt lat="38.2646970" lon="-0.7178560">
        <ele>136.0</ele>
        <time>2020-03-15T07:02:57Z</time>
      </trkpt>
      <trkpt lat="38.2646940" lon="-0.7179420">
        <ele>136.4</ele>
        <time>2020-03-15T07:02:58Z</time>
      </trkpt>
      <trkpt lat="38.2646920" lon="-0.7180270">
        <ele>136.4</ele>
        <time>2020-03-15T07:02:59Z</time>
      </trkpt>
      <trkpt lat="38.2646890" lon="-0.7181100">
        <ele>136.4</ele>
        <time>2020-03-15T07:03:00Z</time>
      </trkpt>
      <trkpt lat="38.2646880" lon="-0.7181900">
        <ele>136.6</ele>
        <time>2020-03-15T07:03:01Z</time>
      </trkpt>
      <trkpt lat="38.2646850" lon="-0.7182700">
        <ele>136.8</ele>
        <time>2020-03-15T07:03:02Z</time>
      </trkpt>
      <trkpt lat="38.2646820" lon="-0.7183500">
        <ele>136.8</ele>
        <time>2020-03-15T07:03:03Z</time>
      </trkpt>
      <trkpt lat="38.2646810" lon="-0.7184310">
        <ele>137.0</ele>
        <time>2020-03-15T07:03:04Z</time>
      </trkpt>
      <trkpt lat="38.2646880" lon="-0.7185120">
        <ele>137.0</ele>
        <time>2020-03-15T07:03:05Z</time>
      </trkpt>
      <trkpt lat="38.2647010" lon="-0.7185870">
        <ele>137.2</ele>
        <time>2020-03-15T07:03:06Z</time>
      </trkpt>
      <trkpt lat="38.2647230" lon="-0.7186550">
        <ele>137.4</ele>
        <time>2020-03-15T07:03:07Z</time>
      </trkpt>
      <trkpt lat="38.2647510" lon="-0.7187190">
        <ele>137.6</ele>
        <time>2020-03-15T07:03:08Z</time>
      </trkpt>
      <trkpt lat="38.2647760" lon="-0.7187820">
        <ele>137.8</ele>
        <time>2020-03-15T07:03:09Z</time>
      </trkpt>
      <trkpt lat="38.2647920" lon="-0.7188500">
        <ele>138.0</ele>
        <time>2020-03-15T07:03:10Z</time>
      </trkpt>
      <trkpt lat="38.2647960" lon="-0.7189270">
        <ele>138.2</ele>
        <time>2020-03-15T07:03:11Z</time>
      </trkpt>
      <trkpt lat="38.2647880" lon="-0.7190070">
        <ele>138.2</ele>
        <time>2020-03-15T07:03:12Z</time>
      </trkpt>
      <trkpt lat="38.2647630" lon="-0.7190750">
        <ele>138.2</ele>
        <time>2020-03-15T07:03:13Z</time>
      </trkpt>
      <trkpt lat="38.2647260" lon="-0.7191320">
        <ele>138.2</ele>
        <time>2020-03-15T07:03:14Z</time>
      </trkpt>
      <trkpt lat="38.2646830" lon="-0.7191850">
        <ele>138.2</ele>
        <time>2020-03-15T07:03:15Z</time>
      </trkpt>
      <trkpt lat="38.2646410" lon="-0.7192350">
        <ele>138.4</ele>
        <time>2020-03-15T07:03:16Z</time>
      </trkpt>
      <trkpt lat="38.2646010" lon="-0.7192880">
        <ele>138.4</ele>
        <time>2020-03-15T07:03:17Z</time>
      </trkpt>
      <trkpt lat="38.2645700" lon="-0.7193500">
        <ele>138.4</ele>
        <time>2020-03-15T07:03:18Z</time>
      </trkpt>
      <trkpt lat="38.2645480" lon="-0.7194180">
        <ele>138.4</ele>
        <time>2020-03-15T07:03:19Z</time>
      </trkpt>
      <trkpt lat="38.2645330" lon="-0.7194890">
        <ele>138.6</ele>
        <time>2020-03-15T07:03:20Z</time>
      </trkpt>
      <trkpt lat="38.2645200" lon="-0.7195530">
        <ele>138.6</ele>
        <time>2020-03-15T07:03:21Z</time>
      </trkpt>
      <trkpt lat="38.2645190" lon="-0.7196230">
        <ele>138.8</ele>
        <time>2020-03-15T07:03:22Z</time>
      </trkpt>
      <trkpt lat="38.2645250" lon="-0.7196920">
        <ele>139.0</ele>
        <time>2020-03-15T07:03:23Z</time>
      </trkpt>
      <trkpt lat="38.2645290" lon="-0.7197660">
        <ele>139.2</ele>
        <time>2020-03-15T07:03:24Z</time>
      </trkpt>
      <trkpt lat="38.2645360" lon="-0.7198420">
        <ele>139.2</ele>
        <time>2020-03-15T07:03:25Z</time>
      </trkpt>
      <trkpt lat="38.2645410" lon="-0.7199160">
        <ele>139.4</ele>
        <time>2020-03-15T07:03:26Z</time>
      </trkpt>
      <trkpt lat="38.2645450" lon="-0.7199910">
        <ele>139.6</ele>
        <time>2020-03-15T07:03:27Z</time>
      </trkpt>
      <trkpt lat="38.2645490" lon="-0.7200660">
        <ele>139.6</ele>
        <time>2020-03-15T07:03:28Z</time>
      </trkpt>
      <trkpt lat="38.2645520" lon="-0.7201410">
        <ele>139.6</ele>
        <time>2020-03-15T07:03:29Z</time>
      </trkpt>
      <trkpt lat="38.2645550" lon="-0.7202140">
        <ele>140.0</ele>
        <time>2020-03-15T07:03:30Z</time>
      </trkpt>
      <trkpt lat="38.2645570" lon="-0.7202890">
        <ele>140.0</ele>
        <time>2020-03-15T07:03:31Z</time>
      </trkpt>
      <trkpt lat="38.2645610" lon="-0.7203650">
        <ele>140.0</ele>
        <time>2020-03-15T07:03:32Z</time>
      </trkpt>
      <trkpt lat="38.2645660" lon="-0.7204410">
        <ele>140.2</ele>
        <time>2020-03-15T07:03:33Z</time>
      </trkpt>
      <trkpt lat="38.2645710" lon="-0.7205170">
        <ele>140.2</ele>
        <time>2020-03-15T07:03:34Z</time>
      </trkpt>
      <trkpt lat="38.2645760" lon="-0.7205900">
        <ele>140.2</ele>
        <time>2020-03-15T07:03:35Z</time>
      </trkpt>
      <trkpt lat="38.2645800" lon="-0.7206640">
        <ele>140.4</ele>
        <time>2020-03-15T07:03:36Z</time>
      </trkpt>
      <trkpt lat="38.2645850" lon="-0.7207400">
        <ele>140.4</ele>
        <time>2020-03-15T07:03:37Z</time>
      </trkpt>
      <trkpt lat="38.2645870" lon="-0.7208180">
        <ele>140.8</ele>
        <time>2020-03-15T07:03:38Z</time>
      </trkpt>
      <trkpt lat="38.2645920" lon="-0.7208940">
        <ele>140.8</ele>
        <time>2020-03-15T07:03:39Z</time>
      </trkpt>
      <trkpt lat="38.2645980" lon="-0.7209710">
        <ele>140.8</ele>
        <time>2020-03-15T07:03:40Z</time>
      </trkpt>
      <trkpt lat="38.2646040" lon="-0.7210460">
        <ele>140.8</ele>
        <time>2020-03-15T07:03:41Z</time>
      </trkpt>
      <trkpt lat="38.2646100" lon="-0.7211240">
        <ele>141.0</ele>
        <time>2020-03-15T07:03:42Z</time>
      </trkpt>
      <trkpt lat="38.2646170" lon="-0.7212030">
        <ele>141.0</ele>
        <time>2020-03-15T07:03:43Z</time>
      </trkpt>
      <trkpt lat="38.2646250" lon="-0.7212820">
        <ele>141.0</ele>
        <time>2020-03-15T07:03:44Z</time>
      </trkpt>
      <trkpt lat="38.2646340" lon="-0.7213620">
        <ele>141.0</ele>
        <time>2020-03-15T07:03:45Z</time>
      </trkpt>
      <trkpt lat="38.2646430" lon="-0.7214420">
        <ele>141.0</ele>
        <time>2020-03-15T07:03:46Z</time>
      </trkpt>
      <trkpt lat="38.2646520" lon="-0.7215240">
        <ele>141.0</ele>
        <time>2020-03-15T07:03:47Z</time>
      </trkpt>
      <trkpt lat="38.2646660" lon="-0.7216020">
        <ele>141.2</ele>
        <time>2020-03-15T07:03:48Z</time>
      </trkpt>
      <trkpt lat="38.2646770" lon="-0.7216720">
        <ele>141.4</ele>
        <time>2020-03-15T07:03:49Z</time>
      </trkpt>
      <trkpt lat="38.2646990" lon="-0.7217400">
        <ele>141.6</ele>
        <time>2020-03-15T07:03:50Z</time>
      </trkpt>
      <trkpt lat="38.2647330" lon="-0.7218170">
        <ele>141.6</ele>
        <time>2020-03-15T07:03:51Z</time>
      </trkpt>
      <trkpt lat="38.2647620" lon="-0.7218860">
        <ele>141.4</ele>
        <time>2020-03-15T07:03:52Z</time>
      </trkpt>
      <trkpt lat="38.2648010" lon="-0.7219530">
        <ele>141.6</ele>
        <time>2020-03-15T07:03:53Z</time>
      </trkpt>
      <trkpt lat="38.2648340" lon="-0.7220180">
        <ele>141.8</ele>
        <time>2020-03-15T07:03:54Z</time>
      </trkpt>
      <trkpt lat="38.2648700" lon="-0.7220820">
        <ele>141.8</ele>
        <time>2020-03-15T07:03:55Z</time>
      </trkpt>
      <trkpt lat="38.2649030" lon="-0.7221450">
        <ele>142.0</ele>
        <time>2020-03-15T07:03:56Z</time>
      </trkpt>
      <trkpt lat="38.2649360" lon="-0.7222100">
        <ele>142.2</ele>
        <time>2020-03-15T07:03:57Z</time>
      </trkpt>
      <trkpt lat="38.2649690" lon="-0.7222680">
        <ele>142.2</ele>
        <time>2020-03-15T07:03:58Z</time>
      </trkpt>
      <trkpt lat="38.2650010" lon="-0.7223230">
        <ele>142.4</ele>
        <time>2020-03-15T07:03:59Z</time>
      </trkpt>
      <trkpt lat="38.2650340" lon="-0.7223770">
        <ele>142.6</ele>
        <time>2020-03-15T07:04:00Z</time>
      </trkpt>
      <trkpt lat="38.2650650" lon="-0.7224310">
        <ele>142.6</ele>
        <time>2020-03-15T07:04:01Z</time>
      </trkpt>
      <trkpt lat="38.2650950" lon="-0.7224890">
        <ele>142.8</ele>
        <time>2020-03-15T07:04:02Z</time>
      </trkpt>
      <trkpt lat="38.2651220" lon="-0.7225450">
        <ele>143.0</ele>
        <time>2020-03-15T07:04:03Z</time>
      </trkpt>
      <trkpt lat="38.2651460" lon="-0.7226040">
        <ele>142.8</ele>
        <time>2020-03-15T07:04:04Z</time>
      </trkpt>
      <trkpt lat="38.2651680" lon="-0.7226610">
        <ele>143.0</ele>
        <time>2020-03-15T07:04:05Z</time>
      </trkpt>
      <trkpt lat="38.2651910" lon="-0.7227170">
        <ele>143.4</ele>
        <time>2020-03-15T07:04:06Z</time>
      </trkpt>
      <trkpt lat="38.2652080" lon="-0.7227710">
        <ele>143.4</ele>
        <time>2020-03-15T07:04:07Z</time>
      </trkpt>
      <trkpt lat="38.2652130" lon="-0.7228320">
        <ele>143.6</ele>
        <time>2020-03-15T07:04:08Z</time>
      </trkpt>
      <trkpt lat="38.2652190" lon="-0.7228930">
        <ele>143.6</ele>
        <time>2020-03-15T07:04:09Z</time>
      </trkpt>
      <trkpt lat="38.2652230" lon="-0.7229570">
        <ele>143.8</ele>
        <time>2020-03-15T07:04:10Z</time>
      </trkpt>
      <trkpt lat="38.2652260" lon="-0.7230230">
        <ele>143.8</ele>
        <time>2020-03-15T07:04:11Z</time>
      </trkpt>
      <trkpt lat="38.2652300" lon="-0.7230840">
        <ele>143.8</ele>
        <time>2020-03-15T07:04:12Z</time>
      </trkpt>
      <trkpt lat="38.2652260" lon="-0.7231450">
        <ele>143.6</ele>
        <time>2020-03-15T07:04:13Z</time>
      </trkpt>
      <trkpt lat="38.2652180" lon="-0.7232060">
        <ele>143.8</ele>
        <time>2020-03-15T07:04:14Z</time>
      </trkpt>
      <trkpt lat="38.2652020" lon="-0.7232700">
        <ele>144.0</ele>
        <time>2020-03-15T07:04:15Z</time>
      </trkpt>
      <trkpt lat="38.2651750" lon="-0.7233290">
        <ele>143.8</ele>
        <time>2020-03-15T07:04:16Z</time>
      </trkpt>
      <trkpt lat="38.2651410" lon="-0.7233890">
        <ele>143.6</ele>
        <time>2020-03-15T07:04:17Z</time>
      </trkpt>
      <trkpt lat="38.2650980" lon="-0.7234480">
        <ele>143.6</ele>
        <time>2020-03-15T07:04:18Z</time>
      </trkpt>
      <trkpt lat="38.2650500" lon="-0.7235050">
        <ele>143.4</ele>
        <time>2020-03-15T07:04:19Z</time>
      </trkpt>
      <trkpt lat="38.2650060" lon="-0.7235700">
        <ele>143.0</ele>
        <time>2020-03-15T07:04:20Z</time>
      </trkpt>
      <trkpt lat="38.2649610" lon="-0.7236370">
        <ele>143.0</ele>
        <time>2020-03-15T07:04:21Z</time>
      </trkpt>
      <trkpt lat="38.2649190" lon="-0.7237070">
        <ele>143.0</ele>
        <time>2020-03-15T07:04:22Z</time>
      </trkpt>
      <trkpt lat="38.2648820" lon="-0.7237800">
        <ele>143.0</ele>
        <time>2020-03-15T07:04:23Z</time>
      </trkpt>
      <trkpt lat="38.2648550" lon="-0.7238640">
        <ele>143.2</ele>
        <time>2020-03-15T07:04:24Z</time>
      </trkpt>
      <trkpt lat="38.2648280" lon="-0.7239380">
        <ele>143.4</ele>
        <time>2020-03-15T07:04:25Z</time>
      </trkpt>
      <trkpt lat="38.2648150" lon="-0.7240190">
        <ele>143.6</ele>
        <time>2020-03-15T07:04:26Z</time>
      </trkpt>
      <trkpt lat="38.2648140" lon="-0.7240990">
        <ele>143.6</ele>
        <time>2020-03-15T07:04:27Z</time>
      </trkpt>
      <trkpt lat="38.2648210" lon="-0.7241860">
        <ele>143.6</ele>
        <time>2020-03-15T07:04:28Z</time>
      </trkpt>
      <trkpt lat="38.2648330" lon="-0.7242720">
        <ele>143.4</ele>
        <time>2020-03-15T07:04:29Z</time>
      </trkpt>
      <trkpt lat="38.2648480" lon="-0.7243580">
        <ele>143.0</ele>
        <time>2020-03-15T07:04:30Z</time>
      </trkpt>
      <trkpt lat="38.2648640" lon="-0.7244510">
        <ele>142.6</ele>
        <time>2020-03-15T07:04:31Z</time>
      </trkpt>
      <trkpt lat="38.2648840" lon="-0.7245450">
        <ele>142.0</ele>
        <time>2020-03-15T07:04:32Z</time>
      </trkpt>
      <trkpt lat="38.2649120" lon="-0.7246420">
        <ele>141.8</ele>
        <time>2020-03-15T07:04:33Z</time>
      </trkpt>
      <trkpt lat="38.2649440" lon="-0.7247400">
        <ele>141.4</ele>
        <time>2020-03-15T07:04:34Z</time>
      </trkpt>
      <trkpt lat="38.2649790" lon="-0.7248410">
        <ele>140.8</ele>
        <time>2020-03-15T07:04:35Z</time>
      </trkpt>
      <trkpt lat="38.2650170" lon="-0.7249430">
        <ele>140.4</ele>
        <time>2020-03-15T07:04:36Z</time>
      </trkpt>
      <trkpt lat="38.2650570" lon="-0.7250470">
        <ele>139.6</ele>
        <time>2020-03-15T07:04:37Z</time>
      </trkpt>
      <trkpt lat="38.2650960" lon="-0.7251530">
        <ele>138.8</ele>
        <time>2020-03-15T07:04:38Z</time>
      </trkpt>
      <trkpt lat="38.2651350" lon="-0.7252620">
        <ele>138.4</ele>
        <time>2020-03-15T07:04:39Z</time>
      </trkpt>
      <trkpt lat="38.2651790" lon="-0.7253690">
        <ele>138.0</ele>
        <time>2020-03-15T07:04:40Z</time>
      </trkpt>
      <trkpt lat="38.2652230" lon="-0.7254770">
        <ele>137.4</ele>
        <time>2020-03-15T07:04:41Z</time>
      </trkpt>
      <trkpt lat="38.2652670" lon="-0.7255850">
        <ele>137.0</ele>
        <time>2020-03-15T07:04:42Z</time>
      </trkpt>
      <trkpt lat="38.2653090" lon="-0.7256950">
        <ele>136.8</ele>
        <time>2020-03-15T07:04:43Z</time>
      </trkpt>
      <trkpt lat="38.2653500" lon="-0.7258040">
        <ele>136.4</ele>
        <time>2020-03-15T07:04:44Z</time>
      </trkpt>
      <trkpt lat="38.2653890" lon="-0.7259120">
        <ele>136.2</ele>
        <time>2020-03-15T07:04:45Z</time>
      </trkpt>
      <trkpt lat="38.2654240" lon="-0.7260210">
        <ele>135.8</ele>
        <time>2020-03-15T07:04:46Z</time>
      </trkpt>
      <trkpt lat="38.2654540" lon="-0.7261320">
        <ele>135.8</ele>
        <time>2020-03-15T07:04:47Z</time>
      </trkpt>
      <trkpt lat="38.2654800" lon="-0.7262390">
        <ele>135.8</ele>
        <time>2020-03-15T07:04:48Z</time>
      </trkpt>
      <trkpt lat="38.2655020" lon="-0.7263440">
        <ele>135.8</ele>
        <time>2020-03-15T07:04:49Z</time>
      </trkpt>
      <trkpt lat="38.2655180" lon="-0.7264400">
        <ele>135.8</ele>
        <time>2020-03-15T07:04:50Z</time>
      </trkpt>
      <trkpt lat="38.2655300" lon="-0.7265350">
        <ele>136.2</ele>
        <time>2020-03-15T07:04:51Z</time>
      </trkpt>
      <trkpt lat="38.2655380" lon="-0.7266270">
        <ele>136.6</ele>
        <time>2020-03-15T07:04:52Z</time>
      </trkpt>
      <trkpt lat="38.2655420" lon="-0.7267110">
        <ele>137.6</ele>
        <time>2020-03-15T07:04:54Z</time>
      </trkpt>
      <trkpt lat="38.2655350" lon="-0.7268590">
        <ele>138.0</ele>
        <time>2020-03-15T07:04:55Z</time>
      </trkpt>
      <trkpt lat="38.2655330" lon="-0.7269250">
        <ele>138.6</ele>
        <time>2020-03-15T07:04:56Z</time>
      </trkpt>
      <trkpt lat="38.2655300" lon="-0.7269900">
        <ele>139.0</ele>
        <time>2020-03-15T07:04:57Z</time>
      </trkpt>
      <trkpt lat="38.2655260" lon="-0.7270490">
        <ele>139.4</ele>
        <time>2020-03-15T07:04:58Z</time>
      </trkpt>
      <trkpt lat="38.2655190" lon="-0.7271050">
        <ele>140.0</ele>
        <time>2020-03-15T07:04:59Z</time>
      </trkpt>
      <trkpt lat="38.2655130" lon="-0.7271590">
        <ele>140.4</ele>
        <time>2020-03-15T07:05:00Z</time>
      </trkpt>
      <trkpt lat="38.2655050" lon="-0.7272110">
        <ele>140.8</ele>
        <time>2020-03-15T07:05:01Z</time>
      </trkpt>
      <trkpt lat="38.2654950" lon="-0.7272620">
        <ele>141.4</ele>
        <time>2020-03-15T07:05:02Z</time>
      </trkpt>
      <trkpt lat="38.2654830" lon="-0.7273130">
        <ele>142.0</ele>
        <time>2020-03-15T07:05:03Z</time>
      </trkpt>
      <trkpt lat="38.2654690" lon="-0.7273640">
        <ele>142.6</ele>
        <time>2020-03-15T07:05:04Z</time>
      </trkpt>
      <trkpt lat="38.2654530" lon="-0.7274120">
        <ele>143.0</ele>
        <time>2020-03-15T07:05:05Z</time>
      </trkpt>
      <trkpt lat="38.2654340" lon="-0.7274580">
        <ele>143.4</ele>
        <time>2020-03-15T07:05:06Z</time>
      </trkpt>
      <trkpt lat="38.2654120" lon="-0.7275050">
        <ele>143.6</ele>
        <time>2020-03-15T07:05:07Z</time>
      </trkpt>
      <trkpt lat="38.2653880" lon="-0.7275530">
        <ele>144.0</ele>
        <time>2020-03-15T07:05:08Z</time>
      </trkpt>
      <trkpt lat="38.2653640" lon="-0.7276040">
        <ele>144.0</ele>
        <time>2020-03-15T07:05:09Z</time>
      </trkpt>
      <trkpt lat="38.2653410" lon="-0.7276580">
        <ele>144.2</ele>
        <time>2020-03-15T07:05:10Z</time>
      </trkpt>
      <trkpt lat="38.2653160" lon="-0.7277150">
        <ele>144.2</ele>
        <time>2020-03-15T07:05:11Z</time>
      </trkpt>
      <trkpt lat="38.2652890" lon="-0.7277730">
        <ele>144.2</ele>
        <time>2020-03-15T07:05:12Z</time>
      </trkpt>
      <trkpt lat="38.2652570" lon="-0.7278300">
        <ele>144.2</ele>
        <time>2020-03-15T07:05:13Z</time>
      </trkpt>
      <trkpt lat="38.2652280" lon="-0.7278850">
        <ele>144.2</ele>
        <time>2020-03-15T07:05:14Z</time>
      </trkpt>
      <trkpt lat="38.2651960" lon="-0.7279460">
        <ele>144.2</ele>
        <time>2020-03-15T07:05:15Z</time>
      </trkpt>
      <trkpt lat="38.2651650" lon="-0.7280070">
        <ele>144.2</ele>
        <time>2020-03-15T07:05:16Z</time>
      </trkpt>
      <trkpt lat="38.2651350" lon="-0.7280730">
        <ele>144.2</ele>
        <time>2020-03-15T07:05:17Z</time>
      </trkpt>
      <trkpt lat="38.2651040" lon="-0.7281410">
        <ele>144.0</ele>
        <time>2020-03-15T07:05:18Z</time>
      </trkpt>
      <trkpt lat="38.2650740" lon="-0.7282100">
        <ele>144.0</ele>
        <time>2020-03-15T07:05:19Z</time>
      </trkpt>
      <trkpt lat="38.2650420" lon="-0.7282840">
        <ele>143.8</ele>
        <time>2020-03-15T07:05:20Z</time>
      </trkpt>
      <trkpt lat="38.2650100" lon="-0.7283590">
        <ele>143.8</ele>
        <time>2020-03-15T07:05:21Z</time>
      </trkpt>
      <trkpt lat="38.2649760" lon="-0.7284330">
        <ele>143.6</ele>
        <time>2020-03-15T07:05:22Z</time>
      </trkpt>
      <trkpt lat="38.2649430" lon="-0.7285070">
        <ele>143.6</ele>
        <time>2020-03-15T07:05:23Z</time>
      </trkpt>
      <trkpt lat="38.2649090" lon="-0.7285810">
        <ele>143.4</ele>
        <time>2020-03-15T07:05:24Z</time>
      </trkpt>
      <trkpt lat="38.2648730" lon="-0.7286580">
        <ele>143.2</ele>
        <time>2020-03-15T07:05:25Z</time>
      </trkpt>
      <trkpt lat="38.2648360" lon="-0.7287370">
        <ele>143.0</ele>
        <time>2020-03-15T07:05:26Z</time>
      </trkpt>
      <trkpt lat="38.2647990" lon="-0.7288170">
        <ele>142.6</ele>
        <time>2020-03-15T07:05:27Z</time>
      </trkpt>
      <trkpt lat="38.2647640" lon="-0.7288980">
        <ele>142.6</ele>
        <time>2020-03-15T07:05:28Z</time>
      </trkpt>
      <trkpt lat="38.2647260" lon="-0.7289810">
        <ele>142.6</ele>
        <time>2020-03-15T07:05:29Z</time>
      </trkpt>
      <trkpt lat="38.2646910" lon="-0.7290620">
        <ele>142.6</ele>
        <time>2020-03-15T07:05:30Z</time>
      </trkpt>
      <trkpt lat="38.2646530" lon="-0.7291400">
        <ele>142.4</ele>
        <time>2020-03-15T07:05:31Z</time>
      </trkpt>
      <trkpt lat="38.2646140" lon="-0.7292180">
        <ele>142.4</ele>
        <time>2020-03-15T07:05:32Z</time>
      </trkpt>
      <trkpt lat="38.2645720" lon="-0.7292930">
        <ele>142.6</ele>
        <time>2020-03-15T07:05:33Z</time>
      </trkpt>
      <trkpt lat="38.2645320" lon="-0.7293700">
        <ele>142.4</ele>
        <time>2020-03-15T07:05:34Z</time>
      </trkpt>
      <trkpt lat="38.2644940" lon="-0.7294450">
        <ele>142.6</ele>
        <time>2020-03-15T07:05:35Z</time>
      </trkpt>
      <trkpt lat="38.2644530" lon="-0.7295210">
        <ele>142.6</ele>
        <time>2020-03-15T07:05:36Z</time>
      </trkpt>
      <trkpt lat="38.2644120" lon="-0.7295950">
        <ele>142.6</ele>
        <time>2020-03-15T07:05:37Z</time>
      </trkpt>
      <trkpt lat="38.2643710" lon="-0.7296690">
        <ele>142.4</ele>
        <time>2020-03-15T07:05:38Z</time>
      </trkpt>
      <trkpt lat="38.2643340" lon="-0.7297510">
        <ele>142.4</ele>
        <time>2020-03-15T07:05:39Z</time>
      </trkpt>
      <trkpt lat="38.2642950" lon="-0.7298270">
        <ele>142.6</ele>
        <time>2020-03-15T07:05:40Z</time>
      </trkpt>
      <trkpt lat="38.2642550" lon="-0.7299000">
        <ele>142.6</ele>
        <time>2020-03-15T07:05:41Z</time>
      </trkpt>
      <trkpt lat="38.2642180" lon="-0.7299760">
        <ele>142.6</ele>
        <time>2020-03-15T07:05:42Z</time>
      </trkpt>
      <trkpt lat="38.2641800" lon="-0.7300520">
        <ele>142.8</ele>
        <time>2020-03-15T07:05:43Z</time>
      </trkpt>
      <trkpt lat="38.2641420" lon="-0.7301300">
        <ele>142.8</ele>
        <time>2020-03-15T07:05:44Z</time>
      </trkpt>
      <trkpt lat="38.2641060" lon="-0.7302030">
        <ele>143.0</ele>
        <time>2020-03-15T07:05:45Z</time>
      </trkpt>
      <trkpt lat="38.2640680" lon="-0.7302790">
        <ele>143.0</ele>
        <time>2020-03-15T07:05:46Z</time>
      </trkpt>
      <trkpt lat="38.2640330" lon="-0.7303470">
        <ele>143.4</ele>
        <time>2020-03-15T07:05:47Z</time>
      </trkpt>
      <trkpt lat="38.2639970" lon="-0.7304190">
        <ele>143.6</ele>
        <time>2020-03-15T07:05:48Z</time>
      </trkpt>
      <trkpt lat="38.2639600" lon="-0.7304890">
        <ele>143.6</ele>
        <time>2020-03-15T07:05:49Z</time>
      </trkpt>
      <trkpt lat="38.2639230" lon="-0.7305650">
        <ele>143.8</ele>
        <time>2020-03-15T07:05:50Z</time>
      </trkpt>
      <trkpt lat="38.2638890" lon="-0.7306340">
        <ele>144.0</ele>
        <time>2020-03-15T07:05:51Z</time>
      </trkpt>
      <trkpt lat="38.2638610" lon="-0.7307090">
        <ele>144.0</ele>
        <time>2020-03-15T07:05:52Z</time>
      </trkpt>
      <trkpt lat="38.2638310" lon="-0.7307830">
        <ele>144.0</ele>
        <time>2020-03-15T07:05:53Z</time>
      </trkpt>
      <trkpt lat="38.2638060" lon="-0.7308520">
        <ele>144.0</ele>
        <time>2020-03-15T07:05:54Z</time>
      </trkpt>
      <trkpt lat="38.2637820" lon="-0.7309270">
        <ele>144.2</ele>
        <time>2020-03-15T07:05:55Z</time>
      </trkpt>
      <trkpt lat="38.2637540" lon="-0.7310030">
        <ele>144.4</ele>
        <time>2020-03-15T07:05:56Z</time>
      </trkpt>
      <trkpt lat="38.2637280" lon="-0.7310820">
        <ele>144.4</ele>
        <time>2020-03-15T07:05:57Z</time>
      </trkpt>
      <trkpt lat="38.2637020" lon="-0.7311550">
        <ele>144.4</ele>
        <time>2020-03-15T07:05:58Z</time>
      </trkpt>
      <trkpt lat="38.2636750" lon="-0.7312310">
        <ele>144.6</ele>
        <time>2020-03-15T07:05:59Z</time>
      </trkpt>
      <trkpt lat="38.2636510" lon="-0.7313060">
        <ele>144.8</ele>
        <time>2020-03-15T07:06:00Z</time>
      </trkpt>
      <trkpt lat="38.2636260" lon="-0.7313850">
        <ele>145.0</ele>
        <time>2020-03-15T07:06:01Z</time>
      </trkpt>
      <trkpt lat="38.2636010" lon="-0.7314620">
        <ele>145.0</ele>
        <time>2020-03-15T07:06:02Z</time>
      </trkpt>
      <trkpt lat="38.2635770" lon="-0.7315380">
        <ele>145.0</ele>
        <time>2020-03-15T07:06:03Z</time>
      </trkpt>
      <trkpt lat="38.2635520" lon="-0.7316150">
        <ele>145.0</ele>
        <time>2020-03-15T07:06:04Z</time>
      </trkpt>
      <trkpt lat="38.2635260" lon="-0.7316940">
        <ele>145.0</ele>
        <time>2020-03-15T07:06:05Z</time>
      </trkpt>
      <trkpt lat="38.2635010" lon="-0.7317740">
        <ele>145.0</ele>
        <time>2020-03-15T07:06:06Z</time>
      </trkpt>
      <trkpt lat="38.2634760" lon="-0.7318560">
        <ele>145.0</ele>
        <time>2020-03-15T07:06:07Z</time>
      </trkpt>
      <trkpt lat="38.2634530" lon="-0.7319310">
        <ele>145.0</ele>
        <time>2020-03-15T07:06:08Z</time>
      </trkpt>
      <trkpt lat="38.2634310" lon="-0.7320110">
        <ele>145.0</ele>
        <time>2020-03-15T07:06:09Z</time>
      </trkpt>
      <trkpt lat="38.2634070" lon="-0.7320920">
        <ele>145.0</ele>
        <time>2020-03-15T07:06:10Z</time>
      </trkpt>
      <trkpt lat="38.2633820" lon="-0.7321750">
        <ele>144.8</ele>
        <time>2020-03-15T07:06:11Z</time>
      </trkpt>
      <trkpt lat="38.2633580" lon="-0.7322590">
        <ele>144.8</ele>
        <time>2020-03-15T07:06:12Z</time>
      </trkpt>
      <trkpt lat="38.2633320" lon="-0.7323600">
        <ele>144.6</ele>
        <time>2020-03-15T07:06:13Z</time>
      </trkpt>
      <trkpt lat="38.2633050" lon="-0.7324430">
        <ele>144.4</ele>
        <time>2020-03-15T07:06:14Z</time>
      </trkpt>
      <trkpt lat="38.2632800" lon="-0.7325310">
        <ele>144.0</ele>
        <time>2020-03-15T07:06:15Z</time>
      </trkpt>
      <trkpt lat="38.2632550" lon="-0.7326160">
        <ele>144.0</ele>
        <time>2020-03-15T07:06:16Z</time>
      </trkpt>
      <trkpt lat="38.2632260" lon="-0.7327090">
        <ele>144.0</ele>
        <time>2020-03-15T07:06:17Z</time>
      </trkpt>
      <trkpt lat="38.2631990" lon="-0.7327980">
        <ele>143.6</ele>
        <time>2020-03-15T07:06:18Z</time>
      </trkpt>
      <trkpt lat="38.2631730" lon="-0.7328880">
        <ele>143.6</ele>
        <time>2020-03-15T07:06:19Z</time>
      </trkpt>
      <trkpt lat="38.2631470" lon="-0.7329780">
        <ele>143.4</ele>
        <time>2020-03-15T07:06:20Z</time>
      </trkpt>
      <trkpt lat="38.2631210" lon="-0.7330700">
        <ele>143.6</ele>
        <time>2020-03-15T07:06:21Z</time>
      </trkpt>
      <trkpt lat="38.2630980" lon="-0.7331690">
        <ele>143.6</ele>
        <time>2020-03-15T07:06:22Z</time>
      </trkpt>
      <trkpt lat="38.2630740" lon="-0.7332620">
        <ele>143.4</ele>
        <time>2020-03-15T07:06:23Z</time>
      </trkpt>
      <trkpt lat="38.2630590" lon="-0.7333560">
        <ele>143.2</ele>
        <time>2020-03-15T07:06:24Z</time>
      </trkpt>
      <trkpt lat="38.2630390" lon="-0.7334490">
        <ele>143.2</ele>
        <time>2020-03-15T07:06:25Z</time>
      </trkpt>
      <trkpt lat="38.2630110" lon="-0.7335400">
        <ele>143.0</ele>
        <time>2020-03-15T07:06:26Z</time>
      </trkpt>
      <trkpt lat="38.2629830" lon="-0.7336290">
        <ele>143.2</ele>
        <time>2020-03-15T07:06:27Z</time>
      </trkpt>
      <trkpt lat="38.2629540" lon="-0.7337150">
        <ele>143.4</ele>
        <time>2020-03-15T07:06:28Z</time>
      </trkpt>
      <trkpt lat="38.2629220" lon="-0.7338000">
        <ele>143.4</ele>
        <time>2020-03-15T07:06:29Z</time>
      </trkpt>
      <trkpt lat="38.2628900" lon="-0.7338840">
        <ele>143.4</ele>
        <time>2020-03-15T07:06:30Z</time>
      </trkpt>
      <trkpt lat="38.2628570" lon="-0.7339680">
        <ele>143.4</ele>
        <time>2020-03-15T07:06:31Z</time>
      </trkpt>
      <trkpt lat="38.2628240" lon="-0.7340560">
        <ele>143.6</ele>
        <time>2020-03-15T07:06:32Z</time>
      </trkpt>
      <trkpt lat="38.2627880" lon="-0.7341410">
        <ele>143.6</ele>
        <time>2020-03-15T07:06:33Z</time>
      </trkpt>
      <trkpt lat="38.2627500" lon="-0.7342220">
        <ele>143.6</ele>
        <time>2020-03-15T07:06:34Z</time>
      </trkpt>
      <trkpt lat="38.2627180" lon="-0.7343070">
        <ele>143.8</ele>
        <time>2020-03-15T07:06:35Z</time>
      </trkpt>
      <trkpt lat="38.2626900" lon="-0.7343920">
        <ele>143.6</ele>
        <time>2020-03-15T07:06:36Z</time>
      </trkpt>
      <trkpt lat="38.2626610" lon="-0.7344760">
        <ele>144.0</ele>
        <time>2020-03-15T07:06:37Z</time>
      </trkpt>
      <trkpt lat="38.2626350" lon="-0.7345580">
        <ele>144.0</ele>
        <time>2020-03-15T07:06:38Z</time>
      </trkpt>
      <trkpt lat="38.2626090" lon="-0.7346410">
        <ele>144.0</ele>
        <time>2020-03-15T07:06:39Z</time>
      </trkpt>
      <trkpt lat="38.2625820" lon="-0.7347260">
        <ele>144.0</ele>
        <time>2020-03-15T07:06:40Z</time>
      </trkpt>
      <trkpt lat="38.2625560" lon="-0.7348090">
        <ele>144.0</ele>
        <time>2020-03-15T07:06:41Z</time>
      </trkpt>
      <trkpt lat="38.2625300" lon="-0.7348940">
        <ele>144.0</ele>
        <time>2020-03-15T07:06:42Z</time>
      </trkpt>
      <trkpt lat="38.2625060" lon="-0.7349770">
        <ele>144.0</ele>
        <time>2020-03-15T07:06:43Z</time>
      </trkpt>
      <trkpt lat="38.2624780" lon="-0.7350590">
        <ele>144.0</ele>
        <time>2020-03-15T07:06:44Z</time>
      </trkpt>
      <trkpt lat="38.2624490" lon="-0.7351440">
        <ele>144.0</ele>
        <time>2020-03-15T07:06:45Z</time>
      </trkpt>
      <trkpt lat="38.2624200" lon="-0.7352260">
        <ele>144.0</ele>
        <time>2020-03-15T07:06:46Z</time>
      </trkpt>
      <trkpt lat="38.2623880" lon="-0.7353100">
        <ele>144.0</ele>
        <time>2020-03-15T07:06:47Z</time>
      </trkpt>
      <trkpt lat="38.2623590" lon="-0.7353930">
        <ele>144.0</ele>
        <time>2020-03-15T07:06:48Z</time>
      </trkpt>
      <trkpt lat="38.2623320" lon="-0.7354750">
        <ele>144.0</ele>
        <time>2020-03-15T07:06:49Z</time>
      </trkpt>
      <trkpt lat="38.2623000" lon="-0.7355570">
        <ele>144.0</ele>
        <time>2020-03-15T07:06:50Z</time>
      </trkpt>
      <trkpt lat="38.2622690" lon="-0.7356410">
        <ele>144.0</ele>
        <time>2020-03-15T07:06:51Z</time>
      </trkpt>
      <trkpt lat="38.2622370" lon="-0.7357260">
        <ele>144.0</ele>
        <time>2020-03-15T07:06:52Z</time>
      </trkpt>
      <trkpt lat="38.2622050" lon="-0.7358090">
        <ele>144.0</ele>
        <time>2020-03-15T07:06:53Z</time>
      </trkpt>
      <trkpt lat="38.2621750" lon="-0.7358910">
        <ele>144.0</ele>
        <time>2020-03-15T07:06:54Z</time>
      </trkpt>
      <trkpt lat="38.2621460" lon="-0.7359750">
        <ele>144.0</ele>
        <time>2020-03-15T07:06:55Z</time>
      </trkpt>
      <trkpt lat="38.2621170" lon="-0.7360610">
        <ele>144.0</ele>
        <time>2020-03-15T07:06:56Z</time>
      </trkpt>
      <trkpt lat="38.2620900" lon="-0.7361490">
        <ele>144.0</ele>
        <time>2020-03-15T07:06:57Z</time>
      </trkpt>
      <trkpt lat="38.2620670" lon="-0.7362400">
        <ele>144.0</ele>
        <time>2020-03-15T07:06:58Z</time>
      </trkpt>
      <trkpt lat="38.2620410" lon="-0.7363300">
        <ele>144.0</ele>
        <time>2020-03-15T07:06:59Z</time>
      </trkpt>
      <trkpt lat="38.2620200" lon="-0.7364270">
        <ele>144.0</ele>
        <time>2020-03-15T07:07:00Z</time>
      </trkpt>
      <trkpt lat="38.2620010" lon="-0.7365150">
        <ele>143.8</ele>
        <time>2020-03-15T07:07:01Z</time>
      </trkpt>
      <trkpt lat="38.2619810" lon="-0.7366080">
        <ele>143.8</ele>
        <time>2020-03-15T07:07:02Z</time>
      </trkpt>
      <trkpt lat="38.2619620" lon="-0.7366990">
        <ele>143.6</ele>
        <time>2020-03-15T07:07:03Z</time>
      </trkpt>
      <trkpt lat="38.2619500" lon="-0.7368030">
        <ele>143.6</ele>
        <time>2020-03-15T07:07:04Z</time>
      </trkpt>
      <trkpt lat="38.2619340" lon="-0.7369000">
        <ele>143.4</ele>
        <time>2020-03-15T07:07:05Z</time>
      </trkpt>
      <trkpt lat="38.2619260" lon="-0.7369900">
        <ele>143.2</ele>
        <time>2020-03-15T07:07:06Z</time>
      </trkpt>
      <trkpt lat="38.2619110" lon="-0.7370850">
        <ele>143.2</ele>
        <time>2020-03-15T07:07:07Z</time>
      </trkpt>
      <trkpt lat="38.2618990" lon="-0.7371770">
        <ele>143.2</ele>
        <time>2020-03-15T07:07:08Z</time>
      </trkpt>
      <trkpt lat="38.2618880" lon="-0.7372720">
        <ele>143.0</ele>
        <time>2020-03-15T07:07:09Z</time>
      </trkpt>
      <trkpt lat="38.2618820" lon="-0.7373670">
        <ele>143.0</ele>
        <time>2020-03-15T07:07:10Z</time>
      </trkpt>
      <trkpt lat="38.2618780" lon="-0.7374630">
        <ele>142.8</ele>
        <time>2020-03-15T07:07:11Z</time>
      </trkpt>
      <trkpt lat="38.2618720" lon="-0.7375590">
        <ele>142.8</ele>
        <time>2020-03-15T07:07:12Z</time>
      </trkpt>
      <trkpt lat="38.2618650" lon="-0.7376550">
        <ele>142.8</ele>
        <time>2020-03-15T07:07:13Z</time>
      </trkpt>
      <trkpt lat="38.2618600" lon="-0.7377470">
        <ele>142.6</ele>
        <time>2020-03-15T07:07:14Z</time>
      </trkpt>
      <trkpt lat="38.2618480" lon="-0.7378410">
        <ele>142.8</ele>
        <time>2020-03-15T07:07:15Z</time>
      </trkpt>
      <trkpt lat="38.2618330" lon="-0.7379330">
        <ele>142.8</ele>
        <time>2020-03-15T07:07:16Z</time>
      </trkpt>
      <trkpt lat="38.2618160" lon="-0.7380260">
        <ele>143.0</ele>
        <time>2020-03-15T07:07:17Z</time>
      </trkpt>
      <trkpt lat="38.2617970" lon="-0.7381180">
        <ele>142.8</ele>
        <time>2020-03-15T07:07:18Z</time>
      </trkpt>
      <trkpt lat="38.2617770" lon="-0.7382120">
        <ele>142.8</ele>
        <time>2020-03-15T07:07:19Z</time>
      </trkpt>
      <trkpt lat="38.2617560" lon="-0.7383030">
        <ele>142.8</ele>
        <time>2020-03-15T07:07:20Z</time>
      </trkpt>
      <trkpt lat="38.2617320" lon="-0.7383950">
        <ele>143.0</ele>
        <time>2020-03-15T07:07:21Z</time>
      </trkpt>
      <trkpt lat="38.2617070" lon="-0.7384870">
        <ele>142.8</ele>
        <time>2020-03-15T07:07:22Z</time>
      </trkpt>
      <trkpt lat="38.2616810" lon="-0.7385780">
        <ele>142.8</ele>
        <time>2020-03-15T07:07:23Z</time>
      </trkpt>
      <trkpt lat="38.2616530" lon="-0.7386660">
        <ele>142.6</ele>
        <time>2020-03-15T07:07:24Z</time>
      </trkpt>
      <trkpt lat="38.2616240" lon="-0.7387550">
        <ele>142.6</ele>
        <time>2020-03-15T07:07:25Z</time>
      </trkpt>
      <trkpt lat="38.2615950" lon="-0.7388430">
        <ele>142.6</ele>
        <time>2020-03-15T07:07:26Z</time>
      </trkpt>
      <trkpt lat="38.2615660" lon="-0.7389330">
        <ele>142.4</ele>
        <time>2020-03-15T07:07:27Z</time>
      </trkpt>
      <trkpt lat="38.2615380" lon="-0.7390210">
        <ele>142.4</ele>
        <time>2020-03-15T07:07:28Z</time>
      </trkpt>
      <trkpt lat="38.2615100" lon="-0.7391110">
        <ele>142.4</ele>
        <time>2020-03-15T07:07:29Z</time>
      </trkpt>
      <trkpt lat="38.2614830" lon="-0.7392010">
        <ele>142.4</ele>
        <time>2020-03-15T07:07:30Z</time>
      </trkpt>
      <trkpt lat="38.2614570" lon="-0.7392910">
        <ele>142.4</ele>
        <time>2020-03-15T07:07:31Z</time>
      </trkpt>
      <trkpt lat="38.2614330" lon="-0.7393810">
        <ele>142.4</ele>
        <time>2020-03-15T07:07:32Z</time>
      </trkpt>
      <trkpt lat="38.2614100" lon="-0.7394730">
        <ele>142.2</ele>
        <time>2020-03-15T07:07:33Z</time>
      </trkpt>
      <trkpt lat="38.2613880" lon="-0.7395660">
        <ele>142.0</ele>
        <time>2020-03-15T07:07:34Z</time>
      </trkpt>
      <trkpt lat="38.2613710" lon="-0.7396600">
        <ele>142.2</ele>
        <time>2020-03-15T07:07:35Z</time>
      </trkpt>
      <trkpt lat="38.2613590" lon="-0.7397540">
        <ele>142.2</ele>
        <time>2020-03-15T07:07:36Z</time>
      </trkpt>
      <trkpt lat="38.2613470" lon="-0.7398480">
        <ele>142.0</ele>
        <time>2020-03-15T07:07:37Z</time>
      </trkpt>
      <trkpt lat="38.2613370" lon="-0.7399420">
        <ele>142.4</ele>
        <time>2020-03-15T07:07:38Z</time>
      </trkpt>
      <trkpt lat="38.2613300" lon="-0.7400350">
        <ele>142.2</ele>
        <time>2020-03-15T07:07:39Z</time>
      </trkpt>
      <trkpt lat="38.2613260" lon="-0.7401290">
        <ele>142.4</ele>
        <time>2020-03-15T07:07:40Z</time>
      </trkpt>
      <trkpt lat="38.2613230" lon="-0.7402200">
        <ele>142.8</ele>
        <time>2020-03-15T07:07:41Z</time>
      </trkpt>
      <trkpt lat="38.2613210" lon="-0.7403080">
        <ele>143.0</ele>
        <time>2020-03-15T07:07:42Z</time>
      </trkpt>
      <trkpt lat="38.2613170" lon="-0.7404000">
        <ele>142.8</ele>
        <time>2020-03-15T07:07:43Z</time>
      </trkpt>
      <trkpt lat="38.2613140" lon="-0.7404920">
        <ele>143.0</ele>
        <time>2020-03-15T07:07:44Z</time>
      </trkpt>
      <trkpt lat="38.2613090" lon="-0.7405850">
        <ele>143.0</ele>
        <time>2020-03-15T07:07:45Z</time>
      </trkpt>
      <trkpt lat="38.2612980" lon="-0.7406770">
        <ele>142.8</ele>
        <time>2020-03-15T07:07:46Z</time>
      </trkpt>
      <trkpt lat="38.2612810" lon="-0.7407700">
        <ele>142.8</ele>
        <time>2020-03-15T07:07:47Z</time>
      </trkpt>
      <trkpt lat="38.2612560" lon="-0.7408580">
        <ele>143.0</ele>
        <time>2020-03-15T07:07:48Z</time>
      </trkpt>
      <trkpt lat="38.2612250" lon="-0.7409420">
        <ele>143.0</ele>
        <time>2020-03-15T07:07:49Z</time>
      </trkpt>
      <trkpt lat="38.2611870" lon="-0.7410240">
        <ele>143.0</ele>
        <time>2020-03-15T07:07:50Z</time>
      </trkpt>
      <trkpt lat="38.2611430" lon="-0.7411000">
        <ele>143.0</ele>
        <time>2020-03-15T07:07:51Z</time>
      </trkpt>
      <trkpt lat="38.2610990" lon="-0.7411750">
        <ele>143.0</ele>
        <time>2020-03-15T07:07:52Z</time>
      </trkpt>
      <trkpt lat="38.2610550" lon="-0.7412520">
        <ele>143.2</ele>
        <time>2020-03-15T07:07:53Z</time>
      </trkpt>
      <trkpt lat="38.2610110" lon="-0.7413270">
        <ele>143.2</ele>
        <time>2020-03-15T07:07:54Z</time>
      </trkpt>
      <trkpt lat="38.2609680" lon="-0.7414020">
        <ele>143.2</ele>
        <time>2020-03-15T07:07:55Z</time>
      </trkpt>
      <trkpt lat="38.2609240" lon="-0.7414760">
        <ele>143.2</ele>
        <time>2020-03-15T07:07:56Z</time>
      </trkpt>
      <trkpt lat="38.2608790" lon="-0.7415490">
        <ele>143.2</ele>
        <time>2020-03-15T07:07:57Z</time>
      </trkpt>
      <trkpt lat="38.2608360" lon="-0.7416250">
        <ele>143.2</ele>
        <time>2020-03-15T07:07:58Z</time>
      </trkpt>
      <trkpt lat="38.2607940" lon="-0.7417010">
        <ele>143.4</ele>
        <time>2020-03-15T07:07:59Z</time>
      </trkpt>
      <trkpt lat="38.2607550" lon="-0.7417780">
        <ele>143.6</ele>
        <time>2020-03-15T07:08:00Z</time>
      </trkpt>
      <trkpt lat="38.2607190" lon="-0.7418600">
        <ele>143.4</ele>
        <time>2020-03-15T07:08:01Z</time>
      </trkpt>
      <trkpt lat="38.2606870" lon="-0.7419440">
        <ele>143.6</ele>
        <time>2020-03-15T07:08:02Z</time>
      </trkpt>
      <trkpt lat="38.2606590" lon="-0.7420250">
        <ele>143.6</ele>
        <time>2020-03-15T07:08:03Z</time>
      </trkpt>
      <trkpt lat="38.2606310" lon="-0.7421030">
        <ele>143.8</ele>
        <time>2020-03-15T07:08:04Z</time>
      </trkpt>
      <trkpt lat="38.2606010" lon="-0.7421770">
        <ele>144.4</ele>
        <time>2020-03-15T07:08:05Z</time>
      </trkpt>
      <trkpt lat="38.2605690" lon="-0.7422410">
        <ele>144.8</ele>
        <time>2020-03-15T07:08:06Z</time>
      </trkpt>
      <trkpt lat="38.2605330" lon="-0.7423020">
        <ele>145.0</ele>
        <time>2020-03-15T07:08:07Z</time>
      </trkpt>
      <trkpt lat="38.2604980" lon="-0.7423600">
        <ele>145.4</ele>
        <time>2020-03-15T07:08:08Z</time>
      </trkpt>
      <trkpt lat="38.2604600" lon="-0.7424200">
        <ele>145.6</ele>
        <time>2020-03-15T07:08:09Z</time>
      </trkpt>
      <trkpt lat="38.2604240" lon="-0.7424860">
        <ele>145.4</ele>
        <time>2020-03-15T07:08:10Z</time>
      </trkpt>
      <trkpt lat="38.2603920" lon="-0.7425560">
        <ele>145.4</ele>
        <time>2020-03-15T07:08:11Z</time>
      </trkpt>
      <trkpt lat="38.2603690" lon="-0.7426340">
        <ele>145.4</ele>
        <time>2020-03-15T07:08:12Z</time>
      </trkpt>
      <trkpt lat="38.2603540" lon="-0.7427190">
        <ele>145.0</ele>
        <time>2020-03-15T07:08:13Z</time>
      </trkpt>
      <trkpt lat="38.2603440" lon="-0.7428090">
        <ele>145.0</ele>
        <time>2020-03-15T07:08:14Z</time>
      </trkpt>
      <trkpt lat="38.2603340" lon="-0.7428980">
        <ele>145.0</ele>
        <time>2020-03-15T07:08:15Z</time>
      </trkpt>
      <trkpt lat="38.2603290" lon="-0.7429860">
        <ele>145.0</ele>
        <time>2020-03-15T07:08:16Z</time>
      </trkpt>
      <trkpt lat="38.2603250" lon="-0.7430740">
        <ele>145.0</ele>
        <time>2020-03-15T07:08:17Z</time>
      </trkpt>
      <trkpt lat="38.2603180" lon="-0.7431630">
        <ele>144.8</ele>
        <time>2020-03-15T07:08:18Z</time>
      </trkpt>
      <trkpt lat="38.2603110" lon="-0.7432520">
        <ele>145.0</ele>
        <time>2020-03-15T07:08:19Z</time>
      </trkpt>
      <trkpt lat="38.2603070" lon="-0.7433390">
        <ele>145.0</ele>
        <time>2020-03-15T07:08:20Z</time>
      </trkpt>
      <trkpt lat="38.2603000" lon="-0.7434280">
        <ele>145.0</ele>
        <time>2020-03-15T07:08:21Z</time>
      </trkpt>
      <trkpt lat="38.2602910" lon="-0.7435190">
        <ele>145.2</ele>
        <time>2020-03-15T07:08:22Z</time>
      </trkpt>
      <trkpt lat="38.2602810" lon="-0.7436060">
        <ele>145.2</ele>
        <time>2020-03-15T07:08:23Z</time>
      </trkpt>
      <trkpt lat="38.2602670" lon="-0.7436950">
        <ele>145.2</ele>
        <time>2020-03-15T07:08:24Z</time>
      </trkpt>
      <trkpt lat="38.2602550" lon="-0.7437810">
        <ele>145.2</ele>
        <time>2020-03-15T07:08:25Z</time>
      </trkpt>
      <trkpt lat="38.2602410" lon="-0.7438690">
        <ele>145.2</ele>
        <time>2020-03-15T07:08:26Z</time>
      </trkpt>
      <trkpt lat="38.2602260" lon="-0.7439580">
        <ele>145.2</ele>
        <time>2020-03-15T07:08:27Z</time>
      </trkpt>
      <trkpt lat="38.2602150" lon="-0.7440460">
        <ele>145.4</ele>
        <time>2020-03-15T07:08:28Z</time>
      </trkpt>
      <trkpt lat="38.2602060" lon="-0.7441350">
        <ele>145.6</ele>
        <time>2020-03-15T07:08:29Z</time>
      </trkpt>
      <trkpt lat="38.2602010" lon="-0.7442250">
        <ele>145.4</ele>
        <time>2020-03-15T07:08:30Z</time>
      </trkpt>
      <trkpt lat="38.2601980" lon="-0.7443150">
        <ele>145.4</ele>
        <time>2020-03-15T07:08:31Z</time>
      </trkpt>
      <trkpt lat="38.2601960" lon="-0.7444060">
        <ele>145.6</ele>
        <time>2020-03-15T07:08:32Z</time>
      </trkpt>
      <trkpt lat="38.2601930" lon="-0.7444970">
        <ele>145.6</ele>
        <time>2020-03-15T07:08:33Z</time>
      </trkpt>
      <trkpt lat="38.2601900" lon="-0.7445860">
        <ele>145.6</ele>
        <time>2020-03-15T07:08:34Z</time>
      </trkpt>
      <trkpt lat="38.2601880" lon="-0.7446780">
        <ele>145.8</ele>
        <time>2020-03-15T07:08:35Z</time>
      </trkpt>
      <trkpt lat="38.2601840" lon="-0.7447710">
        <ele>145.8</ele>
        <time>2020-03-15T07:08:36Z</time>
      </trkpt>
      <trkpt lat="38.2601830" lon="-0.7448580">
        <ele>146.0</ele>
        <time>2020-03-15T07:08:37Z</time>
      </trkpt>
      <trkpt lat="38.2601770" lon="-0.7449440">
        <ele>146.0</ele>
        <time>2020-03-15T07:08:38Z</time>
      </trkpt>
      <trkpt lat="38.2601690" lon="-0.7450320">
        <ele>146.0</ele>
        <time>2020-03-15T07:08:39Z</time>
      </trkpt>
      <trkpt lat="38.2601630" lon="-0.7451200">
        <ele>146.2</ele>
        <time>2020-03-15T07:08:40Z</time>
      </trkpt>
      <trkpt lat="38.2601570" lon="-0.7452050">
        <ele>146.4</ele>
        <time>2020-03-15T07:08:41Z</time>
      </trkpt>
      <trkpt lat="38.2601450" lon="-0.7452880">
        <ele>146.4</ele>
        <time>2020-03-15T07:08:42Z</time>
      </trkpt>
      <trkpt lat="38.2601300" lon="-0.7453690">
        <ele>146.6</ele>
        <time>2020-03-15T07:08:43Z</time>
      </trkpt>
      <trkpt lat="38.2601130" lon="-0.7454530">
        <ele>146.8</ele>
        <time>2020-03-15T07:08:44Z</time>
      </trkpt>
      <trkpt lat="38.2601000" lon="-0.7455360">
        <ele>147.2</ele>
        <time>2020-03-15T07:08:45Z</time>
      </trkpt>
      <trkpt lat="38.2600860" lon="-0.7456220">
        <ele>147.4</ele>
        <time>2020-03-15T07:08:46Z</time>
      </trkpt>
      <trkpt lat="38.2600710" lon="-0.7457060">
        <ele>147.6</ele>
        <time>2020-03-15T07:08:47Z</time>
      </trkpt>
      <trkpt lat="38.2600550" lon="-0.7457880">
        <ele>147.6</ele>
        <time>2020-03-15T07:08:48Z</time>
      </trkpt>
      <trkpt lat="38.2600360" lon="-0.7458680">
        <ele>148.0</ele>
        <time>2020-03-15T07:08:49Z</time>
      </trkpt>
      <trkpt lat="38.2600160" lon="-0.7459440">
        <ele>148.2</ele>
        <time>2020-03-15T07:08:50Z</time>
      </trkpt>
      <trkpt lat="38.2599980" lon="-0.7460230">
        <ele>148.4</ele>
        <time>2020-03-15T07:08:51Z</time>
      </trkpt>
      <trkpt lat="38.2599860" lon="-0.7461050">
        <ele>148.6</ele>
        <time>2020-03-15T07:08:52Z</time>
      </trkpt>
      <trkpt lat="38.2599670" lon="-0.7461820">
        <ele>148.6</ele>
        <time>2020-03-15T07:08:53Z</time>
      </trkpt>
      <trkpt lat="38.2599490" lon="-0.7462670">
        <ele>148.6</ele>
        <time>2020-03-15T07:08:54Z</time>
      </trkpt>
      <trkpt lat="38.2599380" lon="-0.7463540">
        <ele>148.6</ele>
        <time>2020-03-15T07:08:55Z</time>
      </trkpt>
      <trkpt lat="38.2599270" lon="-0.7464410">
        <ele>148.8</ele>
        <time>2020-03-15T07:08:56Z</time>
      </trkpt>
      <trkpt lat="38.2599180" lon="-0.7465300">
        <ele>148.8</ele>
        <time>2020-03-15T07:08:57Z</time>
      </trkpt>
      <trkpt lat="38.2599080" lon="-0.7466220">
        <ele>148.8</ele>
        <time>2020-03-15T07:08:58Z</time>
      </trkpt>
      <trkpt lat="38.2599030" lon="-0.7467090">
        <ele>148.8</ele>
        <time>2020-03-15T07:08:59Z</time>
      </trkpt>
      <trkpt lat="38.2598930" lon="-0.7467940">
        <ele>149.0</ele>
        <time>2020-03-15T07:09:00Z</time>
      </trkpt>
      <trkpt lat="38.2598860" lon="-0.7468820">
        <ele>149.2</ele>
        <time>2020-03-15T07:09:01Z</time>
      </trkpt>
      <trkpt lat="38.2598780" lon="-0.7469760">
        <ele>149.2</ele>
        <time>2020-03-15T07:09:02Z</time>
      </trkpt>
      <trkpt lat="38.2598710" lon="-0.7470660">
        <ele>149.2</ele>
        <time>2020-03-15T07:09:03Z</time>
      </trkpt>
      <trkpt lat="38.2598640" lon="-0.7471550">
        <ele>149.2</ele>
        <time>2020-03-15T07:09:04Z</time>
      </trkpt>
      <trkpt lat="38.2598590" lon="-0.7472450">
        <ele>149.4</ele>
        <time>2020-03-15T07:09:05Z</time>
      </trkpt>
      <trkpt lat="38.2598570" lon="-0.7473340">
        <ele>149.2</ele>
        <time>2020-03-15T07:09:06Z</time>
      </trkpt>
      <trkpt lat="38.2598570" lon="-0.7474240">
        <ele>149.4</ele>
        <time>2020-03-15T07:09:07Z</time>
      </trkpt>
      <trkpt lat="38.2598620" lon="-0.7475150">
        <ele>149.6</ele>
        <time>2020-03-15T07:09:08Z</time>
      </trkpt>
      <trkpt lat="38.2598740" lon="-0.7476070">
        <ele>149.6</ele>
        <time>2020-03-15T07:09:09Z</time>
      </trkpt>
      <trkpt lat="38.2598900" lon="-0.7476950">
        <ele>149.6</ele>
        <time>2020-03-15T07:09:10Z</time>
      </trkpt>
      <trkpt lat="38.2599040" lon="-0.7477830">
        <ele>149.6</ele>
        <time>2020-03-15T07:09:11Z</time>
      </trkpt>
      <trkpt lat="38.2599190" lon="-0.7478700">
        <ele>149.6</ele>
        <time>2020-03-15T07:09:12Z</time>
      </trkpt>
      <trkpt lat="38.2599410" lon="-0.7479510">
        <ele>149.6</ele>
        <time>2020-03-15T07:09:13Z</time>
      </trkpt>
      <trkpt lat="38.2599600" lon="-0.7480410">
        <ele>149.4</ele>
        <time>2020-03-15T07:09:14Z</time>
      </trkpt>
      <trkpt lat="38.2599730" lon="-0.7481360">
        <ele>149.2</ele>
        <time>2020-03-15T07:09:15Z</time>
      </trkpt>
      <trkpt lat="38.2599850" lon="-0.7482300">
        <ele>149.0</ele>
        <time>2020-03-15T07:09:16Z</time>
      </trkpt>
      <trkpt lat="38.2599940" lon="-0.7483260">
        <ele>148.8</ele>
        <time>2020-03-15T07:09:17Z</time>
      </trkpt>
      <trkpt lat="38.2600000" lon="-0.7484250">
        <ele>148.4</ele>
        <time>2020-03-15T07:09:18Z</time>
      </trkpt>
      <trkpt lat="38.2600080" lon="-0.7485240">
        <ele>148.2</ele>
        <time>2020-03-15T07:09:19Z</time>
      </trkpt>
      <trkpt lat="38.2600160" lon="-0.7486250">
        <ele>148.0</ele>
        <time>2020-03-15T07:09:20Z</time>
      </trkpt>
      <trkpt lat="38.2600340" lon="-0.7487250">
        <ele>147.6</ele>
        <time>2020-03-15T07:09:21Z</time>
      </trkpt>
      <trkpt lat="38.2600700" lon="-0.7488260">
        <ele>147.2</ele>
        <time>2020-03-15T07:09:22Z</time>
      </trkpt>
      <trkpt lat="38.2601090" lon="-0.7489260">
        <ele>147.0</ele>
        <time>2020-03-15T07:09:23Z</time>
      </trkpt>
      <trkpt lat="38.2601410" lon="-0.7490240">
        <ele>146.8</ele>
        <time>2020-03-15T07:09:24Z</time>
      </trkpt>
      <trkpt lat="38.2601690" lon="-0.7491220">
        <ele>146.8</ele>
        <time>2020-03-15T07:09:25Z</time>
      </trkpt>
      <trkpt lat="38.2601960" lon="-0.7492190">
        <ele>146.8</ele>
        <time>2020-03-15T07:09:26Z</time>
      </trkpt>
      <trkpt lat="38.2602200" lon="-0.7493130">
        <ele>146.8</ele>
        <time>2020-03-15T07:09:27Z</time>
      </trkpt>
      <trkpt lat="38.2602390" lon="-0.7494090">
        <ele>146.8</ele>
        <time>2020-03-15T07:09:28Z</time>
      </trkpt>
      <trkpt lat="38.2602500" lon="-0.7495070">
        <ele>146.8</ele>
        <time>2020-03-15T07:09:29Z</time>
      </trkpt>
      <trkpt lat="38.2602630" lon="-0.7496090">
        <ele>146.6</ele>
        <time>2020-03-15T07:09:30Z</time>
      </trkpt>
      <trkpt lat="38.2602860" lon="-0.7497030">
        <ele>146.8</ele>
        <time>2020-03-15T07:09:31Z</time>
      </trkpt>
      <trkpt lat="38.2603240" lon="-0.7497820">
        <ele>146.8</ele>
        <time>2020-03-15T07:09:32Z</time>
      </trkpt>
      <trkpt lat="38.2603730" lon="-0.7498470">
        <ele>146.8</ele>
        <time>2020-03-15T07:09:33Z</time>
      </trkpt>
      <trkpt lat="38.2604310" lon="-0.7498980">
        <ele>147.0</ele>
        <time>2020-03-15T07:09:34Z</time>
      </trkpt>
      <trkpt lat="38.2604980" lon="-0.7499400">
        <ele>146.8</ele>
        <time>2020-03-15T07:09:35Z</time>
      </trkpt>
      <trkpt lat="38.2605650" lon="-0.7499700">
        <ele>147.2</ele>
        <time>2020-03-15T07:09:36Z</time>
      </trkpt>
      <trkpt lat="38.2606340" lon="-0.7499940">
        <ele>147.2</ele>
        <time>2020-03-15T07:09:37Z</time>
      </trkpt>
      <trkpt lat="38.2607040" lon="-0.7500100">
        <ele>147.4</ele>
        <time>2020-03-15T07:09:38Z</time>
      </trkpt>
      <trkpt lat="38.2607730" lon="-0.7500260">
        <ele>147.4</ele>
        <time>2020-03-15T07:09:39Z</time>
      </trkpt>
      <trkpt lat="38.2608430" lon="-0.7500500">
        <ele>147.4</ele>
        <time>2020-03-15T07:09:40Z</time>
      </trkpt>
      <trkpt lat="38.2609110" lon="-0.7500710">
        <ele>147.6</ele>
        <time>2020-03-15T07:09:41Z</time>
      </trkpt>
      <trkpt lat="38.2609780" lon="-0.7500950">
        <ele>147.6</ele>
        <time>2020-03-15T07:09:42Z</time>
      </trkpt>
      <trkpt lat="38.2610480" lon="-0.7501150">
        <ele>147.8</ele>
        <time>2020-03-15T07:09:43Z</time>
      </trkpt>
      <trkpt lat="38.2611160" lon="-0.7501310">
        <ele>147.8</ele>
        <time>2020-03-15T07:09:44Z</time>
      </trkpt>
      <trkpt lat="38.2611850" lon="-0.7501440">
        <ele>147.8</ele>
        <time>2020-03-15T07:09:45Z</time>
      </trkpt>
      <trkpt lat="38.2612540" lon="-0.7501520">
        <ele>148.0</ele>
        <time>2020-03-15T07:09:46Z</time>
      </trkpt>
      <trkpt lat="38.2613220" lon="-0.7501540">
        <ele>148.2</ele>
        <time>2020-03-15T07:09:47Z</time>
      </trkpt>
      <trkpt lat="38.2613890" lon="-0.7501460">
        <ele>148.2</ele>
        <time>2020-03-15T07:09:48Z</time>
      </trkpt>
      <trkpt lat="38.2614530" lon="-0.7501270">
        <ele>148.4</ele>
        <time>2020-03-15T07:09:49Z</time>
      </trkpt>
      <trkpt lat="38.2615150" lon="-0.7501040">
        <ele>148.6</ele>
        <time>2020-03-15T07:09:50Z</time>
      </trkpt>
      <trkpt lat="38.2615750" lon="-0.7500800">
        <ele>148.8</ele>
        <time>2020-03-15T07:09:51Z</time>
      </trkpt>
      <trkpt lat="38.2616330" lon="-0.7500560">
        <ele>149.0</ele>
        <time>2020-03-15T07:09:52Z</time>
      </trkpt>
      <trkpt lat="38.2616920" lon="-0.7500370">
        <ele>149.2</ele>
        <time>2020-03-15T07:09:53Z</time>
      </trkpt>
      <trkpt lat="38.2617510" lon="-0.7500240">
        <ele>149.2</ele>
        <time>2020-03-15T07:09:54Z</time>
      </trkpt>
      <trkpt lat="38.2618110" lon="-0.7500160">
        <ele>149.4</ele>
        <time>2020-03-15T07:09:55Z</time>
      </trkpt>
      <trkpt lat="38.2618700" lon="-0.7500170">
        <ele>149.6</ele>
        <time>2020-03-15T07:09:56Z</time>
      </trkpt>
      <trkpt lat="38.2619290" lon="-0.7500190">
        <ele>149.8</ele>
        <time>2020-03-15T07:09:57Z</time>
      </trkpt>
      <trkpt lat="38.2619860" lon="-0.7500250">
        <ele>149.8</ele>
        <time>2020-03-15T07:09:58Z</time>
      </trkpt>
      <trkpt lat="38.2620480" lon="-0.7500370">
        <ele>149.6</ele>
        <time>2020-03-15T07:09:59Z</time>
      </trkpt>
      <trkpt lat="38.2621120" lon="-0.7500510">
        <ele>149.4</ele>
        <time>2020-03-15T07:10:00Z</time>
      </trkpt>
      <trkpt lat="38.2621780" lon="-0.7500670">
        <ele>149.2</ele>
        <time>2020-03-15T07:10:01Z</time>
      </trkpt>
      <trkpt lat="38.2622450" lon="-0.7500840">
        <ele>149.2</ele>
        <time>2020-03-15T07:10:02Z</time>
      </trkpt>
      <trkpt lat="38.2623120" lon="-0.7501020">
        <ele>149.2</ele>
        <time>2020-03-15T07:10:03Z</time>
      </trkpt>
      <trkpt lat="38.2623770" lon="-0.7501210">
        <ele>149.2</ele>
        <time>2020-03-15T07:10:04Z</time>
      </trkpt>
      <trkpt lat="38.2624430" lon="-0.7501430">
        <ele>149.2</ele>
        <time>2020-03-15T07:10:05Z</time>
      </trkpt>
      <trkpt lat="38.2625070" lon="-0.7501660">
        <ele>149.2</ele>
        <time>2020-03-15T07:10:06Z</time>
      </trkpt>
      <trkpt lat="38.2625720" lon="-0.7501880">
        <ele>149.2</ele>
        <time>2020-03-15T07:10:07Z</time>
      </trkpt>
      <trkpt lat="38.2626350" lon="-0.7502120">
        <ele>149.4</ele>
        <time>2020-03-15T07:10:08Z</time>
      </trkpt>
      <trkpt lat="38.2626970" lon="-0.7502360">
        <ele>149.6</ele>
        <time>2020-03-15T07:10:09Z</time>
      </trkpt>
      <trkpt lat="38.2627570" lon="-0.7502640">
        <ele>149.6</ele>
        <time>2020-03-15T07:10:10Z</time>
      </trkpt>
      <trkpt lat="38.2628140" lon="-0.7502980">
        <ele>149.8</ele>
        <time>2020-03-15T07:10:11Z</time>
      </trkpt>
      <trkpt lat="38.2628690" lon="-0.7503430">
        <ele>150.0</ele>
        <time>2020-03-15T07:10:12Z</time>
      </trkpt>
      <trkpt lat="38.2629240" lon="-0.7503920">
        <ele>149.8</ele>
        <time>2020-03-15T07:10:13Z</time>
      </trkpt>
      <trkpt lat="38.2629810" lon="-0.7504540">
        <ele>149.2</ele>
        <time>2020-03-15T07:10:14Z</time>
      </trkpt>
      <trkpt lat="38.2630390" lon="-0.7505200">
        <ele>148.6</ele>
        <time>2020-03-15T07:10:15Z</time>
      </trkpt>
      <trkpt lat="38.2630980" lon="-0.7505940">
        <ele>148.0</ele>
        <time>2020-03-15T07:10:16Z</time>
      </trkpt>
      <trkpt lat="38.2631550" lon="-0.7506730">
        <ele>147.8</ele>
        <time>2020-03-15T07:10:17Z</time>
      </trkpt>
      <trkpt lat="38.2632120" lon="-0.7507520">
        <ele>147.8</ele>
        <time>2020-03-15T07:10:18Z</time>
      </trkpt>
      <trkpt lat="38.2632700" lon="-0.7508220">
        <ele>147.8</ele>
        <time>2020-03-15T07:10:19Z</time>
      </trkpt>
      <trkpt lat="38.2633280" lon="-0.7508880">
        <ele>147.8</ele>
        <time>2020-03-15T07:10:20Z</time>
      </trkpt>
      <trkpt lat="38.2633830" lon="-0.7509520">
        <ele>148.2</ele>
        <time>2020-03-15T07:10:21Z</time>
      </trkpt>
      <trkpt lat="38.2634350" lon="-0.7510190">
        <ele>148.4</ele>
        <time>2020-03-15T07:10:22Z</time>
      </trkpt>
      <trkpt lat="38.2634830" lon="-0.7510860">
        <ele>148.4</ele>
        <time>2020-03-15T07:10:23Z</time>
      </trkpt>
      <trkpt lat="38.2635300" lon="-0.7511510">
        <ele>148.4</ele>
        <time>2020-03-15T07:10:24Z</time>
      </trkpt>
      <trkpt lat="38.2635720" lon="-0.7512260">
        <ele>148.4</ele>
        <time>2020-03-15T07:10:25Z</time>
      </trkpt>
      <trkpt lat="38.2636100" lon="-0.7513010">
        <ele>148.4</ele>
        <time>2020-03-15T07:10:26Z</time>
      </trkpt>
      <trkpt lat="38.2636440" lon="-0.7513780">
        <ele>148.6</ele>
        <time>2020-03-15T07:10:27Z</time>
      </trkpt>
      <trkpt lat="38.2636740" lon="-0.7514560">
        <ele>148.6</ele>
        <time>2020-03-15T07:10:28Z</time>
      </trkpt>
      <trkpt lat="38.2637010" lon="-0.7515360">
        <ele>148.6</ele>
        <time>2020-03-15T07:10:29Z</time>
      </trkpt>
      <trkpt lat="38.2637250" lon="-0.7516180">
        <ele>148.6</ele>
        <time>2020-03-15T07:10:30Z</time>
      </trkpt>
      <trkpt lat="38.2637510" lon="-0.7516880">
        <ele>148.8</ele>
        <time>2020-03-15T07:10:31Z</time>
      </trkpt>
      <trkpt lat="38.2637760" lon="-0.7517530">
        <ele>149.2</ele>
        <time>2020-03-15T07:10:32Z</time>
      </trkpt>
      <trkpt lat="38.2638030" lon="-0.7518080">
        <ele>149.8</ele>
        <time>2020-03-15T07:10:33Z</time>
      </trkpt>
      <trkpt lat="38.2638260" lon="-0.7518620">
        <ele>150.2</ele>
        <time>2020-03-15T07:10:34Z</time>
      </trkpt>
      <trkpt lat="38.2638470" lon="-0.7519160">
        <ele>150.4</ele>
        <time>2020-03-15T07:10:35Z</time>
      </trkpt>
      <trkpt lat="38.2638710" lon="-0.7519720">
        <ele>150.6</ele>
        <time>2020-03-15T07:10:36Z</time>
      </trkpt>
      <trkpt lat="38.2638950" lon="-0.7520350">
        <ele>150.8</ele>
        <time>2020-03-15T07:10:37Z</time>
      </trkpt>
      <trkpt lat="38.2639210" lon="-0.7521010">
        <ele>150.6</ele>
        <time>2020-03-15T07:10:38Z</time>
      </trkpt>
      <trkpt lat="38.2639500" lon="-0.7521690">
        <ele>150.2</ele>
        <time>2020-03-15T07:10:39Z</time>
      </trkpt>
      <trkpt lat="38.2639810" lon="-0.7522380">
        <ele>150.2</ele>
        <time>2020-03-15T07:10:40Z</time>
      </trkpt>
      <trkpt lat="38.2640150" lon="-0.7523050">
        <ele>150.4</ele>
        <time>2020-03-15T07:10:41Z</time>
      </trkpt>
      <trkpt lat="38.2640500" lon="-0.7523640">
        <ele>150.8</ele>
        <time>2020-03-15T07:10:42Z</time>
      </trkpt>
      <trkpt lat="38.2640830" lon="-0.7524150">
        <ele>151.2</ele>
        <time>2020-03-15T07:10:43Z</time>
      </trkpt>
      <trkpt lat="38.2641150" lon="-0.7524610">
        <ele>151.6</ele>
        <time>2020-03-15T07:10:44Z</time>
      </trkpt>
      <trkpt lat="38.2641460" lon="-0.7525030">
        <ele>152.0</ele>
        <time>2020-03-15T07:10:45Z</time>
      </trkpt>
      <trkpt lat="38.2641750" lon="-0.7525480">
        <ele>152.2</ele>
        <time>2020-03-15T07:10:46Z</time>
      </trkpt>
      <trkpt lat="38.2642050" lon="-0.7525930">
        <ele>152.6</ele>
        <time>2020-03-15T07:10:47Z</time>
      </trkpt>
      <trkpt lat="38.2642350" lon="-0.7526410">
        <ele>152.8</ele>
        <time>2020-03-15T07:10:48Z</time>
      </trkpt>
      <trkpt lat="38.2642630" lon="-0.7526900">
        <ele>152.8</ele>
        <time>2020-03-15T07:10:49Z</time>
      </trkpt>
      <trkpt lat="38.2642910" lon="-0.7527410">
        <ele>152.8</ele>
        <time>2020-03-15T07:10:50Z</time>
      </trkpt>
      <trkpt lat="38.2643130" lon="-0.7527990">
        <ele>153.0</ele>
        <time>2020-03-15T07:10:51Z</time>
      </trkpt>
      <trkpt lat="38.2643380" lon="-0.7528610">
        <ele>152.8</ele>
        <time>2020-03-15T07:10:52Z</time>
      </trkpt>
      <trkpt lat="38.2643700" lon="-0.7529190">
        <ele>152.8</ele>
        <time>2020-03-15T07:10:53Z</time>
      </trkpt>
      <trkpt lat="38.2644020" lon="-0.7529740">
        <ele>153.2</ele>
        <time>2020-03-15T07:10:54Z</time>
      </trkpt>
      <trkpt lat="38.2644370" lon="-0.7530260">
        <ele>153.0</ele>
        <time>2020-03-15T07:10:55Z</time>
      </trkpt>
      <trkpt lat="38.2644720" lon="-0.7530780">
        <ele>153.2</ele>
        <time>2020-03-15T07:10:56Z</time>
      </trkpt>
      <trkpt lat="38.2645030" lon="-0.7531320">
        <ele>153.2</ele>
        <time>2020-03-15T07:10:57Z</time>
      </trkpt>
      <trkpt lat="38.2645350" lon="-0.7531830">
        <ele>153.4</ele>
        <time>2020-03-15T07:10:58Z</time>
      </trkpt>
      <trkpt lat="38.2645720" lon="-0.7532300">
        <ele>153.6</ele>
        <time>2020-03-15T07:10:59Z</time>
      </trkpt>
      <trkpt lat="38.2646080" lon="-0.7532760">
        <ele>153.8</ele>
        <time>2020-03-15T07:11:00Z</time>
      </trkpt>
      <trkpt lat="38.2646470" lon="-0.7533160">
        <ele>153.8</ele>
        <time>2020-03-15T07:11:01Z</time>
      </trkpt>
      <trkpt lat="38.2646870" lon="-0.7533550">
        <ele>154.0</ele>
        <time>2020-03-15T07:11:02Z</time>
      </trkpt>
      <trkpt lat="38.2647260" lon="-0.7533960">
        <ele>154.2</ele>
        <time>2020-03-15T07:11:03Z</time>
      </trkpt>
      <trkpt lat="38.2647650" lon="-0.7534380">
        <ele>154.4</ele>
        <time>2020-03-15T07:11:04Z</time>
      </trkpt>
      <trkpt lat="38.2648000" lon="-0.7534820">
        <ele>154.4</ele>
        <time>2020-03-15T07:11:05Z</time>
      </trkpt>
      <trkpt lat="38.2648340" lon="-0.7535240">
        <ele>154.6</ele>
        <time>2020-03-15T07:11:06Z</time>
      </trkpt>
      <trkpt lat="38.2648610" lon="-0.7535680">
        <ele>154.6</ele>
        <time>2020-03-15T07:11:07Z</time>
      </trkpt>
      <trkpt lat="38.2648690" lon="-0.7536150">
        <ele>154.4</ele>
        <time>2020-03-15T07:11:08Z</time>
      </trkpt>
      <trkpt lat="38.2648530" lon="-0.7536640">
        <ele>154.0</ele>
        <time>2020-03-15T07:11:09Z</time>
      </trkpt>
      <trkpt lat="38.2648190" lon="-0.7537110">
        <ele>153.4</ele>
        <time>2020-03-15T07:11:10Z</time>
      </trkpt>
      <trkpt lat="38.2647700" lon="-0.7537460">
        <ele>153.0</ele>
        <time>2020-03-15T07:11:11Z</time>
      </trkpt>
      <trkpt lat="38.2647170" lon="-0.7537760">
        <ele>152.8</ele>
        <time>2020-03-15T07:11:12Z</time>
      </trkpt>
      <trkpt lat="38.2646680" lon="-0.7537970">
        <ele>153.0</ele>
        <time>2020-03-15T07:11:13Z</time>
      </trkpt>
      <trkpt lat="38.2646280" lon="-0.7538200">
        <ele>153.4</ele>
        <time>2020-03-15T07:11:14Z</time>
      </trkpt>
      <trkpt lat="38.2645980" lon="-0.7538470">
        <ele>154.0</ele>
        <time>2020-03-15T07:11:15Z</time>
      </trkpt>
      <trkpt lat="38.2645690" lon="-0.7538740">
        <ele>154.4</ele>
        <time>2020-03-15T07:11:16Z</time>
      </trkpt>
      <trkpt lat="38.2645390" lon="-0.7538970">
        <ele>154.8</ele>
        <time>2020-03-15T07:11:17Z</time>
      </trkpt>
      <trkpt lat="38.2645100" lon="-0.7539240">
        <ele>155.4</ele>
        <time>2020-03-15T07:11:18Z</time>
      </trkpt>
      <trkpt lat="38.2644820" lon="-0.7539480">
        <ele>155.6</ele>
        <time>2020-03-15T07:11:19Z</time>
      </trkpt>
      <trkpt lat="38.2644700" lon="-0.7539790">
        <ele>156.0</ele>
        <time>2020-03-15T07:11:20Z</time>
      </trkpt>
      <trkpt lat="38.2644750" lon="-0.7540220">
        <ele>157.0</ele>
        <time>2020-03-15T07:11:22Z</time>
      </trkpt>
      <trkpt lat="38.2644920" lon="-0.7540460">
        <ele>157.4</ele>
        <time>2020-03-15T07:11:23Z</time>
      </trkpt>
      <trkpt lat="38.2645140" lon="-0.7540690">
        <ele>157.4</ele>
        <time>2020-03-15T07:11:24Z</time>
      </trkpt>
      <trkpt lat="38.2645390" lon="-0.7540930">
        <ele>157.8</ele>
        <time>2020-03-15T07:11:25Z</time>
      </trkpt>
      <trkpt lat="38.2645650" lon="-0.7541190">
        <ele>157.8</ele>
        <time>2020-03-15T07:11:26Z</time>
      </trkpt>
      <trkpt lat="38.2645860" lon="-0.7541570">
        <ele>158.0</ele>
        <time>2020-03-15T07:11:27Z</time>
      </trkpt>
      <trkpt lat="38.2646110" lon="-0.7541890">
        <ele>158.2</ele>
        <time>2020-03-15T07:11:28Z</time>
      </trkpt>
      <trkpt lat="38.2646310" lon="-0.7542230">
        <ele>158.4</ele>
        <time>2020-03-15T07:11:29Z</time>
      </trkpt>
      <trkpt lat="38.2646450" lon="-0.7542410">
        <ele>158.6</ele>
        <time>2020-03-15T07:11:30Z</time>
      </trkpt>
      <trkpt lat="38.2646660" lon="-0.7542560">
        <ele>159.0</ele>
        <time>2020-03-15T07:11:31Z</time>
      </trkpt>
      <trkpt lat="38.2646820" lon="-0.7542820">
        <ele>159.2</ele>
        <time>2020-03-15T07:11:32Z</time>
      </trkpt>
      <trkpt lat="38.2646910" lon="-0.7543220">
        <ele>159.4</ele>
        <time>2020-03-15T07:11:33Z</time>
      </trkpt>
      <trkpt lat="38.2647010" lon="-0.7543600">
        <ele>159.6</ele>
        <time>2020-03-15T07:11:34Z</time>
      </trkpt>
      <trkpt lat="38.2647150" lon="-0.7544150">
        <ele>160.0</ele>
        <time>2020-03-15T07:11:35Z</time>
      </trkpt>
      <trkpt lat="38.2647400" lon="-0.7544580">
        <ele>160.2</ele>
        <time>2020-03-15T07:11:36Z</time>
      </trkpt>
      <trkpt lat="38.2647600" lon="-0.7544930">
        <ele>160.4</ele>
        <time>2020-03-15T07:11:37Z</time>
      </trkpt>
      <trkpt lat="38.2647580" lon="-0.7545310">
        <ele>160.6</ele>
        <time>2020-03-15T07:11:38Z</time>
      </trkpt>
      <trkpt lat="38.2647410" lon="-0.7545620">
        <ele>160.8</ele>
        <time>2020-03-15T07:11:39Z</time>
      </trkpt>
      <trkpt lat="38.2647120" lon="-0.7545950">
        <ele>161.0</ele>
        <time>2020-03-15T07:11:40Z</time>
      </trkpt>
      <trkpt lat="38.2646850" lon="-0.7546280">
        <ele>161.2</ele>
        <time>2020-03-15T07:11:41Z</time>
      </trkpt>
      <trkpt lat="38.2646550" lon="-0.7546590">
        <ele>161.4</ele>
        <time>2020-03-15T07:11:42Z</time>
      </trkpt>
      <trkpt lat="38.2646240" lon="-0.7546840">
        <ele>161.4</ele>
        <time>2020-03-15T07:11:43Z</time>
      </trkpt>
      <trkpt lat="38.2645880" lon="-0.7547100">
        <ele>161.6</ele>
        <time>2020-03-15T07:11:44Z</time>
      </trkpt>
      <trkpt lat="38.2645520" lon="-0.7547390">
        <ele>161.6</ele>
        <time>2020-03-15T07:11:45Z</time>
      </trkpt>
      <trkpt lat="38.2645160" lon="-0.7547650">
        <ele>161.8</ele>
        <time>2020-03-15T07:11:46Z</time>
      </trkpt>
      <trkpt lat="38.2644750" lon="-0.7547920">
        <ele>162.0</ele>
        <time>2020-03-15T07:11:47Z</time>
      </trkpt>
      <trkpt lat="38.2644330" lon="-0.7548160">
        <ele>162.0</ele>
        <time>2020-03-15T07:11:48Z</time>
      </trkpt>
      <trkpt lat="38.2643930" lon="-0.7548430">
        <ele>162.2</ele>
        <time>2020-03-15T07:11:49Z</time>
      </trkpt>
      <trkpt lat="38.2643620" lon="-0.7548800">
        <ele>162.4</ele>
        <time>2020-03-15T07:11:50Z</time>
      </trkpt>
      <trkpt lat="38.2643460" lon="-0.7549250">
        <ele>162.6</ele>
        <time>2020-03-15T07:11:51Z</time>
      </trkpt>
      <trkpt lat="38.2643530" lon="-0.7549810">
        <ele>162.6</ele>
        <time>2020-03-15T07:11:52Z</time>
      </trkpt>
      <trkpt lat="38.2643650" lon="-0.7550250">
        <ele>163.0</ele>
        <time>2020-03-15T07:11:53Z</time>
      </trkpt>
      <trkpt lat="38.2643870" lon="-0.7550610">
        <ele>163.2</ele>
        <time>2020-03-15T07:11:54Z</time>
      </trkpt>
      <trkpt lat="38.2644170" lon="-0.7550940">
        <ele>163.4</ele>
        <time>2020-03-15T07:11:55Z</time>
      </trkpt>
      <trkpt lat="38.2644500" lon="-0.7551270">
        <ele>163.6</ele>
        <time>2020-03-15T07:11:56Z</time>
      </trkpt>
      <trkpt lat="38.2644850" lon="-0.7551670">
        <ele>163.8</ele>
        <time>2020-03-15T07:11:57Z</time>
      </trkpt>
      <trkpt lat="38.2645190" lon="-0.7552070">
        <ele>164.0</ele>
        <time>2020-03-15T07:11:58Z</time>
      </trkpt>
      <trkpt lat="38.2645440" lon="-0.7552450">
        <ele>164.4</ele>
        <time>2020-03-15T07:11:59Z</time>
      </trkpt>
      <trkpt lat="38.2645610" lon="-0.7552880">
        <ele>165.0</ele>
        <time>2020-03-15T07:12:00Z</time>
      </trkpt>
      <trkpt lat="38.2645760" lon="-0.7553340">
        <ele>165.2</ele>
        <time>2020-03-15T07:12:01Z</time>
      </trkpt>
      <trkpt lat="38.2645930" lon="-0.7553820">
        <ele>165.4</ele>
        <time>2020-03-15T07:12:02Z</time>
      </trkpt>
      <trkpt lat="38.2646220" lon="-0.7554250">
        <ele>165.6</ele>
        <time>2020-03-15T07:12:03Z</time>
      </trkpt>
      <trkpt lat="38.2646610" lon="-0.7554620">
        <ele>165.6</ele>
        <time>2020-03-15T07:12:04Z</time>
      </trkpt>
      <trkpt lat="38.2647030" lon="-0.7554820">
        <ele>166.0</ele>
        <time>2020-03-15T07:12:05Z</time>
      </trkpt>
      <trkpt lat="38.2647410" lon="-0.7554870">
        <ele>166.4</ele>
        <time>2020-03-15T07:12:06Z</time>
      </trkpt>
      <trkpt lat="38.2647700" lon="-0.7554820">
        <ele>167.0</ele>
        <time>2020-03-15T07:12:07Z</time>
      </trkpt>
      <trkpt lat="38.2647980" lon="-0.7554760">
        <ele>167.8</ele>
        <time>2020-03-15T07:12:08Z</time>
      </trkpt>
      <trkpt lat="38.2648310" lon="-0.7554790">
        <ele>168.0</ele>
        <time>2020-03-15T07:12:09Z</time>
      </trkpt>
      <trkpt lat="38.2648510" lon="-0.7555130">
        <ele>168.2</ele>
        <time>2020-03-15T07:12:10Z</time>
      </trkpt>
      <trkpt lat="38.2648690" lon="-0.7555480">
        <ele>168.4</ele>
        <time>2020-03-15T07:12:11Z</time>
      </trkpt>
      <trkpt lat="38.2648860" lon="-0.7555920">
        <ele>168.8</ele>
        <time>2020-03-15T07:12:12Z</time>
      </trkpt>
      <trkpt lat="38.2649050" lon="-0.7556420">
        <ele>168.8</ele>
        <time>2020-03-15T07:12:13Z</time>
      </trkpt>
      <trkpt lat="38.2649320" lon="-0.7556960">
        <ele>168.8</ele>
        <time>2020-03-15T07:12:14Z</time>
      </trkpt>
      <trkpt lat="38.2649660" lon="-0.7557510">
        <ele>168.8</ele>
        <time>2020-03-15T07:12:15Z</time>
      </trkpt>
      <trkpt lat="38.2650050" lon="-0.7558060">
        <ele>168.8</ele>
        <time>2020-03-15T07:12:16Z</time>
      </trkpt>
      <trkpt lat="38.2650470" lon="-0.7558640">
        <ele>168.8</ele>
        <time>2020-03-15T07:12:17Z</time>
      </trkpt>
      <trkpt lat="38.2650910" lon="-0.7559210">
        <ele>169.0</ele>
        <time>2020-03-15T07:12:18Z</time>
      </trkpt>
      <trkpt lat="38.2651380" lon="-0.7559740">
        <ele>169.0</ele>
        <time>2020-03-15T07:12:19Z</time>
      </trkpt>
      <trkpt lat="38.2651850" lon="-0.7560310">
        <ele>169.0</ele>
        <time>2020-03-15T07:12:20Z</time>
      </trkpt>
      <trkpt lat="38.2652320" lon="-0.7560930">
        <ele>169.2</ele>
        <time>2020-03-15T07:12:21Z</time>
      </trkpt>
      <trkpt lat="38.2652730" lon="-0.7561600">
        <ele>169.4</ele>
        <time>2020-03-15T07:12:22Z</time>
      </trkpt>
      <trkpt lat="38.2653150" lon="-0.7562210">
        <ele>169.8</ele>
        <time>2020-03-15T07:12:23Z</time>
      </trkpt>
      <trkpt lat="38.2653580" lon="-0.7562820">
        <ele>170.0</ele>
        <time>2020-03-15T07:12:24Z</time>
      </trkpt>
      <trkpt lat="38.2654020" lon="-0.7563420">
        <ele>170.4</ele>
        <time>2020-03-15T07:12:25Z</time>
      </trkpt>
      <trkpt lat="38.2654430" lon="-0.7563980">
        <ele>170.8</ele>
        <time>2020-03-15T07:12:26Z</time>
      </trkpt>
      <trkpt lat="38.2654790" lon="-0.7564460">
        <ele>171.4</ele>
        <time>2020-03-15T07:12:27Z</time>
      </trkpt>
      <trkpt lat="38.2655120" lon="-0.7564910">
        <ele>172.0</ele>
        <time>2020-03-15T07:12:28Z</time>
      </trkpt>
      <trkpt lat="38.2655440" lon="-0.7565370">
        <ele>172.4</ele>
        <time>2020-03-15T07:12:29Z</time>
      </trkpt>
      <trkpt lat="38.2655720" lon="-0.7565870">
        <ele>172.8</ele>
        <time>2020-03-15T07:12:30Z</time>
      </trkpt>
      <trkpt lat="38.2655950" lon="-0.7566410">
        <ele>173.0</ele>
        <time>2020-03-15T07:12:31Z</time>
      </trkpt>
      <trkpt lat="38.2656170" lon="-0.7566910">
        <ele>173.4</ele>
        <time>2020-03-15T07:12:32Z</time>
      </trkpt>
      <trkpt lat="38.2656440" lon="-0.7567320">
        <ele>173.8</ele>
        <time>2020-03-15T07:12:33Z</time>
      </trkpt>
      <trkpt lat="38.2656750" lon="-0.7567640">
        <ele>174.2</ele>
        <time>2020-03-15T07:12:34Z</time>
      </trkpt>
      <trkpt lat="38.2657020" lon="-0.7567810">
        <ele>175.0</ele>
        <time>2020-03-15T07:12:35Z</time>
      </trkpt>
      <trkpt lat="38.2657250" lon="-0.7567950">
        <ele>175.4</ele>
        <time>2020-03-15T07:12:36Z</time>
      </trkpt>
      <trkpt lat="38.2657410" lon="-0.7568150">
        <ele>175.8</ele>
        <time>2020-03-15T07:12:37Z</time>
      </trkpt>
      <trkpt lat="38.2657500" lon="-0.7568480">
        <ele>175.8</ele>
        <time>2020-03-15T07:12:38Z</time>
      </trkpt>
      <trkpt lat="38.2657430" lon="-0.7568870">
        <ele>176.0</ele>
        <time>2020-03-15T07:12:39Z</time>
      </trkpt>
      <trkpt lat="38.2657300" lon="-0.7569290">
        <ele>176.0</ele>
        <time>2020-03-15T07:12:40Z</time>
      </trkpt>
      <trkpt lat="38.2657170" lon="-0.7569700">
        <ele>176.4</ele>
        <time>2020-03-15T07:12:41Z</time>
      </trkpt>
      <trkpt lat="38.2657060" lon="-0.7570130">
        <ele>176.6</ele>
        <time>2020-03-15T07:12:42Z</time>
      </trkpt>
      <trkpt lat="38.2656960" lon="-0.7570440">
        <ele>177.2</ele>
        <time>2020-03-15T07:12:43Z</time>
      </trkpt>
      <trkpt lat="38.2656860" lon="-0.7570770">
        <ele>177.6</ele>
        <time>2020-03-15T07:12:44Z</time>
      </trkpt>
      <trkpt lat="38.2656770" lon="-0.7571090">
        <ele>178.4</ele>
        <time>2020-03-15T07:12:45Z</time>
      </trkpt>
      <trkpt lat="38.2656690" lon="-0.7571390">
        <ele>179.2</ele>
        <time>2020-03-15T07:12:46Z</time>
      </trkpt>
      <trkpt lat="38.2656660" lon="-0.7571650">
        <ele>179.8</ele>
        <time>2020-03-15T07:12:47Z</time>
      </trkpt>
      <trkpt lat="38.2656620" lon="-0.7571930">
        <ele>180.2</ele>
        <time>2020-03-15T07:12:48Z</time>
      </trkpt>
      <trkpt lat="38.2656570" lon="-0.7572180">
        <ele>180.8</ele>
        <time>2020-03-15T07:12:49Z</time>
      </trkpt>
      <trkpt lat="38.2656540" lon="-0.7572470">
        <ele>181.2</ele>
        <time>2020-03-15T07:12:50Z</time>
      </trkpt>
      <trkpt lat="38.2656460" lon="-0.7572720">
        <ele>181.8</ele>
        <time>2020-03-15T07:12:51Z</time>
      </trkpt>
      <trkpt lat="38.2656420" lon="-0.7573040">
        <ele>182.4</ele>
        <time>2020-03-15T07:12:52Z</time>
      </trkpt>
      <trkpt lat="38.2656340" lon="-0.7573340">
        <ele>182.8</ele>
        <time>2020-03-15T07:12:53Z</time>
      </trkpt>
      <trkpt lat="38.2656270" lon="-0.7573540">
        <ele>183.2</ele>
        <time>2020-03-15T07:12:54Z</time>
      </trkpt>
      <trkpt lat="38.2656140" lon="-0.7573810">
        <ele>183.6</ele>
        <time>2020-03-15T07:12:55Z</time>
      </trkpt>
      <trkpt lat="38.2655980" lon="-0.7574020">
        <ele>184.2</ele>
        <time>2020-03-15T07:12:56Z</time>
      </trkpt>
      <trkpt lat="38.2655870" lon="-0.7574250">
        <ele>184.8</ele>
        <time>2020-03-15T07:12:57Z</time>
      </trkpt>
      <trkpt lat="38.2655840" lon="-0.7574360">
        <ele>185.2</ele>
        <time>2020-03-15T07:12:58Z</time>
      </trkpt>
      <trkpt lat="38.2655680" lon="-0.7574600">
        <ele>186.0</ele>
        <time>2020-03-15T07:12:59Z</time>
      </trkpt>
      <trkpt lat="38.2655590" lon="-0.7574710">
        <ele>186.4</ele>
        <time>2020-03-15T07:13:00Z</time>
      </trkpt>
      <trkpt lat="38.2655590" lon="-0.7574710">
        <ele>186.4</ele>
        <time>2020-03-15T07:13:01Z</time>
      </trkpt>
      <trkpt lat="38.2655450" lon="-0.7574800">
        <ele>186.8</ele>
        <time>2020-03-15T07:13:02Z</time>
      </trkpt>
      <trkpt lat="38.2655320" lon="-0.7574860">
        <ele>187.2</ele>
        <time>2020-03-15T07:13:03Z</time>
      </trkpt>
      <trkpt lat="38.2655060" lon="-0.7575000">
        <ele>187.6</ele>
        <time>2020-03-15T07:13:04Z</time>
      </trkpt>
      <trkpt lat="38.2654880" lon="-0.7575090">
        <ele>188.0</ele>
        <time>2020-03-15T07:13:05Z</time>
      </trkpt>
      <trkpt lat="38.2654690" lon="-0.7575190">
        <ele>188.2</ele>
        <time>2020-03-15T07:13:06Z</time>
      </trkpt>
      <trkpt lat="38.2654510" lon="-0.7575290">
        <ele>188.6</ele>
        <time>2020-03-15T07:13:07Z</time>
      </trkpt>
      <trkpt lat="38.2654320" lon="-0.7575390">
        <ele>189.0</ele>
        <time>2020-03-15T07:13:08Z</time>
      </trkpt>
      <trkpt lat="38.2654120" lon="-0.7575480">
        <ele>189.2</ele>
        <time>2020-03-15T07:13:09Z</time>
      </trkpt>
      <trkpt lat="38.2653860" lon="-0.7575610">
        <ele>189.0</ele>
        <time>2020-03-15T07:13:10Z</time>
      </trkpt>
      <trkpt lat="38.2653600" lon="-0.7575730">
        <ele>189.2</ele>
        <time>2020-03-15T07:13:11Z</time>
      </trkpt>
      <trkpt lat="38.2653260" lon="-0.7575860">
        <ele>189.0</ele>
        <time>2020-03-15T07:13:12Z</time>
      </trkpt>
      <trkpt lat="38.2653060" lon="-0.7575950">
        <ele>188.8</ele>
        <time>2020-03-15T07:13:13Z</time>
      </trkpt>
      <trkpt lat="38.2652860" lon="-0.7576030">
        <ele>188.6</ele>
        <time>2020-03-15T07:13:14Z</time>
      </trkpt>
      <trkpt lat="38.2651820" lon="-0.7576520">
        <ele>188.2</ele>
        <time>2020-03-15T07:13:15Z</time>
      </trkpt>
      <trkpt lat="38.2651510" lon="-0.7576670">
        <ele>187.4</ele>
        <time>2020-03-15T07:13:16Z</time>
      </trkpt>
      <trkpt lat="38.2651190" lon="-0.7576810">
        <ele>186.4</ele>
        <time>2020-03-15T07:13:17Z</time>
      </trkpt>
      <trkpt lat="38.2649740" lon="-0.7577550">
        <ele>186.0</ele>
        <time>2020-03-15T07:13:18Z</time>
      </trkpt>
      <trkpt lat="38.2649340" lon="-0.7577740">
        <ele>185.2</ele>
        <time>2020-03-15T07:13:19Z</time>
      </trkpt>
      <trkpt lat="38.2648940" lon="-0.7577920">
        <ele>185.0</ele>
        <time>2020-03-15T07:13:20Z</time>
      </trkpt>
      <trkpt lat="38.2647760" lon="-0.7578520">
        <ele>184.6</ele>
        <time>2020-03-15T07:13:21Z</time>
      </trkpt>
      <trkpt lat="38.2647380" lon="-0.7578750">
        <ele>184.4</ele>
        <time>2020-03-15T07:13:22Z</time>
      </trkpt>
      <trkpt lat="38.2646340" lon="-0.7579500">
        <ele>184.2</ele>
        <time>2020-03-15T07:13:23Z</time>
      </trkpt>
      <trkpt lat="38.2646050" lon="-0.7579790">
        <ele>184.2</ele>
        <time>2020-03-15T07:13:24Z</time>
      </trkpt>
      <trkpt lat="38.2645630" lon="-0.7580520">
        <ele>184.0</ele>
        <time>2020-03-15T07:13:25Z</time>
      </trkpt>
      <trkpt lat="38.2645090" lon="-0.7582170">
        <ele>183.8</ele>
        <time>2020-03-15T07:13:26Z</time>
      </trkpt>
      <trkpt lat="38.2645020" lon="-0.7582630">
        <ele>183.8</ele>
        <time>2020-03-15T07:13:27Z</time>
      </trkpt>
      <trkpt lat="38.2644940" lon="-0.7583080">
        <ele>183.6</ele>
        <time>2020-03-15T07:13:28Z</time>
      </trkpt>
      <trkpt lat="38.2644730" lon="-0.7584890">
        <ele>183.6</ele>
        <time>2020-03-15T07:13:29Z</time>
      </trkpt>
      <trkpt lat="38.2644710" lon="-0.7585340">
        <ele>183.8</ele>
        <time>2020-03-15T07:13:30Z</time>
      </trkpt>
      <trkpt lat="38.2644690" lon="-0.7585780">
        <ele>183.8</ele>
        <time>2020-03-15T07:13:31Z</time>
      </trkpt>
      <trkpt lat="38.2644650" lon="-0.7587460">
        <ele>184.0</ele>
        <time>2020-03-15T07:13:32Z</time>
      </trkpt>
      <trkpt lat="38.2644620" lon="-0.7587870">
        <ele>184.2</ele>
        <time>2020-03-15T07:13:33Z</time>
      </trkpt>
      <trkpt lat="38.2644590" lon="-0.7588280">
        <ele>184.0</ele>
        <time>2020-03-15T07:13:34Z</time>
      </trkpt>
      <trkpt lat="38.2644410" lon="-0.7589060">
        <ele>184.0</ele>
        <time>2020-03-15T07:13:35Z</time>
      </trkpt>
      <trkpt lat="38.2644020" lon="-0.7590620">
        <ele>183.4</ele>
        <time>2020-03-15T07:13:36Z</time>
      </trkpt>
      <trkpt lat="38.2644010" lon="-0.7591260">
        <ele>183.2</ele>
        <time>2020-03-15T07:13:37Z</time>
      </trkpt>
      <trkpt lat="38.2644140" lon="-0.7591700">
        <ele>183.6</ele>
        <time>2020-03-15T07:13:38Z</time>
      </trkpt>
      <trkpt lat="38.2644140" lon="-0.7591700">
        <ele>183.8</ele>
        <time>2020-03-15T07:13:39Z</time>
      </trkpt>
      <trkpt lat="38.2644350" lon="-0.7592000">
        <ele>184.0</ele>
        <time>2020-03-15T07:13:40Z</time>
      </trkpt>
      <trkpt lat="38.2644800" lon="-0.7592460">
        <ele>184.4</ele>
        <time>2020-03-15T07:13:41Z</time>
      </trkpt>
      <trkpt lat="38.2644960" lon="-0.7592710">
        <ele>184.8</ele>
        <time>2020-03-15T07:13:42Z</time>
      </trkpt>
      <trkpt lat="38.2645070" lon="-0.7593000">
        <ele>185.2</ele>
        <time>2020-03-15T07:13:43Z</time>
      </trkpt>
      <trkpt lat="38.2645140" lon="-0.7593300">
        <ele>185.4</ele>
        <time>2020-03-15T07:13:44Z</time>
      </trkpt>
      <trkpt lat="38.2645170" lon="-0.7593660">
        <ele>185.8</ele>
        <time>2020-03-15T07:13:45Z</time>
      </trkpt>
      <trkpt lat="38.2645150" lon="-0.7594010">
        <ele>186.0</ele>
        <time>2020-03-15T07:13:46Z</time>
      </trkpt>
      <trkpt lat="38.2645120" lon="-0.7594400">
        <ele>186.6</ele>
        <time>2020-03-15T07:13:47Z</time>
      </trkpt>
      <trkpt lat="38.2645090" lon="-0.7594790">
        <ele>187.0</ele>
        <time>2020-03-15T07:13:48Z</time>
      </trkpt>
      <trkpt lat="38.2645100" lon="-0.7595160">
        <ele>187.4</ele>
        <time>2020-03-15T07:13:49Z</time>
      </trkpt>
      <trkpt lat="38.2645100" lon="-0.7595530">
        <ele>187.8</ele>
        <time>2020-03-15T07:13:50Z</time>
      </trkpt>
      <trkpt lat="38.2645110" lon="-0.7595900">
        <ele>188.2</ele>
        <time>2020-03-15T07:13:51Z</time>
      </trkpt>
      <trkpt lat="38.2645160" lon="-0.7596270">
        <ele>188.4</ele>
        <time>2020-03-15T07:13:52Z</time>
      </trkpt>
      <trkpt lat="38.2645280" lon="-0.7596630">
        <ele>189.0</ele>
        <time>2020-03-15T07:13:53Z</time>
      </trkpt>
      <trkpt lat="38.2645400" lon="-0.7597000">
        <ele>189.4</ele>
        <time>2020-03-15T07:13:54Z</time>
      </trkpt>
      <trkpt lat="38.2645510" lon="-0.7597320">
        <ele>189.8</ele>
        <time>2020-03-15T07:13:55Z</time>
      </trkpt>
      <trkpt lat="38.2645620" lon="-0.7597650">
        <ele>190.4</ele>
        <time>2020-03-15T07:13:56Z</time>
      </trkpt>
      <trkpt lat="38.2645690" lon="-0.7598020">
        <ele>190.8</ele>
        <time>2020-03-15T07:13:57Z</time>
      </trkpt>
      <trkpt lat="38.2645730" lon="-0.7598380">
        <ele>191.2</ele>
        <time>2020-03-15T07:13:58Z</time>
      </trkpt>
      <trkpt lat="38.2645730" lon="-0.7598380">
        <ele>191.6</ele>
        <time>2020-03-15T07:13:59Z</time>
      </trkpt>
      <trkpt lat="38.2645760" lon="-0.7598720">
        <ele>191.8</ele>
        <time>2020-03-15T07:14:00Z</time>
      </trkpt>
      <trkpt lat="38.2645780" lon="-0.7599100">
        <ele>192.2</ele>
        <time>2020-03-15T07:14:01Z</time>
      </trkpt>
      <trkpt lat="38.2645810" lon="-0.7599450">
        <ele>192.4</ele>
        <time>2020-03-15T07:14:02Z</time>
      </trkpt>
      <trkpt lat="38.2645840" lon="-0.7599790">
        <ele>192.8</ele>
        <time>2020-03-15T07:14:03Z</time>
      </trkpt>
      <trkpt lat="38.2645940" lon="-0.7600490">
        <ele>193.2</ele>
        <time>2020-03-15T07:14:04Z</time>
      </trkpt>
      <trkpt lat="38.2646100" lon="-0.7600770">
        <ele>193.6</ele>
        <time>2020-03-15T07:14:05Z</time>
      </trkpt>
      <trkpt lat="38.2646260" lon="-0.7601050">
        <ele>194.0</ele>
        <time>2020-03-15T07:14:06Z</time>
      </trkpt>
      <trkpt lat="38.2646260" lon="-0.7601050">
        <ele>194.2</ele>
        <time>2020-03-15T07:14:07Z</time>
      </trkpt>
      <trkpt lat="38.2646400" lon="-0.7601310">
        <ele>194.8</ele>
        <time>2020-03-15T07:14:08Z</time>
      </trkpt>
      <trkpt lat="38.2646800" lon="-0.7601710">
        <ele>195.0</ele>
        <time>2020-03-15T07:14:09Z</time>
      </trkpt>
      <trkpt lat="38.2646800" lon="-0.7601710">
        <ele>195.4</ele>
        <time>2020-03-15T07:14:10Z</time>
      </trkpt>
      <trkpt lat="38.2647070" lon="-0.7601900">
        <ele>195.4</ele>
        <time>2020-03-15T07:14:11Z</time>
      </trkpt>
      <trkpt lat="38.2647690" lon="-0.7602130">
        <ele>196.0</ele>
        <time>2020-03-15T07:14:12Z</time>
      </trkpt>
      <trkpt lat="38.2648020" lon="-0.7602240">
        <ele>196.0</ele>
        <time>2020-03-15T07:14:13Z</time>
      </trkpt>
      <trkpt lat="38.2648370" lon="-0.7602320">
        <ele>196.4</ele>
        <time>2020-03-15T07:14:14Z</time>
      </trkpt>
      <trkpt lat="38.2648370" lon="-0.7602320">
        <ele>196.6</ele>
        <time>2020-03-15T07:14:15Z</time>
      </trkpt>
      <trkpt lat="38.2648720" lon="-0.7602380">
        <ele>196.6</ele>
        <time>2020-03-15T07:14:16Z</time>
      </trkpt>
      <trkpt lat="38.2649080" lon="-0.7602440">
        <ele>197.0</ele>
        <time>2020-03-15T07:14:17Z</time>
      </trkpt>
      <trkpt lat="38.2649820" lon="-0.7602570">
        <ele>197.0</ele>
        <time>2020-03-15T07:14:18Z</time>
      </trkpt>
      <trkpt lat="38.2650020" lon="-0.7602600">
        <ele>197.2</ele>
        <time>2020-03-15T07:14:19Z</time>
      </trkpt>
      <trkpt lat="38.2650220" lon="-0.7602640">
        <ele>197.2</ele>
        <time>2020-03-15T07:14:20Z</time>
      </trkpt>
      <trkpt lat="38.2651070" lon="-0.7602790">
        <ele>197.4</ele>
        <time>2020-03-15T07:14:21Z</time>
      </trkpt>
      <trkpt lat="38.2651300" lon="-0.7602820">
        <ele>197.6</ele>
        <time>2020-03-15T07:14:22Z</time>
      </trkpt>
      <trkpt lat="38.2651530" lon="-0.7602860">
        <ele>197.4</ele>
        <time>2020-03-15T07:14:23Z</time>
      </trkpt>
      <trkpt lat="38.2652000" lon="-0.7602950">
        <ele>197.6</ele>
        <time>2020-03-15T07:14:24Z</time>
      </trkpt>
      <trkpt lat="38.2652440" lon="-0.7603050">
        <ele>198.0</ele>
        <time>2020-03-15T07:14:25Z</time>
      </trkpt>
      <trkpt lat="38.2652840" lon="-0.7603090">
        <ele>198.6</ele>
        <time>2020-03-15T07:14:26Z</time>
      </trkpt>
      <trkpt lat="38.2653220" lon="-0.7603120">
        <ele>199.0</ele>
        <time>2020-03-15T07:14:27Z</time>
      </trkpt>
      <trkpt lat="38.2653590" lon="-0.7603050">
        <ele>199.2</ele>
        <time>2020-03-15T07:14:28Z</time>
      </trkpt>
      <trkpt lat="38.2653970" lon="-0.7603000">
        <ele>199.2</ele>
        <time>2020-03-15T07:14:29Z</time>
      </trkpt>
      <trkpt lat="38.2654770" lon="-0.7603120">
        <ele>199.2</ele>
        <time>2020-03-15T07:14:30Z</time>
      </trkpt>
      <trkpt lat="38.2655190" lon="-0.7603210">
        <ele>199.2</ele>
        <time>2020-03-15T07:14:31Z</time>
      </trkpt>
      <trkpt lat="38.2655600" lon="-0.7603300">
        <ele>199.4</ele>
        <time>2020-03-15T07:14:32Z</time>
      </trkpt>
      <trkpt lat="38.2656030" lon="-0.7603350">
        <ele>199.4</ele>
        <time>2020-03-15T07:14:33Z</time>
      </trkpt>
      <trkpt lat="38.2656460" lon="-0.7603400">
        <ele>199.6</ele>
        <time>2020-03-15T07:14:34Z</time>
      </trkpt>
      <trkpt lat="38.2656880" lon="-0.7603350">
        <ele>199.8</ele>
        <time>2020-03-15T07:14:35Z</time>
      </trkpt>
      <trkpt lat="38.2657080" lon="-0.7603300">
        <ele>200.0</ele>
        <time>2020-03-15T07:14:36Z</time>
      </trkpt>
      <trkpt lat="38.2657270" lon="-0.7603240">
        <ele>200.2</ele>
        <time>2020-03-15T07:14:37Z</time>
      </trkpt>
      <trkpt lat="38.2657650" lon="-0.7603090">
        <ele>200.4</ele>
        <time>2020-03-15T07:14:38Z</time>
      </trkpt>
      <trkpt lat="38.2658010" lon="-0.7602880">
        <ele>200.2</ele>
        <time>2020-03-15T07:14:39Z</time>
      </trkpt>
      <trkpt lat="38.2658410" lon="-0.7602650">
        <ele>199.8</ele>
        <time>2020-03-15T07:14:40Z</time>
      </trkpt>
      <trkpt lat="38.2658890" lon="-0.7602320">
        <ele>199.6</ele>
        <time>2020-03-15T07:14:41Z</time>
      </trkpt>
      <trkpt lat="38.2660040" lon="-0.7601590">
        <ele>198.6</ele>
        <time>2020-03-15T07:14:42Z</time>
      </trkpt>
      <trkpt lat="38.2660380" lon="-0.7601360">
        <ele>197.6</ele>
        <time>2020-03-15T07:14:43Z</time>
      </trkpt>
      <trkpt lat="38.2660710" lon="-0.7601130">
        <ele>197.2</ele>
        <time>2020-03-15T07:14:44Z</time>
      </trkpt>
      <trkpt lat="38.2661350" lon="-0.7600670">
        <ele>197.0</ele>
        <time>2020-03-15T07:14:45Z</time>
      </trkpt>
      <trkpt lat="38.2661940" lon="-0.7600280">
        <ele>197.4</ele>
        <time>2020-03-15T07:14:46Z</time>
      </trkpt>
      <trkpt lat="38.2662440" lon="-0.7599990">
        <ele>198.0</ele>
        <time>2020-03-15T07:14:47Z</time>
      </trkpt>
      <trkpt lat="38.2662900" lon="-0.7599790">
        <ele>198.6</ele>
        <time>2020-03-15T07:14:48Z</time>
      </trkpt>
      <trkpt lat="38.2663650" lon="-0.7599440">
        <ele>199.2</ele>
        <time>2020-03-15T07:14:49Z</time>
      </trkpt>
      <trkpt lat="38.2663650" lon="-0.7599440">
        <ele>199.6</ele>
        <time>2020-03-15T07:14:50Z</time>
      </trkpt>
      <trkpt lat="38.2663960" lon="-0.7599220">
        <ele>200.0</ele>
        <time>2020-03-15T07:14:51Z</time>
      </trkpt>
      <trkpt lat="38.2664520" lon="-0.7598850">
        <ele>200.4</ele>
        <time>2020-03-15T07:14:52Z</time>
      </trkpt>
      <trkpt lat="38.2664850" lon="-0.7598730">
        <ele>200.8</ele>
        <time>2020-03-15T07:14:53Z</time>
      </trkpt>
      <trkpt lat="38.2665180" lon="-0.7598600">
        <ele>201.0</ele>
        <time>2020-03-15T07:14:54Z</time>
      </trkpt>
      <trkpt lat="38.2665360" lon="-0.7598510">
        <ele>201.2</ele>
        <time>2020-03-15T07:14:55Z</time>
      </trkpt>
      <trkpt lat="38.2665530" lon="-0.7598410">
        <ele>201.6</ele>
        <time>2020-03-15T07:14:56Z</time>
      </trkpt>
      <trkpt lat="38.2665840" lon="-0.7598260">
        <ele>201.8</ele>
        <time>2020-03-15T07:14:57Z</time>
      </trkpt>
      <trkpt lat="38.2666120" lon="-0.7598150">
        <ele>202.2</ele>
        <time>2020-03-15T07:14:58Z</time>
      </trkpt>
      <trkpt lat="38.2666410" lon="-0.7598060">
        <ele>202.4</ele>
        <time>2020-03-15T07:14:59Z</time>
      </trkpt>
      <trkpt lat="38.2667000" lon="-0.7597870">
        <ele>202.8</ele>
        <time>2020-03-15T07:15:00Z</time>
      </trkpt>
      <trkpt lat="38.2667290" lon="-0.7597770">
        <ele>203.6</ele>
        <time>2020-03-15T07:15:01Z</time>
      </trkpt>
      <trkpt lat="38.2667550" lon="-0.7597680">
        <ele>204.4</ele>
        <time>2020-03-15T07:15:02Z</time>
      </trkpt>
      <trkpt lat="38.2667790" lon="-0.7597640">
        <ele>205.0</ele>
        <time>2020-03-15T07:15:03Z</time>
      </trkpt>
      <trkpt lat="38.2667790" lon="-0.7597640">
        <ele>205.2</ele>
        <time>2020-03-15T07:15:04Z</time>
      </trkpt>
      <trkpt lat="38.2668050" lon="-0.7597680">
        <ele>205.4</ele>
        <time>2020-03-15T07:15:05Z</time>
      </trkpt>
      <trkpt lat="38.2668680" lon="-0.7597800">
        <ele>205.8</ele>
        <time>2020-03-15T07:15:06Z</time>
      </trkpt>
      <trkpt lat="38.2669020" lon="-0.7597830">
        <ele>205.6</ele>
        <time>2020-03-15T07:15:07Z</time>
      </trkpt>
      <trkpt lat="38.2669350" lon="-0.7597860">
        <ele>206.0</ele>
        <time>2020-03-15T07:15:08Z</time>
      </trkpt>
      <trkpt lat="38.2669750" lon="-0.7597750">
        <ele>206.0</ele>
        <time>2020-03-15T07:15:09Z</time>
      </trkpt>
      <trkpt lat="38.2670140" lon="-0.7597640">
        <ele>206.2</ele>
        <time>2020-03-15T07:15:10Z</time>
      </trkpt>
      <trkpt lat="38.2670510" lon="-0.7597490">
        <ele>206.4</ele>
        <time>2020-03-15T07:15:11Z</time>
      </trkpt>
      <trkpt lat="38.2670880" lon="-0.7597330">
        <ele>206.6</ele>
        <time>2020-03-15T07:15:12Z</time>
      </trkpt>
      <trkpt lat="38.2671180" lon="-0.7597120">
        <ele>207.0</ele>
        <time>2020-03-15T07:15:13Z</time>
      </trkpt>
      <trkpt lat="38.2671410" lon="-0.7596890">
        <ele>207.6</ele>
        <time>2020-03-15T07:15:14Z</time>
      </trkpt>
      <trkpt lat="38.2671540" lon="-0.7596590">
        <ele>208.2</ele>
        <time>2020-03-15T07:15:15Z</time>
      </trkpt>
      <trkpt lat="38.2671660" lon="-0.7596290">
        <ele>208.2</ele>
        <time>2020-03-15T07:15:16Z</time>
      </trkpt>
      <trkpt lat="38.2671700" lon="-0.7595890">
        <ele>208.4</ele>
        <time>2020-03-15T07:15:17Z</time>
      </trkpt>
      <trkpt lat="38.2671730" lon="-0.7595480">
        <ele>208.4</ele>
        <time>2020-03-15T07:15:18Z</time>
      </trkpt>
      <trkpt lat="38.2671610" lon="-0.7594990">
        <ele>208.2</ele>
        <time>2020-03-15T07:15:19Z</time>
      </trkpt>
      <trkpt lat="38.2671490" lon="-0.7594490">
        <ele>208.2</ele>
        <time>2020-03-15T07:15:20Z</time>
      </trkpt>
      <trkpt lat="38.2671370" lon="-0.7593900">
        <ele>207.6</ele>
        <time>2020-03-15T07:15:21Z</time>
      </trkpt>
      <trkpt lat="38.2671250" lon="-0.7593190">
        <ele>207.2</ele>
        <time>2020-03-15T07:15:22Z</time>
      </trkpt>
      <trkpt lat="38.2671110" lon="-0.7592460">
        <ele>206.8</ele>
        <time>2020-03-15T07:15:23Z</time>
      </trkpt>
      <trkpt lat="38.2671030" lon="-0.7592080">
        <ele>206.4</ele>
        <time>2020-03-15T07:15:24Z</time>
      </trkpt>
      <trkpt lat="38.2670940" lon="-0.7591710">
        <ele>206.2</ele>
        <time>2020-03-15T07:15:25Z</time>
      </trkpt>
      <trkpt lat="38.2670800" lon="-0.7590990">
        <ele>206.0</ele>
        <time>2020-03-15T07:15:26Z</time>
      </trkpt>
      <trkpt lat="38.2671010" lon="-0.7589890">
        <ele>206.0</ele>
        <time>2020-03-15T07:15:27Z</time>
      </trkpt>
      <trkpt lat="38.2671300" lon="-0.7589540">
        <ele>206.2</ele>
        <time>2020-03-15T07:15:28Z</time>
      </trkpt>
      <trkpt lat="38.2671690" lon="-0.7589250">
        <ele>206.4</ele>
        <time>2020-03-15T07:15:29Z</time>
      </trkpt>
      <trkpt lat="38.2672090" lon="-0.7589100">
        <ele>206.6</ele>
        <time>2020-03-15T07:15:30Z</time>
      </trkpt>
      <trkpt lat="38.2672490" lon="-0.7588940">
        <ele>207.0</ele>
        <time>2020-03-15T07:15:31Z</time>
      </trkpt>
      <trkpt lat="38.2672880" lon="-0.7588790">
        <ele>207.2</ele>
        <time>2020-03-15T07:15:32Z</time>
      </trkpt>
      <trkpt lat="38.2673070" lon="-0.7588710">
        <ele>207.4</ele>
        <time>2020-03-15T07:15:33Z</time>
      </trkpt>
      <trkpt lat="38.2673250" lon="-0.7588630">
        <ele>207.6</ele>
        <time>2020-03-15T07:15:34Z</time>
      </trkpt>
      <trkpt lat="38.2673630" lon="-0.7588460">
        <ele>208.0</ele>
        <time>2020-03-15T07:15:35Z</time>
      </trkpt>
      <trkpt lat="38.2674280" lon="-0.7587970">
        <ele>208.2</ele>
        <time>2020-03-15T07:15:36Z</time>
      </trkpt>
      <trkpt lat="38.2674600" lon="-0.7587760">
        <ele>208.4</ele>
        <time>2020-03-15T07:15:37Z</time>
      </trkpt>
      <trkpt lat="38.2674920" lon="-0.7587580">
        <ele>208.6</ele>
        <time>2020-03-15T07:15:38Z</time>
      </trkpt>
      <trkpt lat="38.2675240" lon="-0.7587390">
        <ele>209.0</ele>
        <time>2020-03-15T07:15:39Z</time>
      </trkpt>
      <trkpt lat="38.2675570" lon="-0.7587150">
        <ele>209.2</ele>
        <time>2020-03-15T07:15:40Z</time>
      </trkpt>
      <trkpt lat="38.2675870" lon="-0.7586700">
        <ele>209.2</ele>
        <time>2020-03-15T07:15:41Z</time>
      </trkpt>
      <trkpt lat="38.2676170" lon="-0.7586250">
        <ele>208.2</ele>
        <time>2020-03-15T07:15:42Z</time>
      </trkpt>
      <trkpt lat="38.2676230" lon="-0.7585960">
        <ele>207.4</ele>
        <time>2020-03-15T07:15:43Z</time>
      </trkpt>
      <trkpt lat="38.2676280" lon="-0.7585670">
        <ele>206.2</ele>
        <time>2020-03-15T07:15:44Z</time>
      </trkpt>
      <trkpt lat="38.2676380" lon="-0.7584270">
        <ele>205.2</ele>
        <time>2020-03-15T07:15:45Z</time>
      </trkpt>
      <trkpt lat="38.2676390" lon="-0.7583740">
        <ele>204.0</ele>
        <time>2020-03-15T07:15:46Z</time>
      </trkpt>
      <trkpt lat="38.2676390" lon="-0.7583200">
        <ele>202.8</ele>
        <time>2020-03-15T07:15:47Z</time>
      </trkpt>
      <trkpt lat="38.2676390" lon="-0.7582130">
        <ele>201.8</ele>
        <time>2020-03-15T07:15:48Z</time>
      </trkpt>
      <trkpt lat="38.2676420" lon="-0.7581810">
        <ele>200.8</ele>
        <time>2020-03-15T07:15:49Z</time>
      </trkpt>
      <trkpt lat="38.2676440" lon="-0.7581480">
        <ele>200.2</ele>
        <time>2020-03-15T07:15:50Z</time>
      </trkpt>
      <trkpt lat="38.2676570" lon="-0.7580580">
        <ele>199.8</ele>
        <time>2020-03-15T07:15:51Z</time>
      </trkpt>
      <trkpt lat="38.2676650" lon="-0.7580320">
        <ele>199.8</ele>
        <time>2020-03-15T07:15:52Z</time>
      </trkpt>
      <trkpt lat="38.2677210" lon="-0.7579620">
        <ele>200.0</ele>
        <time>2020-03-15T07:15:53Z</time>
      </trkpt>
      <trkpt lat="38.2677380" lon="-0.7579480">
        <ele>200.2</ele>
        <time>2020-03-15T07:15:54Z</time>
      </trkpt>
      <trkpt lat="38.2677540" lon="-0.7579330">
        <ele>200.6</ele>
        <time>2020-03-15T07:15:55Z</time>
      </trkpt>
      <trkpt lat="38.2678210" lon="-0.7578970">
        <ele>200.8</ele>
        <time>2020-03-15T07:15:56Z</time>
      </trkpt>
      <trkpt lat="38.2678520" lon="-0.7578760">
        <ele>201.0</ele>
        <time>2020-03-15T07:15:57Z</time>
      </trkpt>
      <trkpt lat="38.2678830" lon="-0.7578520">
        <ele>201.2</ele>
        <time>2020-03-15T07:15:58Z</time>
      </trkpt>
      <trkpt lat="38.2679140" lon="-0.7578280">
        <ele>201.6</ele>
        <time>2020-03-15T07:15:59Z</time>
      </trkpt>
      <trkpt lat="38.2679320" lon="-0.7577970">
        <ele>201.8</ele>
        <time>2020-03-15T07:16:00Z</time>
      </trkpt>
      <trkpt lat="38.2679440" lon="-0.7577590">
        <ele>202.2</ele>
        <time>2020-03-15T07:16:01Z</time>
      </trkpt>
      <trkpt lat="38.2679500" lon="-0.7577170">
        <ele>202.6</ele>
        <time>2020-03-15T07:16:02Z</time>
      </trkpt>
      <trkpt lat="38.2679520" lon="-0.7576770">
        <ele>203.2</ele>
        <time>2020-03-15T07:16:03Z</time>
      </trkpt>
      <trkpt lat="38.2679530" lon="-0.7576380">
        <ele>203.6</ele>
        <time>2020-03-15T07:16:04Z</time>
      </trkpt>
      <trkpt lat="38.2679520" lon="-0.7576010">
        <ele>204.0</ele>
        <time>2020-03-15T07:16:05Z</time>
      </trkpt>
      <trkpt lat="38.2679480" lon="-0.7575670">
        <ele>204.4</ele>
        <time>2020-03-15T07:16:06Z</time>
      </trkpt>
      <trkpt lat="38.2679430" lon="-0.7575330">
        <ele>205.0</ele>
        <time>2020-03-15T07:16:07Z</time>
      </trkpt>
      <trkpt lat="38.2679430" lon="-0.7575330">
        <ele>205.2</ele>
        <time>2020-03-15T07:16:08Z</time>
      </trkpt>
      <trkpt lat="38.2679360" lon="-0.7575030">
        <ele>205.6</ele>
        <time>2020-03-15T07:16:09Z</time>
      </trkpt>
      <trkpt lat="38.2679250" lon="-0.7574800">
        <ele>206.0</ele>
        <time>2020-03-15T07:16:10Z</time>
      </trkpt>
      <trkpt lat="38.2679120" lon="-0.7574540">
        <ele>206.4</ele>
        <time>2020-03-15T07:16:11Z</time>
      </trkpt>
      <trkpt lat="38.2679000" lon="-0.7574230">
        <ele>206.8</ele>
        <time>2020-03-15T07:16:12Z</time>
      </trkpt>
      <trkpt lat="38.2678840" lon="-0.7573630">
        <ele>207.2</ele>
        <time>2020-03-15T07:16:13Z</time>
      </trkpt>
      <trkpt lat="38.2678840" lon="-0.7573630">
        <ele>207.6</ele>
        <time>2020-03-15T07:16:14Z</time>
      </trkpt>
      <trkpt lat="38.2678770" lon="-0.7573360">
        <ele>207.8</ele>
        <time>2020-03-15T07:16:15Z</time>
      </trkpt>
      <trkpt lat="38.2678730" lon="-0.7573030">
        <ele>207.8</ele>
        <time>2020-03-15T07:16:16Z</time>
      </trkpt>
      <trkpt lat="38.2678740" lon="-0.7572640">
        <ele>207.8</ele>
        <time>2020-03-15T07:16:17Z</time>
      </trkpt>
      <trkpt lat="38.2678930" lon="-0.7571810">
        <ele>207.8</ele>
        <time>2020-03-15T07:16:18Z</time>
      </trkpt>
      <trkpt lat="38.2679020" lon="-0.7571600">
        <ele>207.8</ele>
        <time>2020-03-15T07:16:19Z</time>
      </trkpt>
      <trkpt lat="38.2679100" lon="-0.7571390">
        <ele>208.0</ele>
        <time>2020-03-15T07:16:20Z</time>
      </trkpt>
      <trkpt lat="38.2679560" lon="-0.7570450">
        <ele>208.0</ele>
        <time>2020-03-15T07:16:21Z</time>
      </trkpt>
      <trkpt lat="38.2679860" lon="-0.7570080">
        <ele>208.2</ele>
        <time>2020-03-15T07:16:22Z</time>
      </trkpt>
      <trkpt lat="38.2680220" lon="-0.7569850">
        <ele>208.2</ele>
        <time>2020-03-15T07:16:23Z</time>
      </trkpt>
      <trkpt lat="38.2680580" lon="-0.7569730">
        <ele>208.6</ele>
        <time>2020-03-15T07:16:24Z</time>
      </trkpt>
      <trkpt lat="38.2680930" lon="-0.7569600">
        <ele>208.8</ele>
        <time>2020-03-15T07:16:25Z</time>
      </trkpt>
      <trkpt lat="38.2681240" lon="-0.7569470">
        <ele>209.2</ele>
        <time>2020-03-15T07:16:26Z</time>
      </trkpt>
      <trkpt lat="38.2681550" lon="-0.7569330">
        <ele>209.6</ele>
        <time>2020-03-15T07:16:27Z</time>
      </trkpt>
      <trkpt lat="38.2681720" lon="-0.7569230">
        <ele>209.6</ele>
        <time>2020-03-15T07:16:28Z</time>
      </trkpt>
      <trkpt lat="38.2681880" lon="-0.7569120">
        <ele>209.6</ele>
        <time>2020-03-15T07:16:29Z</time>
      </trkpt>
      <trkpt lat="38.2682330" lon="-0.7568260">
        <ele>209.8</ele>
        <time>2020-03-15T07:16:30Z</time>
      </trkpt>
      <trkpt lat="38.2682330" lon="-0.7568260">
        <ele>210.0</ele>
        <time>2020-03-15T07:16:31Z</time>
      </trkpt>
      <trkpt lat="38.2682380" lon="-0.7567800">
        <ele>210.4</ele>
        <time>2020-03-15T07:16:32Z</time>
      </trkpt>
      <trkpt lat="38.2682440" lon="-0.7566930">
        <ele>210.6</ele>
        <time>2020-03-15T07:16:33Z</time>
      </trkpt>
      <trkpt lat="38.2682470" lon="-0.7566670">
        <ele>210.6</ele>
        <time>2020-03-15T07:16:34Z</time>
      </trkpt>
      <trkpt lat="38.2682500" lon="-0.7566410">
        <ele>210.4</ele>
        <time>2020-03-15T07:16:35Z</time>
      </trkpt>
      <trkpt lat="38.2682630" lon="-0.7565850">
        <ele>210.4</ele>
        <time>2020-03-15T07:16:36Z</time>
      </trkpt>
      <trkpt lat="38.2682900" lon="-0.7564710">
        <ele>210.6</ele>
        <time>2020-03-15T07:16:37Z</time>
      </trkpt>
      <trkpt lat="38.2682950" lon="-0.7564440">
        <ele>210.8</ele>
        <time>2020-03-15T07:16:38Z</time>
      </trkpt>
      <trkpt lat="38.2682990" lon="-0.7564170">
        <ele>211.2</ele>
        <time>2020-03-15T07:16:39Z</time>
      </trkpt>
      <trkpt lat="38.2682910" lon="-0.7563630">
        <ele>211.2</ele>
        <time>2020-03-15T07:16:40Z</time>
      </trkpt>
      <trkpt lat="38.2682740" lon="-0.7563130">
        <ele>211.4</ele>
        <time>2020-03-15T07:16:41Z</time>
      </trkpt>
      <trkpt lat="38.2682520" lon="-0.7562660">
        <ele>211.6</ele>
        <time>2020-03-15T07:16:42Z</time>
      </trkpt>
      <trkpt lat="38.2682270" lon="-0.7562190">
        <ele>211.4</ele>
        <time>2020-03-15T07:16:43Z</time>
      </trkpt>
      <trkpt lat="38.2681500" lon="-0.7561240">
        <ele>211.0</ele>
        <time>2020-03-15T07:16:44Z</time>
      </trkpt>
      <trkpt lat="38.2680970" lon="-0.7560760">
        <ele>210.4</ele>
        <time>2020-03-15T07:16:45Z</time>
      </trkpt>
      <trkpt lat="38.2680380" lon="-0.7560260">
        <ele>209.8</ele>
        <time>2020-03-15T07:16:46Z</time>
      </trkpt>
      <trkpt lat="38.2680060" lon="-0.7560010">
        <ele>209.2</ele>
        <time>2020-03-15T07:16:47Z</time>
      </trkpt>
      <trkpt lat="38.2679740" lon="-0.7559760">
        <ele>209.0</ele>
        <time>2020-03-15T07:16:48Z</time>
      </trkpt>
      <trkpt lat="38.2679050" lon="-0.7559320">
        <ele>208.8</ele>
        <time>2020-03-15T07:16:49Z</time>
      </trkpt>
      <trkpt lat="38.2678350" lon="-0.7558930">
        <ele>209.0</ele>
        <time>2020-03-15T07:16:50Z</time>
      </trkpt>
      <trkpt lat="38.2677710" lon="-0.7558620">
        <ele>208.6</ele>
        <time>2020-03-15T07:16:51Z</time>
      </trkpt>
      <trkpt lat="38.2677150" lon="-0.7558470">
        <ele>208.4</ele>
        <time>2020-03-15T07:16:52Z</time>
      </trkpt>
      <trkpt lat="38.2676610" lon="-0.7558470">
        <ele>208.0</ele>
        <time>2020-03-15T07:16:53Z</time>
      </trkpt>
      <trkpt lat="38.2676070" lon="-0.7558630">
        <ele>207.6</ele>
        <time>2020-03-15T07:16:54Z</time>
      </trkpt>
      <trkpt lat="38.2675580" lon="-0.7559080">
        <ele>207.4</ele>
        <time>2020-03-15T07:16:55Z</time>
      </trkpt>
      <trkpt lat="38.2675100" lon="-0.7559580">
        <ele>207.2</ele>
        <time>2020-03-15T07:16:56Z</time>
      </trkpt>
      <trkpt lat="38.2674560" lon="-0.7560080">
        <ele>206.6</ele>
        <time>2020-03-15T07:16:57Z</time>
      </trkpt>
      <trkpt lat="38.2673850" lon="-0.7560470">
        <ele>206.0</ele>
        <time>2020-03-15T07:16:58Z</time>
      </trkpt>
      <trkpt lat="38.2673100" lon="-0.7560760">
        <ele>204.8</ele>
        <time>2020-03-15T07:16:59Z</time>
      </trkpt>
      <trkpt lat="38.2672290" lon="-0.7561070">
        <ele>203.8</ele>
        <time>2020-03-15T07:17:00Z</time>
      </trkpt>
      <trkpt lat="38.2670530" lon="-0.7561440">
        <ele>203.0</ele>
        <time>2020-03-15T07:17:01Z</time>
      </trkpt>
      <trkpt lat="38.2670110" lon="-0.7561500">
        <ele>203.0</ele>
        <time>2020-03-15T07:17:02Z</time>
      </trkpt>
      <trkpt lat="38.2669690" lon="-0.7561550">
        <ele>202.6</ele>
        <time>2020-03-15T07:17:03Z</time>
      </trkpt>
      <trkpt lat="38.2668900" lon="-0.7561600">
        <ele>202.6</ele>
        <time>2020-03-15T07:17:04Z</time>
      </trkpt>
      <trkpt lat="38.2668110" lon="-0.7561640">
        <ele>202.4</ele>
        <time>2020-03-15T07:17:05Z</time>
      </trkpt>
      <trkpt lat="38.2666390" lon="-0.7561660">
        <ele>201.4</ele>
        <time>2020-03-15T07:17:06Z</time>
      </trkpt>
      <trkpt lat="38.2665470" lon="-0.7561740">
        <ele>200.2</ele>
        <time>2020-03-15T07:17:07Z</time>
      </trkpt>
      <trkpt lat="38.2664630" lon="-0.7561860">
        <ele>199.6</ele>
        <time>2020-03-15T07:17:08Z</time>
      </trkpt>
      <trkpt lat="38.2663900" lon="-0.7561930">
        <ele>198.6</ele>
        <time>2020-03-15T07:17:09Z</time>
      </trkpt>
      <trkpt lat="38.2663420" lon="-0.7561760">
        <ele>197.4</ele>
        <time>2020-03-15T07:17:10Z</time>
      </trkpt>
      <trkpt lat="38.2662940" lon="-0.7561590">
        <ele>196.2</ele>
        <time>2020-03-15T07:17:11Z</time>
      </trkpt>
      <trkpt lat="38.2661970" lon="-0.7561260">
        <ele>195.4</ele>
        <time>2020-03-15T07:17:12Z</time>
      </trkpt>
      <trkpt lat="38.2661240" lon="-0.7560920">
        <ele>194.4</ele>
        <time>2020-03-15T07:17:13Z</time>
      </trkpt>
      <trkpt lat="38.2660670" lon="-0.7560640">
        <ele>193.8</ele>
        <time>2020-03-15T07:17:14Z</time>
      </trkpt>
      <trkpt lat="38.2660100" lon="-0.7560370">
        <ele>193.0</ele>
        <time>2020-03-15T07:17:15Z</time>
      </trkpt>
      <trkpt lat="38.2658960" lon="-0.7559830">
        <ele>191.6</ele>
        <time>2020-03-15T07:17:16Z</time>
      </trkpt>
      <trkpt lat="38.2658610" lon="-0.7559740">
        <ele>190.0</ele>
        <time>2020-03-15T07:17:17Z</time>
      </trkpt>
      <trkpt lat="38.2658260" lon="-0.7559650">
        <ele>188.6</ele>
        <time>2020-03-15T07:17:18Z</time>
      </trkpt>
      <trkpt lat="38.2657700" lon="-0.7559590">
        <ele>187.6</ele>
        <time>2020-03-15T07:17:19Z</time>
      </trkpt>
      <trkpt lat="38.2657220" lon="-0.7559500">
        <ele>186.6</ele>
        <time>2020-03-15T07:17:20Z</time>
      </trkpt>
      <trkpt lat="38.2656780" lon="-0.7559190">
        <ele>186.0</ele>
        <time>2020-03-15T07:17:21Z</time>
      </trkpt>
      <trkpt lat="38.2656780" lon="-0.7559190">
        <ele>186.0</ele>
        <time>2020-03-15T07:17:22Z</time>
      </trkpt>
      <trkpt lat="38.2656850" lon="-0.7558790">
        <ele>186.0</ele>
        <time>2020-03-15T07:17:23Z</time>
      </trkpt>
      <trkpt lat="38.2657030" lon="-0.7558730">
        <ele>186.0</ele>
        <time>2020-03-15T07:17:24Z</time>
      </trkpt>
      <trkpt lat="38.2657030" lon="-0.7558730">
        <ele>186.0</ele>
        <time>2020-03-15T07:17:25Z</time>
      </trkpt>
      <trkpt lat="38.2657270" lon="-0.7558650">
        <ele>185.8</ele>
        <time>2020-03-15T07:17:26Z</time>
      </trkpt>
      <trkpt lat="38.2658090" lon="-0.7558330">
        <ele>185.6</ele>
        <time>2020-03-15T07:17:27Z</time>
      </trkpt>
      <trkpt lat="38.2658480" lon="-0.7557970">
        <ele>185.0</ele>
        <time>2020-03-15T07:17:28Z</time>
      </trkpt>
      <trkpt lat="38.2658870" lon="-0.7557600">
        <ele>184.8</ele>
        <time>2020-03-15T07:17:29Z</time>
      </trkpt>
      <trkpt lat="38.2659040" lon="-0.7557020">
        <ele>184.8</ele>
        <time>2020-03-15T07:17:30Z</time>
      </trkpt>
      <trkpt lat="38.2659120" lon="-0.7556370">
        <ele>184.8</ele>
        <time>2020-03-15T07:17:31Z</time>
      </trkpt>
      <trkpt lat="38.2659250" lon="-0.7555940">
        <ele>184.8</ele>
        <time>2020-03-15T07:17:32Z</time>
      </trkpt>
      <trkpt lat="38.2659370" lon="-0.7555510">
        <ele>184.6</ele>
        <time>2020-03-15T07:17:33Z</time>
      </trkpt>
      <trkpt lat="38.2659620" lon="-0.7554640">
        <ele>184.0</ele>
        <time>2020-03-15T07:17:34Z</time>
      </trkpt>
      <trkpt lat="38.2659620" lon="-0.7554640">
        <ele>183.6</ele>
        <time>2020-03-15T07:17:35Z</time>
      </trkpt>
      <trkpt lat="38.2659920" lon="-0.7554420">
        <ele>183.4</ele>
        <time>2020-03-15T07:17:36Z</time>
      </trkpt>
      <trkpt lat="38.2660220" lon="-0.7554440">
        <ele>183.4</ele>
        <time>2020-03-15T07:17:37Z</time>
      </trkpt>
      <trkpt lat="38.2660700" lon="-0.7554880">
        <ele>183.4</ele>
        <time>2020-03-15T07:17:38Z</time>
      </trkpt>
      <trkpt lat="38.2660880" lon="-0.7554980">
        <ele>183.6</ele>
        <time>2020-03-15T07:17:39Z</time>
      </trkpt>
      <trkpt lat="38.2661050" lon="-0.7555080">
        <ele>183.0</ele>
        <time>2020-03-15T07:17:40Z</time>
      </trkpt>
      <trkpt lat="38.2661610" lon="-0.7555030">
        <ele>182.2</ele>
        <time>2020-03-15T07:17:41Z</time>
      </trkpt>
      <trkpt lat="38.2662240" lon="-0.7554830">
        <ele>181.4</ele>
        <time>2020-03-15T07:17:42Z</time>
      </trkpt>
      <trkpt lat="38.2662900" lon="-0.7554310">
        <ele>180.8</ele>
        <time>2020-03-15T07:17:43Z</time>
      </trkpt>
      <trkpt lat="38.2663400" lon="-0.7553650">
        <ele>180.6</ele>
        <time>2020-03-15T07:17:44Z</time>
      </trkpt>
      <trkpt lat="38.2664190" lon="-0.7552040">
        <ele>180.2</ele>
        <time>2020-03-15T07:17:45Z</time>
      </trkpt>
      <trkpt lat="38.2664380" lon="-0.7551620">
        <ele>180.0</ele>
        <time>2020-03-15T07:17:46Z</time>
      </trkpt>
      <trkpt lat="38.2664560" lon="-0.7551200">
        <ele>179.8</ele>
        <time>2020-03-15T07:17:47Z</time>
      </trkpt>
      <trkpt lat="38.2665090" lon="-0.7549920">
        <ele>179.2</ele>
        <time>2020-03-15T07:17:48Z</time>
      </trkpt>
      <trkpt lat="38.2665260" lon="-0.7549480">
        <ele>178.8</ele>
        <time>2020-03-15T07:17:49Z</time>
      </trkpt>
      <trkpt lat="38.2666160" lon="-0.7548130">
        <ele>178.2</ele>
        <time>2020-03-15T07:17:50Z</time>
      </trkpt>
      <trkpt lat="38.2666480" lon="-0.7547590">
        <ele>177.8</ele>
        <time>2020-03-15T07:17:51Z</time>
      </trkpt>
      <trkpt lat="38.2666610" lon="-0.7547040">
        <ele>177.2</ele>
        <time>2020-03-15T07:17:52Z</time>
      </trkpt>
      <trkpt lat="38.2666540" lon="-0.7546730">
        <ele>176.6</ele>
        <time>2020-03-15T07:17:53Z</time>
      </trkpt>
      <trkpt lat="38.2666460" lon="-0.7546420">
        <ele>175.8</ele>
        <time>2020-03-15T07:17:54Z</time>
      </trkpt>
      <trkpt lat="38.2665620" lon="-0.7545390">
        <ele>174.8</ele>
        <time>2020-03-15T07:17:55Z</time>
      </trkpt>
      <trkpt lat="38.2665390" lon="-0.7545290">
        <ele>173.6</ele>
        <time>2020-03-15T07:17:56Z</time>
      </trkpt>
      <trkpt lat="38.2665150" lon="-0.7545190">
        <ele>173.0</ele>
        <time>2020-03-15T07:17:57Z</time>
      </trkpt>
      <trkpt lat="38.2664210" lon="-0.7545340">
        <ele>172.2</ele>
        <time>2020-03-15T07:17:58Z</time>
      </trkpt>
      <trkpt lat="38.2663770" lon="-0.7545710">
        <ele>171.4</ele>
        <time>2020-03-15T07:17:59Z</time>
      </trkpt>
      <trkpt lat="38.2663480" lon="-0.7546140">
        <ele>170.8</ele>
        <time>2020-03-15T07:18:00Z</time>
      </trkpt>
      <trkpt lat="38.2663190" lon="-0.7546560">
        <ele>170.8</ele>
        <time>2020-03-15T07:18:01Z</time>
      </trkpt>
      <trkpt lat="38.2662600" lon="-0.7547400">
        <ele>170.4</ele>
        <time>2020-03-15T07:18:02Z</time>
      </trkpt>
      <trkpt lat="38.2662350" lon="-0.7547530">
        <ele>170.0</ele>
        <time>2020-03-15T07:18:03Z</time>
      </trkpt>
      <trkpt lat="38.2662100" lon="-0.7547650">
        <ele>169.4</ele>
        <time>2020-03-15T07:18:04Z</time>
      </trkpt>
      <trkpt lat="38.2661330" lon="-0.7547810">
        <ele>168.8</ele>
        <time>2020-03-15T07:18:05Z</time>
      </trkpt>
      <trkpt lat="38.2661070" lon="-0.7547720">
        <ele>168.4</ele>
        <time>2020-03-15T07:18:06Z</time>
      </trkpt>
      <trkpt lat="38.2660000" lon="-0.7546800">
        <ele>167.6</ele>
        <time>2020-03-15T07:18:07Z</time>
      </trkpt>
      <trkpt lat="38.2659650" lon="-0.7546600">
        <ele>166.8</ele>
        <time>2020-03-15T07:18:08Z</time>
      </trkpt>
      <trkpt lat="38.2659290" lon="-0.7546400">
        <ele>165.8</ele>
        <time>2020-03-15T07:18:09Z</time>
      </trkpt>
      <trkpt lat="38.2658430" lon="-0.7546150">
        <ele>165.0</ele>
        <time>2020-03-15T07:18:10Z</time>
      </trkpt>
      <trkpt lat="38.2657470" lon="-0.7545920">
        <ele>163.8</ele>
        <time>2020-03-15T07:18:11Z</time>
      </trkpt>
      <trkpt lat="38.2656060" lon="-0.7545480">
        <ele>162.6</ele>
        <time>2020-03-15T07:18:12Z</time>
      </trkpt>
      <trkpt lat="38.2655610" lon="-0.7545280">
        <ele>162.2</ele>
        <time>2020-03-15T07:18:13Z</time>
      </trkpt>
      <trkpt lat="38.2654710" lon="-0.7544870">
        <ele>161.8</ele>
        <time>2020-03-15T07:18:14Z</time>
      </trkpt>
      <trkpt lat="38.2653880" lon="-0.7544320">
        <ele>161.2</ele>
        <time>2020-03-15T07:18:15Z</time>
      </trkpt>
      <trkpt lat="38.2652140" lon="-0.7543860">
        <ele>160.8</ele>
        <time>2020-03-15T07:18:16Z</time>
      </trkpt>
      <trkpt lat="38.2651260" lon="-0.7543850">
        <ele>160.4</ele>
        <time>2020-03-15T07:18:17Z</time>
      </trkpt>
      <trkpt lat="38.2650370" lon="-0.7543930">
        <ele>159.8</ele>
        <time>2020-03-15T07:18:18Z</time>
      </trkpt>
      <trkpt lat="38.2649550" lon="-0.7544060">
        <ele>159.6</ele>
        <time>2020-03-15T07:18:19Z</time>
      </trkpt>
      <trkpt lat="38.2649180" lon="-0.7544060">
        <ele>159.6</ele>
        <time>2020-03-15T07:18:20Z</time>
      </trkpt>
      <trkpt lat="38.2648810" lon="-0.7544060">
        <ele>159.6</ele>
        <time>2020-03-15T07:18:21Z</time>
      </trkpt>
      <trkpt lat="38.2648260" lon="-0.7543890">
        <ele>159.4</ele>
        <time>2020-03-15T07:18:22Z</time>
      </trkpt>
      <trkpt lat="38.2647980" lon="-0.7543590">
        <ele>159.0</ele>
        <time>2020-03-15T07:18:23Z</time>
      </trkpt>
      <trkpt lat="38.2647760" lon="-0.7543160">
        <ele>158.6</ele>
        <time>2020-03-15T07:18:24Z</time>
      </trkpt>
      <trkpt lat="38.2646910" lon="-0.7542230">
        <ele>158.4</ele>
        <time>2020-03-15T07:18:25Z</time>
      </trkpt>
      <trkpt lat="38.2646490" lon="-0.7541870">
        <ele>158.0</ele>
        <time>2020-03-15T07:18:26Z</time>
      </trkpt>
      <trkpt lat="38.2646220" lon="-0.7541600">
        <ele>157.8</ele>
        <time>2020-03-15T07:18:27Z</time>
      </trkpt>
      <trkpt lat="38.2645950" lon="-0.7541340">
        <ele>157.4</ele>
        <time>2020-03-15T07:18:28Z</time>
      </trkpt>
      <trkpt lat="38.2645280" lon="-0.7540680">
        <ele>156.8</ele>
        <time>2020-03-15T07:18:29Z</time>
      </trkpt>
      <trkpt lat="38.2644930" lon="-0.7539930">
        <ele>156.4</ele>
        <time>2020-03-15T07:18:30Z</time>
      </trkpt>
      <trkpt lat="38.2645070" lon="-0.7539530">
        <ele>156.2</ele>
        <time>2020-03-15T07:18:31Z</time>
      </trkpt>
      <trkpt lat="38.2645200" lon="-0.7539120">
        <ele>155.6</ele>
        <time>2020-03-15T07:18:32Z</time>
      </trkpt>
      <trkpt lat="38.2645430" lon="-0.7538970">
        <ele>155.0</ele>
        <time>2020-03-15T07:18:33Z</time>
      </trkpt>
      <trkpt lat="38.2645650" lon="-0.7538810">
        <ele>154.8</ele>
        <time>2020-03-15T07:18:34Z</time>
      </trkpt>
      <trkpt lat="38.2646200" lon="-0.7538510">
        <ele>154.0</ele>
        <time>2020-03-15T07:18:35Z</time>
      </trkpt>
      <trkpt lat="38.2646760" lon="-0.7538160">
        <ele>153.2</ele>
        <time>2020-03-15T07:18:36Z</time>
      </trkpt>
      <trkpt lat="38.2647410" lon="-0.7537880">
        <ele>152.6</ele>
        <time>2020-03-15T07:18:37Z</time>
      </trkpt>
      <trkpt lat="38.2648700" lon="-0.7536980">
        <ele>152.4</ele>
        <time>2020-03-15T07:18:38Z</time>
      </trkpt>
      <trkpt lat="38.2649240" lon="-0.7536550">
        <ele>152.8</ele>
        <time>2020-03-15T07:18:39Z</time>
      </trkpt>
      <trkpt lat="38.2649680" lon="-0.7536310">
        <ele>153.2</ele>
        <time>2020-03-15T07:18:40Z</time>
      </trkpt>
      <trkpt lat="38.2650110" lon="-0.7536060">
        <ele>153.8</ele>
        <time>2020-03-15T07:18:41Z</time>
      </trkpt>
      <trkpt lat="38.2650550" lon="-0.7536000">
        <ele>154.0</ele>
        <time>2020-03-15T07:18:42Z</time>
      </trkpt>
      <trkpt lat="38.2650760" lon="-0.7536050">
        <ele>154.4</ele>
        <time>2020-03-15T07:18:43Z</time>
      </trkpt>
      <trkpt lat="38.2650960" lon="-0.7536100">
        <ele>154.4</ele>
        <time>2020-03-15T07:18:44Z</time>
      </trkpt>
      <trkpt lat="38.2651750" lon="-0.7536550">
        <ele>154.6</ele>
        <time>2020-03-15T07:18:45Z</time>
      </trkpt>
      <trkpt lat="38.2652140" lon="-0.7536790">
        <ele>154.8</ele>
        <time>2020-03-15T07:18:46Z</time>
      </trkpt>
      <trkpt lat="38.2652470" lon="-0.7537110">
        <ele>154.8</ele>
        <time>2020-03-15T07:18:47Z</time>
      </trkpt>
      <trkpt lat="38.2652620" lon="-0.7537300">
        <ele>155.2</ele>
        <time>2020-03-15T07:18:48Z</time>
      </trkpt>
      <trkpt lat="38.2652760" lon="-0.7537490">
        <ele>155.4</ele>
        <time>2020-03-15T07:18:49Z</time>
      </trkpt>
      <trkpt lat="38.2653090" lon="-0.7537900">
        <ele>155.6</ele>
        <time>2020-03-15T07:18:50Z</time>
      </trkpt>
      <trkpt lat="38.2653900" lon="-0.7538560">
        <ele>155.8</ele>
        <time>2020-03-15T07:18:51Z</time>
      </trkpt>
      <trkpt lat="38.2654090" lon="-0.7538700">
        <ele>156.0</ele>
        <time>2020-03-15T07:18:52Z</time>
      </trkpt>
      <trkpt lat="38.2654270" lon="-0.7538850">
        <ele>156.2</ele>
        <time>2020-03-15T07:18:53Z</time>
      </trkpt>
      <trkpt lat="38.2655110" lon="-0.7539380">
        <ele>156.2</ele>
        <time>2020-03-15T07:18:54Z</time>
      </trkpt>
      <trkpt lat="38.2655580" lon="-0.7539580">
        <ele>156.4</ele>
        <time>2020-03-15T07:18:55Z</time>
      </trkpt>
      <trkpt lat="38.2655880" lon="-0.7539640">
        <ele>156.4</ele>
        <time>2020-03-15T07:18:56Z</time>
      </trkpt>
      <trkpt lat="38.2656170" lon="-0.7539700">
        <ele>156.2</ele>
        <time>2020-03-15T07:18:57Z</time>
      </trkpt>
      <trkpt lat="38.2657240" lon="-0.7539940">
        <ele>155.8</ele>
        <time>2020-03-15T07:18:58Z</time>
      </trkpt>
      <trkpt lat="38.2657730" lon="-0.7540070">
        <ele>155.6</ele>
        <time>2020-03-15T07:18:59Z</time>
      </trkpt>
      <trkpt lat="38.2658710" lon="-0.7540330">
        <ele>155.0</ele>
        <time>2020-03-15T07:19:00Z</time>
      </trkpt>
      <trkpt lat="38.2659450" lon="-0.7540410">
        <ele>154.6</ele>
        <time>2020-03-15T07:19:01Z</time>
      </trkpt>
      <trkpt lat="38.2659940" lon="-0.7540240">
        <ele>154.4</ele>
        <time>2020-03-15T07:19:02Z</time>
      </trkpt>
      <trkpt lat="38.2660430" lon="-0.7540060">
        <ele>154.6</ele>
        <time>2020-03-15T07:19:03Z</time>
      </trkpt>
      <trkpt lat="38.2661400" lon="-0.7539700">
        <ele>154.4</ele>
        <time>2020-03-15T07:19:04Z</time>
      </trkpt>
      <trkpt lat="38.2661980" lon="-0.7539310">
        <ele>154.8</ele>
        <time>2020-03-15T07:19:05Z</time>
      </trkpt>
      <trkpt lat="38.2662240" lon="-0.7539100">
        <ele>154.8</ele>
        <time>2020-03-15T07:19:06Z</time>
      </trkpt>
      <trkpt lat="38.2662500" lon="-0.7538890">
        <ele>155.0</ele>
        <time>2020-03-15T07:19:07Z</time>
      </trkpt>
      <trkpt lat="38.2662980" lon="-0.7538450">
        <ele>155.4</ele>
        <time>2020-03-15T07:19:08Z</time>
      </trkpt>
      <trkpt lat="38.2663900" lon="-0.7537640">
        <ele>155.4</ele>
        <time>2020-03-15T07:19:09Z</time>
      </trkpt>
      <trkpt lat="38.2664340" lon="-0.7537260">
        <ele>155.8</ele>
        <time>2020-03-15T07:19:10Z</time>
      </trkpt>
      <trkpt lat="38.2664670" lon="-0.7537000">
        <ele>156.0</ele>
        <time>2020-03-15T07:19:11Z</time>
      </trkpt>
      <trkpt lat="38.2664990" lon="-0.7536730">
        <ele>156.2</ele>
        <time>2020-03-15T07:19:12Z</time>
      </trkpt>
      <trkpt lat="38.2665640" lon="-0.7536190">
        <ele>156.4</ele>
        <time>2020-03-15T07:19:13Z</time>
      </trkpt>
      <trkpt lat="38.2666040" lon="-0.7535870">
        <ele>156.8</ele>
        <time>2020-03-15T07:19:14Z</time>
      </trkpt>
      <trkpt lat="38.2666420" lon="-0.7535530">
        <ele>157.0</ele>
        <time>2020-03-15T07:19:15Z</time>
      </trkpt>
      <trkpt lat="38.2666800" lon="-0.7535200">
        <ele>157.4</ele>
        <time>2020-03-15T07:19:16Z</time>
      </trkpt>
      <trkpt lat="38.2666990" lon="-0.7535060">
        <ele>157.4</ele>
        <time>2020-03-15T07:19:17Z</time>
      </trkpt>
      <trkpt lat="38.2667180" lon="-0.7534910">
        <ele>157.8</ele>
        <time>2020-03-15T07:19:18Z</time>
      </trkpt>
      <trkpt lat="38.2667580" lon="-0.7534650">
        <ele>158.0</ele>
        <time>2020-03-15T07:19:19Z</time>
      </trkpt>
      <trkpt lat="38.2667980" lon="-0.7534400">
        <ele>158.2</ele>
        <time>2020-03-15T07:19:20Z</time>
      </trkpt>
      <trkpt lat="38.2668370" lon="-0.7534160">
        <ele>158.4</ele>
        <time>2020-03-15T07:19:21Z</time>
      </trkpt>
      <trkpt lat="38.2668780" lon="-0.7533920">
        <ele>158.8</ele>
        <time>2020-03-15T07:19:22Z</time>
      </trkpt>
      <trkpt lat="38.2669540" lon="-0.7533570">
        <ele>159.0</ele>
        <time>2020-03-15T07:19:23Z</time>
      </trkpt>
      <trkpt lat="38.2669910" lon="-0.7533380">
        <ele>159.4</ele>
        <time>2020-03-15T07:19:24Z</time>
      </trkpt>
      <trkpt lat="38.2670310" lon="-0.7533160">
        <ele>159.4</ele>
        <time>2020-03-15T07:19:25Z</time>
      </trkpt>
      <trkpt lat="38.2670700" lon="-0.7532930">
        <ele>159.6</ele>
        <time>2020-03-15T07:19:26Z</time>
      </trkpt>
      <trkpt lat="38.2671100" lon="-0.7532720">
        <ele>159.8</ele>
        <time>2020-03-15T07:19:27Z</time>
      </trkpt>
      <trkpt lat="38.2671520" lon="-0.7532580">
        <ele>159.8</ele>
        <time>2020-03-15T07:19:28Z</time>
      </trkpt>
      <trkpt lat="38.2671940" lon="-0.7532440">
        <ele>160.0</ele>
        <time>2020-03-15T07:19:29Z</time>
      </trkpt>
      <trkpt lat="38.2672400" lon="-0.7532470">
        <ele>160.0</ele>
        <time>2020-03-15T07:19:30Z</time>
      </trkpt>
      <trkpt lat="38.2672650" lon="-0.7532550">
        <ele>160.0</ele>
        <time>2020-03-15T07:19:31Z</time>
      </trkpt>
      <trkpt lat="38.2672890" lon="-0.7532630">
        <ele>159.8</ele>
        <time>2020-03-15T07:19:32Z</time>
      </trkpt>
      <trkpt lat="38.2673360" lon="-0.7532860">
        <ele>159.4</ele>
        <time>2020-03-15T07:19:33Z</time>
      </trkpt>
      <trkpt lat="38.2673880" lon="-0.7533130">
        <ele>159.0</ele>
        <time>2020-03-15T07:19:34Z</time>
      </trkpt>
      <trkpt lat="38.2674460" lon="-0.7533550">
        <ele>158.4</ele>
        <time>2020-03-15T07:19:35Z</time>
      </trkpt>
      <trkpt lat="38.2675050" lon="-0.7534090">
        <ele>157.6</ele>
        <time>2020-03-15T07:19:36Z</time>
      </trkpt>
      <trkpt lat="38.2676200" lon="-0.7535440">
        <ele>157.4</ele>
        <time>2020-03-15T07:19:37Z</time>
      </trkpt>
      <trkpt lat="38.2676440" lon="-0.7535750">
        <ele>157.6</ele>
        <time>2020-03-15T07:19:38Z</time>
      </trkpt>
      <trkpt lat="38.2676680" lon="-0.7536060">
        <ele>158.2</ele>
        <time>2020-03-15T07:19:39Z</time>
      </trkpt>
      <trkpt lat="38.2677370" lon="-0.7536940">
        <ele>158.4</ele>
        <time>2020-03-15T07:19:40Z</time>
      </trkpt>
      <trkpt lat="38.2677580" lon="-0.7537200">
        <ele>158.8</ele>
        <time>2020-03-15T07:19:41Z</time>
      </trkpt>
      <trkpt lat="38.2678280" lon="-0.7538050">
        <ele>159.2</ele>
        <time>2020-03-15T07:19:42Z</time>
      </trkpt>
      <trkpt lat="38.2678560" lon="-0.7538390">
        <ele>159.2</ele>
        <time>2020-03-15T07:19:43Z</time>
      </trkpt>
      <trkpt lat="38.2679120" lon="-0.7539060">
        <ele>159.4</ele>
        <time>2020-03-15T07:19:44Z</time>
      </trkpt>
      <trkpt lat="38.2679300" lon="-0.7539260">
        <ele>159.6</ele>
        <time>2020-03-15T07:19:45Z</time>
      </trkpt>
      <trkpt lat="38.2679480" lon="-0.7539470">
        <ele>159.8</ele>
        <time>2020-03-15T07:19:46Z</time>
      </trkpt>
      <trkpt lat="38.2680190" lon="-0.7540250">
        <ele>160.0</ele>
        <time>2020-03-15T07:19:47Z</time>
      </trkpt>
      <trkpt lat="38.2680540" lon="-0.7540660">
        <ele>160.2</ele>
        <time>2020-03-15T07:19:48Z</time>
      </trkpt>
      <trkpt lat="38.2680890" lon="-0.7541080">
        <ele>160.4</ele>
        <time>2020-03-15T07:19:49Z</time>
      </trkpt>
      <trkpt lat="38.2681060" lon="-0.7541270">
        <ele>160.4</ele>
        <time>2020-03-15T07:19:50Z</time>
      </trkpt>
      <trkpt lat="38.2681230" lon="-0.7541470">
        <ele>160.4</ele>
        <time>2020-03-15T07:19:51Z</time>
      </trkpt>
      <trkpt lat="38.2681900" lon="-0.7542340">
        <ele>160.6</ele>
        <time>2020-03-15T07:19:52Z</time>
      </trkpt>
      <trkpt lat="38.2682070" lon="-0.7542550">
        <ele>160.6</ele>
        <time>2020-03-15T07:19:53Z</time>
      </trkpt>
      <trkpt lat="38.2682240" lon="-0.7542760">
        <ele>160.8</ele>
        <time>2020-03-15T07:19:54Z</time>
      </trkpt>
      <trkpt lat="38.2682590" lon="-0.7543190">
        <ele>160.8</ele>
        <time>2020-03-15T07:19:55Z</time>
      </trkpt>
      <trkpt lat="38.2683290" lon="-0.7544150">
        <ele>160.8</ele>
        <time>2020-03-15T07:19:56Z</time>
      </trkpt>
      <trkpt lat="38.2683430" lon="-0.7544640">
        <ele>160.8</ele>
        <time>2020-03-15T07:19:57Z</time>
      </trkpt>
      <trkpt lat="38.2683560" lon="-0.7545130">
        <ele>160.6</ele>
        <time>2020-03-15T07:19:58Z</time>
      </trkpt>
      <trkpt lat="38.2683820" lon="-0.7546120">
        <ele>160.6</ele>
        <time>2020-03-15T07:19:59Z</time>
      </trkpt>
      <trkpt lat="38.2683860" lon="-0.7546480">
        <ele>160.6</ele>
        <time>2020-03-15T07:20:00Z</time>
      </trkpt>
      <trkpt lat="38.2683900" lon="-0.7546850">
        <ele>160.6</ele>
        <time>2020-03-15T07:20:01Z</time>
      </trkpt>
      <trkpt lat="38.2684180" lon="-0.7548360">
        <ele>160.6</ele>
        <time>2020-03-15T07:20:02Z</time>
      </trkpt>
      <trkpt lat="38.2684340" lon="-0.7549180">
        <ele>160.8</ele>
        <time>2020-03-15T07:20:03Z</time>
      </trkpt>
      <trkpt lat="38.2684430" lon="-0.7549620">
        <ele>160.8</ele>
        <time>2020-03-15T07:20:04Z</time>
      </trkpt>
      <trkpt lat="38.2684510" lon="-0.7550060">
        <ele>161.0</ele>
        <time>2020-03-15T07:20:05Z</time>
      </trkpt>
      <trkpt lat="38.2684990" lon="-0.7551850">
        <ele>161.0</ele>
        <time>2020-03-15T07:20:06Z</time>
      </trkpt>
      <trkpt lat="38.2685230" lon="-0.7552760">
        <ele>161.0</ele>
        <time>2020-03-15T07:20:07Z</time>
      </trkpt>
      <trkpt lat="38.2685340" lon="-0.7553220">
        <ele>161.0</ele>
        <time>2020-03-15T07:20:08Z</time>
      </trkpt>
      <trkpt lat="38.2685450" lon="-0.7553680">
        <ele>161.2</ele>
        <time>2020-03-15T07:20:09Z</time>
      </trkpt>
      <trkpt lat="38.2685880" lon="-0.7555440">
        <ele>161.2</ele>
        <time>2020-03-15T07:20:10Z</time>
      </trkpt>
      <trkpt lat="38.2685990" lon="-0.7555870">
        <ele>161.2</ele>
        <time>2020-03-15T07:20:11Z</time>
      </trkpt>
      <trkpt lat="38.2686100" lon="-0.7556310">
        <ele>161.4</ele>
        <time>2020-03-15T07:20:12Z</time>
      </trkpt>
      <trkpt lat="38.2686550" lon="-0.7557770">
        <ele>161.4</ele>
        <time>2020-03-15T07:20:13Z</time>
      </trkpt>
      <trkpt lat="38.2686780" lon="-0.7558360">
        <ele>161.6</ele>
        <time>2020-03-15T07:20:14Z</time>
      </trkpt>
      <trkpt lat="38.2687240" lon="-0.7559550">
        <ele>161.8</ele>
        <time>2020-03-15T07:20:15Z</time>
      </trkpt>
      <trkpt lat="38.2687690" lon="-0.7560180">
        <ele>162.0</ele>
        <time>2020-03-15T07:20:16Z</time>
      </trkpt>
      <trkpt lat="38.2688080" lon="-0.7560580">
        <ele>162.0</ele>
        <time>2020-03-15T07:20:17Z</time>
      </trkpt>
      <trkpt lat="38.2688460" lon="-0.7560990">
        <ele>162.0</ele>
        <time>2020-03-15T07:20:18Z</time>
      </trkpt>
      <trkpt lat="38.2689230" lon="-0.7561810">
        <ele>162.2</ele>
        <time>2020-03-15T07:20:19Z</time>
      </trkpt>
      <trkpt lat="38.2689770" lon="-0.7562310">
        <ele>162.4</ele>
        <time>2020-03-15T07:20:20Z</time>
      </trkpt>
      <trkpt lat="38.2690360" lon="-0.7562670">
        <ele>162.6</ele>
        <time>2020-03-15T07:20:21Z</time>
      </trkpt>
      <trkpt lat="38.2690680" lon="-0.7562790">
        <ele>162.6</ele>
        <time>2020-03-15T07:20:22Z</time>
      </trkpt>
      <trkpt lat="38.2691000" lon="-0.7562910">
        <ele>162.6</ele>
        <time>2020-03-15T07:20:23Z</time>
      </trkpt>
      <trkpt lat="38.2692120" lon="-0.7563220">
        <ele>162.8</ele>
        <time>2020-03-15T07:20:24Z</time>
      </trkpt>
      <trkpt lat="38.2692600" lon="-0.7563290">
        <ele>162.8</ele>
        <time>2020-03-15T07:20:25Z</time>
      </trkpt>
      <trkpt lat="38.2693550" lon="-0.7563430">
        <ele>163.0</ele>
        <time>2020-03-15T07:20:26Z</time>
      </trkpt>
      <trkpt lat="38.2694140" lon="-0.7563490">
        <ele>163.6</ele>
        <time>2020-03-15T07:20:27Z</time>
      </trkpt>
      <trkpt lat="38.2694690" lon="-0.7563510">
        <ele>163.6</ele>
        <time>2020-03-15T07:20:28Z</time>
      </trkpt>
      <trkpt lat="38.2695230" lon="-0.7563490">
        <ele>164.0</ele>
        <time>2020-03-15T07:20:29Z</time>
      </trkpt>
      <trkpt lat="38.2695780" lon="-0.7563450">
        <ele>164.2</ele>
        <time>2020-03-15T07:20:30Z</time>
      </trkpt>
      <trkpt lat="38.2696330" lon="-0.7563400">
        <ele>164.4</ele>
        <time>2020-03-15T07:20:31Z</time>
      </trkpt>
      <trkpt lat="38.2696870" lon="-0.7563360">
        <ele>164.4</ele>
        <time>2020-03-15T07:20:32Z</time>
      </trkpt>
      <trkpt lat="38.2697140" lon="-0.7563340">
        <ele>164.4</ele>
        <time>2020-03-15T07:20:33Z</time>
      </trkpt>
      <trkpt lat="38.2697400" lon="-0.7563320">
        <ele>164.6</ele>
        <time>2020-03-15T07:20:34Z</time>
      </trkpt>
      <trkpt lat="38.2698200" lon="-0.7563230">
        <ele>164.6</ele>
        <time>2020-03-15T07:20:35Z</time>
      </trkpt>
      <trkpt lat="38.2698470" lon="-0.7563170">
        <ele>164.8</ele>
        <time>2020-03-15T07:20:36Z</time>
      </trkpt>
      <trkpt lat="38.2699410" lon="-0.7562930">
        <ele>164.6</ele>
        <time>2020-03-15T07:20:37Z</time>
      </trkpt>
      <trkpt lat="38.2699810" lon="-0.7562800">
        <ele>164.6</ele>
        <time>2020-03-15T07:20:38Z</time>
      </trkpt>
      <trkpt lat="38.2700610" lon="-0.7562540">
        <ele>164.8</ele>
        <time>2020-03-15T07:20:39Z</time>
      </trkpt>
      <trkpt lat="38.2701120" lon="-0.7562260">
        <ele>164.8</ele>
        <time>2020-03-15T07:20:40Z</time>
      </trkpt>
      <trkpt lat="38.2701580" lon="-0.7561900">
        <ele>165.0</ele>
        <time>2020-03-15T07:20:41Z</time>
      </trkpt>
      <trkpt lat="38.2701960" lon="-0.7561610">
        <ele>165.0</ele>
        <time>2020-03-15T07:20:42Z</time>
      </trkpt>
      <trkpt lat="38.2702340" lon="-0.7561310">
        <ele>164.8</ele>
        <time>2020-03-15T07:20:43Z</time>
      </trkpt>
      <trkpt lat="38.2703100" lon="-0.7560720">
        <ele>164.8</ele>
        <time>2020-03-15T07:20:44Z</time>
      </trkpt>
      <trkpt lat="38.2703630" lon="-0.7560420">
        <ele>165.0</ele>
        <time>2020-03-15T07:20:45Z</time>
      </trkpt>
      <trkpt lat="38.2703900" lon="-0.7560300">
        <ele>165.0</ele>
        <time>2020-03-15T07:20:46Z</time>
      </trkpt>
      <trkpt lat="38.2704160" lon="-0.7560170">
        <ele>165.0</ele>
        <time>2020-03-15T07:20:47Z</time>
      </trkpt>
      <trkpt lat="38.2705070" lon="-0.7559680">
        <ele>165.2</ele>
        <time>2020-03-15T07:20:48Z</time>
      </trkpt>
      <trkpt lat="38.2705450" lon="-0.7559440">
        <ele>165.2</ele>
        <time>2020-03-15T07:20:49Z</time>
      </trkpt>
      <trkpt lat="38.2706200" lon="-0.7558970">
        <ele>165.4</ele>
        <time>2020-03-15T07:20:50Z</time>
      </trkpt>
      <trkpt lat="38.2706680" lon="-0.7558640">
        <ele>165.6</ele>
        <time>2020-03-15T07:20:51Z</time>
      </trkpt>
      <trkpt lat="38.2707170" lon="-0.7558270">
        <ele>165.6</ele>
        <time>2020-03-15T07:20:52Z</time>
      </trkpt>
      <trkpt lat="38.2707640" lon="-0.7557900">
        <ele>165.6</ele>
        <time>2020-03-15T07:20:53Z</time>
      </trkpt>
      <trkpt lat="38.2707990" lon="-0.7557640">
        <ele>165.8</ele>
        <time>2020-03-15T07:20:54Z</time>
      </trkpt>
      <trkpt lat="38.2708340" lon="-0.7557370">
        <ele>165.6</ele>
        <time>2020-03-15T07:20:55Z</time>
      </trkpt>
      <trkpt lat="38.2709040" lon="-0.7556830">
        <ele>165.8</ele>
        <time>2020-03-15T07:20:56Z</time>
      </trkpt>
      <trkpt lat="38.2709390" lon="-0.7556630">
        <ele>166.0</ele>
        <time>2020-03-15T07:20:57Z</time>
      </trkpt>
      <trkpt lat="38.2709730" lon="-0.7556420">
        <ele>166.2</ele>
        <time>2020-03-15T07:20:58Z</time>
      </trkpt>
      <trkpt lat="38.2710420" lon="-0.7556010">
        <ele>166.2</ele>
        <time>2020-03-15T07:20:59Z</time>
      </trkpt>
      <trkpt lat="38.2710870" lon="-0.7555850">
        <ele>166.4</ele>
        <time>2020-03-15T07:21:00Z</time>
      </trkpt>
      <trkpt lat="38.2711200" lon="-0.7555630">
        <ele>166.8</ele>
        <time>2020-03-15T07:21:01Z</time>
      </trkpt>
      <trkpt lat="38.2711560" lon="-0.7555580">
        <ele>167.2</ele>
        <time>2020-03-15T07:21:02Z</time>
      </trkpt>
      <trkpt lat="38.2711940" lon="-0.7555520">
        <ele>167.6</ele>
        <time>2020-03-15T07:21:03Z</time>
      </trkpt>
      <trkpt lat="38.2712140" lon="-0.7555470">
        <ele>168.0</ele>
        <time>2020-03-15T07:21:04Z</time>
      </trkpt>
      <trkpt lat="38.2712330" lon="-0.7555420">
        <ele>168.2</ele>
        <time>2020-03-15T07:21:05Z</time>
      </trkpt>
      <trkpt lat="38.2712730" lon="-0.7555260">
        <ele>168.6</ele>
        <time>2020-03-15T07:21:06Z</time>
      </trkpt>
      <trkpt lat="38.2713100" lon="-0.7555050">
        <ele>168.8</ele>
        <time>2020-03-15T07:21:07Z</time>
      </trkpt>
      <trkpt lat="38.2713780" lon="-0.7554500">
        <ele>169.0</ele>
        <time>2020-03-15T07:21:08Z</time>
      </trkpt>
      <trkpt lat="38.2714080" lon="-0.7554210">
        <ele>169.0</ele>
        <time>2020-03-15T07:21:09Z</time>
      </trkpt>
      <trkpt lat="38.2714410" lon="-0.7553940">
        <ele>169.4</ele>
        <time>2020-03-15T07:21:10Z</time>
      </trkpt>
      <trkpt lat="38.2714740" lon="-0.7553680">
        <ele>169.6</ele>
        <time>2020-03-15T07:21:11Z</time>
      </trkpt>
      <trkpt lat="38.2715070" lon="-0.7553420">
        <ele>169.8</ele>
        <time>2020-03-15T07:21:12Z</time>
      </trkpt>
      <trkpt lat="38.2715420" lon="-0.7553190">
        <ele>170.0</ele>
        <time>2020-03-15T07:21:13Z</time>
      </trkpt>
      <trkpt lat="38.2715750" lon="-0.7552960">
        <ele>170.4</ele>
        <time>2020-03-15T07:21:14Z</time>
      </trkpt>
      <trkpt lat="38.2716080" lon="-0.7552730">
        <ele>170.6</ele>
        <time>2020-03-15T07:21:15Z</time>
      </trkpt>
      <trkpt lat="38.2716410" lon="-0.7552510">
        <ele>170.8</ele>
        <time>2020-03-15T07:21:16Z</time>
      </trkpt>
      <trkpt lat="38.2716710" lon="-0.7552310">
        <ele>171.2</ele>
        <time>2020-03-15T07:21:17Z</time>
      </trkpt>
      <trkpt lat="38.2717010" lon="-0.7552110">
        <ele>171.4</ele>
        <time>2020-03-15T07:21:18Z</time>
      </trkpt>
      <trkpt lat="38.2717260" lon="-0.7551910">
        <ele>171.8</ele>
        <time>2020-03-15T07:21:19Z</time>
      </trkpt>
      <trkpt lat="38.2717510" lon="-0.7551700">
        <ele>172.2</ele>
        <time>2020-03-15T07:21:20Z</time>
      </trkpt>
      <trkpt lat="38.2717730" lon="-0.7551480">
        <ele>172.4</ele>
        <time>2020-03-15T07:21:21Z</time>
      </trkpt>
      <trkpt lat="38.2717960" lon="-0.7551240">
        <ele>172.8</ele>
        <time>2020-03-15T07:21:22Z</time>
      </trkpt>
      <trkpt lat="38.2718200" lon="-0.7551010">
        <ele>173.0</ele>
        <time>2020-03-15T07:21:23Z</time>
      </trkpt>
      <trkpt lat="38.2718450" lon="-0.7550800">
        <ele>173.4</ele>
        <time>2020-03-15T07:21:24Z</time>
      </trkpt>
      <trkpt lat="38.2718700" lon="-0.7550590">
        <ele>173.8</ele>
        <time>2020-03-15T07:21:25Z</time>
      </trkpt>
      <trkpt lat="38.2718950" lon="-0.7550370">
        <ele>174.2</ele>
        <time>2020-03-15T07:21:26Z</time>
      </trkpt>
      <trkpt lat="38.2719180" lon="-0.7550090">
        <ele>174.4</ele>
        <time>2020-03-15T07:21:27Z</time>
      </trkpt>
      <trkpt lat="38.2719400" lon="-0.7549830">
        <ele>174.4</ele>
        <time>2020-03-15T07:21:28Z</time>
      </trkpt>
      <trkpt lat="38.2719630" lon="-0.7549550">
        <ele>174.8</ele>
        <time>2020-03-15T07:21:29Z</time>
      </trkpt>
      <trkpt lat="38.2719830" lon="-0.7549230">
        <ele>175.2</ele>
        <time>2020-03-15T07:21:30Z</time>
      </trkpt>
      <trkpt lat="38.2720030" lon="-0.7548900">
        <ele>175.6</ele>
        <time>2020-03-15T07:21:31Z</time>
      </trkpt>
      <trkpt lat="38.2720230" lon="-0.7548620">
        <ele>175.8</ele>
        <time>2020-03-15T07:21:32Z</time>
      </trkpt>
      <trkpt lat="38.2720430" lon="-0.7548330">
        <ele>176.0</ele>
        <time>2020-03-15T07:21:33Z</time>
      </trkpt>
      <trkpt lat="38.2720680" lon="-0.7548080">
        <ele>176.4</ele>
        <time>2020-03-15T07:21:34Z</time>
      </trkpt>
      <trkpt lat="38.2720960" lon="-0.7547900">
        <ele>176.6</ele>
        <time>2020-03-15T07:21:35Z</time>
      </trkpt>
      <trkpt lat="38.2721240" lon="-0.7547720">
        <ele>176.8</ele>
        <time>2020-03-15T07:21:36Z</time>
      </trkpt>
      <trkpt lat="38.2721550" lon="-0.7547560">
        <ele>177.0</ele>
        <time>2020-03-15T07:21:37Z</time>
      </trkpt>
      <trkpt lat="38.2721890" lon="-0.7547470">
        <ele>177.2</ele>
        <time>2020-03-15T07:21:38Z</time>
      </trkpt>
      <trkpt lat="38.2722220" lon="-0.7547370">
        <ele>177.4</ele>
        <time>2020-03-15T07:21:39Z</time>
      </trkpt>
      <trkpt lat="38.2722570" lon="-0.7547320">
        <ele>177.6</ele>
        <time>2020-03-15T07:21:40Z</time>
      </trkpt>
      <trkpt lat="38.2722570" lon="-0.7547320">
        <ele>177.6</ele>
        <time>2020-03-15T07:21:41Z</time>
      </trkpt>
      <trkpt lat="38.2723320" lon="-0.7547320">
        <ele>178.0</ele>
        <time>2020-03-15T07:21:43Z</time>
      </trkpt>
      <trkpt lat="38.2724040" lon="-0.7547270">
        <ele>178.2</ele>
        <time>2020-03-15T07:21:44Z</time>
      </trkpt>
      <trkpt lat="38.2724360" lon="-0.7547340">
        <ele>178.6</ele>
        <time>2020-03-15T07:21:45Z</time>
      </trkpt>
      <trkpt lat="38.2724680" lon="-0.7547410">
        <ele>178.6</ele>
        <time>2020-03-15T07:21:46Z</time>
      </trkpt>
      <trkpt lat="38.2724990" lon="-0.7547450">
        <ele>178.8</ele>
        <time>2020-03-15T07:21:47Z</time>
      </trkpt>
      <trkpt lat="38.2725290" lon="-0.7547450">
        <ele>179.2</ele>
        <time>2020-03-15T07:21:48Z</time>
      </trkpt>
      <trkpt lat="38.2725580" lon="-0.7547460">
        <ele>179.4</ele>
        <time>2020-03-15T07:21:49Z</time>
      </trkpt>
      <trkpt lat="38.2725580" lon="-0.7547460">
        <ele>179.6</ele>
        <time>2020-03-15T07:21:50Z</time>
      </trkpt>
      <trkpt lat="38.2725840" lon="-0.7547460">
        <ele>180.0</ele>
        <time>2020-03-15T07:21:51Z</time>
      </trkpt>
      <trkpt lat="38.2726390" lon="-0.7547480">
        <ele>180.2</ele>
        <time>2020-03-15T07:21:52Z</time>
      </trkpt>
      <trkpt lat="38.2726710" lon="-0.7547430">
        <ele>180.2</ele>
        <time>2020-03-15T07:21:53Z</time>
      </trkpt>
      <trkpt lat="38.2727040" lon="-0.7547260">
        <ele>180.2</ele>
        <time>2020-03-15T07:21:54Z</time>
      </trkpt>
      <trkpt lat="38.2727330" lon="-0.7546960">
        <ele>180.2</ele>
        <time>2020-03-15T07:21:55Z</time>
      </trkpt>
      <trkpt lat="38.2727570" lon="-0.7546520">
        <ele>180.2</ele>
        <time>2020-03-15T07:21:56Z</time>
      </trkpt>
      <trkpt lat="38.2727740" lon="-0.7546070">
        <ele>180.4</ele>
        <time>2020-03-15T07:21:57Z</time>
      </trkpt>
      <trkpt lat="38.2727840" lon="-0.7545620">
        <ele>180.6</ele>
        <time>2020-03-15T07:21:58Z</time>
      </trkpt>
      <trkpt lat="38.2727870" lon="-0.7545170">
        <ele>180.8</ele>
        <time>2020-03-15T07:21:59Z</time>
      </trkpt>
      <trkpt lat="38.2727830" lon="-0.7544740">
        <ele>181.0</ele>
        <time>2020-03-15T07:22:00Z</time>
      </trkpt>
      <trkpt lat="38.2727780" lon="-0.7544310">
        <ele>181.2</ele>
        <time>2020-03-15T07:22:01Z</time>
      </trkpt>
      <trkpt lat="38.2727750" lon="-0.7543840">
        <ele>181.2</ele>
        <time>2020-03-15T07:22:02Z</time>
      </trkpt>
      <trkpt lat="38.2727730" lon="-0.7543270">
        <ele>180.8</ele>
        <time>2020-03-15T07:22:03Z</time>
      </trkpt>
      <trkpt lat="38.2727740" lon="-0.7542880">
        <ele>180.2</ele>
        <time>2020-03-15T07:22:04Z</time>
      </trkpt>
      <trkpt lat="38.2727740" lon="-0.7542480">
        <ele>179.4</ele>
        <time>2020-03-15T07:22:05Z</time>
      </trkpt>
      <trkpt lat="38.2727750" lon="-0.7540910">
        <ele>178.6</ele>
        <time>2020-03-15T07:22:06Z</time>
      </trkpt>
      <trkpt lat="38.2727750" lon="-0.7540120">
        <ele>177.6</ele>
        <time>2020-03-15T07:22:07Z</time>
      </trkpt>
      <trkpt lat="38.2727750" lon="-0.7538540">
        <ele>176.8</ele>
        <time>2020-03-15T07:22:08Z</time>
      </trkpt>
      <trkpt lat="38.2727770" lon="-0.7537460">
        <ele>176.2</ele>
        <time>2020-03-15T07:22:09Z</time>
      </trkpt>
      <trkpt lat="38.2727810" lon="-0.7536380">
        <ele>175.8</ele>
        <time>2020-03-15T07:22:10Z</time>
      </trkpt>
      <trkpt lat="38.2727860" lon="-0.7535870">
        <ele>175.4</ele>
        <time>2020-03-15T07:22:11Z</time>
      </trkpt>
      <trkpt lat="38.2727900" lon="-0.7535350">
        <ele>175.2</ele>
        <time>2020-03-15T07:22:12Z</time>
      </trkpt>
      <trkpt lat="38.2728090" lon="-0.7533670">
        <ele>175.6</ele>
        <time>2020-03-15T07:22:13Z</time>
      </trkpt>
      <trkpt lat="38.2728290" lon="-0.7532930">
        <ele>176.0</ele>
        <time>2020-03-15T07:22:14Z</time>
      </trkpt>
      <trkpt lat="38.2728510" lon="-0.7532270">
        <ele>176.4</ele>
        <time>2020-03-15T07:22:15Z</time>
      </trkpt>
      <trkpt lat="38.2728730" lon="-0.7531610">
        <ele>176.6</ele>
        <time>2020-03-15T07:22:16Z</time>
      </trkpt>
      <trkpt lat="38.2729000" lon="-0.7531020">
        <ele>176.8</ele>
        <time>2020-03-15T07:22:17Z</time>
      </trkpt>
      <trkpt lat="38.2729250" lon="-0.7530410">
        <ele>177.0</ele>
        <time>2020-03-15T07:22:18Z</time>
      </trkpt>
      <trkpt lat="38.2729510" lon="-0.7529900">
        <ele>177.2</ele>
        <time>2020-03-15T07:22:19Z</time>
      </trkpt>
      <trkpt lat="38.2729760" lon="-0.7529380">
        <ele>177.4</ele>
        <time>2020-03-15T07:22:20Z</time>
      </trkpt>
      <trkpt lat="38.2729970" lon="-0.7529010">
        <ele>177.8</ele>
        <time>2020-03-15T07:22:21Z</time>
      </trkpt>
      <trkpt lat="38.2730180" lon="-0.7528630">
        <ele>178.2</ele>
        <time>2020-03-15T07:22:22Z</time>
      </trkpt>
      <trkpt lat="38.2730380" lon="-0.7528340">
        <ele>178.8</ele>
        <time>2020-03-15T07:22:23Z</time>
      </trkpt>
      <trkpt lat="38.2730570" lon="-0.7528040">
        <ele>179.2</ele>
        <time>2020-03-15T07:22:24Z</time>
      </trkpt>
      <trkpt lat="38.2730570" lon="-0.7528040">
        <ele>179.6</ele>
        <time>2020-03-15T07:22:25Z</time>
      </trkpt>
      <trkpt lat="38.2730820" lon="-0.7527830">
        <ele>179.8</ele>
        <time>2020-03-15T07:22:26Z</time>
      </trkpt>
      <trkpt lat="38.2731370" lon="-0.7527570">
        <ele>180.2</ele>
        <time>2020-03-15T07:22:27Z</time>
      </trkpt>
      <trkpt lat="38.2731700" lon="-0.7527490">
        <ele>180.2</ele>
        <time>2020-03-15T07:22:28Z</time>
      </trkpt>
      <trkpt lat="38.2732030" lon="-0.7527450">
        <ele>180.4</ele>
        <time>2020-03-15T07:22:29Z</time>
      </trkpt>
      <trkpt lat="38.2732370" lon="-0.7527450">
        <ele>180.6</ele>
        <time>2020-03-15T07:22:30Z</time>
      </trkpt>
      <trkpt lat="38.2732710" lon="-0.7527480">
        <ele>180.8</ele>
        <time>2020-03-15T07:22:31Z</time>
      </trkpt>
      <trkpt lat="38.2733030" lon="-0.7527540">
        <ele>181.0</ele>
        <time>2020-03-15T07:22:32Z</time>
      </trkpt>
      <trkpt lat="38.2733360" lon="-0.7527550">
        <ele>181.2</ele>
        <time>2020-03-15T07:22:33Z</time>
      </trkpt>
      <trkpt lat="38.2733700" lon="-0.7527630">
        <ele>181.2</ele>
        <time>2020-03-15T07:22:34Z</time>
      </trkpt>
      <trkpt lat="38.2733990" lon="-0.7527710">
        <ele>181.6</ele>
        <time>2020-03-15T07:22:35Z</time>
      </trkpt>
      <trkpt lat="38.2734340" lon="-0.7527840">
        <ele>181.6</ele>
        <time>2020-03-15T07:22:36Z</time>
      </trkpt>
      <trkpt lat="38.2734690" lon="-0.7527970">
        <ele>181.6</ele>
        <time>2020-03-15T07:22:37Z</time>
      </trkpt>
      <trkpt lat="38.2735100" lon="-0.7528070">
        <ele>181.4</ele>
        <time>2020-03-15T07:22:38Z</time>
      </trkpt>
      <trkpt lat="38.2735570" lon="-0.7528190">
        <ele>181.2</ele>
        <time>2020-03-15T07:22:39Z</time>
      </trkpt>
      <trkpt lat="38.2736100" lon="-0.7528320">
        <ele>181.0</ele>
        <time>2020-03-15T07:22:40Z</time>
      </trkpt>
      <trkpt lat="38.2736660" lon="-0.7528450">
        <ele>180.6</ele>
        <time>2020-03-15T07:22:41Z</time>
      </trkpt>
      <trkpt lat="38.2737240" lon="-0.7528640">
        <ele>180.2</ele>
        <time>2020-03-15T07:22:42Z</time>
      </trkpt>
      <trkpt lat="38.2737700" lon="-0.7528780">
        <ele>180.0</ele>
        <time>2020-03-15T07:22:43Z</time>
      </trkpt>
      <trkpt lat="38.2738160" lon="-0.7528920">
        <ele>180.0</ele>
        <time>2020-03-15T07:22:44Z</time>
      </trkpt>
      <trkpt lat="38.2739080" lon="-0.7529210">
        <ele>179.8</ele>
        <time>2020-03-15T07:22:45Z</time>
      </trkpt>
      <trkpt lat="38.2739720" lon="-0.7529330">
        <ele>179.8</ele>
        <time>2020-03-15T07:22:46Z</time>
      </trkpt>
      <trkpt lat="38.2740050" lon="-0.7529360">
        <ele>179.6</ele>
        <time>2020-03-15T07:22:47Z</time>
      </trkpt>
      <trkpt lat="38.2740380" lon="-0.7529390">
        <ele>179.2</ele>
        <time>2020-03-15T07:22:48Z</time>
      </trkpt>
      <trkpt lat="38.2741530" lon="-0.7529540">
        <ele>178.8</ele>
        <time>2020-03-15T07:22:49Z</time>
      </trkpt>
      <trkpt lat="38.2742010" lon="-0.7529630">
        <ele>179.0</ele>
        <time>2020-03-15T07:22:50Z</time>
      </trkpt>
      <trkpt lat="38.2742970" lon="-0.7529810">
        <ele>179.6</ele>
        <time>2020-03-15T07:22:51Z</time>
      </trkpt>
      <trkpt lat="38.2743190" lon="-0.7529860">
        <ele>180.4</ele>
        <time>2020-03-15T07:22:52Z</time>
      </trkpt>
      <trkpt lat="38.2743410" lon="-0.7529920">
        <ele>181.2</ele>
        <time>2020-03-15T07:22:53Z</time>
      </trkpt>
      <trkpt lat="38.2744030" lon="-0.7530040">
        <ele>181.6</ele>
        <time>2020-03-15T07:22:54Z</time>
      </trkpt>
      <trkpt lat="38.2744270" lon="-0.7530060">
        <ele>182.2</ele>
        <time>2020-03-15T07:22:55Z</time>
      </trkpt>
      <trkpt lat="38.2744500" lon="-0.7530090">
        <ele>182.6</ele>
        <time>2020-03-15T07:22:56Z</time>
      </trkpt>
      <trkpt lat="38.2744710" lon="-0.7530130">
        <ele>182.8</ele>
        <time>2020-03-15T07:22:57Z</time>
      </trkpt>
      <trkpt lat="38.2744930" lon="-0.7530190">
        <ele>183.2</ele>
        <time>2020-03-15T07:22:58Z</time>
      </trkpt>
      <trkpt lat="38.2745160" lon="-0.7530240">
        <ele>183.4</ele>
        <time>2020-03-15T07:22:59Z</time>
      </trkpt>
      <trkpt lat="38.2745430" lon="-0.7530310">
        <ele>183.8</ele>
        <time>2020-03-15T07:23:00Z</time>
      </trkpt>
      <trkpt lat="38.2745690" lon="-0.7530390">
        <ele>184.2</ele>
        <time>2020-03-15T07:23:01Z</time>
      </trkpt>
      <trkpt lat="38.2745960" lon="-0.7530510">
        <ele>184.4</ele>
        <time>2020-03-15T07:23:02Z</time>
      </trkpt>
      <trkpt lat="38.2746230" lon="-0.7530630">
        <ele>184.6</ele>
        <time>2020-03-15T07:23:03Z</time>
      </trkpt>
      <trkpt lat="38.2746500" lon="-0.7530740">
        <ele>184.8</ele>
        <time>2020-03-15T07:23:04Z</time>
      </trkpt>
      <trkpt lat="38.2746760" lon="-0.7530880">
        <ele>185.0</ele>
        <time>2020-03-15T07:23:05Z</time>
      </trkpt>
      <trkpt lat="38.2747010" lon="-0.7531030">
        <ele>185.4</ele>
        <time>2020-03-15T07:23:06Z</time>
      </trkpt>
      <trkpt lat="38.2747300" lon="-0.7531080">
        <ele>185.6</ele>
        <time>2020-03-15T07:23:07Z</time>
      </trkpt>
      <trkpt lat="38.2747580" lon="-0.7531130">
        <ele>185.8</ele>
        <time>2020-03-15T07:23:08Z</time>
      </trkpt>
      <trkpt lat="38.2747840" lon="-0.7531150">
        <ele>186.0</ele>
        <time>2020-03-15T07:23:09Z</time>
      </trkpt>
      <trkpt lat="38.2748100" lon="-0.7531170">
        <ele>186.4</ele>
        <time>2020-03-15T07:23:10Z</time>
      </trkpt>
      <trkpt lat="38.2748330" lon="-0.7531140">
        <ele>186.8</ele>
        <time>2020-03-15T07:23:11Z</time>
      </trkpt>
      <trkpt lat="38.2748550" lon="-0.7531110">
        <ele>187.2</ele>
        <time>2020-03-15T07:23:12Z</time>
      </trkpt>
      <trkpt lat="38.2748780" lon="-0.7531040">
        <ele>187.6</ele>
        <time>2020-03-15T07:23:13Z</time>
      </trkpt>
      <trkpt lat="38.2749020" lon="-0.7530960">
        <ele>188.0</ele>
        <time>2020-03-15T07:23:14Z</time>
      </trkpt>
      <trkpt lat="38.2749020" lon="-0.7530960">
        <ele>188.4</ele>
        <time>2020-03-15T07:23:15Z</time>
      </trkpt>
      <trkpt lat="38.2749220" lon="-0.7530840">
        <ele>188.6</ele>
        <time>2020-03-15T07:23:16Z</time>
      </trkpt>
      <trkpt lat="38.2749710" lon="-0.7530630">
        <ele>188.8</ele>
        <time>2020-03-15T07:23:17Z</time>
      </trkpt>
      <trkpt lat="38.2749960" lon="-0.7530540">
        <ele>189.0</ele>
        <time>2020-03-15T07:23:18Z</time>
      </trkpt>
      <trkpt lat="38.2750220" lon="-0.7530460">
        <ele>189.2</ele>
        <time>2020-03-15T07:23:19Z</time>
      </trkpt>
      <trkpt lat="38.2750220" lon="-0.7530460">
        <ele>189.6</ele>
        <time>2020-03-15T07:23:20Z</time>
      </trkpt>
      <trkpt lat="38.2750490" lon="-0.7530410">
        <ele>189.8</ele>
        <time>2020-03-15T07:23:21Z</time>
      </trkpt>
      <trkpt lat="38.2750980" lon="-0.7530360">
        <ele>190.0</ele>
        <time>2020-03-15T07:23:22Z</time>
      </trkpt>
      <trkpt lat="38.2751250" lon="-0.7530350">
        <ele>190.2</ele>
        <time>2020-03-15T07:23:23Z</time>
      </trkpt>
      <trkpt lat="38.2751520" lon="-0.7530330">
        <ele>190.4</ele>
        <time>2020-03-15T07:23:24Z</time>
      </trkpt>
      <trkpt lat="38.2751520" lon="-0.7530330">
        <ele>190.8</ele>
        <time>2020-03-15T07:23:25Z</time>
      </trkpt>
      <trkpt lat="38.2751780" lon="-0.7530340">
        <ele>191.2</ele>
        <time>2020-03-15T07:23:26Z</time>
      </trkpt>
      <trkpt lat="38.2752310" lon="-0.7530300">
        <ele>191.4</ele>
        <time>2020-03-15T07:23:27Z</time>
      </trkpt>
      <trkpt lat="38.2752560" lon="-0.7530280">
        <ele>191.6</ele>
        <time>2020-03-15T07:23:28Z</time>
      </trkpt>
      <trkpt lat="38.2752820" lon="-0.7530260">
        <ele>191.8</ele>
        <time>2020-03-15T07:23:29Z</time>
      </trkpt>
      <trkpt lat="38.2753070" lon="-0.7530240">
        <ele>191.8</ele>
        <time>2020-03-15T07:23:30Z</time>
      </trkpt>
      <trkpt lat="38.2753340" lon="-0.7530190">
        <ele>192.0</ele>
        <time>2020-03-15T07:23:31Z</time>
      </trkpt>
      <trkpt lat="38.2753620" lon="-0.7530140">
        <ele>192.2</ele>
        <time>2020-03-15T07:23:32Z</time>
      </trkpt>
      <trkpt lat="38.2753890" lon="-0.7530090">
        <ele>192.4</ele>
        <time>2020-03-15T07:23:33Z</time>
      </trkpt>
      <trkpt lat="38.2754180" lon="-0.7529940">
        <ele>192.6</ele>
        <time>2020-03-15T07:23:34Z</time>
      </trkpt>
      <trkpt lat="38.2754460" lon="-0.7529760">
        <ele>192.8</ele>
        <time>2020-03-15T07:23:35Z</time>
      </trkpt>
      <trkpt lat="38.2754740" lon="-0.7529580">
        <ele>192.8</ele>
        <time>2020-03-15T07:23:36Z</time>
      </trkpt>
      <trkpt lat="38.2755030" lon="-0.7529400">
        <ele>192.8</ele>
        <time>2020-03-15T07:23:37Z</time>
      </trkpt>
      <trkpt lat="38.2755030" lon="-0.7529400">
        <ele>193.0</ele>
        <time>2020-03-15T07:23:38Z</time>
      </trkpt>
      <trkpt lat="38.2755310" lon="-0.7529250">
        <ele>193.0</ele>
        <time>2020-03-15T07:23:39Z</time>
      </trkpt>
      <trkpt lat="38.2755900" lon="-0.7529100">
        <ele>193.4</ele>
        <time>2020-03-15T07:23:40Z</time>
      </trkpt>
      <trkpt lat="38.2756180" lon="-0.7529070">
        <ele>193.6</ele>
        <time>2020-03-15T07:23:41Z</time>
      </trkpt>
      <trkpt lat="38.2756180" lon="-0.7529070">
        <ele>193.8</ele>
        <time>2020-03-15T07:23:42Z</time>
      </trkpt>
      <trkpt lat="38.2756450" lon="-0.7529070">
        <ele>194.2</ele>
        <time>2020-03-15T07:23:43Z</time>
      </trkpt>
      <trkpt lat="38.2756730" lon="-0.7529070">
        <ele>194.4</ele>
        <time>2020-03-15T07:23:44Z</time>
      </trkpt>
      <trkpt lat="38.2757210" lon="-0.7529180">
        <ele>194.6</ele>
        <time>2020-03-15T07:23:45Z</time>
      </trkpt>
      <trkpt lat="38.2757430" lon="-0.7529310">
        <ele>195.0</ele>
        <time>2020-03-15T07:23:46Z</time>
      </trkpt>
      <trkpt lat="38.2757640" lon="-0.7529450">
        <ele>195.2</ele>
        <time>2020-03-15T07:23:47Z</time>
      </trkpt>
      <trkpt lat="38.2757840" lon="-0.7529610">
        <ele>195.6</ele>
        <time>2020-03-15T07:23:48Z</time>
      </trkpt>
      <trkpt lat="38.2758030" lon="-0.7529820">
        <ele>195.8</ele>
        <time>2020-03-15T07:23:49Z</time>
      </trkpt>
      <trkpt lat="38.2758220" lon="-0.7530040">
        <ele>196.0</ele>
        <time>2020-03-15T07:23:50Z</time>
      </trkpt>
      <trkpt lat="38.2758220" lon="-0.7530040">
        <ele>196.2</ele>
        <time>2020-03-15T07:23:51Z</time>
      </trkpt>
      <trkpt lat="38.2758360" lon="-0.7530250">
        <ele>196.4</ele>
        <time>2020-03-15T07:23:52Z</time>
      </trkpt>
      <trkpt lat="38.2758600" lon="-0.7530860">
        <ele>196.4</ele>
        <time>2020-03-15T07:23:53Z</time>
      </trkpt>
      <trkpt lat="38.2758760" lon="-0.7531120">
        <ele>196.8</ele>
        <time>2020-03-15T07:23:54Z</time>
      </trkpt>
      <trkpt lat="38.2758910" lon="-0.7531380">
        <ele>197.0</ele>
        <time>2020-03-15T07:23:55Z</time>
      </trkpt>
      <trkpt lat="38.2759100" lon="-0.7531580">
        <ele>197.2</ele>
        <time>2020-03-15T07:23:56Z</time>
      </trkpt>
      <trkpt lat="38.2759330" lon="-0.7531730">
        <ele>197.6</ele>
        <time>2020-03-15T07:23:57Z</time>
      </trkpt>
      <trkpt lat="38.2759550" lon="-0.7531870">
        <ele>197.8</ele>
        <time>2020-03-15T07:23:58Z</time>
      </trkpt>
      <trkpt lat="38.2759760" lon="-0.7532020">
        <ele>198.2</ele>
        <time>2020-03-15T07:23:59Z</time>
      </trkpt>
      <trkpt lat="38.2759980" lon="-0.7532170">
        <ele>198.6</ele>
        <time>2020-03-15T07:24:00Z</time>
      </trkpt>
      <trkpt lat="38.2760220" lon="-0.7532240">
        <ele>198.8</ele>
        <time>2020-03-15T07:24:01Z</time>
      </trkpt>
      <trkpt lat="38.2760450" lon="-0.7532310">
        <ele>198.8</ele>
        <time>2020-03-15T07:24:02Z</time>
      </trkpt>
      <trkpt lat="38.2760730" lon="-0.7532310">
        <ele>199.2</ele>
        <time>2020-03-15T07:24:03Z</time>
      </trkpt>
      <trkpt lat="38.2761010" lon="-0.7532300">
        <ele>199.2</ele>
        <time>2020-03-15T07:24:04Z</time>
      </trkpt>
      <trkpt lat="38.2761290" lon="-0.7532270">
        <ele>199.6</ele>
        <time>2020-03-15T07:24:05Z</time>
      </trkpt>
      <trkpt lat="38.2761580" lon="-0.7532240">
        <ele>199.8</ele>
        <time>2020-03-15T07:24:06Z</time>
      </trkpt>
      <trkpt lat="38.2761870" lon="-0.7532200">
        <ele>200.0</ele>
        <time>2020-03-15T07:24:07Z</time>
      </trkpt>
      <trkpt lat="38.2762160" lon="-0.7532120">
        <ele>200.2</ele>
        <time>2020-03-15T07:24:08Z</time>
      </trkpt>
      <trkpt lat="38.2762440" lon="-0.7532040">
        <ele>200.4</ele>
        <time>2020-03-15T07:24:09Z</time>
      </trkpt>
      <trkpt lat="38.2762710" lon="-0.7531980">
        <ele>200.4</ele>
        <time>2020-03-15T07:24:10Z</time>
      </trkpt>
      <trkpt lat="38.2762980" lon="-0.7531910">
        <ele>200.6</ele>
        <time>2020-03-15T07:24:11Z</time>
      </trkpt>
      <trkpt lat="38.2763250" lon="-0.7531840">
        <ele>201.0</ele>
        <time>2020-03-15T07:24:12Z</time>
      </trkpt>
      <trkpt lat="38.2763510" lon="-0.7531780">
        <ele>201.2</ele>
        <time>2020-03-15T07:24:13Z</time>
      </trkpt>
      <trkpt lat="38.2763760" lon="-0.7531730">
        <ele>201.2</ele>
        <time>2020-03-15T07:24:14Z</time>
      </trkpt>
      <trkpt lat="38.2764020" lon="-0.7531650">
        <ele>201.6</ele>
        <time>2020-03-15T07:24:15Z</time>
      </trkpt>
      <trkpt lat="38.2764020" lon="-0.7531650">
        <ele>201.8</ele>
        <time>2020-03-15T07:24:16Z</time>
      </trkpt>
      <trkpt lat="38.2764260" lon="-0.7531570">
        <ele>202.2</ele>
        <time>2020-03-15T07:24:17Z</time>
      </trkpt>
      <trkpt lat="38.2764500" lon="-0.7531500">
        <ele>202.2</ele>
        <time>2020-03-15T07:24:18Z</time>
      </trkpt>
      <trkpt lat="38.2765010" lon="-0.7531360">
        <ele>202.6</ele>
        <time>2020-03-15T07:24:19Z</time>
      </trkpt>
      <trkpt lat="38.2765250" lon="-0.7531300">
        <ele>202.6</ele>
        <time>2020-03-15T07:24:20Z</time>
      </trkpt>
      <trkpt lat="38.2765490" lon="-0.7531260">
        <ele>203.0</ele>
        <time>2020-03-15T07:24:21Z</time>
      </trkpt>
      <trkpt lat="38.2765730" lon="-0.7531200">
        <ele>203.0</ele>
        <time>2020-03-15T07:24:22Z</time>
      </trkpt>
      <trkpt lat="38.2765970" lon="-0.7531150">
        <ele>203.4</ele>
        <time>2020-03-15T07:24:23Z</time>
      </trkpt>
      <trkpt lat="38.2766210" lon="-0.7531100">
        <ele>203.6</ele>
        <time>2020-03-15T07:24:24Z</time>
      </trkpt>
      <trkpt lat="38.2766460" lon="-0.7531020">
        <ele>203.8</ele>
        <time>2020-03-15T07:24:25Z</time>
      </trkpt>
      <trkpt lat="38.2766460" lon="-0.7531020">
        <ele>204.0</ele>
        <time>2020-03-15T07:24:26Z</time>
      </trkpt>
      <trkpt lat="38.2766700" lon="-0.7530960">
        <ele>204.4</ele>
        <time>2020-03-15T07:24:27Z</time>
      </trkpt>
      <trkpt lat="38.2767210" lon="-0.7530870">
        <ele>204.6</ele>
        <time>2020-03-15T07:24:28Z</time>
      </trkpt>
      <trkpt lat="38.2767480" lon="-0.7530790">
        <ele>204.8</ele>
        <time>2020-03-15T07:24:29Z</time>
      </trkpt>
      <trkpt lat="38.2767740" lon="-0.7530730">
        <ele>205.0</ele>
        <time>2020-03-15T07:24:30Z</time>
      </trkpt>
      <trkpt lat="38.2767980" lon="-0.7530660">
        <ele>205.2</ele>
        <time>2020-03-15T07:24:31Z</time>
      </trkpt>
      <trkpt lat="38.2767980" lon="-0.7530660">
        <ele>205.4</ele>
        <time>2020-03-15T07:24:32Z</time>
      </trkpt>
      <trkpt lat="38.2768210" lon="-0.7530590">
        <ele>205.6</ele>
        <time>2020-03-15T07:24:33Z</time>
      </trkpt>
      <trkpt lat="38.2768470" lon="-0.7530500">
        <ele>206.0</ele>
        <time>2020-03-15T07:24:34Z</time>
      </trkpt>
      <trkpt lat="38.2768730" lon="-0.7530430">
        <ele>206.0</ele>
        <time>2020-03-15T07:24:35Z</time>
      </trkpt>
      <trkpt lat="38.2768980" lon="-0.7530360">
        <ele>206.2</ele>
        <time>2020-03-15T07:24:36Z</time>
      </trkpt>
      <trkpt lat="38.2769460" lon="-0.7530280">
        <ele>206.6</ele>
        <time>2020-03-15T07:24:37Z</time>
      </trkpt>
      <trkpt lat="38.2769720" lon="-0.7530240">
        <ele>206.8</ele>
        <time>2020-03-15T07:24:38Z</time>
      </trkpt>
      <trkpt lat="38.2769980" lon="-0.7530220">
        <ele>207.0</ele>
        <time>2020-03-15T07:24:39Z</time>
      </trkpt>
      <trkpt lat="38.2770240" lon="-0.7530200">
        <ele>207.2</ele>
        <time>2020-03-15T07:24:40Z</time>
      </trkpt>
      <trkpt lat="38.2770510" lon="-0.7530200">
        <ele>207.4</ele>
        <time>2020-03-15T07:24:41Z</time>
      </trkpt>
      <trkpt lat="38.2770770" lon="-0.7530230">
        <ele>207.4</ele>
        <time>2020-03-15T07:24:42Z</time>
      </trkpt>
      <trkpt lat="38.2771040" lon="-0.7530240">
        <ele>207.6</ele>
        <time>2020-03-15T07:24:43Z</time>
      </trkpt>
      <trkpt lat="38.2771310" lon="-0.7530260">
        <ele>208.0</ele>
        <time>2020-03-15T07:24:44Z</time>
      </trkpt>
      <trkpt lat="38.2771580" lon="-0.7530290">
        <ele>208.4</ele>
        <time>2020-03-15T07:24:45Z</time>
      </trkpt>
      <trkpt lat="38.2771840" lon="-0.7530330">
        <ele>208.8</ele>
        <time>2020-03-15T07:24:46Z</time>
      </trkpt>
      <trkpt lat="38.2772070" lon="-0.7530410">
        <ele>209.2</ele>
        <time>2020-03-15T07:24:47Z</time>
      </trkpt>
      <trkpt lat="38.2772290" lon="-0.7530510">
        <ele>209.2</ele>
        <time>2020-03-15T07:24:48Z</time>
      </trkpt>
      <trkpt lat="38.2772510" lon="-0.7530610">
        <ele>209.4</ele>
        <time>2020-03-15T07:24:49Z</time>
      </trkpt>
      <trkpt lat="38.2772720" lon="-0.7530710">
        <ele>209.8</ele>
        <time>2020-03-15T07:24:50Z</time>
      </trkpt>
      <trkpt lat="38.2773120" lon="-0.7530790">
        <ele>210.2</ele>
        <time>2020-03-15T07:24:52Z</time>
      </trkpt>
      <trkpt lat="38.2773350" lon="-0.7530830">
        <ele>210.6</ele>
        <time>2020-03-15T07:24:53Z</time>
      </trkpt>
      <trkpt lat="38.2773590" lon="-0.7530840">
        <ele>210.8</ele>
        <time>2020-03-15T07:24:54Z</time>
      </trkpt>
      <trkpt lat="38.2773820" lon="-0.7530880">
        <ele>211.2</ele>
        <time>2020-03-15T07:24:55Z</time>
      </trkpt>
      <trkpt lat="38.2774090" lon="-0.7530890">
        <ele>211.4</ele>
        <time>2020-03-15T07:24:56Z</time>
      </trkpt>
      <trkpt lat="38.2774370" lon="-0.7530880">
        <ele>211.6</ele>
        <time>2020-03-15T07:24:57Z</time>
      </trkpt>
      <trkpt lat="38.2774650" lon="-0.7530870">
        <ele>211.8</ele>
        <time>2020-03-15T07:24:58Z</time>
      </trkpt>
      <trkpt lat="38.2774930" lon="-0.7530860">
        <ele>211.8</ele>
        <time>2020-03-15T07:24:59Z</time>
      </trkpt>
      <trkpt lat="38.2775220" lon="-0.7530840">
        <ele>212.0</ele>
        <time>2020-03-15T07:25:00Z</time>
      </trkpt>
      <trkpt lat="38.2775510" lon="-0.7530760">
        <ele>212.2</ele>
        <time>2020-03-15T07:25:01Z</time>
      </trkpt>
      <trkpt lat="38.2775810" lon="-0.7530680">
        <ele>212.2</ele>
        <time>2020-03-15T07:25:02Z</time>
      </trkpt>
      <trkpt lat="38.2776110" lon="-0.7530630">
        <ele>212.4</ele>
        <time>2020-03-15T07:25:03Z</time>
      </trkpt>
      <trkpt lat="38.2776390" lon="-0.7530610">
        <ele>212.6</ele>
        <time>2020-03-15T07:25:04Z</time>
      </trkpt>
      <trkpt lat="38.2776700" lon="-0.7530610">
        <ele>212.8</ele>
        <time>2020-03-15T07:25:05Z</time>
      </trkpt>
      <trkpt lat="38.2776990" lon="-0.7530550">
        <ele>213.0</ele>
        <time>2020-03-15T07:25:06Z</time>
      </trkpt>
      <trkpt lat="38.2777270" lon="-0.7530480">
        <ele>213.0</ele>
        <time>2020-03-15T07:25:07Z</time>
      </trkpt>
      <trkpt lat="38.2777570" lon="-0.7530390">
        <ele>213.2</ele>
        <time>2020-03-15T07:25:08Z</time>
      </trkpt>
      <trkpt lat="38.2777870" lon="-0.7530310">
        <ele>213.4</ele>
        <time>2020-03-15T07:25:09Z</time>
      </trkpt>
      <trkpt lat="38.2778170" lon="-0.7530230">
        <ele>213.8</ele>
        <time>2020-03-15T07:25:10Z</time>
      </trkpt>
      <trkpt lat="38.2778470" lon="-0.7530170">
        <ele>214.0</ele>
        <time>2020-03-15T07:25:11Z</time>
      </trkpt>
      <trkpt lat="38.2778760" lon="-0.7530110">
        <ele>214.2</ele>
        <time>2020-03-15T07:25:12Z</time>
      </trkpt>
      <trkpt lat="38.2779070" lon="-0.7530050">
        <ele>214.4</ele>
        <time>2020-03-15T07:25:13Z</time>
      </trkpt>
      <trkpt lat="38.2779380" lon="-0.7529990">
        <ele>214.6</ele>
        <time>2020-03-15T07:25:14Z</time>
      </trkpt>
      <trkpt lat="38.2779690" lon="-0.7529930">
        <ele>214.6</ele>
        <time>2020-03-15T07:25:15Z</time>
      </trkpt>
      <trkpt lat="38.2780010" lon="-0.7529840">
        <ele>215.0</ele>
        <time>2020-03-15T07:25:16Z</time>
      </trkpt>
      <trkpt lat="38.2780330" lon="-0.7529770">
        <ele>215.0</ele>
        <time>2020-03-15T07:25:17Z</time>
      </trkpt>
      <trkpt lat="38.2780660" lon="-0.7529700">
        <ele>215.2</ele>
        <time>2020-03-15T07:25:18Z</time>
      </trkpt>
      <trkpt lat="38.2780990" lon="-0.7529660">
        <ele>215.4</ele>
        <time>2020-03-15T07:25:19Z</time>
      </trkpt>
      <trkpt lat="38.2781310" lon="-0.7529610">
        <ele>215.4</ele>
        <time>2020-03-15T07:25:20Z</time>
      </trkpt>
      <trkpt lat="38.2781640" lon="-0.7529600">
        <ele>215.6</ele>
        <time>2020-03-15T07:25:21Z</time>
      </trkpt>
      <trkpt lat="38.2781640" lon="-0.7529600">
        <ele>215.8</ele>
        <time>2020-03-15T07:25:22Z</time>
      </trkpt>
      <trkpt lat="38.2781970" lon="-0.7529640">
        <ele>216.2</ele>
        <time>2020-03-15T07:25:23Z</time>
      </trkpt>
      <trkpt lat="38.2782280" lon="-0.7529670">
        <ele>216.2</ele>
        <time>2020-03-15T07:25:24Z</time>
      </trkpt>
      <trkpt lat="38.2782920" lon="-0.7529640">
        <ele>216.6</ele>
        <time>2020-03-15T07:25:25Z</time>
      </trkpt>
      <trkpt lat="38.2783240" lon="-0.7529640">
        <ele>216.6</ele>
        <time>2020-03-15T07:25:26Z</time>
      </trkpt>
      <trkpt lat="38.2783550" lon="-0.7529600">
        <ele>216.8</ele>
        <time>2020-03-15T07:25:27Z</time>
      </trkpt>
      <trkpt lat="38.2783900" lon="-0.7529530">
        <ele>217.0</ele>
        <time>2020-03-15T07:25:28Z</time>
      </trkpt>
      <trkpt lat="38.2784230" lon="-0.7529460">
        <ele>217.2</ele>
        <time>2020-03-15T07:25:29Z</time>
      </trkpt>
      <trkpt lat="38.2784520" lon="-0.7529360">
        <ele>217.2</ele>
        <time>2020-03-15T07:25:30Z</time>
      </trkpt>
      <trkpt lat="38.2784830" lon="-0.7529240">
        <ele>217.4</ele>
        <time>2020-03-15T07:25:31Z</time>
      </trkpt>
      <trkpt lat="38.2785130" lon="-0.7529110">
        <ele>217.6</ele>
        <time>2020-03-15T07:25:32Z</time>
      </trkpt>
      <trkpt lat="38.2785430" lon="-0.7528950">
        <ele>217.8</ele>
        <time>2020-03-15T07:25:33Z</time>
      </trkpt>
      <trkpt lat="38.2785740" lon="-0.7528770">
        <ele>217.8</ele>
        <time>2020-03-15T07:25:34Z</time>
      </trkpt>
      <trkpt lat="38.2786050" lon="-0.7528590">
        <ele>218.0</ele>
        <time>2020-03-15T07:25:35Z</time>
      </trkpt>
      <trkpt lat="38.2786720" lon="-0.7528210">
        <ele>218.2</ele>
        <time>2020-03-15T07:25:37Z</time>
      </trkpt>
      <trkpt lat="38.2787080" lon="-0.7528060">
        <ele>218.2</ele>
        <time>2020-03-15T07:25:38Z</time>
      </trkpt>
      <trkpt lat="38.2787440" lon="-0.7527910">
        <ele>218.2</ele>
        <time>2020-03-15T07:25:39Z</time>
      </trkpt>
      <trkpt lat="38.2787820" lon="-0.7527790">
        <ele>218.4</ele>
        <time>2020-03-15T07:25:40Z</time>
      </trkpt>
      <trkpt lat="38.2788180" lon="-0.7527710">
        <ele>218.6</ele>
        <time>2020-03-15T07:25:41Z</time>
      </trkpt>
      <trkpt lat="38.2788540" lon="-0.7527590">
        <ele>218.8</ele>
        <time>2020-03-15T07:25:42Z</time>
      </trkpt>
      <trkpt lat="38.2788920" lon="-0.7527480">
        <ele>218.8</ele>
        <time>2020-03-15T07:25:43Z</time>
      </trkpt>
      <trkpt lat="38.2789320" lon="-0.7527430">
        <ele>219.0</ele>
        <time>2020-03-15T07:25:44Z</time>
      </trkpt>
      <trkpt lat="38.2789720" lon="-0.7527370">
        <ele>219.0</ele>
        <time>2020-03-15T07:25:45Z</time>
      </trkpt>
      <trkpt lat="38.2790100" lon="-0.7527380">
        <ele>219.0</ele>
        <time>2020-03-15T07:25:46Z</time>
      </trkpt>
      <trkpt lat="38.2790490" lon="-0.7527460">
        <ele>219.2</ele>
        <time>2020-03-15T07:25:47Z</time>
      </trkpt>
      <trkpt lat="38.2790830" lon="-0.7527530">
        <ele>219.4</ele>
        <time>2020-03-15T07:25:48Z</time>
      </trkpt>
      <trkpt lat="38.2791160" lon="-0.7527610">
        <ele>219.8</ele>
        <time>2020-03-15T07:25:49Z</time>
      </trkpt>
      <trkpt lat="38.2791450" lon="-0.7527660">
        <ele>220.0</ele>
        <time>2020-03-15T07:25:50Z</time>
      </trkpt>
      <trkpt lat="38.2791720" lon="-0.7527730">
        <ele>220.4</ele>
        <time>2020-03-15T07:25:51Z</time>
      </trkpt>
      <trkpt lat="38.2791990" lon="-0.7527810">
        <ele>220.6</ele>
        <time>2020-03-15T07:25:52Z</time>
      </trkpt>
      <trkpt lat="38.2791990" lon="-0.7527810">
        <ele>221.0</ele>
        <time>2020-03-15T07:25:53Z</time>
      </trkpt>
      <trkpt lat="38.2792270" lon="-0.7527870">
        <ele>221.2</ele>
        <time>2020-03-15T07:25:54Z</time>
      </trkpt>
      <trkpt lat="38.2792540" lon="-0.7527920">
        <ele>221.4</ele>
        <time>2020-03-15T07:25:55Z</time>
      </trkpt>
      <trkpt lat="38.2793140" lon="-0.7528020">
        <ele>221.6</ele>
        <time>2020-03-15T07:25:56Z</time>
      </trkpt>
      <trkpt lat="38.2793410" lon="-0.7527970">
        <ele>222.0</ele>
        <time>2020-03-15T07:25:57Z</time>
      </trkpt>
      <trkpt lat="38.2793670" lon="-0.7527920">
        <ele>222.4</ele>
        <time>2020-03-15T07:25:58Z</time>
      </trkpt>
      <trkpt lat="38.2793890" lon="-0.7527730">
        <ele>222.6</ele>
        <time>2020-03-15T07:25:59Z</time>
      </trkpt>
      <trkpt lat="38.2794140" lon="-0.7527460">
        <ele>222.6</ele>
        <time>2020-03-15T07:26:00Z</time>
      </trkpt>
      <trkpt lat="38.2794390" lon="-0.7527180">
        <ele>222.8</ele>
        <time>2020-03-15T07:26:01Z</time>
      </trkpt>
      <trkpt lat="38.2794640" lon="-0.7526830">
        <ele>223.0</ele>
        <time>2020-03-15T07:26:02Z</time>
      </trkpt>
      <trkpt lat="38.2794940" lon="-0.7526530">
        <ele>222.8</ele>
        <time>2020-03-15T07:26:03Z</time>
      </trkpt>
      <trkpt lat="38.2795290" lon="-0.7526250">
        <ele>223.0</ele>
        <time>2020-03-15T07:26:04Z</time>
      </trkpt>
      <trkpt lat="38.2795690" lon="-0.7526020">
        <ele>223.0</ele>
        <time>2020-03-15T07:26:05Z</time>
      </trkpt>
      <trkpt lat="38.2796090" lon="-0.7525790">
        <ele>223.0</ele>
        <time>2020-03-15T07:26:06Z</time>
      </trkpt>
      <trkpt lat="38.2796520" lon="-0.7525640">
        <ele>223.0</ele>
        <time>2020-03-15T07:26:07Z</time>
      </trkpt>
      <trkpt lat="38.2796910" lon="-0.7525490">
        <ele>223.4</ele>
        <time>2020-03-15T07:26:08Z</time>
      </trkpt>
      <trkpt lat="38.2797290" lon="-0.7525340">
        <ele>223.6</ele>
        <time>2020-03-15T07:26:09Z</time>
      </trkpt>
      <trkpt lat="38.2797670" lon="-0.7525270">
        <ele>223.8</ele>
        <time>2020-03-15T07:26:10Z</time>
      </trkpt>
      <trkpt lat="38.2798040" lon="-0.7525190">
        <ele>224.2</ele>
        <time>2020-03-15T07:26:11Z</time>
      </trkpt>
      <trkpt lat="38.2798380" lon="-0.7525100">
        <ele>224.4</ele>
        <time>2020-03-15T07:26:12Z</time>
      </trkpt>
      <trkpt lat="38.2798720" lon="-0.7525010">
        <ele>224.6</ele>
        <time>2020-03-15T07:26:13Z</time>
      </trkpt>
      <trkpt lat="38.2799030" lon="-0.7524900">
        <ele>225.0</ele>
        <time>2020-03-15T07:26:14Z</time>
      </trkpt>
      <trkpt lat="38.2799340" lon="-0.7524790">
        <ele>225.2</ele>
        <time>2020-03-15T07:26:15Z</time>
      </trkpt>
      <trkpt lat="38.2799670" lon="-0.7524660">
        <ele>225.2</ele>
        <time>2020-03-15T07:26:16Z</time>
      </trkpt>
      <trkpt lat="38.2800000" lon="-0.7524530">
        <ele>225.4</ele>
        <time>2020-03-15T07:26:17Z</time>
      </trkpt>
      <trkpt lat="38.2800360" lon="-0.7524420">
        <ele>225.6</ele>
        <time>2020-03-15T07:26:18Z</time>
      </trkpt>
      <trkpt lat="38.2800740" lon="-0.7524310">
        <ele>225.6</ele>
        <time>2020-03-15T07:26:19Z</time>
      </trkpt>
      <trkpt lat="38.2801130" lon="-0.7524210">
        <ele>225.8</ele>
        <time>2020-03-15T07:26:20Z</time>
      </trkpt>
      <trkpt lat="38.2801550" lon="-0.7524100">
        <ele>225.8</ele>
        <time>2020-03-15T07:26:21Z</time>
      </trkpt>
      <trkpt lat="38.2801970" lon="-0.7524040">
        <ele>225.8</ele>
        <time>2020-03-15T07:26:22Z</time>
      </trkpt>
      <trkpt lat="38.2802390" lon="-0.7524020">
        <ele>226.0</ele>
        <time>2020-03-15T07:26:23Z</time>
      </trkpt>
      <trkpt lat="38.2802800" lon="-0.7523990">
        <ele>226.4</ele>
        <time>2020-03-15T07:26:24Z</time>
      </trkpt>
      <trkpt lat="38.2803220" lon="-0.7524010">
        <ele>226.6</ele>
        <time>2020-03-15T07:26:25Z</time>
      </trkpt>
      <trkpt lat="38.2803620" lon="-0.7524060">
        <ele>226.8</ele>
        <time>2020-03-15T07:26:26Z</time>
      </trkpt>
      <trkpt lat="38.2804010" lon="-0.7524110">
        <ele>227.0</ele>
        <time>2020-03-15T07:26:27Z</time>
      </trkpt>
      <trkpt lat="38.2804380" lon="-0.7524180">
        <ele>227.2</ele>
        <time>2020-03-15T07:26:28Z</time>
      </trkpt>
      <trkpt lat="38.2804720" lon="-0.7524260">
        <ele>227.2</ele>
        <time>2020-03-15T07:26:29Z</time>
      </trkpt>
      <trkpt lat="38.2805060" lon="-0.7524340">
        <ele>227.6</ele>
        <time>2020-03-15T07:26:30Z</time>
      </trkpt>
      <trkpt lat="38.2805420" lon="-0.7524430">
        <ele>227.6</ele>
        <time>2020-03-15T07:26:31Z</time>
      </trkpt>
      <trkpt lat="38.2805790" lon="-0.7524550">
        <ele>227.6</ele>
        <time>2020-03-15T07:26:32Z</time>
      </trkpt>
      <trkpt lat="38.2806180" lon="-0.7524680">
        <ele>227.6</ele>
        <time>2020-03-15T07:26:33Z</time>
      </trkpt>
      <trkpt lat="38.2806650" lon="-0.7524810">
        <ele>227.6</ele>
        <time>2020-03-15T07:26:34Z</time>
      </trkpt>
      <trkpt lat="38.2807110" lon="-0.7524940">
        <ele>227.4</ele>
        <time>2020-03-15T07:26:35Z</time>
      </trkpt>
      <trkpt lat="38.2807630" lon="-0.7524960">
        <ele>227.4</ele>
        <time>2020-03-15T07:26:36Z</time>
      </trkpt>
      <trkpt lat="38.2808150" lon="-0.7524880">
        <ele>227.4</ele>
        <time>2020-03-15T07:26:37Z</time>
      </trkpt>
      <trkpt lat="38.2808400" lon="-0.7524820">
        <ele>227.4</ele>
        <time>2020-03-15T07:26:38Z</time>
      </trkpt>
      <trkpt lat="38.2808650" lon="-0.7524750">
        <ele>227.4</ele>
        <time>2020-03-15T07:26:39Z</time>
      </trkpt>
      <trkpt lat="38.2809610" lon="-0.7524390">
        <ele>227.6</ele>
        <time>2020-03-15T07:26:40Z</time>
      </trkpt>
      <trkpt lat="38.2810070" lon="-0.7524160">
        <ele>227.8</ele>
        <time>2020-03-15T07:26:41Z</time>
      </trkpt>
      <trkpt lat="38.2810490" lon="-0.7523910">
        <ele>228.0</ele>
        <time>2020-03-15T07:26:42Z</time>
      </trkpt>
      <trkpt lat="38.2810890" lon="-0.7523660">
        <ele>228.4</ele>
        <time>2020-03-15T07:26:43Z</time>
      </trkpt>
      <trkpt lat="38.2811310" lon="-0.7523440">
        <ele>228.2</ele>
        <time>2020-03-15T07:26:44Z</time>
      </trkpt>
      <trkpt lat="38.2811740" lon="-0.7523310">
        <ele>228.2</ele>
        <time>2020-03-15T07:26:45Z</time>
      </trkpt>
      <trkpt lat="38.2812200" lon="-0.7523240">
        <ele>228.2</ele>
        <time>2020-03-15T07:26:46Z</time>
      </trkpt>
      <trkpt lat="38.2812590" lon="-0.7523300">
        <ele>228.2</ele>
        <time>2020-03-15T07:26:47Z</time>
      </trkpt>
      <trkpt lat="38.2812980" lon="-0.7523360">
        <ele>228.4</ele>
        <time>2020-03-15T07:26:48Z</time>
      </trkpt>
      <trkpt lat="38.2813280" lon="-0.7523610">
        <ele>229.0</ele>
        <time>2020-03-15T07:26:49Z</time>
      </trkpt>
      <trkpt lat="38.2813480" lon="-0.7523900">
        <ele>229.2</ele>
        <time>2020-03-15T07:26:50Z</time>
      </trkpt>
      <trkpt lat="38.2813650" lon="-0.7524180">
        <ele>229.6</ele>
        <time>2020-03-15T07:26:51Z</time>
      </trkpt>
      <trkpt lat="38.2813850" lon="-0.7524450">
        <ele>230.0</ele>
        <time>2020-03-15T07:26:52Z</time>
      </trkpt>
      <trkpt lat="38.2814050" lon="-0.7524730">
        <ele>230.2</ele>
        <time>2020-03-15T07:26:53Z</time>
      </trkpt>
      <trkpt lat="38.2814210" lon="-0.7524960">
        <ele>230.8</ele>
        <time>2020-03-15T07:26:54Z</time>
      </trkpt>
      <trkpt lat="38.2814370" lon="-0.7525190">
        <ele>231.2</ele>
        <time>2020-03-15T07:26:55Z</time>
      </trkpt>
      <trkpt lat="38.2814370" lon="-0.7525190">
        <ele>231.6</ele>
        <time>2020-03-15T07:26:56Z</time>
      </trkpt>
      <trkpt lat="38.2814520" lon="-0.7525300">
        <ele>231.8</ele>
        <time>2020-03-15T07:26:57Z</time>
      </trkpt>
      <trkpt lat="38.2814670" lon="-0.7525460">
        <ele>232.2</ele>
        <time>2020-03-15T07:26:58Z</time>
      </trkpt>
      <trkpt lat="38.2815010" lon="-0.7525880">
        <ele>232.6</ele>
        <time>2020-03-15T07:26:59Z</time>
      </trkpt>
      <trkpt lat="38.2815010" lon="-0.7525880">
        <ele>233.0</ele>
        <time>2020-03-15T07:27:00Z</time>
      </trkpt>
      <trkpt lat="38.2815180" lon="-0.7526060">
        <ele>233.2</ele>
        <time>2020-03-15T07:27:01Z</time>
      </trkpt>
      <trkpt lat="38.2815340" lon="-0.7526230">
        <ele>233.6</ele>
        <time>2020-03-15T07:27:02Z</time>
      </trkpt>
      <trkpt lat="38.2815510" lon="-0.7526420">
        <ele>233.8</ele>
        <time>2020-03-15T07:27:03Z</time>
      </trkpt>
      <trkpt lat="38.2815860" lon="-0.7526790">
        <ele>234.0</ele>
        <time>2020-03-15T07:27:04Z</time>
      </trkpt>
      <trkpt lat="38.2816030" lon="-0.7527040">
        <ele>234.4</ele>
        <time>2020-03-15T07:27:05Z</time>
      </trkpt>
      <trkpt lat="38.2816200" lon="-0.7527290">
        <ele>234.6</ele>
        <time>2020-03-15T07:27:06Z</time>
      </trkpt>
      <trkpt lat="38.2816370" lon="-0.7527550">
        <ele>235.0</ele>
        <time>2020-03-15T07:27:07Z</time>
      </trkpt>
      <trkpt lat="38.2816540" lon="-0.7527780">
        <ele>235.0</ele>
        <time>2020-03-15T07:27:08Z</time>
      </trkpt>
      <trkpt lat="38.2816540" lon="-0.7527780">
        <ele>235.4</ele>
        <time>2020-03-15T07:27:09Z</time>
      </trkpt>
      <trkpt lat="38.2816700" lon="-0.7528030">
        <ele>235.6</ele>
        <time>2020-03-15T07:27:10Z</time>
      </trkpt>
      <trkpt lat="38.2816860" lon="-0.7528290">
        <ele>236.0</ele>
        <time>2020-03-15T07:27:11Z</time>
      </trkpt>
      <trkpt lat="38.2817030" lon="-0.7528540">
        <ele>236.2</ele>
        <time>2020-03-15T07:27:12Z</time>
      </trkpt>
      <trkpt lat="38.2817350" lon="-0.7529060">
        <ele>236.2</ele>
        <time>2020-03-15T07:27:13Z</time>
      </trkpt>
      <trkpt lat="38.2817520" lon="-0.7529300">
        <ele>236.6</ele>
        <time>2020-03-15T07:27:14Z</time>
      </trkpt>
      <trkpt lat="38.2817670" lon="-0.7529570">
        <ele>236.6</ele>
        <time>2020-03-15T07:27:15Z</time>
      </trkpt>
      <trkpt lat="38.2817670" lon="-0.7529570">
        <ele>237.0</ele>
        <time>2020-03-15T07:27:16Z</time>
      </trkpt>
      <trkpt lat="38.2817850" lon="-0.7529800">
        <ele>237.4</ele>
        <time>2020-03-15T07:27:17Z</time>
      </trkpt>
      <trkpt lat="38.2818010" lon="-0.7530030">
        <ele>237.6</ele>
        <time>2020-03-15T07:27:18Z</time>
      </trkpt>
      <trkpt lat="38.2818190" lon="-0.7530260">
        <ele>237.8</ele>
        <time>2020-03-15T07:27:19Z</time>
      </trkpt>
      <trkpt lat="38.2818550" lon="-0.7530670">
        <ele>237.8</ele>
        <time>2020-03-15T07:27:20Z</time>
      </trkpt>
      <trkpt lat="38.2818720" lon="-0.7530890">
        <ele>238.0</ele>
        <time>2020-03-15T07:27:21Z</time>
      </trkpt>
      <trkpt lat="38.2818880" lon="-0.7531120">
        <ele>238.4</ele>
        <time>2020-03-15T07:27:22Z</time>
      </trkpt>
      <trkpt lat="38.2818880" lon="-0.7531120">
        <ele>238.8</ele>
        <time>2020-03-15T07:27:23Z</time>
      </trkpt>
      <trkpt lat="38.2819050" lon="-0.7531340">
        <ele>239.2</ele>
        <time>2020-03-15T07:27:24Z</time>
      </trkpt>
      <trkpt lat="38.2819210" lon="-0.7531540">
        <ele>239.2</ele>
        <time>2020-03-15T07:27:25Z</time>
      </trkpt>
      <trkpt lat="38.2819530" lon="-0.7531960">
        <ele>239.6</ele>
        <time>2020-03-15T07:27:26Z</time>
      </trkpt>
      <trkpt lat="38.2819690" lon="-0.7532170">
        <ele>239.8</ele>
        <time>2020-03-15T07:27:27Z</time>
      </trkpt>
      <trkpt lat="38.2819690" lon="-0.7532170">
        <ele>240.0</ele>
        <time>2020-03-15T07:27:28Z</time>
      </trkpt>
      <trkpt lat="38.2819840" lon="-0.7532370">
        <ele>240.4</ele>
        <time>2020-03-15T07:27:29Z</time>
      </trkpt>
      <trkpt lat="38.2820170" lon="-0.7532830">
        <ele>240.4</ele>
        <time>2020-03-15T07:27:30Z</time>
      </trkpt>
      <trkpt lat="38.2820170" lon="-0.7532830">
        <ele>240.6</ele>
        <time>2020-03-15T07:27:31Z</time>
      </trkpt>
      <trkpt lat="38.2820340" lon="-0.7533060">
        <ele>240.8</ele>
        <time>2020-03-15T07:27:32Z</time>
      </trkpt>
      <trkpt lat="38.2820610" lon="-0.7533520">
        <ele>241.0</ele>
        <time>2020-03-15T07:27:33Z</time>
      </trkpt>
      <trkpt lat="38.2820610" lon="-0.7533520">
        <ele>241.4</ele>
        <time>2020-03-15T07:27:34Z</time>
      </trkpt>
      <trkpt lat="38.2820750" lon="-0.7533730">
        <ele>241.6</ele>
        <time>2020-03-15T07:27:35Z</time>
      </trkpt>
      <trkpt lat="38.2821040" lon="-0.7534120">
        <ele>241.8</ele>
        <time>2020-03-15T07:27:36Z</time>
      </trkpt>
      <trkpt lat="38.2821040" lon="-0.7534120">
        <ele>242.0</ele>
        <time>2020-03-15T07:27:37Z</time>
      </trkpt>
      <trkpt lat="38.2821190" lon="-0.7534320">
        <ele>242.4</ele>
        <time>2020-03-15T07:27:38Z</time>
      </trkpt>
      <trkpt lat="38.2821490" lon="-0.7534700">
        <ele>242.6</ele>
        <time>2020-03-15T07:27:39Z</time>
      </trkpt>
      <trkpt lat="38.2821680" lon="-0.7534850">
        <ele>243.0</ele>
        <time>2020-03-15T07:27:40Z</time>
      </trkpt>
      <trkpt lat="38.2821870" lon="-0.7535010">
        <ele>243.2</ele>
        <time>2020-03-15T07:27:41Z</time>
      </trkpt>
      <trkpt lat="38.2821870" lon="-0.7535010">
        <ele>243.4</ele>
        <time>2020-03-15T07:27:42Z</time>
      </trkpt>
      <trkpt lat="38.2822040" lon="-0.7535160">
        <ele>243.6</ele>
        <time>2020-03-15T07:27:43Z</time>
      </trkpt>
      <trkpt lat="38.2822360" lon="-0.7535460">
        <ele>243.8</ele>
        <time>2020-03-15T07:27:44Z</time>
      </trkpt>
      <trkpt lat="38.2822510" lon="-0.7535630">
        <ele>244.2</ele>
        <time>2020-03-15T07:27:45Z</time>
      </trkpt>
      <trkpt lat="38.2822650" lon="-0.7535810">
        <ele>244.4</ele>
        <time>2020-03-15T07:27:46Z</time>
      </trkpt>
      <trkpt lat="38.2822810" lon="-0.7535960">
        <ele>244.6</ele>
        <time>2020-03-15T07:27:47Z</time>
      </trkpt>
      <trkpt lat="38.2822950" lon="-0.7536130">
        <ele>244.6</ele>
        <time>2020-03-15T07:27:48Z</time>
      </trkpt>
      <trkpt lat="38.2823120" lon="-0.7536270">
        <ele>245.0</ele>
        <time>2020-03-15T07:27:49Z</time>
      </trkpt>
      <trkpt lat="38.2823270" lon="-0.7536420">
        <ele>245.2</ele>
        <time>2020-03-15T07:27:50Z</time>
      </trkpt>
      <trkpt lat="38.2823410" lon="-0.7536600">
        <ele>245.6</ele>
        <time>2020-03-15T07:27:51Z</time>
      </trkpt>
      <trkpt lat="38.2823550" lon="-0.7536790">
        <ele>245.8</ele>
        <time>2020-03-15T07:27:52Z</time>
      </trkpt>
      <trkpt lat="38.2823670" lon="-0.7536990">
        <ele>245.8</ele>
        <time>2020-03-15T07:27:53Z</time>
      </trkpt>
      <trkpt lat="38.2823800" lon="-0.7537190">
        <ele>246.0</ele>
        <time>2020-03-15T07:27:54Z</time>
      </trkpt>
      <trkpt lat="38.2823800" lon="-0.7537190">
        <ele>246.2</ele>
        <time>2020-03-15T07:27:55Z</time>
      </trkpt>
      <trkpt lat="38.2823920" lon="-0.7537370">
        <ele>246.4</ele>
        <time>2020-03-15T07:27:56Z</time>
      </trkpt>
      <trkpt lat="38.2824200" lon="-0.7537740">
        <ele>246.6</ele>
        <time>2020-03-15T07:27:57Z</time>
      </trkpt>
      <trkpt lat="38.2824200" lon="-0.7537740">
        <ele>246.8</ele>
        <time>2020-03-15T07:27:58Z</time>
      </trkpt>
      <trkpt lat="38.2824380" lon="-0.7537920">
        <ele>247.0</ele>
        <time>2020-03-15T07:27:59Z</time>
      </trkpt>
      <trkpt lat="38.2824510" lon="-0.7538140">
        <ele>247.2</ele>
        <time>2020-03-15T07:28:00Z</time>
      </trkpt>
      <trkpt lat="38.2824670" lon="-0.7538330">
        <ele>247.4</ele>
        <time>2020-03-15T07:28:01Z</time>
      </trkpt>
      <trkpt lat="38.2824830" lon="-0.7538510">
        <ele>247.6</ele>
        <time>2020-03-15T07:28:02Z</time>
      </trkpt>
      <trkpt lat="38.2825130" lon="-0.7538880">
        <ele>247.8</ele>
        <time>2020-03-15T07:28:03Z</time>
      </trkpt>
      <trkpt lat="38.2825270" lon="-0.7539050">
        <ele>248.2</ele>
        <time>2020-03-15T07:28:04Z</time>
      </trkpt>
      <trkpt lat="38.2825410" lon="-0.7539220">
        <ele>248.2</ele>
        <time>2020-03-15T07:28:05Z</time>
      </trkpt>
      <trkpt lat="38.2825560" lon="-0.7539400">
        <ele>248.4</ele>
        <time>2020-03-15T07:28:06Z</time>
      </trkpt>
      <trkpt lat="38.2825710" lon="-0.7539580">
        <ele>248.6</ele>
        <time>2020-03-15T07:28:07Z</time>
      </trkpt>
      <trkpt lat="38.2825860" lon="-0.7539760">
        <ele>249.0</ele>
        <time>2020-03-15T07:28:08Z</time>
      </trkpt>
      <trkpt lat="38.2825860" lon="-0.7539760">
        <ele>249.0</ele>
        <time>2020-03-15T07:28:09Z</time>
      </trkpt>
      <trkpt lat="38.2826000" lon="-0.7539960">
        <ele>249.4</ele>
        <time>2020-03-15T07:28:10Z</time>
      </trkpt>
      <trkpt lat="38.2826140" lon="-0.7540140">
        <ele>249.6</ele>
        <time>2020-03-15T07:28:11Z</time>
      </trkpt>
      <trkpt lat="38.2826290" lon="-0.7540310">
        <ele>249.8</ele>
        <time>2020-03-15T07:28:12Z</time>
      </trkpt>
      <trkpt lat="38.2826450" lon="-0.7540480">
        <ele>250.0</ele>
        <time>2020-03-15T07:28:13Z</time>
      </trkpt>
      <trkpt lat="38.2826740" lon="-0.7540820">
        <ele>250.4</ele>
        <time>2020-03-15T07:28:14Z</time>
      </trkpt>
      <trkpt lat="38.2826870" lon="-0.7541030">
        <ele>250.6</ele>
        <time>2020-03-15T07:28:15Z</time>
      </trkpt>
      <trkpt lat="38.2827030" lon="-0.7541230">
        <ele>250.6</ele>
        <time>2020-03-15T07:28:16Z</time>
      </trkpt>
      <trkpt lat="38.2827030" lon="-0.7541230">
        <ele>250.8</ele>
        <time>2020-03-15T07:28:17Z</time>
      </trkpt>
      <trkpt lat="38.2827190" lon="-0.7541450">
        <ele>250.8</ele>
        <time>2020-03-15T07:28:18Z</time>
      </trkpt>
      <trkpt lat="38.2827350" lon="-0.7541680">
        <ele>251.2</ele>
        <time>2020-03-15T07:28:19Z</time>
      </trkpt>
      <trkpt lat="38.2827670" lon="-0.7542110">
        <ele>251.2</ele>
        <time>2020-03-15T07:28:20Z</time>
      </trkpt>
      <trkpt lat="38.2827830" lon="-0.7542340">
        <ele>251.6</ele>
        <time>2020-03-15T07:28:21Z</time>
      </trkpt>
      <trkpt lat="38.2827970" lon="-0.7542570">
        <ele>251.8</ele>
        <time>2020-03-15T07:28:22Z</time>
      </trkpt>
      <trkpt lat="38.2828110" lon="-0.7542780">
        <ele>252.0</ele>
        <time>2020-03-15T07:28:23Z</time>
      </trkpt>
      <trkpt lat="38.2828250" lon="-0.7542990">
        <ele>252.2</ele>
        <time>2020-03-15T07:28:24Z</time>
      </trkpt>
      <trkpt lat="38.2828400" lon="-0.7543190">
        <ele>252.2</ele>
        <time>2020-03-15T07:28:25Z</time>
      </trkpt>
      <trkpt lat="38.2828550" lon="-0.7543380">
        <ele>252.4</ele>
        <time>2020-03-15T07:28:26Z</time>
      </trkpt>
      <trkpt lat="38.2829320" lon="-0.7543990">
        <ele>252.4</ele>
        <time>2020-03-15T07:28:51Z</time>
      </trkpt>
      <trkpt lat="38.2829540" lon="-0.7544170">
        <ele>252.4</ele>
        <time>2020-03-15T07:28:52Z</time>
      </trkpt>
      <trkpt lat="38.2829800" lon="-0.7544320">
        <ele>252.6</ele>
        <time>2020-03-15T07:28:53Z</time>
      </trkpt>
      <trkpt lat="38.2830100" lon="-0.7544460">
        <ele>252.4</ele>
        <time>2020-03-15T07:28:54Z</time>
      </trkpt>
      <trkpt lat="38.2830390" lon="-0.7544600">
        <ele>252.6</ele>
        <time>2020-03-15T07:28:55Z</time>
      </trkpt>
      <trkpt lat="38.2830390" lon="-0.7544600">
        <ele>252.8</ele>
        <time>2020-03-15T07:28:56Z</time>
      </trkpt>
      <trkpt lat="38.2830720" lon="-0.7544690">
        <ele>253.0</ele>
        <time>2020-03-15T07:28:57Z</time>
      </trkpt>
      <trkpt lat="38.2831420" lon="-0.7544840">
        <ele>253.0</ele>
        <time>2020-03-15T07:28:58Z</time>
      </trkpt>
      <trkpt lat="38.2831790" lon="-0.7544930">
        <ele>253.2</ele>
        <time>2020-03-15T07:28:59Z</time>
      </trkpt>
      <trkpt lat="38.2832150" lon="-0.7545020">
        <ele>253.4</ele>
        <time>2020-03-15T07:29:00Z</time>
      </trkpt>
      <trkpt lat="38.2832340" lon="-0.7545070">
        <ele>253.6</ele>
        <time>2020-03-15T07:29:01Z</time>
      </trkpt>
      <trkpt lat="38.2832520" lon="-0.7545120">
        <ele>253.8</ele>
        <time>2020-03-15T07:29:02Z</time>
      </trkpt>
      <trkpt lat="38.2833280" lon="-0.7545270">
        <ele>254.0</ele>
        <time>2020-03-15T07:29:03Z</time>
      </trkpt>
      <trkpt lat="38.2833280" lon="-0.7545270">
        <ele>254.4</ele>
        <time>2020-03-15T07:29:04Z</time>
      </trkpt>
      <trkpt lat="38.2833640" lon="-0.7545360">
        <ele>254.6</ele>
        <time>2020-03-15T07:29:05Z</time>
      </trkpt>
      <trkpt lat="38.2834360" lon="-0.7545550">
        <ele>254.8</ele>
        <time>2020-03-15T07:29:06Z</time>
      </trkpt>
      <trkpt lat="38.2834730" lon="-0.7545650">
        <ele>255.0</ele>
        <time>2020-03-15T07:29:07Z</time>
      </trkpt>
      <trkpt lat="38.2835100" lon="-0.7545740">
        <ele>255.0</ele>
        <time>2020-03-15T07:29:08Z</time>
      </trkpt>
      <trkpt lat="38.2835460" lon="-0.7545810">
        <ele>255.4</ele>
        <time>2020-03-15T07:29:09Z</time>
      </trkpt>
      <trkpt lat="38.2835650" lon="-0.7545840">
        <ele>255.4</ele>
        <time>2020-03-15T07:29:10Z</time>
      </trkpt>
      <trkpt lat="38.2835840" lon="-0.7545870">
        <ele>255.6</ele>
        <time>2020-03-15T07:29:11Z</time>
      </trkpt>
      <trkpt lat="38.2836550" lon="-0.7545920">
        <ele>255.6</ele>
        <time>2020-03-15T07:29:12Z</time>
      </trkpt>
      <trkpt lat="38.2836550" lon="-0.7545920">
        <ele>255.8</ele>
        <time>2020-03-15T07:29:13Z</time>
      </trkpt>
      <trkpt lat="38.2836910" lon="-0.7545890">
        <ele>255.8</ele>
        <time>2020-03-15T07:29:14Z</time>
      </trkpt>
      <trkpt lat="38.2837660" lon="-0.7545780">
        <ele>255.8</ele>
        <time>2020-03-15T07:29:15Z</time>
      </trkpt>
      <trkpt lat="38.2837860" lon="-0.7545730">
        <ele>255.8</ele>
        <time>2020-03-15T07:29:16Z</time>
      </trkpt>
      <trkpt lat="38.2838060" lon="-0.7545670">
        <ele>255.8</ele>
        <time>2020-03-15T07:29:17Z</time>
      </trkpt>
      <trkpt lat="38.2838890" lon="-0.7545490">
        <ele>255.6</ele>
        <time>2020-03-15T07:29:18Z</time>
      </trkpt>
      <trkpt lat="38.2839340" lon="-0.7545450">
        <ele>255.6</ele>
        <time>2020-03-15T07:29:19Z</time>
      </trkpt>
      <trkpt lat="38.2839580" lon="-0.7545450">
        <ele>255.6</ele>
        <time>2020-03-15T07:29:20Z</time>
      </trkpt>
      <trkpt lat="38.2839820" lon="-0.7545450">
        <ele>255.6</ele>
        <time>2020-03-15T07:29:21Z</time>
      </trkpt>
      <trkpt lat="38.2840310" lon="-0.7545490">
        <ele>255.6</ele>
        <time>2020-03-15T07:29:22Z</time>
      </trkpt>
      <trkpt lat="38.2841250" lon="-0.7545830">
        <ele>255.6</ele>
        <time>2020-03-15T07:29:23Z</time>
      </trkpt>
      <trkpt lat="38.2841450" lon="-0.7546010">
        <ele>255.6</ele>
        <time>2020-03-15T07:29:24Z</time>
      </trkpt>
      <trkpt lat="38.2841640" lon="-0.7546190">
        <ele>255.8</ele>
        <time>2020-03-15T07:29:25Z</time>
      </trkpt>
      <trkpt lat="38.2842240" lon="-0.7547010">
        <ele>256.2</ele>
        <time>2020-03-15T07:29:26Z</time>
      </trkpt>
      <trkpt lat="38.2842490" lon="-0.7547450">
        <ele>256.0</ele>
        <time>2020-03-15T07:29:27Z</time>
      </trkpt>
      <trkpt lat="38.2842730" lon="-0.7547880">
        <ele>256.6</ele>
        <time>2020-03-15T07:29:28Z</time>
      </trkpt>
      <trkpt lat="38.2842960" lon="-0.7548320">
        <ele>256.6</ele>
        <time>2020-03-15T07:29:29Z</time>
      </trkpt>
      <trkpt lat="38.2843160" lon="-0.7548760">
        <ele>256.8</ele>
        <time>2020-03-15T07:29:30Z</time>
      </trkpt>
      <trkpt lat="38.2843260" lon="-0.7548970">
        <ele>257.2</ele>
        <time>2020-03-15T07:29:31Z</time>
      </trkpt>
      <trkpt lat="38.2843360" lon="-0.7549190">
        <ele>257.2</ele>
        <time>2020-03-15T07:29:32Z</time>
      </trkpt>
      <trkpt lat="38.2843690" lon="-0.7550130">
        <ele>257.4</ele>
        <time>2020-03-15T07:29:33Z</time>
      </trkpt>
      <trkpt lat="38.2843830" lon="-0.7550670">
        <ele>257.6</ele>
        <time>2020-03-15T07:29:34Z</time>
      </trkpt>
      <trkpt lat="38.2843930" lon="-0.7551230">
        <ele>257.6</ele>
        <time>2020-03-15T07:29:35Z</time>
      </trkpt>
      <trkpt lat="38.2844030" lon="-0.7551800">
        <ele>257.8</ele>
        <time>2020-03-15T07:29:36Z</time>
      </trkpt>
      <trkpt lat="38.2844170" lon="-0.7552340">
        <ele>257.8</ele>
        <time>2020-03-15T07:29:37Z</time>
      </trkpt>
      <trkpt lat="38.2844310" lon="-0.7552880">
        <ele>257.8</ele>
        <time>2020-03-15T07:29:38Z</time>
      </trkpt>
      <trkpt lat="38.2844440" lon="-0.7553410">
        <ele>258.0</ele>
        <time>2020-03-15T07:29:39Z</time>
      </trkpt>
      <trkpt lat="38.2844500" lon="-0.7553660">
        <ele>258.2</ele>
        <time>2020-03-15T07:29:40Z</time>
      </trkpt>
      <trkpt lat="38.2844550" lon="-0.7553920">
        <ele>258.4</ele>
        <time>2020-03-15T07:29:41Z</time>
      </trkpt>
      <trkpt lat="38.2844630" lon="-0.7554420">
        <ele>258.8</ele>
        <time>2020-03-15T07:29:42Z</time>
      </trkpt>
      <trkpt lat="38.2844730" lon="-0.7555330">
        <ele>259.0</ele>
        <time>2020-03-15T07:29:43Z</time>
      </trkpt>
      <trkpt lat="38.2844780" lon="-0.7555720">
        <ele>259.4</ele>
        <time>2020-03-15T07:29:44Z</time>
      </trkpt>
      <trkpt lat="38.2844820" lon="-0.7556110">
        <ele>259.8</ele>
        <time>2020-03-15T07:29:45Z</time>
      </trkpt>
      <trkpt lat="38.2844850" lon="-0.7556510">
        <ele>260.2</ele>
        <time>2020-03-15T07:29:46Z</time>
      </trkpt>
      <trkpt lat="38.2844880" lon="-0.7556910">
        <ele>260.4</ele>
        <time>2020-03-15T07:29:47Z</time>
      </trkpt>
      <trkpt lat="38.2844900" lon="-0.7557310">
        <ele>260.8</ele>
        <time>2020-03-15T07:29:48Z</time>
      </trkpt>
      <trkpt lat="38.2844940" lon="-0.7557730">
        <ele>261.2</ele>
        <time>2020-03-15T07:29:49Z</time>
      </trkpt>
      <trkpt lat="38.2845000" lon="-0.7558120">
        <ele>261.4</ele>
        <time>2020-03-15T07:29:50Z</time>
      </trkpt>
      <trkpt lat="38.2845000" lon="-0.7558120">
        <ele>261.6</ele>
        <time>2020-03-15T07:29:51Z</time>
      </trkpt>
      <trkpt lat="38.2845050" lon="-0.7558500">
        <ele>261.8</ele>
        <time>2020-03-15T07:29:52Z</time>
      </trkpt>
      <trkpt lat="38.2845110" lon="-0.7558870">
        <ele>262.2</ele>
        <time>2020-03-15T07:29:53Z</time>
      </trkpt>
      <trkpt lat="38.2845150" lon="-0.7559650">
        <ele>262.4</ele>
        <time>2020-03-15T07:29:54Z</time>
      </trkpt>
      <trkpt lat="38.2845180" lon="-0.7560030">
        <ele>262.6</ele>
        <time>2020-03-15T07:29:55Z</time>
      </trkpt>
      <trkpt lat="38.2845220" lon="-0.7560410">
        <ele>263.0</ele>
        <time>2020-03-15T07:29:56Z</time>
      </trkpt>
      <trkpt lat="38.2845260" lon="-0.7560800">
        <ele>263.4</ele>
        <time>2020-03-15T07:29:57Z</time>
      </trkpt>
      <trkpt lat="38.2845310" lon="-0.7561200">
        <ele>263.4</ele>
        <time>2020-03-15T07:29:58Z</time>
      </trkpt>
      <trkpt lat="38.2845370" lon="-0.7561590">
        <ele>263.6</ele>
        <time>2020-03-15T07:29:59Z</time>
      </trkpt>
      <trkpt lat="38.2845420" lon="-0.7561980">
        <ele>264.0</ele>
        <time>2020-03-15T07:30:00Z</time>
      </trkpt>
      <trkpt lat="38.2845420" lon="-0.7561980">
        <ele>264.4</ele>
        <time>2020-03-15T07:30:01Z</time>
      </trkpt>
      <trkpt lat="38.2845470" lon="-0.7562360">
        <ele>264.4</ele>
        <time>2020-03-15T07:30:02Z</time>
      </trkpt>
      <trkpt lat="38.2845620" lon="-0.7563130">
        <ele>264.8</ele>
        <time>2020-03-15T07:30:03Z</time>
      </trkpt>
      <trkpt lat="38.2845770" lon="-0.7563480">
        <ele>265.0</ele>
        <time>2020-03-15T07:30:04Z</time>
      </trkpt>
      <trkpt lat="38.2845910" lon="-0.7563830">
        <ele>265.4</ele>
        <time>2020-03-15T07:30:05Z</time>
      </trkpt>
      <trkpt lat="38.2846060" lon="-0.7564160">
        <ele>265.8</ele>
        <time>2020-03-15T07:30:06Z</time>
      </trkpt>
      <trkpt lat="38.2846200" lon="-0.7564470">
        <ele>266.0</ele>
        <time>2020-03-15T07:30:07Z</time>
      </trkpt>
      <trkpt lat="38.2846330" lon="-0.7564760">
        <ele>266.4</ele>
        <time>2020-03-15T07:30:08Z</time>
      </trkpt>
      <trkpt lat="38.2846450" lon="-0.7565060">
        <ele>266.8</ele>
        <time>2020-03-15T07:30:09Z</time>
      </trkpt>
      <trkpt lat="38.2846450" lon="-0.7565060">
        <ele>267.0</ele>
        <time>2020-03-15T07:30:10Z</time>
      </trkpt>
      <trkpt lat="38.2846610" lon="-0.7565320">
        <ele>267.4</ele>
        <time>2020-03-15T07:30:11Z</time>
      </trkpt>
      <trkpt lat="38.2846770" lon="-0.7565560">
        <ele>267.8</ele>
        <time>2020-03-15T07:30:12Z</time>
      </trkpt>
      <trkpt lat="38.2846900" lon="-0.7565850">
        <ele>268.0</ele>
        <time>2020-03-15T07:30:13Z</time>
      </trkpt>
      <trkpt lat="38.2847190" lon="-0.7566430">
        <ele>268.4</ele>
        <time>2020-03-15T07:30:14Z</time>
      </trkpt>
      <trkpt lat="38.2847370" lon="-0.7566640">
        <ele>268.8</ele>
        <time>2020-03-15T07:30:15Z</time>
      </trkpt>
      <trkpt lat="38.2847370" lon="-0.7566640">
        <ele>268.8</ele>
        <time>2020-03-15T07:30:16Z</time>
      </trkpt>
      <trkpt lat="38.2847560" lon="-0.7566870">
        <ele>269.2</ele>
        <time>2020-03-15T07:30:17Z</time>
      </trkpt>
      <trkpt lat="38.2847720" lon="-0.7567080">
        <ele>269.6</ele>
        <time>2020-03-15T07:30:18Z</time>
      </trkpt>
      <trkpt lat="38.2848060" lon="-0.7567500">
        <ele>269.8</ele>
        <time>2020-03-15T07:30:19Z</time>
      </trkpt>
      <trkpt lat="38.2848060" lon="-0.7567500">
        <ele>270.2</ele>
        <time>2020-03-15T07:30:20Z</time>
      </trkpt>
      <trkpt lat="38.2848220" lon="-0.7567760">
        <ele>270.4</ele>
        <time>2020-03-15T07:30:21Z</time>
      </trkpt>
      <trkpt lat="38.2848360" lon="-0.7568010">
        <ele>270.8</ele>
        <time>2020-03-15T07:30:22Z</time>
      </trkpt>
      <trkpt lat="38.2848490" lon="-0.7568250">
        <ele>271.0</ele>
        <time>2020-03-15T07:30:23Z</time>
      </trkpt>
      <trkpt lat="38.2848630" lon="-0.7568480">
        <ele>271.2</ele>
        <time>2020-03-15T07:30:24Z</time>
      </trkpt>
      <trkpt lat="38.2848880" lon="-0.7569030">
        <ele>271.4</ele>
        <time>2020-03-15T07:30:25Z</time>
      </trkpt>
      <trkpt lat="38.2849030" lon="-0.7569260">
        <ele>271.6</ele>
        <time>2020-03-15T07:30:26Z</time>
      </trkpt>
      <trkpt lat="38.2849170" lon="-0.7569510">
        <ele>272.0</ele>
        <time>2020-03-15T07:30:27Z</time>
      </trkpt>
      <trkpt lat="38.2849330" lon="-0.7569730">
        <ele>272.2</ele>
        <time>2020-03-15T07:30:28Z</time>
      </trkpt>
      <trkpt lat="38.2849330" lon="-0.7569730">
        <ele>272.6</ele>
        <time>2020-03-15T07:30:29Z</time>
      </trkpt>
      <trkpt lat="38.2849470" lon="-0.7569980">
        <ele>272.8</ele>
        <time>2020-03-15T07:30:30Z</time>
      </trkpt>
      <trkpt lat="38.2849630" lon="-0.7570160">
        <ele>273.0</ele>
        <time>2020-03-15T07:30:31Z</time>
      </trkpt>
      <trkpt lat="38.2849780" lon="-0.7570390">
        <ele>273.2</ele>
        <time>2020-03-15T07:30:32Z</time>
      </trkpt>
      <trkpt lat="38.2849920" lon="-0.7570660">
        <ele>273.4</ele>
        <time>2020-03-15T07:30:33Z</time>
      </trkpt>
      <trkpt lat="38.2850080" lon="-0.7570910">
        <ele>273.4</ele>
        <time>2020-03-15T07:30:34Z</time>
      </trkpt>
      <trkpt lat="38.2850500" lon="-0.7571460">
        <ele>273.2</ele>
        <time>2020-03-15T07:30:35Z</time>
      </trkpt>
      <trkpt lat="38.2850790" lon="-0.7571760">
        <ele>273.0</ele>
        <time>2020-03-15T07:30:36Z</time>
      </trkpt>
      <trkpt lat="38.2850790" lon="-0.7571760">
        <ele>273.0</ele>
        <time>2020-03-15T07:30:37Z</time>
      </trkpt>
      <trkpt lat="38.2851090" lon="-0.7572020">
        <ele>272.8</ele>
        <time>2020-03-15T07:30:38Z</time>
      </trkpt>
      <trkpt lat="38.2851390" lon="-0.7572410">
        <ele>272.6</ele>
        <time>2020-03-15T07:30:39Z</time>
      </trkpt>
      <trkpt lat="38.2852150" lon="-0.7573390">
        <ele>272.4</ele>
        <time>2020-03-15T07:30:40Z</time>
      </trkpt>
      <trkpt lat="38.2852380" lon="-0.7573640">
        <ele>272.0</ele>
        <time>2020-03-15T07:30:41Z</time>
      </trkpt>
      <trkpt lat="38.2852600" lon="-0.7573890">
        <ele>272.0</ele>
        <time>2020-03-15T07:30:42Z</time>
      </trkpt>
      <trkpt lat="38.2853300" lon="-0.7574580">
        <ele>271.6</ele>
        <time>2020-03-15T07:30:43Z</time>
      </trkpt>
      <trkpt lat="38.2853560" lon="-0.7574770">
        <ele>271.4</ele>
        <time>2020-03-15T07:30:44Z</time>
      </trkpt>
      <trkpt lat="38.2854160" lon="-0.7575090">
        <ele>271.2</ele>
        <time>2020-03-15T07:30:45Z</time>
      </trkpt>
      <trkpt lat="38.2854770" lon="-0.7575280">
        <ele>271.0</ele>
        <time>2020-03-15T07:30:46Z</time>
      </trkpt>
      <trkpt lat="38.2856100" lon="-0.7575360">
        <ele>270.8</ele>
        <time>2020-03-15T07:30:47Z</time>
      </trkpt>
      <trkpt lat="38.2856800" lon="-0.7575210">
        <ele>270.2</ele>
        <time>2020-03-15T07:30:48Z</time>
      </trkpt>
      <trkpt lat="38.2857520" lon="-0.7574970">
        <ele>269.6</ele>
        <time>2020-03-15T07:30:49Z</time>
      </trkpt>
      <trkpt lat="38.2857900" lon="-0.7574810">
        <ele>269.0</ele>
        <time>2020-03-15T07:30:50Z</time>
      </trkpt>
      <trkpt lat="38.2858280" lon="-0.7574640">
        <ele>268.2</ele>
        <time>2020-03-15T07:30:51Z</time>
      </trkpt>
      <trkpt lat="38.2859110" lon="-0.7574240">
        <ele>267.4</ele>
        <time>2020-03-15T07:30:52Z</time>
      </trkpt>
      <trkpt lat="38.2859940" lon="-0.7573760">
        <ele>267.0</ele>
        <time>2020-03-15T07:30:53Z</time>
      </trkpt>
      <trkpt lat="38.2860760" lon="-0.7573210">
        <ele>266.6</ele>
        <time>2020-03-15T07:30:54Z</time>
      </trkpt>
      <trkpt lat="38.2861550" lon="-0.7572600">
        <ele>266.2</ele>
        <time>2020-03-15T07:30:55Z</time>
      </trkpt>
      <trkpt lat="38.2862280" lon="-0.7571910">
        <ele>265.8</ele>
        <time>2020-03-15T07:30:56Z</time>
      </trkpt>
      <trkpt lat="38.2863660" lon="-0.7570480">
        <ele>265.6</ele>
        <time>2020-03-15T07:30:57Z</time>
      </trkpt>
      <trkpt lat="38.2864330" lon="-0.7569820">
        <ele>265.4</ele>
        <time>2020-03-15T07:30:58Z</time>
      </trkpt>
      <trkpt lat="38.2865040" lon="-0.7569290">
        <ele>265.2</ele>
        <time>2020-03-15T07:30:59Z</time>
      </trkpt>
      <trkpt lat="38.2865770" lon="-0.7568840">
        <ele>265.2</ele>
        <time>2020-03-15T07:31:00Z</time>
      </trkpt>
      <trkpt lat="38.2866130" lon="-0.7568660">
        <ele>265.0</ele>
        <time>2020-03-15T07:31:01Z</time>
      </trkpt>
      <trkpt lat="38.2866490" lon="-0.7568480">
        <ele>264.6</ele>
        <time>2020-03-15T07:31:02Z</time>
      </trkpt>
      <trkpt lat="38.2868060" lon="-0.7568170">
        <ele>264.2</ele>
        <time>2020-03-15T07:31:03Z</time>
      </trkpt>
      <trkpt lat="38.2868660" lon="-0.7568200">
        <ele>264.0</ele>
        <time>2020-03-15T07:31:04Z</time>
      </trkpt>
      <trkpt lat="38.2869250" lon="-0.7568230">
        <ele>263.8</ele>
        <time>2020-03-15T07:31:05Z</time>
      </trkpt>
      <trkpt lat="38.2870430" lon="-0.7568300">
        <ele>264.0</ele>
        <time>2020-03-15T07:31:06Z</time>
      </trkpt>
      <trkpt lat="38.2871150" lon="-0.7568410">
        <ele>264.2</ele>
        <time>2020-03-15T07:31:07Z</time>
      </trkpt>
      <trkpt lat="38.2871500" lon="-0.7568470">
        <ele>264.6</ele>
        <time>2020-03-15T07:31:08Z</time>
      </trkpt>
      <trkpt lat="38.2871850" lon="-0.7568540">
        <ele>265.0</ele>
        <time>2020-03-15T07:31:09Z</time>
      </trkpt>
      <trkpt lat="38.2872450" lon="-0.7568630">
        <ele>265.4</ele>
        <time>2020-03-15T07:31:10Z</time>
      </trkpt>
      <trkpt lat="38.2873020" lon="-0.7568720">
        <ele>265.8</ele>
        <time>2020-03-15T07:31:11Z</time>
      </trkpt>
      <trkpt lat="38.2873550" lon="-0.7568780">
        <ele>266.0</ele>
        <time>2020-03-15T07:31:12Z</time>
      </trkpt>
      <trkpt lat="38.2874570" lon="-0.7568880">
        <ele>266.2</ele>
        <time>2020-03-15T07:31:13Z</time>
      </trkpt>
      <trkpt lat="38.2874820" lon="-0.7568890">
        <ele>266.6</ele>
        <time>2020-03-15T07:31:14Z</time>
      </trkpt>
      <trkpt lat="38.2875070" lon="-0.7568910">
        <ele>266.6</ele>
        <time>2020-03-15T07:31:15Z</time>
      </trkpt>
      <trkpt lat="38.2876130" lon="-0.7568860">
        <ele>266.6</ele>
        <time>2020-03-15T07:31:16Z</time>
      </trkpt>
      <trkpt lat="38.2876670" lon="-0.7568810">
        <ele>266.6</ele>
        <time>2020-03-15T07:31:17Z</time>
      </trkpt>
      <trkpt lat="38.2877070" lon="-0.7568640">
        <ele>266.6</ele>
        <time>2020-03-15T07:31:18Z</time>
      </trkpt>
      <trkpt lat="38.2877460" lon="-0.7568460">
        <ele>266.4</ele>
        <time>2020-03-15T07:31:19Z</time>
      </trkpt>
      <trkpt lat="38.2878250" lon="-0.7568110">
        <ele>266.6</ele>
        <time>2020-03-15T07:31:20Z</time>
      </trkpt>
      <trkpt lat="38.2878600" lon="-0.7567810">
        <ele>266.6</ele>
        <time>2020-03-15T07:31:21Z</time>
      </trkpt>
      <trkpt lat="38.2878950" lon="-0.7567500">
        <ele>266.6</ele>
        <time>2020-03-15T07:31:22Z</time>
      </trkpt>
      <trkpt lat="38.2879640" lon="-0.7566880">
        <ele>266.8</ele>
        <time>2020-03-15T07:31:23Z</time>
      </trkpt>
      <trkpt lat="38.2879870" lon="-0.7566680">
        <ele>267.0</ele>
        <time>2020-03-15T07:31:24Z</time>
      </trkpt>
      <trkpt lat="38.2880090" lon="-0.7566470">
        <ele>267.0</ele>
        <time>2020-03-15T07:31:25Z</time>
      </trkpt>
      <trkpt lat="38.2880550" lon="-0.7566080">
        <ele>267.2</ele>
        <time>2020-03-15T07:31:26Z</time>
      </trkpt>
      <trkpt lat="38.2881450" lon="-0.7565450">
        <ele>267.6</ele>
        <time>2020-03-15T07:31:27Z</time>
      </trkpt>
      <trkpt lat="38.2881660" lon="-0.7565340">
        <ele>267.8</ele>
        <time>2020-03-15T07:31:28Z</time>
      </trkpt>
      <trkpt lat="38.2881870" lon="-0.7565220">
        <ele>268.2</ele>
        <time>2020-03-15T07:31:29Z</time>
      </trkpt>
      <trkpt lat="38.2882270" lon="-0.7565060">
        <ele>268.4</ele>
        <time>2020-03-15T07:31:30Z</time>
      </trkpt>
      <trkpt lat="38.2882640" lon="-0.7564930">
        <ele>268.8</ele>
        <time>2020-03-15T07:31:31Z</time>
      </trkpt>
      <trkpt lat="38.2883030" lon="-0.7564830">
        <ele>269.0</ele>
        <time>2020-03-15T07:31:32Z</time>
      </trkpt>
      <trkpt lat="38.2883410" lon="-0.7564770">
        <ele>269.4</ele>
        <time>2020-03-15T07:31:33Z</time>
      </trkpt>
      <trkpt lat="38.2884170" lon="-0.7564690">
        <ele>269.8</ele>
        <time>2020-03-15T07:31:34Z</time>
      </trkpt>
      <trkpt lat="38.2884170" lon="-0.7564690">
        <ele>270.0</ele>
        <time>2020-03-15T07:31:35Z</time>
      </trkpt>
      <trkpt lat="38.2884530" lon="-0.7564650">
        <ele>270.4</ele>
        <time>2020-03-15T07:31:36Z</time>
      </trkpt>
      <trkpt lat="38.2885250" lon="-0.7564610">
        <ele>270.6</ele>
        <time>2020-03-15T07:31:37Z</time>
      </trkpt>
      <trkpt lat="38.2885610" lon="-0.7564600">
        <ele>271.0</ele>
        <time>2020-03-15T07:31:38Z</time>
      </trkpt>
      <trkpt lat="38.2885960" lon="-0.7564630">
        <ele>271.2</ele>
        <time>2020-03-15T07:31:39Z</time>
      </trkpt>
      <trkpt lat="38.2885960" lon="-0.7564630">
        <ele>271.4</ele>
        <time>2020-03-15T07:31:40Z</time>
      </trkpt>
      <trkpt lat="38.2886300" lon="-0.7564660">
        <ele>271.6</ele>
        <time>2020-03-15T07:31:41Z</time>
      </trkpt>
      <trkpt lat="38.2886670" lon="-0.7564720">
        <ele>271.6</ele>
        <time>2020-03-15T07:31:42Z</time>
      </trkpt>
      <trkpt lat="38.2887060" lon="-0.7564800">
        <ele>271.6</ele>
        <time>2020-03-15T07:31:43Z</time>
      </trkpt>
      <trkpt lat="38.2887460" lon="-0.7564860">
        <ele>271.8</ele>
        <time>2020-03-15T07:31:44Z</time>
      </trkpt>
      <trkpt lat="38.2888400" lon="-0.7564870">
        <ele>271.4</ele>
        <time>2020-03-15T07:31:45Z</time>
      </trkpt>
      <trkpt lat="38.2888880" lon="-0.7564770">
        <ele>271.4</ele>
        <time>2020-03-15T07:31:46Z</time>
      </trkpt>
      <trkpt lat="38.2889120" lon="-0.7564680">
        <ele>271.4</ele>
        <time>2020-03-15T07:31:47Z</time>
      </trkpt>
      <trkpt lat="38.2889360" lon="-0.7564590">
        <ele>271.4</ele>
        <time>2020-03-15T07:31:48Z</time>
      </trkpt>
      <trkpt lat="38.2889860" lon="-0.7564380">
        <ele>271.4</ele>
        <time>2020-03-15T07:31:49Z</time>
      </trkpt>
      <trkpt lat="38.2890350" lon="-0.7564140">
        <ele>271.4</ele>
        <time>2020-03-15T07:31:50Z</time>
      </trkpt>
      <trkpt lat="38.2891380" lon="-0.7563630">
        <ele>271.4</ele>
        <time>2020-03-15T07:31:51Z</time>
      </trkpt>
      <trkpt lat="38.2891630" lon="-0.7563490">
        <ele>271.4</ele>
        <time>2020-03-15T07:31:52Z</time>
      </trkpt>
      <trkpt lat="38.2891880" lon="-0.7563350">
        <ele>271.4</ele>
        <time>2020-03-15T07:31:53Z</time>
      </trkpt>
      <trkpt lat="38.2892880" lon="-0.7562770">
        <ele>271.6</ele>
        <time>2020-03-15T07:31:54Z</time>
      </trkpt>
      <trkpt lat="38.2893380" lon="-0.7562450">
        <ele>271.8</ele>
        <time>2020-03-15T07:31:55Z</time>
      </trkpt>
      <trkpt lat="38.2893640" lon="-0.7562290">
        <ele>271.8</ele>
        <time>2020-03-15T07:31:56Z</time>
      </trkpt>
      <trkpt lat="38.2893900" lon="-0.7562130">
        <ele>271.8</ele>
        <time>2020-03-15T07:31:57Z</time>
      </trkpt>
      <trkpt lat="38.2894670" lon="-0.7561680">
        <ele>271.8</ele>
        <time>2020-03-15T07:31:58Z</time>
      </trkpt>
      <trkpt lat="38.2894930" lon="-0.7561540">
        <ele>272.0</ele>
        <time>2020-03-15T07:31:59Z</time>
      </trkpt>
      <trkpt lat="38.2895450" lon="-0.7561310">
        <ele>272.2</ele>
        <time>2020-03-15T07:32:00Z</time>
      </trkpt>
      <trkpt lat="38.2895990" lon="-0.7561110">
        <ele>272.2</ele>
        <time>2020-03-15T07:32:01Z</time>
      </trkpt>
      <trkpt lat="38.2896550" lon="-0.7560970">
        <ele>272.2</ele>
        <time>2020-03-15T07:32:02Z</time>
      </trkpt>
      <trkpt lat="38.2897740" lon="-0.7560840">
        <ele>272.2</ele>
        <time>2020-03-15T07:32:03Z</time>
      </trkpt>
      <trkpt lat="38.2898070" lon="-0.7560820">
        <ele>272.0</ele>
        <time>2020-03-15T07:32:04Z</time>
      </trkpt>
      <trkpt lat="38.2898400" lon="-0.7560800">
        <ele>271.4</ele>
        <time>2020-03-15T07:32:05Z</time>
      </trkpt>
      <trkpt lat="38.2899420" lon="-0.7560720">
        <ele>271.0</ele>
        <time>2020-03-15T07:32:06Z</time>
      </trkpt>
      <trkpt lat="38.2899770" lon="-0.7560680">
        <ele>271.0</ele>
        <time>2020-03-15T07:32:07Z</time>
      </trkpt>
      <trkpt lat="38.2901150" lon="-0.7560630">
        <ele>271.0</ele>
        <time>2020-03-15T07:32:08Z</time>
      </trkpt>
      <trkpt lat="38.2901830" lon="-0.7560660">
        <ele>271.2</ele>
        <time>2020-03-15T07:32:09Z</time>
      </trkpt>
      <trkpt lat="38.2902150" lon="-0.7560710">
        <ele>271.4</ele>
        <time>2020-03-15T07:32:10Z</time>
      </trkpt>
      <trkpt lat="38.2902470" lon="-0.7560770">
        <ele>272.0</ele>
        <time>2020-03-15T07:32:11Z</time>
      </trkpt>
      <trkpt lat="38.2903070" lon="-0.7560920">
        <ele>272.2</ele>
        <time>2020-03-15T07:32:12Z</time>
      </trkpt>
      <trkpt lat="38.2904100" lon="-0.7561120">
        <ele>272.6</ele>
        <time>2020-03-15T07:32:13Z</time>
      </trkpt>
      <trkpt lat="38.2904530" lon="-0.7561210">
        <ele>273.4</ele>
        <time>2020-03-15T07:32:14Z</time>
      </trkpt>
      <trkpt lat="38.2904730" lon="-0.7561240">
        <ele>273.8</ele>
        <time>2020-03-15T07:32:15Z</time>
      </trkpt>
      <trkpt lat="38.2904920" lon="-0.7561280">
        <ele>274.4</ele>
        <time>2020-03-15T07:32:16Z</time>
      </trkpt>
      <trkpt lat="38.2905300" lon="-0.7561310">
        <ele>274.8</ele>
        <time>2020-03-15T07:32:17Z</time>
      </trkpt>
      <trkpt lat="38.2906030" lon="-0.7561410">
        <ele>275.2</ele>
        <time>2020-03-15T07:32:18Z</time>
      </trkpt>
      <trkpt lat="38.2906220" lon="-0.7561420">
        <ele>275.6</ele>
        <time>2020-03-15T07:32:19Z</time>
      </trkpt>
      <trkpt lat="38.2906410" lon="-0.7561440">
        <ele>276.0</ele>
        <time>2020-03-15T07:32:20Z</time>
      </trkpt>
      <trkpt lat="38.2907170" lon="-0.7561440">
        <ele>276.2</ele>
        <time>2020-03-15T07:32:21Z</time>
      </trkpt>
      <trkpt lat="38.2907570" lon="-0.7561350">
        <ele>276.4</ele>
        <time>2020-03-15T07:32:22Z</time>
      </trkpt>
      <trkpt lat="38.2907960" lon="-0.7561260">
        <ele>276.6</ele>
        <time>2020-03-15T07:32:23Z</time>
      </trkpt>
      <trkpt lat="38.2908360" lon="-0.7561080">
        <ele>277.0</ele>
        <time>2020-03-15T07:32:24Z</time>
      </trkpt>
      <trkpt lat="38.2908750" lon="-0.7560890">
        <ele>277.0</ele>
        <time>2020-03-15T07:32:25Z</time>
      </trkpt>
      <trkpt lat="38.2909150" lon="-0.7560610">
        <ele>277.4</ele>
        <time>2020-03-15T07:32:26Z</time>
      </trkpt>
      <trkpt lat="38.2909550" lon="-0.7560330">
        <ele>277.6</ele>
        <time>2020-03-15T07:32:27Z</time>
      </trkpt>
      <trkpt lat="38.2909760" lon="-0.7560150">
        <ele>277.8</ele>
        <time>2020-03-15T07:32:28Z</time>
      </trkpt>
      <trkpt lat="38.2909970" lon="-0.7559970">
        <ele>277.8</ele>
        <time>2020-03-15T07:32:29Z</time>
      </trkpt>
      <trkpt lat="38.2910370" lon="-0.7559620">
        <ele>278.0</ele>
        <time>2020-03-15T07:32:30Z</time>
      </trkpt>
      <trkpt lat="38.2910780" lon="-0.7559300">
        <ele>278.0</ele>
        <time>2020-03-15T07:32:31Z</time>
      </trkpt>
      <trkpt lat="38.2911700" lon="-0.7558970">
        <ele>278.0</ele>
        <time>2020-03-15T07:32:32Z</time>
      </trkpt>
      <trkpt lat="38.2912190" lon="-0.7559020">
        <ele>278.2</ele>
        <time>2020-03-15T07:32:33Z</time>
      </trkpt>
      <trkpt lat="38.2912450" lon="-0.7559090">
        <ele>278.0</ele>
        <time>2020-03-15T07:32:34Z</time>
      </trkpt>
      <trkpt lat="38.2912710" lon="-0.7559160">
        <ele>277.6</ele>
        <time>2020-03-15T07:32:35Z</time>
      </trkpt>
      <trkpt lat="38.2913700" lon="-0.7559270">
        <ele>277.4</ele>
        <time>2020-03-15T07:32:36Z</time>
      </trkpt>
      <trkpt lat="38.2914170" lon="-0.7559220">
        <ele>277.0</ele>
        <time>2020-03-15T07:32:37Z</time>
      </trkpt>
      <trkpt lat="38.2915100" lon="-0.7559130">
        <ele>276.8</ele>
        <time>2020-03-15T07:32:38Z</time>
      </trkpt>
      <trkpt lat="38.2915430" lon="-0.7559050">
        <ele>276.6</ele>
        <time>2020-03-15T07:32:39Z</time>
      </trkpt>
      <trkpt lat="38.2915760" lon="-0.7558960">
        <ele>276.0</ele>
        <time>2020-03-15T07:32:40Z</time>
      </trkpt>
      <trkpt lat="38.2916800" lon="-0.7558790">
        <ele>275.8</ele>
        <time>2020-03-15T07:32:41Z</time>
      </trkpt>
      <trkpt lat="38.2917170" lon="-0.7558780">
        <ele>275.2</ele>
        <time>2020-03-15T07:32:42Z</time>
      </trkpt>
      <trkpt lat="38.2918770" lon="-0.7559120">
        <ele>274.6</ele>
        <time>2020-03-15T07:32:43Z</time>
      </trkpt>
      <trkpt lat="38.2919560" lon="-0.7559450">
        <ele>274.2</ele>
        <time>2020-03-15T07:32:44Z</time>
      </trkpt>
      <trkpt lat="38.2919920" lon="-0.7559660">
        <ele>274.4</ele>
        <time>2020-03-15T07:32:45Z</time>
      </trkpt>
      <trkpt lat="38.2920280" lon="-0.7559880">
        <ele>274.2</ele>
        <time>2020-03-15T07:32:46Z</time>
      </trkpt>
      <trkpt lat="38.2921650" lon="-0.7560780">
        <ele>274.2</ele>
        <time>2020-03-15T07:32:47Z</time>
      </trkpt>
      <trkpt lat="38.2922100" lon="-0.7561140">
        <ele>274.2</ele>
        <time>2020-03-15T07:32:48Z</time>
      </trkpt>
      <trkpt lat="38.2922540" lon="-0.7561510">
        <ele>274.4</ele>
        <time>2020-03-15T07:32:49Z</time>
      </trkpt>
      <trkpt lat="38.2923420" lon="-0.7562250">
        <ele>274.4</ele>
        <time>2020-03-15T07:32:50Z</time>
      </trkpt>
      <trkpt lat="38.2923690" lon="-0.7562500">
        <ele>274.4</ele>
        <time>2020-03-15T07:32:51Z</time>
      </trkpt>
      <trkpt lat="38.2923960" lon="-0.7562760">
        <ele>274.4</ele>
        <time>2020-03-15T07:32:52Z</time>
      </trkpt>
      <trkpt lat="38.2925030" lon="-0.7563820">
        <ele>274.8</ele>
        <time>2020-03-15T07:32:53Z</time>
      </trkpt>
      <trkpt lat="38.2925530" lon="-0.7564370">
        <ele>274.6</ele>
        <time>2020-03-15T07:32:54Z</time>
      </trkpt>
      <trkpt lat="38.2926030" lon="-0.7564940">
        <ele>274.6</ele>
        <time>2020-03-15T07:32:55Z</time>
      </trkpt>
      <trkpt lat="38.2926250" lon="-0.7565260">
        <ele>274.6</ele>
        <time>2020-03-15T07:32:56Z</time>
      </trkpt>
      <trkpt lat="38.2926470" lon="-0.7565580">
        <ele>274.6</ele>
        <time>2020-03-15T07:32:57Z</time>
      </trkpt>
      <trkpt lat="38.2927070" lon="-0.7566560">
        <ele>274.6</ele>
        <time>2020-03-15T07:32:58Z</time>
      </trkpt>
      <trkpt lat="38.2927240" lon="-0.7566900">
        <ele>274.6</ele>
        <time>2020-03-15T07:32:59Z</time>
      </trkpt>
      <trkpt lat="38.2927570" lon="-0.7567630">
        <ele>274.8</ele>
        <time>2020-03-15T07:33:00Z</time>
      </trkpt>
      <trkpt lat="38.2927930" lon="-0.7568310">
        <ele>274.8</ele>
        <time>2020-03-15T07:33:01Z</time>
      </trkpt>
      <trkpt lat="38.2928330" lon="-0.7568980">
        <ele>274.6</ele>
        <time>2020-03-15T07:33:02Z</time>
      </trkpt>
      <trkpt lat="38.2928800" lon="-0.7569590">
        <ele>274.4</ele>
        <time>2020-03-15T07:33:03Z</time>
      </trkpt>
      <trkpt lat="38.2929290" lon="-0.7570180">
        <ele>274.4</ele>
        <time>2020-03-15T07:33:04Z</time>
      </trkpt>
      <trkpt lat="38.2930300" lon="-0.7571320">
        <ele>274.4</ele>
        <time>2020-03-15T07:33:05Z</time>
      </trkpt>
      <trkpt lat="38.2930790" lon="-0.7571900">
        <ele>274.6</ele>
        <time>2020-03-15T07:33:06Z</time>
      </trkpt>
      <trkpt lat="38.2931030" lon="-0.7572190">
        <ele>274.6</ele>
        <time>2020-03-15T07:33:07Z</time>
      </trkpt>
      <trkpt lat="38.2931270" lon="-0.7572490">
        <ele>274.6</ele>
        <time>2020-03-15T07:33:08Z</time>
      </trkpt>
      <trkpt lat="38.2932200" lon="-0.7573680">
        <ele>274.4</ele>
        <time>2020-03-15T07:33:09Z</time>
      </trkpt>
      <trkpt lat="38.2932420" lon="-0.7574000">
        <ele>274.2</ele>
        <time>2020-03-15T07:33:10Z</time>
      </trkpt>
      <trkpt lat="38.2932630" lon="-0.7574330">
        <ele>274.2</ele>
        <time>2020-03-15T07:33:11Z</time>
      </trkpt>
      <trkpt lat="38.2933410" lon="-0.7575690">
        <ele>274.2</ele>
        <time>2020-03-15T07:33:12Z</time>
      </trkpt>
      <trkpt lat="38.2933720" lon="-0.7576420">
        <ele>274.2</ele>
        <time>2020-03-15T07:33:13Z</time>
      </trkpt>
      <trkpt lat="38.2933850" lon="-0.7577000">
        <ele>274.2</ele>
        <time>2020-03-15T07:33:14Z</time>
      </trkpt>
      <trkpt lat="38.2933980" lon="-0.7577580">
        <ele>274.2</ele>
        <time>2020-03-15T07:33:15Z</time>
      </trkpt>
      <trkpt lat="38.2934230" lon="-0.7578750">
        <ele>274.4</ele>
        <time>2020-03-15T07:33:16Z</time>
      </trkpt>
      <trkpt lat="38.2934280" lon="-0.7579560">
        <ele>274.4</ele>
        <time>2020-03-15T07:33:17Z</time>
      </trkpt>
      <trkpt lat="38.2934330" lon="-0.7580370">
        <ele>274.4</ele>
        <time>2020-03-15T07:33:18Z</time>
      </trkpt>
      <trkpt lat="38.2934360" lon="-0.7581180">
        <ele>274.4</ele>
        <time>2020-03-15T07:33:19Z</time>
      </trkpt>
      <trkpt lat="38.2934380" lon="-0.7582000">
        <ele>274.2</ele>
        <time>2020-03-15T07:33:20Z</time>
      </trkpt>
      <trkpt lat="38.2934390" lon="-0.7582400">
        <ele>274.4</ele>
        <time>2020-03-15T07:33:21Z</time>
      </trkpt>
      <trkpt lat="38.2934390" lon="-0.7582800">
        <ele>274.2</ele>
        <time>2020-03-15T07:33:22Z</time>
      </trkpt>
      <trkpt lat="38.2934380" lon="-0.7583610">
        <ele>274.6</ele>
        <time>2020-03-15T07:33:23Z</time>
      </trkpt>
      <trkpt lat="38.2934360" lon="-0.7584370">
        <ele>275.2</ele>
        <time>2020-03-15T07:33:24Z</time>
      </trkpt>
      <trkpt lat="38.2934400" lon="-0.7585580">
        <ele>275.8</ele>
        <time>2020-03-15T07:33:25Z</time>
      </trkpt>
      <trkpt lat="38.2934450" lon="-0.7585820">
        <ele>276.4</ele>
        <time>2020-03-15T07:33:26Z</time>
      </trkpt>
      <trkpt lat="38.2934500" lon="-0.7586060">
        <ele>277.0</ele>
        <time>2020-03-15T07:33:27Z</time>
      </trkpt>
      <trkpt lat="38.2935020" lon="-0.7586760">
        <ele>277.2</ele>
        <time>2020-03-15T07:33:28Z</time>
      </trkpt>
      <trkpt lat="38.2935300" lon="-0.7586690">
        <ele>277.4</ele>
        <time>2020-03-15T07:33:29Z</time>
      </trkpt>
      <trkpt lat="38.2935570" lon="-0.7586620">
        <ele>277.6</ele>
        <time>2020-03-15T07:33:30Z</time>
      </trkpt>
      <trkpt lat="38.2935680" lon="-0.7586300">
        <ele>277.6</ele>
        <time>2020-03-15T07:33:31Z</time>
      </trkpt>
      <trkpt lat="38.2935810" lon="-0.7586110">
        <ele>277.6</ele>
        <time>2020-03-15T07:33:32Z</time>
      </trkpt>
      <trkpt lat="38.2935970" lon="-0.7585990">
        <ele>277.6</ele>
        <time>2020-03-15T07:33:33Z</time>
      </trkpt>
      <trkpt lat="38.2935970" lon="-0.7585990">
        <ele>278.0</ele>
        <time>2020-03-15T07:33:34Z</time>
      </trkpt>
      <trkpt lat="38.2936170" lon="-0.7585940">
        <ele>278.2</ele>
        <time>2020-03-15T07:33:35Z</time>
      </trkpt>
      <trkpt lat="38.2936370" lon="-0.7585870">
        <ele>278.2</ele>
        <time>2020-03-15T07:33:36Z</time>
      </trkpt>
      <trkpt lat="38.2936820" lon="-0.7585720">
        <ele>278.6</ele>
        <time>2020-03-15T07:33:37Z</time>
      </trkpt>
      <trkpt lat="38.2937130" lon="-0.7585740">
        <ele>278.8</ele>
        <time>2020-03-15T07:33:38Z</time>
      </trkpt>
      <trkpt lat="38.2937440" lon="-0.7585770">
        <ele>278.8</ele>
        <time>2020-03-15T07:33:39Z</time>
      </trkpt>
      <trkpt lat="38.2937640" lon="-0.7585780">
        <ele>279.0</ele>
        <time>2020-03-15T07:33:40Z</time>
      </trkpt>
      <trkpt lat="38.2937830" lon="-0.7585790">
        <ele>278.8</ele>
        <time>2020-03-15T07:33:41Z</time>
      </trkpt>
      <trkpt lat="38.2938800" lon="-0.7585790">
        <ele>278.4</ele>
        <time>2020-03-15T07:33:42Z</time>
      </trkpt>
      <trkpt lat="38.2939350" lon="-0.7585680">
        <ele>278.4</ele>
        <time>2020-03-15T07:33:43Z</time>
      </trkpt>
      <trkpt lat="38.2939820" lon="-0.7585520">
        <ele>278.6</ele>
        <time>2020-03-15T07:33:44Z</time>
      </trkpt>
      <trkpt lat="38.2940290" lon="-0.7585350">
        <ele>279.2</ele>
        <time>2020-03-15T07:33:45Z</time>
      </trkpt>
      <trkpt lat="38.2940290" lon="-0.7585350">
        <ele>279.8</ele>
        <time>2020-03-15T07:33:46Z</time>
      </trkpt>
      <trkpt lat="38.2940620" lon="-0.7585190">
        <ele>280.0</ele>
        <time>2020-03-15T07:33:47Z</time>
      </trkpt>
      <trkpt lat="38.2940920" lon="-0.7584950">
        <ele>280.0</ele>
        <time>2020-03-15T07:33:48Z</time>
      </trkpt>
      <trkpt lat="38.2941280" lon="-0.7584680">
        <ele>279.6</ele>
        <time>2020-03-15T07:33:49Z</time>
      </trkpt>
      <trkpt lat="38.2941740" lon="-0.7584360">
        <ele>278.6</ele>
        <time>2020-03-15T07:33:50Z</time>
      </trkpt>
      <trkpt lat="38.2942290" lon="-0.7583940">
        <ele>277.8</ele>
        <time>2020-03-15T07:33:51Z</time>
      </trkpt>
      <trkpt lat="38.2942920" lon="-0.7583450">
        <ele>277.0</ele>
        <time>2020-03-15T07:33:52Z</time>
      </trkpt>
      <trkpt lat="38.2943550" lon="-0.7582860">
        <ele>276.4</ele>
        <time>2020-03-15T07:33:53Z</time>
      </trkpt>
      <trkpt lat="38.2944930" lon="-0.7581830">
        <ele>276.0</ele>
        <time>2020-03-15T07:33:54Z</time>
      </trkpt>
      <trkpt lat="38.2945320" lon="-0.7581760">
        <ele>275.4</ele>
        <time>2020-03-15T07:33:55Z</time>
      </trkpt>
      <trkpt lat="38.2945700" lon="-0.7581690">
        <ele>275.0</ele>
        <time>2020-03-15T07:33:56Z</time>
      </trkpt>
      <trkpt lat="38.2946860" lon="-0.7581590">
        <ele>274.4</ele>
        <time>2020-03-15T07:33:57Z</time>
      </trkpt>
      <trkpt lat="38.2947240" lon="-0.7581640">
        <ele>273.2</ele>
        <time>2020-03-15T07:33:58Z</time>
      </trkpt>
      <trkpt lat="38.2948080" lon="-0.7581630">
        <ele>272.2</ele>
        <time>2020-03-15T07:33:59Z</time>
      </trkpt>
      <trkpt lat="38.2948950" lon="-0.7581610">
        <ele>271.6</ele>
        <time>2020-03-15T07:34:00Z</time>
      </trkpt>
      <trkpt lat="38.2950570" lon="-0.7581020">
        <ele>271.2</ele>
        <time>2020-03-15T07:34:01Z</time>
      </trkpt>
      <trkpt lat="38.2950960" lon="-0.7580790">
        <ele>271.0</ele>
        <time>2020-03-15T07:34:02Z</time>
      </trkpt>
      <trkpt lat="38.2951340" lon="-0.7580560">
        <ele>271.0</ele>
        <time>2020-03-15T07:34:03Z</time>
      </trkpt>
      <trkpt lat="38.2952670" lon="-0.7579600">
        <ele>270.8</ele>
        <time>2020-03-15T07:34:04Z</time>
      </trkpt>
      <trkpt lat="38.2953270" lon="-0.7579090">
        <ele>271.0</ele>
        <time>2020-03-15T07:34:05Z</time>
      </trkpt>
      <trkpt lat="38.2953810" lon="-0.7578730">
        <ele>271.0</ele>
        <time>2020-03-15T07:34:06Z</time>
      </trkpt>
      <trkpt lat="38.2954340" lon="-0.7578360">
        <ele>270.0</ele>
        <time>2020-03-15T07:34:07Z</time>
      </trkpt>
      <trkpt lat="38.2955410" lon="-0.7577630">
        <ele>268.4</ele>
        <time>2020-03-15T07:34:08Z</time>
      </trkpt>
      <trkpt lat="38.2956070" lon="-0.7577310">
        <ele>267.0</ele>
        <time>2020-03-15T07:34:09Z</time>
      </trkpt>
      <trkpt lat="38.2956720" lon="-0.7576980">
        <ele>266.4</ele>
        <time>2020-03-15T07:34:10Z</time>
      </trkpt>
      <trkpt lat="38.2958030" lon="-0.7576330">
        <ele>266.4</ele>
        <time>2020-03-15T07:34:11Z</time>
      </trkpt>
      <trkpt lat="38.2958410" lon="-0.7576210">
        <ele>266.6</ele>
        <time>2020-03-15T07:34:12Z</time>
      </trkpt>
      <trkpt lat="38.2958790" lon="-0.7576090">
        <ele>267.0</ele>
        <time>2020-03-15T07:34:13Z</time>
      </trkpt>
      <trkpt lat="38.2959450" lon="-0.7575900">
        <ele>267.4</ele>
        <time>2020-03-15T07:34:14Z</time>
      </trkpt>
      <trkpt lat="38.2960090" lon="-0.7575770">
        <ele>267.6</ele>
        <time>2020-03-15T07:34:15Z</time>
      </trkpt>
      <trkpt lat="38.2960710" lon="-0.7575720">
        <ele>267.6</ele>
        <time>2020-03-15T07:34:16Z</time>
      </trkpt>
      <trkpt lat="38.2961370" lon="-0.7575660">
        <ele>267.2</ele>
        <time>2020-03-15T07:34:17Z</time>
      </trkpt>
      <trkpt lat="38.2962100" lon="-0.7575580">
        <ele>266.4</ele>
        <time>2020-03-15T07:34:18Z</time>
      </trkpt>
      <trkpt lat="38.2963690" lon="-0.7575510">
        <ele>266.0</ele>
        <time>2020-03-15T07:34:19Z</time>
      </trkpt>
      <trkpt lat="38.2964000" lon="-0.7575510">
        <ele>266.6</ele>
        <time>2020-03-15T07:34:20Z</time>
      </trkpt>
      <trkpt lat="38.2964310" lon="-0.7575510">
        <ele>267.6</ele>
        <time>2020-03-15T07:34:21Z</time>
      </trkpt>
      <trkpt lat="38.2965350" lon="-0.7575500">
        <ele>268.2</ele>
        <time>2020-03-15T07:34:22Z</time>
      </trkpt>
      <trkpt lat="38.2965760" lon="-0.7575490">
        <ele>268.8</ele>
        <time>2020-03-15T07:34:23Z</time>
      </trkpt>
      <trkpt lat="38.2966140" lon="-0.7575450">
        <ele>269.2</ele>
        <time>2020-03-15T07:34:24Z</time>
      </trkpt>
      <trkpt lat="38.2966140" lon="-0.7575450">
        <ele>269.8</ele>
        <time>2020-03-15T07:34:25Z</time>
      </trkpt>
      <trkpt lat="38.2966470" lon="-0.7575390">
        <ele>269.8</ele>
        <time>2020-03-15T07:34:26Z</time>
      </trkpt>
      <trkpt lat="38.2967140" lon="-0.7575230">
        <ele>269.8</ele>
        <time>2020-03-15T07:34:27Z</time>
      </trkpt>
      <trkpt lat="38.2967360" lon="-0.7575190">
        <ele>269.8</ele>
        <time>2020-03-15T07:34:28Z</time>
      </trkpt>
      <trkpt lat="38.2967580" lon="-0.7575140">
        <ele>269.4</ele>
        <time>2020-03-15T07:34:29Z</time>
      </trkpt>
      <trkpt lat="38.2968090" lon="-0.7575070">
        <ele>268.8</ele>
        <time>2020-03-15T07:34:30Z</time>
      </trkpt>
      <trkpt lat="38.2968720" lon="-0.7575030">
        <ele>268.2</ele>
        <time>2020-03-15T07:34:31Z</time>
      </trkpt>
      <trkpt lat="38.2970090" lon="-0.7575040">
        <ele>268.0</ele>
        <time>2020-03-15T07:34:32Z</time>
      </trkpt>
      <trkpt lat="38.2970400" lon="-0.7575070">
        <ele>268.2</ele>
        <time>2020-03-15T07:34:33Z</time>
      </trkpt>
      <trkpt lat="38.2970700" lon="-0.7575100">
        <ele>268.8</ele>
        <time>2020-03-15T07:34:34Z</time>
      </trkpt>
      <trkpt lat="38.2971220" lon="-0.7575160">
        <ele>269.6</ele>
        <time>2020-03-15T07:34:35Z</time>
      </trkpt>
      <trkpt lat="38.2971640" lon="-0.7575200">
        <ele>270.2</ele>
        <time>2020-03-15T07:34:36Z</time>
      </trkpt>
      <trkpt lat="38.2972250" lon="-0.7575260">
        <ele>270.6</ele>
        <time>2020-03-15T07:34:37Z</time>
      </trkpt>
      <trkpt lat="38.2972590" lon="-0.7575260">
        <ele>270.8</ele>
        <time>2020-03-15T07:34:38Z</time>
      </trkpt>
      <trkpt lat="38.2972920" lon="-0.7575270">
        <ele>270.6</ele>
        <time>2020-03-15T07:34:39Z</time>
      </trkpt>
      <trkpt lat="38.2973410" lon="-0.7575240">
        <ele>270.4</ele>
        <time>2020-03-15T07:34:40Z</time>
      </trkpt>
      <trkpt lat="38.2973710" lon="-0.7575230">
        <ele>269.6</ele>
        <time>2020-03-15T07:34:41Z</time>
      </trkpt>
      <trkpt lat="38.2974010" lon="-0.7575210">
        <ele>268.8</ele>
        <time>2020-03-15T07:34:42Z</time>
      </trkpt>
      <trkpt lat="38.2974700" lon="-0.7575120">
        <ele>268.2</ele>
        <time>2020-03-15T07:34:43Z</time>
      </trkpt>
      <trkpt lat="38.2975430" lon="-0.7574920">
        <ele>268.2</ele>
        <time>2020-03-15T07:34:44Z</time>
      </trkpt>
      <trkpt lat="38.2976580" lon="-0.7574590">
        <ele>268.4</ele>
        <time>2020-03-15T07:34:45Z</time>
      </trkpt>
      <trkpt lat="38.2977010" lon="-0.7574440">
        <ele>268.8</ele>
        <time>2020-03-15T07:34:46Z</time>
      </trkpt>
      <trkpt lat="38.2977220" lon="-0.7574370">
        <ele>269.2</ele>
        <time>2020-03-15T07:34:47Z</time>
      </trkpt>
      <trkpt lat="38.2977430" lon="-0.7574290">
        <ele>269.4</ele>
        <time>2020-03-15T07:34:48Z</time>
      </trkpt>
      <trkpt lat="38.2978200" lon="-0.7574080">
        <ele>269.8</ele>
        <time>2020-03-15T07:34:49Z</time>
      </trkpt>
      <trkpt lat="38.2978600" lon="-0.7573960">
        <ele>270.0</ele>
        <time>2020-03-15T07:34:50Z</time>
      </trkpt>
      <trkpt lat="38.2979060" lon="-0.7573860">
        <ele>270.0</ele>
        <time>2020-03-15T07:34:51Z</time>
      </trkpt>
      <trkpt lat="38.2979510" lon="-0.7573760">
        <ele>269.8</ele>
        <time>2020-03-15T07:34:52Z</time>
      </trkpt>
      <trkpt lat="38.2979920" lon="-0.7573750">
        <ele>269.8</ele>
        <time>2020-03-15T07:34:53Z</time>
      </trkpt>
      <trkpt lat="38.2980330" lon="-0.7573740">
        <ele>269.8</ele>
        <time>2020-03-15T07:34:54Z</time>
      </trkpt>
      <trkpt lat="38.2981150" lon="-0.7573710">
        <ele>269.4</ele>
        <time>2020-03-15T07:34:55Z</time>
      </trkpt>
      <trkpt lat="38.2981470" lon="-0.7573680">
        <ele>269.2</ele>
        <time>2020-03-15T07:34:56Z</time>
      </trkpt>
      <trkpt lat="38.2981780" lon="-0.7573640">
        <ele>269.0</ele>
        <time>2020-03-15T07:34:57Z</time>
      </trkpt>
      <trkpt lat="38.2982710" lon="-0.7573520">
        <ele>269.2</ele>
        <time>2020-03-15T07:34:58Z</time>
      </trkpt>
      <trkpt lat="38.2983010" lon="-0.7573460">
        <ele>269.4</ele>
        <time>2020-03-15T07:34:59Z</time>
      </trkpt>
      <trkpt lat="38.2983570" lon="-0.7573370">
        <ele>269.8</ele>
        <time>2020-03-15T07:35:00Z</time>
      </trkpt>
      <trkpt lat="38.2984550" lon="-0.7573230">
        <ele>270.0</ele>
        <time>2020-03-15T07:35:01Z</time>
      </trkpt>
      <trkpt lat="38.2984820" lon="-0.7573210">
        <ele>270.0</ele>
        <time>2020-03-15T07:35:02Z</time>
      </trkpt>
      <trkpt lat="38.2985080" lon="-0.7573190">
        <ele>270.2</ele>
        <time>2020-03-15T07:35:03Z</time>
      </trkpt>
      <trkpt lat="38.2985620" lon="-0.7573200">
        <ele>270.2</ele>
        <time>2020-03-15T07:35:04Z</time>
      </trkpt>
      <trkpt lat="38.2986680" lon="-0.7573170">
        <ele>270.2</ele>
        <time>2020-03-15T07:35:05Z</time>
      </trkpt>
      <trkpt lat="38.2986910" lon="-0.7573170">
        <ele>270.4</ele>
        <time>2020-03-15T07:35:06Z</time>
      </trkpt>
      <trkpt lat="38.2987140" lon="-0.7573180">
        <ele>271.0</ele>
        <time>2020-03-15T07:35:07Z</time>
      </trkpt>
      <trkpt lat="38.2987520" lon="-0.7573210">
        <ele>271.4</ele>
        <time>2020-03-15T07:35:08Z</time>
      </trkpt>
      <trkpt lat="38.2988190" lon="-0.7573260">
        <ele>271.8</ele>
        <time>2020-03-15T07:35:09Z</time>
      </trkpt>
      <trkpt lat="38.2988190" lon="-0.7573260">
        <ele>272.0</ele>
        <time>2020-03-15T07:35:10Z</time>
      </trkpt>
      <trkpt lat="38.2988550" lon="-0.7573300">
        <ele>272.4</ele>
        <time>2020-03-15T07:35:11Z</time>
      </trkpt>
      <trkpt lat="38.2988920" lon="-0.7573350">
        <ele>272.6</ele>
        <time>2020-03-15T07:35:12Z</time>
      </trkpt>
      <trkpt lat="38.2989310" lon="-0.7573400">
        <ele>272.6</ele>
        <time>2020-03-15T07:35:13Z</time>
      </trkpt>
      <trkpt lat="38.2989720" lon="-0.7573450">
        <ele>272.6</ele>
        <time>2020-03-15T07:35:14Z</time>
      </trkpt>
      <trkpt lat="38.2990540" lon="-0.7573530">
        <ele>272.8</ele>
        <time>2020-03-15T07:35:15Z</time>
      </trkpt>
      <trkpt lat="38.2990750" lon="-0.7573550">
        <ele>273.0</ele>
        <time>2020-03-15T07:35:16Z</time>
      </trkpt>
      <trkpt lat="38.2990950" lon="-0.7573580">
        <ele>273.4</ele>
        <time>2020-03-15T07:35:17Z</time>
      </trkpt>
      <trkpt lat="38.2991600" lon="-0.7573670">
        <ele>273.8</ele>
        <time>2020-03-15T07:35:18Z</time>
      </trkpt>
      <trkpt lat="38.2991600" lon="-0.7573670">
        <ele>274.0</ele>
        <time>2020-03-15T07:35:19Z</time>
      </trkpt>
      <trkpt lat="38.2991910" lon="-0.7573760">
        <ele>274.4</ele>
        <time>2020-03-15T07:35:20Z</time>
      </trkpt>
      <trkpt lat="38.2992230" lon="-0.7573820">
        <ele>274.8</ele>
        <time>2020-03-15T07:35:21Z</time>
      </trkpt>
      <trkpt lat="38.2992570" lon="-0.7573860">
        <ele>275.0</ele>
        <time>2020-03-15T07:35:22Z</time>
      </trkpt>
      <trkpt lat="38.2992920" lon="-0.7573900">
        <ele>275.2</ele>
        <time>2020-03-15T07:35:23Z</time>
      </trkpt>
      <trkpt lat="38.2993280" lon="-0.7573930">
        <ele>275.6</ele>
        <time>2020-03-15T07:35:24Z</time>
      </trkpt>
      <trkpt lat="38.2993630" lon="-0.7573970">
        <ele>275.6</ele>
        <time>2020-03-15T07:35:25Z</time>
      </trkpt>
      <trkpt lat="38.2993980" lon="-0.7574020">
        <ele>275.8</ele>
        <time>2020-03-15T07:35:26Z</time>
      </trkpt>
      <trkpt lat="38.2994730" lon="-0.7574150">
        <ele>276.0</ele>
        <time>2020-03-15T07:35:27Z</time>
      </trkpt>
      <trkpt lat="38.2995140" lon="-0.7574270">
        <ele>276.0</ele>
        <time>2020-03-15T07:35:28Z</time>
      </trkpt>
      <trkpt lat="38.2995570" lon="-0.7574420">
        <ele>275.8</ele>
        <time>2020-03-15T07:35:29Z</time>
      </trkpt>
      <trkpt lat="38.2995990" lon="-0.7574570">
        <ele>275.8</ele>
        <time>2020-03-15T07:35:30Z</time>
      </trkpt>
      <trkpt lat="38.2996220" lon="-0.7574620">
        <ele>275.8</ele>
        <time>2020-03-15T07:35:31Z</time>
      </trkpt>
      <trkpt lat="38.2996450" lon="-0.7574680">
        <ele>275.8</ele>
        <time>2020-03-15T07:35:32Z</time>
      </trkpt>
      <trkpt lat="38.2996870" lon="-0.7574750">
        <ele>275.8</ele>
        <time>2020-03-15T07:35:33Z</time>
      </trkpt>
      <trkpt lat="38.2997360" lon="-0.7574760">
        <ele>275.4</ele>
        <time>2020-03-15T07:35:34Z</time>
      </trkpt>
      <trkpt lat="38.2997920" lon="-0.7574780">
        <ele>275.2</ele>
        <time>2020-03-15T07:35:35Z</time>
      </trkpt>
      <trkpt lat="38.2998550" lon="-0.7574780">
        <ele>274.6</ele>
        <time>2020-03-15T07:35:36Z</time>
      </trkpt>
      <trkpt lat="38.2999850" lon="-0.7574680">
        <ele>274.0</ele>
        <time>2020-03-15T07:35:37Z</time>
      </trkpt>
      <trkpt lat="38.3000080" lon="-0.7574510">
        <ele>273.8</ele>
        <time>2020-03-15T07:35:38Z</time>
      </trkpt>
      <trkpt lat="38.3000310" lon="-0.7574340">
        <ele>273.6</ele>
        <time>2020-03-15T07:35:39Z</time>
      </trkpt>
      <trkpt lat="38.3000950" lon="-0.7573740">
        <ele>274.0</ele>
        <time>2020-03-15T07:35:40Z</time>
      </trkpt>
      <trkpt lat="38.3001120" lon="-0.7573490">
        <ele>274.2</ele>
        <time>2020-03-15T07:35:41Z</time>
      </trkpt>
      <trkpt lat="38.3001680" lon="-0.7572510">
        <ele>274.8</ele>
        <time>2020-03-15T07:35:42Z</time>
      </trkpt>
      <trkpt lat="38.3001830" lon="-0.7572320">
        <ele>275.2</ele>
        <time>2020-03-15T07:35:43Z</time>
      </trkpt>
      <trkpt lat="38.3001980" lon="-0.7572120">
        <ele>275.4</ele>
        <time>2020-03-15T07:35:44Z</time>
      </trkpt>
      <trkpt lat="38.3002270" lon="-0.7571770">
        <ele>275.6</ele>
        <time>2020-03-15T07:35:45Z</time>
      </trkpt>
      <trkpt lat="38.3002590" lon="-0.7571460">
        <ele>275.8</ele>
        <time>2020-03-15T07:35:46Z</time>
      </trkpt>
      <trkpt lat="38.3002940" lon="-0.7571190">
        <ele>276.0</ele>
        <time>2020-03-15T07:35:47Z</time>
      </trkpt>
      <trkpt lat="38.3003690" lon="-0.7570700">
        <ele>276.0</ele>
        <time>2020-03-15T07:35:48Z</time>
      </trkpt>
      <trkpt lat="38.3004090" lon="-0.7570500">
        <ele>276.0</ele>
        <time>2020-03-15T07:35:49Z</time>
      </trkpt>
      <trkpt lat="38.3004280" lon="-0.7570440">
        <ele>276.2</ele>
        <time>2020-03-15T07:35:50Z</time>
      </trkpt>
      <trkpt lat="38.3004460" lon="-0.7570370">
        <ele>276.4</ele>
        <time>2020-03-15T07:35:51Z</time>
      </trkpt>
      <trkpt lat="38.3004870" lon="-0.7570270">
        <ele>276.4</ele>
        <time>2020-03-15T07:35:52Z</time>
      </trkpt>
      <trkpt lat="38.3005290" lon="-0.7570170">
        <ele>276.4</ele>
        <time>2020-03-15T07:35:53Z</time>
      </trkpt>
      <trkpt lat="38.3005740" lon="-0.7570070">
        <ele>276.2</ele>
        <time>2020-03-15T07:35:54Z</time>
      </trkpt>
      <trkpt lat="38.3006730" lon="-0.7569910">
        <ele>276.0</ele>
        <time>2020-03-15T07:35:55Z</time>
      </trkpt>
      <trkpt lat="38.3007000" lon="-0.7569880">
        <ele>276.0</ele>
        <time>2020-03-15T07:35:56Z</time>
      </trkpt>
      <trkpt lat="38.3007260" lon="-0.7569840">
        <ele>275.6</ele>
        <time>2020-03-15T07:35:57Z</time>
      </trkpt>
      <trkpt lat="38.3008060" lon="-0.7569740">
        <ele>275.6</ele>
        <time>2020-03-15T07:35:58Z</time>
      </trkpt>
      <trkpt lat="38.3008330" lon="-0.7569700">
        <ele>275.4</ele>
        <time>2020-03-15T07:35:59Z</time>
      </trkpt>
      <trkpt lat="38.3008910" lon="-0.7569630">
        <ele>275.2</ele>
        <time>2020-03-15T07:36:00Z</time>
      </trkpt>
      <trkpt lat="38.3010090" lon="-0.7569460">
        <ele>275.2</ele>
        <time>2020-03-15T07:36:01Z</time>
      </trkpt>
      <trkpt lat="38.3010550" lon="-0.7569410">
        <ele>275.4</ele>
        <time>2020-03-15T07:36:02Z</time>
      </trkpt>
      <trkpt lat="38.3011010" lon="-0.7569350">
        <ele>275.0</ele>
        <time>2020-03-15T07:36:03Z</time>
      </trkpt>
      <trkpt lat="38.3011920" lon="-0.7569240">
        <ele>275.0</ele>
        <time>2020-03-15T07:36:04Z</time>
      </trkpt>
      <trkpt lat="38.3012230" lon="-0.7569220">
        <ele>275.0</ele>
        <time>2020-03-15T07:36:05Z</time>
      </trkpt>
      <trkpt lat="38.3012540" lon="-0.7569200">
        <ele>275.2</ele>
        <time>2020-03-15T07:36:06Z</time>
      </trkpt>
      <trkpt lat="38.3013150" lon="-0.7569250">
        <ele>275.6</ele>
        <time>2020-03-15T07:36:07Z</time>
      </trkpt>
      <trkpt lat="38.3013710" lon="-0.7569360">
        <ele>276.0</ele>
        <time>2020-03-15T07:36:08Z</time>
      </trkpt>
      <trkpt lat="38.3014660" lon="-0.7569740">
        <ele>276.2</ele>
        <time>2020-03-15T07:36:09Z</time>
      </trkpt>
      <trkpt lat="38.3015020" lon="-0.7569970">
        <ele>276.8</ele>
        <time>2020-03-15T07:36:10Z</time>
      </trkpt>
      <trkpt lat="38.3015320" lon="-0.7570230">
        <ele>277.0</ele>
        <time>2020-03-15T07:36:11Z</time>
      </trkpt>
      <trkpt lat="38.3015620" lon="-0.7570490">
        <ele>277.4</ele>
        <time>2020-03-15T07:36:12Z</time>
      </trkpt>
      <trkpt lat="38.3015620" lon="-0.7570490">
        <ele>277.6</ele>
        <time>2020-03-15T07:36:13Z</time>
      </trkpt>
      <trkpt lat="38.3015880" lon="-0.7570780">
        <ele>278.2</ele>
        <time>2020-03-15T07:36:14Z</time>
      </trkpt>
      <trkpt lat="38.3016400" lon="-0.7571360">
        <ele>278.4</ele>
        <time>2020-03-15T07:36:15Z</time>
      </trkpt>
      <trkpt lat="38.3016660" lon="-0.7571660">
        <ele>278.8</ele>
        <time>2020-03-15T07:36:16Z</time>
      </trkpt>
      <trkpt lat="38.3016910" lon="-0.7571940">
        <ele>279.2</ele>
        <time>2020-03-15T07:36:17Z</time>
      </trkpt>
      <trkpt lat="38.3017150" lon="-0.7572230">
        <ele>279.4</ele>
        <time>2020-03-15T07:36:18Z</time>
      </trkpt>
      <trkpt lat="38.3017410" lon="-0.7572490">
        <ele>279.8</ele>
        <time>2020-03-15T07:36:19Z</time>
      </trkpt>
      <trkpt lat="38.3017410" lon="-0.7572490">
        <ele>279.8</ele>
        <time>2020-03-15T07:36:20Z</time>
      </trkpt>
      <trkpt lat="38.3017710" lon="-0.7572690">
        <ele>280.2</ele>
        <time>2020-03-15T07:36:21Z</time>
      </trkpt>
      <trkpt lat="38.3018390" lon="-0.7572960">
        <ele>280.2</ele>
        <time>2020-03-15T07:36:22Z</time>
      </trkpt>
      <trkpt lat="38.3018580" lon="-0.7573010">
        <ele>280.4</ele>
        <time>2020-03-15T07:36:23Z</time>
      </trkpt>
      <trkpt lat="38.3018760" lon="-0.7573070">
        <ele>280.8</ele>
        <time>2020-03-15T07:36:24Z</time>
      </trkpt>
      <trkpt lat="38.3019460" lon="-0.7573330">
        <ele>281.0</ele>
        <time>2020-03-15T07:36:25Z</time>
      </trkpt>
      <trkpt lat="38.3019810" lon="-0.7573440">
        <ele>281.4</ele>
        <time>2020-03-15T07:36:26Z</time>
      </trkpt>
      <trkpt lat="38.3019990" lon="-0.7573480">
        <ele>281.4</ele>
        <time>2020-03-15T07:36:27Z</time>
      </trkpt>
      <trkpt lat="38.3020170" lon="-0.7573530">
        <ele>281.8</ele>
        <time>2020-03-15T07:36:28Z</time>
      </trkpt>
      <trkpt lat="38.3020530" lon="-0.7573580">
        <ele>282.0</ele>
        <time>2020-03-15T07:36:29Z</time>
      </trkpt>
      <trkpt lat="38.3021170" lon="-0.7573640">
        <ele>282.4</ele>
        <time>2020-03-15T07:36:30Z</time>
      </trkpt>
      <trkpt lat="38.3021170" lon="-0.7573640">
        <ele>282.6</ele>
        <time>2020-03-15T07:36:31Z</time>
      </trkpt>
      <trkpt lat="38.3021480" lon="-0.7573630">
        <ele>283.2</ele>
        <time>2020-03-15T07:36:32Z</time>
      </trkpt>
      <trkpt lat="38.3021760" lon="-0.7573600">
        <ele>283.4</ele>
        <time>2020-03-15T07:36:33Z</time>
      </trkpt>
      <trkpt lat="38.3022220" lon="-0.7573520">
        <ele>283.8</ele>
        <time>2020-03-15T07:36:34Z</time>
      </trkpt>
      <trkpt lat="38.3022460" lon="-0.7573360">
        <ele>284.0</ele>
        <time>2020-03-15T07:36:35Z</time>
      </trkpt>
      <trkpt lat="38.3022700" lon="-0.7573190">
        <ele>284.2</ele>
        <time>2020-03-15T07:36:36Z</time>
      </trkpt>
      <trkpt lat="38.3022700" lon="-0.7573190">
        <ele>284.4</ele>
        <time>2020-03-15T07:36:37Z</time>
      </trkpt>
      <trkpt lat="38.3022960" lon="-0.7572900">
        <ele>284.4</ele>
        <time>2020-03-15T07:36:38Z</time>
      </trkpt>
      <trkpt lat="38.3023520" lon="-0.7572310">
        <ele>284.2</ele>
        <time>2020-03-15T07:36:39Z</time>
      </trkpt>
      <trkpt lat="38.3023900" lon="-0.7571980">
        <ele>284.0</ele>
        <time>2020-03-15T07:36:40Z</time>
      </trkpt>
      <trkpt lat="38.3024310" lon="-0.7571760">
        <ele>283.8</ele>
        <time>2020-03-15T07:36:41Z</time>
      </trkpt>
      <trkpt lat="38.3024720" lon="-0.7571540">
        <ele>284.0</ele>
        <time>2020-03-15T07:36:42Z</time>
      </trkpt>
      <trkpt lat="38.3024720" lon="-0.7571540">
        <ele>284.2</ele>
        <time>2020-03-15T07:36:43Z</time>
      </trkpt>
      <trkpt lat="38.3025080" lon="-0.7571500">
        <ele>284.6</ele>
        <time>2020-03-15T07:36:44Z</time>
      </trkpt>
      <trkpt lat="38.3025380" lon="-0.7571530">
        <ele>285.0</ele>
        <time>2020-03-15T07:36:45Z</time>
      </trkpt>
      <trkpt lat="38.3025570" lon="-0.7571660">
        <ele>285.6</ele>
        <time>2020-03-15T07:36:46Z</time>
      </trkpt>
      <trkpt lat="38.3025770" lon="-0.7572070">
        <ele>286.0</ele>
        <time>2020-03-15T07:36:47Z</time>
      </trkpt>
      <trkpt lat="38.3025770" lon="-0.7572070">
        <ele>286.2</ele>
        <time>2020-03-15T07:36:48Z</time>
      </trkpt>
      <trkpt lat="38.3025770" lon="-0.7572380">
        <ele>286.6</ele>
        <time>2020-03-15T07:36:49Z</time>
      </trkpt>
      <trkpt lat="38.3025780" lon="-0.7572720">
        <ele>287.2</ele>
        <time>2020-03-15T07:36:50Z</time>
      </trkpt>
      <trkpt lat="38.3025740" lon="-0.7573410">
        <ele>287.2</ele>
        <time>2020-03-15T07:36:51Z</time>
      </trkpt>
      <trkpt lat="38.3025740" lon="-0.7573410">
        <ele>287.4</ele>
        <time>2020-03-15T07:36:52Z</time>
      </trkpt>
      <trkpt lat="38.3025720" lon="-0.7573710">
        <ele>287.8</ele>
        <time>2020-03-15T07:36:53Z</time>
      </trkpt>
      <trkpt lat="38.3025780" lon="-0.7573950">
        <ele>288.2</ele>
        <time>2020-03-15T07:36:54Z</time>
      </trkpt>
      <trkpt lat="38.3025860" lon="-0.7574180">
        <ele>288.6</ele>
        <time>2020-03-15T07:36:55Z</time>
      </trkpt>
      <trkpt lat="38.3025950" lon="-0.7574400">
        <ele>288.8</ele>
        <time>2020-03-15T07:36:56Z</time>
      </trkpt>
      <trkpt lat="38.3026060" lon="-0.7574620">
        <ele>289.2</ele>
        <time>2020-03-15T07:36:57Z</time>
      </trkpt>
      <trkpt lat="38.3026180" lon="-0.7574830">
        <ele>289.2</ele>
        <time>2020-03-15T07:36:58Z</time>
      </trkpt>
      <trkpt lat="38.3026280" lon="-0.7575120">
        <ele>289.0</ele>
        <time>2020-03-15T07:36:59Z</time>
      </trkpt>
      <trkpt lat="38.3026350" lon="-0.7575460">
        <ele>288.8</ele>
        <time>2020-03-15T07:37:00Z</time>
      </trkpt>
      <trkpt lat="38.3026410" lon="-0.7575860">
        <ele>288.6</ele>
        <time>2020-03-15T07:37:01Z</time>
      </trkpt>
      <trkpt lat="38.3026490" lon="-0.7576810">
        <ele>288.6</ele>
        <time>2020-03-15T07:37:02Z</time>
      </trkpt>
      <trkpt lat="38.3026480" lon="-0.7577080">
        <ele>288.6</ele>
        <time>2020-03-15T07:37:03Z</time>
      </trkpt>
      <trkpt lat="38.3026470" lon="-0.7577350">
        <ele>288.4</ele>
        <time>2020-03-15T07:37:04Z</time>
      </trkpt>
      <trkpt lat="38.3026400" lon="-0.7577900">
        <ele>288.4</ele>
        <time>2020-03-15T07:37:05Z</time>
      </trkpt>
      <trkpt lat="38.3026340" lon="-0.7578450">
        <ele>288.4</ele>
        <time>2020-03-15T07:37:06Z</time>
      </trkpt>
      <trkpt lat="38.3026300" lon="-0.7578960">
        <ele>288.4</ele>
        <time>2020-03-15T07:37:07Z</time>
      </trkpt>
      <trkpt lat="38.3026270" lon="-0.7579480">
        <ele>288.6</ele>
        <time>2020-03-15T07:37:08Z</time>
      </trkpt>
      <trkpt lat="38.3026270" lon="-0.7579980">
        <ele>288.6</ele>
        <time>2020-03-15T07:37:09Z</time>
      </trkpt>
      <trkpt lat="38.3026430" lon="-0.7580810">
        <ele>288.6</ele>
        <time>2020-03-15T07:37:10Z</time>
      </trkpt>
      <trkpt lat="38.3026430" lon="-0.7580810">
        <ele>288.6</ele>
        <time>2020-03-15T07:37:11Z</time>
      </trkpt>
      <trkpt lat="38.3026580" lon="-0.7580950">
        <ele>288.2</ele>
        <time>2020-03-15T07:37:12Z</time>
      </trkpt>
      <trkpt lat="38.3026510" lon="-0.7581420">
        <ele>288.2</ele>
        <time>2020-03-15T07:37:14Z</time>
      </trkpt>
      <trkpt lat="38.3026370" lon="-0.7581650">
        <ele>288.6</ele>
        <time>2020-03-15T07:37:15Z</time>
      </trkpt>
      <trkpt lat="38.3026230" lon="-0.7581890">
        <ele>289.0</ele>
        <time>2020-03-15T07:37:16Z</time>
      </trkpt>
      <trkpt lat="38.3026070" lon="-0.7582160">
        <ele>289.0</ele>
        <time>2020-03-15T07:37:17Z</time>
      </trkpt>
      <trkpt lat="38.3026000" lon="-0.7582500">
        <ele>289.2</ele>
        <time>2020-03-15T07:37:18Z</time>
      </trkpt>
      <trkpt lat="38.3025980" lon="-0.7582900">
        <ele>289.4</ele>
        <time>2020-03-15T07:37:19Z</time>
      </trkpt>
      <trkpt lat="38.3025930" lon="-0.7583320">
        <ele>289.4</ele>
        <time>2020-03-15T07:37:20Z</time>
      </trkpt>
      <trkpt lat="38.3025880" lon="-0.7583730">
        <ele>289.8</ele>
        <time>2020-03-15T07:37:21Z</time>
      </trkpt>
      <trkpt lat="38.3025880" lon="-0.7583730">
        <ele>290.0</ele>
        <time>2020-03-15T07:37:22Z</time>
      </trkpt>
      <trkpt lat="38.3025810" lon="-0.7584170">
        <ele>290.2</ele>
        <time>2020-03-15T07:37:23Z</time>
      </trkpt>
      <trkpt lat="38.3025740" lon="-0.7585050">
        <ele>290.2</ele>
        <time>2020-03-15T07:37:24Z</time>
      </trkpt>
      <trkpt lat="38.3025740" lon="-0.7585050">
        <ele>290.4</ele>
        <time>2020-03-15T07:37:25Z</time>
      </trkpt>
      <trkpt lat="38.3025740" lon="-0.7585500">
        <ele>290.8</ele>
        <time>2020-03-15T07:37:26Z</time>
      </trkpt>
      <trkpt lat="38.3025760" lon="-0.7586430">
        <ele>290.8</ele>
        <time>2020-03-15T07:37:27Z</time>
      </trkpt>
      <trkpt lat="38.3025790" lon="-0.7586660">
        <ele>291.0</ele>
        <time>2020-03-15T07:37:28Z</time>
      </trkpt>
      <trkpt lat="38.3025820" lon="-0.7586890">
        <ele>291.4</ele>
        <time>2020-03-15T07:37:29Z</time>
      </trkpt>
      <trkpt lat="38.3025990" lon="-0.7587760">
        <ele>291.6</ele>
        <time>2020-03-15T07:37:30Z</time>
      </trkpt>
      <trkpt lat="38.3026140" lon="-0.7588180">
        <ele>292.2</ele>
        <time>2020-03-15T07:37:32Z</time>
      </trkpt>
      <trkpt lat="38.3026300" lon="-0.7588620">
        <ele>292.6</ele>
        <time>2020-03-15T07:37:33Z</time>
      </trkpt>
      <trkpt lat="38.3026610" lon="-0.7589450">
        <ele>292.8</ele>
        <time>2020-03-15T07:37:34Z</time>
      </trkpt>
      <trkpt lat="38.3026610" lon="-0.7589450">
        <ele>293.0</ele>
        <time>2020-03-15T07:37:35Z</time>
      </trkpt>
      <trkpt lat="38.3026790" lon="-0.7589750">
        <ele>293.2</ele>
        <time>2020-03-15T07:37:36Z</time>
      </trkpt>
      <trkpt lat="38.3027220" lon="-0.7590360">
        <ele>293.4</ele>
        <time>2020-03-15T07:37:37Z</time>
      </trkpt>
      <trkpt lat="38.3027420" lon="-0.7590610">
        <ele>293.6</ele>
        <time>2020-03-15T07:37:38Z</time>
      </trkpt>
      <trkpt lat="38.3027600" lon="-0.7590920">
        <ele>293.6</ele>
        <time>2020-03-15T07:37:39Z</time>
      </trkpt>
      <trkpt lat="38.3027780" lon="-0.7591260">
        <ele>293.8</ele>
        <time>2020-03-15T07:37:40Z</time>
      </trkpt>
      <trkpt lat="38.3027780" lon="-0.7591260">
        <ele>294.2</ele>
        <time>2020-03-15T07:37:41Z</time>
      </trkpt>
      <trkpt lat="38.3027960" lon="-0.7591560">
        <ele>294.4</ele>
        <time>2020-03-15T07:37:42Z</time>
      </trkpt>
      <trkpt lat="38.3028380" lon="-0.7592150">
        <ele>294.4</ele>
        <time>2020-03-15T07:37:43Z</time>
      </trkpt>
      <trkpt lat="38.3028610" lon="-0.7592400">
        <ele>294.8</ele>
        <time>2020-03-15T07:37:44Z</time>
      </trkpt>
      <trkpt lat="38.3028830" lon="-0.7592660">
        <ele>295.2</ele>
        <time>2020-03-15T07:37:45Z</time>
      </trkpt>
      <trkpt lat="38.3028830" lon="-0.7592660">
        <ele>295.2</ele>
        <time>2020-03-15T07:37:46Z</time>
      </trkpt>
      <trkpt lat="38.3029040" lon="-0.7592960">
        <ele>295.6</ele>
        <time>2020-03-15T07:37:47Z</time>
      </trkpt>
      <trkpt lat="38.3029420" lon="-0.7593540">
        <ele>295.8</ele>
        <time>2020-03-15T07:37:48Z</time>
      </trkpt>
      <trkpt lat="38.3029520" lon="-0.7593830">
        <ele>296.2</ele>
        <time>2020-03-15T07:37:49Z</time>
      </trkpt>
      <trkpt lat="38.3029520" lon="-0.7593830">
        <ele>296.6</ele>
        <time>2020-03-15T07:37:50Z</time>
      </trkpt>
      <trkpt lat="38.3029620" lon="-0.7594140">
        <ele>296.8</ele>
        <time>2020-03-15T07:37:51Z</time>
      </trkpt>
      <trkpt lat="38.3029730" lon="-0.7594470">
        <ele>297.2</ele>
        <time>2020-03-15T07:37:52Z</time>
      </trkpt>
      <trkpt lat="38.3029890" lon="-0.7595110">
        <ele>297.4</ele>
        <time>2020-03-15T07:37:53Z</time>
      </trkpt>
      <trkpt lat="38.3029950" lon="-0.7595430">
        <ele>297.8</ele>
        <time>2020-03-15T07:37:54Z</time>
      </trkpt>
      <trkpt lat="38.3029950" lon="-0.7595430">
        <ele>298.0</ele>
        <time>2020-03-15T07:37:55Z</time>
      </trkpt>
      <trkpt lat="38.3030000" lon="-0.7595740">
        <ele>298.2</ele>
        <time>2020-03-15T07:37:56Z</time>
      </trkpt>
      <trkpt lat="38.3030060" lon="-0.7596060">
        <ele>298.6</ele>
        <time>2020-03-15T07:37:57Z</time>
      </trkpt>
      <trkpt lat="38.3030100" lon="-0.7596610">
        <ele>298.8</ele>
        <time>2020-03-15T07:37:58Z</time>
      </trkpt>
      <trkpt lat="38.3030110" lon="-0.7596910">
        <ele>299.2</ele>
        <time>2020-03-15T07:37:59Z</time>
      </trkpt>
      <trkpt lat="38.3030110" lon="-0.7596910">
        <ele>299.4</ele>
        <time>2020-03-15T07:38:00Z</time>
      </trkpt>
      <trkpt lat="38.3030120" lon="-0.7597180">
        <ele>299.6</ele>
        <time>2020-03-15T07:38:01Z</time>
      </trkpt>
      <trkpt lat="38.3030150" lon="-0.7597800">
        <ele>299.8</ele>
        <time>2020-03-15T07:38:02Z</time>
      </trkpt>
      <trkpt lat="38.3030150" lon="-0.7597800">
        <ele>300.0</ele>
        <time>2020-03-15T07:38:03Z</time>
      </trkpt>
      <trkpt lat="38.3030150" lon="-0.7598110">
        <ele>300.4</ele>
        <time>2020-03-15T07:38:04Z</time>
      </trkpt>
      <trkpt lat="38.3030140" lon="-0.7598410">
        <ele>300.6</ele>
        <time>2020-03-15T07:38:05Z</time>
      </trkpt>
      <trkpt lat="38.3030150" lon="-0.7598740">
        <ele>301.0</ele>
        <time>2020-03-15T07:38:06Z</time>
      </trkpt>
      <trkpt lat="38.3030110" lon="-0.7599370">
        <ele>301.2</ele>
        <time>2020-03-15T07:38:07Z</time>
      </trkpt>
      <trkpt lat="38.3030080" lon="-0.7599670">
        <ele>301.6</ele>
        <time>2020-03-15T07:38:08Z</time>
      </trkpt>
      <trkpt lat="38.3030050" lon="-0.7599970">
        <ele>301.8</ele>
        <time>2020-03-15T07:38:09Z</time>
      </trkpt>
      <trkpt lat="38.3030090" lon="-0.7600270">
        <ele>302.0</ele>
        <time>2020-03-15T07:38:10Z</time>
      </trkpt>
      <trkpt lat="38.3030130" lon="-0.7600580">
        <ele>302.2</ele>
        <time>2020-03-15T07:38:11Z</time>
      </trkpt>
      <trkpt lat="38.3030130" lon="-0.7600580">
        <ele>302.6</ele>
        <time>2020-03-15T07:38:12Z</time>
      </trkpt>
      <trkpt lat="38.3030160" lon="-0.7600870">
        <ele>302.8</ele>
        <time>2020-03-15T07:38:13Z</time>
      </trkpt>
      <trkpt lat="38.3030210" lon="-0.7601170">
        <ele>303.0</ele>
        <time>2020-03-15T07:38:14Z</time>
      </trkpt>
      <trkpt lat="38.3030220" lon="-0.7601840">
        <ele>303.0</ele>
        <time>2020-03-15T07:38:15Z</time>
      </trkpt>
      <trkpt lat="38.3030220" lon="-0.7601840">
        <ele>303.0</ele>
        <time>2020-03-15T07:38:16Z</time>
      </trkpt>
      <trkpt lat="38.3030270" lon="-0.7602250">
        <ele>303.2</ele>
        <time>2020-03-15T07:38:17Z</time>
      </trkpt>
      <trkpt lat="38.3030320" lon="-0.7603160">
        <ele>303.0</ele>
        <time>2020-03-15T07:38:18Z</time>
      </trkpt>
      <trkpt lat="38.3030350" lon="-0.7603390">
        <ele>303.2</ele>
        <time>2020-03-15T07:38:19Z</time>
      </trkpt>
      <trkpt lat="38.3030370" lon="-0.7603620">
        <ele>303.2</ele>
        <time>2020-03-15T07:38:20Z</time>
      </trkpt>
      <trkpt lat="38.3030460" lon="-0.7604580">
        <ele>303.2</ele>
        <time>2020-03-15T07:38:21Z</time>
      </trkpt>
      <trkpt lat="38.3030550" lon="-0.7605090">
        <ele>303.4</ele>
        <time>2020-03-15T07:38:22Z</time>
      </trkpt>
      <trkpt lat="38.3030630" lon="-0.7605610">
        <ele>303.4</ele>
        <time>2020-03-15T07:38:23Z</time>
      </trkpt>
      <trkpt lat="38.3030750" lon="-0.7606130">
        <ele>303.6</ele>
        <time>2020-03-15T07:38:24Z</time>
      </trkpt>
      <trkpt lat="38.3030880" lon="-0.7606580">
        <ele>303.8</ele>
        <time>2020-03-15T07:38:25Z</time>
      </trkpt>
      <trkpt lat="38.3031050" lon="-0.7607010">
        <ele>304.0</ele>
        <time>2020-03-15T07:38:26Z</time>
      </trkpt>
      <trkpt lat="38.3031190" lon="-0.7607480">
        <ele>304.4</ele>
        <time>2020-03-15T07:38:27Z</time>
      </trkpt>
      <trkpt lat="38.3031270" lon="-0.7607700">
        <ele>304.6</ele>
        <time>2020-03-15T07:38:28Z</time>
      </trkpt>
      <trkpt lat="38.3031350" lon="-0.7607930">
        <ele>305.0</ele>
        <time>2020-03-15T07:38:29Z</time>
      </trkpt>
      <trkpt lat="38.3031730" lon="-0.7608810">
        <ele>305.0</ele>
        <time>2020-03-15T07:38:30Z</time>
      </trkpt>
      <trkpt lat="38.3031940" lon="-0.7609260">
        <ele>305.2</ele>
        <time>2020-03-15T07:38:31Z</time>
      </trkpt>
      <trkpt lat="38.3032150" lon="-0.7609710">
        <ele>305.4</ele>
        <time>2020-03-15T07:38:32Z</time>
      </trkpt>
      <trkpt lat="38.3032410" lon="-0.7610080">
        <ele>305.8</ele>
        <time>2020-03-15T07:38:33Z</time>
      </trkpt>
      <trkpt lat="38.3032660" lon="-0.7610450">
        <ele>306.0</ele>
        <time>2020-03-15T07:38:34Z</time>
      </trkpt>
      <trkpt lat="38.3032890" lon="-0.7610810">
        <ele>306.2</ele>
        <time>2020-03-15T07:38:35Z</time>
      </trkpt>
      <trkpt lat="38.3033110" lon="-0.7611140">
        <ele>306.6</ele>
        <time>2020-03-15T07:38:36Z</time>
      </trkpt>
      <trkpt lat="38.3033330" lon="-0.7611470">
        <ele>306.8</ele>
        <time>2020-03-15T07:38:37Z</time>
      </trkpt>
      <trkpt lat="38.3033330" lon="-0.7611470">
        <ele>307.0</ele>
        <time>2020-03-15T07:38:38Z</time>
      </trkpt>
      <trkpt lat="38.3033530" lon="-0.7611800">
        <ele>307.2</ele>
        <time>2020-03-15T07:38:39Z</time>
      </trkpt>
      <trkpt lat="38.3033730" lon="-0.7612130">
        <ele>307.6</ele>
        <time>2020-03-15T07:38:40Z</time>
      </trkpt>
      <trkpt lat="38.3034120" lon="-0.7612700">
        <ele>307.8</ele>
        <time>2020-03-15T07:38:41Z</time>
      </trkpt>
      <trkpt lat="38.3034290" lon="-0.7612970">
        <ele>308.4</ele>
        <time>2020-03-15T07:38:42Z</time>
      </trkpt>
      <trkpt lat="38.3034460" lon="-0.7613270">
        <ele>308.4</ele>
        <time>2020-03-15T07:38:43Z</time>
      </trkpt>
      <trkpt lat="38.3034630" lon="-0.7613570">
        <ele>308.6</ele>
        <time>2020-03-15T07:38:44Z</time>
      </trkpt>
      <trkpt lat="38.3034840" lon="-0.7613820">
        <ele>309.0</ele>
        <time>2020-03-15T07:38:45Z</time>
      </trkpt>
      <trkpt lat="38.3035050" lon="-0.7614080">
        <ele>309.0</ele>
        <time>2020-03-15T07:38:46Z</time>
      </trkpt>
      <trkpt lat="38.3035260" lon="-0.7614370">
        <ele>309.2</ele>
        <time>2020-03-15T07:38:47Z</time>
      </trkpt>
      <trkpt lat="38.3035480" lon="-0.7614660">
        <ele>309.4</ele>
        <time>2020-03-15T07:38:48Z</time>
      </trkpt>
      <trkpt lat="38.3035710" lon="-0.7614920">
        <ele>309.6</ele>
        <time>2020-03-15T07:38:49Z</time>
      </trkpt>
      <trkpt lat="38.3035950" lon="-0.7615190">
        <ele>310.0</ele>
        <time>2020-03-15T07:38:50Z</time>
      </trkpt>
      <trkpt lat="38.3036190" lon="-0.7615460">
        <ele>310.0</ele>
        <time>2020-03-15T07:38:51Z</time>
      </trkpt>
      <trkpt lat="38.3036410" lon="-0.7615750">
        <ele>310.0</ele>
        <time>2020-03-15T07:38:52Z</time>
      </trkpt>
      <trkpt lat="38.3036710" lon="-0.7616180">
        <ele>310.0</ele>
        <time>2020-03-15T07:38:53Z</time>
      </trkpt>
      <trkpt lat="38.3037000" lon="-0.7616620">
        <ele>309.8</ele>
        <time>2020-03-15T07:38:54Z</time>
      </trkpt>
      <trkpt lat="38.3037290" lon="-0.7617180">
        <ele>309.4</ele>
        <time>2020-03-15T07:38:55Z</time>
      </trkpt>
      <trkpt lat="38.3037640" lon="-0.7617880">
        <ele>308.6</ele>
        <time>2020-03-15T07:38:56Z</time>
      </trkpt>
      <trkpt lat="38.3037890" lon="-0.7618490">
        <ele>307.8</ele>
        <time>2020-03-15T07:38:57Z</time>
      </trkpt>
      <trkpt lat="38.3038130" lon="-0.7619110">
        <ele>307.2</ele>
        <time>2020-03-15T07:38:58Z</time>
      </trkpt>
      <trkpt lat="38.3038610" lon="-0.7620340">
        <ele>307.0</ele>
        <time>2020-03-15T07:38:59Z</time>
      </trkpt>
      <trkpt lat="38.3038930" lon="-0.7621160">
        <ele>306.6</ele>
        <time>2020-03-15T07:39:00Z</time>
      </trkpt>
      <trkpt lat="38.3039190" lon="-0.7621780">
        <ele>306.2</ele>
        <time>2020-03-15T07:39:01Z</time>
      </trkpt>
      <trkpt lat="38.3039450" lon="-0.7622410">
        <ele>305.6</ele>
        <time>2020-03-15T07:39:02Z</time>
      </trkpt>
      <trkpt lat="38.3039970" lon="-0.7623670">
        <ele>305.2</ele>
        <time>2020-03-15T07:39:03Z</time>
      </trkpt>
      <trkpt lat="38.3040050" lon="-0.7624380">
        <ele>304.8</ele>
        <time>2020-03-15T07:39:04Z</time>
      </trkpt>
      <trkpt lat="38.3040120" lon="-0.7625090">
        <ele>304.4</ele>
        <time>2020-03-15T07:39:05Z</time>
      </trkpt>
      <trkpt lat="38.3040270" lon="-0.7626520">
        <ele>304.0</ele>
        <time>2020-03-15T07:39:06Z</time>
      </trkpt>
      <trkpt lat="38.3040170" lon="-0.7626970">
        <ele>303.8</ele>
        <time>2020-03-15T07:39:07Z</time>
      </trkpt>
      <trkpt lat="38.3040070" lon="-0.7627410">
        <ele>303.8</ele>
        <time>2020-03-15T07:39:08Z</time>
      </trkpt>
      <trkpt lat="38.3039470" lon="-0.7629000">
        <ele>303.6</ele>
        <time>2020-03-15T07:39:09Z</time>
      </trkpt>
      <trkpt lat="38.3039120" lon="-0.7629700">
        <ele>303.6</ele>
        <time>2020-03-15T07:39:10Z</time>
      </trkpt>
      <trkpt lat="38.3038560" lon="-0.7631290">
        <ele>303.4</ele>
        <time>2020-03-15T07:39:12Z</time>
      </trkpt>
      <trkpt lat="38.3038260" lon="-0.7632130">
        <ele>303.2</ele>
        <time>2020-03-15T07:39:13Z</time>
      </trkpt>
      <trkpt lat="38.3037950" lon="-0.7633010">
        <ele>302.8</ele>
        <time>2020-03-15T07:39:14Z</time>
      </trkpt>
      <trkpt lat="38.3037660" lon="-0.7633910">
        <ele>302.6</ele>
        <time>2020-03-15T07:39:15Z</time>
      </trkpt>
      <trkpt lat="38.3037490" lon="-0.7634900">
        <ele>302.2</ele>
        <time>2020-03-15T07:39:16Z</time>
      </trkpt>
      <trkpt lat="38.3037630" lon="-0.7635570">
        <ele>301.6</ele>
        <time>2020-03-15T07:39:17Z</time>
      </trkpt>
      <trkpt lat="38.3037760" lon="-0.7636250">
        <ele>300.4</ele>
        <time>2020-03-15T07:39:18Z</time>
      </trkpt>
      <trkpt lat="38.3038020" lon="-0.7637610">
        <ele>299.8</ele>
        <time>2020-03-15T07:39:19Z</time>
      </trkpt>
      <trkpt lat="38.3038450" lon="-0.7638010">
        <ele>299.4</ele>
        <time>2020-03-15T07:39:20Z</time>
      </trkpt>
      <trkpt lat="38.3038930" lon="-0.7638220">
        <ele>299.4</ele>
        <time>2020-03-15T07:39:21Z</time>
      </trkpt>
      <trkpt lat="38.3039360" lon="-0.7638090">
        <ele>299.8</ele>
        <time>2020-03-15T07:39:22Z</time>
      </trkpt>
      <trkpt lat="38.3039690" lon="-0.7637860">
        <ele>300.2</ele>
        <time>2020-03-15T07:39:23Z</time>
      </trkpt>
      <trkpt lat="38.3040020" lon="-0.7637630">
        <ele>300.4</ele>
        <time>2020-03-15T07:39:24Z</time>
      </trkpt>
      <trkpt lat="38.3040310" lon="-0.7637370">
        <ele>300.8</ele>
        <time>2020-03-15T07:39:25Z</time>
      </trkpt>
      <trkpt lat="38.3040850" lon="-0.7636710">
        <ele>301.2</ele>
        <time>2020-03-15T07:39:27Z</time>
      </trkpt>
      <trkpt lat="38.3041130" lon="-0.7636340">
        <ele>301.4</ele>
        <time>2020-03-15T07:39:28Z</time>
      </trkpt>
      <trkpt lat="38.3041440" lon="-0.7635930">
        <ele>301.2</ele>
        <time>2020-03-15T07:39:29Z</time>
      </trkpt>
      <trkpt lat="38.3041790" lon="-0.7635490">
        <ele>301.0</ele>
        <time>2020-03-15T07:39:30Z</time>
      </trkpt>
      <trkpt lat="38.3042010" lon="-0.7635200">
        <ele>300.6</ele>
        <time>2020-03-15T07:39:31Z</time>
      </trkpt>
      <trkpt lat="38.3042220" lon="-0.7634900">
        <ele>300.0</ele>
        <time>2020-03-15T07:39:32Z</time>
      </trkpt>
      <trkpt lat="38.3043100" lon="-0.7633850">
        <ele>299.0</ele>
        <time>2020-03-15T07:39:33Z</time>
      </trkpt>
      <trkpt lat="38.3043560" lon="-0.7633400">
        <ele>298.2</ele>
        <time>2020-03-15T07:39:34Z</time>
      </trkpt>
      <trkpt lat="38.3044470" lon="-0.7632490">
        <ele>297.4</ele>
        <time>2020-03-15T07:39:35Z</time>
      </trkpt>
      <trkpt lat="38.3044930" lon="-0.7631930">
        <ele>296.6</ele>
        <time>2020-03-15T07:39:36Z</time>
      </trkpt>
      <trkpt lat="38.3045380" lon="-0.7631360">
        <ele>295.8</ele>
        <time>2020-03-15T07:39:37Z</time>
      </trkpt>
      <trkpt lat="38.3046280" lon="-0.7630220">
        <ele>295.4</ele>
        <time>2020-03-15T07:39:38Z</time>
      </trkpt>
      <trkpt lat="38.3046830" lon="-0.7629490">
        <ele>295.2</ele>
        <time>2020-03-15T07:39:39Z</time>
      </trkpt>
      <trkpt lat="38.3047380" lon="-0.7628710">
        <ele>295.0</ele>
        <time>2020-03-15T07:39:40Z</time>
      </trkpt>
      <trkpt lat="38.3047700" lon="-0.7628200">
        <ele>294.8</ele>
        <time>2020-03-15T07:39:41Z</time>
      </trkpt>
      <trkpt lat="38.3048010" lon="-0.7627690">
        <ele>294.8</ele>
        <time>2020-03-15T07:39:42Z</time>
      </trkpt>
      <trkpt lat="38.3048630" lon="-0.7626670">
        <ele>295.0</ele>
        <time>2020-03-15T07:39:43Z</time>
      </trkpt>
      <trkpt lat="38.3049010" lon="-0.7626270">
        <ele>295.6</ele>
        <time>2020-03-15T07:39:44Z</time>
      </trkpt>
      <trkpt lat="38.3049390" lon="-0.7625870">
        <ele>296.4</ele>
        <time>2020-03-15T07:39:45Z</time>
      </trkpt>
      <trkpt lat="38.3049740" lon="-0.7625660">
        <ele>297.0</ele>
        <time>2020-03-15T07:39:46Z</time>
      </trkpt>
      <trkpt lat="38.3050080" lon="-0.7625440">
        <ele>297.6</ele>
        <time>2020-03-15T07:39:47Z</time>
      </trkpt>
      <trkpt lat="38.3050380" lon="-0.7625290">
        <ele>298.2</ele>
        <time>2020-03-15T07:39:48Z</time>
      </trkpt>
      <trkpt lat="38.3050690" lon="-0.7625200">
        <ele>298.8</ele>
        <time>2020-03-15T07:39:49Z</time>
      </trkpt>
      <trkpt lat="38.3050990" lon="-0.7625110">
        <ele>298.8</ele>
        <time>2020-03-15T07:39:50Z</time>
      </trkpt>
      <trkpt lat="38.3051300" lon="-0.7625050">
        <ele>299.4</ele>
        <time>2020-03-15T07:39:51Z</time>
      </trkpt>
      <trkpt lat="38.3051620" lon="-0.7625030">
        <ele>299.8</ele>
        <time>2020-03-15T07:39:52Z</time>
      </trkpt>
      <trkpt lat="38.3051940" lon="-0.7625010">
        <ele>300.0</ele>
        <time>2020-03-15T07:39:53Z</time>
      </trkpt>
      <trkpt lat="38.3052210" lon="-0.7625140">
        <ele>300.2</ele>
        <time>2020-03-15T07:39:54Z</time>
      </trkpt>
      <trkpt lat="38.3052210" lon="-0.7625140">
        <ele>300.6</ele>
        <time>2020-03-15T07:39:55Z</time>
      </trkpt>
      <trkpt lat="38.3052450" lon="-0.7625390">
        <ele>300.8</ele>
        <time>2020-03-15T07:39:56Z</time>
      </trkpt>
      <trkpt lat="38.3052640" lon="-0.7625700">
        <ele>300.8</ele>
        <time>2020-03-15T07:39:57Z</time>
      </trkpt>
      <trkpt lat="38.3052930" lon="-0.7626460">
        <ele>301.2</ele>
        <time>2020-03-15T07:39:58Z</time>
      </trkpt>
      <trkpt lat="38.3052930" lon="-0.7626460">
        <ele>301.6</ele>
        <time>2020-03-15T07:39:59Z</time>
      </trkpt>
      <trkpt lat="38.3053010" lon="-0.7626910">
        <ele>301.8</ele>
        <time>2020-03-15T07:40:00Z</time>
      </trkpt>
      <trkpt lat="38.3053050" lon="-0.7627340">
        <ele>302.2</ele>
        <time>2020-03-15T07:40:01Z</time>
      </trkpt>
      <trkpt lat="38.3053080" lon="-0.7628180">
        <ele>302.4</ele>
        <time>2020-03-15T07:40:02Z</time>
      </trkpt>
      <trkpt lat="38.3053120" lon="-0.7628570">
        <ele>302.8</ele>
        <time>2020-03-15T07:40:03Z</time>
      </trkpt>
      <trkpt lat="38.3053170" lon="-0.7628980">
        <ele>302.8</ele>
        <time>2020-03-15T07:40:04Z</time>
      </trkpt>
      <trkpt lat="38.3053210" lon="-0.7629390">
        <ele>303.2</ele>
        <time>2020-03-15T07:40:05Z</time>
      </trkpt>
      <trkpt lat="38.3053220" lon="-0.7629820">
        <ele>303.4</ele>
        <time>2020-03-15T07:40:06Z</time>
      </trkpt>
      <trkpt lat="38.3053220" lon="-0.7630260">
        <ele>303.8</ele>
        <time>2020-03-15T07:40:07Z</time>
      </trkpt>
      <trkpt lat="38.3053240" lon="-0.7630690">
        <ele>304.0</ele>
        <time>2020-03-15T07:40:08Z</time>
      </trkpt>
      <trkpt lat="38.3053250" lon="-0.7631130">
        <ele>304.4</ele>
        <time>2020-03-15T07:40:09Z</time>
      </trkpt>
      <trkpt lat="38.3053260" lon="-0.7631580">
        <ele>304.6</ele>
        <time>2020-03-15T07:40:10Z</time>
      </trkpt>
      <trkpt lat="38.3053260" lon="-0.7632040">
        <ele>304.8</ele>
        <time>2020-03-15T07:40:11Z</time>
      </trkpt>
      <trkpt lat="38.3053280" lon="-0.7632490">
        <ele>305.0</ele>
        <time>2020-03-15T07:40:12Z</time>
      </trkpt>
      <trkpt lat="38.3053330" lon="-0.7632910">
        <ele>305.0</ele>
        <time>2020-03-15T07:40:13Z</time>
      </trkpt>
      <trkpt lat="38.3053370" lon="-0.7633340">
        <ele>305.4</ele>
        <time>2020-03-15T07:40:14Z</time>
      </trkpt>
      <trkpt lat="38.3053520" lon="-0.7633780">
        <ele>305.4</ele>
        <time>2020-03-15T07:40:15Z</time>
      </trkpt>
      <trkpt lat="38.3053670" lon="-0.7634230">
        <ele>305.6</ele>
        <time>2020-03-15T07:40:16Z</time>
      </trkpt>
      <trkpt lat="38.3053970" lon="-0.7634610">
        <ele>305.6</ele>
        <time>2020-03-15T07:40:17Z</time>
      </trkpt>
      <trkpt lat="38.3054340" lon="-0.7634900">
        <ele>305.8</ele>
        <time>2020-03-15T07:40:18Z</time>
      </trkpt>
      <trkpt lat="38.3054740" lon="-0.7635120">
        <ele>306.0</ele>
        <time>2020-03-15T07:40:19Z</time>
      </trkpt>
      <trkpt lat="38.3055090" lon="-0.7635380">
        <ele>306.4</ele>
        <time>2020-03-15T07:40:20Z</time>
      </trkpt>
      <trkpt lat="38.3055370" lon="-0.7635670">
        <ele>306.6</ele>
        <time>2020-03-15T07:40:21Z</time>
      </trkpt>
      <trkpt lat="38.3055640" lon="-0.7635960">
        <ele>306.8</ele>
        <time>2020-03-15T07:40:22Z</time>
      </trkpt>
      <trkpt lat="38.3055860" lon="-0.7636340">
        <ele>307.0</ele>
        <time>2020-03-15T07:40:23Z</time>
      </trkpt>
      <trkpt lat="38.3056080" lon="-0.7636720">
        <ele>306.8</ele>
        <time>2020-03-15T07:40:24Z</time>
      </trkpt>
      <trkpt lat="38.3056360" lon="-0.7637200">
        <ele>306.6</ele>
        <time>2020-03-15T07:40:25Z</time>
      </trkpt>
      <trkpt lat="38.3056640" lon="-0.7637690">
        <ele>306.2</ele>
        <time>2020-03-15T07:40:26Z</time>
      </trkpt>
      <trkpt lat="38.3056940" lon="-0.7638250">
        <ele>306.2</ele>
        <time>2020-03-15T07:40:27Z</time>
      </trkpt>
      <trkpt lat="38.3057320" lon="-0.7638800">
        <ele>305.8</ele>
        <time>2020-03-15T07:40:28Z</time>
      </trkpt>
      <trkpt lat="38.3057710" lon="-0.7639070">
        <ele>305.8</ele>
        <time>2020-03-15T07:40:29Z</time>
      </trkpt>
      <trkpt lat="38.3058090" lon="-0.7639350">
        <ele>305.6</ele>
        <time>2020-03-15T07:40:30Z</time>
      </trkpt>
      <trkpt lat="38.3058850" lon="-0.7639910">
        <ele>305.6</ele>
        <time>2020-03-15T07:40:31Z</time>
      </trkpt>
      <trkpt lat="38.3059220" lon="-0.7640430">
        <ele>305.8</ele>
        <time>2020-03-15T07:40:32Z</time>
      </trkpt>
      <trkpt lat="38.3059490" lon="-0.7640990">
        <ele>306.0</ele>
        <time>2020-03-15T07:40:33Z</time>
      </trkpt>
      <trkpt lat="38.3059640" lon="-0.7641280">
        <ele>306.2</ele>
        <time>2020-03-15T07:40:34Z</time>
      </trkpt>
      <trkpt lat="38.3059780" lon="-0.7641570">
        <ele>306.0</ele>
        <time>2020-03-15T07:40:35Z</time>
      </trkpt>
      <trkpt lat="38.3060580" lon="-0.7642640">
        <ele>305.6</ele>
        <time>2020-03-15T07:40:36Z</time>
      </trkpt>
      <trkpt lat="38.3061140" lon="-0.7643040">
        <ele>305.4</ele>
        <time>2020-03-15T07:40:37Z</time>
      </trkpt>
      <trkpt lat="38.3061720" lon="-0.7643370">
        <ele>305.2</ele>
        <time>2020-03-15T07:40:38Z</time>
      </trkpt>
      <trkpt lat="38.3062220" lon="-0.7643760">
        <ele>305.2</ele>
        <time>2020-03-15T07:40:39Z</time>
      </trkpt>
      <trkpt lat="38.3062540" lon="-0.7644280">
        <ele>305.6</ele>
        <time>2020-03-15T07:40:40Z</time>
      </trkpt>
      <trkpt lat="38.3062770" lon="-0.7644820">
        <ele>305.8</ele>
        <time>2020-03-15T07:40:41Z</time>
      </trkpt>
      <trkpt lat="38.3062920" lon="-0.7645340">
        <ele>306.2</ele>
        <time>2020-03-15T07:40:42Z</time>
      </trkpt>
      <trkpt lat="38.3063070" lon="-0.7645870">
        <ele>306.4</ele>
        <time>2020-03-15T07:40:43Z</time>
      </trkpt>
      <trkpt lat="38.3063250" lon="-0.7646350">
        <ele>306.6</ele>
        <time>2020-03-15T07:40:44Z</time>
      </trkpt>
      <trkpt lat="38.3063430" lon="-0.7646830">
        <ele>306.8</ele>
        <time>2020-03-15T07:40:45Z</time>
      </trkpt>
      <trkpt lat="38.3063780" lon="-0.7647160">
        <ele>307.0</ele>
        <time>2020-03-15T07:40:46Z</time>
      </trkpt>
      <trkpt lat="38.3064120" lon="-0.7647490">
        <ele>307.2</ele>
        <time>2020-03-15T07:40:47Z</time>
      </trkpt>
      <trkpt lat="38.3064450" lon="-0.7647840">
        <ele>307.6</ele>
        <time>2020-03-15T07:40:48Z</time>
      </trkpt>
      <trkpt lat="38.3064720" lon="-0.7648260">
        <ele>307.8</ele>
        <time>2020-03-15T07:40:49Z</time>
      </trkpt>
      <trkpt lat="38.3064890" lon="-0.7648770">
        <ele>307.8</ele>
        <time>2020-03-15T07:40:50Z</time>
      </trkpt>
      <trkpt lat="38.3065050" lon="-0.7649290">
        <ele>307.8</ele>
        <time>2020-03-15T07:40:51Z</time>
      </trkpt>
      <trkpt lat="38.3065160" lon="-0.7649830">
        <ele>308.0</ele>
        <time>2020-03-15T07:40:52Z</time>
      </trkpt>
      <trkpt lat="38.3065310" lon="-0.7650380">
        <ele>308.0</ele>
        <time>2020-03-15T07:40:53Z</time>
      </trkpt>
      <trkpt lat="38.3065500" lon="-0.7650940">
        <ele>308.2</ele>
        <time>2020-03-15T07:40:54Z</time>
      </trkpt>
      <trkpt lat="38.3066150" lon="-0.7652080">
        <ele>307.8</ele>
        <time>2020-03-15T07:40:56Z</time>
      </trkpt>
      <trkpt lat="38.3066550" lon="-0.7652450">
        <ele>307.6</ele>
        <time>2020-03-15T07:40:57Z</time>
      </trkpt>
      <trkpt lat="38.3066950" lon="-0.7652820">
        <ele>306.8</ele>
        <time>2020-03-15T07:40:58Z</time>
      </trkpt>
      <trkpt lat="38.3067750" lon="-0.7653570">
        <ele>306.6</ele>
        <time>2020-03-15T07:40:59Z</time>
      </trkpt>
      <trkpt lat="38.3068380" lon="-0.7653890">
        <ele>306.6</ele>
        <time>2020-03-15T07:41:00Z</time>
      </trkpt>
      <trkpt lat="38.3069020" lon="-0.7654080">
        <ele>307.0</ele>
        <time>2020-03-15T07:41:01Z</time>
      </trkpt>
      <trkpt lat="38.3069640" lon="-0.7654260">
        <ele>307.2</ele>
        <time>2020-03-15T07:41:02Z</time>
      </trkpt>
      <trkpt lat="38.3070020" lon="-0.7654540">
        <ele>307.4</ele>
        <time>2020-03-15T07:41:03Z</time>
      </trkpt>
      <trkpt lat="38.3070390" lon="-0.7654830">
        <ele>307.4</ele>
        <time>2020-03-15T07:41:04Z</time>
      </trkpt>
      <trkpt lat="38.3071130" lon="-0.7655400">
        <ele>307.4</ele>
        <time>2020-03-15T07:41:05Z</time>
      </trkpt>
      <trkpt lat="38.3072080" lon="-0.7656260">
        <ele>307.8</ele>
        <time>2020-03-15T07:41:07Z</time>
      </trkpt>
      <trkpt lat="38.3072600" lon="-0.7656480">
        <ele>307.8</ele>
        <time>2020-03-15T07:41:08Z</time>
      </trkpt>
      <trkpt lat="38.3073100" lon="-0.7656670">
        <ele>308.2</ele>
        <time>2020-03-15T07:41:09Z</time>
      </trkpt>
      <trkpt lat="38.3073540" lon="-0.7656920">
        <ele>308.4</ele>
        <time>2020-03-15T07:41:10Z</time>
      </trkpt>
      <trkpt lat="38.3073950" lon="-0.7657230">
        <ele>308.6</ele>
        <time>2020-03-15T07:41:11Z</time>
      </trkpt>
      <trkpt lat="38.3074360" lon="-0.7657550">
        <ele>308.6</ele>
        <time>2020-03-15T07:41:12Z</time>
      </trkpt>
      <trkpt lat="38.3074730" lon="-0.7657920">
        <ele>308.6</ele>
        <time>2020-03-15T07:41:13Z</time>
      </trkpt>
      <trkpt lat="38.3075090" lon="-0.7658290">
        <ele>309.0</ele>
        <time>2020-03-15T07:41:14Z</time>
      </trkpt>
      <trkpt lat="38.3075500" lon="-0.7658550">
        <ele>309.2</ele>
        <time>2020-03-15T07:41:15Z</time>
      </trkpt>
      <trkpt lat="38.3075900" lon="-0.7658780">
        <ele>309.4</ele>
        <time>2020-03-15T07:41:16Z</time>
      </trkpt>
      <trkpt lat="38.3076300" lon="-0.7659020">
        <ele>309.6</ele>
        <time>2020-03-15T07:41:17Z</time>
      </trkpt>
      <trkpt lat="38.3076710" lon="-0.7659200">
        <ele>309.8</ele>
        <time>2020-03-15T07:41:18Z</time>
      </trkpt>
      <trkpt lat="38.3077110" lon="-0.7659390">
        <ele>310.0</ele>
        <time>2020-03-15T07:41:19Z</time>
      </trkpt>
      <trkpt lat="38.3077490" lon="-0.7659580">
        <ele>310.4</ele>
        <time>2020-03-15T07:41:20Z</time>
      </trkpt>
      <trkpt lat="38.3077660" lon="-0.7659690">
        <ele>310.6</ele>
        <time>2020-03-15T07:41:21Z</time>
      </trkpt>
      <trkpt lat="38.3077830" lon="-0.7659810">
        <ele>310.8</ele>
        <time>2020-03-15T07:41:22Z</time>
      </trkpt>
      <trkpt lat="38.3078370" lon="-0.7660460">
        <ele>311.0</ele>
        <time>2020-03-15T07:41:23Z</time>
      </trkpt>
      <trkpt lat="38.3078590" lon="-0.7660860">
        <ele>311.0</ele>
        <time>2020-03-15T07:41:24Z</time>
      </trkpt>
      <trkpt lat="38.3078810" lon="-0.7661340">
        <ele>310.8</ele>
        <time>2020-03-15T07:41:25Z</time>
      </trkpt>
      <trkpt lat="38.3079030" lon="-0.7661930">
        <ele>310.6</ele>
        <time>2020-03-15T07:41:26Z</time>
      </trkpt>
      <trkpt lat="38.3079240" lon="-0.7662480">
        <ele>310.0</ele>
        <time>2020-03-15T07:41:27Z</time>
      </trkpt>
      <trkpt lat="38.3079440" lon="-0.7663030">
        <ele>309.6</ele>
        <time>2020-03-15T07:41:28Z</time>
      </trkpt>
      <trkpt lat="38.3079840" lon="-0.7664130">
        <ele>309.0</ele>
        <time>2020-03-15T07:41:29Z</time>
      </trkpt>
      <trkpt lat="38.3080240" lon="-0.7664880">
        <ele>308.8</ele>
        <time>2020-03-15T07:41:30Z</time>
      </trkpt>
      <trkpt lat="38.3080710" lon="-0.7665520">
        <ele>308.8</ele>
        <time>2020-03-15T07:41:31Z</time>
      </trkpt>
      <trkpt lat="38.3081280" lon="-0.7665990">
        <ele>308.8</ele>
        <time>2020-03-15T07:41:32Z</time>
      </trkpt>
      <trkpt lat="38.3081910" lon="-0.7666240">
        <ele>308.8</ele>
        <time>2020-03-15T07:41:33Z</time>
      </trkpt>
      <trkpt lat="38.3082530" lon="-0.7666270">
        <ele>308.8</ele>
        <time>2020-03-15T07:41:34Z</time>
      </trkpt>
      <trkpt lat="38.3083130" lon="-0.7666190">
        <ele>309.0</ele>
        <time>2020-03-15T07:41:35Z</time>
      </trkpt>
      <trkpt lat="38.3083720" lon="-0.7666080">
        <ele>309.0</ele>
        <time>2020-03-15T07:41:36Z</time>
      </trkpt>
      <trkpt lat="38.3084340" lon="-0.7665980">
        <ele>309.0</ele>
        <time>2020-03-15T07:41:37Z</time>
      </trkpt>
      <trkpt lat="38.3084960" lon="-0.7665850">
        <ele>309.0</ele>
        <time>2020-03-15T07:41:38Z</time>
      </trkpt>
      <trkpt lat="38.3085600" lon="-0.7665600">
        <ele>308.8</ele>
        <time>2020-03-15T07:41:39Z</time>
      </trkpt>
      <trkpt lat="38.3086130" lon="-0.7665220">
        <ele>308.8</ele>
        <time>2020-03-15T07:41:40Z</time>
      </trkpt>
      <trkpt lat="38.3086460" lon="-0.7664820">
        <ele>309.0</ele>
        <time>2020-03-15T07:41:41Z</time>
      </trkpt>
      <trkpt lat="38.3086780" lon="-0.7664410">
        <ele>308.8</ele>
        <time>2020-03-15T07:41:42Z</time>
      </trkpt>
      <trkpt lat="38.3087420" lon="-0.7663600">
        <ele>308.4</ele>
        <time>2020-03-15T07:41:43Z</time>
      </trkpt>
      <trkpt lat="38.3087820" lon="-0.7662910">
        <ele>308.2</ele>
        <time>2020-03-15T07:41:44Z</time>
      </trkpt>
      <trkpt lat="38.3088100" lon="-0.7662340">
        <ele>307.8</ele>
        <time>2020-03-15T07:41:45Z</time>
      </trkpt>
      <trkpt lat="38.3088380" lon="-0.7661760">
        <ele>307.6</ele>
        <time>2020-03-15T07:41:46Z</time>
      </trkpt>
      <trkpt lat="38.3088930" lon="-0.7660600">
        <ele>307.4</ele>
        <time>2020-03-15T07:41:47Z</time>
      </trkpt>
      <trkpt lat="38.3089430" lon="-0.7659990">
        <ele>307.2</ele>
        <time>2020-03-15T07:41:48Z</time>
      </trkpt>
      <trkpt lat="38.3090030" lon="-0.7659630">
        <ele>306.8</ele>
        <time>2020-03-15T07:41:49Z</time>
      </trkpt>
      <trkpt lat="38.3090630" lon="-0.7659580">
        <ele>306.6</ele>
        <time>2020-03-15T07:41:50Z</time>
      </trkpt>
      <trkpt lat="38.3091070" lon="-0.7659860">
        <ele>306.4</ele>
        <time>2020-03-15T07:41:51Z</time>
      </trkpt>
      <trkpt lat="38.3091500" lon="-0.7660140">
        <ele>306.0</ele>
        <time>2020-03-15T07:41:52Z</time>
      </trkpt>
      <trkpt lat="38.3092360" lon="-0.7660700">
        <ele>305.2</ele>
        <time>2020-03-15T07:41:53Z</time>
      </trkpt>
      <trkpt lat="38.3092680" lon="-0.7660980">
        <ele>304.4</ele>
        <time>2020-03-15T07:41:54Z</time>
      </trkpt>
      <trkpt lat="38.3092990" lon="-0.7661260">
        <ele>303.6</ele>
        <time>2020-03-15T07:41:55Z</time>
      </trkpt>
      <trkpt lat="38.3093930" lon="-0.7662120">
        <ele>303.2</ele>
        <time>2020-03-15T07:41:56Z</time>
      </trkpt>
      <trkpt lat="38.3094240" lon="-0.7662410">
        <ele>302.8</ele>
        <time>2020-03-15T07:41:57Z</time>
      </trkpt>
      <trkpt lat="38.3095380" lon="-0.7663530">
        <ele>302.8</ele>
        <time>2020-03-15T07:41:58Z</time>
      </trkpt>
      <trkpt lat="38.3095860" lon="-0.7664180">
        <ele>302.8</ele>
        <time>2020-03-15T07:41:59Z</time>
      </trkpt>
      <trkpt lat="38.3096220" lon="-0.7664910">
        <ele>302.8</ele>
        <time>2020-03-15T07:42:00Z</time>
      </trkpt>
      <trkpt lat="38.3096470" lon="-0.7665690">
        <ele>303.0</ele>
        <time>2020-03-15T07:42:01Z</time>
      </trkpt>
      <trkpt lat="38.3096630" lon="-0.7666490">
        <ele>303.2</ele>
        <time>2020-03-15T07:42:02Z</time>
      </trkpt>
      <trkpt lat="38.3096750" lon="-0.7667300">
        <ele>303.2</ele>
        <time>2020-03-15T07:42:03Z</time>
      </trkpt>
      <trkpt lat="38.3096800" lon="-0.7667690">
        <ele>303.2</ele>
        <time>2020-03-15T07:42:04Z</time>
      </trkpt>
      <trkpt lat="38.3096840" lon="-0.7668090">
        <ele>303.4</ele>
        <time>2020-03-15T07:42:05Z</time>
      </trkpt>
      <trkpt lat="38.3096960" lon="-0.7669430">
        <ele>303.8</ele>
        <time>2020-03-15T07:42:06Z</time>
      </trkpt>
      <trkpt lat="38.3096990" lon="-0.7669980">
        <ele>304.0</ele>
        <time>2020-03-15T07:42:07Z</time>
      </trkpt>
      <trkpt lat="38.3097060" lon="-0.7671070">
        <ele>304.2</ele>
        <time>2020-03-15T07:42:08Z</time>
      </trkpt>
      <trkpt lat="38.3097050" lon="-0.7671750">
        <ele>304.4</ele>
        <time>2020-03-15T07:42:09Z</time>
      </trkpt>
      <trkpt lat="38.3097080" lon="-0.7672400">
        <ele>304.6</ele>
        <time>2020-03-15T07:42:10Z</time>
      </trkpt>
      <trkpt lat="38.3097080" lon="-0.7673050">
        <ele>304.8</ele>
        <time>2020-03-15T07:42:11Z</time>
      </trkpt>
      <trkpt lat="38.3097040" lon="-0.7673700">
        <ele>305.4</ele>
        <time>2020-03-15T07:42:12Z</time>
      </trkpt>
      <trkpt lat="38.3097000" lon="-0.7674330">
        <ele>305.6</ele>
        <time>2020-03-15T07:42:13Z</time>
      </trkpt>
      <trkpt lat="38.3096960" lon="-0.7674970">
        <ele>306.0</ele>
        <time>2020-03-15T07:42:14Z</time>
      </trkpt>
      <trkpt lat="38.3096870" lon="-0.7675610">
        <ele>306.2</ele>
        <time>2020-03-15T07:42:15Z</time>
      </trkpt>
      <trkpt lat="38.3096820" lon="-0.7676250">
        <ele>306.2</ele>
        <time>2020-03-15T07:42:16Z</time>
      </trkpt>
      <trkpt lat="38.3096760" lon="-0.7676560">
        <ele>306.6</ele>
        <time>2020-03-15T07:42:17Z</time>
      </trkpt>
      <trkpt lat="38.3096700" lon="-0.7676870">
        <ele>307.0</ele>
        <time>2020-03-15T07:42:18Z</time>
      </trkpt>
      <trkpt lat="38.3096270" lon="-0.7678350">
        <ele>307.2</ele>
        <time>2020-03-15T07:42:19Z</time>
      </trkpt>
      <trkpt lat="38.3095970" lon="-0.7679210">
        <ele>307.6</ele>
        <time>2020-03-15T07:42:21Z</time>
      </trkpt>
      <trkpt lat="38.3095750" lon="-0.7679780">
        <ele>307.8</ele>
        <time>2020-03-15T07:42:22Z</time>
      </trkpt>
      <trkpt lat="38.3095560" lon="-0.7680340">
        <ele>308.0</ele>
        <time>2020-03-15T07:42:23Z</time>
      </trkpt>
      <trkpt lat="38.3095390" lon="-0.7680890">
        <ele>308.2</ele>
        <time>2020-03-15T07:42:24Z</time>
      </trkpt>
      <trkpt lat="38.3095210" lon="-0.7681460">
        <ele>308.4</ele>
        <time>2020-03-15T07:42:25Z</time>
      </trkpt>
      <trkpt lat="38.3095000" lon="-0.7682000">
        <ele>309.0</ele>
        <time>2020-03-15T07:42:27Z</time>
      </trkpt>
      <trkpt lat="38.3094560" lon="-0.7683130">
        <ele>309.0</ele>
        <time>2020-03-15T07:42:28Z</time>
      </trkpt>
      <trkpt lat="38.3094380" lon="-0.7683730">
        <ele>309.2</ele>
        <time>2020-03-15T07:42:29Z</time>
      </trkpt>
      <trkpt lat="38.3094290" lon="-0.7684030">
        <ele>309.2</ele>
        <time>2020-03-15T07:42:30Z</time>
      </trkpt>
      <trkpt lat="38.3094200" lon="-0.7684330">
        <ele>309.2</ele>
        <time>2020-03-15T07:42:31Z</time>
      </trkpt>
      <trkpt lat="38.3093830" lon="-0.7685530">
        <ele>309.4</ele>
        <time>2020-03-15T07:42:33Z</time>
      </trkpt>
      <trkpt lat="38.3093640" lon="-0.7686140">
        <ele>309.4</ele>
        <time>2020-03-15T07:42:34Z</time>
      </trkpt>
      <trkpt lat="38.3093320" lon="-0.7687440">
        <ele>309.8</ele>
        <time>2020-03-15T07:42:36Z</time>
      </trkpt>
      <trkpt lat="38.3093260" lon="-0.7688850">
        <ele>309.8</ele>
        <time>2020-03-15T07:42:37Z</time>
      </trkpt>
      <trkpt lat="38.3093300" lon="-0.7689570">
        <ele>309.6</ele>
        <time>2020-03-15T07:42:38Z</time>
      </trkpt>
      <trkpt lat="38.3093390" lon="-0.7690320">
        <ele>309.8</ele>
        <time>2020-03-15T07:42:39Z</time>
      </trkpt>
      <trkpt lat="38.3093520" lon="-0.7691070">
        <ele>309.8</ele>
        <time>2020-03-15T07:42:40Z</time>
      </trkpt>
      <trkpt lat="38.3093620" lon="-0.7691440">
        <ele>309.8</ele>
        <time>2020-03-15T07:42:41Z</time>
      </trkpt>
      <trkpt lat="38.3093710" lon="-0.7691810">
        <ele>309.8</ele>
        <time>2020-03-15T07:42:42Z</time>
      </trkpt>
      <trkpt lat="38.3094010" lon="-0.7692950">
        <ele>309.6</ele>
        <time>2020-03-15T07:42:43Z</time>
      </trkpt>
      <trkpt lat="38.3094110" lon="-0.7693340">
        <ele>309.6</ele>
        <time>2020-03-15T07:42:44Z</time>
      </trkpt>
      <trkpt lat="38.3094350" lon="-0.7694140">
        <ele>309.4</ele>
        <time>2020-03-15T07:42:45Z</time>
      </trkpt>
      <trkpt lat="38.3094830" lon="-0.7695770">
        <ele>309.4</ele>
        <time>2020-03-15T07:42:46Z</time>
      </trkpt>
      <trkpt lat="38.3095000" lon="-0.7696410">
        <ele>309.2</ele>
        <time>2020-03-15T07:42:47Z</time>
      </trkpt>
      <trkpt lat="38.3095160" lon="-0.7697060">
        <ele>309.2</ele>
        <time>2020-03-15T07:42:48Z</time>
      </trkpt>
      <trkpt lat="38.3095490" lon="-0.7698360">
        <ele>309.0</ele>
        <time>2020-03-15T07:42:49Z</time>
      </trkpt>
      <trkpt lat="38.3095700" lon="-0.7699260">
        <ele>309.0</ele>
        <time>2020-03-15T07:42:50Z</time>
      </trkpt>
      <trkpt lat="38.3095990" lon="-0.7700170">
        <ele>308.8</ele>
        <time>2020-03-15T07:42:51Z</time>
      </trkpt>
      <trkpt lat="38.3096290" lon="-0.7701090">
        <ele>308.6</ele>
        <time>2020-03-15T07:42:52Z</time>
      </trkpt>
      <trkpt lat="38.3096600" lon="-0.7702000">
        <ele>308.4</ele>
        <time>2020-03-15T07:42:53Z</time>
      </trkpt>
      <trkpt lat="38.3096910" lon="-0.7702910">
        <ele>308.4</ele>
        <time>2020-03-15T07:42:54Z</time>
      </trkpt>
      <trkpt lat="38.3097260" lon="-0.7703810">
        <ele>308.4</ele>
        <time>2020-03-15T07:42:55Z</time>
      </trkpt>
      <trkpt lat="38.3097630" lon="-0.7704700">
        <ele>308.4</ele>
        <time>2020-03-15T07:42:56Z</time>
      </trkpt>
      <trkpt lat="38.3098000" lon="-0.7705550">
        <ele>308.2</ele>
        <time>2020-03-15T07:42:57Z</time>
      </trkpt>
      <trkpt lat="38.3098270" lon="-0.7706100">
        <ele>308.4</ele>
        <time>2020-03-15T07:42:58Z</time>
      </trkpt>
      <trkpt lat="38.3098540" lon="-0.7706660">
        <ele>309.0</ele>
        <time>2020-03-15T07:42:59Z</time>
      </trkpt>
      <trkpt lat="38.3099070" lon="-0.7707780">
        <ele>309.2</ele>
        <time>2020-03-15T07:43:00Z</time>
      </trkpt>
      <trkpt lat="38.3099390" lon="-0.7708450">
        <ele>309.4</ele>
        <time>2020-03-15T07:43:01Z</time>
      </trkpt>
      <trkpt lat="38.3099680" lon="-0.7709070">
        <ele>309.6</ele>
        <time>2020-03-15T07:43:02Z</time>
      </trkpt>
      <trkpt lat="38.3099990" lon="-0.7709650">
        <ele>309.8</ele>
        <time>2020-03-15T07:43:03Z</time>
      </trkpt>
      <trkpt lat="38.3100290" lon="-0.7710240">
        <ele>310.0</ele>
        <time>2020-03-15T07:43:04Z</time>
      </trkpt>
      <trkpt lat="38.3100590" lon="-0.7710830">
        <ele>310.4</ele>
        <time>2020-03-15T07:43:05Z</time>
      </trkpt>
      <trkpt lat="38.3100880" lon="-0.7711430">
        <ele>310.4</ele>
        <time>2020-03-15T07:43:06Z</time>
      </trkpt>
      <trkpt lat="38.3101120" lon="-0.7711880">
        <ele>310.4</ele>
        <time>2020-03-15T07:43:07Z</time>
      </trkpt>
      <trkpt lat="38.3101360" lon="-0.7712340">
        <ele>310.4</ele>
        <time>2020-03-15T07:43:08Z</time>
      </trkpt>
      <trkpt lat="38.3101830" lon="-0.7713250">
        <ele>310.6</ele>
        <time>2020-03-15T07:43:09Z</time>
      </trkpt>
      <trkpt lat="38.3102190" lon="-0.7713860">
        <ele>310.6</ele>
        <time>2020-03-15T07:43:10Z</time>
      </trkpt>
      <trkpt lat="38.3102380" lon="-0.7714160">
        <ele>310.6</ele>
        <time>2020-03-15T07:43:11Z</time>
      </trkpt>
      <trkpt lat="38.3102570" lon="-0.7714470">
        <ele>310.6</ele>
        <time>2020-03-15T07:43:12Z</time>
      </trkpt>
      <trkpt lat="38.3103150" lon="-0.7715380">
        <ele>310.6</ele>
        <time>2020-03-15T07:43:13Z</time>
      </trkpt>
      <trkpt lat="38.3103340" lon="-0.7715680">
        <ele>310.8</ele>
        <time>2020-03-15T07:43:14Z</time>
      </trkpt>
      <trkpt lat="38.3104080" lon="-0.7716860">
        <ele>310.6</ele>
        <time>2020-03-15T07:43:15Z</time>
      </trkpt>
      <trkpt lat="38.3104350" lon="-0.7717330">
        <ele>310.8</ele>
        <time>2020-03-15T07:43:16Z</time>
      </trkpt>
      <trkpt lat="38.3104610" lon="-0.7717810">
        <ele>310.8</ele>
        <time>2020-03-15T07:43:17Z</time>
      </trkpt>
      <trkpt lat="38.3105130" lon="-0.7718770">
        <ele>311.0</ele>
        <time>2020-03-15T07:43:18Z</time>
      </trkpt>
      <trkpt lat="38.3105310" lon="-0.7719490">
        <ele>311.2</ele>
        <time>2020-03-15T07:43:19Z</time>
      </trkpt>
      <trkpt lat="38.3105340" lon="-0.7719910">
        <ele>311.2</ele>
        <time>2020-03-15T07:43:20Z</time>
      </trkpt>
      <trkpt lat="38.3105370" lon="-0.7720330">
        <ele>311.6</ele>
        <time>2020-03-15T07:43:21Z</time>
      </trkpt>
      <trkpt lat="38.3105430" lon="-0.7721170">
        <ele>311.8</ele>
        <time>2020-03-15T07:43:22Z</time>
      </trkpt>
      <trkpt lat="38.3105600" lon="-0.7721330">
        <ele>311.8</ele>
        <time>2020-03-15T07:43:23Z</time>
      </trkpt>
      <trkpt lat="38.3105910" lon="-0.7721490">
        <ele>311.6</ele>
        <time>2020-03-15T07:43:24Z</time>
      </trkpt>
      <trkpt lat="38.3106140" lon="-0.7721910">
        <ele>311.2</ele>
        <time>2020-03-15T07:43:25Z</time>
      </trkpt>
      <trkpt lat="38.3106370" lon="-0.7722330">
        <ele>311.4</ele>
        <time>2020-03-15T07:43:26Z</time>
      </trkpt>
      <trkpt lat="38.3106370" lon="-0.7722330">
        <ele>311.2</ele>
        <time>2020-03-15T07:43:27Z</time>
      </trkpt>
      <trkpt lat="38.3106330" lon="-0.7724130">
        <ele>311.8</ele>
        <time>2020-03-15T07:43:29Z</time>
      </trkpt>
      <trkpt lat="38.3106310" lon="-0.7724410">
        <ele>311.8</ele>
        <time>2020-03-15T07:43:30Z</time>
      </trkpt>
      <trkpt lat="38.3106290" lon="-0.7724690">
        <ele>312.2</ele>
        <time>2020-03-15T07:43:31Z</time>
      </trkpt>
      <trkpt lat="38.3106290" lon="-0.7725240">
        <ele>313.0</ele>
        <time>2020-03-15T07:43:32Z</time>
      </trkpt>
      <trkpt lat="38.3106560" lon="-0.7725910">
        <ele>313.6</ele>
        <time>2020-03-15T07:43:33Z</time>
      </trkpt>
      <trkpt lat="38.3106870" lon="-0.7725930">
        <ele>313.6</ele>
        <time>2020-03-15T07:43:34Z</time>
      </trkpt>
      <trkpt lat="38.3107260" lon="-0.7725870">
        <ele>313.0</ele>
        <time>2020-03-15T07:43:35Z</time>
      </trkpt>
      <trkpt lat="38.3107640" lon="-0.7725810">
        <ele>312.4</ele>
        <time>2020-03-15T07:43:36Z</time>
      </trkpt>
      <trkpt lat="38.3108410" lon="-0.7725680">
        <ele>312.2</ele>
        <time>2020-03-15T07:43:37Z</time>
      </trkpt>
      <trkpt lat="38.3108770" lon="-0.7725940">
        <ele>311.8</ele>
        <time>2020-03-15T07:43:38Z</time>
      </trkpt>
      <trkpt lat="38.3109120" lon="-0.7726200">
        <ele>311.8</ele>
        <time>2020-03-15T07:43:39Z</time>
      </trkpt>
      <trkpt lat="38.3109820" lon="-0.7726730">
        <ele>311.8</ele>
        <time>2020-03-15T07:43:40Z</time>
      </trkpt>
      <trkpt lat="38.3110120" lon="-0.7727300">
        <ele>311.8</ele>
        <time>2020-03-15T07:43:41Z</time>
      </trkpt>
      <trkpt lat="38.3110650" lon="-0.7728550">
        <ele>312.0</ele>
        <time>2020-03-15T07:43:43Z</time>
      </trkpt>
      <trkpt lat="38.3110830" lon="-0.7729050">
        <ele>312.2</ele>
        <time>2020-03-15T07:43:44Z</time>
      </trkpt>
      <trkpt lat="38.3111000" lon="-0.7729560">
        <ele>312.4</ele>
        <time>2020-03-15T07:43:45Z</time>
      </trkpt>
      <trkpt lat="38.3111340" lon="-0.7730580">
        <ele>312.4</ele>
        <time>2020-03-15T07:43:46Z</time>
      </trkpt>
      <trkpt lat="38.3111530" lon="-0.7731270">
        <ele>312.2</ele>
        <time>2020-03-15T07:43:47Z</time>
      </trkpt>
      <trkpt lat="38.3111630" lon="-0.7731620">
        <ele>312.4</ele>
        <time>2020-03-15T07:43:48Z</time>
      </trkpt>
      <trkpt lat="38.3111720" lon="-0.7731980">
        <ele>312.4</ele>
        <time>2020-03-15T07:43:49Z</time>
      </trkpt>
      <trkpt lat="38.3111980" lon="-0.7733430">
        <ele>312.6</ele>
        <time>2020-03-15T07:43:50Z</time>
      </trkpt>
      <trkpt lat="38.3112130" lon="-0.7734120">
        <ele>312.6</ele>
        <time>2020-03-15T07:43:51Z</time>
      </trkpt>
      <trkpt lat="38.3112190" lon="-0.7734480">
        <ele>312.6</ele>
        <time>2020-03-15T07:43:52Z</time>
      </trkpt>
      <trkpt lat="38.3112250" lon="-0.7734840">
        <ele>312.8</ele>
        <time>2020-03-15T07:43:53Z</time>
      </trkpt>
      <trkpt lat="38.3112530" lon="-0.7736120">
        <ele>312.8</ele>
        <time>2020-03-15T07:43:54Z</time>
      </trkpt>
      <trkpt lat="38.3112700" lon="-0.7736680">
        <ele>312.8</ele>
        <time>2020-03-15T07:43:55Z</time>
      </trkpt>
      <trkpt lat="38.3113040" lon="-0.7737810">
        <ele>312.8</ele>
        <time>2020-03-15T07:43:56Z</time>
      </trkpt>
      <trkpt lat="38.3113160" lon="-0.7738160">
        <ele>312.8</ele>
        <time>2020-03-15T07:43:57Z</time>
      </trkpt>
      <trkpt lat="38.3113270" lon="-0.7738520">
        <ele>313.0</ele>
        <time>2020-03-15T07:43:58Z</time>
      </trkpt>
      <trkpt lat="38.3113540" lon="-0.7739210">
        <ele>313.0</ele>
        <time>2020-03-15T07:43:59Z</time>
      </trkpt>
      <trkpt lat="38.3113760" lon="-0.7739920">
        <ele>313.2</ele>
        <time>2020-03-15T07:44:00Z</time>
      </trkpt>
      <trkpt lat="38.3114170" lon="-0.7741400">
        <ele>313.0</ele>
        <time>2020-03-15T07:44:01Z</time>
      </trkpt>
      <trkpt lat="38.3114340" lon="-0.7741950">
        <ele>312.8</ele>
        <time>2020-03-15T07:44:02Z</time>
      </trkpt>
      <trkpt lat="38.3114510" lon="-0.7742510">
        <ele>312.8</ele>
        <time>2020-03-15T07:44:03Z</time>
      </trkpt>
      <trkpt lat="38.3114840" lon="-0.7743630">
        <ele>312.8</ele>
        <time>2020-03-15T07:44:04Z</time>
      </trkpt>
      <trkpt lat="38.3114940" lon="-0.7744020">
        <ele>312.8</ele>
        <time>2020-03-15T07:44:05Z</time>
      </trkpt>
      <trkpt lat="38.3115040" lon="-0.7744420">
        <ele>312.6</ele>
        <time>2020-03-15T07:44:06Z</time>
      </trkpt>
      <trkpt lat="38.3115390" lon="-0.7745840">
        <ele>312.4</ele>
        <time>2020-03-15T07:44:07Z</time>
      </trkpt>
      <trkpt lat="38.3115550" lon="-0.7746480">
        <ele>311.8</ele>
        <time>2020-03-15T07:44:08Z</time>
      </trkpt>
      <trkpt lat="38.3115860" lon="-0.7747760">
        <ele>311.8</ele>
        <time>2020-03-15T07:44:09Z</time>
      </trkpt>
      <trkpt lat="38.3116070" lon="-0.7748680">
        <ele>311.2</ele>
        <time>2020-03-15T07:44:10Z</time>
      </trkpt>
      <trkpt lat="38.3116240" lon="-0.7749410">
        <ele>310.8</ele>
        <time>2020-03-15T07:44:11Z</time>
      </trkpt>
      <trkpt lat="38.3116400" lon="-0.7750140">
        <ele>310.4</ele>
        <time>2020-03-15T07:44:12Z</time>
      </trkpt>
      <trkpt lat="38.3116730" lon="-0.7751610">
        <ele>309.4</ele>
        <time>2020-03-15T07:44:13Z</time>
      </trkpt>
      <trkpt lat="38.3116860" lon="-0.7752110">
        <ele>308.4</ele>
        <time>2020-03-15T07:44:14Z</time>
      </trkpt>
      <trkpt lat="38.3116990" lon="-0.7752620">
        <ele>307.6</ele>
        <time>2020-03-15T07:44:15Z</time>
      </trkpt>
      <trkpt lat="38.3117250" lon="-0.7753630">
        <ele>306.8</ele>
        <time>2020-03-15T07:44:16Z</time>
      </trkpt>
      <trkpt lat="38.3117550" lon="-0.7753870">
        <ele>306.4</ele>
        <time>2020-03-15T07:44:17Z</time>
      </trkpt>
      <trkpt lat="38.3118000" lon="-0.7754020">
        <ele>305.6</ele>
        <time>2020-03-15T07:44:18Z</time>
      </trkpt>
      <trkpt lat="38.3118440" lon="-0.7754180">
        <ele>304.4</ele>
        <time>2020-03-15T07:44:19Z</time>
      </trkpt>
      <trkpt lat="38.3118760" lon="-0.7754630">
        <ele>303.8</ele>
        <time>2020-03-15T07:44:20Z</time>
      </trkpt>
      <trkpt lat="38.3119070" lon="-0.7755090">
        <ele>303.2</ele>
        <time>2020-03-15T07:44:21Z</time>
      </trkpt>
      <trkpt lat="38.3119130" lon="-0.7755460">
        <ele>302.4</ele>
        <time>2020-03-15T07:44:22Z</time>
      </trkpt>
      <trkpt lat="38.3119190" lon="-0.7755840">
        <ele>302.2</ele>
        <time>2020-03-15T07:44:23Z</time>
      </trkpt>
      <trkpt lat="38.3119150" lon="-0.7756640">
        <ele>302.0</ele>
        <time>2020-03-15T07:44:24Z</time>
      </trkpt>
      <trkpt lat="38.3119010" lon="-0.7757440">
        <ele>301.8</ele>
        <time>2020-03-15T07:44:25Z</time>
      </trkpt>
      <trkpt lat="38.3118750" lon="-0.7759030">
        <ele>301.6</ele>
        <time>2020-03-15T07:44:26Z</time>
      </trkpt>
      <trkpt lat="38.3118890" lon="-0.7759680">
        <ele>301.0</ele>
        <time>2020-03-15T07:44:27Z</time>
      </trkpt>
      <trkpt lat="38.3119290" lon="-0.7760100">
        <ele>300.2</ele>
        <time>2020-03-15T07:44:28Z</time>
      </trkpt>
      <trkpt lat="38.3119910" lon="-0.7760280">
        <ele>299.2</ele>
        <time>2020-03-15T07:44:29Z</time>
      </trkpt>
      <trkpt lat="38.3120660" lon="-0.7760220">
        <ele>297.8</ele>
        <time>2020-03-15T07:44:30Z</time>
      </trkpt>
      <trkpt lat="38.3121490" lon="-0.7759990">
        <ele>296.6</ele>
        <time>2020-03-15T07:44:31Z</time>
      </trkpt>
      <trkpt lat="38.3122430" lon="-0.7759800">
        <ele>295.4</ele>
        <time>2020-03-15T07:44:32Z</time>
      </trkpt>
      <trkpt lat="38.3123460" lon="-0.7759820">
        <ele>294.0</ele>
        <time>2020-03-15T07:44:33Z</time>
      </trkpt>
      <trkpt lat="38.3124530" lon="-0.7760240">
        <ele>292.6</ele>
        <time>2020-03-15T07:44:34Z</time>
      </trkpt>
      <trkpt lat="38.3125030" lon="-0.7760480">
        <ele>291.6</ele>
        <time>2020-03-15T07:44:35Z</time>
      </trkpt>
      <trkpt lat="38.3125520" lon="-0.7760720">
        <ele>291.4</ele>
        <time>2020-03-15T07:44:36Z</time>
      </trkpt>
      <trkpt lat="38.3126910" lon="-0.7761360">
        <ele>291.2</ele>
        <time>2020-03-15T07:44:37Z</time>
      </trkpt>
      <trkpt lat="38.3127310" lon="-0.7761520">
        <ele>291.0</ele>
        <time>2020-03-15T07:44:38Z</time>
      </trkpt>
      <trkpt lat="38.3128350" lon="-0.7762100">
        <ele>291.0</ele>
        <time>2020-03-15T07:44:39Z</time>
      </trkpt>
      <trkpt lat="38.3128590" lon="-0.7762360">
        <ele>291.4</ele>
        <time>2020-03-15T07:44:40Z</time>
      </trkpt>
      <trkpt lat="38.3128820" lon="-0.7762990">
        <ele>292.2</ele>
        <time>2020-03-15T07:44:41Z</time>
      </trkpt>
      <trkpt lat="38.3128800" lon="-0.7764010">
        <ele>292.8</ele>
        <time>2020-03-15T07:44:42Z</time>
      </trkpt>
      <trkpt lat="38.3128740" lon="-0.7764460">
        <ele>293.2</ele>
        <time>2020-03-15T07:44:43Z</time>
      </trkpt>
      <trkpt lat="38.3128650" lon="-0.7764900">
        <ele>293.6</ele>
        <time>2020-03-15T07:44:44Z</time>
      </trkpt>
      <trkpt lat="38.3128540" lon="-0.7765370">
        <ele>294.0</ele>
        <time>2020-03-15T07:44:45Z</time>
      </trkpt>
      <trkpt lat="38.3128420" lon="-0.7765830">
        <ele>294.4</ele>
        <time>2020-03-15T07:44:46Z</time>
      </trkpt>
      <trkpt lat="38.3128360" lon="-0.7766310">
        <ele>295.0</ele>
        <time>2020-03-15T07:44:47Z</time>
      </trkpt>
      <trkpt lat="38.3128410" lon="-0.7767300">
        <ele>295.8</ele>
        <time>2020-03-15T07:44:49Z</time>
      </trkpt>
      <trkpt lat="38.3128430" lon="-0.7767770">
        <ele>296.6</ele>
        <time>2020-03-15T07:44:50Z</time>
      </trkpt>
      <trkpt lat="38.3128430" lon="-0.7768250">
        <ele>296.8</ele>
        <time>2020-03-15T07:44:51Z</time>
      </trkpt>
      <trkpt lat="38.3128430" lon="-0.7768720">
        <ele>297.2</ele>
        <time>2020-03-15T07:44:52Z</time>
      </trkpt>
      <trkpt lat="38.3128420" lon="-0.7769200">
        <ele>297.8</ele>
        <time>2020-03-15T07:44:53Z</time>
      </trkpt>
      <trkpt lat="38.3128420" lon="-0.7769690">
        <ele>298.2</ele>
        <time>2020-03-15T07:44:54Z</time>
      </trkpt>
      <trkpt lat="38.3128470" lon="-0.7770210">
        <ele>298.6</ele>
        <time>2020-03-15T07:44:55Z</time>
      </trkpt>
      <trkpt lat="38.3128510" lon="-0.7770740">
        <ele>298.8</ele>
        <time>2020-03-15T07:44:56Z</time>
      </trkpt>
      <trkpt lat="38.3128540" lon="-0.7771290">
        <ele>299.2</ele>
        <time>2020-03-15T07:44:57Z</time>
      </trkpt>
      <trkpt lat="38.3128550" lon="-0.7771570">
        <ele>299.4</ele>
        <time>2020-03-15T07:44:58Z</time>
      </trkpt>
      <trkpt lat="38.3128550" lon="-0.7771850">
        <ele>299.4</ele>
        <time>2020-03-15T07:44:59Z</time>
      </trkpt>
      <trkpt lat="38.3128640" lon="-0.7773050">
        <ele>299.6</ele>
        <time>2020-03-15T07:45:00Z</time>
      </trkpt>
      <trkpt lat="38.3128700" lon="-0.7773670">
        <ele>299.8</ele>
        <time>2020-03-15T07:45:01Z</time>
      </trkpt>
      <trkpt lat="38.3128760" lon="-0.7774300">
        <ele>300.0</ele>
        <time>2020-03-15T07:45:02Z</time>
      </trkpt>
      <trkpt lat="38.3128800" lon="-0.7774940">
        <ele>300.2</ele>
        <time>2020-03-15T07:45:03Z</time>
      </trkpt>
      <trkpt lat="38.3128920" lon="-0.7775580">
        <ele>300.4</ele>
        <time>2020-03-15T07:45:04Z</time>
      </trkpt>
      <trkpt lat="38.3129000" lon="-0.7776030">
        <ele>300.8</ele>
        <time>2020-03-15T07:45:05Z</time>
      </trkpt>
      <trkpt lat="38.3129070" lon="-0.7776490">
        <ele>301.0</ele>
        <time>2020-03-15T07:45:06Z</time>
      </trkpt>
      <trkpt lat="38.3129210" lon="-0.7777410">
        <ele>301.4</ele>
        <time>2020-03-15T07:45:07Z</time>
      </trkpt>
      <trkpt lat="38.3129300" lon="-0.7777970">
        <ele>301.6</ele>
        <time>2020-03-15T07:45:08Z</time>
      </trkpt>
      <trkpt lat="38.3129420" lon="-0.7778540">
        <ele>302.2</ele>
        <time>2020-03-15T07:45:09Z</time>
      </trkpt>
      <trkpt lat="38.3129540" lon="-0.7779090">
        <ele>302.6</ele>
        <time>2020-03-15T07:45:10Z</time>
      </trkpt>
      <trkpt lat="38.3129680" lon="-0.7779630">
        <ele>303.0</ele>
        <time>2020-03-15T07:45:11Z</time>
      </trkpt>
      <trkpt lat="38.3129790" lon="-0.7780130">
        <ele>303.2</ele>
        <time>2020-03-15T07:45:12Z</time>
      </trkpt>
      <trkpt lat="38.3129900" lon="-0.7780650">
        <ele>303.8</ele>
        <time>2020-03-15T07:45:13Z</time>
      </trkpt>
      <trkpt lat="38.3130010" lon="-0.7781090">
        <ele>304.0</ele>
        <time>2020-03-15T07:45:14Z</time>
      </trkpt>
      <trkpt lat="38.3130140" lon="-0.7781540">
        <ele>304.2</ele>
        <time>2020-03-15T07:45:15Z</time>
      </trkpt>
      <trkpt lat="38.3130260" lon="-0.7781990">
        <ele>304.6</ele>
        <time>2020-03-15T07:45:16Z</time>
      </trkpt>
      <trkpt lat="38.3130360" lon="-0.7782460">
        <ele>305.0</ele>
        <time>2020-03-15T07:45:17Z</time>
      </trkpt>
      <trkpt lat="38.3130450" lon="-0.7782930">
        <ele>305.4</ele>
        <time>2020-03-15T07:45:18Z</time>
      </trkpt>
      <trkpt lat="38.3130470" lon="-0.7783370">
        <ele>305.6</ele>
        <time>2020-03-15T07:45:19Z</time>
      </trkpt>
      <trkpt lat="38.3130490" lon="-0.7783810">
        <ele>306.0</ele>
        <time>2020-03-15T07:45:20Z</time>
      </trkpt>
      <trkpt lat="38.3130500" lon="-0.7784050">
        <ele>306.6</ele>
        <time>2020-03-15T07:45:21Z</time>
      </trkpt>
      <trkpt lat="38.3130500" lon="-0.7784290">
        <ele>307.2</ele>
        <time>2020-03-15T07:45:22Z</time>
      </trkpt>
      <trkpt lat="38.3130540" lon="-0.7785160">
        <ele>307.4</ele>
        <time>2020-03-15T07:45:23Z</time>
      </trkpt>
      <trkpt lat="38.3130600" lon="-0.7785560">
        <ele>307.8</ele>
        <time>2020-03-15T07:45:24Z</time>
      </trkpt>
      <trkpt lat="38.3130660" lon="-0.7785950">
        <ele>308.2</ele>
        <time>2020-03-15T07:45:25Z</time>
      </trkpt>
      <trkpt lat="38.3130730" lon="-0.7786380">
        <ele>308.6</ele>
        <time>2020-03-15T07:45:26Z</time>
      </trkpt>
      <trkpt lat="38.3130780" lon="-0.7786770">
        <ele>309.0</ele>
        <time>2020-03-15T07:45:27Z</time>
      </trkpt>
      <trkpt lat="38.3130820" lon="-0.7787170">
        <ele>309.2</ele>
        <time>2020-03-15T07:45:28Z</time>
      </trkpt>
      <trkpt lat="38.3130900" lon="-0.7787580">
        <ele>309.4</ele>
        <time>2020-03-15T07:45:29Z</time>
      </trkpt>
      <trkpt lat="38.3130970" lon="-0.7787990">
        <ele>309.6</ele>
        <time>2020-03-15T07:45:30Z</time>
      </trkpt>
      <trkpt lat="38.3131040" lon="-0.7788390">
        <ele>309.8</ele>
        <time>2020-03-15T07:45:31Z</time>
      </trkpt>
      <trkpt lat="38.3131090" lon="-0.7788790">
        <ele>310.0</ele>
        <time>2020-03-15T07:45:32Z</time>
      </trkpt>
      <trkpt lat="38.3131090" lon="-0.7788790">
        <ele>310.2</ele>
        <time>2020-03-15T07:45:33Z</time>
      </trkpt>
      <trkpt lat="38.3131150" lon="-0.7789210">
        <ele>310.6</ele>
        <time>2020-03-15T07:45:34Z</time>
      </trkpt>
      <trkpt lat="38.3131210" lon="-0.7789610">
        <ele>311.0</ele>
        <time>2020-03-15T07:45:35Z</time>
      </trkpt>
      <trkpt lat="38.3131330" lon="-0.7790390">
        <ele>311.2</ele>
        <time>2020-03-15T07:45:36Z</time>
      </trkpt>
      <trkpt lat="38.3131390" lon="-0.7790790">
        <ele>311.6</ele>
        <time>2020-03-15T07:45:37Z</time>
      </trkpt>
      <trkpt lat="38.3131440" lon="-0.7791190">
        <ele>311.8</ele>
        <time>2020-03-15T07:45:38Z</time>
      </trkpt>
      <trkpt lat="38.3131490" lon="-0.7791980">
        <ele>312.4</ele>
        <time>2020-03-15T07:45:40Z</time>
      </trkpt>
      <trkpt lat="38.3131500" lon="-0.7792380">
        <ele>312.6</ele>
        <time>2020-03-15T07:45:41Z</time>
      </trkpt>
      <trkpt lat="38.3131510" lon="-0.7792790">
        <ele>313.0</ele>
        <time>2020-03-15T07:45:42Z</time>
      </trkpt>
      <trkpt lat="38.3131510" lon="-0.7793210">
        <ele>313.2</ele>
        <time>2020-03-15T07:45:43Z</time>
      </trkpt>
      <trkpt lat="38.3131520" lon="-0.7793640">
        <ele>313.4</ele>
        <time>2020-03-15T07:45:44Z</time>
      </trkpt>
      <trkpt lat="38.3131460" lon="-0.7794080">
        <ele>313.6</ele>
        <time>2020-03-15T07:45:45Z</time>
      </trkpt>
      <trkpt lat="38.3131400" lon="-0.7794510">
        <ele>313.8</ele>
        <time>2020-03-15T07:45:46Z</time>
      </trkpt>
      <trkpt lat="38.3131300" lon="-0.7794920">
        <ele>314.0</ele>
        <time>2020-03-15T07:45:47Z</time>
      </trkpt>
      <trkpt lat="38.3131190" lon="-0.7795260">
        <ele>314.4</ele>
        <time>2020-03-15T07:45:48Z</time>
      </trkpt>
      <trkpt lat="38.3131060" lon="-0.7795590">
        <ele>314.6</ele>
        <time>2020-03-15T07:45:49Z</time>
      </trkpt>
      <trkpt lat="38.3130910" lon="-0.7795980">
        <ele>315.0</ele>
        <time>2020-03-15T07:45:50Z</time>
      </trkpt>
      <trkpt lat="38.3130790" lon="-0.7796360">
        <ele>315.4</ele>
        <time>2020-03-15T07:45:51Z</time>
      </trkpt>
      <trkpt lat="38.3130680" lon="-0.7796750">
        <ele>315.8</ele>
        <time>2020-03-15T07:45:52Z</time>
      </trkpt>
      <trkpt lat="38.3130560" lon="-0.7797130">
        <ele>316.2</ele>
        <time>2020-03-15T07:45:53Z</time>
      </trkpt>
      <trkpt lat="38.3130440" lon="-0.7797560">
        <ele>316.6</ele>
        <time>2020-03-15T07:45:54Z</time>
      </trkpt>
      <trkpt lat="38.3130320" lon="-0.7797950">
        <ele>316.6</ele>
        <time>2020-03-15T07:45:55Z</time>
      </trkpt>
      <trkpt lat="38.3130250" lon="-0.7798290">
        <ele>317.0</ele>
        <time>2020-03-15T07:45:56Z</time>
      </trkpt>
      <trkpt lat="38.3130130" lon="-0.7798640">
        <ele>317.4</ele>
        <time>2020-03-15T07:45:57Z</time>
      </trkpt>
      <trkpt lat="38.3130130" lon="-0.7798640">
        <ele>317.6</ele>
        <time>2020-03-15T07:45:58Z</time>
      </trkpt>
      <trkpt lat="38.3129950" lon="-0.7799400">
        <ele>318.2</ele>
        <time>2020-03-15T07:46:00Z</time>
      </trkpt>
      <trkpt lat="38.3129880" lon="-0.7800190">
        <ele>318.4</ele>
        <time>2020-03-15T07:46:01Z</time>
      </trkpt>
      <trkpt lat="38.3129850" lon="-0.7800610">
        <ele>318.6</ele>
        <time>2020-03-15T07:46:02Z</time>
      </trkpt>
      <trkpt lat="38.3129860" lon="-0.7801040">
        <ele>319.2</ele>
        <time>2020-03-15T07:46:03Z</time>
      </trkpt>
      <trkpt lat="38.3129870" lon="-0.7801400">
        <ele>319.6</ele>
        <time>2020-03-15T07:46:04Z</time>
      </trkpt>
      <trkpt lat="38.3129870" lon="-0.7801400">
        <ele>320.0</ele>
        <time>2020-03-15T07:46:05Z</time>
      </trkpt>
      <trkpt lat="38.3129860" lon="-0.7801750">
        <ele>320.4</ele>
        <time>2020-03-15T07:46:06Z</time>
      </trkpt>
      <trkpt lat="38.3129760" lon="-0.7802090">
        <ele>320.6</ele>
        <time>2020-03-15T07:46:07Z</time>
      </trkpt>
      <trkpt lat="38.3129560" lon="-0.7802430">
        <ele>320.8</ele>
        <time>2020-03-15T07:46:08Z</time>
      </trkpt>
      <trkpt lat="38.3129320" lon="-0.7802810">
        <ele>320.8</ele>
        <time>2020-03-15T07:46:09Z</time>
      </trkpt>
      <trkpt lat="38.3128800" lon="-0.7803610">
        <ele>320.6</ele>
        <time>2020-03-15T07:46:10Z</time>
      </trkpt>
      <trkpt lat="38.3128490" lon="-0.7804060">
        <ele>320.6</ele>
        <time>2020-03-15T07:46:11Z</time>
      </trkpt>
      <trkpt lat="38.3128180" lon="-0.7804500">
        <ele>320.6</ele>
        <time>2020-03-15T07:46:12Z</time>
      </trkpt>
      <trkpt lat="38.3127860" lon="-0.7805000">
        <ele>320.6</ele>
        <time>2020-03-15T07:46:13Z</time>
      </trkpt>
      <trkpt lat="38.3127550" lon="-0.7805500">
        <ele>320.6</ele>
        <time>2020-03-15T07:46:14Z</time>
      </trkpt>
      <trkpt lat="38.3127390" lon="-0.7805780">
        <ele>320.6</ele>
        <time>2020-03-15T07:46:15Z</time>
      </trkpt>
      <trkpt lat="38.3127230" lon="-0.7806050">
        <ele>320.8</ele>
        <time>2020-03-15T07:46:16Z</time>
      </trkpt>
      <trkpt lat="38.3126760" lon="-0.7806880">
        <ele>320.8</ele>
        <time>2020-03-15T07:46:17Z</time>
      </trkpt>
      <trkpt lat="38.3126600" lon="-0.7807160">
        <ele>320.8</ele>
        <time>2020-03-15T07:46:18Z</time>
      </trkpt>
      <trkpt lat="38.3125950" lon="-0.7808350">
        <ele>320.8</ele>
        <time>2020-03-15T07:46:19Z</time>
      </trkpt>
      <trkpt lat="38.3125590" lon="-0.7808900">
        <ele>321.2</ele>
        <time>2020-03-15T07:46:21Z</time>
      </trkpt>
      <trkpt lat="38.3125180" lon="-0.7809400">
        <ele>321.4</ele>
        <time>2020-03-15T07:46:22Z</time>
      </trkpt>
      <trkpt lat="38.3124280" lon="-0.7810140">
        <ele>321.6</ele>
        <time>2020-03-15T07:46:23Z</time>
      </trkpt>
      <trkpt lat="38.3124030" lon="-0.7810280">
        <ele>321.8</ele>
        <time>2020-03-15T07:46:24Z</time>
      </trkpt>
      <trkpt lat="38.3123780" lon="-0.7810420">
        <ele>322.0</ele>
        <time>2020-03-15T07:46:25Z</time>
      </trkpt>
      <trkpt lat="38.3123300" lon="-0.7810660">
        <ele>322.0</ele>
        <time>2020-03-15T07:46:26Z</time>
      </trkpt>
      <trkpt lat="38.3122330" lon="-0.7811080">
        <ele>322.2</ele>
        <time>2020-03-15T07:46:27Z</time>
      </trkpt>
      <trkpt lat="38.3121880" lon="-0.7811300">
        <ele>322.4</ele>
        <time>2020-03-15T07:46:28Z</time>
      </trkpt>
      <trkpt lat="38.3121420" lon="-0.7811520">
        <ele>322.6</ele>
        <time>2020-03-15T07:46:29Z</time>
      </trkpt>
      <trkpt lat="38.3121020" lon="-0.7811790">
        <ele>322.8</ele>
        <time>2020-03-15T07:46:30Z</time>
      </trkpt>
      <trkpt lat="38.3120680" lon="-0.7812200">
        <ele>322.8</ele>
        <time>2020-03-15T07:46:31Z</time>
      </trkpt>
      <trkpt lat="38.3120330" lon="-0.7812610">
        <ele>322.6</ele>
        <time>2020-03-15T07:46:32Z</time>
      </trkpt>
      <trkpt lat="38.3120120" lon="-0.7813230">
        <ele>322.2</ele>
        <time>2020-03-15T07:46:33Z</time>
      </trkpt>
      <trkpt lat="38.3120090" lon="-0.7813590">
        <ele>322.4</ele>
        <time>2020-03-15T07:46:34Z</time>
      </trkpt>
      <trkpt lat="38.3120060" lon="-0.7813940">
        <ele>322.4</ele>
        <time>2020-03-15T07:46:35Z</time>
      </trkpt>
      <trkpt lat="38.3120010" lon="-0.7815340">
        <ele>322.6</ele>
        <time>2020-03-15T07:46:36Z</time>
      </trkpt>
      <trkpt lat="38.3119830" lon="-0.7815800">
        <ele>322.8</ele>
        <time>2020-03-15T07:46:37Z</time>
      </trkpt>
      <trkpt lat="38.3119640" lon="-0.7816260">
        <ele>322.6</ele>
        <time>2020-03-15T07:46:38Z</time>
      </trkpt>
      <trkpt lat="38.3119270" lon="-0.7817180">
        <ele>323.0</ele>
        <time>2020-03-15T07:46:39Z</time>
      </trkpt>
      <trkpt lat="38.3118930" lon="-0.7817500">
        <ele>322.8</ele>
        <time>2020-03-15T07:46:40Z</time>
      </trkpt>
      <trkpt lat="38.3118590" lon="-0.7817820">
        <ele>323.0</ele>
        <time>2020-03-15T07:46:41Z</time>
      </trkpt>
      <trkpt lat="38.3117900" lon="-0.7818460">
        <ele>323.2</ele>
        <time>2020-03-15T07:46:42Z</time>
      </trkpt>
      <trkpt lat="38.3117460" lon="-0.7818940">
        <ele>323.2</ele>
        <time>2020-03-15T07:46:43Z</time>
      </trkpt>
      <trkpt lat="38.3117240" lon="-0.7819310">
        <ele>323.6</ele>
        <time>2020-03-15T07:46:44Z</time>
      </trkpt>
      <trkpt lat="38.3117010" lon="-0.7819680">
        <ele>324.2</ele>
        <time>2020-03-15T07:46:45Z</time>
      </trkpt>
      <trkpt lat="38.3116550" lon="-0.7820410">
        <ele>324.4</ele>
        <time>2020-03-15T07:46:46Z</time>
      </trkpt>
      <trkpt lat="38.3116270" lon="-0.7820860">
        <ele>324.6</ele>
        <time>2020-03-15T07:46:47Z</time>
      </trkpt>
      <trkpt lat="38.3115980" lon="-0.7821310">
        <ele>324.8</ele>
        <time>2020-03-15T07:46:48Z</time>
      </trkpt>
      <trkpt lat="38.3115710" lon="-0.7821800">
        <ele>324.8</ele>
        <time>2020-03-15T07:46:49Z</time>
      </trkpt>
      <trkpt lat="38.3115430" lon="-0.7822280">
        <ele>324.8</ele>
        <time>2020-03-15T07:46:50Z</time>
      </trkpt>
      <trkpt lat="38.3115280" lon="-0.7822530">
        <ele>325.0</ele>
        <time>2020-03-15T07:46:51Z</time>
      </trkpt>
      <trkpt lat="38.3115120" lon="-0.7822780">
        <ele>325.2</ele>
        <time>2020-03-15T07:46:52Z</time>
      </trkpt>
      <trkpt lat="38.3114690" lon="-0.7823570">
        <ele>325.0</ele>
        <time>2020-03-15T07:46:53Z</time>
      </trkpt>
      <trkpt lat="38.3114580" lon="-0.7823860">
        <ele>325.0</ele>
        <time>2020-03-15T07:46:54Z</time>
      </trkpt>
      <trkpt lat="38.3114220" lon="-0.7824740">
        <ele>325.2</ele>
        <time>2020-03-15T07:46:55Z</time>
      </trkpt>
      <trkpt lat="38.3114080" lon="-0.7825040">
        <ele>325.2</ele>
        <time>2020-03-15T07:46:56Z</time>
      </trkpt>
      <trkpt lat="38.3113640" lon="-0.7826320">
        <ele>325.0</ele>
        <time>2020-03-15T07:46:57Z</time>
      </trkpt>
      <trkpt lat="38.3113560" lon="-0.7826660">
        <ele>325.4</ele>
        <time>2020-03-15T07:46:58Z</time>
      </trkpt>
      <trkpt lat="38.3113470" lon="-0.7826990">
        <ele>325.4</ele>
        <time>2020-03-15T07:46:59Z</time>
      </trkpt>
      <trkpt lat="38.3113110" lon="-0.7828310">
        <ele>325.6</ele>
        <time>2020-03-15T07:47:00Z</time>
      </trkpt>
      <trkpt lat="38.3112870" lon="-0.7828930">
        <ele>325.8</ele>
        <time>2020-03-15T07:47:01Z</time>
      </trkpt>
      <trkpt lat="38.3112560" lon="-0.7829490">
        <ele>325.8</ele>
        <time>2020-03-15T07:47:02Z</time>
      </trkpt>
      <trkpt lat="38.3112160" lon="-0.7829860">
        <ele>325.8</ele>
        <time>2020-03-15T07:47:03Z</time>
      </trkpt>
      <trkpt lat="38.3111910" lon="-0.7830050">
        <ele>325.8</ele>
        <time>2020-03-15T07:47:04Z</time>
      </trkpt>
      <trkpt lat="38.3111660" lon="-0.7830240">
        <ele>325.8</ele>
        <time>2020-03-15T07:47:05Z</time>
      </trkpt>
      <trkpt lat="38.3110670" lon="-0.7830990">
        <ele>326.0</ele>
        <time>2020-03-15T07:47:06Z</time>
      </trkpt>
      <trkpt lat="38.3110430" lon="-0.7831200">
        <ele>326.0</ele>
        <time>2020-03-15T07:47:07Z</time>
      </trkpt>
      <trkpt lat="38.3110190" lon="-0.7831400">
        <ele>326.0</ele>
        <time>2020-03-15T07:47:08Z</time>
      </trkpt>
      <trkpt lat="38.3109300" lon="-0.7832390">
        <ele>326.0</ele>
        <time>2020-03-15T07:47:09Z</time>
      </trkpt>
      <trkpt lat="38.3109150" lon="-0.7832870">
        <ele>326.0</ele>
        <time>2020-03-15T07:47:10Z</time>
      </trkpt>
      <trkpt lat="38.3108990" lon="-0.7833350">
        <ele>326.2</ele>
        <time>2020-03-15T07:47:11Z</time>
      </trkpt>
      <trkpt lat="38.3108670" lon="-0.7834310">
        <ele>326.4</ele>
        <time>2020-03-15T07:47:12Z</time>
      </trkpt>
      <trkpt lat="38.3108640" lon="-0.7834970">
        <ele>326.6</ele>
        <time>2020-03-15T07:47:13Z</time>
      </trkpt>
      <trkpt lat="38.3108590" lon="-0.7835600">
        <ele>326.8</ele>
        <time>2020-03-15T07:47:14Z</time>
      </trkpt>
      <trkpt lat="38.3108570" lon="-0.7835900">
        <ele>327.2</ele>
        <time>2020-03-15T07:47:15Z</time>
      </trkpt>
      <trkpt lat="38.3108550" lon="-0.7836200">
        <ele>327.4</ele>
        <time>2020-03-15T07:47:16Z</time>
      </trkpt>
      <trkpt lat="38.3108400" lon="-0.7837350">
        <ele>327.8</ele>
        <time>2020-03-15T07:47:17Z</time>
      </trkpt>
      <trkpt lat="38.3108310" lon="-0.7837910">
        <ele>328.0</ele>
        <time>2020-03-15T07:47:18Z</time>
      </trkpt>
      <trkpt lat="38.3108310" lon="-0.7838450">
        <ele>328.2</ele>
        <time>2020-03-15T07:47:19Z</time>
      </trkpt>
      <trkpt lat="38.3108390" lon="-0.7838900">
        <ele>328.6</ele>
        <time>2020-03-15T07:47:20Z</time>
      </trkpt>
      <trkpt lat="38.3108530" lon="-0.7839350">
        <ele>328.8</ele>
        <time>2020-03-15T07:47:21Z</time>
      </trkpt>
      <trkpt lat="38.3108670" lon="-0.7839810">
        <ele>329.0</ele>
        <time>2020-03-15T07:47:22Z</time>
      </trkpt>
      <trkpt lat="38.3108810" lon="-0.7840270">
        <ele>329.4</ele>
        <time>2020-03-15T07:47:23Z</time>
      </trkpt>
      <trkpt lat="38.3109010" lon="-0.7840750">
        <ele>329.8</ele>
        <time>2020-03-15T07:47:24Z</time>
      </trkpt>
      <trkpt lat="38.3109210" lon="-0.7841230">
        <ele>330.0</ele>
        <time>2020-03-15T07:47:25Z</time>
      </trkpt>
      <trkpt lat="38.3109420" lon="-0.7841710">
        <ele>330.4</ele>
        <time>2020-03-15T07:47:26Z</time>
      </trkpt>
      <trkpt lat="38.3109450" lon="-0.7842210">
        <ele>330.8</ele>
        <time>2020-03-15T07:47:27Z</time>
      </trkpt>
      <trkpt lat="38.3109360" lon="-0.7842730">
        <ele>331.0</ele>
        <time>2020-03-15T07:47:28Z</time>
      </trkpt>
      <trkpt lat="38.3109250" lon="-0.7843250">
        <ele>331.2</ele>
        <time>2020-03-15T07:47:29Z</time>
      </trkpt>
      <trkpt lat="38.3109200" lon="-0.7843520">
        <ele>331.8</ele>
        <time>2020-03-15T07:47:30Z</time>
      </trkpt>
      <trkpt lat="38.3109140" lon="-0.7843790">
        <ele>332.0</ele>
        <time>2020-03-15T07:47:31Z</time>
      </trkpt>
      <trkpt lat="38.3108980" lon="-0.7844310">
        <ele>332.4</ele>
        <time>2020-03-15T07:47:32Z</time>
      </trkpt>
      <trkpt lat="38.3108830" lon="-0.7844880">
        <ele>332.8</ele>
        <time>2020-03-15T07:47:33Z</time>
      </trkpt>
      <trkpt lat="38.3108660" lon="-0.7845950">
        <ele>333.0</ele>
        <time>2020-03-15T07:47:34Z</time>
      </trkpt>
      <trkpt lat="38.3108620" lon="-0.7846460">
        <ele>333.4</ele>
        <time>2020-03-15T07:47:35Z</time>
      </trkpt>
      <trkpt lat="38.3108620" lon="-0.7846960">
        <ele>333.4</ele>
        <time>2020-03-15T07:47:36Z</time>
      </trkpt>
      <trkpt lat="38.3108620" lon="-0.7847450">
        <ele>333.8</ele>
        <time>2020-03-15T07:47:37Z</time>
      </trkpt>
      <trkpt lat="38.3108630" lon="-0.7847890">
        <ele>334.2</ele>
        <time>2020-03-15T07:47:38Z</time>
      </trkpt>
      <trkpt lat="38.3108660" lon="-0.7848340">
        <ele>334.6</ele>
        <time>2020-03-15T07:47:39Z</time>
      </trkpt>
      <trkpt lat="38.3108680" lon="-0.7848790">
        <ele>335.0</ele>
        <time>2020-03-15T07:47:40Z</time>
      </trkpt>
      <trkpt lat="38.3108680" lon="-0.7849200">
        <ele>335.4</ele>
        <time>2020-03-15T07:47:41Z</time>
      </trkpt>
      <trkpt lat="38.3108680" lon="-0.7849610">
        <ele>335.6</ele>
        <time>2020-03-15T07:47:42Z</time>
      </trkpt>
      <trkpt lat="38.3108610" lon="-0.7850040">
        <ele>336.2</ele>
        <time>2020-03-15T07:47:43Z</time>
      </trkpt>
      <trkpt lat="38.3108460" lon="-0.7850390">
        <ele>336.6</ele>
        <time>2020-03-15T07:47:44Z</time>
      </trkpt>
      <trkpt lat="38.3108260" lon="-0.7850660">
        <ele>337.0</ele>
        <time>2020-03-15T07:47:45Z</time>
      </trkpt>
      <trkpt lat="38.3107980" lon="-0.7850900">
        <ele>337.2</ele>
        <time>2020-03-15T07:47:46Z</time>
      </trkpt>
      <trkpt lat="38.3107700" lon="-0.7851140">
        <ele>337.4</ele>
        <time>2020-03-15T07:47:47Z</time>
      </trkpt>
      <trkpt lat="38.3107400" lon="-0.7851380">
        <ele>337.8</ele>
        <time>2020-03-15T07:47:48Z</time>
      </trkpt>
      <trkpt lat="38.3107070" lon="-0.7851620">
        <ele>337.8</ele>
        <time>2020-03-15T07:47:49Z</time>
      </trkpt>
      <trkpt lat="38.3106780" lon="-0.7851870">
        <ele>338.0</ele>
        <time>2020-03-15T07:47:50Z</time>
      </trkpt>
      <trkpt lat="38.3106560" lon="-0.7852240">
        <ele>338.2</ele>
        <time>2020-03-15T07:47:51Z</time>
      </trkpt>
      <trkpt lat="38.3106330" lon="-0.7852610">
        <ele>338.4</ele>
        <time>2020-03-15T07:47:52Z</time>
      </trkpt>
      <trkpt lat="38.3106210" lon="-0.7853060">
        <ele>338.6</ele>
        <time>2020-03-15T07:47:53Z</time>
      </trkpt>
      <trkpt lat="38.3106210" lon="-0.7853520">
        <ele>338.8</ele>
        <time>2020-03-15T07:47:54Z</time>
      </trkpt>
      <trkpt lat="38.3106200" lon="-0.7853980">
        <ele>339.2</ele>
        <time>2020-03-15T07:47:55Z</time>
      </trkpt>
      <trkpt lat="38.3106380" lon="-0.7854320">
        <ele>339.4</ele>
        <time>2020-03-15T07:47:56Z</time>
      </trkpt>
      <trkpt lat="38.3106560" lon="-0.7854650">
        <ele>339.8</ele>
        <time>2020-03-15T07:47:57Z</time>
      </trkpt>
      <trkpt lat="38.3106730" lon="-0.7854990">
        <ele>340.4</ele>
        <time>2020-03-15T07:47:58Z</time>
      </trkpt>
      <trkpt lat="38.3106880" lon="-0.7855320">
        <ele>340.6</ele>
        <time>2020-03-15T07:47:59Z</time>
      </trkpt>
      <trkpt lat="38.3107020" lon="-0.7855670">
        <ele>341.0</ele>
        <time>2020-03-15T07:48:00Z</time>
      </trkpt>
      <trkpt lat="38.3107170" lon="-0.7856060">
        <ele>341.0</ele>
        <time>2020-03-15T07:48:01Z</time>
      </trkpt>
      <trkpt lat="38.3107330" lon="-0.7856520">
        <ele>341.2</ele>
        <time>2020-03-15T07:48:02Z</time>
      </trkpt>
      <trkpt lat="38.3107510" lon="-0.7856980">
        <ele>341.0</ele>
        <time>2020-03-15T07:48:03Z</time>
      </trkpt>
      <trkpt lat="38.3107720" lon="-0.7857490">
        <ele>341.2</ele>
        <time>2020-03-15T07:48:04Z</time>
      </trkpt>
      <trkpt lat="38.3107920" lon="-0.7858000">
        <ele>341.2</ele>
        <time>2020-03-15T07:48:05Z</time>
      </trkpt>
      <trkpt lat="38.3108140" lon="-0.7858510">
        <ele>341.2</ele>
        <time>2020-03-15T07:48:06Z</time>
      </trkpt>
      <trkpt lat="38.3108380" lon="-0.7859020">
        <ele>341.4</ele>
        <time>2020-03-15T07:48:07Z</time>
      </trkpt>
      <trkpt lat="38.3108630" lon="-0.7859500">
        <ele>341.4</ele>
        <time>2020-03-15T07:48:08Z</time>
      </trkpt>
      <trkpt lat="38.3108890" lon="-0.7859980">
        <ele>341.6</ele>
        <time>2020-03-15T07:48:09Z</time>
      </trkpt>
      <trkpt lat="38.3109050" lon="-0.7860510">
        <ele>341.6</ele>
        <time>2020-03-15T07:48:10Z</time>
      </trkpt>
      <trkpt lat="38.3108910" lon="-0.7860980">
        <ele>341.6</ele>
        <time>2020-03-15T07:48:11Z</time>
      </trkpt>
      <trkpt lat="38.3108760" lon="-0.7861450">
        <ele>341.6</ele>
        <time>2020-03-15T07:48:12Z</time>
      </trkpt>
      <trkpt lat="38.3108580" lon="-0.7861680">
        <ele>341.8</ele>
        <time>2020-03-15T07:48:13Z</time>
      </trkpt>
      <trkpt lat="38.3108390" lon="-0.7861900">
        <ele>341.8</ele>
        <time>2020-03-15T07:48:14Z</time>
      </trkpt>
      <trkpt lat="38.3107990" lon="-0.7862310">
        <ele>342.0</ele>
        <time>2020-03-15T07:48:15Z</time>
      </trkpt>
      <trkpt lat="38.3107270" lon="-0.7863250">
        <ele>342.2</ele>
        <time>2020-03-15T07:48:16Z</time>
      </trkpt>
      <trkpt lat="38.3106890" lon="-0.7863740">
        <ele>342.0</ele>
        <time>2020-03-15T07:48:17Z</time>
      </trkpt>
      <trkpt lat="38.3106550" lon="-0.7864280">
        <ele>342.0</ele>
        <time>2020-03-15T07:48:18Z</time>
      </trkpt>
      <trkpt lat="38.3105850" lon="-0.7865350">
        <ele>342.0</ele>
        <time>2020-03-15T07:48:20Z</time>
      </trkpt>
      <trkpt lat="38.3105660" lon="-0.7865620">
        <ele>341.8</ele>
        <time>2020-03-15T07:48:21Z</time>
      </trkpt>
      <trkpt lat="38.3105470" lon="-0.7865890">
        <ele>342.0</ele>
        <time>2020-03-15T07:48:22Z</time>
      </trkpt>
      <trkpt lat="38.3105020" lon="-0.7867140">
        <ele>342.0</ele>
        <time>2020-03-15T07:48:24Z</time>
      </trkpt>
      <trkpt lat="38.3105060" lon="-0.7868320">
        <ele>342.8</ele>
        <time>2020-03-15T07:48:25Z</time>
      </trkpt>
      <trkpt lat="38.3105130" lon="-0.7868720">
        <ele>343.2</ele>
        <time>2020-03-15T07:48:26Z</time>
      </trkpt>
      <trkpt lat="38.3105190" lon="-0.7869130">
        <ele>343.6</ele>
        <time>2020-03-15T07:48:27Z</time>
      </trkpt>
      <trkpt lat="38.3105270" lon="-0.7869600">
        <ele>343.8</ele>
        <time>2020-03-15T07:48:28Z</time>
      </trkpt>
      <trkpt lat="38.3105380" lon="-0.7870070">
        <ele>344.2</ele>
        <time>2020-03-15T07:48:29Z</time>
      </trkpt>
      <trkpt lat="38.3105480" lon="-0.7870540">
        <ele>345.0</ele>
        <time>2020-03-15T07:48:31Z</time>
      </trkpt>
      <trkpt lat="38.3105650" lon="-0.7871460">
        <ele>345.0</ele>
        <time>2020-03-15T07:48:32Z</time>
      </trkpt>
      <trkpt lat="38.3105720" lon="-0.7871950">
        <ele>345.2</ele>
        <time>2020-03-15T07:48:33Z</time>
      </trkpt>
      <trkpt lat="38.3105820" lon="-0.7872430">
        <ele>345.4</ele>
        <time>2020-03-15T07:48:34Z</time>
      </trkpt>
      <trkpt lat="38.3105920" lon="-0.7872920">
        <ele>345.4</ele>
        <time>2020-03-15T07:48:35Z</time>
      </trkpt>
      <trkpt lat="38.3105940" lon="-0.7873180">
        <ele>345.6</ele>
        <time>2020-03-15T07:48:36Z</time>
      </trkpt>
      <trkpt lat="38.3105960" lon="-0.7873440">
        <ele>345.6</ele>
        <time>2020-03-15T07:48:37Z</time>
      </trkpt>
      <trkpt lat="38.3105610" lon="-0.7874390">
        <ele>345.6</ele>
        <time>2020-03-15T07:48:38Z</time>
      </trkpt>
      <trkpt lat="38.3105250" lon="-0.7874800">
        <ele>345.4</ele>
        <time>2020-03-15T07:48:39Z</time>
      </trkpt>
      <trkpt lat="38.3105050" lon="-0.7874990">
        <ele>345.4</ele>
        <time>2020-03-15T07:48:40Z</time>
      </trkpt>
      <trkpt lat="38.3104840" lon="-0.7875170">
        <ele>345.4</ele>
        <time>2020-03-15T07:48:41Z</time>
      </trkpt>
      <trkpt lat="38.3104010" lon="-0.7875940">
        <ele>345.4</ele>
        <time>2020-03-15T07:48:42Z</time>
      </trkpt>
      <trkpt lat="38.3103680" lon="-0.7876390">
        <ele>345.4</ele>
        <time>2020-03-15T07:48:43Z</time>
      </trkpt>
      <trkpt lat="38.3103600" lon="-0.7876670">
        <ele>345.8</ele>
        <time>2020-03-15T07:48:44Z</time>
      </trkpt>
      <trkpt lat="38.3103510" lon="-0.7876950">
        <ele>346.0</ele>
        <time>2020-03-15T07:48:45Z</time>
      </trkpt>
      <trkpt lat="38.3103130" lon="-0.7878150">
        <ele>346.0</ele>
        <time>2020-03-15T07:48:46Z</time>
      </trkpt>
      <trkpt lat="38.3102990" lon="-0.7878730">
        <ele>346.2</ele>
        <time>2020-03-15T07:48:47Z</time>
      </trkpt>
      <trkpt lat="38.3102910" lon="-0.7879270">
        <ele>346.6</ele>
        <time>2020-03-15T07:48:48Z</time>
      </trkpt>
      <trkpt lat="38.3102960" lon="-0.7879780">
        <ele>346.8</ele>
        <time>2020-03-15T07:48:49Z</time>
      </trkpt>
      <trkpt lat="38.3103010" lon="-0.7880290">
        <ele>347.0</ele>
        <time>2020-03-15T07:48:50Z</time>
      </trkpt>
      <trkpt lat="38.3103090" lon="-0.7880730">
        <ele>347.4</ele>
        <time>2020-03-15T07:48:51Z</time>
      </trkpt>
      <trkpt lat="38.3103190" lon="-0.7881160">
        <ele>347.8</ele>
        <time>2020-03-15T07:48:52Z</time>
      </trkpt>
      <trkpt lat="38.3103280" lon="-0.7881560">
        <ele>348.0</ele>
        <time>2020-03-15T07:48:53Z</time>
      </trkpt>
      <trkpt lat="38.3103350" lon="-0.7881960">
        <ele>348.4</ele>
        <time>2020-03-15T07:48:54Z</time>
      </trkpt>
      <trkpt lat="38.3103420" lon="-0.7882340">
        <ele>348.4</ele>
        <time>2020-03-15T07:48:55Z</time>
      </trkpt>
      <trkpt lat="38.3103490" lon="-0.7882720">
        <ele>348.8</ele>
        <time>2020-03-15T07:48:56Z</time>
      </trkpt>
      <trkpt lat="38.3103580" lon="-0.7883070">
        <ele>349.2</ele>
        <time>2020-03-15T07:48:57Z</time>
      </trkpt>
      <trkpt lat="38.3103640" lon="-0.7883430">
        <ele>349.4</ele>
        <time>2020-03-15T07:48:58Z</time>
      </trkpt>
      <trkpt lat="38.3103700" lon="-0.7883790">
        <ele>350.0</ele>
        <time>2020-03-15T07:48:59Z</time>
      </trkpt>
      <trkpt lat="38.3103750" lon="-0.7884140">
        <ele>350.2</ele>
        <time>2020-03-15T07:49:00Z</time>
      </trkpt>
      <trkpt lat="38.3103770" lon="-0.7884460">
        <ele>350.6</ele>
        <time>2020-03-15T07:49:01Z</time>
      </trkpt>
      <trkpt lat="38.3103790" lon="-0.7884780">
        <ele>350.8</ele>
        <time>2020-03-15T07:49:02Z</time>
      </trkpt>
      <trkpt lat="38.3103800" lon="-0.7885100">
        <ele>351.2</ele>
        <time>2020-03-15T07:49:03Z</time>
      </trkpt>
      <trkpt lat="38.3103800" lon="-0.7885400">
        <ele>351.4</ele>
        <time>2020-03-15T07:49:04Z</time>
      </trkpt>
      <trkpt lat="38.3103790" lon="-0.7885690">
        <ele>351.8</ele>
        <time>2020-03-15T07:49:05Z</time>
      </trkpt>
      <trkpt lat="38.3103790" lon="-0.7885980">
        <ele>352.2</ele>
        <time>2020-03-15T07:49:06Z</time>
      </trkpt>
      <trkpt lat="38.3103810" lon="-0.7886270">
        <ele>352.6</ele>
        <time>2020-03-15T07:49:07Z</time>
      </trkpt>
      <trkpt lat="38.3103820" lon="-0.7886540">
        <ele>353.0</ele>
        <time>2020-03-15T07:49:08Z</time>
      </trkpt>
      <trkpt lat="38.3103840" lon="-0.7886820">
        <ele>353.2</ele>
        <time>2020-03-15T07:49:09Z</time>
      </trkpt>
      <trkpt lat="38.3103850" lon="-0.7887100">
        <ele>353.6</ele>
        <time>2020-03-15T07:49:10Z</time>
      </trkpt>
      <trkpt lat="38.3103850" lon="-0.7887380">
        <ele>354.0</ele>
        <time>2020-03-15T07:49:11Z</time>
      </trkpt>
      <trkpt lat="38.3103820" lon="-0.7887690">
        <ele>354.4</ele>
        <time>2020-03-15T07:49:12Z</time>
      </trkpt>
      <trkpt lat="38.3103790" lon="-0.7888030">
        <ele>354.8</ele>
        <time>2020-03-15T07:49:13Z</time>
      </trkpt>
      <trkpt lat="38.3103750" lon="-0.7888360">
        <ele>355.0</ele>
        <time>2020-03-15T07:49:14Z</time>
      </trkpt>
      <trkpt lat="38.3103720" lon="-0.7888670">
        <ele>355.4</ele>
        <time>2020-03-15T07:49:15Z</time>
      </trkpt>
      <trkpt lat="38.3103690" lon="-0.7888980">
        <ele>355.8</ele>
        <time>2020-03-15T07:49:16Z</time>
      </trkpt>
      <trkpt lat="38.3103640" lon="-0.7889280">
        <ele>356.2</ele>
        <time>2020-03-15T07:49:17Z</time>
      </trkpt>
      <trkpt lat="38.3103660" lon="-0.7889620">
        <ele>356.6</ele>
        <time>2020-03-15T07:49:18Z</time>
      </trkpt>
      <trkpt lat="38.3103690" lon="-0.7889940">
        <ele>356.8</ele>
        <time>2020-03-15T07:49:19Z</time>
      </trkpt>
      <trkpt lat="38.3103710" lon="-0.7890260">
        <ele>357.2</ele>
        <time>2020-03-15T07:49:20Z</time>
      </trkpt>
      <trkpt lat="38.3103760" lon="-0.7890570">
        <ele>357.4</ele>
        <time>2020-03-15T07:49:21Z</time>
      </trkpt>
      <trkpt lat="38.3103830" lon="-0.7890890">
        <ele>357.8</ele>
        <time>2020-03-15T07:49:22Z</time>
      </trkpt>
      <trkpt lat="38.3103890" lon="-0.7891210">
        <ele>358.2</ele>
        <time>2020-03-15T07:49:23Z</time>
      </trkpt>
      <trkpt lat="38.3103890" lon="-0.7891210">
        <ele>358.4</ele>
        <time>2020-03-15T07:49:24Z</time>
      </trkpt>
      <trkpt lat="38.3103950" lon="-0.7891510">
        <ele>359.0</ele>
        <time>2020-03-15T07:49:25Z</time>
      </trkpt>
      <trkpt lat="38.3104130" lon="-0.7892110">
        <ele>359.2</ele>
        <time>2020-03-15T07:49:26Z</time>
      </trkpt>
      <trkpt lat="38.3104240" lon="-0.7892390">
        <ele>359.6</ele>
        <time>2020-03-15T07:49:27Z</time>
      </trkpt>
      <trkpt lat="38.3104340" lon="-0.7892670">
        <ele>359.6</ele>
        <time>2020-03-15T07:49:28Z</time>
      </trkpt>
      <trkpt lat="38.3104480" lon="-0.7892950">
        <ele>360.0</ele>
        <time>2020-03-15T07:49:29Z</time>
      </trkpt>
      <trkpt lat="38.3104620" lon="-0.7893230">
        <ele>360.2</ele>
        <time>2020-03-15T07:49:30Z</time>
      </trkpt>
      <trkpt lat="38.3104760" lon="-0.7893520">
        <ele>360.4</ele>
        <time>2020-03-15T07:49:31Z</time>
      </trkpt>
      <trkpt lat="38.3104890" lon="-0.7893810">
        <ele>360.8</ele>
        <time>2020-03-15T07:49:32Z</time>
      </trkpt>
      <trkpt lat="38.3105060" lon="-0.7894070">
        <ele>361.0</ele>
        <time>2020-03-15T07:49:33Z</time>
      </trkpt>
      <trkpt lat="38.3105060" lon="-0.7894070">
        <ele>361.2</ele>
        <time>2020-03-15T07:49:34Z</time>
      </trkpt>
      <trkpt lat="38.3105230" lon="-0.7894320">
        <ele>361.6</ele>
        <time>2020-03-15T07:49:35Z</time>
      </trkpt>
      <trkpt lat="38.3105550" lon="-0.7894810">
        <ele>361.8</ele>
        <time>2020-03-15T07:49:36Z</time>
      </trkpt>
      <trkpt lat="38.3105740" lon="-0.7895030">
        <ele>362.0</ele>
        <time>2020-03-15T07:49:37Z</time>
      </trkpt>
      <trkpt lat="38.3105910" lon="-0.7895280">
        <ele>362.4</ele>
        <time>2020-03-15T07:49:38Z</time>
      </trkpt>
      <trkpt lat="38.3106080" lon="-0.7895520">
        <ele>362.6</ele>
        <time>2020-03-15T07:49:39Z</time>
      </trkpt>
      <trkpt lat="38.3106210" lon="-0.7895770">
        <ele>363.0</ele>
        <time>2020-03-15T07:49:40Z</time>
      </trkpt>
      <trkpt lat="38.3106210" lon="-0.7895770">
        <ele>363.4</ele>
        <time>2020-03-15T07:49:41Z</time>
      </trkpt>
      <trkpt lat="38.3106320" lon="-0.7896050">
        <ele>363.8</ele>
        <time>2020-03-15T07:49:42Z</time>
      </trkpt>
      <trkpt lat="38.3106470" lon="-0.7896590">
        <ele>364.0</ele>
        <time>2020-03-15T07:49:43Z</time>
      </trkpt>
      <trkpt lat="38.3106550" lon="-0.7896810">
        <ele>364.2</ele>
        <time>2020-03-15T07:49:44Z</time>
      </trkpt>
      <trkpt lat="38.3106620" lon="-0.7897030">
        <ele>364.6</ele>
        <time>2020-03-15T07:49:45Z</time>
      </trkpt>
      <trkpt lat="38.3106620" lon="-0.7897030">
        <ele>365.0</ele>
        <time>2020-03-15T07:49:46Z</time>
      </trkpt>
      <trkpt lat="38.3106700" lon="-0.7897240">
        <ele>365.2</ele>
        <time>2020-03-15T07:49:47Z</time>
      </trkpt>
      <trkpt lat="38.3106860" lon="-0.7897720">
        <ele>365.6</ele>
        <time>2020-03-15T07:49:48Z</time>
      </trkpt>
      <trkpt lat="38.3106960" lon="-0.7897940">
        <ele>365.8</ele>
        <time>2020-03-15T07:49:49Z</time>
      </trkpt>
      <trkpt lat="38.3107050" lon="-0.7898170">
        <ele>366.2</ele>
        <time>2020-03-15T07:49:50Z</time>
      </trkpt>
      <trkpt lat="38.3107160" lon="-0.7898400">
        <ele>366.4</ele>
        <time>2020-03-15T07:49:51Z</time>
      </trkpt>
      <trkpt lat="38.3107270" lon="-0.7898630">
        <ele>366.6</ele>
        <time>2020-03-15T07:49:52Z</time>
      </trkpt>
      <trkpt lat="38.3107370" lon="-0.7898860">
        <ele>367.0</ele>
        <time>2020-03-15T07:49:53Z</time>
      </trkpt>
      <trkpt lat="38.3107470" lon="-0.7899090">
        <ele>367.2</ele>
        <time>2020-03-15T07:49:54Z</time>
      </trkpt>
      <trkpt lat="38.3107590" lon="-0.7899300">
        <ele>367.6</ele>
        <time>2020-03-15T07:49:55Z</time>
      </trkpt>
      <trkpt lat="38.3107690" lon="-0.7899520">
        <ele>367.8</ele>
        <time>2020-03-15T07:49:56Z</time>
      </trkpt>
      <trkpt lat="38.3107800" lon="-0.7899750">
        <ele>367.8</ele>
        <time>2020-03-15T07:49:57Z</time>
      </trkpt>
      <trkpt lat="38.3107890" lon="-0.7900040">
        <ele>368.2</ele>
        <time>2020-03-15T07:49:58Z</time>
      </trkpt>
      <trkpt lat="38.3107940" lon="-0.7900320">
        <ele>368.2</ele>
        <time>2020-03-15T07:49:59Z</time>
      </trkpt>
      <trkpt lat="38.3107980" lon="-0.7900620">
        <ele>368.6</ele>
        <time>2020-03-15T07:50:00Z</time>
      </trkpt>
      <trkpt lat="38.3108020" lon="-0.7900880">
        <ele>368.8</ele>
        <time>2020-03-15T07:50:01Z</time>
      </trkpt>
      <trkpt lat="38.3108060" lon="-0.7901150">
        <ele>369.0</ele>
        <time>2020-03-15T07:50:02Z</time>
      </trkpt>
      <trkpt lat="38.3108090" lon="-0.7901420">
        <ele>369.2</ele>
        <time>2020-03-15T07:50:03Z</time>
      </trkpt>
      <trkpt lat="38.3108120" lon="-0.7901710">
        <ele>369.6</ele>
        <time>2020-03-15T07:50:04Z</time>
      </trkpt>
      <trkpt lat="38.3108120" lon="-0.7901710">
        <ele>369.6</ele>
        <time>2020-03-15T07:50:05Z</time>
      </trkpt>
      <trkpt lat="38.3108150" lon="-0.7901980">
        <ele>369.8</ele>
        <time>2020-03-15T07:50:06Z</time>
      </trkpt>
      <trkpt lat="38.3108240" lon="-0.7902530">
        <ele>370.0</ele>
        <time>2020-03-15T07:50:07Z</time>
      </trkpt>
      <trkpt lat="38.3108280" lon="-0.7902790">
        <ele>370.4</ele>
        <time>2020-03-15T07:50:08Z</time>
      </trkpt>
      <trkpt lat="38.3108320" lon="-0.7903030">
        <ele>370.8</ele>
        <time>2020-03-15T07:50:09Z</time>
      </trkpt>
      <trkpt lat="38.3108350" lon="-0.7903270">
        <ele>371.2</ele>
        <time>2020-03-15T07:50:10Z</time>
      </trkpt>
      <trkpt lat="38.3108370" lon="-0.7903520">
        <ele>371.2</ele>
        <time>2020-03-15T07:50:11Z</time>
      </trkpt>
      <trkpt lat="38.3108410" lon="-0.7903790">
        <ele>371.4</ele>
        <time>2020-03-15T07:50:12Z</time>
      </trkpt>
      <trkpt lat="38.3108450" lon="-0.7904060">
        <ele>371.8</ele>
        <time>2020-03-15T07:50:13Z</time>
      </trkpt>
      <trkpt lat="38.3108510" lon="-0.7904310">
        <ele>372.0</ele>
        <time>2020-03-15T07:50:14Z</time>
      </trkpt>
      <trkpt lat="38.3108570" lon="-0.7904570">
        <ele>372.2</ele>
        <time>2020-03-15T07:50:15Z</time>
      </trkpt>
      <trkpt lat="38.3108650" lon="-0.7904780">
        <ele>372.4</ele>
        <time>2020-03-15T07:50:16Z</time>
      </trkpt>
      <trkpt lat="38.3108740" lon="-0.7905070">
        <ele>372.6</ele>
        <time>2020-03-15T07:50:17Z</time>
      </trkpt>
      <trkpt lat="38.3108830" lon="-0.7905370">
        <ele>372.8</ele>
        <time>2020-03-15T07:50:18Z</time>
      </trkpt>
      <trkpt lat="38.3108930" lon="-0.7905620">
        <ele>373.0</ele>
        <time>2020-03-15T07:50:19Z</time>
      </trkpt>
      <trkpt lat="38.3109040" lon="-0.7905880">
        <ele>373.2</ele>
        <time>2020-03-15T07:50:20Z</time>
      </trkpt>
      <trkpt lat="38.3109170" lon="-0.7906150">
        <ele>373.4</ele>
        <time>2020-03-15T07:50:21Z</time>
      </trkpt>
      <trkpt lat="38.3109260" lon="-0.7906420">
        <ele>373.6</ele>
        <time>2020-03-15T07:50:22Z</time>
      </trkpt>
      <trkpt lat="38.3109340" lon="-0.7906720">
        <ele>373.6</ele>
        <time>2020-03-15T07:50:23Z</time>
      </trkpt>
      <trkpt lat="38.3109420" lon="-0.7907040">
        <ele>373.8</ele>
        <time>2020-03-15T07:50:24Z</time>
      </trkpt>
      <trkpt lat="38.3109530" lon="-0.7907310">
        <ele>374.2</ele>
        <time>2020-03-15T07:50:25Z</time>
      </trkpt>
      <trkpt lat="38.3109710" lon="-0.7907540">
        <ele>374.2</ele>
        <time>2020-03-15T07:50:26Z</time>
      </trkpt>
      <trkpt lat="38.3109830" lon="-0.7907820">
        <ele>374.6</ele>
        <time>2020-03-15T07:50:27Z</time>
      </trkpt>
      <trkpt lat="38.3109970" lon="-0.7908090">
        <ele>374.8</ele>
        <time>2020-03-15T07:50:28Z</time>
      </trkpt>
      <trkpt lat="38.3110100" lon="-0.7908360">
        <ele>375.0</ele>
        <time>2020-03-15T07:50:29Z</time>
      </trkpt>
      <trkpt lat="38.3110240" lon="-0.7908620">
        <ele>375.2</ele>
        <time>2020-03-15T07:50:30Z</time>
      </trkpt>
      <trkpt lat="38.3110400" lon="-0.7908860">
        <ele>375.4</ele>
        <time>2020-03-15T07:50:31Z</time>
      </trkpt>
      <trkpt lat="38.3110610" lon="-0.7909050">
        <ele>375.8</ele>
        <time>2020-03-15T07:50:32Z</time>
      </trkpt>
      <trkpt lat="38.3110810" lon="-0.7909240">
        <ele>376.0</ele>
        <time>2020-03-15T07:50:33Z</time>
      </trkpt>
      <trkpt lat="38.3111050" lon="-0.7909380">
        <ele>376.2</ele>
        <time>2020-03-15T07:50:34Z</time>
      </trkpt>
      <trkpt lat="38.3111290" lon="-0.7909530">
        <ele>376.4</ele>
        <time>2020-03-15T07:50:35Z</time>
      </trkpt>
      <trkpt lat="38.3111520" lon="-0.7909680">
        <ele>376.6</ele>
        <time>2020-03-15T07:50:36Z</time>
      </trkpt>
      <trkpt lat="38.3111750" lon="-0.7909840">
        <ele>377.0</ele>
        <time>2020-03-15T07:50:37Z</time>
      </trkpt>
      <trkpt lat="38.3111980" lon="-0.7910000">
        <ele>377.2</ele>
        <time>2020-03-15T07:50:38Z</time>
      </trkpt>
      <trkpt lat="38.3112200" lon="-0.7910170">
        <ele>377.2</ele>
        <time>2020-03-15T07:50:39Z</time>
      </trkpt>
      <trkpt lat="38.3112400" lon="-0.7910400">
        <ele>377.4</ele>
        <time>2020-03-15T07:50:40Z</time>
      </trkpt>
      <trkpt lat="38.3112600" lon="-0.7910630">
        <ele>377.6</ele>
        <time>2020-03-15T07:50:41Z</time>
      </trkpt>
      <trkpt lat="38.3112800" lon="-0.7910880">
        <ele>377.8</ele>
        <time>2020-03-15T07:50:42Z</time>
      </trkpt>
      <trkpt lat="38.3112800" lon="-0.7910880">
        <ele>378.0</ele>
        <time>2020-03-15T07:50:43Z</time>
      </trkpt>
      <trkpt lat="38.3112970" lon="-0.7911160">
        <ele>378.0</ele>
        <time>2020-03-15T07:50:44Z</time>
      </trkpt>
      <trkpt lat="38.3113150" lon="-0.7911450">
        <ele>378.0</ele>
        <time>2020-03-15T07:50:45Z</time>
      </trkpt>
      <trkpt lat="38.3113330" lon="-0.7911720">
        <ele>378.2</ele>
        <time>2020-03-15T07:50:46Z</time>
      </trkpt>
      <trkpt lat="38.3113480" lon="-0.7912020">
        <ele>378.4</ele>
        <time>2020-03-15T07:50:47Z</time>
      </trkpt>
      <trkpt lat="38.3113590" lon="-0.7912350">
        <ele>378.8</ele>
        <time>2020-03-15T07:50:48Z</time>
      </trkpt>
      <trkpt lat="38.3113680" lon="-0.7912680">
        <ele>379.0</ele>
        <time>2020-03-15T07:50:49Z</time>
      </trkpt>
      <trkpt lat="38.3113800" lon="-0.7913010">
        <ele>379.0</ele>
        <time>2020-03-15T07:50:50Z</time>
      </trkpt>
      <trkpt lat="38.3113940" lon="-0.7913310">
        <ele>379.2</ele>
        <time>2020-03-15T07:50:51Z</time>
      </trkpt>
      <trkpt lat="38.3114230" lon="-0.7913990">
        <ele>379.4</ele>
        <time>2020-03-15T07:50:52Z</time>
      </trkpt>
      <trkpt lat="38.3114370" lon="-0.7914350">
        <ele>379.4</ele>
        <time>2020-03-15T07:50:53Z</time>
      </trkpt>
      <trkpt lat="38.3114500" lon="-0.7914720">
        <ele>379.6</ele>
        <time>2020-03-15T07:50:54Z</time>
      </trkpt>
      <trkpt lat="38.3114570" lon="-0.7915130">
        <ele>379.8</ele>
        <time>2020-03-15T07:50:55Z</time>
      </trkpt>
      <trkpt lat="38.3114630" lon="-0.7915520">
        <ele>379.8</ele>
        <time>2020-03-15T07:50:56Z</time>
      </trkpt>
      <trkpt lat="38.3114690" lon="-0.7915910">
        <ele>380.0</ele>
        <time>2020-03-15T07:50:57Z</time>
      </trkpt>
      <trkpt lat="38.3114690" lon="-0.7915910">
        <ele>380.0</ele>
        <time>2020-03-15T07:50:58Z</time>
      </trkpt>
      <trkpt lat="38.3114730" lon="-0.7916320">
        <ele>380.0</ele>
        <time>2020-03-15T07:50:59Z</time>
      </trkpt>
      <trkpt lat="38.3114700" lon="-0.7917030">
        <ele>380.2</ele>
        <time>2020-03-15T07:51:00Z</time>
      </trkpt>
      <trkpt lat="38.3114670" lon="-0.7917480">
        <ele>380.2</ele>
        <time>2020-03-15T07:51:01Z</time>
      </trkpt>
      <trkpt lat="38.3114570" lon="-0.7917960">
        <ele>380.2</ele>
        <time>2020-03-15T07:51:02Z</time>
      </trkpt>
      <trkpt lat="38.3114470" lon="-0.7918430">
        <ele>380.2</ele>
        <time>2020-03-15T07:51:03Z</time>
      </trkpt>
      <trkpt lat="38.3114280" lon="-0.7918990">
        <ele>380.0</ele>
        <time>2020-03-15T07:51:04Z</time>
      </trkpt>
      <trkpt lat="38.3114090" lon="-0.7919540">
        <ele>380.0</ele>
        <time>2020-03-15T07:51:05Z</time>
      </trkpt>
      <trkpt lat="38.3113970" lon="-0.7919840">
        <ele>379.8</ele>
        <time>2020-03-15T07:51:06Z</time>
      </trkpt>
      <trkpt lat="38.3113850" lon="-0.7920130">
        <ele>379.6</ele>
        <time>2020-03-15T07:51:07Z</time>
      </trkpt>
      <trkpt lat="38.3113460" lon="-0.7921030">
        <ele>379.6</ele>
        <time>2020-03-15T07:51:08Z</time>
      </trkpt>
      <trkpt lat="38.3113310" lon="-0.7921330">
        <ele>379.4</ele>
        <time>2020-03-15T07:51:09Z</time>
      </trkpt>
      <trkpt lat="38.3113060" lon="-0.7921970">
        <ele>379.6</ele>
        <time>2020-03-15T07:51:10Z</time>
      </trkpt>
      <trkpt lat="38.3112810" lon="-0.7923320">
        <ele>379.6</ele>
        <time>2020-03-15T07:51:11Z</time>
      </trkpt>
      <trkpt lat="38.3112700" lon="-0.7924050">
        <ele>379.4</ele>
        <time>2020-03-15T07:51:12Z</time>
      </trkpt>
      <trkpt lat="38.3112600" lon="-0.7924790">
        <ele>379.2</ele>
        <time>2020-03-15T07:51:13Z</time>
      </trkpt>
      <trkpt lat="38.3112570" lon="-0.7925580">
        <ele>379.2</ele>
        <time>2020-03-15T07:51:14Z</time>
      </trkpt>
      <trkpt lat="38.3112610" lon="-0.7926400">
        <ele>379.0</ele>
        <time>2020-03-15T07:51:15Z</time>
      </trkpt>
      <trkpt lat="38.3112640" lon="-0.7926820">
        <ele>378.6</ele>
        <time>2020-03-15T07:51:16Z</time>
      </trkpt>
      <trkpt lat="38.3112660" lon="-0.7927250">
        <ele>378.2</ele>
        <time>2020-03-15T07:51:17Z</time>
      </trkpt>
      <trkpt lat="38.3112790" lon="-0.7928100">
        <ele>378.0</ele>
        <time>2020-03-15T07:51:18Z</time>
      </trkpt>
      <trkpt lat="38.3112990" lon="-0.7929840">
        <ele>377.6</ele>
        <time>2020-03-15T07:51:19Z</time>
      </trkpt>
      <trkpt lat="38.3113070" lon="-0.7930750">
        <ele>377.2</ele>
        <time>2020-03-15T07:51:20Z</time>
      </trkpt>
      <trkpt lat="38.3113140" lon="-0.7931390">
        <ele>377.2</ele>
        <time>2020-03-15T07:51:21Z</time>
      </trkpt>
      <trkpt lat="38.3113210" lon="-0.7932040">
        <ele>376.8</ele>
        <time>2020-03-15T07:51:22Z</time>
      </trkpt>
      <trkpt lat="38.3113350" lon="-0.7933330">
        <ele>376.6</ele>
        <time>2020-03-15T07:51:23Z</time>
      </trkpt>
      <trkpt lat="38.3113380" lon="-0.7933960">
        <ele>376.4</ele>
        <time>2020-03-15T07:51:24Z</time>
      </trkpt>
      <trkpt lat="38.3113400" lon="-0.7934600">
        <ele>376.2</ele>
        <time>2020-03-15T07:51:25Z</time>
      </trkpt>
      <trkpt lat="38.3113440" lon="-0.7935870">
        <ele>376.0</ele>
        <time>2020-03-15T07:51:26Z</time>
      </trkpt>
      <trkpt lat="38.3113450" lon="-0.7936280">
        <ele>375.8</ele>
        <time>2020-03-15T07:51:27Z</time>
      </trkpt>
      <trkpt lat="38.3113450" lon="-0.7936700">
        <ele>375.6</ele>
        <time>2020-03-15T07:51:28Z</time>
      </trkpt>
      <trkpt lat="38.3113420" lon="-0.7938140">
        <ele>375.4</ele>
        <time>2020-03-15T07:51:29Z</time>
      </trkpt>
      <trkpt lat="38.3113380" lon="-0.7938750">
        <ele>375.4</ele>
        <time>2020-03-15T07:51:30Z</time>
      </trkpt>
      <trkpt lat="38.3113300" lon="-0.7939960">
        <ele>375.4</ele>
        <time>2020-03-15T07:51:31Z</time>
      </trkpt>
      <trkpt lat="38.3113230" lon="-0.7940330">
        <ele>375.6</ele>
        <time>2020-03-15T07:51:32Z</time>
      </trkpt>
      <trkpt lat="38.3113150" lon="-0.7940700">
        <ele>375.8</ele>
        <time>2020-03-15T07:51:33Z</time>
      </trkpt>
      <trkpt lat="38.3112900" lon="-0.7942010">
        <ele>375.8</ele>
        <time>2020-03-15T07:51:34Z</time>
      </trkpt>
      <trkpt lat="38.3112810" lon="-0.7942590">
        <ele>375.4</ele>
        <time>2020-03-15T07:51:35Z</time>
      </trkpt>
      <trkpt lat="38.3112850" lon="-0.7942970">
        <ele>374.8</ele>
        <time>2020-03-15T07:51:36Z</time>
      </trkpt>
      <trkpt lat="38.3113020" lon="-0.7943290">
        <ele>374.6</ele>
        <time>2020-03-15T07:51:37Z</time>
      </trkpt>
      <trkpt lat="38.3113260" lon="-0.7943650">
        <ele>374.6</ele>
        <time>2020-03-15T07:51:38Z</time>
      </trkpt>
      <trkpt lat="38.3113440" lon="-0.7944090">
        <ele>374.8</ele>
        <time>2020-03-15T07:51:39Z</time>
      </trkpt>
      <trkpt lat="38.3113490" lon="-0.7944560">
        <ele>374.8</ele>
        <time>2020-03-15T07:51:40Z</time>
      </trkpt>
      <trkpt lat="38.3113390" lon="-0.7944980">
        <ele>374.8</ele>
        <time>2020-03-15T07:51:41Z</time>
      </trkpt>
      <trkpt lat="38.3113220" lon="-0.7945330">
        <ele>375.0</ele>
        <time>2020-03-15T07:51:42Z</time>
      </trkpt>
      <trkpt lat="38.3113030" lon="-0.7945670">
        <ele>375.4</ele>
        <time>2020-03-15T07:51:43Z</time>
      </trkpt>
      <trkpt lat="38.3112720" lon="-0.7945970">
        <ele>375.4</ele>
        <time>2020-03-15T07:51:44Z</time>
      </trkpt>
      <trkpt lat="38.3112720" lon="-0.7945970">
        <ele>375.8</ele>
        <time>2020-03-15T07:51:45Z</time>
      </trkpt>
      <trkpt lat="38.3112450" lon="-0.7946270">
        <ele>375.8</ele>
        <time>2020-03-15T07:51:46Z</time>
      </trkpt>
      <trkpt lat="38.3111880" lon="-0.7946900">
        <ele>376.0</ele>
        <time>2020-03-15T07:51:47Z</time>
      </trkpt>
      <trkpt lat="38.3111700" lon="-0.7947240">
        <ele>376.2</ele>
        <time>2020-03-15T07:51:48Z</time>
      </trkpt>
      <trkpt lat="38.3111580" lon="-0.7947580">
        <ele>376.2</ele>
        <time>2020-03-15T07:51:49Z</time>
      </trkpt>
      <trkpt lat="38.3111560" lon="-0.7947990">
        <ele>376.4</ele>
        <time>2020-03-15T07:51:50Z</time>
      </trkpt>
      <trkpt lat="38.3111550" lon="-0.7948370">
        <ele>376.8</ele>
        <time>2020-03-15T07:51:51Z</time>
      </trkpt>
      <trkpt lat="38.3111550" lon="-0.7948370">
        <ele>377.0</ele>
        <time>2020-03-15T07:51:52Z</time>
      </trkpt>
      <trkpt lat="38.3111580" lon="-0.7948770">
        <ele>377.2</ele>
        <time>2020-03-15T07:51:53Z</time>
      </trkpt>
      <trkpt lat="38.3111580" lon="-0.7949130">
        <ele>377.6</ele>
        <time>2020-03-15T07:51:54Z</time>
      </trkpt>
      <trkpt lat="38.3111380" lon="-0.7949850">
        <ele>377.8</ele>
        <time>2020-03-15T07:51:55Z</time>
      </trkpt>
      <trkpt lat="38.3111250" lon="-0.7950200">
        <ele>378.0</ele>
        <time>2020-03-15T07:51:56Z</time>
      </trkpt>
      <trkpt lat="38.3111150" lon="-0.7950550">
        <ele>378.6</ele>
        <time>2020-03-15T07:51:57Z</time>
      </trkpt>
      <trkpt lat="38.3111060" lon="-0.7950870">
        <ele>379.0</ele>
        <time>2020-03-15T07:51:58Z</time>
      </trkpt>
      <trkpt lat="38.3110940" lon="-0.7951200">
        <ele>379.4</ele>
        <time>2020-03-15T07:51:59Z</time>
      </trkpt>
      <trkpt lat="38.3110810" lon="-0.7951520">
        <ele>379.6</ele>
        <time>2020-03-15T07:52:00Z</time>
      </trkpt>
      <trkpt lat="38.3110810" lon="-0.7951520">
        <ele>380.2</ele>
        <time>2020-03-15T07:52:01Z</time>
      </trkpt>
      <trkpt lat="38.3110670" lon="-0.7951850">
        <ele>380.6</ele>
        <time>2020-03-15T07:52:02Z</time>
      </trkpt>
      <trkpt lat="38.3110300" lon="-0.7952430">
        <ele>380.8</ele>
        <time>2020-03-15T07:52:03Z</time>
      </trkpt>
      <trkpt lat="38.3110230" lon="-0.7952790">
        <ele>380.8</ele>
        <time>2020-03-15T07:52:04Z</time>
      </trkpt>
      <trkpt lat="38.3110150" lon="-0.7953140">
        <ele>381.0</ele>
        <time>2020-03-15T07:52:05Z</time>
      </trkpt>
      <trkpt lat="38.3110090" lon="-0.7953560">
        <ele>381.4</ele>
        <time>2020-03-15T07:52:06Z</time>
      </trkpt>
      <trkpt lat="38.3109980" lon="-0.7954020">
        <ele>381.4</ele>
        <time>2020-03-15T07:52:07Z</time>
      </trkpt>
      <trkpt lat="38.3109870" lon="-0.7954470">
        <ele>381.4</ele>
        <time>2020-03-15T07:52:08Z</time>
      </trkpt>
      <trkpt lat="38.3109770" lon="-0.7954970">
        <ele>381.4</ele>
        <time>2020-03-15T07:52:09Z</time>
      </trkpt>
      <trkpt lat="38.3109700" lon="-0.7955480">
        <ele>381.6</ele>
        <time>2020-03-15T07:52:10Z</time>
      </trkpt>
      <trkpt lat="38.3109620" lon="-0.7955990">
        <ele>381.8</ele>
        <time>2020-03-15T07:52:11Z</time>
      </trkpt>
      <trkpt lat="38.3109480" lon="-0.7956460">
        <ele>382.0</ele>
        <time>2020-03-15T07:52:12Z</time>
      </trkpt>
      <trkpt lat="38.3109270" lon="-0.7956850">
        <ele>382.2</ele>
        <time>2020-03-15T07:52:13Z</time>
      </trkpt>
      <trkpt lat="38.3109050" lon="-0.7957240">
        <ele>382.2</ele>
        <time>2020-03-15T07:52:14Z</time>
      </trkpt>
      <trkpt lat="38.3108740" lon="-0.7957490">
        <ele>382.4</ele>
        <time>2020-03-15T07:52:15Z</time>
      </trkpt>
      <trkpt lat="38.3108430" lon="-0.7957780">
        <ele>382.4</ele>
        <time>2020-03-15T07:52:16Z</time>
      </trkpt>
      <trkpt lat="38.3108140" lon="-0.7958060">
        <ele>382.6</ele>
        <time>2020-03-15T07:52:17Z</time>
      </trkpt>
      <trkpt lat="38.3107860" lon="-0.7958340">
        <ele>383.0</ele>
        <time>2020-03-15T07:52:18Z</time>
      </trkpt>
      <trkpt lat="38.3107590" lon="-0.7958640">
        <ele>383.2</ele>
        <time>2020-03-15T07:52:19Z</time>
      </trkpt>
      <trkpt lat="38.3107330" lon="-0.7958910">
        <ele>383.4</ele>
        <time>2020-03-15T07:52:20Z</time>
      </trkpt>
      <trkpt lat="38.3107090" lon="-0.7959160">
        <ele>383.6</ele>
        <time>2020-03-15T07:52:21Z</time>
      </trkpt>
      <trkpt lat="38.3106820" lon="-0.7959340">
        <ele>383.8</ele>
        <time>2020-03-15T07:52:22Z</time>
      </trkpt>
      <trkpt lat="38.3106540" lon="-0.7959520">
        <ele>384.0</ele>
        <time>2020-03-15T07:52:23Z</time>
      </trkpt>
      <trkpt lat="38.3106250" lon="-0.7959690">
        <ele>384.2</ele>
        <time>2020-03-15T07:52:24Z</time>
      </trkpt>
      <trkpt lat="38.3105970" lon="-0.7959890">
        <ele>384.4</ele>
        <time>2020-03-15T07:52:25Z</time>
      </trkpt>
      <trkpt lat="38.3105690" lon="-0.7960080">
        <ele>384.4</ele>
        <time>2020-03-15T07:52:26Z</time>
      </trkpt>
      <trkpt lat="38.3105410" lon="-0.7960280">
        <ele>384.8</ele>
        <time>2020-03-15T07:52:27Z</time>
      </trkpt>
      <trkpt lat="38.3105160" lon="-0.7960490">
        <ele>385.0</ele>
        <time>2020-03-15T07:52:28Z</time>
      </trkpt>
      <trkpt lat="38.3104910" lon="-0.7960700">
        <ele>385.4</ele>
        <time>2020-03-15T07:52:29Z</time>
      </trkpt>
      <trkpt lat="38.3104910" lon="-0.7960700">
        <ele>385.8</ele>
        <time>2020-03-15T07:52:30Z</time>
      </trkpt>
      <trkpt lat="38.3104660" lon="-0.7960900">
        <ele>386.2</ele>
        <time>2020-03-15T07:52:31Z</time>
      </trkpt>
      <trkpt lat="38.3104420" lon="-0.7961090">
        <ele>386.6</ele>
        <time>2020-03-15T07:52:32Z</time>
      </trkpt>
      <trkpt lat="38.3104030" lon="-0.7961520">
        <ele>387.0</ele>
        <time>2020-03-15T07:52:33Z</time>
      </trkpt>
      <trkpt lat="38.3104030" lon="-0.7961520">
        <ele>387.2</ele>
        <time>2020-03-15T07:52:34Z</time>
      </trkpt>
      <trkpt lat="38.3103860" lon="-0.7961780">
        <ele>387.6</ele>
        <time>2020-03-15T07:52:35Z</time>
      </trkpt>
      <trkpt lat="38.3103680" lon="-0.7962430">
        <ele>387.8</ele>
        <time>2020-03-15T07:52:36Z</time>
      </trkpt>
      <trkpt lat="38.3103680" lon="-0.7962770">
        <ele>388.4</ele>
        <time>2020-03-15T07:52:37Z</time>
      </trkpt>
      <trkpt lat="38.3103670" lon="-0.7963100">
        <ele>388.6</ele>
        <time>2020-03-15T07:52:38Z</time>
      </trkpt>
      <trkpt lat="38.3103790" lon="-0.7963410">
        <ele>389.0</ele>
        <time>2020-03-15T07:52:39Z</time>
      </trkpt>
      <trkpt lat="38.3103790" lon="-0.7963410">
        <ele>389.2</ele>
        <time>2020-03-15T07:52:40Z</time>
      </trkpt>
      <trkpt lat="38.3103890" lon="-0.7963700">
        <ele>389.4</ele>
        <time>2020-03-15T07:52:41Z</time>
      </trkpt>
      <trkpt lat="38.3103960" lon="-0.7964240">
        <ele>389.6</ele>
        <time>2020-03-15T07:52:42Z</time>
      </trkpt>
      <trkpt lat="38.3103960" lon="-0.7964240">
        <ele>390.0</ele>
        <time>2020-03-15T07:52:43Z</time>
      </trkpt>
      <trkpt lat="38.3103980" lon="-0.7964530">
        <ele>390.4</ele>
        <time>2020-03-15T07:52:44Z</time>
      </trkpt>
      <trkpt lat="38.3103950" lon="-0.7965120">
        <ele>390.8</ele>
        <time>2020-03-15T07:52:45Z</time>
      </trkpt>
      <trkpt lat="38.3103920" lon="-0.7965400">
        <ele>390.8</ele>
        <time>2020-03-15T07:52:46Z</time>
      </trkpt>
      <trkpt lat="38.3103870" lon="-0.7965740">
        <ele>390.8</ele>
        <time>2020-03-15T07:52:47Z</time>
      </trkpt>
      <trkpt lat="38.3103840" lon="-0.7966140">
        <ele>390.8</ele>
        <time>2020-03-15T07:52:48Z</time>
      </trkpt>
      <trkpt lat="38.3103860" lon="-0.7966570">
        <ele>390.8</ele>
        <time>2020-03-15T07:52:49Z</time>
      </trkpt>
      <trkpt lat="38.3103800" lon="-0.7967070">
        <ele>390.6</ele>
        <time>2020-03-15T07:52:50Z</time>
      </trkpt>
      <trkpt lat="38.3103740" lon="-0.7967560">
        <ele>390.4</ele>
        <time>2020-03-15T07:52:51Z</time>
      </trkpt>
      <trkpt lat="38.3103610" lon="-0.7968070">
        <ele>390.2</ele>
        <time>2020-03-15T07:52:52Z</time>
      </trkpt>
      <trkpt lat="38.3103470" lon="-0.7968570">
        <ele>390.2</ele>
        <time>2020-03-15T07:52:53Z</time>
      </trkpt>
      <trkpt lat="38.3103370" lon="-0.7969090">
        <ele>390.2</ele>
        <time>2020-03-15T07:52:54Z</time>
      </trkpt>
      <trkpt lat="38.3103370" lon="-0.7969660">
        <ele>390.4</ele>
        <time>2020-03-15T07:52:55Z</time>
      </trkpt>
      <trkpt lat="38.3103360" lon="-0.7970230">
        <ele>390.4</ele>
        <time>2020-03-15T07:52:56Z</time>
      </trkpt>
      <trkpt lat="38.3103460" lon="-0.7970830">
        <ele>390.4</ele>
        <time>2020-03-15T07:52:57Z</time>
      </trkpt>
      <trkpt lat="38.3103590" lon="-0.7971420">
        <ele>390.4</ele>
        <time>2020-03-15T07:52:58Z</time>
      </trkpt>
      <trkpt lat="38.3103790" lon="-0.7971980">
        <ele>390.4</ele>
        <time>2020-03-15T07:52:59Z</time>
      </trkpt>
      <trkpt lat="38.3103980" lon="-0.7972540">
        <ele>390.8</ele>
        <time>2020-03-15T07:53:00Z</time>
      </trkpt>
      <trkpt lat="38.3104210" lon="-0.7973090">
        <ele>390.8</ele>
        <time>2020-03-15T07:53:01Z</time>
      </trkpt>
      <trkpt lat="38.3104480" lon="-0.7973610">
        <ele>391.0</ele>
        <time>2020-03-15T07:53:02Z</time>
      </trkpt>
      <trkpt lat="38.3104780" lon="-0.7974120">
        <ele>391.0</ele>
        <time>2020-03-15T07:53:03Z</time>
      </trkpt>
      <trkpt lat="38.3105120" lon="-0.7974560">
        <ele>391.2</ele>
        <time>2020-03-15T07:53:04Z</time>
      </trkpt>
      <trkpt lat="38.3105280" lon="-0.7974790">
        <ele>391.4</ele>
        <time>2020-03-15T07:53:05Z</time>
      </trkpt>
      <trkpt lat="38.3105430" lon="-0.7975030">
        <ele>391.4</ele>
        <time>2020-03-15T07:53:06Z</time>
      </trkpt>
      <trkpt lat="38.3105720" lon="-0.7975480">
        <ele>391.8</ele>
        <time>2020-03-15T07:53:07Z</time>
      </trkpt>
      <trkpt lat="38.3106220" lon="-0.7976290">
        <ele>392.2</ele>
        <time>2020-03-15T07:53:08Z</time>
      </trkpt>
      <trkpt lat="38.3106400" lon="-0.7976700">
        <ele>392.4</ele>
        <time>2020-03-15T07:53:09Z</time>
      </trkpt>
      <trkpt lat="38.3106490" lon="-0.7977110">
        <ele>392.8</ele>
        <time>2020-03-15T07:53:10Z</time>
      </trkpt>
      <trkpt lat="38.3106460" lon="-0.7977480">
        <ele>393.0</ele>
        <time>2020-03-15T07:53:11Z</time>
      </trkpt>
      <trkpt lat="38.3106420" lon="-0.7977850">
        <ele>393.4</ele>
        <time>2020-03-15T07:53:12Z</time>
      </trkpt>
      <trkpt lat="38.3106380" lon="-0.7978200">
        <ele>393.8</ele>
        <time>2020-03-15T07:53:13Z</time>
      </trkpt>
      <trkpt lat="38.3106310" lon="-0.7978550">
        <ele>393.8</ele>
        <time>2020-03-15T07:53:14Z</time>
      </trkpt>
      <trkpt lat="38.3106200" lon="-0.7978930">
        <ele>394.0</ele>
        <time>2020-03-15T07:53:15Z</time>
      </trkpt>
      <trkpt lat="38.3106200" lon="-0.7978930">
        <ele>394.2</ele>
        <time>2020-03-15T07:53:16Z</time>
      </trkpt>
      <trkpt lat="38.3106060" lon="-0.7979320">
        <ele>394.0</ele>
        <time>2020-03-15T07:53:17Z</time>
      </trkpt>
      <trkpt lat="38.3105660" lon="-0.7980270">
        <ele>393.8</ele>
        <time>2020-03-15T07:53:18Z</time>
      </trkpt>
      <trkpt lat="38.3105450" lon="-0.7980850">
        <ele>393.6</ele>
        <time>2020-03-15T07:53:19Z</time>
      </trkpt>
      <trkpt lat="38.3105330" lon="-0.7981150">
        <ele>393.6</ele>
        <time>2020-03-15T07:53:20Z</time>
      </trkpt>
      <trkpt lat="38.3105200" lon="-0.7981450">
        <ele>393.4</ele>
        <time>2020-03-15T07:53:21Z</time>
      </trkpt>
      <trkpt lat="38.3104660" lon="-0.7982740">
        <ele>392.4</ele>
        <time>2020-03-15T07:53:22Z</time>
      </trkpt>
      <trkpt lat="38.3104400" lon="-0.7983530">
        <ele>392.0</ele>
        <time>2020-03-15T07:53:23Z</time>
      </trkpt>
      <trkpt lat="38.3104210" lon="-0.7984080">
        <ele>392.0</ele>
        <time>2020-03-15T07:53:24Z</time>
      </trkpt>
      <trkpt lat="38.3104020" lon="-0.7984620">
        <ele>392.2</ele>
        <time>2020-03-15T07:53:25Z</time>
      </trkpt>
      <trkpt lat="38.3103640" lon="-0.7985700">
        <ele>392.2</ele>
        <time>2020-03-15T07:53:26Z</time>
      </trkpt>
      <trkpt lat="38.3103440" lon="-0.7986440">
        <ele>392.2</ele>
        <time>2020-03-15T07:53:27Z</time>
      </trkpt>
      <trkpt lat="38.3103290" lon="-0.7987160">
        <ele>392.6</ele>
        <time>2020-03-15T07:53:28Z</time>
      </trkpt>
      <trkpt lat="38.3103270" lon="-0.7987860">
        <ele>392.6</ele>
        <time>2020-03-15T07:53:29Z</time>
      </trkpt>
      <trkpt lat="38.3103420" lon="-0.7988510">
        <ele>392.8</ele>
        <time>2020-03-15T07:53:30Z</time>
      </trkpt>
      <trkpt lat="38.3103570" lon="-0.7988790">
        <ele>392.8</ele>
        <time>2020-03-15T07:53:31Z</time>
      </trkpt>
      <trkpt lat="38.3103720" lon="-0.7989070">
        <ele>393.0</ele>
        <time>2020-03-15T07:53:32Z</time>
      </trkpt>
      <trkpt lat="38.3104260" lon="-0.7990160">
        <ele>393.2</ele>
        <time>2020-03-15T07:53:33Z</time>
      </trkpt>
      <trkpt lat="38.3104500" lon="-0.7990680">
        <ele>393.4</ele>
        <time>2020-03-15T07:53:34Z</time>
      </trkpt>
      <trkpt lat="38.3104590" lon="-0.7990960">
        <ele>393.4</ele>
        <time>2020-03-15T07:53:35Z</time>
      </trkpt>
      <trkpt lat="38.3104670" lon="-0.7991240">
        <ele>393.4</ele>
        <time>2020-03-15T07:53:36Z</time>
      </trkpt>
      <trkpt lat="38.3105000" lon="-0.7992500">
        <ele>393.2</ele>
        <time>2020-03-15T07:53:37Z</time>
      </trkpt>
      <trkpt lat="38.3105110" lon="-0.7993180">
        <ele>393.4</ele>
        <time>2020-03-15T07:53:38Z</time>
      </trkpt>
      <trkpt lat="38.3105100" lon="-0.7993870">
        <ele>393.4</ele>
        <time>2020-03-15T07:53:39Z</time>
      </trkpt>
      <trkpt lat="38.3104930" lon="-0.7994330">
        <ele>393.6</ele>
        <time>2020-03-15T07:53:40Z</time>
      </trkpt>
      <trkpt lat="38.3104750" lon="-0.7994790">
        <ele>393.8</ele>
        <time>2020-03-15T07:53:41Z</time>
      </trkpt>
      <trkpt lat="38.3104390" lon="-0.7995700">
        <ele>393.8</ele>
        <time>2020-03-15T07:53:42Z</time>
      </trkpt>
      <trkpt lat="38.3104250" lon="-0.7995950">
        <ele>394.0</ele>
        <time>2020-03-15T07:53:43Z</time>
      </trkpt>
      <trkpt lat="38.3104110" lon="-0.7996200">
        <ele>394.6</ele>
        <time>2020-03-15T07:53:44Z</time>
      </trkpt>
      <trkpt lat="38.3103880" lon="-0.7996700">
        <ele>395.0</ele>
        <time>2020-03-15T07:53:45Z</time>
      </trkpt>
      <trkpt lat="38.3103670" lon="-0.7997630">
        <ele>395.6</ele>
        <time>2020-03-15T07:53:46Z</time>
      </trkpt>
      <trkpt lat="38.3103560" lon="-0.7998110">
        <ele>396.0</ele>
        <time>2020-03-15T07:53:47Z</time>
      </trkpt>
      <trkpt lat="38.3103440" lon="-0.7998590">
        <ele>396.4</ele>
        <time>2020-03-15T07:53:48Z</time>
      </trkpt>
      <trkpt lat="38.3103270" lon="-0.7999020">
        <ele>396.6</ele>
        <time>2020-03-15T07:53:49Z</time>
      </trkpt>
      <trkpt lat="38.3103100" lon="-0.7999450">
        <ele>397.2</ele>
        <time>2020-03-15T07:53:50Z</time>
      </trkpt>
      <trkpt lat="38.3102890" lon="-0.7999790">
        <ele>397.6</ele>
        <time>2020-03-15T07:53:51Z</time>
      </trkpt>
      <trkpt lat="38.3102680" lon="-0.8000120">
        <ele>398.0</ele>
        <time>2020-03-15T07:53:52Z</time>
      </trkpt>
      <trkpt lat="38.3102490" lon="-0.8000430">
        <ele>398.4</ele>
        <time>2020-03-15T07:53:53Z</time>
      </trkpt>
      <trkpt lat="38.3102490" lon="-0.8000430">
        <ele>398.6</ele>
        <time>2020-03-15T07:53:54Z</time>
      </trkpt>
      <trkpt lat="38.3102310" lon="-0.8000750">
        <ele>399.0</ele>
        <time>2020-03-15T07:53:55Z</time>
      </trkpt>
      <trkpt lat="38.3102010" lon="-0.8001460">
        <ele>399.2</ele>
        <time>2020-03-15T07:53:56Z</time>
      </trkpt>
      <trkpt lat="38.3101940" lon="-0.8001690">
        <ele>399.6</ele>
        <time>2020-03-15T07:53:57Z</time>
      </trkpt>
      <trkpt lat="38.3101860" lon="-0.8001910">
        <ele>399.6</ele>
        <time>2020-03-15T07:53:58Z</time>
      </trkpt>
      <trkpt lat="38.3101440" lon="-0.8002710">
        <ele>399.6</ele>
        <time>2020-03-15T07:53:59Z</time>
      </trkpt>
      <trkpt lat="38.3101250" lon="-0.8003230">
        <ele>399.6</ele>
        <time>2020-03-15T07:54:00Z</time>
      </trkpt>
      <trkpt lat="38.3101060" lon="-0.8003740">
        <ele>399.6</ele>
        <time>2020-03-15T07:54:01Z</time>
      </trkpt>
      <trkpt lat="38.3101020" lon="-0.8004280">
        <ele>399.4</ele>
        <time>2020-03-15T07:54:02Z</time>
      </trkpt>
      <trkpt lat="38.3100970" lon="-0.8004810">
        <ele>399.2</ele>
        <time>2020-03-15T07:54:03Z</time>
      </trkpt>
      <trkpt lat="38.3100870" lon="-0.8005880">
        <ele>399.0</ele>
        <time>2020-03-15T07:54:04Z</time>
      </trkpt>
      <trkpt lat="38.3100880" lon="-0.8006680">
        <ele>398.6</ele>
        <time>2020-03-15T07:54:05Z</time>
      </trkpt>
      <trkpt lat="38.3100880" lon="-0.8007510">
        <ele>398.4</ele>
        <time>2020-03-15T07:54:06Z</time>
      </trkpt>
      <trkpt lat="38.3100880" lon="-0.8007940">
        <ele>397.8</ele>
        <time>2020-03-15T07:54:07Z</time>
      </trkpt>
      <trkpt lat="38.3100880" lon="-0.8008360">
        <ele>397.2</ele>
        <time>2020-03-15T07:54:08Z</time>
      </trkpt>
      <trkpt lat="38.3100770" lon="-0.8010120">
        <ele>396.4</ele>
        <time>2020-03-15T07:54:09Z</time>
      </trkpt>
      <trkpt lat="38.3100550" lon="-0.8011020">
        <ele>396.2</ele>
        <time>2020-03-15T07:54:10Z</time>
      </trkpt>
      <trkpt lat="38.3100530" lon="-0.8011680">
        <ele>395.8</ele>
        <time>2020-03-15T07:54:11Z</time>
      </trkpt>
      <trkpt lat="38.3100500" lon="-0.8012330">
        <ele>395.8</ele>
        <time>2020-03-15T07:54:12Z</time>
      </trkpt>
      <trkpt lat="38.3100450" lon="-0.8013640">
        <ele>395.6</ele>
        <time>2020-03-15T07:54:13Z</time>
      </trkpt>
      <trkpt lat="38.3100540" lon="-0.8014050">
        <ele>394.6</ele>
        <time>2020-03-15T07:54:14Z</time>
      </trkpt>
      <trkpt lat="38.3100620" lon="-0.8014460">
        <ele>393.6</ele>
        <time>2020-03-15T07:54:15Z</time>
      </trkpt>
      <trkpt lat="38.3100720" lon="-0.8016360">
        <ele>392.4</ele>
        <time>2020-03-15T07:54:16Z</time>
      </trkpt>
      <trkpt lat="38.3100670" lon="-0.8017420">
        <ele>391.4</ele>
        <time>2020-03-15T07:54:17Z</time>
      </trkpt>
      <trkpt lat="38.3100610" lon="-0.8018510">
        <ele>390.8</ele>
        <time>2020-03-15T07:54:18Z</time>
      </trkpt>
      <trkpt lat="38.3100430" lon="-0.8019240">
        <ele>390.2</ele>
        <time>2020-03-15T07:54:19Z</time>
      </trkpt>
      <trkpt lat="38.3100250" lon="-0.8019960">
        <ele>389.8</ele>
        <time>2020-03-15T07:54:20Z</time>
      </trkpt>
      <trkpt lat="38.3099890" lon="-0.8021400">
        <ele>389.6</ele>
        <time>2020-03-15T07:54:21Z</time>
      </trkpt>
      <trkpt lat="38.3099700" lon="-0.8021810">
        <ele>389.6</ele>
        <time>2020-03-15T07:54:22Z</time>
      </trkpt>
      <trkpt lat="38.3099500" lon="-0.8022220">
        <ele>389.6</ele>
        <time>2020-03-15T07:54:23Z</time>
      </trkpt>
      <trkpt lat="38.3098800" lon="-0.8023630">
        <ele>390.2</ele>
        <time>2020-03-15T07:54:25Z</time>
      </trkpt>
      <trkpt lat="38.3098040" lon="-0.8024590">
        <ele>390.8</ele>
        <time>2020-03-15T07:54:26Z</time>
      </trkpt>
      <trkpt lat="38.3097690" lon="-0.8024910">
        <ele>391.4</ele>
        <time>2020-03-15T07:54:27Z</time>
      </trkpt>
      <trkpt lat="38.3097430" lon="-0.8025220">
        <ele>392.2</ele>
        <time>2020-03-15T07:54:28Z</time>
      </trkpt>
      <trkpt lat="38.3097160" lon="-0.8025520">
        <ele>392.8</ele>
        <time>2020-03-15T07:54:29Z</time>
      </trkpt>
      <trkpt lat="38.3097160" lon="-0.8025520">
        <ele>393.0</ele>
        <time>2020-03-15T07:54:30Z</time>
      </trkpt>
      <trkpt lat="38.3096960" lon="-0.8025850">
        <ele>393.0</ele>
        <time>2020-03-15T07:54:31Z</time>
      </trkpt>
      <trkpt lat="38.3096640" lon="-0.8026710">
        <ele>392.8</ele>
        <time>2020-03-15T07:54:32Z</time>
      </trkpt>
      <trkpt lat="38.3096450" lon="-0.8027220">
        <ele>392.8</ele>
        <time>2020-03-15T07:54:33Z</time>
      </trkpt>
      <trkpt lat="38.3096390" lon="-0.8027510">
        <ele>392.6</ele>
        <time>2020-03-15T07:54:34Z</time>
      </trkpt>
      <trkpt lat="38.3096320" lon="-0.8027790">
        <ele>392.4</ele>
        <time>2020-03-15T07:54:35Z</time>
      </trkpt>
      <trkpt lat="38.3095800" lon="-0.8028850">
        <ele>391.4</ele>
        <time>2020-03-15T07:54:36Z</time>
      </trkpt>
      <trkpt lat="38.3095380" lon="-0.8029170">
        <ele>390.8</ele>
        <time>2020-03-15T07:54:37Z</time>
      </trkpt>
      <trkpt lat="38.3094960" lon="-0.8029490">
        <ele>390.2</ele>
        <time>2020-03-15T07:54:38Z</time>
      </trkpt>
      <trkpt lat="38.3094730" lon="-0.8029770">
        <ele>389.8</ele>
        <time>2020-03-15T07:54:39Z</time>
      </trkpt>
      <trkpt lat="38.3094510" lon="-0.8030060">
        <ele>389.8</ele>
        <time>2020-03-15T07:54:40Z</time>
      </trkpt>
      <trkpt lat="38.3094290" lon="-0.8030470">
        <ele>389.6</ele>
        <time>2020-03-15T07:54:41Z</time>
      </trkpt>
      <trkpt lat="38.3094070" lon="-0.8030870">
        <ele>389.6</ele>
        <time>2020-03-15T07:54:42Z</time>
      </trkpt>
      <trkpt lat="38.3093720" lon="-0.8031320">
        <ele>389.2</ele>
        <time>2020-03-15T07:54:43Z</time>
      </trkpt>
      <trkpt lat="38.3093340" lon="-0.8031890">
        <ele>388.6</ele>
        <time>2020-03-15T07:54:44Z</time>
      </trkpt>
      <trkpt lat="38.3093090" lon="-0.8032400">
        <ele>388.2</ele>
        <time>2020-03-15T07:54:45Z</time>
      </trkpt>
      <trkpt lat="38.3092840" lon="-0.8032910">
        <ele>387.6</ele>
        <time>2020-03-15T07:54:46Z</time>
      </trkpt>
      <trkpt lat="38.3092330" lon="-0.8033930">
        <ele>387.0</ele>
        <time>2020-03-15T07:54:47Z</time>
      </trkpt>
      <trkpt lat="38.3092040" lon="-0.8034740">
        <ele>386.6</ele>
        <time>2020-03-15T07:54:48Z</time>
      </trkpt>
      <trkpt lat="38.3091860" lon="-0.8035150">
        <ele>386.2</ele>
        <time>2020-03-15T07:54:49Z</time>
      </trkpt>
      <trkpt lat="38.3091680" lon="-0.8035560">
        <ele>385.6</ele>
        <time>2020-03-15T07:54:50Z</time>
      </trkpt>
      <trkpt lat="38.3090740" lon="-0.8037080">
        <ele>385.2</ele>
        <time>2020-03-15T07:54:51Z</time>
      </trkpt>
      <trkpt lat="38.3090260" lon="-0.8037860">
        <ele>384.8</ele>
        <time>2020-03-15T07:54:52Z</time>
      </trkpt>
      <trkpt lat="38.3089860" lon="-0.8038710">
        <ele>384.4</ele>
        <time>2020-03-15T07:54:53Z</time>
      </trkpt>
      <trkpt lat="38.3089510" lon="-0.8039620">
        <ele>383.8</ele>
        <time>2020-03-15T07:54:54Z</time>
      </trkpt>
      <trkpt lat="38.3089370" lon="-0.8040100">
        <ele>383.0</ele>
        <time>2020-03-15T07:54:55Z</time>
      </trkpt>
      <trkpt lat="38.3089220" lon="-0.8040570">
        <ele>382.4</ele>
        <time>2020-03-15T07:54:56Z</time>
      </trkpt>
      <trkpt lat="38.3089000" lon="-0.8041560">
        <ele>382.0</ele>
        <time>2020-03-15T07:54:57Z</time>
      </trkpt>
      <trkpt lat="38.3088320" lon="-0.8042910">
        <ele>381.8</ele>
        <time>2020-03-15T07:54:58Z</time>
      </trkpt>
      <trkpt lat="38.3087800" lon="-0.8043130">
        <ele>381.8</ele>
        <time>2020-03-15T07:54:59Z</time>
      </trkpt>
      <trkpt lat="38.3087260" lon="-0.8043280">
        <ele>381.8</ele>
        <time>2020-03-15T07:55:00Z</time>
      </trkpt>
      <trkpt lat="38.3087000" lon="-0.8043400">
        <ele>382.0</ele>
        <time>2020-03-15T07:55:01Z</time>
      </trkpt>
      <trkpt lat="38.3086730" lon="-0.8043520">
        <ele>382.0</ele>
        <time>2020-03-15T07:55:02Z</time>
      </trkpt>
      <trkpt lat="38.3085680" lon="-0.8043850">
        <ele>382.0</ele>
        <time>2020-03-15T07:55:03Z</time>
      </trkpt>
      <trkpt lat="38.3085210" lon="-0.8044100">
        <ele>382.0</ele>
        <time>2020-03-15T07:55:04Z</time>
      </trkpt>
      <trkpt lat="38.3084860" lon="-0.8044410">
        <ele>382.0</ele>
        <time>2020-03-15T07:55:05Z</time>
      </trkpt>
      <trkpt lat="38.3084510" lon="-0.8044710">
        <ele>381.8</ele>
        <time>2020-03-15T07:55:06Z</time>
      </trkpt>
      <trkpt lat="38.3083810" lon="-0.8045310">
        <ele>383.0</ele>
        <time>2020-03-15T07:55:07Z</time>
      </trkpt>
      <trkpt lat="38.3083600" lon="-0.8045550">
        <ele>384.8</ele>
        <time>2020-03-15T07:55:08Z</time>
      </trkpt>
      <trkpt lat="38.3083380" lon="-0.8045790">
        <ele>385.4</ele>
        <time>2020-03-15T07:55:09Z</time>
      </trkpt>
      <trkpt lat="38.3083150" lon="-0.8046240">
        <ele>385.6</ele>
        <time>2020-03-15T07:55:10Z</time>
      </trkpt>
      <trkpt lat="38.3082910" lon="-0.8046690">
        <ele>385.8</ele>
        <time>2020-03-15T07:55:11Z</time>
      </trkpt>
      <trkpt lat="38.3082710" lon="-0.8047260">
        <ele>385.8</ele>
        <time>2020-03-15T07:55:12Z</time>
      </trkpt>
      <trkpt lat="38.3082470" lon="-0.8047810">
        <ele>386.0</ele>
        <time>2020-03-15T07:55:13Z</time>
      </trkpt>
      <trkpt lat="38.3082200" lon="-0.8048390">
        <ele>386.0</ele>
        <time>2020-03-15T07:55:14Z</time>
      </trkpt>
      <trkpt lat="38.3081860" lon="-0.8048840">
        <ele>386.2</ele>
        <time>2020-03-15T07:55:15Z</time>
      </trkpt>
      <trkpt lat="38.3081510" lon="-0.8049280">
        <ele>386.6</ele>
        <time>2020-03-15T07:55:16Z</time>
      </trkpt>
      <trkpt lat="38.3081120" lon="-0.8049610">
        <ele>386.8</ele>
        <time>2020-03-15T07:55:17Z</time>
      </trkpt>
      <trkpt lat="38.3080770" lon="-0.8049970">
        <ele>387.2</ele>
        <time>2020-03-15T07:55:18Z</time>
      </trkpt>
      <trkpt lat="38.3080470" lon="-0.8050300">
        <ele>387.6</ele>
        <time>2020-03-15T07:55:19Z</time>
      </trkpt>
      <trkpt lat="38.3080180" lon="-0.8050560">
        <ele>388.0</ele>
        <time>2020-03-15T07:55:20Z</time>
      </trkpt>
      <trkpt lat="38.3079880" lon="-0.8050810">
        <ele>388.4</ele>
        <time>2020-03-15T07:55:21Z</time>
      </trkpt>
      <trkpt lat="38.3079880" lon="-0.8050810">
        <ele>388.8</ele>
        <time>2020-03-15T07:55:22Z</time>
      </trkpt>
      <trkpt lat="38.3079610" lon="-0.8051050">
        <ele>389.0</ele>
        <time>2020-03-15T07:55:23Z</time>
      </trkpt>
      <trkpt lat="38.3079230" lon="-0.8051540">
        <ele>389.2</ele>
        <time>2020-03-15T07:55:24Z</time>
      </trkpt>
      <trkpt lat="38.3079010" lon="-0.8051680">
        <ele>389.4</ele>
        <time>2020-03-15T07:55:25Z</time>
      </trkpt>
      <trkpt lat="38.3078770" lon="-0.8051770">
        <ele>389.6</ele>
        <time>2020-03-15T07:55:26Z</time>
      </trkpt>
      <trkpt lat="38.3078590" lon="-0.8051870">
        <ele>389.8</ele>
        <time>2020-03-15T07:55:27Z</time>
      </trkpt>
      <trkpt lat="38.3078420" lon="-0.8051980">
        <ele>389.8</ele>
        <time>2020-03-15T07:55:28Z</time>
      </trkpt>
      <trkpt lat="38.3078420" lon="-0.8051980">
        <ele>390.0</ele>
        <time>2020-03-15T07:55:29Z</time>
      </trkpt>
      <trkpt lat="38.3077940" lon="-0.8052060">
        <ele>390.2</ele>
        <time>2020-03-15T07:55:31Z</time>
      </trkpt>
      <trkpt lat="38.3077670" lon="-0.8052010">
        <ele>390.2</ele>
        <time>2020-03-15T07:55:32Z</time>
      </trkpt>
      <trkpt lat="38.3077020" lon="-0.8051770">
        <ele>390.4</ele>
        <time>2020-03-15T07:55:33Z</time>
      </trkpt>
      <trkpt lat="38.3076680" lon="-0.8051620">
        <ele>390.6</ele>
        <time>2020-03-15T07:55:34Z</time>
      </trkpt>
      <trkpt lat="38.3076330" lon="-0.8051480">
        <ele>390.8</ele>
        <time>2020-03-15T07:55:35Z</time>
      </trkpt>
      <trkpt lat="38.3075990" lon="-0.8051330">
        <ele>391.0</ele>
        <time>2020-03-15T07:55:36Z</time>
      </trkpt>
      <trkpt lat="38.3075680" lon="-0.8051150">
        <ele>391.2</ele>
        <time>2020-03-15T07:55:37Z</time>
      </trkpt>
      <trkpt lat="38.3075380" lon="-0.8050940">
        <ele>391.4</ele>
        <time>2020-03-15T07:55:38Z</time>
      </trkpt>
      <trkpt lat="38.3075380" lon="-0.8050940">
        <ele>391.6</ele>
        <time>2020-03-15T07:55:39Z</time>
      </trkpt>
      <trkpt lat="38.3075070" lon="-0.8050720">
        <ele>391.8</ele>
        <time>2020-03-15T07:55:40Z</time>
      </trkpt>
      <trkpt lat="38.3074510" lon="-0.8050140">
        <ele>392.0</ele>
        <time>2020-03-15T07:55:41Z</time>
      </trkpt>
      <trkpt lat="38.3074250" lon="-0.8049790">
        <ele>392.0</ele>
        <time>2020-03-15T07:55:42Z</time>
      </trkpt>
      <trkpt lat="38.3074010" lon="-0.8049430">
        <ele>392.4</ele>
        <time>2020-03-15T07:55:43Z</time>
      </trkpt>
      <trkpt lat="38.3073760" lon="-0.8049070">
        <ele>392.4</ele>
        <time>2020-03-15T07:55:44Z</time>
      </trkpt>
      <trkpt lat="38.3073580" lon="-0.8048730">
        <ele>392.6</ele>
        <time>2020-03-15T07:55:45Z</time>
      </trkpt>
      <trkpt lat="38.3073440" lon="-0.8048410">
        <ele>392.6</ele>
        <time>2020-03-15T07:55:46Z</time>
      </trkpt>
      <trkpt lat="38.3073300" lon="-0.8048110">
        <ele>392.8</ele>
        <time>2020-03-15T07:55:47Z</time>
      </trkpt>
      <trkpt lat="38.3073170" lon="-0.8047830">
        <ele>392.8</ele>
        <time>2020-03-15T07:55:48Z</time>
      </trkpt>
      <trkpt lat="38.3073040" lon="-0.8047590">
        <ele>393.0</ele>
        <time>2020-03-15T07:55:49Z</time>
      </trkpt>
      <trkpt lat="38.3072870" lon="-0.8047320">
        <ele>393.0</ele>
        <time>2020-03-15T07:55:50Z</time>
      </trkpt>
      <trkpt lat="38.3072870" lon="-0.8047320">
        <ele>393.2</ele>
        <time>2020-03-15T07:55:51Z</time>
      </trkpt>
      <trkpt lat="38.3072720" lon="-0.8047010">
        <ele>393.2</ele>
        <time>2020-03-15T07:55:52Z</time>
      </trkpt>
      <trkpt lat="38.3072380" lon="-0.8046360">
        <ele>393.4</ele>
        <time>2020-03-15T07:55:53Z</time>
      </trkpt>
      <trkpt lat="38.3072150" lon="-0.8045980">
        <ele>393.4</ele>
        <time>2020-03-15T07:55:54Z</time>
      </trkpt>
      <trkpt lat="38.3071890" lon="-0.8045540">
        <ele>393.6</ele>
        <time>2020-03-15T07:55:55Z</time>
      </trkpt>
      <trkpt lat="38.3071640" lon="-0.8045080">
        <ele>393.8</ele>
        <time>2020-03-15T07:55:56Z</time>
      </trkpt>
      <trkpt lat="38.3071380" lon="-0.8044620">
        <ele>394.0</ele>
        <time>2020-03-15T07:55:57Z</time>
      </trkpt>
      <trkpt lat="38.3071260" lon="-0.8044370">
        <ele>394.0</ele>
        <time>2020-03-15T07:55:58Z</time>
      </trkpt>
      <trkpt lat="38.3071140" lon="-0.8044120">
        <ele>394.2</ele>
        <time>2020-03-15T07:55:59Z</time>
      </trkpt>
      <trkpt lat="38.3070890" lon="-0.8043610">
        <ele>394.2</ele>
        <time>2020-03-15T07:56:00Z</time>
      </trkpt>
      <trkpt lat="38.3070620" lon="-0.8043090">
        <ele>394.4</ele>
        <time>2020-03-15T07:56:01Z</time>
      </trkpt>
      <trkpt lat="38.3070360" lon="-0.8042580">
        <ele>394.4</ele>
        <time>2020-03-15T07:56:02Z</time>
      </trkpt>
      <trkpt lat="38.3069810" lon="-0.8041500">
        <ele>394.4</ele>
        <time>2020-03-15T07:56:03Z</time>
      </trkpt>
      <trkpt lat="38.3069610" lon="-0.8041090">
        <ele>394.6</ele>
        <time>2020-03-15T07:56:04Z</time>
      </trkpt>
      <trkpt lat="38.3069400" lon="-0.8040690">
        <ele>394.6</ele>
        <time>2020-03-15T07:56:05Z</time>
      </trkpt>
      <trkpt lat="38.3068990" lon="-0.8039880">
        <ele>394.8</ele>
        <time>2020-03-15T07:56:06Z</time>
      </trkpt>
      <trkpt lat="38.3068850" lon="-0.8039600">
        <ele>394.8</ele>
        <time>2020-03-15T07:56:07Z</time>
      </trkpt>
      <trkpt lat="38.3068700" lon="-0.8039330">
        <ele>394.8</ele>
        <time>2020-03-15T07:56:08Z</time>
      </trkpt>
      <trkpt lat="38.3068110" lon="-0.8038260">
        <ele>395.0</ele>
        <time>2020-03-15T07:56:09Z</time>
      </trkpt>
      <trkpt lat="38.3067950" lon="-0.8037990">
        <ele>395.0</ele>
        <time>2020-03-15T07:56:10Z</time>
      </trkpt>
      <trkpt lat="38.3067780" lon="-0.8037720">
        <ele>395.2</ele>
        <time>2020-03-15T07:56:11Z</time>
      </trkpt>
      <trkpt lat="38.3067280" lon="-0.8036910">
        <ele>395.4</ele>
        <time>2020-03-15T07:56:12Z</time>
      </trkpt>
      <trkpt lat="38.3067120" lon="-0.8036650">
        <ele>395.6</ele>
        <time>2020-03-15T07:56:13Z</time>
      </trkpt>
      <trkpt lat="38.3066480" lon="-0.8035610">
        <ele>396.0</ele>
        <time>2020-03-15T07:56:14Z</time>
      </trkpt>
      <trkpt lat="38.3066190" lon="-0.8035100">
        <ele>396.2</ele>
        <time>2020-03-15T07:56:15Z</time>
      </trkpt>
      <trkpt lat="38.3066040" lon="-0.8034860">
        <ele>396.2</ele>
        <time>2020-03-15T07:56:16Z</time>
      </trkpt>
      <trkpt lat="38.3065890" lon="-0.8034620">
        <ele>396.4</ele>
        <time>2020-03-15T07:56:17Z</time>
      </trkpt>
      <trkpt lat="38.3065280" lon="-0.8033650">
        <ele>396.4</ele>
        <time>2020-03-15T07:56:18Z</time>
      </trkpt>
      <trkpt lat="38.3065000" lon="-0.8033150">
        <ele>396.6</ele>
        <time>2020-03-15T07:56:19Z</time>
      </trkpt>
      <trkpt lat="38.3064860" lon="-0.8032890">
        <ele>396.8</ele>
        <time>2020-03-15T07:56:20Z</time>
      </trkpt>
      <trkpt lat="38.3064720" lon="-0.8032640">
        <ele>397.0</ele>
        <time>2020-03-15T07:56:21Z</time>
      </trkpt>
      <trkpt lat="38.3064460" lon="-0.8032120">
        <ele>397.2</ele>
        <time>2020-03-15T07:56:22Z</time>
      </trkpt>
      <trkpt lat="38.3063940" lon="-0.8031100">
        <ele>397.4</ele>
        <time>2020-03-15T07:56:23Z</time>
      </trkpt>
      <trkpt lat="38.3063680" lon="-0.8030610">
        <ele>397.6</ele>
        <time>2020-03-15T07:56:24Z</time>
      </trkpt>
      <trkpt lat="38.3063410" lon="-0.8030150">
        <ele>397.8</ele>
        <time>2020-03-15T07:56:25Z</time>
      </trkpt>
      <trkpt lat="38.3063140" lon="-0.8029690">
        <ele>398.0</ele>
        <time>2020-03-15T07:56:26Z</time>
      </trkpt>
      <trkpt lat="38.3062860" lon="-0.8029220">
        <ele>398.4</ele>
        <time>2020-03-15T07:56:27Z</time>
      </trkpt>
      <trkpt lat="38.3062600" lon="-0.8028730">
        <ele>398.6</ele>
        <time>2020-03-15T07:56:28Z</time>
      </trkpt>
      <trkpt lat="38.3062310" lon="-0.8028240">
        <ele>398.6</ele>
        <time>2020-03-15T07:56:29Z</time>
      </trkpt>
      <trkpt lat="38.3062020" lon="-0.8027740">
        <ele>398.6</ele>
        <time>2020-03-15T07:56:30Z</time>
      </trkpt>
      <trkpt lat="38.3061720" lon="-0.8027240">
        <ele>398.6</ele>
        <time>2020-03-15T07:56:31Z</time>
      </trkpt>
      <trkpt lat="38.3061420" lon="-0.8026740">
        <ele>398.8</ele>
        <time>2020-03-15T07:56:32Z</time>
      </trkpt>
      <trkpt lat="38.3061110" lon="-0.8026230">
        <ele>399.0</ele>
        <time>2020-03-15T07:56:33Z</time>
      </trkpt>
      <trkpt lat="38.3060880" lon="-0.8025840">
        <ele>399.0</ele>
        <time>2020-03-15T07:56:34Z</time>
      </trkpt>
      <trkpt lat="38.3060640" lon="-0.8025460">
        <ele>399.2</ele>
        <time>2020-03-15T07:56:35Z</time>
      </trkpt>
      <trkpt lat="38.3060170" lon="-0.8024690">
        <ele>399.2</ele>
        <time>2020-03-15T07:56:36Z</time>
      </trkpt>
      <trkpt lat="38.3060010" lon="-0.8024440">
        <ele>399.2</ele>
        <time>2020-03-15T07:56:37Z</time>
      </trkpt>
      <trkpt lat="38.3059850" lon="-0.8024190">
        <ele>399.4</ele>
        <time>2020-03-15T07:56:38Z</time>
      </trkpt>
      <trkpt lat="38.3059190" lon="-0.8023210">
        <ele>399.6</ele>
        <time>2020-03-15T07:56:39Z</time>
      </trkpt>
      <trkpt lat="38.3059020" lon="-0.8022970">
        <ele>399.6</ele>
        <time>2020-03-15T07:56:40Z</time>
      </trkpt>
      <trkpt lat="38.3058840" lon="-0.8022740">
        <ele>399.8</ele>
        <time>2020-03-15T07:56:41Z</time>
      </trkpt>
      <trkpt lat="38.3058140" lon="-0.8021850">
        <ele>399.8</ele>
        <time>2020-03-15T07:56:42Z</time>
      </trkpt>
      <trkpt lat="38.3057770" lon="-0.8021450">
        <ele>400.2</ele>
        <time>2020-03-15T07:56:43Z</time>
      </trkpt>
      <trkpt lat="38.3057380" lon="-0.8021090">
        <ele>400.4</ele>
        <time>2020-03-15T07:56:44Z</time>
      </trkpt>
      <trkpt lat="38.3056980" lon="-0.8020730">
        <ele>400.4</ele>
        <time>2020-03-15T07:56:45Z</time>
      </trkpt>
      <trkpt lat="38.3056580" lon="-0.8020390">
        <ele>400.4</ele>
        <time>2020-03-15T07:56:46Z</time>
      </trkpt>
      <trkpt lat="38.3056130" lon="-0.8020200">
        <ele>400.4</ele>
        <time>2020-03-15T07:56:47Z</time>
      </trkpt>
      <trkpt lat="38.3055680" lon="-0.8020010">
        <ele>400.6</ele>
        <time>2020-03-15T07:56:48Z</time>
      </trkpt>
      <trkpt lat="38.3055220" lon="-0.8020090">
        <ele>401.0</ele>
        <time>2020-03-15T07:56:49Z</time>
      </trkpt>
      <trkpt lat="38.3054830" lon="-0.8020380">
        <ele>401.0</ele>
        <time>2020-03-15T07:56:50Z</time>
      </trkpt>
      <trkpt lat="38.3054470" lon="-0.8020750">
        <ele>401.2</ele>
        <time>2020-03-15T07:56:51Z</time>
      </trkpt>
      <trkpt lat="38.3054150" lon="-0.8021170">
        <ele>401.4</ele>
        <time>2020-03-15T07:56:52Z</time>
      </trkpt>
      <trkpt lat="38.3053820" lon="-0.8021580">
        <ele>401.4</ele>
        <time>2020-03-15T07:56:53Z</time>
      </trkpt>
      <trkpt lat="38.3053480" lon="-0.8021990">
        <ele>401.6</ele>
        <time>2020-03-15T07:56:54Z</time>
      </trkpt>
      <trkpt lat="38.3053170" lon="-0.8022450">
        <ele>401.6</ele>
        <time>2020-03-15T07:56:55Z</time>
      </trkpt>
      <trkpt lat="38.3052850" lon="-0.8022900">
        <ele>402.0</ele>
        <time>2020-03-15T07:56:56Z</time>
      </trkpt>
      <trkpt lat="38.3052690" lon="-0.8023130">
        <ele>402.2</ele>
        <time>2020-03-15T07:56:57Z</time>
      </trkpt>
      <trkpt lat="38.3052530" lon="-0.8023350">
        <ele>402.2</ele>
        <time>2020-03-15T07:56:58Z</time>
      </trkpt>
      <trkpt lat="38.3051910" lon="-0.8024250">
        <ele>402.4</ele>
        <time>2020-03-15T07:56:59Z</time>
      </trkpt>
      <trkpt lat="38.3051590" lon="-0.8024690">
        <ele>402.6</ele>
        <time>2020-03-15T07:57:00Z</time>
      </trkpt>
      <trkpt lat="38.3051270" lon="-0.8025120">
        <ele>402.8</ele>
        <time>2020-03-15T07:57:01Z</time>
      </trkpt>
      <trkpt lat="38.3050960" lon="-0.8025550">
        <ele>402.8</ele>
        <time>2020-03-15T07:57:02Z</time>
      </trkpt>
      <trkpt lat="38.3050630" lon="-0.8026000">
        <ele>403.0</ele>
        <time>2020-03-15T07:57:03Z</time>
      </trkpt>
      <trkpt lat="38.3050290" lon="-0.8026440">
        <ele>403.0</ele>
        <time>2020-03-15T07:57:04Z</time>
      </trkpt>
      <trkpt lat="38.3049940" lon="-0.8026870">
        <ele>403.2</ele>
        <time>2020-03-15T07:57:05Z</time>
      </trkpt>
      <trkpt lat="38.3049570" lon="-0.8027320">
        <ele>403.2</ele>
        <time>2020-03-15T07:57:06Z</time>
      </trkpt>
      <trkpt lat="38.3049180" lon="-0.8027750">
        <ele>403.2</ele>
        <time>2020-03-15T07:57:07Z</time>
      </trkpt>
      <trkpt lat="38.3048870" lon="-0.8028040">
        <ele>403.2</ele>
        <time>2020-03-15T07:57:08Z</time>
      </trkpt>
      <trkpt lat="38.3048560" lon="-0.8028330">
        <ele>403.4</ele>
        <time>2020-03-15T07:57:09Z</time>
      </trkpt>
      <trkpt lat="38.3047940" lon="-0.8028910">
        <ele>403.4</ele>
        <time>2020-03-15T07:57:10Z</time>
      </trkpt>
      <trkpt lat="38.3047620" lon="-0.8029190">
        <ele>403.4</ele>
        <time>2020-03-15T07:57:11Z</time>
      </trkpt>
      <trkpt lat="38.3047290" lon="-0.8029460">
        <ele>403.4</ele>
        <time>2020-03-15T07:57:12Z</time>
      </trkpt>
      <trkpt lat="38.3046630" lon="-0.8030000">
        <ele>403.4</ele>
        <time>2020-03-15T07:57:13Z</time>
      </trkpt>
      <trkpt lat="38.3046420" lon="-0.8030220">
        <ele>403.2</ele>
        <time>2020-03-15T07:57:14Z</time>
      </trkpt>
      <trkpt lat="38.3046200" lon="-0.8030440">
        <ele>402.8</ele>
        <time>2020-03-15T07:57:15Z</time>
      </trkpt>
      <trkpt lat="38.3045770" lon="-0.8031000">
        <ele>402.4</ele>
        <time>2020-03-15T07:57:16Z</time>
      </trkpt>
      <trkpt lat="38.3045120" lon="-0.8032580">
        <ele>401.8</ele>
        <time>2020-03-15T07:57:17Z</time>
      </trkpt>
      <trkpt lat="38.3044830" lon="-0.8033450">
        <ele>401.4</ele>
        <time>2020-03-15T07:57:18Z</time>
      </trkpt>
      <trkpt lat="38.3044680" lon="-0.8033900">
        <ele>401.2</ele>
        <time>2020-03-15T07:57:19Z</time>
      </trkpt>
      <trkpt lat="38.3044530" lon="-0.8034340">
        <ele>400.8</ele>
        <time>2020-03-15T07:57:20Z</time>
      </trkpt>
      <trkpt lat="38.3044260" lon="-0.8035280">
        <ele>400.4</ele>
        <time>2020-03-15T07:57:21Z</time>
      </trkpt>
      <trkpt lat="38.3043800" lon="-0.8037190">
        <ele>399.8</ele>
        <time>2020-03-15T07:57:22Z</time>
      </trkpt>
      <trkpt lat="38.3043600" lon="-0.8038160">
        <ele>399.6</ele>
        <time>2020-03-15T07:57:23Z</time>
      </trkpt>
      <trkpt lat="38.3043410" lon="-0.8039140">
        <ele>399.2</ele>
        <time>2020-03-15T07:57:24Z</time>
      </trkpt>
      <trkpt lat="38.3043280" lon="-0.8039870">
        <ele>399.0</ele>
        <time>2020-03-15T07:57:25Z</time>
      </trkpt>
      <trkpt lat="38.3043140" lon="-0.8040600">
        <ele>398.6</ele>
        <time>2020-03-15T07:57:26Z</time>
      </trkpt>
      <trkpt lat="38.3042870" lon="-0.8042050">
        <ele>398.4</ele>
        <time>2020-03-15T07:57:27Z</time>
      </trkpt>
      <trkpt lat="38.3042790" lon="-0.8042540">
        <ele>398.0</ele>
        <time>2020-03-15T07:57:28Z</time>
      </trkpt>
      <trkpt lat="38.3042700" lon="-0.8043020">
        <ele>397.8</ele>
        <time>2020-03-15T07:57:29Z</time>
      </trkpt>
      <trkpt lat="38.3042390" lon="-0.8044900">
        <ele>397.6</ele>
        <time>2020-03-15T07:57:30Z</time>
      </trkpt>
      <trkpt lat="38.3042280" lon="-0.8045830">
        <ele>397.4</ele>
        <time>2020-03-15T07:57:31Z</time>
      </trkpt>
      <trkpt lat="38.3042230" lon="-0.8046770">
        <ele>397.4</ele>
        <time>2020-03-15T07:57:32Z</time>
      </trkpt>
      <trkpt lat="38.3042280" lon="-0.8047480">
        <ele>397.2</ele>
        <time>2020-03-15T07:57:33Z</time>
      </trkpt>
      <trkpt lat="38.3042320" lon="-0.8048200">
        <ele>396.8</ele>
        <time>2020-03-15T07:57:34Z</time>
      </trkpt>
      <trkpt lat="38.3042400" lon="-0.8049640">
        <ele>396.4</ele>
        <time>2020-03-15T07:57:35Z</time>
      </trkpt>
      <trkpt lat="38.3042550" lon="-0.8050610">
        <ele>396.2</ele>
        <time>2020-03-15T07:57:36Z</time>
      </trkpt>
      <trkpt lat="38.3042750" lon="-0.8051560">
        <ele>396.2</ele>
        <time>2020-03-15T07:57:37Z</time>
      </trkpt>
      <trkpt lat="38.3042900" lon="-0.8052020">
        <ele>396.0</ele>
        <time>2020-03-15T07:57:38Z</time>
      </trkpt>
      <trkpt lat="38.3043040" lon="-0.8052490">
        <ele>395.8</ele>
        <time>2020-03-15T07:57:39Z</time>
      </trkpt>
      <trkpt lat="38.3043620" lon="-0.8054080">
        <ele>395.4</ele>
        <time>2020-03-15T07:57:40Z</time>
      </trkpt>
      <trkpt lat="38.3043910" lon="-0.8054740">
        <ele>395.4</ele>
        <time>2020-03-15T07:57:41Z</time>
      </trkpt>
      <trkpt lat="38.3044490" lon="-0.8056060">
        <ele>395.2</ele>
        <time>2020-03-15T07:57:42Z</time>
      </trkpt>
      <trkpt lat="38.3044800" lon="-0.8056590">
        <ele>395.0</ele>
        <time>2020-03-15T07:57:43Z</time>
      </trkpt>
      <trkpt lat="38.3045110" lon="-0.8057120">
        <ele>395.0</ele>
        <time>2020-03-15T07:57:44Z</time>
      </trkpt>
      <trkpt lat="38.3046340" lon="-0.8059250">
        <ele>395.0</ele>
        <time>2020-03-15T07:57:46Z</time>
      </trkpt>
      <trkpt lat="38.3046810" lon="-0.8060010">
        <ele>394.8</ele>
        <time>2020-03-15T07:57:47Z</time>
      </trkpt>
      <trkpt lat="38.3047040" lon="-0.8060390">
        <ele>394.4</ele>
        <time>2020-03-15T07:57:48Z</time>
      </trkpt>
      <trkpt lat="38.3047270" lon="-0.8060780">
        <ele>394.4</ele>
        <time>2020-03-15T07:57:49Z</time>
      </trkpt>
      <trkpt lat="38.3047740" lon="-0.8061560">
        <ele>394.2</ele>
        <time>2020-03-15T07:57:50Z</time>
      </trkpt>
      <trkpt lat="38.3048210" lon="-0.8062320">
        <ele>394.0</ele>
        <time>2020-03-15T07:57:51Z</time>
      </trkpt>
      <trkpt lat="38.3049130" lon="-0.8063860">
        <ele>393.8</ele>
        <time>2020-03-15T07:57:52Z</time>
      </trkpt>
      <trkpt lat="38.3049600" lon="-0.8064640">
        <ele>393.8</ele>
        <time>2020-03-15T07:57:53Z</time>
      </trkpt>
      <trkpt lat="38.3049830" lon="-0.8065050">
        <ele>393.8</ele>
        <time>2020-03-15T07:57:54Z</time>
      </trkpt>
      <trkpt lat="38.3050050" lon="-0.8065470">
        <ele>393.4</ele>
        <time>2020-03-15T07:57:55Z</time>
      </trkpt>
      <trkpt lat="38.3050970" lon="-0.8067010">
        <ele>393.2</ele>
        <time>2020-03-15T07:57:56Z</time>
      </trkpt>
      <trkpt lat="38.3051440" lon="-0.8067790">
        <ele>393.2</ele>
        <time>2020-03-15T07:57:57Z</time>
      </trkpt>
      <trkpt lat="38.3051900" lon="-0.8068590">
        <ele>392.8</ele>
        <time>2020-03-15T07:57:58Z</time>
      </trkpt>
      <trkpt lat="38.3052370" lon="-0.8069380">
        <ele>392.6</ele>
        <time>2020-03-15T07:57:59Z</time>
      </trkpt>
      <trkpt lat="38.3052840" lon="-0.8070190">
        <ele>392.4</ele>
        <time>2020-03-15T07:58:00Z</time>
      </trkpt>
      <trkpt lat="38.3053090" lon="-0.8070600">
        <ele>392.0</ele>
        <time>2020-03-15T07:58:01Z</time>
      </trkpt>
      <trkpt lat="38.3053330" lon="-0.8071020">
        <ele>391.6</ele>
        <time>2020-03-15T07:58:02Z</time>
      </trkpt>
      <trkpt lat="38.3054100" lon="-0.8072280">
        <ele>391.2</ele>
        <time>2020-03-15T07:58:03Z</time>
      </trkpt>
      <trkpt lat="38.3054370" lon="-0.8072700">
        <ele>390.8</ele>
        <time>2020-03-15T07:58:04Z</time>
      </trkpt>
      <trkpt lat="38.3055190" lon="-0.8073970">
        <ele>390.2</ele>
        <time>2020-03-15T07:58:05Z</time>
      </trkpt>
      <trkpt lat="38.3055470" lon="-0.8074410">
        <ele>389.8</ele>
        <time>2020-03-15T07:58:06Z</time>
      </trkpt>
      <trkpt lat="38.3056290" lon="-0.8075740">
        <ele>389.4</ele>
        <time>2020-03-15T07:58:07Z</time>
      </trkpt>
      <trkpt lat="38.3056560" lon="-0.8076200">
        <ele>388.8</ele>
        <time>2020-03-15T07:58:08Z</time>
      </trkpt>
      <trkpt lat="38.3057580" lon="-0.8078140">
        <ele>388.2</ele>
        <time>2020-03-15T07:58:09Z</time>
      </trkpt>
      <trkpt lat="38.3057790" lon="-0.8078670">
        <ele>387.4</ele>
        <time>2020-03-15T07:58:10Z</time>
      </trkpt>
      <trkpt lat="38.3057990" lon="-0.8079210">
        <ele>387.0</ele>
        <time>2020-03-15T07:58:11Z</time>
      </trkpt>
      <trkpt lat="38.3058370" lon="-0.8081560">
        <ele>386.2</ele>
        <time>2020-03-15T07:58:12Z</time>
      </trkpt>
      <trkpt lat="38.3058400" lon="-0.8082180">
        <ele>385.2</ele>
        <time>2020-03-15T07:58:13Z</time>
      </trkpt>
      <trkpt lat="38.3058420" lon="-0.8082800">
        <ele>384.6</ele>
        <time>2020-03-15T07:58:14Z</time>
      </trkpt>
      <trkpt lat="38.3058570" lon="-0.8084030">
        <ele>384.0</ele>
        <time>2020-03-15T07:58:15Z</time>
      </trkpt>
      <trkpt lat="38.3058930" lon="-0.8085210">
        <ele>383.6</ele>
        <time>2020-03-15T07:58:16Z</time>
      </trkpt>
      <trkpt lat="38.3060110" lon="-0.8087190">
        <ele>383.0</ele>
        <time>2020-03-15T07:58:17Z</time>
      </trkpt>
      <trkpt lat="38.3060660" lon="-0.8088210">
        <ele>382.6</ele>
        <time>2020-03-15T07:58:18Z</time>
      </trkpt>
      <trkpt lat="38.3060860" lon="-0.8088760">
        <ele>382.2</ele>
        <time>2020-03-15T07:58:19Z</time>
      </trkpt>
      <trkpt lat="38.3061060" lon="-0.8089320">
        <ele>381.6</ele>
        <time>2020-03-15T07:58:20Z</time>
      </trkpt>
      <trkpt lat="38.3061320" lon="-0.8090510">
        <ele>380.8</ele>
        <time>2020-03-15T07:58:21Z</time>
      </trkpt>
      <trkpt lat="38.3061400" lon="-0.8091670">
        <ele>380.0</ele>
        <time>2020-03-15T07:58:22Z</time>
      </trkpt>
      <trkpt lat="38.3060930" lon="-0.8093650">
        <ele>379.2</ele>
        <time>2020-03-15T07:58:23Z</time>
      </trkpt>
      <trkpt lat="38.3060350" lon="-0.8094350">
        <ele>379.0</ele>
        <time>2020-03-15T07:58:24Z</time>
      </trkpt>
      <trkpt lat="38.3059800" lon="-0.8094560">
        <ele>378.6</ele>
        <time>2020-03-15T07:58:25Z</time>
      </trkpt>
      <trkpt lat="38.3059240" lon="-0.8094770">
        <ele>378.6</ele>
        <time>2020-03-15T07:58:26Z</time>
      </trkpt>
      <trkpt lat="38.3058120" lon="-0.8095180">
        <ele>378.4</ele>
        <time>2020-03-15T07:58:27Z</time>
      </trkpt>
      <trkpt lat="38.3057740" lon="-0.8095310">
        <ele>378.4</ele>
        <time>2020-03-15T07:58:28Z</time>
      </trkpt>
      <trkpt lat="38.3057360" lon="-0.8095430">
        <ele>378.6</ele>
        <time>2020-03-15T07:58:29Z</time>
      </trkpt>
      <trkpt lat="38.3056650" lon="-0.8095700">
        <ele>378.6</ele>
        <time>2020-03-15T07:58:30Z</time>
      </trkpt>
      <trkpt lat="38.3055930" lon="-0.8095920">
        <ele>378.6</ele>
        <time>2020-03-15T07:58:31Z</time>
      </trkpt>
      <trkpt lat="38.3054470" lon="-0.8096370">
        <ele>378.6</ele>
        <time>2020-03-15T07:58:32Z</time>
      </trkpt>
      <trkpt lat="38.3053940" lon="-0.8096550">
        <ele>378.6</ele>
        <time>2020-03-15T07:58:33Z</time>
      </trkpt>
      <trkpt lat="38.3053400" lon="-0.8096730">
        <ele>378.8</ele>
        <time>2020-03-15T07:58:34Z</time>
      </trkpt>
      <trkpt lat="38.3052320" lon="-0.8097090">
        <ele>378.8</ele>
        <time>2020-03-15T07:58:35Z</time>
      </trkpt>
      <trkpt lat="38.3051640" lon="-0.8097340">
        <ele>379.0</ele>
        <time>2020-03-15T07:58:36Z</time>
      </trkpt>
      <trkpt lat="38.3051320" lon="-0.8097470">
        <ele>379.4</ele>
        <time>2020-03-15T07:58:37Z</time>
      </trkpt>
      <trkpt lat="38.3051000" lon="-0.8097590">
        <ele>379.6</ele>
        <time>2020-03-15T07:58:38Z</time>
      </trkpt>
      <trkpt lat="38.3049830" lon="-0.8098090">
        <ele>380.2</ele>
        <time>2020-03-15T07:58:39Z</time>
      </trkpt>
      <trkpt lat="38.3049300" lon="-0.8098340">
        <ele>380.6</ele>
        <time>2020-03-15T07:58:40Z</time>
      </trkpt>
      <trkpt lat="38.3048770" lon="-0.8098550">
        <ele>380.8</ele>
        <time>2020-03-15T07:58:41Z</time>
      </trkpt>
      <trkpt lat="38.3048240" lon="-0.8098700">
        <ele>381.2</ele>
        <time>2020-03-15T07:58:42Z</time>
      </trkpt>
      <trkpt lat="38.3047740" lon="-0.8098860">
        <ele>381.6</ele>
        <time>2020-03-15T07:58:43Z</time>
      </trkpt>
      <trkpt lat="38.3047490" lon="-0.8098930">
        <ele>381.8</ele>
        <time>2020-03-15T07:58:44Z</time>
      </trkpt>
      <trkpt lat="38.3047240" lon="-0.8099000">
        <ele>382.0</ele>
        <time>2020-03-15T07:58:45Z</time>
      </trkpt>
      <trkpt lat="38.3046770" lon="-0.8099130">
        <ele>382.4</ele>
        <time>2020-03-15T07:58:46Z</time>
      </trkpt>
      <trkpt lat="38.3046280" lon="-0.8099210">
        <ele>382.6</ele>
        <time>2020-03-15T07:58:47Z</time>
      </trkpt>
      <trkpt lat="38.3045780" lon="-0.8099330">
        <ele>383.0</ele>
        <time>2020-03-15T07:58:48Z</time>
      </trkpt>
      <trkpt lat="38.3045300" lon="-0.8099470">
        <ele>383.4</ele>
        <time>2020-03-15T07:58:49Z</time>
      </trkpt>
      <trkpt lat="38.3044820" lon="-0.8099650">
        <ele>383.6</ele>
        <time>2020-03-15T07:58:50Z</time>
      </trkpt>
      <trkpt lat="38.3044370" lon="-0.8099840">
        <ele>384.0</ele>
        <time>2020-03-15T07:58:51Z</time>
      </trkpt>
      <trkpt lat="38.3043440" lon="-0.8100100">
        <ele>384.2</ele>
        <time>2020-03-15T07:58:52Z</time>
      </trkpt>
      <trkpt lat="38.3042980" lon="-0.8100200">
        <ele>384.6</ele>
        <time>2020-03-15T07:58:53Z</time>
      </trkpt>
      <trkpt lat="38.3042520" lon="-0.8100300">
        <ele>384.8</ele>
        <time>2020-03-15T07:58:54Z</time>
      </trkpt>
      <trkpt lat="38.3042060" lon="-0.8100420">
        <ele>385.2</ele>
        <time>2020-03-15T07:58:55Z</time>
      </trkpt>
      <trkpt lat="38.3041600" lon="-0.8100530">
        <ele>385.4</ele>
        <time>2020-03-15T07:58:56Z</time>
      </trkpt>
      <trkpt lat="38.3041160" lon="-0.8100680">
        <ele>385.8</ele>
        <time>2020-03-15T07:58:57Z</time>
      </trkpt>
      <trkpt lat="38.3040710" lon="-0.8100830">
        <ele>386.0</ele>
        <time>2020-03-15T07:58:58Z</time>
      </trkpt>
      <trkpt lat="38.3040300" lon="-0.8101040">
        <ele>386.2</ele>
        <time>2020-03-15T07:58:59Z</time>
      </trkpt>
      <trkpt lat="38.3039840" lon="-0.8101200">
        <ele>386.6</ele>
        <time>2020-03-15T07:59:00Z</time>
      </trkpt>
      <trkpt lat="38.3039400" lon="-0.8101330">
        <ele>387.0</ele>
        <time>2020-03-15T07:59:01Z</time>
      </trkpt>
      <trkpt lat="38.3038960" lon="-0.8101450">
        <ele>387.4</ele>
        <time>2020-03-15T07:59:02Z</time>
      </trkpt>
      <trkpt lat="38.3038530" lon="-0.8101550">
        <ele>387.8</ele>
        <time>2020-03-15T07:59:03Z</time>
      </trkpt>
      <trkpt lat="38.3038320" lon="-0.8101610">
        <ele>388.2</ele>
        <time>2020-03-15T07:59:04Z</time>
      </trkpt>
      <trkpt lat="38.3038110" lon="-0.8101660">
        <ele>388.6</ele>
        <time>2020-03-15T07:59:05Z</time>
      </trkpt>
      <trkpt lat="38.3037310" lon="-0.8101960">
        <ele>389.0</ele>
        <time>2020-03-15T07:59:06Z</time>
      </trkpt>
      <trkpt lat="38.3036950" lon="-0.8102180">
        <ele>389.6</ele>
        <time>2020-03-15T07:59:07Z</time>
      </trkpt>
      <trkpt lat="38.3036950" lon="-0.8102180">
        <ele>390.0</ele>
        <time>2020-03-15T07:59:08Z</time>
      </trkpt>
      <trkpt lat="38.3036320" lon="-0.8102730">
        <ele>391.0</ele>
        <time>2020-03-15T07:59:10Z</time>
      </trkpt>
      <trkpt lat="38.3036020" lon="-0.8103010">
        <ele>391.6</ele>
        <time>2020-03-15T07:59:11Z</time>
      </trkpt>
      <trkpt lat="38.3035760" lon="-0.8103320">
        <ele>392.0</ele>
        <time>2020-03-15T07:59:12Z</time>
      </trkpt>
      <trkpt lat="38.3035240" lon="-0.8103960">
        <ele>392.4</ele>
        <time>2020-03-15T07:59:13Z</time>
      </trkpt>
      <trkpt lat="38.3034980" lon="-0.8104170">
        <ele>393.0</ele>
        <time>2020-03-15T07:59:14Z</time>
      </trkpt>
      <trkpt lat="38.3034710" lon="-0.8104380">
        <ele>393.6</ele>
        <time>2020-03-15T07:59:15Z</time>
      </trkpt>
      <trkpt lat="38.3034470" lon="-0.8104590">
        <ele>394.0</ele>
        <time>2020-03-15T07:59:16Z</time>
      </trkpt>
      <trkpt lat="38.3034250" lon="-0.8104760">
        <ele>394.4</ele>
        <time>2020-03-15T07:59:17Z</time>
      </trkpt>
      <trkpt lat="38.3034030" lon="-0.8104920">
        <ele>394.8</ele>
        <time>2020-03-15T07:59:18Z</time>
      </trkpt>
      <trkpt lat="38.3033770" lon="-0.8105010">
        <ele>395.0</ele>
        <time>2020-03-15T07:59:19Z</time>
      </trkpt>
      <trkpt lat="38.3033770" lon="-0.8105010">
        <ele>395.4</ele>
        <time>2020-03-15T07:59:20Z</time>
      </trkpt>
      <trkpt lat="38.3033520" lon="-0.8105080">
        <ele>395.6</ele>
        <time>2020-03-15T07:59:21Z</time>
      </trkpt>
      <trkpt lat="38.3033050" lon="-0.8105170">
        <ele>396.0</ele>
        <time>2020-03-15T07:59:22Z</time>
      </trkpt>
      <trkpt lat="38.3033050" lon="-0.8105170">
        <ele>396.4</ele>
        <time>2020-03-15T07:59:23Z</time>
      </trkpt>
      <trkpt lat="38.3032800" lon="-0.8105180">
        <ele>396.8</ele>
        <time>2020-03-15T07:59:24Z</time>
      </trkpt>
      <trkpt lat="38.3032310" lon="-0.8105210">
        <ele>397.0</ele>
        <time>2020-03-15T07:59:25Z</time>
      </trkpt>
      <trkpt lat="38.3032310" lon="-0.8105210">
        <ele>397.4</ele>
        <time>2020-03-15T07:59:26Z</time>
      </trkpt>
      <trkpt lat="38.3032080" lon="-0.8105220">
        <ele>397.6</ele>
        <time>2020-03-15T07:59:27Z</time>
      </trkpt>
      <trkpt lat="38.3031650" lon="-0.8105190">
        <ele>398.0</ele>
        <time>2020-03-15T07:59:28Z</time>
      </trkpt>
      <trkpt lat="38.3031650" lon="-0.8105190">
        <ele>398.2</ele>
        <time>2020-03-15T07:59:29Z</time>
      </trkpt>
      <trkpt lat="38.3031420" lon="-0.8105140">
        <ele>398.2</ele>
        <time>2020-03-15T07:59:30Z</time>
      </trkpt>
      <trkpt lat="38.3030990" lon="-0.8105050">
        <ele>398.6</ele>
        <time>2020-03-15T07:59:31Z</time>
      </trkpt>
      <trkpt lat="38.3030770" lon="-0.8104970">
        <ele>398.8</ele>
        <time>2020-03-15T07:59:32Z</time>
      </trkpt>
      <trkpt lat="38.3030550" lon="-0.8104900">
        <ele>399.2</ele>
        <time>2020-03-15T07:59:33Z</time>
      </trkpt>
      <trkpt lat="38.3030330" lon="-0.8104820">
        <ele>399.4</ele>
        <time>2020-03-15T07:59:34Z</time>
      </trkpt>
      <trkpt lat="38.3030120" lon="-0.8104750">
        <ele>399.8</ele>
        <time>2020-03-15T07:59:35Z</time>
      </trkpt>
      <trkpt lat="38.3029900" lon="-0.8104670">
        <ele>400.0</ele>
        <time>2020-03-15T07:59:36Z</time>
      </trkpt>
      <trkpt lat="38.3029900" lon="-0.8104670">
        <ele>400.2</ele>
        <time>2020-03-15T07:59:37Z</time>
      </trkpt>
      <trkpt lat="38.3029690" lon="-0.8104600">
        <ele>400.4</ele>
        <time>2020-03-15T07:59:38Z</time>
      </trkpt>
      <trkpt lat="38.3029250" lon="-0.8104500">
        <ele>400.6</ele>
        <time>2020-03-15T07:59:39Z</time>
      </trkpt>
      <trkpt lat="38.3029050" lon="-0.8104410">
        <ele>401.0</ele>
        <time>2020-03-15T07:59:40Z</time>
      </trkpt>
      <trkpt lat="38.3028850" lon="-0.8104320">
        <ele>401.4</ele>
        <time>2020-03-15T07:59:41Z</time>
      </trkpt>
      <trkpt lat="38.3028640" lon="-0.8104240">
        <ele>401.6</ele>
        <time>2020-03-15T07:59:42Z</time>
      </trkpt>
      <trkpt lat="38.3028420" lon="-0.8104160">
        <ele>401.6</ele>
        <time>2020-03-15T07:59:43Z</time>
      </trkpt>
      <trkpt lat="38.3028210" lon="-0.8104080">
        <ele>402.0</ele>
        <time>2020-03-15T07:59:44Z</time>
      </trkpt>
      <trkpt lat="38.3027990" lon="-0.8104000">
        <ele>402.2</ele>
        <time>2020-03-15T07:59:45Z</time>
      </trkpt>
      <trkpt lat="38.3027800" lon="-0.8103940">
        <ele>402.6</ele>
        <time>2020-03-15T07:59:46Z</time>
      </trkpt>
      <trkpt lat="38.3027600" lon="-0.8103890">
        <ele>403.0</ele>
        <time>2020-03-15T07:59:47Z</time>
      </trkpt>
      <trkpt lat="38.3027600" lon="-0.8103890">
        <ele>403.2</ele>
        <time>2020-03-15T07:59:48Z</time>
      </trkpt>
      <trkpt lat="38.3027390" lon="-0.8103860">
        <ele>403.4</ele>
        <time>2020-03-15T07:59:49Z</time>
      </trkpt>
      <trkpt lat="38.3026950" lon="-0.8103840">
        <ele>403.4</ele>
        <time>2020-03-15T07:59:50Z</time>
      </trkpt>
      <trkpt lat="38.3026730" lon="-0.8103800">
        <ele>403.8</ele>
        <time>2020-03-15T07:59:51Z</time>
      </trkpt>
      <trkpt lat="38.3026500" lon="-0.8103770">
        <ele>404.0</ele>
        <time>2020-03-15T07:59:52Z</time>
      </trkpt>
      <trkpt lat="38.3026280" lon="-0.8103740">
        <ele>404.2</ele>
        <time>2020-03-15T07:59:53Z</time>
      </trkpt>
      <trkpt lat="38.3026280" lon="-0.8103740">
        <ele>404.4</ele>
        <time>2020-03-15T07:59:54Z</time>
      </trkpt>
      <trkpt lat="38.3026070" lon="-0.8103730">
        <ele>404.6</ele>
        <time>2020-03-15T07:59:55Z</time>
      </trkpt>
      <trkpt lat="38.3025850" lon="-0.8103740">
        <ele>404.8</ele>
        <time>2020-03-15T07:59:56Z</time>
      </trkpt>
      <trkpt lat="38.3025450" lon="-0.8103780">
        <ele>405.0</ele>
        <time>2020-03-15T07:59:57Z</time>
      </trkpt>
      <trkpt lat="38.3025450" lon="-0.8103780">
        <ele>405.2</ele>
        <time>2020-03-15T07:59:58Z</time>
      </trkpt>
      <trkpt lat="38.3025240" lon="-0.8103780">
        <ele>405.6</ele>
        <time>2020-03-15T07:59:59Z</time>
      </trkpt>
      <trkpt lat="38.3024830" lon="-0.8103810">
        <ele>406.2</ele>
        <time>2020-03-15T08:00:01Z</time>
      </trkpt>
      <trkpt lat="38.3024400" lon="-0.8103820">
        <ele>406.4</ele>
        <time>2020-03-15T08:00:02Z</time>
      </trkpt>
      <trkpt lat="38.3024210" lon="-0.8103810">
        <ele>406.6</ele>
        <time>2020-03-15T08:00:03Z</time>
      </trkpt>
      <trkpt lat="38.3024010" lon="-0.8103810">
        <ele>406.8</ele>
        <time>2020-03-15T08:00:04Z</time>
      </trkpt>
      <trkpt lat="38.3024010" lon="-0.8103810">
        <ele>407.0</ele>
        <time>2020-03-15T08:00:05Z</time>
      </trkpt>
      <trkpt lat="38.3023800" lon="-0.8103810">
        <ele>407.0</ele>
        <time>2020-03-15T08:00:06Z</time>
      </trkpt>
      <trkpt lat="38.3023590" lon="-0.8103840">
        <ele>407.4</ele>
        <time>2020-03-15T08:00:07Z</time>
      </trkpt>
      <trkpt lat="38.3023180" lon="-0.8103840">
        <ele>407.6</ele>
        <time>2020-03-15T08:00:08Z</time>
      </trkpt>
      <trkpt lat="38.3022950" lon="-0.8103820">
        <ele>408.0</ele>
        <time>2020-03-15T08:00:09Z</time>
      </trkpt>
      <trkpt lat="38.3022730" lon="-0.8103780">
        <ele>408.2</ele>
        <time>2020-03-15T08:00:10Z</time>
      </trkpt>
      <trkpt lat="38.3022730" lon="-0.8103780">
        <ele>408.6</ele>
        <time>2020-03-15T08:00:11Z</time>
      </trkpt>
      <trkpt lat="38.3022510" lon="-0.8103700">
        <ele>408.6</ele>
        <time>2020-03-15T08:00:12Z</time>
      </trkpt>
      <trkpt lat="38.3022280" lon="-0.8103620">
        <ele>408.8</ele>
        <time>2020-03-15T08:00:13Z</time>
      </trkpt>
      <trkpt lat="38.3022060" lon="-0.8103470">
        <ele>409.2</ele>
        <time>2020-03-15T08:00:14Z</time>
      </trkpt>
      <trkpt lat="38.3021840" lon="-0.8103290">
        <ele>409.4</ele>
        <time>2020-03-15T08:00:15Z</time>
      </trkpt>
      <trkpt lat="38.3021630" lon="-0.8103120">
        <ele>409.4</ele>
        <time>2020-03-15T08:00:16Z</time>
      </trkpt>
      <trkpt lat="38.3021410" lon="-0.8102950">
        <ele>409.6</ele>
        <time>2020-03-15T08:00:17Z</time>
      </trkpt>
      <trkpt lat="38.3021170" lon="-0.8102760">
        <ele>409.8</ele>
        <time>2020-03-15T08:00:18Z</time>
      </trkpt>
      <trkpt lat="38.3020930" lon="-0.8102500">
        <ele>409.8</ele>
        <time>2020-03-15T08:00:19Z</time>
      </trkpt>
      <trkpt lat="38.3020490" lon="-0.8102000">
        <ele>409.8</ele>
        <time>2020-03-15T08:00:20Z</time>
      </trkpt>
      <trkpt lat="38.3020280" lon="-0.8101710">
        <ele>410.0</ele>
        <time>2020-03-15T08:00:21Z</time>
      </trkpt>
      <trkpt lat="38.3020070" lon="-0.8101430">
        <ele>410.0</ele>
        <time>2020-03-15T08:00:22Z</time>
      </trkpt>
      <trkpt lat="38.3019860" lon="-0.8101100">
        <ele>410.2</ele>
        <time>2020-03-15T08:00:23Z</time>
      </trkpt>
      <trkpt lat="38.3019860" lon="-0.8101100">
        <ele>410.2</ele>
        <time>2020-03-15T08:00:24Z</time>
      </trkpt>
      <trkpt lat="38.3019650" lon="-0.8100770">
        <ele>410.4</ele>
        <time>2020-03-15T08:00:25Z</time>
      </trkpt>
      <trkpt lat="38.3019250" lon="-0.8100050">
        <ele>410.6</ele>
        <time>2020-03-15T08:00:26Z</time>
      </trkpt>
      <trkpt lat="38.3019070" lon="-0.8099660">
        <ele>410.8</ele>
        <time>2020-03-15T08:00:27Z</time>
      </trkpt>
      <trkpt lat="38.3018890" lon="-0.8099270">
        <ele>410.8</ele>
        <time>2020-03-15T08:00:28Z</time>
      </trkpt>
      <trkpt lat="38.3018740" lon="-0.8098860">
        <ele>410.8</ele>
        <time>2020-03-15T08:00:29Z</time>
      </trkpt>
      <trkpt lat="38.3018590" lon="-0.8098450">
        <ele>411.0</ele>
        <time>2020-03-15T08:00:30Z</time>
      </trkpt>
      <trkpt lat="38.3018520" lon="-0.8098230">
        <ele>411.2</ele>
        <time>2020-03-15T08:00:31Z</time>
      </trkpt>
      <trkpt lat="38.3018450" lon="-0.8098020">
        <ele>411.2</ele>
        <time>2020-03-15T08:00:32Z</time>
      </trkpt>
      <trkpt lat="38.3018150" lon="-0.8097170">
        <ele>411.2</ele>
        <time>2020-03-15T08:00:33Z</time>
      </trkpt>
      <trkpt lat="38.3018050" lon="-0.8096970">
        <ele>411.4</ele>
        <time>2020-03-15T08:00:34Z</time>
      </trkpt>
      <trkpt lat="38.3017940" lon="-0.8096780">
        <ele>411.4</ele>
        <time>2020-03-15T08:00:35Z</time>
      </trkpt>
      <trkpt lat="38.3017390" lon="-0.8096110">
        <ele>411.4</ele>
        <time>2020-03-15T08:00:36Z</time>
      </trkpt>
      <trkpt lat="38.3017030" lon="-0.8095940">
        <ele>411.8</ele>
        <time>2020-03-15T08:00:37Z</time>
      </trkpt>
      <trkpt lat="38.3016650" lon="-0.8095830">
        <ele>411.8</ele>
        <time>2020-03-15T08:00:38Z</time>
      </trkpt>
      <trkpt lat="38.3016290" lon="-0.8095750">
        <ele>412.0</ele>
        <time>2020-03-15T08:00:39Z</time>
      </trkpt>
      <trkpt lat="38.3015930" lon="-0.8095670">
        <ele>412.2</ele>
        <time>2020-03-15T08:00:40Z</time>
      </trkpt>
      <trkpt lat="38.3015570" lon="-0.8095600">
        <ele>412.6</ele>
        <time>2020-03-15T08:00:41Z</time>
      </trkpt>
      <trkpt lat="38.3015210" lon="-0.8095540">
        <ele>412.8</ele>
        <time>2020-03-15T08:00:42Z</time>
      </trkpt>
      <trkpt lat="38.3015210" lon="-0.8095540">
        <ele>413.0</ele>
        <time>2020-03-15T08:00:43Z</time>
      </trkpt>
      <trkpt lat="38.3014880" lon="-0.8095480">
        <ele>413.2</ele>
        <time>2020-03-15T08:00:44Z</time>
      </trkpt>
      <trkpt lat="38.3014550" lon="-0.8095420">
        <ele>413.6</ele>
        <time>2020-03-15T08:00:45Z</time>
      </trkpt>
      <trkpt lat="38.3013920" lon="-0.8095290">
        <ele>414.0</ele>
        <time>2020-03-15T08:00:46Z</time>
      </trkpt>
      <trkpt lat="38.3013600" lon="-0.8095250">
        <ele>414.4</ele>
        <time>2020-03-15T08:00:47Z</time>
      </trkpt>
      <trkpt lat="38.3013280" lon="-0.8095210">
        <ele>414.6</ele>
        <time>2020-03-15T08:00:48Z</time>
      </trkpt>
      <trkpt lat="38.3012950" lon="-0.8095170">
        <ele>414.8</ele>
        <time>2020-03-15T08:00:49Z</time>
      </trkpt>
      <trkpt lat="38.3012630" lon="-0.8095140">
        <ele>415.0</ele>
        <time>2020-03-15T08:00:50Z</time>
      </trkpt>
      <trkpt lat="38.3012310" lon="-0.8095110">
        <ele>415.2</ele>
        <time>2020-03-15T08:00:51Z</time>
      </trkpt>
      <trkpt lat="38.3012310" lon="-0.8095110">
        <ele>415.4</ele>
        <time>2020-03-15T08:00:52Z</time>
      </trkpt>
      <trkpt lat="38.3011990" lon="-0.8095100">
        <ele>415.8</ele>
        <time>2020-03-15T08:00:53Z</time>
      </trkpt>
      <trkpt lat="38.3011390" lon="-0.8095060">
        <ele>416.0</ele>
        <time>2020-03-15T08:00:54Z</time>
      </trkpt>
      <trkpt lat="38.3011120" lon="-0.8095040">
        <ele>416.2</ele>
        <time>2020-03-15T08:00:55Z</time>
      </trkpt>
      <trkpt lat="38.3010840" lon="-0.8095030">
        <ele>416.4</ele>
        <time>2020-03-15T08:00:56Z</time>
      </trkpt>
      <trkpt lat="38.3010540" lon="-0.8095030">
        <ele>416.8</ele>
        <time>2020-03-15T08:00:57Z</time>
      </trkpt>
      <trkpt lat="38.3010540" lon="-0.8095030">
        <ele>417.2</ele>
        <time>2020-03-15T08:00:58Z</time>
      </trkpt>
      <trkpt lat="38.3010250" lon="-0.8095010">
        <ele>417.4</ele>
        <time>2020-03-15T08:00:59Z</time>
      </trkpt>
      <trkpt lat="38.3009950" lon="-0.8095000">
        <ele>417.8</ele>
        <time>2020-03-15T08:01:00Z</time>
      </trkpt>
      <trkpt lat="38.3009640" lon="-0.8094980">
        <ele>418.2</ele>
        <time>2020-03-15T08:01:01Z</time>
      </trkpt>
      <trkpt lat="38.3009040" lon="-0.8094990">
        <ele>418.4</ele>
        <time>2020-03-15T08:01:02Z</time>
      </trkpt>
      <trkpt lat="38.3009040" lon="-0.8094990">
        <ele>418.8</ele>
        <time>2020-03-15T08:01:03Z</time>
      </trkpt>
      <trkpt lat="38.3008760" lon="-0.8095000">
        <ele>419.2</ele>
        <time>2020-03-15T08:01:04Z</time>
      </trkpt>
      <trkpt lat="38.3008200" lon="-0.8095050">
        <ele>419.6</ele>
        <time>2020-03-15T08:01:05Z</time>
      </trkpt>
      <trkpt lat="38.3007930" lon="-0.8095040">
        <ele>419.8</ele>
        <time>2020-03-15T08:01:06Z</time>
      </trkpt>
      <trkpt lat="38.3007930" lon="-0.8095040">
        <ele>420.0</ele>
        <time>2020-03-15T08:01:07Z</time>
      </trkpt>
      <trkpt lat="38.3007640" lon="-0.8095030">
        <ele>420.2</ele>
        <time>2020-03-15T08:01:08Z</time>
      </trkpt>
      <trkpt lat="38.3007350" lon="-0.8095010">
        <ele>420.4</ele>
        <time>2020-03-15T08:01:09Z</time>
      </trkpt>
      <trkpt lat="38.3006750" lon="-0.8095000">
        <ele>420.4</ele>
        <time>2020-03-15T08:01:10Z</time>
      </trkpt>
      <trkpt lat="38.3006440" lon="-0.8095020">
        <ele>420.6</ele>
        <time>2020-03-15T08:01:11Z</time>
      </trkpt>
      <trkpt lat="38.3006130" lon="-0.8095030">
        <ele>420.8</ele>
        <time>2020-03-15T08:01:12Z</time>
      </trkpt>
      <trkpt lat="38.3005810" lon="-0.8095070">
        <ele>421.0</ele>
        <time>2020-03-15T08:01:13Z</time>
      </trkpt>
      <trkpt lat="38.3005810" lon="-0.8095070">
        <ele>421.4</ele>
        <time>2020-03-15T08:01:14Z</time>
      </trkpt>
      <trkpt lat="38.3005480" lon="-0.8095100">
        <ele>421.6</ele>
        <time>2020-03-15T08:01:15Z</time>
      </trkpt>
      <trkpt lat="38.3004850" lon="-0.8095180">
        <ele>421.6</ele>
        <time>2020-03-15T08:01:16Z</time>
      </trkpt>
      <trkpt lat="38.3004850" lon="-0.8095180">
        <ele>422.0</ele>
        <time>2020-03-15T08:01:17Z</time>
      </trkpt>
      <trkpt lat="38.3004530" lon="-0.8095220">
        <ele>422.2</ele>
        <time>2020-03-15T08:01:18Z</time>
      </trkpt>
      <trkpt lat="38.3003920" lon="-0.8095340">
        <ele>422.4</ele>
        <time>2020-03-15T08:01:19Z</time>
      </trkpt>
      <trkpt lat="38.3003920" lon="-0.8095340">
        <ele>422.8</ele>
        <time>2020-03-15T08:01:20Z</time>
      </trkpt>
      <trkpt lat="38.3003620" lon="-0.8095450">
        <ele>422.8</ele>
        <time>2020-03-15T08:01:21Z</time>
      </trkpt>
      <trkpt lat="38.3003310" lon="-0.8095600">
        <ele>423.0</ele>
        <time>2020-03-15T08:01:22Z</time>
      </trkpt>
      <trkpt lat="38.3003010" lon="-0.8095770">
        <ele>423.2</ele>
        <time>2020-03-15T08:01:23Z</time>
      </trkpt>
      <trkpt lat="38.3002700" lon="-0.8095950">
        <ele>423.6</ele>
        <time>2020-03-15T08:01:24Z</time>
      </trkpt>
      <trkpt lat="38.3002070" lon="-0.8096310">
        <ele>423.8</ele>
        <time>2020-03-15T08:01:25Z</time>
      </trkpt>
      <trkpt lat="38.3001770" lon="-0.8096520">
        <ele>424.0</ele>
        <time>2020-03-15T08:01:26Z</time>
      </trkpt>
      <trkpt lat="38.3001460" lon="-0.8096720">
        <ele>424.2</ele>
        <time>2020-03-15T08:01:27Z</time>
      </trkpt>
      <trkpt lat="38.3001460" lon="-0.8096720">
        <ele>424.6</ele>
        <time>2020-03-15T08:01:28Z</time>
      </trkpt>
      <trkpt lat="38.3001190" lon="-0.8096900">
        <ele>424.8</ele>
        <time>2020-03-15T08:01:29Z</time>
      </trkpt>
      <trkpt lat="38.3000630" lon="-0.8097240">
        <ele>425.0</ele>
        <time>2020-03-15T08:01:30Z</time>
      </trkpt>
      <trkpt lat="38.3000340" lon="-0.8097490">
        <ele>424.8</ele>
        <time>2020-03-15T08:01:31Z</time>
      </trkpt>
      <trkpt lat="38.3000050" lon="-0.8097730">
        <ele>424.8</ele>
        <time>2020-03-15T08:01:32Z</time>
      </trkpt>
      <trkpt lat="38.2999700" lon="-0.8098010">
        <ele>424.6</ele>
        <time>2020-03-15T08:01:33Z</time>
      </trkpt>
      <trkpt lat="38.2999300" lon="-0.8098330">
        <ele>424.4</ele>
        <time>2020-03-15T08:01:34Z</time>
      </trkpt>
      <trkpt lat="38.2999110" lon="-0.8098520">
        <ele>424.2</ele>
        <time>2020-03-15T08:01:35Z</time>
      </trkpt>
      <trkpt lat="38.2998910" lon="-0.8098700">
        <ele>424.0</ele>
        <time>2020-03-15T08:01:36Z</time>
      </trkpt>
      <trkpt lat="38.2998080" lon="-0.8099660">
        <ele>423.4</ele>
        <time>2020-03-15T08:01:37Z</time>
      </trkpt>
      <trkpt lat="38.2997860" lon="-0.8099920">
        <ele>423.2</ele>
        <time>2020-03-15T08:01:38Z</time>
      </trkpt>
      <trkpt lat="38.2997630" lon="-0.8100170">
        <ele>422.8</ele>
        <time>2020-03-15T08:01:39Z</time>
      </trkpt>
      <trkpt lat="38.2997160" lon="-0.8100710">
        <ele>422.6</ele>
        <time>2020-03-15T08:01:40Z</time>
      </trkpt>
      <trkpt lat="38.2996210" lon="-0.8101790">
        <ele>422.2</ele>
        <time>2020-03-15T08:01:41Z</time>
      </trkpt>
      <trkpt lat="38.2995980" lon="-0.8102100">
        <ele>421.8</ele>
        <time>2020-03-15T08:01:42Z</time>
      </trkpt>
      <trkpt lat="38.2995740" lon="-0.8102410">
        <ele>421.4</ele>
        <time>2020-03-15T08:01:43Z</time>
      </trkpt>
      <trkpt lat="38.2995030" lon="-0.8103380">
        <ele>421.0</ele>
        <time>2020-03-15T08:01:44Z</time>
      </trkpt>
      <trkpt lat="38.2994780" lon="-0.8103730">
        <ele>420.4</ele>
        <time>2020-03-15T08:01:45Z</time>
      </trkpt>
      <trkpt lat="38.2994040" lon="-0.8104830">
        <ele>419.8</ele>
        <time>2020-03-15T08:01:46Z</time>
      </trkpt>
      <trkpt lat="38.2993800" lon="-0.8105220">
        <ele>419.2</ele>
        <time>2020-03-15T08:01:47Z</time>
      </trkpt>
      <trkpt lat="38.2993280" lon="-0.8106050">
        <ele>418.8</ele>
        <time>2020-03-15T08:01:48Z</time>
      </trkpt>
      <trkpt lat="38.2992280" lon="-0.8107310">
        <ele>418.2</ele>
        <time>2020-03-15T08:01:49Z</time>
      </trkpt>
      <trkpt lat="38.2992000" lon="-0.8107440">
        <ele>418.0</ele>
        <time>2020-03-15T08:01:50Z</time>
      </trkpt>
      <trkpt lat="38.2991720" lon="-0.8107570">
        <ele>417.8</ele>
        <time>2020-03-15T08:01:51Z</time>
      </trkpt>
      <trkpt lat="38.2991130" lon="-0.8107590">
        <ele>417.4</ele>
        <time>2020-03-15T08:01:52Z</time>
      </trkpt>
      <trkpt lat="38.2990080" lon="-0.8107850">
        <ele>417.0</ele>
        <time>2020-03-15T08:01:53Z</time>
      </trkpt>
      <trkpt lat="38.2989920" lon="-0.8108130">
        <ele>416.8</ele>
        <time>2020-03-15T08:01:54Z</time>
      </trkpt>
      <trkpt lat="38.2989750" lon="-0.8108410">
        <ele>416.6</ele>
        <time>2020-03-15T08:01:55Z</time>
      </trkpt>
      <trkpt lat="38.2989460" lon="-0.8109840">
        <ele>416.4</ele>
        <time>2020-03-15T08:01:56Z</time>
      </trkpt>
      <trkpt lat="38.2989460" lon="-0.8110250">
        <ele>416.2</ele>
        <time>2020-03-15T08:01:57Z</time>
      </trkpt>
      <trkpt lat="38.2989460" lon="-0.8110660">
        <ele>416.0</ele>
        <time>2020-03-15T08:01:58Z</time>
      </trkpt>
      <trkpt lat="38.2989480" lon="-0.8112350">
        <ele>415.8</ele>
        <time>2020-03-15T08:01:59Z</time>
      </trkpt>
      <trkpt lat="38.2989460" lon="-0.8113250">
        <ele>415.4</ele>
        <time>2020-03-15T08:02:00Z</time>
      </trkpt>
      <trkpt lat="38.2989460" lon="-0.8114180">
        <ele>415.2</ele>
        <time>2020-03-15T08:02:01Z</time>
      </trkpt>
      <trkpt lat="38.2989480" lon="-0.8115140">
        <ele>414.8</ele>
        <time>2020-03-15T08:02:02Z</time>
      </trkpt>
      <trkpt lat="38.2989480" lon="-0.8116110">
        <ele>414.4</ele>
        <time>2020-03-15T08:02:03Z</time>
      </trkpt>
      <trkpt lat="38.2989460" lon="-0.8117130">
        <ele>414.0</ele>
        <time>2020-03-15T08:02:04Z</time>
      </trkpt>
      <trkpt lat="38.2989450" lon="-0.8117670">
        <ele>413.6</ele>
        <time>2020-03-15T08:02:05Z</time>
      </trkpt>
      <trkpt lat="38.2989440" lon="-0.8118200">
        <ele>413.2</ele>
        <time>2020-03-15T08:02:06Z</time>
      </trkpt>
      <trkpt lat="38.2989410" lon="-0.8119810">
        <ele>412.8</ele>
        <time>2020-03-15T08:02:07Z</time>
      </trkpt>
      <trkpt lat="38.2989400" lon="-0.8120350">
        <ele>412.4</ele>
        <time>2020-03-15T08:02:08Z</time>
      </trkpt>
      <trkpt lat="38.2989390" lon="-0.8121440">
        <ele>412.0</ele>
        <time>2020-03-15T08:02:09Z</time>
      </trkpt>
      <trkpt lat="38.2989380" lon="-0.8123660">
        <ele>411.4</ele>
        <time>2020-03-15T08:02:10Z</time>
      </trkpt>
      <trkpt lat="38.2989380" lon="-0.8124230">
        <ele>410.8</ele>
        <time>2020-03-15T08:02:11Z</time>
      </trkpt>
      <trkpt lat="38.2989380" lon="-0.8124800">
        <ele>410.6</ele>
        <time>2020-03-15T08:02:12Z</time>
      </trkpt>
      <trkpt lat="38.2989350" lon="-0.8126510">
        <ele>410.0</ele>
        <time>2020-03-15T08:02:13Z</time>
      </trkpt>
      <trkpt lat="38.2989320" lon="-0.8127080">
        <ele>409.6</ele>
        <time>2020-03-15T08:02:14Z</time>
      </trkpt>
      <trkpt lat="38.2989260" lon="-0.8128230">
        <ele>408.8</ele>
        <time>2020-03-15T08:02:15Z</time>
      </trkpt>
      <trkpt lat="38.2989230" lon="-0.8129420">
        <ele>408.2</ele>
        <time>2020-03-15T08:02:16Z</time>
      </trkpt>
      <trkpt lat="38.2989370" lon="-0.8131850">
        <ele>407.6</ele>
        <time>2020-03-15T08:02:17Z</time>
      </trkpt>
      <trkpt lat="38.2989510" lon="-0.8133090">
        <ele>407.0</ele>
        <time>2020-03-15T08:02:18Z</time>
      </trkpt>
      <trkpt lat="38.2989610" lon="-0.8133740">
        <ele>406.2</ele>
        <time>2020-03-15T08:02:19Z</time>
      </trkpt>
      <trkpt lat="38.2989710" lon="-0.8134400">
        <ele>405.2</ele>
        <time>2020-03-15T08:02:20Z</time>
      </trkpt>
      <trkpt lat="38.2989920" lon="-0.8135700">
        <ele>404.6</ele>
        <time>2020-03-15T08:02:21Z</time>
      </trkpt>
      <trkpt lat="38.2990270" lon="-0.8137690">
        <ele>403.4</ele>
        <time>2020-03-15T08:02:22Z</time>
      </trkpt>
      <trkpt lat="38.2990420" lon="-0.8138370">
        <ele>402.6</ele>
        <time>2020-03-15T08:02:23Z</time>
      </trkpt>
      <trkpt lat="38.2990870" lon="-0.8140400">
        <ele>402.0</ele>
        <time>2020-03-15T08:02:24Z</time>
      </trkpt>
      <trkpt lat="38.2991020" lon="-0.8141080">
        <ele>401.4</ele>
        <time>2020-03-15T08:02:25Z</time>
      </trkpt>
      <trkpt lat="38.2991610" lon="-0.8143360">
        <ele>401.0</ele>
        <time>2020-03-15T08:02:26Z</time>
      </trkpt>
      <trkpt lat="38.2991890" lon="-0.8144290">
        <ele>400.8</ele>
        <time>2020-03-15T08:02:27Z</time>
      </trkpt>
      <trkpt lat="38.2992460" lon="-0.8146150">
        <ele>400.6</ele>
        <time>2020-03-15T08:02:28Z</time>
      </trkpt>
      <trkpt lat="38.2992980" lon="-0.8147250">
        <ele>400.4</ele>
        <time>2020-03-15T08:02:29Z</time>
      </trkpt>
      <trkpt lat="38.2993510" lon="-0.8148300">
        <ele>400.2</ele>
        <time>2020-03-15T08:02:30Z</time>
      </trkpt>
      <trkpt lat="38.2994030" lon="-0.8149320">
        <ele>400.2</ele>
        <time>2020-03-15T08:02:31Z</time>
      </trkpt>
      <trkpt lat="38.2994550" lon="-0.8150300">
        <ele>400.2</ele>
        <time>2020-03-15T08:02:32Z</time>
      </trkpt>
      <trkpt lat="38.2995050" lon="-0.8151240">
        <ele>400.0</ele>
        <time>2020-03-15T08:02:33Z</time>
      </trkpt>
      <trkpt lat="38.2995410" lon="-0.8151900">
        <ele>399.8</ele>
        <time>2020-03-15T08:02:34Z</time>
      </trkpt>
      <trkpt lat="38.2995770" lon="-0.8152570">
        <ele>399.6</ele>
        <time>2020-03-15T08:02:35Z</time>
      </trkpt>
      <trkpt lat="38.2996480" lon="-0.8153900">
        <ele>399.8</ele>
        <time>2020-03-15T08:02:36Z</time>
      </trkpt>
      <trkpt lat="38.2996800" lon="-0.8154510">
        <ele>399.8</ele>
        <time>2020-03-15T08:02:37Z</time>
      </trkpt>
      <trkpt lat="38.2997120" lon="-0.8155120">
        <ele>399.8</ele>
        <time>2020-03-15T08:02:38Z</time>
      </trkpt>
      <trkpt lat="38.2997750" lon="-0.8156350">
        <ele>399.8</ele>
        <time>2020-03-15T08:02:39Z</time>
      </trkpt>
      <trkpt lat="38.2998170" lon="-0.8157100">
        <ele>399.8</ele>
        <time>2020-03-15T08:02:40Z</time>
      </trkpt>
      <trkpt lat="38.2998380" lon="-0.8157480">
        <ele>399.8</ele>
        <time>2020-03-15T08:02:41Z</time>
      </trkpt>
      <trkpt lat="38.2998580" lon="-0.8157860">
        <ele>399.8</ele>
        <time>2020-03-15T08:02:42Z</time>
      </trkpt>
      <trkpt lat="38.2999220" lon="-0.8158970">
        <ele>399.8</ele>
        <time>2020-03-15T08:02:43Z</time>
      </trkpt>
      <trkpt lat="38.2999450" lon="-0.8159320">
        <ele>399.8</ele>
        <time>2020-03-15T08:02:44Z</time>
      </trkpt>
      <trkpt lat="38.3000490" lon="-0.8160370">
        <ele>400.0</ele>
        <time>2020-03-15T08:02:45Z</time>
      </trkpt>
      <trkpt lat="38.3001070" lon="-0.8160670">
        <ele>400.0</ele>
        <time>2020-03-15T08:02:47Z</time>
      </trkpt>
      <trkpt lat="38.3001520" lon="-0.8161120">
        <ele>400.2</ele>
        <time>2020-03-15T08:02:48Z</time>
      </trkpt>
      <trkpt lat="38.3001830" lon="-0.8161720">
        <ele>399.8</ele>
        <time>2020-03-15T08:02:49Z</time>
      </trkpt>
      <trkpt lat="38.3002000" lon="-0.8162420">
        <ele>400.0</ele>
        <time>2020-03-15T08:02:50Z</time>
      </trkpt>
      <trkpt lat="38.3001870" lon="-0.8163890">
        <ele>400.0</ele>
        <time>2020-03-15T08:02:51Z</time>
      </trkpt>
      <trkpt lat="38.3001760" lon="-0.8164620">
        <ele>400.2</ele>
        <time>2020-03-15T08:02:52Z</time>
      </trkpt>
      <trkpt lat="38.3001710" lon="-0.8165010">
        <ele>400.0</ele>
        <time>2020-03-15T08:02:53Z</time>
      </trkpt>
      <trkpt lat="38.3001660" lon="-0.8165390">
        <ele>400.2</ele>
        <time>2020-03-15T08:02:54Z</time>
      </trkpt>
      <trkpt lat="38.3001500" lon="-0.8166720">
        <ele>400.2</ele>
        <time>2020-03-15T08:02:55Z</time>
      </trkpt>
      <trkpt lat="38.3001440" lon="-0.8167290">
        <ele>400.4</ele>
        <time>2020-03-15T08:02:56Z</time>
      </trkpt>
      <trkpt lat="38.3001320" lon="-0.8168420">
        <ele>400.4</ele>
        <time>2020-03-15T08:02:57Z</time>
      </trkpt>
      <trkpt lat="38.3001270" lon="-0.8169000">
        <ele>400.4</ele>
        <time>2020-03-15T08:02:58Z</time>
      </trkpt>
      <trkpt lat="38.3001210" lon="-0.8169570">
        <ele>400.6</ele>
        <time>2020-03-15T08:02:59Z</time>
      </trkpt>
      <trkpt lat="38.3001100" lon="-0.8170720">
        <ele>400.6</ele>
        <time>2020-03-15T08:03:00Z</time>
      </trkpt>
      <trkpt lat="38.3001080" lon="-0.8171120">
        <ele>400.6</ele>
        <time>2020-03-15T08:03:01Z</time>
      </trkpt>
      <trkpt lat="38.3001050" lon="-0.8171510">
        <ele>400.6</ele>
        <time>2020-03-15T08:03:02Z</time>
      </trkpt>
      <trkpt lat="38.3000980" lon="-0.8172730">
        <ele>400.6</ele>
        <time>2020-03-15T08:03:03Z</time>
      </trkpt>
      <trkpt lat="38.3000970" lon="-0.8173150">
        <ele>400.8</ele>
        <time>2020-03-15T08:03:04Z</time>
      </trkpt>
      <trkpt lat="38.3000950" lon="-0.8173910">
        <ele>400.6</ele>
        <time>2020-03-15T08:03:05Z</time>
      </trkpt>
      <trkpt lat="38.3000980" lon="-0.8174650">
        <ele>400.4</ele>
        <time>2020-03-15T08:03:06Z</time>
      </trkpt>
      <trkpt lat="38.3001100" lon="-0.8176300">
        <ele>399.8</ele>
        <time>2020-03-15T08:03:07Z</time>
      </trkpt>
      <trkpt lat="38.3001140" lon="-0.8176860">
        <ele>398.4</ele>
        <time>2020-03-15T08:03:08Z</time>
      </trkpt>
      <trkpt lat="38.3001170" lon="-0.8177420">
        <ele>396.8</ele>
        <time>2020-03-15T08:03:09Z</time>
      </trkpt>
      <trkpt lat="38.3001280" lon="-0.8179240">
        <ele>394.4</ele>
        <time>2020-03-15T08:03:10Z</time>
      </trkpt>
      <trkpt lat="38.3001310" lon="-0.8179940">
        <ele>392.4</ele>
        <time>2020-03-15T08:03:11Z</time>
      </trkpt>
      <trkpt lat="38.3001310" lon="-0.8182410">
        <ele>390.2</ele>
        <time>2020-03-15T08:03:12Z</time>
      </trkpt>
      <trkpt lat="38.3001230" lon="-0.8183470">
        <ele>388.4</ele>
        <time>2020-03-15T08:03:13Z</time>
      </trkpt>
      <trkpt lat="38.3001080" lon="-0.8185600">
        <ele>386.6</ele>
        <time>2020-03-15T08:03:14Z</time>
      </trkpt>
      <trkpt lat="38.3000980" lon="-0.8186210">
        <ele>385.4</ele>
        <time>2020-03-15T08:03:15Z</time>
      </trkpt>
      <trkpt lat="38.3000880" lon="-0.8186810">
        <ele>384.6</ele>
        <time>2020-03-15T08:03:16Z</time>
      </trkpt>
      <trkpt lat="38.3000140" lon="-0.8189040">
        <ele>384.2</ele>
        <time>2020-03-15T08:03:17Z</time>
      </trkpt>
      <trkpt lat="38.2999700" lon="-0.8190060">
        <ele>384.2</ele>
        <time>2020-03-15T08:03:18Z</time>
      </trkpt>
      <trkpt lat="38.2999530" lon="-0.8190540">
        <ele>384.2</ele>
        <time>2020-03-15T08:03:19Z</time>
      </trkpt>
      <trkpt lat="38.2999360" lon="-0.8191010">
        <ele>384.8</ele>
        <time>2020-03-15T08:03:20Z</time>
      </trkpt>
      <trkpt lat="38.2998890" lon="-0.8192370">
        <ele>385.0</ele>
        <time>2020-03-15T08:03:21Z</time>
      </trkpt>
      <trkpt lat="38.2998760" lon="-0.8192780">
        <ele>385.2</ele>
        <time>2020-03-15T08:03:22Z</time>
      </trkpt>
      <trkpt lat="38.2998280" lon="-0.8194120">
        <ele>385.4</ele>
        <time>2020-03-15T08:03:23Z</time>
      </trkpt>
      <trkpt lat="38.2998060" lon="-0.8194640">
        <ele>385.6</ele>
        <time>2020-03-15T08:03:24Z</time>
      </trkpt>
      <trkpt lat="38.2997620" lon="-0.8195670">
        <ele>386.0</ele>
        <time>2020-03-15T08:03:25Z</time>
      </trkpt>
      <trkpt lat="38.2997460" lon="-0.8195930">
        <ele>386.4</ele>
        <time>2020-03-15T08:03:26Z</time>
      </trkpt>
      <trkpt lat="38.2997300" lon="-0.8196180">
        <ele>386.6</ele>
        <time>2020-03-15T08:03:27Z</time>
      </trkpt>
      <trkpt lat="38.2996850" lon="-0.8196920">
        <ele>386.8</ele>
        <time>2020-03-15T08:03:28Z</time>
      </trkpt>
      <trkpt lat="38.2996720" lon="-0.8197140">
        <ele>387.2</ele>
        <time>2020-03-15T08:03:29Z</time>
      </trkpt>
      <trkpt lat="38.2996490" lon="-0.8197540">
        <ele>387.8</ele>
        <time>2020-03-15T08:03:30Z</time>
      </trkpt>
      <trkpt lat="38.2996090" lon="-0.8198190">
        <ele>388.2</ele>
        <time>2020-03-15T08:03:31Z</time>
      </trkpt>
      <trkpt lat="38.2995910" lon="-0.8198500">
        <ele>388.8</ele>
        <time>2020-03-15T08:03:32Z</time>
      </trkpt>
      <trkpt lat="38.2995910" lon="-0.8198500">
        <ele>389.2</ele>
        <time>2020-03-15T08:03:33Z</time>
      </trkpt>
      <trkpt lat="38.2995410" lon="-0.8199320">
        <ele>390.0</ele>
        <time>2020-03-15T08:03:35Z</time>
      </trkpt>
      <trkpt lat="38.2995230" lon="-0.8199570">
        <ele>390.4</ele>
        <time>2020-03-15T08:03:36Z</time>
      </trkpt>
      <trkpt lat="38.2995050" lon="-0.8199800">
        <ele>390.8</ele>
        <time>2020-03-15T08:03:37Z</time>
      </trkpt>
      <trkpt lat="38.2994870" lon="-0.8200030">
        <ele>391.2</ele>
        <time>2020-03-15T08:03:38Z</time>
      </trkpt>
      <trkpt lat="38.2994700" lon="-0.8200250">
        <ele>391.8</ele>
        <time>2020-03-15T08:03:39Z</time>
      </trkpt>
      <trkpt lat="38.2994580" lon="-0.8200500">
        <ele>392.2</ele>
        <time>2020-03-15T08:03:40Z</time>
      </trkpt>
      <trkpt lat="38.2994450" lon="-0.8200740">
        <ele>392.6</ele>
        <time>2020-03-15T08:03:41Z</time>
      </trkpt>
      <trkpt lat="38.2994290" lon="-0.8200980">
        <ele>392.8</ele>
        <time>2020-03-15T08:03:42Z</time>
      </trkpt>
      <trkpt lat="38.2994100" lon="-0.8201190">
        <ele>393.2</ele>
        <time>2020-03-15T08:03:43Z</time>
      </trkpt>
      <trkpt lat="38.2993910" lon="-0.8201400">
        <ele>393.6</ele>
        <time>2020-03-15T08:03:44Z</time>
      </trkpt>
      <trkpt lat="38.2993710" lon="-0.8201610">
        <ele>394.0</ele>
        <time>2020-03-15T08:03:45Z</time>
      </trkpt>
      <trkpt lat="38.2993520" lon="-0.8201820">
        <ele>394.2</ele>
        <time>2020-03-15T08:03:46Z</time>
      </trkpt>
      <trkpt lat="38.2993320" lon="-0.8202030">
        <ele>394.6</ele>
        <time>2020-03-15T08:03:47Z</time>
      </trkpt>
      <trkpt lat="38.2993320" lon="-0.8202030">
        <ele>394.8</ele>
        <time>2020-03-15T08:03:48Z</time>
      </trkpt>
      <trkpt lat="38.2993110" lon="-0.8202250">
        <ele>395.2</ele>
        <time>2020-03-15T08:03:49Z</time>
      </trkpt>
      <trkpt lat="38.2992700" lon="-0.8202760">
        <ele>395.6</ele>
        <time>2020-03-15T08:03:50Z</time>
      </trkpt>
      <trkpt lat="38.2992700" lon="-0.8202760">
        <ele>396.0</ele>
        <time>2020-03-15T08:03:51Z</time>
      </trkpt>
      <trkpt lat="38.2992520" lon="-0.8203010">
        <ele>396.2</ele>
        <time>2020-03-15T08:03:52Z</time>
      </trkpt>
      <trkpt lat="38.2992160" lon="-0.8203450">
        <ele>396.4</ele>
        <time>2020-03-15T08:03:53Z</time>
      </trkpt>
      <trkpt lat="38.2992010" lon="-0.8203670">
        <ele>396.6</ele>
        <time>2020-03-15T08:03:54Z</time>
      </trkpt>
      <trkpt lat="38.2991850" lon="-0.8203880">
        <ele>396.8</ele>
        <time>2020-03-15T08:03:55Z</time>
      </trkpt>
      <trkpt lat="38.2991700" lon="-0.8204070">
        <ele>397.0</ele>
        <time>2020-03-15T08:03:56Z</time>
      </trkpt>
      <trkpt lat="38.2991550" lon="-0.8204250">
        <ele>397.4</ele>
        <time>2020-03-15T08:03:57Z</time>
      </trkpt>
      <trkpt lat="38.2991410" lon="-0.8204430">
        <ele>397.8</ele>
        <time>2020-03-15T08:03:58Z</time>
      </trkpt>
      <trkpt lat="38.2991240" lon="-0.8204590">
        <ele>398.0</ele>
        <time>2020-03-15T08:03:59Z</time>
      </trkpt>
      <trkpt lat="38.2991070" lon="-0.8204750">
        <ele>398.4</ele>
        <time>2020-03-15T08:04:00Z</time>
      </trkpt>
      <trkpt lat="38.2990900" lon="-0.8204920">
        <ele>398.8</ele>
        <time>2020-03-15T08:04:01Z</time>
      </trkpt>
      <trkpt lat="38.2990720" lon="-0.8205090">
        <ele>399.0</ele>
        <time>2020-03-15T08:04:02Z</time>
      </trkpt>
      <trkpt lat="38.2990720" lon="-0.8205090">
        <ele>399.2</ele>
        <time>2020-03-15T08:04:03Z</time>
      </trkpt>
      <trkpt lat="38.2990550" lon="-0.8205260">
        <ele>399.6</ele>
        <time>2020-03-15T08:04:04Z</time>
      </trkpt>
      <trkpt lat="38.2990210" lon="-0.8205590">
        <ele>399.8</ele>
        <time>2020-03-15T08:04:05Z</time>
      </trkpt>
      <trkpt lat="38.2990040" lon="-0.8205740">
        <ele>400.2</ele>
        <time>2020-03-15T08:04:06Z</time>
      </trkpt>
      <trkpt lat="38.2989880" lon="-0.8205870">
        <ele>400.6</ele>
        <time>2020-03-15T08:04:07Z</time>
      </trkpt>
      <trkpt lat="38.2989710" lon="-0.8205990">
        <ele>400.8</ele>
        <time>2020-03-15T08:04:08Z</time>
      </trkpt>
      <trkpt lat="38.2989550" lon="-0.8206130">
        <ele>401.0</ele>
        <time>2020-03-15T08:04:09Z</time>
      </trkpt>
      <trkpt lat="38.2989370" lon="-0.8206270">
        <ele>401.4</ele>
        <time>2020-03-15T08:04:10Z</time>
      </trkpt>
      <trkpt lat="38.2989190" lon="-0.8206410">
        <ele>401.6</ele>
        <time>2020-03-15T08:04:11Z</time>
      </trkpt>
      <trkpt lat="38.2989010" lon="-0.8206550">
        <ele>402.0</ele>
        <time>2020-03-15T08:04:12Z</time>
      </trkpt>
      <trkpt lat="38.2988840" lon="-0.8206700">
        <ele>402.0</ele>
        <time>2020-03-15T08:04:13Z</time>
      </trkpt>
      <trkpt lat="38.2988660" lon="-0.8206850">
        <ele>402.2</ele>
        <time>2020-03-15T08:04:14Z</time>
      </trkpt>
      <trkpt lat="38.2988500" lon="-0.8207050">
        <ele>402.4</ele>
        <time>2020-03-15T08:04:15Z</time>
      </trkpt>
      <trkpt lat="38.2988330" lon="-0.8207250">
        <ele>402.4</ele>
        <time>2020-03-15T08:04:16Z</time>
      </trkpt>
      <trkpt lat="38.2988330" lon="-0.8207250">
        <ele>402.6</ele>
        <time>2020-03-15T08:04:17Z</time>
      </trkpt>
      <trkpt lat="38.2988150" lon="-0.8207430">
        <ele>402.8</ele>
        <time>2020-03-15T08:04:18Z</time>
      </trkpt>
      <trkpt lat="38.2987780" lon="-0.8207780">
        <ele>402.8</ele>
        <time>2020-03-15T08:04:19Z</time>
      </trkpt>
      <trkpt lat="38.2987780" lon="-0.8207780">
        <ele>403.0</ele>
        <time>2020-03-15T08:04:20Z</time>
      </trkpt>
      <trkpt lat="38.2987590" lon="-0.8207950">
        <ele>403.2</ele>
        <time>2020-03-15T08:04:21Z</time>
      </trkpt>
      <trkpt lat="38.2987220" lon="-0.8208370">
        <ele>403.4</ele>
        <time>2020-03-15T08:04:22Z</time>
      </trkpt>
      <trkpt lat="38.2987220" lon="-0.8208370">
        <ele>403.4</ele>
        <time>2020-03-15T08:04:23Z</time>
      </trkpt>
      <trkpt lat="38.2987040" lon="-0.8208590">
        <ele>403.4</ele>
        <time>2020-03-15T08:04:24Z</time>
      </trkpt>
      <trkpt lat="38.2986720" lon="-0.8209060">
        <ele>403.6</ele>
        <time>2020-03-15T08:04:25Z</time>
      </trkpt>
      <trkpt lat="38.2986580" lon="-0.8209320">
        <ele>403.8</ele>
        <time>2020-03-15T08:04:26Z</time>
      </trkpt>
      <trkpt lat="38.2986440" lon="-0.8209580">
        <ele>404.0</ele>
        <time>2020-03-15T08:04:27Z</time>
      </trkpt>
      <trkpt lat="38.2986320" lon="-0.8209860">
        <ele>404.0</ele>
        <time>2020-03-15T08:04:28Z</time>
      </trkpt>
      <trkpt lat="38.2986220" lon="-0.8210130">
        <ele>404.0</ele>
        <time>2020-03-15T08:04:29Z</time>
      </trkpt>
      <trkpt lat="38.2986160" lon="-0.8210420">
        <ele>404.2</ele>
        <time>2020-03-15T08:04:30Z</time>
      </trkpt>
      <trkpt lat="38.2986130" lon="-0.8210750">
        <ele>404.4</ele>
        <time>2020-03-15T08:04:31Z</time>
      </trkpt>
      <trkpt lat="38.2986150" lon="-0.8211070">
        <ele>404.6</ele>
        <time>2020-03-15T08:04:32Z</time>
      </trkpt>
      <trkpt lat="38.2986220" lon="-0.8211380">
        <ele>404.6</ele>
        <time>2020-03-15T08:04:33Z</time>
      </trkpt>
      <trkpt lat="38.2986300" lon="-0.8211700">
        <ele>404.6</ele>
        <time>2020-03-15T08:04:34Z</time>
      </trkpt>
      <trkpt lat="38.2986400" lon="-0.8212050">
        <ele>404.6</ele>
        <time>2020-03-15T08:04:35Z</time>
      </trkpt>
      <trkpt lat="38.2986500" lon="-0.8212430">
        <ele>404.6</ele>
        <time>2020-03-15T08:04:36Z</time>
      </trkpt>
      <trkpt lat="38.2986610" lon="-0.8212810">
        <ele>404.6</ele>
        <time>2020-03-15T08:04:37Z</time>
      </trkpt>
      <trkpt lat="38.2986740" lon="-0.8213250">
        <ele>404.6</ele>
        <time>2020-03-15T08:04:38Z</time>
      </trkpt>
      <trkpt lat="38.2986860" lon="-0.8213690">
        <ele>404.4</ele>
        <time>2020-03-15T08:04:39Z</time>
      </trkpt>
      <trkpt lat="38.2986970" lon="-0.8214240">
        <ele>404.4</ele>
        <time>2020-03-15T08:04:40Z</time>
      </trkpt>
      <trkpt lat="38.2987080" lon="-0.8214830">
        <ele>404.2</ele>
        <time>2020-03-15T08:04:41Z</time>
      </trkpt>
      <trkpt lat="38.2987160" lon="-0.8215440">
        <ele>404.2</ele>
        <time>2020-03-15T08:04:42Z</time>
      </trkpt>
      <trkpt lat="38.2987190" lon="-0.8215750">
        <ele>404.0</ele>
        <time>2020-03-15T08:04:43Z</time>
      </trkpt>
      <trkpt lat="38.2987220" lon="-0.8216070">
        <ele>404.0</ele>
        <time>2020-03-15T08:04:44Z</time>
      </trkpt>
      <trkpt lat="38.2987310" lon="-0.8217180">
        <ele>404.2</ele>
        <time>2020-03-15T08:04:45Z</time>
      </trkpt>
      <trkpt lat="38.2987340" lon="-0.8217660">
        <ele>404.2</ele>
        <time>2020-03-15T08:04:46Z</time>
      </trkpt>
      <trkpt lat="38.2987400" lon="-0.8218630">
        <ele>404.2</ele>
        <time>2020-03-15T08:04:47Z</time>
      </trkpt>
      <trkpt lat="38.2987450" lon="-0.8219110">
        <ele>404.4</ele>
        <time>2020-03-15T08:04:48Z</time>
      </trkpt>
      <trkpt lat="38.2987500" lon="-0.8219590">
        <ele>404.4</ele>
        <time>2020-03-15T08:04:49Z</time>
      </trkpt>
      <trkpt lat="38.2987590" lon="-0.8220560">
        <ele>404.4</ele>
        <time>2020-03-15T08:04:50Z</time>
      </trkpt>
      <trkpt lat="38.2987660" lon="-0.8221180">
        <ele>404.6</ele>
        <time>2020-03-15T08:04:51Z</time>
      </trkpt>
      <trkpt lat="38.2987730" lon="-0.8221800">
        <ele>404.8</ele>
        <time>2020-03-15T08:04:52Z</time>
      </trkpt>
      <trkpt lat="38.2987800" lon="-0.8222380">
        <ele>405.0</ele>
        <time>2020-03-15T08:04:53Z</time>
      </trkpt>
      <trkpt lat="38.2987870" lon="-0.8222970">
        <ele>405.2</ele>
        <time>2020-03-15T08:04:54Z</time>
      </trkpt>
      <trkpt lat="38.2987950" lon="-0.8223500">
        <ele>405.4</ele>
        <time>2020-03-15T08:04:55Z</time>
      </trkpt>
      <trkpt lat="38.2988030" lon="-0.8224040">
        <ele>405.4</ele>
        <time>2020-03-15T08:04:56Z</time>
      </trkpt>
      <trkpt lat="38.2988100" lon="-0.8224540">
        <ele>405.8</ele>
        <time>2020-03-15T08:04:57Z</time>
      </trkpt>
      <trkpt lat="38.2988180" lon="-0.8225050">
        <ele>405.8</ele>
        <time>2020-03-15T08:04:58Z</time>
      </trkpt>
      <trkpt lat="38.2988290" lon="-0.8225560">
        <ele>405.8</ele>
        <time>2020-03-15T08:04:59Z</time>
      </trkpt>
      <trkpt lat="38.2988400" lon="-0.8226070">
        <ele>405.8</ele>
        <time>2020-03-15T08:05:00Z</time>
      </trkpt>
      <trkpt lat="38.2988540" lon="-0.8226510">
        <ele>405.8</ele>
        <time>2020-03-15T08:05:01Z</time>
      </trkpt>
      <trkpt lat="38.2988670" lon="-0.8226960">
        <ele>405.8</ele>
        <time>2020-03-15T08:05:02Z</time>
      </trkpt>
      <trkpt lat="38.2988770" lon="-0.8227280">
        <ele>405.8</ele>
        <time>2020-03-15T08:05:03Z</time>
      </trkpt>
      <trkpt lat="38.2988800" lon="-0.8227930">
        <ele>405.8</ele>
        <time>2020-03-15T08:05:06Z</time>
      </trkpt>
      <trkpt lat="38.2988750" lon="-0.8228630">
        <ele>405.8</ele>
        <time>2020-03-15T08:05:08Z</time>
      </trkpt>
      <trkpt lat="38.2988700" lon="-0.8229520">
        <ele>406.0</ele>
        <time>2020-03-15T08:05:10Z</time>
      </trkpt>
      <trkpt lat="38.2988680" lon="-0.8230020">
        <ele>406.0</ele>
        <time>2020-03-15T08:05:12Z</time>
      </trkpt>
      <trkpt lat="38.2988650" lon="-0.8230540">
        <ele>406.2</ele>
        <time>2020-03-15T08:05:13Z</time>
      </trkpt>
      <trkpt lat="38.2988610" lon="-0.8231050">
        <ele>406.4</ele>
        <time>2020-03-15T08:05:14Z</time>
      </trkpt>
      <trkpt lat="38.2988580" lon="-0.8231600">
        <ele>406.6</ele>
        <time>2020-03-15T08:05:15Z</time>
      </trkpt>
      <trkpt lat="38.2988450" lon="-0.8232650">
        <ele>406.6</ele>
        <time>2020-03-15T08:05:17Z</time>
      </trkpt>
      <trkpt lat="38.2988350" lon="-0.8233070">
        <ele>407.2</ele>
        <time>2020-03-15T08:05:18Z</time>
      </trkpt>
      <trkpt lat="38.2988210" lon="-0.8233990">
        <ele>407.4</ele>
        <time>2020-03-15T08:05:20Z</time>
      </trkpt>
      <trkpt lat="38.2988090" lon="-0.8234910">
        <ele>407.8</ele>
        <time>2020-03-15T08:05:21Z</time>
      </trkpt>
      <trkpt lat="38.2988050" lon="-0.8235410">
        <ele>408.0</ele>
        <time>2020-03-15T08:05:22Z</time>
      </trkpt>
      <trkpt lat="38.2988030" lon="-0.8235900">
        <ele>408.2</ele>
        <time>2020-03-15T08:05:23Z</time>
      </trkpt>
      <trkpt lat="38.2988040" lon="-0.8236350">
        <ele>408.4</ele>
        <time>2020-03-15T08:05:24Z</time>
      </trkpt>
      <trkpt lat="38.2987930" lon="-0.8237270">
        <ele>409.0</ele>
        <time>2020-03-15T08:05:26Z</time>
      </trkpt>
      <trkpt lat="38.2987670" lon="-0.8238060">
        <ele>409.6</ele>
        <time>2020-03-15T08:05:28Z</time>
      </trkpt>
      <trkpt lat="38.2987520" lon="-0.8238460">
        <ele>409.8</ele>
        <time>2020-03-15T08:05:29Z</time>
      </trkpt>
      <trkpt lat="38.2987390" lon="-0.8238910">
        <ele>410.0</ele>
        <time>2020-03-15T08:05:30Z</time>
      </trkpt>
      <trkpt lat="38.2987210" lon="-0.8239410">
        <ele>410.0</ele>
        <time>2020-03-15T08:05:31Z</time>
      </trkpt>
      <trkpt lat="38.2987000" lon="-0.8239850">
        <ele>410.2</ele>
        <time>2020-03-15T08:05:32Z</time>
      </trkpt>
      <trkpt lat="38.2986750" lon="-0.8240310">
        <ele>410.4</ele>
        <time>2020-03-15T08:05:33Z</time>
      </trkpt>
      <trkpt lat="38.2986490" lon="-0.8240790">
        <ele>410.4</ele>
        <time>2020-03-15T08:05:34Z</time>
      </trkpt>
      <trkpt lat="38.2986220" lon="-0.8241260">
        <ele>410.4</ele>
        <time>2020-03-15T08:05:35Z</time>
      </trkpt>
      <trkpt lat="38.2985970" lon="-0.8241750">
        <ele>410.6</ele>
        <time>2020-03-15T08:05:36Z</time>
      </trkpt>
      <trkpt lat="38.2985800" lon="-0.8242270">
        <ele>410.6</ele>
        <time>2020-03-15T08:05:37Z</time>
      </trkpt>
      <trkpt lat="38.2985660" lon="-0.8242770">
        <ele>411.0</ele>
        <time>2020-03-15T08:05:38Z</time>
      </trkpt>
      <trkpt lat="38.2985570" lon="-0.8243310">
        <ele>411.2</ele>
        <time>2020-03-15T08:05:40Z</time>
      </trkpt>
      <trkpt lat="38.2985560" lon="-0.8244370">
        <ele>411.6</ele>
        <time>2020-03-15T08:05:41Z</time>
      </trkpt>
      <trkpt lat="38.2985560" lon="-0.8244370">
        <ele>411.6</ele>
        <time>2020-03-15T08:05:42Z</time>
      </trkpt>
      <trkpt lat="38.2985790" lon="-0.8245920">
        <ele>412.2</ele>
        <time>2020-03-15T08:05:44Z</time>
      </trkpt>
      <trkpt lat="38.2985880" lon="-0.8246410">
        <ele>412.8</ele>
        <time>2020-03-15T08:05:46Z</time>
      </trkpt>
      <trkpt lat="38.2985920" lon="-0.8247410">
        <ele>413.2</ele>
        <time>2020-03-15T08:05:48Z</time>
      </trkpt>
      <trkpt lat="38.2985820" lon="-0.8248900">
        <ele>413.6</ele>
        <time>2020-03-15T08:05:50Z</time>
      </trkpt>
      <trkpt lat="38.2985710" lon="-0.8249890">
        <ele>414.0</ele>
        <time>2020-03-15T08:05:52Z</time>
      </trkpt>
      <trkpt lat="38.2985610" lon="-0.8250390">
        <ele>414.2</ele>
        <time>2020-03-15T08:05:54Z</time>
      </trkpt>
      <trkpt lat="38.2985540" lon="-0.8250910">
        <ele>414.2</ele>
        <time>2020-03-15T08:05:55Z</time>
      </trkpt>
      <trkpt lat="38.2985400" lon="-0.8251930">
        <ele>414.6</ele>
        <time>2020-03-15T08:05:56Z</time>
      </trkpt>
      <trkpt lat="38.2985320" lon="-0.8252460">
        <ele>414.8</ele>
        <time>2020-03-15T08:05:57Z</time>
      </trkpt>
      <trkpt lat="38.2985160" lon="-0.8253560">
        <ele>414.8</ele>
        <time>2020-03-15T08:05:59Z</time>
      </trkpt>
      <trkpt lat="38.2985080" lon="-0.8254110">
        <ele>415.0</ele>
        <time>2020-03-15T08:06:00Z</time>
      </trkpt>
      <trkpt lat="38.2985000" lon="-0.8254680">
        <ele>415.0</ele>
        <time>2020-03-15T08:06:01Z</time>
      </trkpt>
      <trkpt lat="38.2985000" lon="-0.8254680">
        <ele>415.2</ele>
        <time>2020-03-15T08:06:02Z</time>
      </trkpt>
      <trkpt lat="38.2984740" lon="-0.8255790">
        <ele>415.4</ele>
        <time>2020-03-15T08:06:04Z</time>
      </trkpt>
      <trkpt lat="38.2984350" lon="-0.8256830">
        <ele>415.8</ele>
        <time>2020-03-15T08:06:05Z</time>
      </trkpt>
      <trkpt lat="38.2984090" lon="-0.8257350">
        <ele>415.8</ele>
        <time>2020-03-15T08:06:06Z</time>
      </trkpt>
      <trkpt lat="38.2983870" lon="-0.8257900">
        <ele>416.0</ele>
        <time>2020-03-15T08:06:07Z</time>
      </trkpt>
      <trkpt lat="38.2983770" lon="-0.8258210">
        <ele>416.0</ele>
        <time>2020-03-15T08:06:08Z</time>
      </trkpt>
      <trkpt lat="38.2983660" lon="-0.8258510">
        <ele>416.0</ele>
        <time>2020-03-15T08:06:09Z</time>
      </trkpt>
      <trkpt lat="38.2983330" lon="-0.8259410">
        <ele>416.0</ele>
        <time>2020-03-15T08:06:10Z</time>
      </trkpt>
      <trkpt lat="38.2983200" lon="-0.8259700">
        <ele>416.0</ele>
        <time>2020-03-15T08:06:11Z</time>
      </trkpt>
      <trkpt lat="38.2982690" lon="-0.8260890">
        <ele>416.2</ele>
        <time>2020-03-15T08:06:12Z</time>
      </trkpt>
      <trkpt lat="38.2982440" lon="-0.8261490">
        <ele>416.6</ele>
        <time>2020-03-15T08:06:14Z</time>
      </trkpt>
      <trkpt lat="38.2981760" lon="-0.8263270">
        <ele>416.8</ele>
        <time>2020-03-15T08:06:16Z</time>
      </trkpt>
      <trkpt lat="38.2981570" lon="-0.8263820">
        <ele>417.0</ele>
        <time>2020-03-15T08:06:17Z</time>
      </trkpt>
      <trkpt lat="38.2981400" lon="-0.8264370">
        <ele>417.4</ele>
        <time>2020-03-15T08:06:18Z</time>
      </trkpt>
      <trkpt lat="38.2981180" lon="-0.8265260">
        <ele>418.2</ele>
        <time>2020-03-15T08:06:20Z</time>
      </trkpt>
      <trkpt lat="38.2981110" lon="-0.8265690">
        <ele>418.6</ele>
        <time>2020-03-15T08:06:21Z</time>
      </trkpt>
      <trkpt lat="38.2981140" lon="-0.8266050">
        <ele>419.0</ele>
        <time>2020-03-15T08:06:22Z</time>
      </trkpt>
      <trkpt lat="38.2981650" lon="-0.8266940">
        <ele>418.6</ele>
        <time>2020-03-15T08:06:24Z</time>
      </trkpt>
      <trkpt lat="38.2982120" lon="-0.8267190">
        <ele>418.0</ele>
        <time>2020-03-15T08:06:25Z</time>
      </trkpt>
      <trkpt lat="38.2982580" lon="-0.8267440">
        <ele>417.4</ele>
        <time>2020-03-15T08:06:26Z</time>
      </trkpt>
      <trkpt lat="38.2983500" lon="-0.8267940">
        <ele>416.8</ele>
        <time>2020-03-15T08:06:27Z</time>
      </trkpt>
      <trkpt lat="38.2984290" lon="-0.8268130">
        <ele>415.6</ele>
        <time>2020-03-15T08:06:28Z</time>
      </trkpt>
      <trkpt lat="38.2986120" lon="-0.8268710">
        <ele>413.0</ele>
        <time>2020-03-15T08:06:30Z</time>
      </trkpt>
      <trkpt lat="38.2987160" lon="-0.8269060">
        <ele>411.2</ele>
        <time>2020-03-15T08:06:31Z</time>
      </trkpt>
      <trkpt lat="38.2988200" lon="-0.8269410">
        <ele>409.4</ele>
        <time>2020-03-15T08:06:33Z</time>
      </trkpt>
      <trkpt lat="38.2989240" lon="-0.8269750">
        <ele>405.2</ele>
        <time>2020-03-15T08:06:34Z</time>
      </trkpt>
      <trkpt lat="38.2991260" lon="-0.8270450">
        <ele>403.6</ele>
        <time>2020-03-15T08:06:36Z</time>
      </trkpt>
      <trkpt lat="38.2992240" lon="-0.8270760">
        <ele>400.8</ele>
        <time>2020-03-15T08:06:37Z</time>
      </trkpt>
      <trkpt lat="38.2993780" lon="-0.8271240">
        <ele>399.2</ele>
        <time>2020-03-15T08:06:38Z</time>
      </trkpt>
      <trkpt lat="38.2995320" lon="-0.8271730">
        <ele>398.2</ele>
        <time>2020-03-15T08:06:39Z</time>
      </trkpt>
      <trkpt lat="38.2996380" lon="-0.8272130">
        <ele>396.8</ele>
        <time>2020-03-15T08:06:40Z</time>
      </trkpt>
      <trkpt lat="38.2997450" lon="-0.8272510">
        <ele>395.6</ele>
        <time>2020-03-15T08:06:41Z</time>
      </trkpt>
      <trkpt lat="38.2998520" lon="-0.8272870">
        <ele>394.8</ele>
        <time>2020-03-15T08:06:42Z</time>
      </trkpt>
      <trkpt lat="38.2999590" lon="-0.8273200">
        <ele>394.4</ele>
        <time>2020-03-15T08:06:43Z</time>
      </trkpt>
      <trkpt lat="38.3000630" lon="-0.8273520">
        <ele>393.8</ele>
        <time>2020-03-15T08:06:44Z</time>
      </trkpt>
      <trkpt lat="38.3001620" lon="-0.8273800">
        <ele>393.2</ele>
        <time>2020-03-15T08:06:45Z</time>
      </trkpt>
      <trkpt lat="38.3002410" lon="-0.8274000">
        <ele>391.8</ele>
        <time>2020-03-15T08:06:47Z</time>
      </trkpt>
      <trkpt lat="38.3003300" lon="-0.8274680">
        <ele>391.4</ele>
        <time>2020-03-15T08:06:48Z</time>
      </trkpt>
      <trkpt lat="38.3003460" lon="-0.8275250">
        <ele>391.4</ele>
        <time>2020-03-15T08:06:49Z</time>
      </trkpt>
      <trkpt lat="38.3003560" lon="-0.8275860">
        <ele>391.4</ele>
        <time>2020-03-15T08:06:50Z</time>
      </trkpt>
      <trkpt lat="38.3003640" lon="-0.8276570">
        <ele>391.2</ele>
        <time>2020-03-15T08:06:51Z</time>
      </trkpt>
      <trkpt lat="38.3003740" lon="-0.8277300">
        <ele>391.4</ele>
        <time>2020-03-15T08:06:52Z</time>
      </trkpt>
      <trkpt lat="38.3004020" lon="-0.8278840">
        <ele>391.2</ele>
        <time>2020-03-15T08:06:54Z</time>
      </trkpt>
      <trkpt lat="38.3004220" lon="-0.8279670">
        <ele>390.8</ele>
        <time>2020-03-15T08:06:56Z</time>
      </trkpt>
      <trkpt lat="38.3004450" lon="-0.8280540">
        <ele>390.0</ele>
        <time>2020-03-15T08:06:57Z</time>
      </trkpt>
      <trkpt lat="38.3005200" lon="-0.8282200">
        <ele>389.6</ele>
        <time>2020-03-15T08:06:58Z</time>
      </trkpt>
      <trkpt lat="38.3005490" lon="-0.8282510">
        <ele>389.0</ele>
        <time>2020-03-15T08:06:59Z</time>
      </trkpt>
      <trkpt lat="38.3005780" lon="-0.8282820">
        <ele>388.4</ele>
        <time>2020-03-15T08:07:00Z</time>
      </trkpt>
      <trkpt lat="38.3006950" lon="-0.8284050">
        <ele>388.0</ele>
        <time>2020-03-15T08:07:02Z</time>
      </trkpt>
      <trkpt lat="38.3007580" lon="-0.8284430">
        <ele>387.4</ele>
        <time>2020-03-15T08:07:03Z</time>
      </trkpt>
      <trkpt lat="38.3008800" lon="-0.8284620">
        <ele>386.4</ele>
        <time>2020-03-15T08:07:04Z</time>
      </trkpt>
      <trkpt lat="38.3009230" lon="-0.8284650">
        <ele>385.6</ele>
        <time>2020-03-15T08:07:05Z</time>
      </trkpt>
      <trkpt lat="38.3009650" lon="-0.8284690">
        <ele>384.8</ele>
        <time>2020-03-15T08:07:06Z</time>
      </trkpt>
      <trkpt lat="38.3011340" lon="-0.8284830">
        <ele>383.6</ele>
        <time>2020-03-15T08:07:08Z</time>
      </trkpt>
      <trkpt lat="38.3011960" lon="-0.8284600">
        <ele>383.0</ele>
        <time>2020-03-15T08:07:10Z</time>
      </trkpt>
      <trkpt lat="38.3012620" lon="-0.8284230">
        <ele>382.4</ele>
        <time>2020-03-15T08:07:11Z</time>
      </trkpt>
      <trkpt lat="38.3013240" lon="-0.8283820">
        <ele>381.6</ele>
        <time>2020-03-15T08:07:12Z</time>
      </trkpt>
      <trkpt lat="38.3013770" lon="-0.8283520">
        <ele>380.8</ele>
        <time>2020-03-15T08:07:13Z</time>
      </trkpt>
      <trkpt lat="38.3014230" lon="-0.8283480">
        <ele>380.2</ele>
        <time>2020-03-15T08:07:14Z</time>
      </trkpt>
      <trkpt lat="38.3014990" lon="-0.8284100">
        <ele>379.8</ele>
        <time>2020-03-15T08:07:15Z</time>
      </trkpt>
      <trkpt lat="38.3015230" lon="-0.8284660">
        <ele>379.8</ele>
        <time>2020-03-15T08:07:17Z</time>
      </trkpt>
      <trkpt lat="38.3015480" lon="-0.8286050">
        <ele>379.6</ele>
        <time>2020-03-15T08:07:18Z</time>
      </trkpt>
      <trkpt lat="38.3015520" lon="-0.8286430">
        <ele>379.6</ele>
        <time>2020-03-15T08:07:19Z</time>
      </trkpt>
      <trkpt lat="38.3015560" lon="-0.8286820">
        <ele>379.6</ele>
        <time>2020-03-15T08:07:20Z</time>
      </trkpt>
      <trkpt lat="38.3015730" lon="-0.8288350">
        <ele>379.6</ele>
        <time>2020-03-15T08:07:22Z</time>
      </trkpt>
      <trkpt lat="38.3015700" lon="-0.8289940">
        <ele>379.4</ele>
        <time>2020-03-15T08:07:23Z</time>
      </trkpt>
      <trkpt lat="38.3015670" lon="-0.8290720">
        <ele>379.2</ele>
        <time>2020-03-15T08:07:24Z</time>
      </trkpt>
      <trkpt lat="38.3015970" lon="-0.8292180">
        <ele>378.6</ele>
        <time>2020-03-15T08:07:26Z</time>
      </trkpt>
      <trkpt lat="38.3016420" lon="-0.8292690">
        <ele>378.4</ele>
        <time>2020-03-15T08:07:27Z</time>
      </trkpt>
      <trkpt lat="38.3016960" lon="-0.8293040">
        <ele>378.4</ele>
        <time>2020-03-15T08:07:28Z</time>
      </trkpt>
      <trkpt lat="38.3018220" lon="-0.8293550">
        <ele>377.8</ele>
        <time>2020-03-15T08:07:30Z</time>
      </trkpt>
      <trkpt lat="38.3018730" lon="-0.8293700">
        <ele>377.6</ele>
        <time>2020-03-15T08:07:31Z</time>
      </trkpt>
      <trkpt lat="38.3019240" lon="-0.8293850">
        <ele>377.4</ele>
        <time>2020-03-15T08:07:32Z</time>
      </trkpt>
      <trkpt lat="38.3020250" lon="-0.8294160">
        <ele>377.2</ele>
        <time>2020-03-15T08:07:33Z</time>
      </trkpt>
      <trkpt lat="38.3020960" lon="-0.8294350">
        <ele>377.2</ele>
        <time>2020-03-15T08:07:35Z</time>
      </trkpt>
      <trkpt lat="38.3022040" lon="-0.8294680">
        <ele>377.2</ele>
        <time>2020-03-15T08:07:36Z</time>
      </trkpt>
      <trkpt lat="38.3023110" lon="-0.8295020">
        <ele>376.8</ele>
        <time>2020-03-15T08:07:37Z</time>
      </trkpt>
      <trkpt lat="38.3023840" lon="-0.8295250">
        <ele>376.8</ele>
        <time>2020-03-15T08:07:38Z</time>
      </trkpt>
      <trkpt lat="38.3024580" lon="-0.8295480">
        <ele>376.6</ele>
        <time>2020-03-15T08:07:39Z</time>
      </trkpt>
      <trkpt lat="38.3026040" lon="-0.8295940">
        <ele>376.6</ele>
        <time>2020-03-15T08:07:41Z</time>
      </trkpt>
      <trkpt lat="38.3026750" lon="-0.8296160">
        <ele>376.6</ele>
        <time>2020-03-15T08:07:42Z</time>
      </trkpt>
      <trkpt lat="38.3027430" lon="-0.8296410">
        <ele>376.4</ele>
        <time>2020-03-15T08:07:44Z</time>
      </trkpt>
      <trkpt lat="38.3028100" lon="-0.8296600">
        <ele>376.6</ele>
        <time>2020-03-15T08:07:45Z</time>
      </trkpt>
      <trkpt lat="38.3029290" lon="-0.8296980">
        <ele>376.0</ele>
        <time>2020-03-15T08:07:46Z</time>
      </trkpt>
      <trkpt lat="38.3029640" lon="-0.8297080">
        <ele>375.6</ele>
        <time>2020-03-15T08:07:48Z</time>
      </trkpt>
      <trkpt lat="38.3030170" lon="-0.8297350">
        <ele>375.6</ele>
        <time>2020-03-15T08:07:57Z</time>
      </trkpt>
      <trkpt lat="38.3030590" lon="-0.8297290">
        <ele>375.6</ele>
        <time>2020-03-15T08:08:00Z</time>
      </trkpt>
      <trkpt lat="38.3030780" lon="-0.8297090">
        <ele>375.8</ele>
        <time>2020-03-15T08:08:01Z</time>
      </trkpt>
      <trkpt lat="38.3030880" lon="-0.8296750">
        <ele>375.8</ele>
        <time>2020-03-15T08:08:02Z</time>
      </trkpt>
      <trkpt lat="38.3030900" lon="-0.8296330">
        <ele>375.6</ele>
        <time>2020-03-15T08:08:03Z</time>
      </trkpt>
      <trkpt lat="38.3030960" lon="-0.8295840">
        <ele>375.4</ele>
        <time>2020-03-15T08:08:04Z</time>
      </trkpt>
      <trkpt lat="38.3031040" lon="-0.8295310">
        <ele>375.4</ele>
        <time>2020-03-15T08:08:05Z</time>
      </trkpt>
      <trkpt lat="38.3031110" lon="-0.8294740">
        <ele>375.2</ele>
        <time>2020-03-15T08:08:06Z</time>
      </trkpt>
      <trkpt lat="38.3031170" lon="-0.8294160">
        <ele>375.0</ele>
        <time>2020-03-15T08:08:07Z</time>
      </trkpt>
      <trkpt lat="38.3031250" lon="-0.8293570">
        <ele>375.2</ele>
        <time>2020-03-15T08:08:08Z</time>
      </trkpt>
      <trkpt lat="38.3031310" lon="-0.8292960">
        <ele>375.0</ele>
        <time>2020-03-15T08:08:09Z</time>
      </trkpt>
      <trkpt lat="38.3031370" lon="-0.8292340">
        <ele>375.0</ele>
        <time>2020-03-15T08:08:10Z</time>
      </trkpt>
      <trkpt lat="38.3031400" lon="-0.8291730">
        <ele>374.8</ele>
        <time>2020-03-15T08:08:11Z</time>
      </trkpt>
      <trkpt lat="38.3031450" lon="-0.8291120">
        <ele>374.8</ele>
        <time>2020-03-15T08:08:12Z</time>
      </trkpt>
      <trkpt lat="38.3031510" lon="-0.8290500">
        <ele>374.8</ele>
        <time>2020-03-15T08:08:13Z</time>
      </trkpt>
      <trkpt lat="38.3031590" lon="-0.8289880">
        <ele>374.8</ele>
        <time>2020-03-15T08:08:14Z</time>
      </trkpt>
      <trkpt lat="38.3031680" lon="-0.8289270">
        <ele>374.6</ele>
        <time>2020-03-15T08:08:15Z</time>
      </trkpt>
      <trkpt lat="38.3031780" lon="-0.8288650">
        <ele>374.6</ele>
        <time>2020-03-15T08:08:16Z</time>
      </trkpt>
      <trkpt lat="38.3031900" lon="-0.8288000">
        <ele>374.4</ele>
        <time>2020-03-15T08:08:17Z</time>
      </trkpt>
      <trkpt lat="38.3032020" lon="-0.8287310">
        <ele>374.4</ele>
        <time>2020-03-15T08:08:18Z</time>
      </trkpt>
      <trkpt lat="38.3032150" lon="-0.8286590">
        <ele>374.2</ele>
        <time>2020-03-15T08:08:19Z</time>
      </trkpt>
      <trkpt lat="38.3032290" lon="-0.8285860">
        <ele>374.2</ele>
        <time>2020-03-15T08:08:20Z</time>
      </trkpt>
      <trkpt lat="38.3032440" lon="-0.8285110">
        <ele>374.0</ele>
        <time>2020-03-15T08:08:21Z</time>
      </trkpt>
      <trkpt lat="38.3032570" lon="-0.8284350">
        <ele>373.8</ele>
        <time>2020-03-15T08:08:22Z</time>
      </trkpt>
      <trkpt lat="38.3032670" lon="-0.8283570">
        <ele>373.8</ele>
        <time>2020-03-15T08:08:23Z</time>
      </trkpt>
      <trkpt lat="38.3032780" lon="-0.8282770">
        <ele>373.6</ele>
        <time>2020-03-15T08:08:24Z</time>
      </trkpt>
      <trkpt lat="38.3032870" lon="-0.8281970">
        <ele>373.4</ele>
        <time>2020-03-15T08:08:25Z</time>
      </trkpt>
      <trkpt lat="38.3032910" lon="-0.8281160">
        <ele>373.4</ele>
        <time>2020-03-15T08:08:26Z</time>
      </trkpt>
      <trkpt lat="38.3032890" lon="-0.8280340">
        <ele>373.4</ele>
        <time>2020-03-15T08:08:27Z</time>
      </trkpt>
      <trkpt lat="38.3032800" lon="-0.8279540">
        <ele>373.2</ele>
        <time>2020-03-15T08:08:28Z</time>
      </trkpt>
      <trkpt lat="38.3032680" lon="-0.8278750">
        <ele>373.0</ele>
        <time>2020-03-15T08:08:29Z</time>
      </trkpt>
      <trkpt lat="38.3032510" lon="-0.8277960">
        <ele>373.0</ele>
        <time>2020-03-15T08:08:30Z</time>
      </trkpt>
      <trkpt lat="38.3032300" lon="-0.8277200">
        <ele>373.0</ele>
        <time>2020-03-15T08:08:31Z</time>
      </trkpt>
      <trkpt lat="38.3032060" lon="-0.8276430">
        <ele>372.8</ele>
        <time>2020-03-15T08:08:32Z</time>
      </trkpt>
      <trkpt lat="38.3031810" lon="-0.8275660">
        <ele>372.8</ele>
        <time>2020-03-15T08:08:33Z</time>
      </trkpt>
      <trkpt lat="38.3031580" lon="-0.8274880">
        <ele>372.6</ele>
        <time>2020-03-15T08:08:34Z</time>
      </trkpt>
      <trkpt lat="38.3031370" lon="-0.8274070">
        <ele>372.4</ele>
        <time>2020-03-15T08:08:35Z</time>
      </trkpt>
      <trkpt lat="38.3031300" lon="-0.8273410">
        <ele>372.0</ele>
        <time>2020-03-15T08:08:36Z</time>
      </trkpt>
      <trkpt lat="38.3031230" lon="-0.8272760">
        <ele>371.8</ele>
        <time>2020-03-15T08:08:37Z</time>
      </trkpt>
      <trkpt lat="38.3031080" lon="-0.8271460">
        <ele>371.4</ele>
        <time>2020-03-15T08:08:38Z</time>
      </trkpt>
      <trkpt lat="38.3031190" lon="-0.8270570">
        <ele>371.2</ele>
        <time>2020-03-15T08:08:39Z</time>
      </trkpt>
      <trkpt lat="38.3031420" lon="-0.8269690">
        <ele>371.2</ele>
        <time>2020-03-15T08:08:40Z</time>
      </trkpt>
      <trkpt lat="38.3031730" lon="-0.8268870">
        <ele>371.2</ele>
        <time>2020-03-15T08:08:41Z</time>
      </trkpt>
      <trkpt lat="38.3032090" lon="-0.8268060">
        <ele>370.8</ele>
        <time>2020-03-15T08:08:42Z</time>
      </trkpt>
      <trkpt lat="38.3032450" lon="-0.8267270">
        <ele>370.8</ele>
        <time>2020-03-15T08:08:43Z</time>
      </trkpt>
      <trkpt lat="38.3032780" lon="-0.8266450">
        <ele>370.6</ele>
        <time>2020-03-15T08:08:44Z</time>
      </trkpt>
      <trkpt lat="38.3033040" lon="-0.8265590">
        <ele>370.6</ele>
        <time>2020-03-15T08:08:45Z</time>
      </trkpt>
      <trkpt lat="38.3033220" lon="-0.8264680">
        <ele>370.4</ele>
        <time>2020-03-15T08:08:46Z</time>
      </trkpt>
      <trkpt lat="38.3033300" lon="-0.8263750">
        <ele>370.2</ele>
        <time>2020-03-15T08:08:47Z</time>
      </trkpt>
      <trkpt lat="38.3033330" lon="-0.8262790">
        <ele>369.8</ele>
        <time>2020-03-15T08:08:48Z</time>
      </trkpt>
      <trkpt lat="38.3033330" lon="-0.8261830">
        <ele>369.6</ele>
        <time>2020-03-15T08:08:49Z</time>
      </trkpt>
      <trkpt lat="38.3033330" lon="-0.8260870">
        <ele>369.8</ele>
        <time>2020-03-15T08:08:50Z</time>
      </trkpt>
      <trkpt lat="38.3033320" lon="-0.8259910">
        <ele>369.6</ele>
        <time>2020-03-15T08:08:51Z</time>
      </trkpt>
      <trkpt lat="38.3033320" lon="-0.8258950">
        <ele>369.4</ele>
        <time>2020-03-15T08:08:52Z</time>
      </trkpt>
      <trkpt lat="38.3033320" lon="-0.8258000">
        <ele>369.2</ele>
        <time>2020-03-15T08:08:53Z</time>
      </trkpt>
      <trkpt lat="38.3033340" lon="-0.8257040">
        <ele>369.4</ele>
        <time>2020-03-15T08:08:54Z</time>
      </trkpt>
      <trkpt lat="38.3033380" lon="-0.8256320">
        <ele>369.2</ele>
        <time>2020-03-15T08:08:55Z</time>
      </trkpt>
      <trkpt lat="38.3033410" lon="-0.8255600">
        <ele>368.8</ele>
        <time>2020-03-15T08:08:56Z</time>
      </trkpt>
      <trkpt lat="38.3033470" lon="-0.8254160">
        <ele>368.8</ele>
        <time>2020-03-15T08:08:57Z</time>
      </trkpt>
      <trkpt lat="38.3033520" lon="-0.8253200">
        <ele>368.4</ele>
        <time>2020-03-15T08:08:58Z</time>
      </trkpt>
      <trkpt lat="38.3033580" lon="-0.8252230">
        <ele>368.4</ele>
        <time>2020-03-15T08:08:59Z</time>
      </trkpt>
      <trkpt lat="38.3033620" lon="-0.8251260">
        <ele>368.2</ele>
        <time>2020-03-15T08:09:00Z</time>
      </trkpt>
      <trkpt lat="38.3033670" lon="-0.8250280">
        <ele>368.2</ele>
        <time>2020-03-15T08:09:01Z</time>
      </trkpt>
      <trkpt lat="38.3033720" lon="-0.8249310">
        <ele>368.0</ele>
        <time>2020-03-15T08:09:02Z</time>
      </trkpt>
      <trkpt lat="38.3033830" lon="-0.8248340">
        <ele>368.0</ele>
        <time>2020-03-15T08:09:03Z</time>
      </trkpt>
      <trkpt lat="38.3034050" lon="-0.8247430">
        <ele>367.8</ele>
        <time>2020-03-15T08:09:04Z</time>
      </trkpt>
      <trkpt lat="38.3034340" lon="-0.8246550">
        <ele>367.8</ele>
        <time>2020-03-15T08:09:05Z</time>
      </trkpt>
      <trkpt lat="38.3034650" lon="-0.8245690">
        <ele>367.8</ele>
        <time>2020-03-15T08:09:06Z</time>
      </trkpt>
      <trkpt lat="38.3035000" lon="-0.8244850">
        <ele>367.6</ele>
        <time>2020-03-15T08:09:07Z</time>
      </trkpt>
      <trkpt lat="38.3035340" lon="-0.8244020">
        <ele>367.8</ele>
        <time>2020-03-15T08:09:08Z</time>
      </trkpt>
      <trkpt lat="38.3035660" lon="-0.8243210">
        <ele>367.8</ele>
        <time>2020-03-15T08:09:09Z</time>
      </trkpt>
      <trkpt lat="38.3035960" lon="-0.8242370">
        <ele>367.8</ele>
        <time>2020-03-15T08:09:10Z</time>
      </trkpt>
      <trkpt lat="38.3036250" lon="-0.8241570">
        <ele>367.8</ele>
        <time>2020-03-15T08:09:11Z</time>
      </trkpt>
      <trkpt lat="38.3036510" lon="-0.8240780">
        <ele>367.8</ele>
        <time>2020-03-15T08:09:12Z</time>
      </trkpt>
      <trkpt lat="38.3036720" lon="-0.8240010">
        <ele>367.8</ele>
        <time>2020-03-15T08:09:13Z</time>
      </trkpt>
      <trkpt lat="38.3036910" lon="-0.8239270">
        <ele>368.0</ele>
        <time>2020-03-15T08:09:14Z</time>
      </trkpt>
      <trkpt lat="38.3037050" lon="-0.8238530">
        <ele>368.0</ele>
        <time>2020-03-15T08:09:15Z</time>
      </trkpt>
      <trkpt lat="38.3037150" lon="-0.8237780">
        <ele>368.0</ele>
        <time>2020-03-15T08:09:16Z</time>
      </trkpt>
      <trkpt lat="38.3037210" lon="-0.8237020">
        <ele>367.8</ele>
        <time>2020-03-15T08:09:17Z</time>
      </trkpt>
      <trkpt lat="38.3037240" lon="-0.8236240">
        <ele>367.6</ele>
        <time>2020-03-15T08:09:18Z</time>
      </trkpt>
      <trkpt lat="38.3037240" lon="-0.8235460">
        <ele>367.4</ele>
        <time>2020-03-15T08:09:19Z</time>
      </trkpt>
      <trkpt lat="38.3037230" lon="-0.8234670">
        <ele>367.4</ele>
        <time>2020-03-15T08:09:20Z</time>
      </trkpt>
      <trkpt lat="38.3037250" lon="-0.8233910">
        <ele>367.4</ele>
        <time>2020-03-15T08:09:21Z</time>
      </trkpt>
      <trkpt lat="38.3037290" lon="-0.8233150">
        <ele>367.6</ele>
        <time>2020-03-15T08:09:22Z</time>
      </trkpt>
      <trkpt lat="38.3037360" lon="-0.8232410">
        <ele>367.4</ele>
        <time>2020-03-15T08:09:23Z</time>
      </trkpt>
      <trkpt lat="38.3037450" lon="-0.8231700">
        <ele>367.4</ele>
        <time>2020-03-15T08:09:24Z</time>
      </trkpt>
      <trkpt lat="38.3037570" lon="-0.8231010">
        <ele>367.6</ele>
        <time>2020-03-15T08:09:25Z</time>
      </trkpt>
      <trkpt lat="38.3037720" lon="-0.8230330">
        <ele>367.6</ele>
        <time>2020-03-15T08:09:26Z</time>
      </trkpt>
      <trkpt lat="38.3037850" lon="-0.8229660">
        <ele>367.4</ele>
        <time>2020-03-15T08:09:27Z</time>
      </trkpt>
      <trkpt lat="38.3037960" lon="-0.8228980">
        <ele>367.6</ele>
        <time>2020-03-15T08:09:28Z</time>
      </trkpt>
      <trkpt lat="38.3038040" lon="-0.8228300">
        <ele>367.6</ele>
        <time>2020-03-15T08:09:29Z</time>
      </trkpt>
      <trkpt lat="38.3038170" lon="-0.8227640">
        <ele>367.8</ele>
        <time>2020-03-15T08:09:30Z</time>
      </trkpt>
      <trkpt lat="38.3038310" lon="-0.8227010">
        <ele>367.8</ele>
        <time>2020-03-15T08:09:31Z</time>
      </trkpt>
      <trkpt lat="38.3038490" lon="-0.8226370">
        <ele>367.8</ele>
        <time>2020-03-15T08:09:32Z</time>
      </trkpt>
      <trkpt lat="38.3038570" lon="-0.8225760">
        <ele>367.8</ele>
        <time>2020-03-15T08:09:33Z</time>
      </trkpt>
      <trkpt lat="38.3038690" lon="-0.8225160">
        <ele>368.0</ele>
        <time>2020-03-15T08:09:34Z</time>
      </trkpt>
      <trkpt lat="38.3038800" lon="-0.8224580">
        <ele>368.0</ele>
        <time>2020-03-15T08:09:35Z</time>
      </trkpt>
      <trkpt lat="38.3038950" lon="-0.8223950">
        <ele>367.8</ele>
        <time>2020-03-15T08:09:36Z</time>
      </trkpt>
      <trkpt lat="38.3039090" lon="-0.8223370">
        <ele>368.0</ele>
        <time>2020-03-15T08:09:37Z</time>
      </trkpt>
      <trkpt lat="38.3039220" lon="-0.8222800">
        <ele>368.0</ele>
        <time>2020-03-15T08:09:38Z</time>
      </trkpt>
      <trkpt lat="38.3039330" lon="-0.8222230">
        <ele>368.2</ele>
        <time>2020-03-15T08:09:39Z</time>
      </trkpt>
      <trkpt lat="38.3039440" lon="-0.8221650">
        <ele>368.2</ele>
        <time>2020-03-15T08:09:40Z</time>
      </trkpt>
      <trkpt lat="38.3039540" lon="-0.8221060">
        <ele>368.2</ele>
        <time>2020-03-15T08:09:41Z</time>
      </trkpt>
      <trkpt lat="38.3039650" lon="-0.8220450">
        <ele>368.4</ele>
        <time>2020-03-15T08:09:42Z</time>
      </trkpt>
      <trkpt lat="38.3039770" lon="-0.8219860">
        <ele>368.4</ele>
        <time>2020-03-15T08:09:43Z</time>
      </trkpt>
      <trkpt lat="38.3039890" lon="-0.8219270">
        <ele>368.4</ele>
        <time>2020-03-15T08:09:44Z</time>
      </trkpt>
      <trkpt lat="38.3040010" lon="-0.8218660">
        <ele>368.4</ele>
        <time>2020-03-15T08:09:45Z</time>
      </trkpt>
      <trkpt lat="38.3040160" lon="-0.8218040">
        <ele>368.4</ele>
        <time>2020-03-15T08:09:46Z</time>
      </trkpt>
      <trkpt lat="38.3040330" lon="-0.8217400">
        <ele>368.4</ele>
        <time>2020-03-15T08:09:47Z</time>
      </trkpt>
      <trkpt lat="38.3040490" lon="-0.8216750">
        <ele>368.4</ele>
        <time>2020-03-15T08:09:48Z</time>
      </trkpt>
      <trkpt lat="38.3040660" lon="-0.8216070">
        <ele>368.4</ele>
        <time>2020-03-15T08:09:49Z</time>
      </trkpt>
      <trkpt lat="38.3040810" lon="-0.8215390">
        <ele>368.4</ele>
        <time>2020-03-15T08:09:50Z</time>
      </trkpt>
      <trkpt lat="38.3040950" lon="-0.8214690">
        <ele>368.4</ele>
        <time>2020-03-15T08:09:51Z</time>
      </trkpt>
      <trkpt lat="38.3041110" lon="-0.8213980">
        <ele>368.4</ele>
        <time>2020-03-15T08:09:52Z</time>
      </trkpt>
      <trkpt lat="38.3041270" lon="-0.8213270">
        <ele>368.4</ele>
        <time>2020-03-15T08:09:53Z</time>
      </trkpt>
      <trkpt lat="38.3041420" lon="-0.8212550">
        <ele>368.4</ele>
        <time>2020-03-15T08:09:54Z</time>
      </trkpt>
      <trkpt lat="38.3041570" lon="-0.8211800">
        <ele>368.4</ele>
        <time>2020-03-15T08:09:55Z</time>
      </trkpt>
      <trkpt lat="38.3041720" lon="-0.8211060">
        <ele>368.4</ele>
        <time>2020-03-15T08:09:56Z</time>
      </trkpt>
      <trkpt lat="38.3041890" lon="-0.8210320">
        <ele>368.6</ele>
        <time>2020-03-15T08:09:57Z</time>
      </trkpt>
      <trkpt lat="38.3042050" lon="-0.8209570">
        <ele>368.6</ele>
        <time>2020-03-15T08:09:58Z</time>
      </trkpt>
      <trkpt lat="38.3042200" lon="-0.8208810">
        <ele>368.6</ele>
        <time>2020-03-15T08:09:59Z</time>
      </trkpt>
      <trkpt lat="38.3042360" lon="-0.8208050">
        <ele>368.4</ele>
        <time>2020-03-15T08:10:00Z</time>
      </trkpt>
      <trkpt lat="38.3042560" lon="-0.8207280">
        <ele>368.4</ele>
        <time>2020-03-15T08:10:01Z</time>
      </trkpt>
      <trkpt lat="38.3042750" lon="-0.8206510">
        <ele>368.4</ele>
        <time>2020-03-15T08:10:02Z</time>
      </trkpt>
      <trkpt lat="38.3042920" lon="-0.8205720">
        <ele>368.4</ele>
        <time>2020-03-15T08:10:03Z</time>
      </trkpt>
      <trkpt lat="38.3043090" lon="-0.8204920">
        <ele>368.4</ele>
        <time>2020-03-15T08:10:04Z</time>
      </trkpt>
      <trkpt lat="38.3043260" lon="-0.8204120">
        <ele>368.2</ele>
        <time>2020-03-15T08:10:05Z</time>
      </trkpt>
      <trkpt lat="38.3043430" lon="-0.8203320">
        <ele>368.2</ele>
        <time>2020-03-15T08:10:06Z</time>
      </trkpt>
      <trkpt lat="38.3043630" lon="-0.8202520">
        <ele>368.2</ele>
        <time>2020-03-15T08:10:07Z</time>
      </trkpt>
      <trkpt lat="38.3043820" lon="-0.8201700">
        <ele>368.0</ele>
        <time>2020-03-15T08:10:08Z</time>
      </trkpt>
      <trkpt lat="38.3043990" lon="-0.8200870">
        <ele>368.0</ele>
        <time>2020-03-15T08:10:09Z</time>
      </trkpt>
      <trkpt lat="38.3044170" lon="-0.8200050">
        <ele>368.0</ele>
        <time>2020-03-15T08:10:10Z</time>
      </trkpt>
      <trkpt lat="38.3044360" lon="-0.8199240">
        <ele>367.8</ele>
        <time>2020-03-15T08:10:11Z</time>
      </trkpt>
      <trkpt lat="38.3044570" lon="-0.8198420">
        <ele>367.8</ele>
        <time>2020-03-15T08:10:12Z</time>
      </trkpt>
      <trkpt lat="38.3044810" lon="-0.8197640">
        <ele>367.8</ele>
        <time>2020-03-15T08:10:13Z</time>
      </trkpt>
      <trkpt lat="38.3045070" lon="-0.8196880">
        <ele>367.8</ele>
        <time>2020-03-15T08:10:14Z</time>
      </trkpt>
      <trkpt lat="38.3045380" lon="-0.8196150">
        <ele>367.8</ele>
        <time>2020-03-15T08:10:15Z</time>
      </trkpt>
      <trkpt lat="38.3045720" lon="-0.8195500">
        <ele>368.2</ele>
        <time>2020-03-15T08:10:16Z</time>
      </trkpt>
      <trkpt lat="38.3046110" lon="-0.8194980">
        <ele>368.4</ele>
        <time>2020-03-15T08:10:17Z</time>
      </trkpt>
      <trkpt lat="38.3046530" lon="-0.8194540">
        <ele>368.6</ele>
        <time>2020-03-15T08:10:18Z</time>
      </trkpt>
      <trkpt lat="38.3046940" lon="-0.8194090">
        <ele>368.8</ele>
        <time>2020-03-15T08:10:19Z</time>
      </trkpt>
      <trkpt lat="38.3047340" lon="-0.8193600">
        <ele>368.8</ele>
        <time>2020-03-15T08:10:20Z</time>
      </trkpt>
      <trkpt lat="38.3047740" lon="-0.8193090">
        <ele>368.8</ele>
        <time>2020-03-15T08:10:21Z</time>
      </trkpt>
      <trkpt lat="38.3048160" lon="-0.8192600">
        <ele>368.8</ele>
        <time>2020-03-15T08:10:22Z</time>
      </trkpt>
      <trkpt lat="38.3048590" lon="-0.8192080">
        <ele>368.6</ele>
        <time>2020-03-15T08:10:23Z</time>
      </trkpt>
      <trkpt lat="38.3049030" lon="-0.8191560">
        <ele>368.6</ele>
        <time>2020-03-15T08:10:24Z</time>
      </trkpt>
      <trkpt lat="38.3049480" lon="-0.8191030">
        <ele>368.6</ele>
        <time>2020-03-15T08:10:25Z</time>
      </trkpt>
      <trkpt lat="38.3049960" lon="-0.8190500">
        <ele>368.4</ele>
        <time>2020-03-15T08:10:26Z</time>
      </trkpt>
      <trkpt lat="38.3050450" lon="-0.8189950">
        <ele>368.2</ele>
        <time>2020-03-15T08:10:27Z</time>
      </trkpt>
      <trkpt lat="38.3050980" lon="-0.8189370">
        <ele>367.8</ele>
        <time>2020-03-15T08:10:28Z</time>
      </trkpt>
      <trkpt lat="38.3051520" lon="-0.8188780">
        <ele>367.4</ele>
        <time>2020-03-15T08:10:29Z</time>
      </trkpt>
      <trkpt lat="38.3052080" lon="-0.8188160">
        <ele>367.0</ele>
        <time>2020-03-15T08:10:30Z</time>
      </trkpt>
      <trkpt lat="38.3052630" lon="-0.8187490">
        <ele>366.6</ele>
        <time>2020-03-15T08:10:31Z</time>
      </trkpt>
      <trkpt lat="38.3053190" lon="-0.8186810">
        <ele>366.4</ele>
        <time>2020-03-15T08:10:32Z</time>
      </trkpt>
      <trkpt lat="38.3053730" lon="-0.8186100">
        <ele>366.0</ele>
        <time>2020-03-15T08:10:33Z</time>
      </trkpt>
      <trkpt lat="38.3054260" lon="-0.8185360">
        <ele>365.8</ele>
        <time>2020-03-15T08:10:34Z</time>
      </trkpt>
      <trkpt lat="38.3054790" lon="-0.8184620">
        <ele>365.4</ele>
        <time>2020-03-15T08:10:35Z</time>
      </trkpt>
      <trkpt lat="38.3055300" lon="-0.8183870">
        <ele>365.2</ele>
        <time>2020-03-15T08:10:36Z</time>
      </trkpt>
      <trkpt lat="38.3055810" lon="-0.8183100">
        <ele>365.0</ele>
        <time>2020-03-15T08:10:37Z</time>
      </trkpt>
      <trkpt lat="38.3056310" lon="-0.8182340">
        <ele>364.6</ele>
        <time>2020-03-15T08:10:38Z</time>
      </trkpt>
      <trkpt lat="38.3056810" lon="-0.8181570">
        <ele>364.2</ele>
        <time>2020-03-15T08:10:39Z</time>
      </trkpt>
      <trkpt lat="38.3057320" lon="-0.8180800">
        <ele>364.2</ele>
        <time>2020-03-15T08:10:40Z</time>
      </trkpt>
      <trkpt lat="38.3057830" lon="-0.8180010">
        <ele>363.8</ele>
        <time>2020-03-15T08:10:41Z</time>
      </trkpt>
      <trkpt lat="38.3058350" lon="-0.8179230">
        <ele>363.4</ele>
        <time>2020-03-15T08:10:42Z</time>
      </trkpt>
      <trkpt lat="38.3058860" lon="-0.8178440">
        <ele>363.2</ele>
        <time>2020-03-15T08:10:43Z</time>
      </trkpt>
      <trkpt lat="38.3059370" lon="-0.8177660">
        <ele>363.0</ele>
        <time>2020-03-15T08:10:44Z</time>
      </trkpt>
      <trkpt lat="38.3059810" lon="-0.8176830">
        <ele>363.0</ele>
        <time>2020-03-15T08:10:45Z</time>
      </trkpt>
      <trkpt lat="38.3060060" lon="-0.8175880">
        <ele>362.8</ele>
        <time>2020-03-15T08:10:46Z</time>
      </trkpt>
      <trkpt lat="38.3060120" lon="-0.8174910">
        <ele>362.6</ele>
        <time>2020-03-15T08:10:47Z</time>
      </trkpt>
      <trkpt lat="38.3060020" lon="-0.8173980">
        <ele>362.8</ele>
        <time>2020-03-15T08:10:48Z</time>
      </trkpt>
      <trkpt lat="38.3059900" lon="-0.8173100">
        <ele>363.0</ele>
        <time>2020-03-15T08:10:49Z</time>
      </trkpt>
      <trkpt lat="38.3059810" lon="-0.8172260">
        <ele>363.4</ele>
        <time>2020-03-15T08:10:50Z</time>
      </trkpt>
      <trkpt lat="38.3059740" lon="-0.8171490">
        <ele>363.6</ele>
        <time>2020-03-15T08:10:51Z</time>
      </trkpt>
      <trkpt lat="38.3059670" lon="-0.8170780">
        <ele>364.2</ele>
        <time>2020-03-15T08:10:52Z</time>
      </trkpt>
      <trkpt lat="38.3059620" lon="-0.8170150">
        <ele>364.4</ele>
        <time>2020-03-15T08:10:53Z</time>
      </trkpt>
      <trkpt lat="38.3059610" lon="-0.8169570">
        <ele>364.8</ele>
        <time>2020-03-15T08:10:54Z</time>
      </trkpt>
      <trkpt lat="38.3059590" lon="-0.8169070">
        <ele>365.4</ele>
        <time>2020-03-15T08:10:55Z</time>
      </trkpt>
      <trkpt lat="38.3059560" lon="-0.8168570">
        <ele>366.0</ele>
        <time>2020-03-15T08:10:56Z</time>
      </trkpt>
      <trkpt lat="38.3059530" lon="-0.8168100">
        <ele>366.4</ele>
        <time>2020-03-15T08:10:57Z</time>
      </trkpt>
      <trkpt lat="38.3059530" lon="-0.8167640">
        <ele>366.6</ele>
        <time>2020-03-15T08:10:58Z</time>
      </trkpt>
      <trkpt lat="38.3059530" lon="-0.8167180">
        <ele>367.2</ele>
        <time>2020-03-15T08:10:59Z</time>
      </trkpt>
      <trkpt lat="38.3059540" lon="-0.8166730">
        <ele>367.6</ele>
        <time>2020-03-15T08:11:00Z</time>
      </trkpt>
      <trkpt lat="38.3059560" lon="-0.8166280">
        <ele>368.2</ele>
        <time>2020-03-15T08:11:01Z</time>
      </trkpt>
      <trkpt lat="38.3059580" lon="-0.8165830">
        <ele>368.4</ele>
        <time>2020-03-15T08:11:02Z</time>
      </trkpt>
      <trkpt lat="38.3059610" lon="-0.8165400">
        <ele>368.8</ele>
        <time>2020-03-15T08:11:03Z</time>
      </trkpt>
      <trkpt lat="38.3059620" lon="-0.8164950">
        <ele>369.0</ele>
        <time>2020-03-15T08:11:04Z</time>
      </trkpt>
      <trkpt lat="38.3059640" lon="-0.8164500">
        <ele>369.4</ele>
        <time>2020-03-15T08:11:05Z</time>
      </trkpt>
      <trkpt lat="38.3059630" lon="-0.8164040">
        <ele>369.6</ele>
        <time>2020-03-15T08:11:06Z</time>
      </trkpt>
      <trkpt lat="38.3059590" lon="-0.8163570">
        <ele>370.0</ele>
        <time>2020-03-15T08:11:07Z</time>
      </trkpt>
      <trkpt lat="38.3059530" lon="-0.8163090">
        <ele>370.2</ele>
        <time>2020-03-15T08:11:08Z</time>
      </trkpt>
      <trkpt lat="38.3059430" lon="-0.8162640">
        <ele>370.8</ele>
        <time>2020-03-15T08:11:09Z</time>
      </trkpt>
      <trkpt lat="38.3059330" lon="-0.8162190">
        <ele>371.2</ele>
        <time>2020-03-15T08:11:10Z</time>
      </trkpt>
      <trkpt lat="38.3059210" lon="-0.8161760">
        <ele>371.4</ele>
        <time>2020-03-15T08:11:11Z</time>
      </trkpt>
      <trkpt lat="38.3059100" lon="-0.8161320">
        <ele>371.8</ele>
        <time>2020-03-15T08:11:12Z</time>
      </trkpt>
      <trkpt lat="38.3059000" lon="-0.8160860">
        <ele>372.0</ele>
        <time>2020-03-15T08:11:13Z</time>
      </trkpt>
      <trkpt lat="38.3058910" lon="-0.8160400">
        <ele>372.2</ele>
        <time>2020-03-15T08:11:14Z</time>
      </trkpt>
      <trkpt lat="38.3058830" lon="-0.8159940">
        <ele>372.4</ele>
        <time>2020-03-15T08:11:15Z</time>
      </trkpt>
      <trkpt lat="38.3058730" lon="-0.8159490">
        <ele>372.6</ele>
        <time>2020-03-15T08:11:16Z</time>
      </trkpt>
      <trkpt lat="38.3058630" lon="-0.8159030">
        <ele>372.8</ele>
        <time>2020-03-15T08:11:17Z</time>
      </trkpt>
      <trkpt lat="38.3058540" lon="-0.8158560">
        <ele>373.0</ele>
        <time>2020-03-15T08:11:18Z</time>
      </trkpt>
      <trkpt lat="38.3058470" lon="-0.8158080">
        <ele>373.2</ele>
        <time>2020-03-15T08:11:19Z</time>
      </trkpt>
      <trkpt lat="38.3058400" lon="-0.8157600">
        <ele>373.4</ele>
        <time>2020-03-15T08:11:20Z</time>
      </trkpt>
      <trkpt lat="38.3058330" lon="-0.8157120">
        <ele>373.6</ele>
        <time>2020-03-15T08:11:21Z</time>
      </trkpt>
      <trkpt lat="38.3058280" lon="-0.8156660">
        <ele>374.0</ele>
        <time>2020-03-15T08:11:22Z</time>
      </trkpt>
      <trkpt lat="38.3058210" lon="-0.8156170">
        <ele>374.2</ele>
        <time>2020-03-15T08:11:23Z</time>
      </trkpt>
      <trkpt lat="38.3058160" lon="-0.8155680">
        <ele>374.4</ele>
        <time>2020-03-15T08:11:24Z</time>
      </trkpt>
      <trkpt lat="38.3058110" lon="-0.8155160">
        <ele>374.4</ele>
        <time>2020-03-15T08:11:25Z</time>
      </trkpt>
      <trkpt lat="38.3058040" lon="-0.8154650">
        <ele>374.6</ele>
        <time>2020-03-15T08:11:26Z</time>
      </trkpt>
      <trkpt lat="38.3057970" lon="-0.8154100">
        <ele>374.6</ele>
        <time>2020-03-15T08:11:27Z</time>
      </trkpt>
      <trkpt lat="38.3057880" lon="-0.8153550">
        <ele>374.6</ele>
        <time>2020-03-15T08:11:28Z</time>
      </trkpt>
      <trkpt lat="38.3057760" lon="-0.8152990">
        <ele>374.8</ele>
        <time>2020-03-15T08:11:29Z</time>
      </trkpt>
      <trkpt lat="38.3057610" lon="-0.8152420">
        <ele>374.8</ele>
        <time>2020-03-15T08:11:30Z</time>
      </trkpt>
      <trkpt lat="38.3057450" lon="-0.8151860">
        <ele>374.8</ele>
        <time>2020-03-15T08:11:31Z</time>
      </trkpt>
      <trkpt lat="38.3057280" lon="-0.8151290">
        <ele>374.8</ele>
        <time>2020-03-15T08:11:32Z</time>
      </trkpt>
      <trkpt lat="38.3057100" lon="-0.8150710">
        <ele>374.8</ele>
        <time>2020-03-15T08:11:33Z</time>
      </trkpt>
      <trkpt lat="38.3056900" lon="-0.8150100">
        <ele>374.6</ele>
        <time>2020-03-15T08:11:34Z</time>
      </trkpt>
      <trkpt lat="38.3056670" lon="-0.8149480">
        <ele>374.6</ele>
        <time>2020-03-15T08:11:35Z</time>
      </trkpt>
      <trkpt lat="38.3056420" lon="-0.8148830">
        <ele>374.4</ele>
        <time>2020-03-15T08:11:36Z</time>
      </trkpt>
      <trkpt lat="38.3056170" lon="-0.8148160">
        <ele>374.2</ele>
        <time>2020-03-15T08:11:37Z</time>
      </trkpt>
      <trkpt lat="38.3055900" lon="-0.8147470">
        <ele>374.2</ele>
        <time>2020-03-15T08:11:38Z</time>
      </trkpt>
      <trkpt lat="38.3055620" lon="-0.8146780">
        <ele>374.2</ele>
        <time>2020-03-15T08:11:39Z</time>
      </trkpt>
      <trkpt lat="38.3055320" lon="-0.8146100">
        <ele>374.0</ele>
        <time>2020-03-15T08:11:40Z</time>
      </trkpt>
      <trkpt lat="38.3055020" lon="-0.8145420">
        <ele>374.2</ele>
        <time>2020-03-15T08:11:41Z</time>
      </trkpt>
      <trkpt lat="38.3054720" lon="-0.8144770">
        <ele>374.4</ele>
        <time>2020-03-15T08:11:42Z</time>
      </trkpt>
      <trkpt lat="38.3054430" lon="-0.8144130">
        <ele>374.4</ele>
        <time>2020-03-15T08:11:43Z</time>
      </trkpt>
      <trkpt lat="38.3054130" lon="-0.8143490">
        <ele>374.8</ele>
        <time>2020-03-15T08:11:44Z</time>
      </trkpt>
      <trkpt lat="38.3053830" lon="-0.8142870">
        <ele>375.0</ele>
        <time>2020-03-15T08:11:45Z</time>
      </trkpt>
      <trkpt lat="38.3053660" lon="-0.8142380">
        <ele>375.0</ele>
        <time>2020-03-15T08:11:46Z</time>
      </trkpt>
      <trkpt lat="38.3053480" lon="-0.8141890">
        <ele>375.2</ele>
        <time>2020-03-15T08:11:47Z</time>
      </trkpt>
      <trkpt lat="38.3053120" lon="-0.8140910">
        <ele>375.2</ele>
        <time>2020-03-15T08:11:48Z</time>
      </trkpt>
      <trkpt lat="38.3053000" lon="-0.8140190">
        <ele>375.2</ele>
        <time>2020-03-15T08:11:49Z</time>
      </trkpt>
      <trkpt lat="38.3052920" lon="-0.8139460">
        <ele>375.2</ele>
        <time>2020-03-15T08:11:50Z</time>
      </trkpt>
      <trkpt lat="38.3052880" lon="-0.8138700">
        <ele>375.0</ele>
        <time>2020-03-15T08:11:51Z</time>
      </trkpt>
      <trkpt lat="38.3052830" lon="-0.8137910">
        <ele>374.8</ele>
        <time>2020-03-15T08:11:52Z</time>
      </trkpt>
      <trkpt lat="38.3052770" lon="-0.8137090">
        <ele>374.6</ele>
        <time>2020-03-15T08:11:53Z</time>
      </trkpt>
      <trkpt lat="38.3052670" lon="-0.8136260">
        <ele>374.4</ele>
        <time>2020-03-15T08:11:54Z</time>
      </trkpt>
      <trkpt lat="38.3052550" lon="-0.8135410">
        <ele>374.4</ele>
        <time>2020-03-15T08:11:55Z</time>
      </trkpt>
      <trkpt lat="38.3052420" lon="-0.8134550">
        <ele>374.4</ele>
        <time>2020-03-15T08:11:56Z</time>
      </trkpt>
      <trkpt lat="38.3052300" lon="-0.8133680">
        <ele>374.2</ele>
        <time>2020-03-15T08:11:57Z</time>
      </trkpt>
      <trkpt lat="38.3052210" lon="-0.8132810">
        <ele>374.2</ele>
        <time>2020-03-15T08:11:58Z</time>
      </trkpt>
      <trkpt lat="38.3052170" lon="-0.8131940">
        <ele>374.2</ele>
        <time>2020-03-15T08:11:59Z</time>
      </trkpt>
      <trkpt lat="38.3052180" lon="-0.8131090">
        <ele>374.2</ele>
        <time>2020-03-15T08:12:00Z</time>
      </trkpt>
      <trkpt lat="38.3052240" lon="-0.8130230">
        <ele>374.2</ele>
        <time>2020-03-15T08:12:01Z</time>
      </trkpt>
      <trkpt lat="38.3052270" lon="-0.8129370">
        <ele>374.2</ele>
        <time>2020-03-15T08:12:02Z</time>
      </trkpt>
      <trkpt lat="38.3052290" lon="-0.8128510">
        <ele>374.4</ele>
        <time>2020-03-15T08:12:03Z</time>
      </trkpt>
      <trkpt lat="38.3052340" lon="-0.8127660">
        <ele>374.4</ele>
        <time>2020-03-15T08:12:04Z</time>
      </trkpt>
      <trkpt lat="38.3052380" lon="-0.8126790">
        <ele>374.4</ele>
        <time>2020-03-15T08:12:05Z</time>
      </trkpt>
      <trkpt lat="38.3052440" lon="-0.8125940">
        <ele>374.4</ele>
        <time>2020-03-15T08:12:06Z</time>
      </trkpt>
      <trkpt lat="38.3052510" lon="-0.8125110">
        <ele>374.6</ele>
        <time>2020-03-15T08:12:07Z</time>
      </trkpt>
      <trkpt lat="38.3052590" lon="-0.8124280">
        <ele>374.8</ele>
        <time>2020-03-15T08:12:08Z</time>
      </trkpt>
      <trkpt lat="38.3052690" lon="-0.8123470">
        <ele>374.8</ele>
        <time>2020-03-15T08:12:09Z</time>
      </trkpt>
      <trkpt lat="38.3052800" lon="-0.8122660">
        <ele>374.8</ele>
        <time>2020-03-15T08:12:10Z</time>
      </trkpt>
      <trkpt lat="38.3052940" lon="-0.8121850">
        <ele>374.8</ele>
        <time>2020-03-15T08:12:11Z</time>
      </trkpt>
      <trkpt lat="38.3053010" lon="-0.8121450">
        <ele>374.8</ele>
        <time>2020-03-15T08:12:12Z</time>
      </trkpt>
      <trkpt lat="38.3053080" lon="-0.8121050">
        <ele>374.8</ele>
        <time>2020-03-15T08:12:13Z</time>
      </trkpt>
      <trkpt lat="38.3053340" lon="-0.8119650">
        <ele>374.8</ele>
        <time>2020-03-15T08:12:14Z</time>
      </trkpt>
      <trkpt lat="38.3053450" lon="-0.8119040">
        <ele>374.8</ele>
        <time>2020-03-15T08:12:15Z</time>
      </trkpt>
      <trkpt lat="38.3053670" lon="-0.8117830">
        <ele>374.8</ele>
        <time>2020-03-15T08:12:16Z</time>
      </trkpt>
      <trkpt lat="38.3053800" lon="-0.8117000">
        <ele>374.8</ele>
        <time>2020-03-15T08:12:17Z</time>
      </trkpt>
      <trkpt lat="38.3053830" lon="-0.8116190">
        <ele>374.6</ele>
        <time>2020-03-15T08:12:18Z</time>
      </trkpt>
      <trkpt lat="38.3053850" lon="-0.8115360">
        <ele>374.6</ele>
        <time>2020-03-15T08:12:19Z</time>
      </trkpt>
      <trkpt lat="38.3053820" lon="-0.8114530">
        <ele>374.8</ele>
        <time>2020-03-15T08:12:20Z</time>
      </trkpt>
      <trkpt lat="38.3053720" lon="-0.8113720">
        <ele>374.8</ele>
        <time>2020-03-15T08:12:21Z</time>
      </trkpt>
      <trkpt lat="38.3053600" lon="-0.8112920">
        <ele>375.0</ele>
        <time>2020-03-15T08:12:22Z</time>
      </trkpt>
      <trkpt lat="38.3053450" lon="-0.8112120">
        <ele>375.0</ele>
        <time>2020-03-15T08:12:23Z</time>
      </trkpt>
      <trkpt lat="38.3053290" lon="-0.8111340">
        <ele>375.0</ele>
        <time>2020-03-15T08:12:24Z</time>
      </trkpt>
      <trkpt lat="38.3053140" lon="-0.8110560">
        <ele>375.4</ele>
        <time>2020-03-15T08:12:25Z</time>
      </trkpt>
      <trkpt lat="38.3052990" lon="-0.8109800">
        <ele>375.4</ele>
        <time>2020-03-15T08:12:26Z</time>
      </trkpt>
      <trkpt lat="38.3052830" lon="-0.8109060">
        <ele>375.6</ele>
        <time>2020-03-15T08:12:27Z</time>
      </trkpt>
      <trkpt lat="38.3052670" lon="-0.8108330">
        <ele>375.8</ele>
        <time>2020-03-15T08:12:28Z</time>
      </trkpt>
      <trkpt lat="38.3052530" lon="-0.8107640">
        <ele>376.2</ele>
        <time>2020-03-15T08:12:29Z</time>
      </trkpt>
      <trkpt lat="38.3052370" lon="-0.8106970">
        <ele>376.4</ele>
        <time>2020-03-15T08:12:30Z</time>
      </trkpt>
      <trkpt lat="38.3052220" lon="-0.8106350">
        <ele>376.6</ele>
        <time>2020-03-15T08:12:31Z</time>
      </trkpt>
      <trkpt lat="38.3052090" lon="-0.8105760">
        <ele>377.0</ele>
        <time>2020-03-15T08:12:32Z</time>
      </trkpt>
      <trkpt lat="38.3051960" lon="-0.8105190">
        <ele>377.2</ele>
        <time>2020-03-15T08:12:33Z</time>
      </trkpt>
      <trkpt lat="38.3051830" lon="-0.8104650">
        <ele>377.4</ele>
        <time>2020-03-15T08:12:34Z</time>
      </trkpt>
      <trkpt lat="38.3051690" lon="-0.8104140">
        <ele>377.6</ele>
        <time>2020-03-15T08:12:35Z</time>
      </trkpt>
      <trkpt lat="38.3051550" lon="-0.8103680">
        <ele>378.0</ele>
        <time>2020-03-15T08:12:36Z</time>
      </trkpt>
      <trkpt lat="38.3051440" lon="-0.8103200">
        <ele>378.0</ele>
        <time>2020-03-15T08:12:37Z</time>
      </trkpt>
      <trkpt lat="38.3051330" lon="-0.8102700">
        <ele>378.0</ele>
        <time>2020-03-15T08:12:38Z</time>
      </trkpt>
      <trkpt lat="38.3051210" lon="-0.8102210">
        <ele>378.4</ele>
        <time>2020-03-15T08:12:39Z</time>
      </trkpt>
      <trkpt lat="38.3051070" lon="-0.8101690">
        <ele>378.6</ele>
        <time>2020-03-15T08:12:40Z</time>
      </trkpt>
      <trkpt lat="38.3050970" lon="-0.8101190">
        <ele>378.8</ele>
        <time>2020-03-15T08:12:41Z</time>
      </trkpt>
      <trkpt lat="38.3050900" lon="-0.8100640">
        <ele>378.8</ele>
        <time>2020-03-15T08:12:42Z</time>
      </trkpt>
      <trkpt lat="38.3050890" lon="-0.8100100">
        <ele>379.2</ele>
        <time>2020-03-15T08:12:43Z</time>
      </trkpt>
      <trkpt lat="38.3050860" lon="-0.8099550">
        <ele>379.2</ele>
        <time>2020-03-15T08:12:44Z</time>
      </trkpt>
      <trkpt lat="38.3050860" lon="-0.8098990">
        <ele>379.4</ele>
        <time>2020-03-15T08:12:45Z</time>
      </trkpt>
      <trkpt lat="38.3050960" lon="-0.8098430">
        <ele>379.6</ele>
        <time>2020-03-15T08:12:46Z</time>
      </trkpt>
      <trkpt lat="38.3051190" lon="-0.8097960">
        <ele>379.6</ele>
        <time>2020-03-15T08:12:47Z</time>
      </trkpt>
      <trkpt lat="38.3051550" lon="-0.8097590">
        <ele>379.6</ele>
        <time>2020-03-15T08:12:48Z</time>
      </trkpt>
      <trkpt lat="38.3052000" lon="-0.8097320">
        <ele>379.6</ele>
        <time>2020-03-15T08:12:49Z</time>
      </trkpt>
      <trkpt lat="38.3052490" lon="-0.8097050">
        <ele>379.2</ele>
        <time>2020-03-15T08:12:50Z</time>
      </trkpt>
      <trkpt lat="38.3052990" lon="-0.8096790">
        <ele>379.0</ele>
        <time>2020-03-15T08:12:51Z</time>
      </trkpt>
      <trkpt lat="38.3053530" lon="-0.8096530">
        <ele>378.8</ele>
        <time>2020-03-15T08:12:52Z</time>
      </trkpt>
      <trkpt lat="38.3054090" lon="-0.8096300">
        <ele>378.8</ele>
        <time>2020-03-15T08:12:53Z</time>
      </trkpt>
      <trkpt lat="38.3054660" lon="-0.8096080">
        <ele>378.8</ele>
        <time>2020-03-15T08:12:54Z</time>
      </trkpt>
      <trkpt lat="38.3055260" lon="-0.8095900">
        <ele>378.6</ele>
        <time>2020-03-15T08:12:55Z</time>
      </trkpt>
      <trkpt lat="38.3055840" lon="-0.8095740">
        <ele>378.6</ele>
        <time>2020-03-15T08:12:56Z</time>
      </trkpt>
      <trkpt lat="38.3056420" lon="-0.8095580">
        <ele>378.6</ele>
        <time>2020-03-15T08:12:57Z</time>
      </trkpt>
      <trkpt lat="38.3057000" lon="-0.8095430">
        <ele>378.8</ele>
        <time>2020-03-15T08:12:58Z</time>
      </trkpt>
      <trkpt lat="38.3057590" lon="-0.8095250">
        <ele>378.6</ele>
        <time>2020-03-15T08:12:59Z</time>
      </trkpt>
      <trkpt lat="38.3058160" lon="-0.8095070">
        <ele>378.6</ele>
        <time>2020-03-15T08:13:00Z</time>
      </trkpt>
      <trkpt lat="38.3058740" lon="-0.8094890">
        <ele>378.4</ele>
        <time>2020-03-15T08:13:01Z</time>
      </trkpt>
      <trkpt lat="38.3059320" lon="-0.8094690">
        <ele>378.6</ele>
        <time>2020-03-15T08:13:02Z</time>
      </trkpt>
      <trkpt lat="38.3059880" lon="-0.8094470">
        <ele>378.6</ele>
        <time>2020-03-15T08:13:03Z</time>
      </trkpt>
      <trkpt lat="38.3060430" lon="-0.8094200">
        <ele>378.8</ele>
        <time>2020-03-15T08:13:04Z</time>
      </trkpt>
      <trkpt lat="38.3060900" lon="-0.8093790">
        <ele>378.6</ele>
        <time>2020-03-15T08:13:05Z</time>
      </trkpt>
      <trkpt lat="38.3061220" lon="-0.8093210">
        <ele>379.0</ele>
        <time>2020-03-15T08:13:06Z</time>
      </trkpt>
      <trkpt lat="38.3061390" lon="-0.8092550">
        <ele>379.2</ele>
        <time>2020-03-15T08:13:07Z</time>
      </trkpt>
      <trkpt lat="38.3061430" lon="-0.8091900">
        <ele>379.6</ele>
        <time>2020-03-15T08:13:08Z</time>
      </trkpt>
      <trkpt lat="38.3061390" lon="-0.8091260">
        <ele>379.8</ele>
        <time>2020-03-15T08:13:09Z</time>
      </trkpt>
      <trkpt lat="38.3061310" lon="-0.8090660">
        <ele>380.2</ele>
        <time>2020-03-15T08:13:10Z</time>
      </trkpt>
      <trkpt lat="38.3061240" lon="-0.8090130">
        <ele>380.8</ele>
        <time>2020-03-15T08:13:11Z</time>
      </trkpt>
      <trkpt lat="38.3061140" lon="-0.8089630">
        <ele>381.0</ele>
        <time>2020-03-15T08:13:12Z</time>
      </trkpt>
      <trkpt lat="38.3061020" lon="-0.8089160">
        <ele>381.4</ele>
        <time>2020-03-15T08:13:13Z</time>
      </trkpt>
      <trkpt lat="38.3060880" lon="-0.8088700">
        <ele>381.8</ele>
        <time>2020-03-15T08:13:14Z</time>
      </trkpt>
      <trkpt lat="38.3060690" lon="-0.8088280">
        <ele>381.8</ele>
        <time>2020-03-15T08:13:15Z</time>
      </trkpt>
      <trkpt lat="38.3060470" lon="-0.8087870">
        <ele>381.8</ele>
        <time>2020-03-15T08:13:16Z</time>
      </trkpt>
      <trkpt lat="38.3060220" lon="-0.8087450">
        <ele>382.2</ele>
        <time>2020-03-15T08:13:17Z</time>
      </trkpt>
      <trkpt lat="38.3059970" lon="-0.8087040">
        <ele>382.2</ele>
        <time>2020-03-15T08:13:18Z</time>
      </trkpt>
      <trkpt lat="38.3059710" lon="-0.8086620">
        <ele>382.6</ele>
        <time>2020-03-15T08:13:19Z</time>
      </trkpt>
      <trkpt lat="38.3059440" lon="-0.8086190">
        <ele>382.6</ele>
        <time>2020-03-15T08:13:20Z</time>
      </trkpt>
      <trkpt lat="38.3059200" lon="-0.8085740">
        <ele>383.0</ele>
        <time>2020-03-15T08:13:21Z</time>
      </trkpt>
      <trkpt lat="38.3059000" lon="-0.8085250">
        <ele>383.2</ele>
        <time>2020-03-15T08:13:22Z</time>
      </trkpt>
      <trkpt lat="38.3058830" lon="-0.8084740">
        <ele>383.6</ele>
        <time>2020-03-15T08:13:23Z</time>
      </trkpt>
      <trkpt lat="38.3058690" lon="-0.8084200">
        <ele>383.6</ele>
        <time>2020-03-15T08:13:24Z</time>
      </trkpt>
      <trkpt lat="38.3058600" lon="-0.8083670">
        <ele>383.6</ele>
        <time>2020-03-15T08:13:25Z</time>
      </trkpt>
      <trkpt lat="38.3058540" lon="-0.8083130">
        <ele>384.2</ele>
        <time>2020-03-15T08:13:26Z</time>
      </trkpt>
      <trkpt lat="38.3058510" lon="-0.8082600">
        <ele>384.2</ele>
        <time>2020-03-15T08:13:27Z</time>
      </trkpt>
      <trkpt lat="38.3058500" lon="-0.8082090">
        <ele>384.2</ele>
        <time>2020-03-15T08:13:28Z</time>
      </trkpt>
      <trkpt lat="38.3058500" lon="-0.8081600">
        <ele>384.6</ele>
        <time>2020-03-15T08:13:29Z</time>
      </trkpt>
      <trkpt lat="38.3058460" lon="-0.8081110">
        <ele>384.8</ele>
        <time>2020-03-15T08:13:30Z</time>
      </trkpt>
      <trkpt lat="38.3058410" lon="-0.8080630">
        <ele>385.6</ele>
        <time>2020-03-15T08:13:31Z</time>
      </trkpt>
      <trkpt lat="38.3058330" lon="-0.8080170">
        <ele>385.6</ele>
        <time>2020-03-15T08:13:32Z</time>
      </trkpt>
      <trkpt lat="38.3058230" lon="-0.8079700">
        <ele>386.0</ele>
        <time>2020-03-15T08:13:33Z</time>
      </trkpt>
      <trkpt lat="38.3058080" lon="-0.8079240">
        <ele>386.0</ele>
        <time>2020-03-15T08:13:34Z</time>
      </trkpt>
      <trkpt lat="38.3057900" lon="-0.8078800">
        <ele>386.2</ele>
        <time>2020-03-15T08:13:35Z</time>
      </trkpt>
      <trkpt lat="38.3057710" lon="-0.8078380">
        <ele>386.6</ele>
        <time>2020-03-15T08:13:36Z</time>
      </trkpt>
      <trkpt lat="38.3057500" lon="-0.8077950">
        <ele>386.6</ele>
        <time>2020-03-15T08:13:37Z</time>
      </trkpt>
      <trkpt lat="38.3057300" lon="-0.8077520">
        <ele>386.8</ele>
        <time>2020-03-15T08:13:38Z</time>
      </trkpt>
      <trkpt lat="38.3057090" lon="-0.8077090">
        <ele>387.2</ele>
        <time>2020-03-15T08:13:39Z</time>
      </trkpt>
      <trkpt lat="38.3056880" lon="-0.8076640">
        <ele>387.8</ele>
        <time>2020-03-15T08:13:40Z</time>
      </trkpt>
      <trkpt lat="38.3056660" lon="-0.8076240">
        <ele>387.8</ele>
        <time>2020-03-15T08:13:41Z</time>
      </trkpt>
      <trkpt lat="38.3056410" lon="-0.8075810">
        <ele>388.0</ele>
        <time>2020-03-15T08:13:42Z</time>
      </trkpt>
      <trkpt lat="38.3056150" lon="-0.8075380">
        <ele>388.2</ele>
        <time>2020-03-15T08:13:43Z</time>
      </trkpt>
      <trkpt lat="38.3055910" lon="-0.8074990">
        <ele>388.6</ele>
        <time>2020-03-15T08:13:44Z</time>
      </trkpt>
      <trkpt lat="38.3055660" lon="-0.8074570">
        <ele>388.6</ele>
        <time>2020-03-15T08:13:45Z</time>
      </trkpt>
      <trkpt lat="38.3055380" lon="-0.8074170">
        <ele>388.8</ele>
        <time>2020-03-15T08:13:46Z</time>
      </trkpt>
      <trkpt lat="38.3055130" lon="-0.8073770">
        <ele>389.0</ele>
        <time>2020-03-15T08:13:47Z</time>
      </trkpt>
      <trkpt lat="38.3054870" lon="-0.8073380">
        <ele>389.2</ele>
        <time>2020-03-15T08:13:48Z</time>
      </trkpt>
      <trkpt lat="38.3054610" lon="-0.8072990">
        <ele>389.6</ele>
        <time>2020-03-15T08:13:49Z</time>
      </trkpt>
      <trkpt lat="38.3054370" lon="-0.8072590">
        <ele>389.8</ele>
        <time>2020-03-15T08:13:50Z</time>
      </trkpt>
      <trkpt lat="38.3054120" lon="-0.8072190">
        <ele>390.0</ele>
        <time>2020-03-15T08:13:51Z</time>
      </trkpt>
      <trkpt lat="38.3053850" lon="-0.8071820">
        <ele>390.2</ele>
        <time>2020-03-15T08:13:52Z</time>
      </trkpt>
      <trkpt lat="38.3053600" lon="-0.8071420">
        <ele>390.6</ele>
        <time>2020-03-15T08:13:53Z</time>
      </trkpt>
      <trkpt lat="38.3053360" lon="-0.8071050">
        <ele>390.6</ele>
        <time>2020-03-15T08:13:54Z</time>
      </trkpt>
      <trkpt lat="38.3053110" lon="-0.8070660">
        <ele>390.8</ele>
        <time>2020-03-15T08:13:55Z</time>
      </trkpt>
      <trkpt lat="38.3052860" lon="-0.8070260">
        <ele>391.2</ele>
        <time>2020-03-15T08:13:56Z</time>
      </trkpt>
      <trkpt lat="38.3052620" lon="-0.8069860">
        <ele>391.6</ele>
        <time>2020-03-15T08:13:57Z</time>
      </trkpt>
      <trkpt lat="38.3052360" lon="-0.8069470">
        <ele>392.0</ele>
        <time>2020-03-15T08:13:58Z</time>
      </trkpt>
      <trkpt lat="38.3052120" lon="-0.8069050">
        <ele>392.0</ele>
        <time>2020-03-15T08:13:59Z</time>
      </trkpt>
      <trkpt lat="38.3051880" lon="-0.8068630">
        <ele>392.2</ele>
        <time>2020-03-15T08:14:00Z</time>
      </trkpt>
      <trkpt lat="38.3051640" lon="-0.8068190">
        <ele>392.4</ele>
        <time>2020-03-15T08:14:01Z</time>
      </trkpt>
      <trkpt lat="38.3051370" lon="-0.8067760">
        <ele>392.6</ele>
        <time>2020-03-15T08:14:02Z</time>
      </trkpt>
      <trkpt lat="38.3051110" lon="-0.8067320">
        <ele>392.8</ele>
        <time>2020-03-15T08:14:03Z</time>
      </trkpt>
      <trkpt lat="38.3050830" lon="-0.8066890">
        <ele>392.8</ele>
        <time>2020-03-15T08:14:04Z</time>
      </trkpt>
      <trkpt lat="38.3050550" lon="-0.8066430">
        <ele>393.0</ele>
        <time>2020-03-15T08:14:05Z</time>
      </trkpt>
      <trkpt lat="38.3050270" lon="-0.8065980">
        <ele>393.0</ele>
        <time>2020-03-15T08:14:06Z</time>
      </trkpt>
      <trkpt lat="38.3050000" lon="-0.8065520">
        <ele>393.0</ele>
        <time>2020-03-15T08:14:07Z</time>
      </trkpt>
      <trkpt lat="38.3049720" lon="-0.8065050">
        <ele>393.2</ele>
        <time>2020-03-15T08:14:08Z</time>
      </trkpt>
      <trkpt lat="38.3049460" lon="-0.8064570">
        <ele>393.2</ele>
        <time>2020-03-15T08:14:09Z</time>
      </trkpt>
      <trkpt lat="38.3049180" lon="-0.8064110">
        <ele>393.4</ele>
        <time>2020-03-15T08:14:10Z</time>
      </trkpt>
      <trkpt lat="38.3048900" lon="-0.8063610">
        <ele>393.4</ele>
        <time>2020-03-15T08:14:11Z</time>
      </trkpt>
      <trkpt lat="38.3048620" lon="-0.8063140">
        <ele>393.6</ele>
        <time>2020-03-15T08:14:12Z</time>
      </trkpt>
      <trkpt lat="38.3048330" lon="-0.8062650">
        <ele>393.8</ele>
        <time>2020-03-15T08:14:13Z</time>
      </trkpt>
      <trkpt lat="38.3048030" lon="-0.8062170">
        <ele>393.8</ele>
        <time>2020-03-15T08:14:14Z</time>
      </trkpt>
      <trkpt lat="38.3047740" lon="-0.8061700">
        <ele>393.8</ele>
        <time>2020-03-15T08:14:15Z</time>
      </trkpt>
      <trkpt lat="38.3047450" lon="-0.8061210">
        <ele>393.8</ele>
        <time>2020-03-15T08:14:16Z</time>
      </trkpt>
      <trkpt lat="38.3047150" lon="-0.8060700">
        <ele>393.8</ele>
        <time>2020-03-15T08:14:17Z</time>
      </trkpt>
      <trkpt lat="38.3046830" lon="-0.8060220">
        <ele>394.0</ele>
        <time>2020-03-15T08:14:18Z</time>
      </trkpt>
      <trkpt lat="38.3046520" lon="-0.8059730">
        <ele>394.2</ele>
        <time>2020-03-15T08:14:19Z</time>
      </trkpt>
      <trkpt lat="38.3046240" lon="-0.8059240">
        <ele>394.2</ele>
        <time>2020-03-15T08:14:20Z</time>
      </trkpt>
      <trkpt lat="38.3045930" lon="-0.8058740">
        <ele>394.2</ele>
        <time>2020-03-15T08:14:21Z</time>
      </trkpt>
      <trkpt lat="38.3045630" lon="-0.8058220">
        <ele>394.2</ele>
        <time>2020-03-15T08:14:22Z</time>
      </trkpt>
      <trkpt lat="38.3045340" lon="-0.8057690">
        <ele>394.2</ele>
        <time>2020-03-15T08:14:23Z</time>
      </trkpt>
      <trkpt lat="38.3045050" lon="-0.8057170">
        <ele>394.4</ele>
        <time>2020-03-15T08:14:24Z</time>
      </trkpt>
      <trkpt lat="38.3044760" lon="-0.8056620">
        <ele>394.4</ele>
        <time>2020-03-15T08:14:25Z</time>
      </trkpt>
      <trkpt lat="38.3044490" lon="-0.8056060">
        <ele>394.4</ele>
        <time>2020-03-15T08:14:26Z</time>
      </trkpt>
      <trkpt lat="38.3044210" lon="-0.8055510">
        <ele>394.4</ele>
        <time>2020-03-15T08:14:27Z</time>
      </trkpt>
      <trkpt lat="38.3043940" lon="-0.8054940">
        <ele>394.8</ele>
        <time>2020-03-15T08:14:28Z</time>
      </trkpt>
      <trkpt lat="38.3043660" lon="-0.8054380">
        <ele>394.8</ele>
        <time>2020-03-15T08:14:29Z</time>
      </trkpt>
      <trkpt lat="38.3043400" lon="-0.8053830">
        <ele>395.0</ele>
        <time>2020-03-15T08:14:30Z</time>
      </trkpt>
      <trkpt lat="38.3043180" lon="-0.8053260">
        <ele>395.0</ele>
        <time>2020-03-15T08:14:31Z</time>
      </trkpt>
      <trkpt lat="38.3042980" lon="-0.8052670">
        <ele>395.2</ele>
        <time>2020-03-15T08:14:32Z</time>
      </trkpt>
      <trkpt lat="38.3042860" lon="-0.8052220">
        <ele>395.4</ele>
        <time>2020-03-15T08:14:33Z</time>
      </trkpt>
      <trkpt lat="38.3042730" lon="-0.8051770">
        <ele>395.6</ele>
        <time>2020-03-15T08:14:34Z</time>
      </trkpt>
      <trkpt lat="38.3042470" lon="-0.8050880">
        <ele>395.6</ele>
        <time>2020-03-15T08:14:35Z</time>
      </trkpt>
      <trkpt lat="38.3042350" lon="-0.8050270">
        <ele>395.8</ele>
        <time>2020-03-15T08:14:36Z</time>
      </trkpt>
      <trkpt lat="38.3042250" lon="-0.8049660">
        <ele>396.0</ele>
        <time>2020-03-15T08:14:37Z</time>
      </trkpt>
      <trkpt lat="38.3042170" lon="-0.8049040">
        <ele>396.2</ele>
        <time>2020-03-15T08:14:38Z</time>
      </trkpt>
      <trkpt lat="38.3042110" lon="-0.8048420">
        <ele>396.2</ele>
        <time>2020-03-15T08:14:39Z</time>
      </trkpt>
      <trkpt lat="38.3042070" lon="-0.8047820">
        <ele>396.4</ele>
        <time>2020-03-15T08:14:40Z</time>
      </trkpt>
      <trkpt lat="38.3042070" lon="-0.8047210">
        <ele>396.4</ele>
        <time>2020-03-15T08:14:41Z</time>
      </trkpt>
      <trkpt lat="38.3042080" lon="-0.8046620">
        <ele>396.6</ele>
        <time>2020-03-15T08:14:42Z</time>
      </trkpt>
      <trkpt lat="38.3042140" lon="-0.8046020">
        <ele>396.8</ele>
        <time>2020-03-15T08:14:43Z</time>
      </trkpt>
      <trkpt lat="38.3042180" lon="-0.8045430">
        <ele>397.0</ele>
        <time>2020-03-15T08:14:44Z</time>
      </trkpt>
      <trkpt lat="38.3042260" lon="-0.8044820">
        <ele>397.0</ele>
        <time>2020-03-15T08:14:45Z</time>
      </trkpt>
      <trkpt lat="38.3042380" lon="-0.8044210">
        <ele>397.2</ele>
        <time>2020-03-15T08:14:46Z</time>
      </trkpt>
      <trkpt lat="38.3042490" lon="-0.8043600">
        <ele>397.2</ele>
        <time>2020-03-15T08:14:47Z</time>
      </trkpt>
      <trkpt lat="38.3042630" lon="-0.8042980">
        <ele>397.4</ele>
        <time>2020-03-15T08:14:48Z</time>
      </trkpt>
      <trkpt lat="38.3042780" lon="-0.8042380">
        <ele>397.4</ele>
        <time>2020-03-15T08:14:49Z</time>
      </trkpt>
      <trkpt lat="38.3042910" lon="-0.8041770">
        <ele>397.4</ele>
        <time>2020-03-15T08:14:50Z</time>
      </trkpt>
      <trkpt lat="38.3043060" lon="-0.8041170">
        <ele>397.8</ele>
        <time>2020-03-15T08:14:51Z</time>
      </trkpt>
      <trkpt lat="38.3043210" lon="-0.8040560">
        <ele>398.0</ele>
        <time>2020-03-15T08:14:52Z</time>
      </trkpt>
      <trkpt lat="38.3043360" lon="-0.8039960">
        <ele>398.0</ele>
        <time>2020-03-15T08:14:53Z</time>
      </trkpt>
      <trkpt lat="38.3043500" lon="-0.8039340">
        <ele>398.4</ele>
        <time>2020-03-15T08:14:54Z</time>
      </trkpt>
      <trkpt lat="38.3043640" lon="-0.8038730">
        <ele>398.4</ele>
        <time>2020-03-15T08:14:55Z</time>
      </trkpt>
      <trkpt lat="38.3043790" lon="-0.8038130">
        <ele>398.6</ele>
        <time>2020-03-15T08:14:56Z</time>
      </trkpt>
      <trkpt lat="38.3043930" lon="-0.8037520">
        <ele>398.8</ele>
        <time>2020-03-15T08:14:57Z</time>
      </trkpt>
      <trkpt lat="38.3044060" lon="-0.8036920">
        <ele>398.8</ele>
        <time>2020-03-15T08:14:58Z</time>
      </trkpt>
      <trkpt lat="38.3044190" lon="-0.8036320">
        <ele>399.2</ele>
        <time>2020-03-15T08:14:59Z</time>
      </trkpt>
      <trkpt lat="38.3044330" lon="-0.8035730">
        <ele>399.2</ele>
        <time>2020-03-15T08:15:00Z</time>
      </trkpt>
      <trkpt lat="38.3044460" lon="-0.8035140">
        <ele>399.6</ele>
        <time>2020-03-15T08:15:01Z</time>
      </trkpt>
      <trkpt lat="38.3044600" lon="-0.8034570">
        <ele>399.8</ele>
        <time>2020-03-15T08:15:02Z</time>
      </trkpt>
      <trkpt lat="38.3044740" lon="-0.8034020">
        <ele>400.2</ele>
        <time>2020-03-15T08:15:03Z</time>
      </trkpt>
      <trkpt lat="38.3044860" lon="-0.8033480">
        <ele>400.4</ele>
        <time>2020-03-15T08:15:04Z</time>
      </trkpt>
      <trkpt lat="38.3044980" lon="-0.8032990">
        <ele>400.4</ele>
        <time>2020-03-15T08:15:05Z</time>
      </trkpt>
      <trkpt lat="38.3045120" lon="-0.8032520">
        <ele>400.8</ele>
        <time>2020-03-15T08:15:06Z</time>
      </trkpt>
      <trkpt lat="38.3045270" lon="-0.8032060">
        <ele>401.0</ele>
        <time>2020-03-15T08:15:07Z</time>
      </trkpt>
      <trkpt lat="38.3045440" lon="-0.8031640">
        <ele>401.4</ele>
        <time>2020-03-15T08:15:08Z</time>
      </trkpt>
      <trkpt lat="38.3045600" lon="-0.8031230">
        <ele>401.6</ele>
        <time>2020-03-15T08:15:09Z</time>
      </trkpt>
      <trkpt lat="38.3045800" lon="-0.8030840">
        <ele>401.8</ele>
        <time>2020-03-15T08:15:10Z</time>
      </trkpt>
      <trkpt lat="38.3046000" lon="-0.8030520">
        <ele>402.0</ele>
        <time>2020-03-15T08:15:11Z</time>
      </trkpt>
      <trkpt lat="38.3046220" lon="-0.8030230">
        <ele>402.4</ele>
        <time>2020-03-15T08:15:12Z</time>
      </trkpt>
      <trkpt lat="38.3046450" lon="-0.8029980">
        <ele>402.8</ele>
        <time>2020-03-15T08:15:13Z</time>
      </trkpt>
      <trkpt lat="38.3046690" lon="-0.8029760">
        <ele>402.8</ele>
        <time>2020-03-15T08:15:14Z</time>
      </trkpt>
      <trkpt lat="38.3046920" lon="-0.8029540">
        <ele>403.0</ele>
        <time>2020-03-15T08:15:15Z</time>
      </trkpt>
      <trkpt lat="38.3047170" lon="-0.8029370">
        <ele>403.2</ele>
        <time>2020-03-15T08:15:16Z</time>
      </trkpt>
      <trkpt lat="38.3047450" lon="-0.8029200">
        <ele>403.4</ele>
        <time>2020-03-15T08:15:17Z</time>
      </trkpt>
      <trkpt lat="38.3047730" lon="-0.8029040">
        <ele>403.4</ele>
        <time>2020-03-15T08:15:18Z</time>
      </trkpt>
      <trkpt lat="38.3048020" lon="-0.8028860">
        <ele>403.4</ele>
        <time>2020-03-15T08:15:19Z</time>
      </trkpt>
      <trkpt lat="38.3048300" lon="-0.8028630">
        <ele>403.4</ele>
        <time>2020-03-15T08:15:20Z</time>
      </trkpt>
      <trkpt lat="38.3048620" lon="-0.8028330">
        <ele>403.4</ele>
        <time>2020-03-15T08:15:21Z</time>
      </trkpt>
      <trkpt lat="38.3048920" lon="-0.8028010">
        <ele>403.4</ele>
        <time>2020-03-15T08:15:22Z</time>
      </trkpt>
      <trkpt lat="38.3049270" lon="-0.8027620">
        <ele>403.4</ele>
        <time>2020-03-15T08:15:23Z</time>
      </trkpt>
      <trkpt lat="38.3049600" lon="-0.8027200">
        <ele>403.2</ele>
        <time>2020-03-15T08:15:24Z</time>
      </trkpt>
      <trkpt lat="38.3049930" lon="-0.8026780">
        <ele>403.2</ele>
        <time>2020-03-15T08:15:25Z</time>
      </trkpt>
      <trkpt lat="38.3050270" lon="-0.8026350">
        <ele>403.0</ele>
        <time>2020-03-15T08:15:26Z</time>
      </trkpt>
      <trkpt lat="38.3050600" lon="-0.8025920">
        <ele>403.0</ele>
        <time>2020-03-15T08:15:27Z</time>
      </trkpt>
      <trkpt lat="38.3050960" lon="-0.8025460">
        <ele>403.0</ele>
        <time>2020-03-15T08:15:28Z</time>
      </trkpt>
      <trkpt lat="38.3051310" lon="-0.8025030">
        <ele>403.0</ele>
        <time>2020-03-15T08:15:29Z</time>
      </trkpt>
      <trkpt lat="38.3051620" lon="-0.8024570">
        <ele>402.8</ele>
        <time>2020-03-15T08:15:30Z</time>
      </trkpt>
      <trkpt lat="38.3051980" lon="-0.8024100">
        <ele>402.8</ele>
        <time>2020-03-15T08:15:31Z</time>
      </trkpt>
      <trkpt lat="38.3052350" lon="-0.8023600">
        <ele>402.6</ele>
        <time>2020-03-15T08:15:32Z</time>
      </trkpt>
      <trkpt lat="38.3052720" lon="-0.8023070">
        <ele>402.4</ele>
        <time>2020-03-15T08:15:33Z</time>
      </trkpt>
      <trkpt lat="38.3053110" lon="-0.8022510">
        <ele>402.2</ele>
        <time>2020-03-15T08:15:34Z</time>
      </trkpt>
      <trkpt lat="38.3053500" lon="-0.8021950">
        <ele>402.0</ele>
        <time>2020-03-15T08:15:35Z</time>
      </trkpt>
      <trkpt lat="38.3053930" lon="-0.8021380">
        <ele>401.8</ele>
        <time>2020-03-15T08:15:36Z</time>
      </trkpt>
      <trkpt lat="38.3054390" lon="-0.8020800">
        <ele>401.6</ele>
        <time>2020-03-15T08:15:37Z</time>
      </trkpt>
      <trkpt lat="38.3054850" lon="-0.8020210">
        <ele>401.4</ele>
        <time>2020-03-15T08:15:38Z</time>
      </trkpt>
      <trkpt lat="38.3055320" lon="-0.8019590">
        <ele>401.2</ele>
        <time>2020-03-15T08:15:39Z</time>
      </trkpt>
      <trkpt lat="38.3055790" lon="-0.8018950">
        <ele>401.0</ele>
        <time>2020-03-15T08:15:40Z</time>
      </trkpt>
      <trkpt lat="38.3056260" lon="-0.8018280">
        <ele>400.8</ele>
        <time>2020-03-15T08:15:41Z</time>
      </trkpt>
      <trkpt lat="38.3056740" lon="-0.8017610">
        <ele>400.4</ele>
        <time>2020-03-15T08:15:42Z</time>
      </trkpt>
      <trkpt lat="38.3057220" lon="-0.8016960">
        <ele>400.4</ele>
        <time>2020-03-15T08:15:43Z</time>
      </trkpt>
      <trkpt lat="38.3057690" lon="-0.8016310">
        <ele>400.2</ele>
        <time>2020-03-15T08:15:44Z</time>
      </trkpt>
      <trkpt lat="38.3058190" lon="-0.8015660">
        <ele>399.8</ele>
        <time>2020-03-15T08:15:45Z</time>
      </trkpt>
      <trkpt lat="38.3058660" lon="-0.8015000">
        <ele>399.4</ele>
        <time>2020-03-15T08:15:46Z</time>
      </trkpt>
      <trkpt lat="38.3059130" lon="-0.8014330">
        <ele>399.2</ele>
        <time>2020-03-15T08:15:47Z</time>
      </trkpt>
      <trkpt lat="38.3059590" lon="-0.8013660">
        <ele>398.6</ele>
        <time>2020-03-15T08:15:48Z</time>
      </trkpt>
      <trkpt lat="38.3060030" lon="-0.8012980">
        <ele>398.4</ele>
        <time>2020-03-15T08:15:49Z</time>
      </trkpt>
      <trkpt lat="38.3060490" lon="-0.8012330">
        <ele>398.2</ele>
        <time>2020-03-15T08:15:50Z</time>
      </trkpt>
      <trkpt lat="38.3060940" lon="-0.8011690">
        <ele>398.4</ele>
        <time>2020-03-15T08:15:51Z</time>
      </trkpt>
      <trkpt lat="38.3061390" lon="-0.8011040">
        <ele>398.4</ele>
        <time>2020-03-15T08:15:52Z</time>
      </trkpt>
      <trkpt lat="38.3061840" lon="-0.8010390">
        <ele>398.0</ele>
        <time>2020-03-15T08:15:53Z</time>
      </trkpt>
      <trkpt lat="38.3062290" lon="-0.8009740">
        <ele>398.0</ele>
        <time>2020-03-15T08:15:54Z</time>
      </trkpt>
      <trkpt lat="38.3062750" lon="-0.8009090">
        <ele>397.8</ele>
        <time>2020-03-15T08:15:55Z</time>
      </trkpt>
      <trkpt lat="38.3063200" lon="-0.8008440">
        <ele>397.8</ele>
        <time>2020-03-15T08:15:56Z</time>
      </trkpt>
      <trkpt lat="38.3063640" lon="-0.8007780">
        <ele>397.6</ele>
        <time>2020-03-15T08:15:57Z</time>
      </trkpt>
      <trkpt lat="38.3063970" lon="-0.8007290">
        <ele>397.8</ele>
        <time>2020-03-15T08:15:58Z</time>
      </trkpt>
      <trkpt lat="38.3064300" lon="-0.8006790">
        <ele>397.6</ele>
        <time>2020-03-15T08:15:59Z</time>
      </trkpt>
      <trkpt lat="38.3064960" lon="-0.8005790">
        <ele>397.4</ele>
        <time>2020-03-15T08:16:00Z</time>
      </trkpt>
      <trkpt lat="38.3065430" lon="-0.8005110">
        <ele>397.2</ele>
        <time>2020-03-15T08:16:01Z</time>
      </trkpt>
      <trkpt lat="38.3065940" lon="-0.8004450">
        <ele>396.8</ele>
        <time>2020-03-15T08:16:02Z</time>
      </trkpt>
      <trkpt lat="38.3066490" lon="-0.8003800">
        <ele>396.4</ele>
        <time>2020-03-15T08:16:03Z</time>
      </trkpt>
      <trkpt lat="38.3067060" lon="-0.8003150">
        <ele>396.0</ele>
        <time>2020-03-15T08:16:04Z</time>
      </trkpt>
      <trkpt lat="38.3067620" lon="-0.8002480">
        <ele>395.8</ele>
        <time>2020-03-15T08:16:05Z</time>
      </trkpt>
      <trkpt lat="38.3068160" lon="-0.8001760">
        <ele>395.4</ele>
        <time>2020-03-15T08:16:06Z</time>
      </trkpt>
      <trkpt lat="38.3068650" lon="-0.8000970">
        <ele>395.2</ele>
        <time>2020-03-15T08:16:07Z</time>
      </trkpt>
      <trkpt lat="38.3069070" lon="-0.8000130">
        <ele>395.0</ele>
        <time>2020-03-15T08:16:08Z</time>
      </trkpt>
      <trkpt lat="38.3069440" lon="-0.7999250">
        <ele>394.8</ele>
        <time>2020-03-15T08:16:09Z</time>
      </trkpt>
      <trkpt lat="38.3069760" lon="-0.7998370">
        <ele>394.6</ele>
        <time>2020-03-15T08:16:10Z</time>
      </trkpt>
      <trkpt lat="38.3070070" lon="-0.7997460">
        <ele>394.4</ele>
        <time>2020-03-15T08:16:11Z</time>
      </trkpt>
      <trkpt lat="38.3070390" lon="-0.7996530">
        <ele>394.0</ele>
        <time>2020-03-15T08:16:12Z</time>
      </trkpt>
      <trkpt lat="38.3070700" lon="-0.7995580">
        <ele>393.6</ele>
        <time>2020-03-15T08:16:13Z</time>
      </trkpt>
      <trkpt lat="38.3071000" lon="-0.7994620">
        <ele>393.2</ele>
        <time>2020-03-15T08:16:14Z</time>
      </trkpt>
      <trkpt lat="38.3071330" lon="-0.7993670">
        <ele>393.0</ele>
        <time>2020-03-15T08:16:15Z</time>
      </trkpt>
      <trkpt lat="38.3071680" lon="-0.7992730">
        <ele>392.6</ele>
        <time>2020-03-15T08:16:16Z</time>
      </trkpt>
      <trkpt lat="38.3072050" lon="-0.7991790">
        <ele>392.4</ele>
        <time>2020-03-15T08:16:17Z</time>
      </trkpt>
      <trkpt lat="38.3072440" lon="-0.7990850">
        <ele>392.2</ele>
        <time>2020-03-15T08:16:18Z</time>
      </trkpt>
      <trkpt lat="38.3072840" lon="-0.7989910">
        <ele>391.6</ele>
        <time>2020-03-15T08:16:19Z</time>
      </trkpt>
      <trkpt lat="38.3073250" lon="-0.7988950">
        <ele>391.2</ele>
        <time>2020-03-15T08:16:20Z</time>
      </trkpt>
      <trkpt lat="38.3073680" lon="-0.7987950">
        <ele>390.8</ele>
        <time>2020-03-15T08:16:21Z</time>
      </trkpt>
      <trkpt lat="38.3074090" lon="-0.7986920">
        <ele>390.2</ele>
        <time>2020-03-15T08:16:22Z</time>
      </trkpt>
      <trkpt lat="38.3074510" lon="-0.7985890">
        <ele>389.6</ele>
        <time>2020-03-15T08:16:23Z</time>
      </trkpt>
      <trkpt lat="38.3074900" lon="-0.7984840">
        <ele>389.2</ele>
        <time>2020-03-15T08:16:24Z</time>
      </trkpt>
      <trkpt lat="38.3075280" lon="-0.7983780">
        <ele>388.8</ele>
        <time>2020-03-15T08:16:25Z</time>
      </trkpt>
      <trkpt lat="38.3075670" lon="-0.7982690">
        <ele>388.4</ele>
        <time>2020-03-15T08:16:26Z</time>
      </trkpt>
      <trkpt lat="38.3076070" lon="-0.7981600">
        <ele>387.8</ele>
        <time>2020-03-15T08:16:27Z</time>
      </trkpt>
      <trkpt lat="38.3076480" lon="-0.7980510">
        <ele>387.2</ele>
        <time>2020-03-15T08:16:28Z</time>
      </trkpt>
      <trkpt lat="38.3076880" lon="-0.7979400">
        <ele>386.6</ele>
        <time>2020-03-15T08:16:29Z</time>
      </trkpt>
      <trkpt lat="38.3077280" lon="-0.7978270">
        <ele>386.2</ele>
        <time>2020-03-15T08:16:30Z</time>
      </trkpt>
      <trkpt lat="38.3077680" lon="-0.7977170">
        <ele>385.8</ele>
        <time>2020-03-15T08:16:31Z</time>
      </trkpt>
      <trkpt lat="38.3078090" lon="-0.7976080">
        <ele>385.4</ele>
        <time>2020-03-15T08:16:32Z</time>
      </trkpt>
      <trkpt lat="38.3078480" lon="-0.7974960">
        <ele>385.0</ele>
        <time>2020-03-15T08:16:33Z</time>
      </trkpt>
      <trkpt lat="38.3078820" lon="-0.7973800">
        <ele>384.8</ele>
        <time>2020-03-15T08:16:34Z</time>
      </trkpt>
      <trkpt lat="38.3079100" lon="-0.7972570">
        <ele>384.0</ele>
        <time>2020-03-15T08:16:35Z</time>
      </trkpt>
      <trkpt lat="38.3079340" lon="-0.7971290">
        <ele>383.4</ele>
        <time>2020-03-15T08:16:36Z</time>
      </trkpt>
      <trkpt lat="38.3079540" lon="-0.7970050">
        <ele>382.8</ele>
        <time>2020-03-15T08:16:37Z</time>
      </trkpt>
      <trkpt lat="38.3079760" lon="-0.7968780">
        <ele>382.0</ele>
        <time>2020-03-15T08:16:38Z</time>
      </trkpt>
      <trkpt lat="38.3080010" lon="-0.7967520">
        <ele>381.4</ele>
        <time>2020-03-15T08:16:39Z</time>
      </trkpt>
      <trkpt lat="38.3080310" lon="-0.7966260">
        <ele>380.6</ele>
        <time>2020-03-15T08:16:40Z</time>
      </trkpt>
      <trkpt lat="38.3080670" lon="-0.7965000">
        <ele>379.8</ele>
        <time>2020-03-15T08:16:41Z</time>
      </trkpt>
      <trkpt lat="38.3081090" lon="-0.7963760">
        <ele>379.0</ele>
        <time>2020-03-15T08:16:42Z</time>
      </trkpt>
      <trkpt lat="38.3081550" lon="-0.7962540">
        <ele>378.2</ele>
        <time>2020-03-15T08:16:43Z</time>
      </trkpt>
      <trkpt lat="38.3082050" lon="-0.7961350">
        <ele>377.4</ele>
        <time>2020-03-15T08:16:44Z</time>
      </trkpt>
      <trkpt lat="38.3082580" lon="-0.7960190">
        <ele>376.6</ele>
        <time>2020-03-15T08:16:45Z</time>
      </trkpt>
      <trkpt lat="38.3083110" lon="-0.7959060">
        <ele>376.2</ele>
        <time>2020-03-15T08:16:46Z</time>
      </trkpt>
      <trkpt lat="38.3083660" lon="-0.7957960">
        <ele>375.8</ele>
        <time>2020-03-15T08:16:47Z</time>
      </trkpt>
      <trkpt lat="38.3084190" lon="-0.7956880">
        <ele>375.6</ele>
        <time>2020-03-15T08:16:48Z</time>
      </trkpt>
      <trkpt lat="38.3084730" lon="-0.7955770">
        <ele>375.0</ele>
        <time>2020-03-15T08:16:49Z</time>
      </trkpt>
      <trkpt lat="38.3085240" lon="-0.7954670">
        <ele>374.2</ele>
        <time>2020-03-15T08:16:50Z</time>
      </trkpt>
      <trkpt lat="38.3085760" lon="-0.7953560">
        <ele>373.4</ele>
        <time>2020-03-15T08:16:51Z</time>
      </trkpt>
      <trkpt lat="38.3086420" lon="-0.7952560">
        <ele>372.8</ele>
        <time>2020-03-15T08:16:52Z</time>
      </trkpt>
      <trkpt lat="38.3087260" lon="-0.7951780">
        <ele>372.0</ele>
        <time>2020-03-15T08:16:53Z</time>
      </trkpt>
      <trkpt lat="38.3088240" lon="-0.7951310">
        <ele>371.0</ele>
        <time>2020-03-15T08:16:54Z</time>
      </trkpt>
      <trkpt lat="38.3089280" lon="-0.7951180">
        <ele>370.2</ele>
        <time>2020-03-15T08:16:55Z</time>
      </trkpt>
      <trkpt lat="38.3090300" lon="-0.7951250">
        <ele>369.8</ele>
        <time>2020-03-15T08:16:56Z</time>
      </trkpt>
      <trkpt lat="38.3091300" lon="-0.7951380">
        <ele>369.2</ele>
        <time>2020-03-15T08:16:57Z</time>
      </trkpt>
      <trkpt lat="38.3092280" lon="-0.7951440">
        <ele>368.6</ele>
        <time>2020-03-15T08:16:58Z</time>
      </trkpt>
      <trkpt lat="38.3093250" lon="-0.7951390">
        <ele>368.4</ele>
        <time>2020-03-15T08:16:59Z</time>
      </trkpt>
      <trkpt lat="38.3094170" lon="-0.7951230">
        <ele>368.2</ele>
        <time>2020-03-15T08:17:00Z</time>
      </trkpt>
      <trkpt lat="38.3095060" lon="-0.7950950">
        <ele>368.0</ele>
        <time>2020-03-15T08:17:01Z</time>
      </trkpt>
      <trkpt lat="38.3095900" lon="-0.7950600">
        <ele>368.0</ele>
        <time>2020-03-15T08:17:02Z</time>
      </trkpt>
      <trkpt lat="38.3096690" lon="-0.7950170">
        <ele>368.0</ele>
        <time>2020-03-15T08:17:03Z</time>
      </trkpt>
      <trkpt lat="38.3097450" lon="-0.7949700">
        <ele>367.8</ele>
        <time>2020-03-15T08:17:04Z</time>
      </trkpt>
      <trkpt lat="38.3098160" lon="-0.7949210">
        <ele>367.8</ele>
        <time>2020-03-15T08:17:05Z</time>
      </trkpt>
      <trkpt lat="38.3098860" lon="-0.7948700">
        <ele>367.8</ele>
        <time>2020-03-15T08:17:06Z</time>
      </trkpt>
      <trkpt lat="38.3099530" lon="-0.7948090">
        <ele>368.0</ele>
        <time>2020-03-15T08:17:07Z</time>
      </trkpt>
      <trkpt lat="38.3100180" lon="-0.7947440">
        <ele>367.8</ele>
        <time>2020-03-15T08:17:08Z</time>
      </trkpt>
      <trkpt lat="38.3100840" lon="-0.7946810">
        <ele>367.4</ele>
        <time>2020-03-15T08:17:09Z</time>
      </trkpt>
      <trkpt lat="38.3101450" lon="-0.7946250">
        <ele>367.4</ele>
        <time>2020-03-15T08:17:10Z</time>
      </trkpt>
      <trkpt lat="38.3102040" lon="-0.7945740">
        <ele>368.0</ele>
        <time>2020-03-15T08:17:11Z</time>
      </trkpt>
      <trkpt lat="38.3102620" lon="-0.7945290">
        <ele>368.4</ele>
        <time>2020-03-15T08:17:12Z</time>
      </trkpt>
      <trkpt lat="38.3103220" lon="-0.7944940">
        <ele>368.8</ele>
        <time>2020-03-15T08:17:13Z</time>
      </trkpt>
      <trkpt lat="38.3103840" lon="-0.7944740">
        <ele>369.0</ele>
        <time>2020-03-15T08:17:14Z</time>
      </trkpt>
      <trkpt lat="38.3104460" lon="-0.7944700">
        <ele>369.4</ele>
        <time>2020-03-15T08:17:15Z</time>
      </trkpt>
      <trkpt lat="38.3105090" lon="-0.7944730">
        <ele>369.6</ele>
        <time>2020-03-15T08:17:16Z</time>
      </trkpt>
      <trkpt lat="38.3105510" lon="-0.7944810">
        <ele>369.8</ele>
        <time>2020-03-15T08:17:17Z</time>
      </trkpt>
      <trkpt lat="38.3105920" lon="-0.7944900">
        <ele>370.0</ele>
        <time>2020-03-15T08:17:18Z</time>
      </trkpt>
      <trkpt lat="38.3106750" lon="-0.7945080">
        <ele>370.4</ele>
        <time>2020-03-15T08:17:19Z</time>
      </trkpt>
      <trkpt lat="38.3107260" lon="-0.7945190">
        <ele>370.8</ele>
        <time>2020-03-15T08:17:20Z</time>
      </trkpt>
      <trkpt lat="38.3107770" lon="-0.7945300">
        <ele>371.2</ele>
        <time>2020-03-15T08:17:21Z</time>
      </trkpt>
      <trkpt lat="38.3108270" lon="-0.7945360">
        <ele>371.8</ele>
        <time>2020-03-15T08:17:22Z</time>
      </trkpt>
      <trkpt lat="38.3108770" lon="-0.7945400">
        <ele>372.0</ele>
        <time>2020-03-15T08:17:23Z</time>
      </trkpt>
      <trkpt lat="38.3109280" lon="-0.7945370">
        <ele>372.2</ele>
        <time>2020-03-15T08:17:24Z</time>
      </trkpt>
      <trkpt lat="38.3109810" lon="-0.7945240">
        <ele>372.6</ele>
        <time>2020-03-15T08:17:25Z</time>
      </trkpt>
      <trkpt lat="38.3110310" lon="-0.7945060">
        <ele>373.0</ele>
        <time>2020-03-15T08:17:26Z</time>
      </trkpt>
      <trkpt lat="38.3110790" lon="-0.7944850">
        <ele>373.0</ele>
        <time>2020-03-15T08:17:27Z</time>
      </trkpt>
      <trkpt lat="38.3111260" lon="-0.7944630">
        <ele>373.4</ele>
        <time>2020-03-15T08:17:28Z</time>
      </trkpt>
      <trkpt lat="38.3111720" lon="-0.7944380">
        <ele>373.8</ele>
        <time>2020-03-15T08:17:29Z</time>
      </trkpt>
      <trkpt lat="38.3112170" lon="-0.7944110">
        <ele>374.0</ele>
        <time>2020-03-15T08:17:30Z</time>
      </trkpt>
      <trkpt lat="38.3112630" lon="-0.7943830">
        <ele>374.2</ele>
        <time>2020-03-15T08:17:31Z</time>
      </trkpt>
      <trkpt lat="38.3113080" lon="-0.7943560">
        <ele>374.2</ele>
        <time>2020-03-15T08:17:32Z</time>
      </trkpt>
      <trkpt lat="38.3113540" lon="-0.7943290">
        <ele>374.6</ele>
        <time>2020-03-15T08:17:33Z</time>
      </trkpt>
      <trkpt lat="38.3114000" lon="-0.7943020">
        <ele>374.6</ele>
        <time>2020-03-15T08:17:34Z</time>
      </trkpt>
      <trkpt lat="38.3114490" lon="-0.7942730">
        <ele>374.4</ele>
        <time>2020-03-15T08:17:35Z</time>
      </trkpt>
      <trkpt lat="38.3115020" lon="-0.7942440">
        <ele>374.4</ele>
        <time>2020-03-15T08:17:36Z</time>
      </trkpt>
      <trkpt lat="38.3115560" lon="-0.7942140">
        <ele>374.2</ele>
        <time>2020-03-15T08:17:37Z</time>
      </trkpt>
      <trkpt lat="38.3116130" lon="-0.7941860">
        <ele>373.8</ele>
        <time>2020-03-15T08:17:38Z</time>
      </trkpt>
      <trkpt lat="38.3116730" lon="-0.7941590">
        <ele>373.6</ele>
        <time>2020-03-15T08:17:39Z</time>
      </trkpt>
      <trkpt lat="38.3117360" lon="-0.7941310">
        <ele>373.2</ele>
        <time>2020-03-15T08:17:40Z</time>
      </trkpt>
      <trkpt lat="38.3118010" lon="-0.7941030">
        <ele>373.0</ele>
        <time>2020-03-15T08:17:41Z</time>
      </trkpt>
      <trkpt lat="38.3118700" lon="-0.7940730">
        <ele>372.4</ele>
        <time>2020-03-15T08:17:42Z</time>
      </trkpt>
      <trkpt lat="38.3119420" lon="-0.7940440">
        <ele>371.8</ele>
        <time>2020-03-15T08:17:43Z</time>
      </trkpt>
      <trkpt lat="38.3120160" lon="-0.7940120">
        <ele>371.6</ele>
        <time>2020-03-15T08:17:44Z</time>
      </trkpt>
      <trkpt lat="38.3120930" lon="-0.7939810">
        <ele>371.2</ele>
        <time>2020-03-15T08:17:45Z</time>
      </trkpt>
      <trkpt lat="38.3121740" lon="-0.7939510">
        <ele>370.6</ele>
        <time>2020-03-15T08:17:46Z</time>
      </trkpt>
      <trkpt lat="38.3122570" lon="-0.7939190">
        <ele>370.2</ele>
        <time>2020-03-15T08:17:47Z</time>
      </trkpt>
      <trkpt lat="38.3123220" lon="-0.7938940">
        <ele>369.4</ele>
        <time>2020-03-15T08:17:48Z</time>
      </trkpt>
      <trkpt lat="38.3123860" lon="-0.7938690">
        <ele>369.0</ele>
        <time>2020-03-15T08:17:49Z</time>
      </trkpt>
      <trkpt lat="38.3125140" lon="-0.7938180">
        <ele>368.6</ele>
        <time>2020-03-15T08:17:50Z</time>
      </trkpt>
      <trkpt lat="38.3126020" lon="-0.7937840">
        <ele>368.0</ele>
        <time>2020-03-15T08:17:51Z</time>
      </trkpt>
      <trkpt lat="38.3126930" lon="-0.7937480">
        <ele>367.6</ele>
        <time>2020-03-15T08:17:52Z</time>
      </trkpt>
      <trkpt lat="38.3127850" lon="-0.7937110">
        <ele>367.0</ele>
        <time>2020-03-15T08:17:53Z</time>
      </trkpt>
      <trkpt lat="38.3128780" lon="-0.7936720">
        <ele>366.4</ele>
        <time>2020-03-15T08:17:54Z</time>
      </trkpt>
      <trkpt lat="38.3129720" lon="-0.7936320">
        <ele>365.8</ele>
        <time>2020-03-15T08:17:55Z</time>
      </trkpt>
      <trkpt lat="38.3130690" lon="-0.7935940">
        <ele>365.4</ele>
        <time>2020-03-15T08:17:56Z</time>
      </trkpt>
      <trkpt lat="38.3131650" lon="-0.7935550">
        <ele>364.8</ele>
        <time>2020-03-15T08:17:57Z</time>
      </trkpt>
      <trkpt lat="38.3132630" lon="-0.7935160">
        <ele>364.0</ele>
        <time>2020-03-15T08:17:58Z</time>
      </trkpt>
      <trkpt lat="38.3133610" lon="-0.7934760">
        <ele>363.2</ele>
        <time>2020-03-15T08:17:59Z</time>
      </trkpt>
      <trkpt lat="38.3134610" lon="-0.7934350">
        <ele>362.8</ele>
        <time>2020-03-15T08:18:00Z</time>
      </trkpt>
      <trkpt lat="38.3135610" lon="-0.7933960">
        <ele>362.2</ele>
        <time>2020-03-15T08:18:01Z</time>
      </trkpt>
      <trkpt lat="38.3136620" lon="-0.7933570">
        <ele>361.8</ele>
        <time>2020-03-15T08:18:02Z</time>
      </trkpt>
      <trkpt lat="38.3137650" lon="-0.7933210">
        <ele>361.0</ele>
        <time>2020-03-15T08:18:03Z</time>
      </trkpt>
      <trkpt lat="38.3138700" lon="-0.7932940">
        <ele>360.4</ele>
        <time>2020-03-15T08:18:04Z</time>
      </trkpt>
      <trkpt lat="38.3139760" lon="-0.7932840">
        <ele>359.8</ele>
        <time>2020-03-15T08:18:05Z</time>
      </trkpt>
      <trkpt lat="38.3140840" lon="-0.7932910">
        <ele>359.2</ele>
        <time>2020-03-15T08:18:06Z</time>
      </trkpt>
      <trkpt lat="38.3141910" lon="-0.7933170">
        <ele>358.4</ele>
        <time>2020-03-15T08:18:07Z</time>
      </trkpt>
      <trkpt lat="38.3142960" lon="-0.7933540">
        <ele>357.8</ele>
        <time>2020-03-15T08:18:08Z</time>
      </trkpt>
      <trkpt lat="38.3144010" lon="-0.7933930">
        <ele>357.2</ele>
        <time>2020-03-15T08:18:09Z</time>
      </trkpt>
      <trkpt lat="38.3145080" lon="-0.7934300">
        <ele>356.6</ele>
        <time>2020-03-15T08:18:10Z</time>
      </trkpt>
      <trkpt lat="38.3146170" lon="-0.7934600">
        <ele>355.8</ele>
        <time>2020-03-15T08:18:11Z</time>
      </trkpt>
      <trkpt lat="38.3147290" lon="-0.7934770">
        <ele>355.0</ele>
        <time>2020-03-15T08:18:12Z</time>
      </trkpt>
      <trkpt lat="38.3148400" lon="-0.7934670">
        <ele>354.2</ele>
        <time>2020-03-15T08:18:13Z</time>
      </trkpt>
      <trkpt lat="38.3149480" lon="-0.7934310">
        <ele>353.4</ele>
        <time>2020-03-15T08:18:14Z</time>
      </trkpt>
      <trkpt lat="38.3150510" lon="-0.7933780">
        <ele>352.6</ele>
        <time>2020-03-15T08:18:15Z</time>
      </trkpt>
      <trkpt lat="38.3151530" lon="-0.7933140">
        <ele>352.2</ele>
        <time>2020-03-15T08:18:16Z</time>
      </trkpt>
      <trkpt lat="38.3152530" lon="-0.7932480">
        <ele>351.6</ele>
        <time>2020-03-15T08:18:17Z</time>
      </trkpt>
      <trkpt lat="38.3153550" lon="-0.7931830">
        <ele>350.8</ele>
        <time>2020-03-15T08:18:18Z</time>
      </trkpt>
      <trkpt lat="38.3154580" lon="-0.7931190">
        <ele>350.2</ele>
        <time>2020-03-15T08:18:19Z</time>
      </trkpt>
      <trkpt lat="38.3155620" lon="-0.7930540">
        <ele>349.6</ele>
        <time>2020-03-15T08:18:20Z</time>
      </trkpt>
      <trkpt lat="38.3156650" lon="-0.7929880">
        <ele>348.8</ele>
        <time>2020-03-15T08:18:21Z</time>
      </trkpt>
      <trkpt lat="38.3157690" lon="-0.7929220">
        <ele>348.0</ele>
        <time>2020-03-15T08:18:22Z</time>
      </trkpt>
      <trkpt lat="38.3158740" lon="-0.7928570">
        <ele>347.2</ele>
        <time>2020-03-15T08:18:23Z</time>
      </trkpt>
      <trkpt lat="38.3159780" lon="-0.7927910">
        <ele>346.4</ele>
        <time>2020-03-15T08:18:24Z</time>
      </trkpt>
      <trkpt lat="38.3160830" lon="-0.7927260">
        <ele>346.0</ele>
        <time>2020-03-15T08:18:25Z</time>
      </trkpt>
      <trkpt lat="38.3161880" lon="-0.7926610">
        <ele>345.0</ele>
        <time>2020-03-15T08:18:26Z</time>
      </trkpt>
      <trkpt lat="38.3162910" lon="-0.7925950">
        <ele>344.4</ele>
        <time>2020-03-15T08:18:27Z</time>
      </trkpt>
      <trkpt lat="38.3163950" lon="-0.7925280">
        <ele>343.8</ele>
        <time>2020-03-15T08:18:28Z</time>
      </trkpt>
      <trkpt lat="38.3164990" lon="-0.7924620">
        <ele>343.2</ele>
        <time>2020-03-15T08:18:29Z</time>
      </trkpt>
      <trkpt lat="38.3166020" lon="-0.7923970">
        <ele>342.6</ele>
        <time>2020-03-15T08:18:30Z</time>
      </trkpt>
      <trkpt lat="38.3167070" lon="-0.7923320">
        <ele>342.0</ele>
        <time>2020-03-15T08:18:31Z</time>
      </trkpt>
      <trkpt lat="38.3168120" lon="-0.7922660">
        <ele>341.4</ele>
        <time>2020-03-15T08:18:32Z</time>
      </trkpt>
      <trkpt lat="38.3169160" lon="-0.7922010">
        <ele>341.0</ele>
        <time>2020-03-15T08:18:33Z</time>
      </trkpt>
      <trkpt lat="38.3170190" lon="-0.7921360">
        <ele>340.2</ele>
        <time>2020-03-15T08:18:34Z</time>
      </trkpt>
      <trkpt lat="38.3171210" lon="-0.7920730">
        <ele>339.6</ele>
        <time>2020-03-15T08:18:35Z</time>
      </trkpt>
      <trkpt lat="38.3172230" lon="-0.7920090">
        <ele>339.2</ele>
        <time>2020-03-15T08:18:36Z</time>
      </trkpt>
      <trkpt lat="38.3173230" lon="-0.7919450">
        <ele>338.6</ele>
        <time>2020-03-15T08:18:37Z</time>
      </trkpt>
      <trkpt lat="38.3174220" lon="-0.7918810">
        <ele>338.2</ele>
        <time>2020-03-15T08:18:38Z</time>
      </trkpt>
      <trkpt lat="38.3175210" lon="-0.7918190">
        <ele>337.8</ele>
        <time>2020-03-15T08:18:39Z</time>
      </trkpt>
      <trkpt lat="38.3176180" lon="-0.7917570">
        <ele>337.4</ele>
        <time>2020-03-15T08:18:40Z</time>
      </trkpt>
      <trkpt lat="38.3177150" lon="-0.7916970">
        <ele>337.2</ele>
        <time>2020-03-15T08:18:41Z</time>
      </trkpt>
      <trkpt lat="38.3178110" lon="-0.7916380">
        <ele>336.8</ele>
        <time>2020-03-15T08:18:42Z</time>
      </trkpt>
      <trkpt lat="38.3179060" lon="-0.7915800">
        <ele>336.6</ele>
        <time>2020-03-15T08:18:43Z</time>
      </trkpt>
      <trkpt lat="38.3180000" lon="-0.7915200">
        <ele>336.2</ele>
        <time>2020-03-15T08:18:44Z</time>
      </trkpt>
      <trkpt lat="38.3180940" lon="-0.7914590">
        <ele>335.8</ele>
        <time>2020-03-15T08:18:45Z</time>
      </trkpt>
      <trkpt lat="38.3181880" lon="-0.7913970">
        <ele>335.4</ele>
        <time>2020-03-15T08:18:46Z</time>
      </trkpt>
      <trkpt lat="38.3182810" lon="-0.7913350">
        <ele>335.0</ele>
        <time>2020-03-15T08:18:47Z</time>
      </trkpt>
      <trkpt lat="38.3183750" lon="-0.7912760">
        <ele>334.8</ele>
        <time>2020-03-15T08:18:48Z</time>
      </trkpt>
      <trkpt lat="38.3184690" lon="-0.7912190">
        <ele>334.6</ele>
        <time>2020-03-15T08:18:49Z</time>
      </trkpt>
      <trkpt lat="38.3185630" lon="-0.7911600">
        <ele>334.0</ele>
        <time>2020-03-15T08:18:50Z</time>
      </trkpt>
      <trkpt lat="38.3186550" lon="-0.7910990">
        <ele>333.8</ele>
        <time>2020-03-15T08:18:51Z</time>
      </trkpt>
      <trkpt lat="38.3187490" lon="-0.7910370">
        <ele>333.4</ele>
        <time>2020-03-15T08:18:52Z</time>
      </trkpt>
      <trkpt lat="38.3188160" lon="-0.7909840">
        <ele>333.2</ele>
        <time>2020-03-15T08:18:53Z</time>
      </trkpt>
      <trkpt lat="38.3188830" lon="-0.7909310">
        <ele>332.8</ele>
        <time>2020-03-15T08:18:54Z</time>
      </trkpt>
      <trkpt lat="38.3190160" lon="-0.7908240">
        <ele>332.6</ele>
        <time>2020-03-15T08:18:55Z</time>
      </trkpt>
      <trkpt lat="38.3190960" lon="-0.7907390">
        <ele>332.2</ele>
        <time>2020-03-15T08:18:56Z</time>
      </trkpt>
      <trkpt lat="38.3191720" lon="-0.7906500">
        <ele>331.8</ele>
        <time>2020-03-15T08:18:57Z</time>
      </trkpt>
      <trkpt lat="38.3192450" lon="-0.7905610">
        <ele>331.6</ele>
        <time>2020-03-15T08:18:58Z</time>
      </trkpt>
      <trkpt lat="38.3193160" lon="-0.7904710">
        <ele>331.4</ele>
        <time>2020-03-15T08:18:59Z</time>
      </trkpt>
      <trkpt lat="38.3193840" lon="-0.7903820">
        <ele>331.2</ele>
        <time>2020-03-15T08:19:00Z</time>
      </trkpt>
      <trkpt lat="38.3194520" lon="-0.7902920">
        <ele>331.0</ele>
        <time>2020-03-15T08:19:01Z</time>
      </trkpt>
      <trkpt lat="38.3195200" lon="-0.7902020">
        <ele>330.8</ele>
        <time>2020-03-15T08:19:02Z</time>
      </trkpt>
      <trkpt lat="38.3195880" lon="-0.7901120">
        <ele>330.6</ele>
        <time>2020-03-15T08:19:03Z</time>
      </trkpt>
      <trkpt lat="38.3196540" lon="-0.7900210">
        <ele>330.2</ele>
        <time>2020-03-15T08:19:04Z</time>
      </trkpt>
      <trkpt lat="38.3197160" lon="-0.7899270">
        <ele>330.0</ele>
        <time>2020-03-15T08:19:05Z</time>
      </trkpt>
      <trkpt lat="38.3197780" lon="-0.7898340">
        <ele>329.8</ele>
        <time>2020-03-15T08:19:06Z</time>
      </trkpt>
      <trkpt lat="38.3198380" lon="-0.7897400">
        <ele>329.6</ele>
        <time>2020-03-15T08:19:07Z</time>
      </trkpt>
      <trkpt lat="38.3198990" lon="-0.7896470">
        <ele>329.4</ele>
        <time>2020-03-15T08:19:08Z</time>
      </trkpt>
      <trkpt lat="38.3199550" lon="-0.7895540">
        <ele>329.2</ele>
        <time>2020-03-15T08:19:09Z</time>
      </trkpt>
      <trkpt lat="38.3200100" lon="-0.7894610">
        <ele>328.8</ele>
        <time>2020-03-15T08:19:10Z</time>
      </trkpt>
      <trkpt lat="38.3200640" lon="-0.7893700">
        <ele>328.8</ele>
        <time>2020-03-15T08:19:11Z</time>
      </trkpt>
      <trkpt lat="38.3201170" lon="-0.7892780">
        <ele>328.6</ele>
        <time>2020-03-15T08:19:12Z</time>
      </trkpt>
      <trkpt lat="38.3201680" lon="-0.7891870">
        <ele>328.6</ele>
        <time>2020-03-15T08:19:13Z</time>
      </trkpt>
      <trkpt lat="38.3202190" lon="-0.7890950">
        <ele>328.4</ele>
        <time>2020-03-15T08:19:14Z</time>
      </trkpt>
      <trkpt lat="38.3202690" lon="-0.7890040">
        <ele>328.4</ele>
        <time>2020-03-15T08:19:15Z</time>
      </trkpt>
      <trkpt lat="38.3203180" lon="-0.7889130">
        <ele>328.0</ele>
        <time>2020-03-15T08:19:16Z</time>
      </trkpt>
      <trkpt lat="38.3203680" lon="-0.7888250">
        <ele>328.0</ele>
        <time>2020-03-15T08:19:17Z</time>
      </trkpt>
      <trkpt lat="38.3204190" lon="-0.7887370">
        <ele>327.8</ele>
        <time>2020-03-15T08:19:18Z</time>
      </trkpt>
      <trkpt lat="38.3204690" lon="-0.7886500">
        <ele>328.0</ele>
        <time>2020-03-15T08:19:19Z</time>
      </trkpt>
      <trkpt lat="38.3205180" lon="-0.7885610">
        <ele>327.8</ele>
        <time>2020-03-15T08:19:20Z</time>
      </trkpt>
      <trkpt lat="38.3205670" lon="-0.7884750">
        <ele>327.6</ele>
        <time>2020-03-15T08:19:21Z</time>
      </trkpt>
      <trkpt lat="38.3206160" lon="-0.7883890">
        <ele>327.6</ele>
        <time>2020-03-15T08:19:22Z</time>
      </trkpt>
      <trkpt lat="38.3206660" lon="-0.7883040">
        <ele>327.2</ele>
        <time>2020-03-15T08:19:23Z</time>
      </trkpt>
      <trkpt lat="38.3207180" lon="-0.7882190">
        <ele>327.2</ele>
        <time>2020-03-15T08:19:24Z</time>
      </trkpt>
      <trkpt lat="38.3207720" lon="-0.7881360">
        <ele>327.2</ele>
        <time>2020-03-15T08:19:25Z</time>
      </trkpt>
      <trkpt lat="38.3208280" lon="-0.7880560">
        <ele>326.8</ele>
        <time>2020-03-15T08:19:26Z</time>
      </trkpt>
      <trkpt lat="38.3208890" lon="-0.7879760">
        <ele>326.4</ele>
        <time>2020-03-15T08:19:27Z</time>
      </trkpt>
      <trkpt lat="38.3209490" lon="-0.7879000">
        <ele>326.0</ele>
        <time>2020-03-15T08:19:28Z</time>
      </trkpt>
      <trkpt lat="38.3210150" lon="-0.7878220">
        <ele>325.6</ele>
        <time>2020-03-15T08:19:29Z</time>
      </trkpt>
      <trkpt lat="38.3210830" lon="-0.7877420">
        <ele>325.4</ele>
        <time>2020-03-15T08:19:30Z</time>
      </trkpt>
      <trkpt lat="38.3211520" lon="-0.7876640">
        <ele>325.0</ele>
        <time>2020-03-15T08:19:31Z</time>
      </trkpt>
      <trkpt lat="38.3212220" lon="-0.7875860">
        <ele>324.6</ele>
        <time>2020-03-15T08:19:32Z</time>
      </trkpt>
      <trkpt lat="38.3212910" lon="-0.7875080">
        <ele>324.4</ele>
        <time>2020-03-15T08:19:33Z</time>
      </trkpt>
      <trkpt lat="38.3213620" lon="-0.7874300">
        <ele>324.0</ele>
        <time>2020-03-15T08:19:34Z</time>
      </trkpt>
      <trkpt lat="38.3214330" lon="-0.7873530">
        <ele>323.8</ele>
        <time>2020-03-15T08:19:35Z</time>
      </trkpt>
      <trkpt lat="38.3215040" lon="-0.7872750">
        <ele>323.6</ele>
        <time>2020-03-15T08:19:36Z</time>
      </trkpt>
      <trkpt lat="38.3215750" lon="-0.7871980">
        <ele>323.2</ele>
        <time>2020-03-15T08:19:37Z</time>
      </trkpt>
      <trkpt lat="38.3216480" lon="-0.7871220">
        <ele>323.0</ele>
        <time>2020-03-15T08:19:38Z</time>
      </trkpt>
      <trkpt lat="38.3217220" lon="-0.7870460">
        <ele>322.4</ele>
        <time>2020-03-15T08:19:39Z</time>
      </trkpt>
      <trkpt lat="38.3217980" lon="-0.7869720">
        <ele>322.0</ele>
        <time>2020-03-15T08:19:40Z</time>
      </trkpt>
      <trkpt lat="38.3218750" lon="-0.7868990">
        <ele>321.6</ele>
        <time>2020-03-15T08:19:41Z</time>
      </trkpt>
      <trkpt lat="38.3219520" lon="-0.7868260">
        <ele>321.0</ele>
        <time>2020-03-15T08:19:42Z</time>
      </trkpt>
      <trkpt lat="38.3220310" lon="-0.7867560">
        <ele>320.8</ele>
        <time>2020-03-15T08:19:43Z</time>
      </trkpt>
      <trkpt lat="38.3221090" lon="-0.7866860">
        <ele>320.4</ele>
        <time>2020-03-15T08:19:44Z</time>
      </trkpt>
      <trkpt lat="38.3221870" lon="-0.7866180">
        <ele>320.2</ele>
        <time>2020-03-15T08:19:45Z</time>
      </trkpt>
      <trkpt lat="38.3222650" lon="-0.7865480">
        <ele>320.0</ele>
        <time>2020-03-15T08:19:46Z</time>
      </trkpt>
      <trkpt lat="38.3223410" lon="-0.7864790">
        <ele>319.8</ele>
        <time>2020-03-15T08:19:47Z</time>
      </trkpt>
      <trkpt lat="38.3224180" lon="-0.7864100">
        <ele>319.4</ele>
        <time>2020-03-15T08:19:48Z</time>
      </trkpt>
      <trkpt lat="38.3224950" lon="-0.7863430">
        <ele>319.2</ele>
        <time>2020-03-15T08:19:49Z</time>
      </trkpt>
      <trkpt lat="38.3225730" lon="-0.7862750">
        <ele>319.0</ele>
        <time>2020-03-15T08:19:50Z</time>
      </trkpt>
      <trkpt lat="38.3226510" lon="-0.7862060">
        <ele>318.8</ele>
        <time>2020-03-15T08:19:51Z</time>
      </trkpt>
      <trkpt lat="38.3227290" lon="-0.7861370">
        <ele>318.6</ele>
        <time>2020-03-15T08:19:52Z</time>
      </trkpt>
      <trkpt lat="38.3228070" lon="-0.7860660">
        <ele>318.4</ele>
        <time>2020-03-15T08:19:53Z</time>
      </trkpt>
      <trkpt lat="38.3228850" lon="-0.7859960">
        <ele>318.0</ele>
        <time>2020-03-15T08:19:54Z</time>
      </trkpt>
      <trkpt lat="38.3229620" lon="-0.7859260">
        <ele>317.8</ele>
        <time>2020-03-15T08:19:55Z</time>
      </trkpt>
      <trkpt lat="38.3230400" lon="-0.7858560">
        <ele>317.4</ele>
        <time>2020-03-15T08:19:56Z</time>
      </trkpt>
      <trkpt lat="38.3231190" lon="-0.7857860">
        <ele>317.2</ele>
        <time>2020-03-15T08:19:57Z</time>
      </trkpt>
      <trkpt lat="38.3231960" lon="-0.7857150">
        <ele>317.0</ele>
        <time>2020-03-15T08:19:58Z</time>
      </trkpt>
      <trkpt lat="38.3232720" lon="-0.7856420">
        <ele>316.8</ele>
        <time>2020-03-15T08:19:59Z</time>
      </trkpt>
      <trkpt lat="38.3233480" lon="-0.7855670">
        <ele>316.4</ele>
        <time>2020-03-15T08:20:00Z</time>
      </trkpt>
      <trkpt lat="38.3234220" lon="-0.7854900">
        <ele>316.2</ele>
        <time>2020-03-15T08:20:01Z</time>
      </trkpt>
      <trkpt lat="38.3234920" lon="-0.7854070">
        <ele>315.8</ele>
        <time>2020-03-15T08:20:02Z</time>
      </trkpt>
      <trkpt lat="38.3235600" lon="-0.7853250">
        <ele>315.6</ele>
        <time>2020-03-15T08:20:03Z</time>
      </trkpt>
      <trkpt lat="38.3236270" lon="-0.7852420">
        <ele>315.4</ele>
        <time>2020-03-15T08:20:04Z</time>
      </trkpt>
      <trkpt lat="38.3236920" lon="-0.7851580">
        <ele>315.2</ele>
        <time>2020-03-15T08:20:05Z</time>
      </trkpt>
      <trkpt lat="38.3237570" lon="-0.7850720">
        <ele>315.2</ele>
        <time>2020-03-15T08:20:06Z</time>
      </trkpt>
      <trkpt lat="38.3238040" lon="-0.7850100">
        <ele>314.8</ele>
        <time>2020-03-15T08:20:07Z</time>
      </trkpt>
      <trkpt lat="38.3238510" lon="-0.7849470">
        <ele>314.6</ele>
        <time>2020-03-15T08:20:08Z</time>
      </trkpt>
      <trkpt lat="38.3239450" lon="-0.7848210">
        <ele>314.2</ele>
        <time>2020-03-15T08:20:09Z</time>
      </trkpt>
      <trkpt lat="38.3240060" lon="-0.7847370">
        <ele>314.2</ele>
        <time>2020-03-15T08:20:10Z</time>
      </trkpt>
      <trkpt lat="38.3240670" lon="-0.7846520">
        <ele>314.0</ele>
        <time>2020-03-15T08:20:11Z</time>
      </trkpt>
      <trkpt lat="38.3241280" lon="-0.7845680">
        <ele>313.6</ele>
        <time>2020-03-15T08:20:12Z</time>
      </trkpt>
      <trkpt lat="38.3241880" lon="-0.7844840">
        <ele>314.0</ele>
        <time>2020-03-15T08:20:13Z</time>
      </trkpt>
      <trkpt lat="38.3242480" lon="-0.7844010">
        <ele>313.4</ele>
        <time>2020-03-15T08:20:14Z</time>
      </trkpt>
      <trkpt lat="38.3244930" lon="-0.7840740">
        <ele>312.6</ele>
        <time>2020-03-15T08:20:18Z</time>
      </trkpt>
      <trkpt lat="38.3245540" lon="-0.7839930">
        <ele>312.6</ele>
        <time>2020-03-15T08:20:19Z</time>
      </trkpt>
      <trkpt lat="38.3246150" lon="-0.7839150">
        <ele>312.4</ele>
        <time>2020-03-15T08:20:20Z</time>
      </trkpt>
      <trkpt lat="38.3246750" lon="-0.7838380">
        <ele>312.4</ele>
        <time>2020-03-15T08:20:21Z</time>
      </trkpt>
      <trkpt lat="38.3247350" lon="-0.7837630">
        <ele>312.2</ele>
        <time>2020-03-15T08:20:22Z</time>
      </trkpt>
      <trkpt lat="38.3247970" lon="-0.7836910">
        <ele>312.0</ele>
        <time>2020-03-15T08:20:23Z</time>
      </trkpt>
      <trkpt lat="38.3248610" lon="-0.7836230">
        <ele>312.0</ele>
        <time>2020-03-15T08:20:24Z</time>
      </trkpt>
      <trkpt lat="38.3249250" lon="-0.7835590">
        <ele>312.2</ele>
        <time>2020-03-15T08:20:25Z</time>
      </trkpt>
      <trkpt lat="38.3249920" lon="-0.7835000">
        <ele>311.8</ele>
        <time>2020-03-15T08:20:26Z</time>
      </trkpt>
      <trkpt lat="38.3250600" lon="-0.7834450">
        <ele>311.8</ele>
        <time>2020-03-15T08:20:27Z</time>
      </trkpt>
      <trkpt lat="38.3251260" lon="-0.7833900">
        <ele>311.8</ele>
        <time>2020-03-15T08:20:28Z</time>
      </trkpt>
      <trkpt lat="38.3251900" lon="-0.7833380">
        <ele>311.8</ele>
        <time>2020-03-15T08:20:29Z</time>
      </trkpt>
      <trkpt lat="38.3252560" lon="-0.7832880">
        <ele>311.6</ele>
        <time>2020-03-15T08:20:30Z</time>
      </trkpt>
      <trkpt lat="38.3253220" lon="-0.7832380">
        <ele>311.6</ele>
        <time>2020-03-15T08:20:31Z</time>
      </trkpt>
      <trkpt lat="38.3253870" lon="-0.7831880">
        <ele>311.6</ele>
        <time>2020-03-15T08:20:32Z</time>
      </trkpt>
      <trkpt lat="38.3254520" lon="-0.7831380">
        <ele>311.6</ele>
        <time>2020-03-15T08:20:33Z</time>
      </trkpt>
      <trkpt lat="38.3255180" lon="-0.7830890">
        <ele>311.6</ele>
        <time>2020-03-15T08:20:34Z</time>
      </trkpt>
      <trkpt lat="38.3255830" lon="-0.7830400">
        <ele>311.4</ele>
        <time>2020-03-15T08:20:35Z</time>
      </trkpt>
      <trkpt lat="38.3256470" lon="-0.7829920">
        <ele>311.4</ele>
        <time>2020-03-15T08:20:36Z</time>
      </trkpt>
      <trkpt lat="38.3257110" lon="-0.7829460">
        <ele>311.4</ele>
        <time>2020-03-15T08:20:37Z</time>
      </trkpt>
      <trkpt lat="38.3257740" lon="-0.7829000">
        <ele>311.6</ele>
        <time>2020-03-15T08:20:38Z</time>
      </trkpt>
      <trkpt lat="38.3258350" lon="-0.7828540">
        <ele>311.6</ele>
        <time>2020-03-15T08:20:39Z</time>
      </trkpt>
      <trkpt lat="38.3258970" lon="-0.7828090">
        <ele>311.6</ele>
        <time>2020-03-15T08:20:40Z</time>
      </trkpt>
      <trkpt lat="38.3259480" lon="-0.7827630">
        <ele>311.6</ele>
        <time>2020-03-15T08:20:41Z</time>
      </trkpt>
      <trkpt lat="38.3259760" lon="-0.7827050">
        <ele>311.6</ele>
        <time>2020-03-15T08:20:42Z</time>
      </trkpt>
      <trkpt lat="38.3259770" lon="-0.7826440">
        <ele>311.6</ele>
        <time>2020-03-15T08:20:43Z</time>
      </trkpt>
      <trkpt lat="38.3259610" lon="-0.7825900">
        <ele>311.6</ele>
        <time>2020-03-15T08:20:44Z</time>
      </trkpt>
      <trkpt lat="38.3259370" lon="-0.7825430">
        <ele>312.0</ele>
        <time>2020-03-15T08:20:45Z</time>
      </trkpt>
      <trkpt lat="38.3259110" lon="-0.7824990">
        <ele>312.2</ele>
        <time>2020-03-15T08:20:46Z</time>
      </trkpt>
      <trkpt lat="38.3258850" lon="-0.7824520">
        <ele>312.4</ele>
        <time>2020-03-15T08:20:47Z</time>
      </trkpt>
      <trkpt lat="38.3258580" lon="-0.7824040">
        <ele>312.6</ele>
        <time>2020-03-15T08:20:48Z</time>
      </trkpt>
      <trkpt lat="38.3258300" lon="-0.7823570">
        <ele>312.8</ele>
        <time>2020-03-15T08:20:49Z</time>
      </trkpt>
      <trkpt lat="38.3258000" lon="-0.7823110">
        <ele>313.0</ele>
        <time>2020-03-15T08:20:50Z</time>
      </trkpt>
      <trkpt lat="38.3257680" lon="-0.7822660">
        <ele>313.4</ele>
        <time>2020-03-15T08:20:51Z</time>
      </trkpt>
      <trkpt lat="38.3257340" lon="-0.7822220">
        <ele>313.6</ele>
        <time>2020-03-15T08:20:52Z</time>
      </trkpt>
      <trkpt lat="38.3256980" lon="-0.7821810">
        <ele>313.8</ele>
        <time>2020-03-15T08:20:53Z</time>
      </trkpt>
      <trkpt lat="38.3256610" lon="-0.7821420">
        <ele>314.0</ele>
        <time>2020-03-15T08:20:54Z</time>
      </trkpt>
      <trkpt lat="38.3256230" lon="-0.7821030">
        <ele>314.4</ele>
        <time>2020-03-15T08:20:55Z</time>
      </trkpt>
      <trkpt lat="38.3255830" lon="-0.7820660">
        <ele>314.6</ele>
        <time>2020-03-15T08:20:56Z</time>
      </trkpt>
      <trkpt lat="38.3255430" lon="-0.7820290">
        <ele>314.6</ele>
        <time>2020-03-15T08:20:57Z</time>
      </trkpt>
      <trkpt lat="38.3255020" lon="-0.7819930">
        <ele>314.6</ele>
        <time>2020-03-15T08:20:58Z</time>
      </trkpt>
      <trkpt lat="38.3254600" lon="-0.7819590">
        <ele>314.8</ele>
        <time>2020-03-15T08:20:59Z</time>
      </trkpt>
      <trkpt lat="38.3254190" lon="-0.7819250">
        <ele>315.2</ele>
        <time>2020-03-15T08:21:00Z</time>
      </trkpt>
      <trkpt lat="38.3253780" lon="-0.7818920">
        <ele>315.4</ele>
        <time>2020-03-15T08:21:01Z</time>
      </trkpt>
      <trkpt lat="38.3253360" lon="-0.7818600">
        <ele>315.4</ele>
        <time>2020-03-15T08:21:02Z</time>
      </trkpt>
      <trkpt lat="38.3252910" lon="-0.7818350">
        <ele>315.8</ele>
        <time>2020-03-15T08:21:03Z</time>
      </trkpt>
      <trkpt lat="38.3252450" lon="-0.7818150">
        <ele>316.0</ele>
        <time>2020-03-15T08:21:04Z</time>
      </trkpt>
      <trkpt lat="38.3251980" lon="-0.7817970">
        <ele>316.4</ele>
        <time>2020-03-15T08:21:05Z</time>
      </trkpt>
      <trkpt lat="38.3251500" lon="-0.7817800">
        <ele>316.8</ele>
        <time>2020-03-15T08:21:06Z</time>
      </trkpt>
      <trkpt lat="38.3251020" lon="-0.7817620">
        <ele>316.8</ele>
        <time>2020-03-15T08:21:07Z</time>
      </trkpt>
      <trkpt lat="38.3250560" lon="-0.7817410">
        <ele>316.8</ele>
        <time>2020-03-15T08:21:08Z</time>
      </trkpt>
      <trkpt lat="38.3250100" lon="-0.7817160">
        <ele>317.0</ele>
        <time>2020-03-15T08:21:09Z</time>
      </trkpt>
      <trkpt lat="38.3249640" lon="-0.7816870">
        <ele>317.2</ele>
        <time>2020-03-15T08:21:10Z</time>
      </trkpt>
      <trkpt lat="38.3249180" lon="-0.7816540">
        <ele>317.4</ele>
        <time>2020-03-15T08:21:11Z</time>
      </trkpt>
      <trkpt lat="38.3248740" lon="-0.7816180">
        <ele>317.4</ele>
        <time>2020-03-15T08:21:12Z</time>
      </trkpt>
      <trkpt lat="38.3248320" lon="-0.7815780">
        <ele>317.6</ele>
        <time>2020-03-15T08:21:13Z</time>
      </trkpt>
      <trkpt lat="38.3247910" lon="-0.7815380">
        <ele>317.6</ele>
        <time>2020-03-15T08:21:14Z</time>
      </trkpt>
      <trkpt lat="38.3247500" lon="-0.7814960">
        <ele>317.8</ele>
        <time>2020-03-15T08:21:15Z</time>
      </trkpt>
      <trkpt lat="38.3247110" lon="-0.7814530">
        <ele>318.0</ele>
        <time>2020-03-15T08:21:16Z</time>
      </trkpt>
      <trkpt lat="38.3246760" lon="-0.7814100">
        <ele>318.0</ele>
        <time>2020-03-15T08:21:17Z</time>
      </trkpt>
      <trkpt lat="38.3246400" lon="-0.7813680">
        <ele>318.0</ele>
        <time>2020-03-15T08:21:18Z</time>
      </trkpt>
      <trkpt lat="38.3246080" lon="-0.7813180">
        <ele>318.2</ele>
        <time>2020-03-15T08:21:19Z</time>
      </trkpt>
      <trkpt lat="38.3245780" lon="-0.7812650">
        <ele>318.4</ele>
        <time>2020-03-15T08:21:20Z</time>
      </trkpt>
      <trkpt lat="38.3245460" lon="-0.7812120">
        <ele>318.6</ele>
        <time>2020-03-15T08:21:21Z</time>
      </trkpt>
      <trkpt lat="38.3245100" lon="-0.7811590">
        <ele>318.6</ele>
        <time>2020-03-15T08:21:22Z</time>
      </trkpt>
      <trkpt lat="38.3244730" lon="-0.7811110">
        <ele>318.8</ele>
        <time>2020-03-15T08:21:23Z</time>
      </trkpt>
      <trkpt lat="38.3244320" lon="-0.7810660">
        <ele>319.0</ele>
        <time>2020-03-15T08:21:24Z</time>
      </trkpt>
      <trkpt lat="38.3243900" lon="-0.7810300">
        <ele>319.2</ele>
        <time>2020-03-15T08:21:25Z</time>
      </trkpt>
      <trkpt lat="38.3243460" lon="-0.7810000">
        <ele>319.6</ele>
        <time>2020-03-15T08:21:26Z</time>
      </trkpt>
      <trkpt lat="38.3243000" lon="-0.7809740">
        <ele>319.8</ele>
        <time>2020-03-15T08:21:27Z</time>
      </trkpt>
      <trkpt lat="38.3242550" lon="-0.7809490">
        <ele>320.0</ele>
        <time>2020-03-15T08:21:28Z</time>
      </trkpt>
      <trkpt lat="38.3242120" lon="-0.7809240">
        <ele>320.2</ele>
        <time>2020-03-15T08:21:29Z</time>
      </trkpt>
      <trkpt lat="38.3241710" lon="-0.7808940">
        <ele>320.4</ele>
        <time>2020-03-15T08:21:30Z</time>
      </trkpt>
      <trkpt lat="38.3241340" lon="-0.7808600">
        <ele>320.6</ele>
        <time>2020-03-15T08:21:31Z</time>
      </trkpt>
      <trkpt lat="38.3240980" lon="-0.7808190">
        <ele>320.8</ele>
        <time>2020-03-15T08:21:32Z</time>
      </trkpt>
      <trkpt lat="38.3240620" lon="-0.7807790">
        <ele>321.0</ele>
        <time>2020-03-15T08:21:33Z</time>
      </trkpt>
      <trkpt lat="38.3240280" lon="-0.7807330">
        <ele>321.2</ele>
        <time>2020-03-15T08:21:34Z</time>
      </trkpt>
      <trkpt lat="38.3239930" lon="-0.7806830">
        <ele>321.4</ele>
        <time>2020-03-15T08:21:35Z</time>
      </trkpt>
      <trkpt lat="38.3239610" lon="-0.7806350">
        <ele>321.6</ele>
        <time>2020-03-15T08:21:36Z</time>
      </trkpt>
      <trkpt lat="38.3239260" lon="-0.7805870">
        <ele>321.6</ele>
        <time>2020-03-15T08:21:37Z</time>
      </trkpt>
      <trkpt lat="38.3238880" lon="-0.7805370">
        <ele>321.6</ele>
        <time>2020-03-15T08:21:38Z</time>
      </trkpt>
      <trkpt lat="38.3238490" lon="-0.7804870">
        <ele>321.4</ele>
        <time>2020-03-15T08:21:39Z</time>
      </trkpt>
      <trkpt lat="38.3238100" lon="-0.7804380">
        <ele>321.4</ele>
        <time>2020-03-15T08:21:40Z</time>
      </trkpt>
      <trkpt lat="38.3237710" lon="-0.7803850">
        <ele>321.4</ele>
        <time>2020-03-15T08:21:41Z</time>
      </trkpt>
      <trkpt lat="38.3237320" lon="-0.7803300">
        <ele>321.2</ele>
        <time>2020-03-15T08:21:42Z</time>
      </trkpt>
      <trkpt lat="38.3237000" lon="-0.7802880">
        <ele>321.2</ele>
        <time>2020-03-15T08:21:43Z</time>
      </trkpt>
      <trkpt lat="38.3236670" lon="-0.7802460">
        <ele>321.2</ele>
        <time>2020-03-15T08:21:44Z</time>
      </trkpt>
      <trkpt lat="38.3236020" lon="-0.7801620">
        <ele>321.2</ele>
        <time>2020-03-15T08:21:45Z</time>
      </trkpt>
      <trkpt lat="38.3235790" lon="-0.7801320">
        <ele>321.0</ele>
        <time>2020-03-15T08:21:46Z</time>
      </trkpt>
      <trkpt lat="38.3235560" lon="-0.7801020">
        <ele>320.8</ele>
        <time>2020-03-15T08:21:47Z</time>
      </trkpt>
      <trkpt lat="38.3234760" lon="-0.7799930">
        <ele>320.6</ele>
        <time>2020-03-15T08:21:48Z</time>
      </trkpt>
      <trkpt lat="38.3234410" lon="-0.7799440">
        <ele>320.4</ele>
        <time>2020-03-15T08:21:49Z</time>
      </trkpt>
      <trkpt lat="38.3233710" lon="-0.7798450">
        <ele>320.2</ele>
        <time>2020-03-15T08:21:50Z</time>
      </trkpt>
      <trkpt lat="38.3233220" lon="-0.7797800">
        <ele>320.2</ele>
        <time>2020-03-15T08:21:51Z</time>
      </trkpt>
      <trkpt lat="38.3232720" lon="-0.7797160">
        <ele>320.2</ele>
        <time>2020-03-15T08:21:52Z</time>
      </trkpt>
      <trkpt lat="38.3232230" lon="-0.7796500">
        <ele>320.0</ele>
        <time>2020-03-15T08:21:53Z</time>
      </trkpt>
      <trkpt lat="38.3231750" lon="-0.7795790">
        <ele>319.8</ele>
        <time>2020-03-15T08:21:54Z</time>
      </trkpt>
      <trkpt lat="38.3231300" lon="-0.7795040">
        <ele>319.6</ele>
        <time>2020-03-15T08:21:55Z</time>
      </trkpt>
      <trkpt lat="38.3230860" lon="-0.7794250">
        <ele>319.4</ele>
        <time>2020-03-15T08:21:56Z</time>
      </trkpt>
      <trkpt lat="38.3230440" lon="-0.7793440">
        <ele>319.2</ele>
        <time>2020-03-15T08:21:57Z</time>
      </trkpt>
      <trkpt lat="38.3230020" lon="-0.7792620">
        <ele>318.8</ele>
        <time>2020-03-15T08:21:58Z</time>
      </trkpt>
      <trkpt lat="38.3229680" lon="-0.7792000">
        <ele>318.6</ele>
        <time>2020-03-15T08:21:59Z</time>
      </trkpt>
      <trkpt lat="38.3229330" lon="-0.7791380">
        <ele>318.2</ele>
        <time>2020-03-15T08:22:00Z</time>
      </trkpt>
      <trkpt lat="38.3228640" lon="-0.7790150">
        <ele>318.0</ele>
        <time>2020-03-15T08:22:01Z</time>
      </trkpt>
      <trkpt lat="38.3228190" lon="-0.7789290">
        <ele>317.6</ele>
        <time>2020-03-15T08:22:02Z</time>
      </trkpt>
      <trkpt lat="38.3227970" lon="-0.7788580">
        <ele>317.4</ele>
        <time>2020-03-15T08:22:03Z</time>
      </trkpt>
      <trkpt lat="38.3227740" lon="-0.7787870">
        <ele>317.2</ele>
        <time>2020-03-15T08:22:04Z</time>
      </trkpt>
      <trkpt lat="38.3227280" lon="-0.7786450">
        <ele>317.0</ele>
        <time>2020-03-15T08:22:05Z</time>
      </trkpt>
      <trkpt lat="38.3227140" lon="-0.7785700">
        <ele>316.8</ele>
        <time>2020-03-15T08:22:06Z</time>
      </trkpt>
      <trkpt lat="38.3226990" lon="-0.7784960">
        <ele>317.0</ele>
        <time>2020-03-15T08:22:07Z</time>
      </trkpt>
      <trkpt lat="38.3226690" lon="-0.7783470">
        <ele>316.8</ele>
        <time>2020-03-15T08:22:08Z</time>
      </trkpt>
      <trkpt lat="38.3226500" lon="-0.7782490">
        <ele>316.8</ele>
        <time>2020-03-15T08:22:09Z</time>
      </trkpt>
      <trkpt lat="38.3226360" lon="-0.7781570">
        <ele>316.4</ele>
        <time>2020-03-15T08:22:10Z</time>
      </trkpt>
      <trkpt lat="38.3226340" lon="-0.7780780">
        <ele>316.6</ele>
        <time>2020-03-15T08:22:11Z</time>
      </trkpt>
      <trkpt lat="38.3226520" lon="-0.7780120">
        <ele>316.4</ele>
        <time>2020-03-15T08:22:12Z</time>
      </trkpt>
      <trkpt lat="38.3226850" lon="-0.7779640">
        <ele>316.4</ele>
        <time>2020-03-15T08:22:13Z</time>
      </trkpt>
      <trkpt lat="38.3227300" lon="-0.7779350">
        <ele>316.6</ele>
        <time>2020-03-15T08:22:14Z</time>
      </trkpt>
      <trkpt lat="38.3227800" lon="-0.7779220">
        <ele>316.8</ele>
        <time>2020-03-15T08:22:15Z</time>
      </trkpt>
      <trkpt lat="38.3228280" lon="-0.7779100">
        <ele>316.6</ele>
        <time>2020-03-15T08:22:16Z</time>
      </trkpt>
      <trkpt lat="38.3228780" lon="-0.7778960">
        <ele>316.8</ele>
        <time>2020-03-15T08:22:17Z</time>
      </trkpt>
      <trkpt lat="38.3229250" lon="-0.7778780">
        <ele>317.0</ele>
        <time>2020-03-15T08:22:18Z</time>
      </trkpt>
      <trkpt lat="38.3229690" lon="-0.7778580">
        <ele>317.2</ele>
        <time>2020-03-15T08:22:19Z</time>
      </trkpt>
      <trkpt lat="38.3230130" lon="-0.7778430">
        <ele>317.6</ele>
        <time>2020-03-15T08:22:20Z</time>
      </trkpt>
      <trkpt lat="38.3230610" lon="-0.7778250">
        <ele>317.8</ele>
        <time>2020-03-15T08:22:21Z</time>
      </trkpt>
      <trkpt lat="38.3231070" lon="-0.7778000">
        <ele>318.0</ele>
        <time>2020-03-15T08:22:22Z</time>
      </trkpt>
      <trkpt lat="38.3231530" lon="-0.7777670">
        <ele>318.0</ele>
        <time>2020-03-15T08:22:23Z</time>
      </trkpt>
      <trkpt lat="38.3231940" lon="-0.7777250">
        <ele>318.2</ele>
        <time>2020-03-15T08:22:24Z</time>
      </trkpt>
      <trkpt lat="38.3232240" lon="-0.7776730">
        <ele>318.6</ele>
        <time>2020-03-15T08:22:25Z</time>
      </trkpt>
      <trkpt lat="38.3232470" lon="-0.7776150">
        <ele>318.8</ele>
        <time>2020-03-15T08:22:26Z</time>
      </trkpt>
      <trkpt lat="38.3232600" lon="-0.7775560">
        <ele>319.2</ele>
        <time>2020-03-15T08:22:27Z</time>
      </trkpt>
      <trkpt lat="38.3232660" lon="-0.7774950">
        <ele>319.4</ele>
        <time>2020-03-15T08:22:28Z</time>
      </trkpt>
      <trkpt lat="38.3232670" lon="-0.7774300">
        <ele>319.6</ele>
        <time>2020-03-15T08:22:29Z</time>
      </trkpt>
      <trkpt lat="38.3232690" lon="-0.7773600">
        <ele>319.6</ele>
        <time>2020-03-15T08:22:30Z</time>
      </trkpt>
      <trkpt lat="38.3232740" lon="-0.7772890">
        <ele>319.4</ele>
        <time>2020-03-15T08:22:31Z</time>
      </trkpt>
      <trkpt lat="38.3232850" lon="-0.7772110">
        <ele>319.4</ele>
        <time>2020-03-15T08:22:32Z</time>
      </trkpt>
      <trkpt lat="38.3232940" lon="-0.7771320">
        <ele>319.4</ele>
        <time>2020-03-15T08:22:33Z</time>
      </trkpt>
      <trkpt lat="38.3233030" lon="-0.7770540">
        <ele>319.4</ele>
        <time>2020-03-15T08:22:34Z</time>
      </trkpt>
      <trkpt lat="38.3233110" lon="-0.7769760">
        <ele>319.4</ele>
        <time>2020-03-15T08:22:35Z</time>
      </trkpt>
      <trkpt lat="38.3233170" lon="-0.7768940">
        <ele>319.4</ele>
        <time>2020-03-15T08:22:36Z</time>
      </trkpt>
      <trkpt lat="38.3233140" lon="-0.7768120">
        <ele>319.4</ele>
        <time>2020-03-15T08:22:37Z</time>
      </trkpt>
      <trkpt lat="38.3233010" lon="-0.7767320">
        <ele>319.4</ele>
        <time>2020-03-15T08:22:38Z</time>
      </trkpt>
      <trkpt lat="38.3232720" lon="-0.7766570">
        <ele>319.2</ele>
        <time>2020-03-15T08:22:39Z</time>
      </trkpt>
      <trkpt lat="38.3232340" lon="-0.7765870">
        <ele>319.2</ele>
        <time>2020-03-15T08:22:40Z</time>
      </trkpt>
      <trkpt lat="38.3231920" lon="-0.7765170">
        <ele>319.0</ele>
        <time>2020-03-15T08:22:41Z</time>
      </trkpt>
      <trkpt lat="38.3231520" lon="-0.7764480">
        <ele>318.8</ele>
        <time>2020-03-15T08:22:42Z</time>
      </trkpt>
      <trkpt lat="38.3231240" lon="-0.7763800">
        <ele>318.6</ele>
        <time>2020-03-15T08:22:43Z</time>
      </trkpt>
      <trkpt lat="38.3231160" lon="-0.7763180">
        <ele>318.6</ele>
        <time>2020-03-15T08:22:44Z</time>
      </trkpt>
      <trkpt lat="38.3231230" lon="-0.7762660">
        <ele>319.0</ele>
        <time>2020-03-15T08:22:45Z</time>
      </trkpt>
      <trkpt lat="38.3231440" lon="-0.7762260">
        <ele>319.6</ele>
        <time>2020-03-15T08:22:46Z</time>
      </trkpt>
      <trkpt lat="38.3231710" lon="-0.7761890">
        <ele>319.8</ele>
        <time>2020-03-15T08:22:47Z</time>
      </trkpt>
      <trkpt lat="38.3231920" lon="-0.7761510">
        <ele>320.2</ele>
        <time>2020-03-15T08:22:48Z</time>
      </trkpt>
      <trkpt lat="38.3232130" lon="-0.7761090">
        <ele>320.4</ele>
        <time>2020-03-15T08:22:49Z</time>
      </trkpt>
      <trkpt lat="38.3232240" lon="-0.7760620">
        <ele>320.8</ele>
        <time>2020-03-15T08:22:50Z</time>
      </trkpt>
      <trkpt lat="38.3232240" lon="-0.7760130">
        <ele>321.2</ele>
        <time>2020-03-15T08:22:51Z</time>
      </trkpt>
      <trkpt lat="38.3232140" lon="-0.7759680">
        <ele>321.4</ele>
        <time>2020-03-15T08:22:52Z</time>
      </trkpt>
      <trkpt lat="38.3232010" lon="-0.7759310">
        <ele>321.8</ele>
        <time>2020-03-15T08:22:53Z</time>
      </trkpt>
      <trkpt lat="38.3231870" lon="-0.7758940">
        <ele>322.4</ele>
        <time>2020-03-15T08:22:54Z</time>
      </trkpt>
      <trkpt lat="38.3231750" lon="-0.7758640">
        <ele>323.0</ele>
        <time>2020-03-15T08:22:55Z</time>
      </trkpt>
      <trkpt lat="38.3231620" lon="-0.7758380">
        <ele>323.4</ele>
        <time>2020-03-15T08:22:56Z</time>
      </trkpt>
      <trkpt lat="38.3231500" lon="-0.7758110">
        <ele>324.0</ele>
        <time>2020-03-15T08:22:57Z</time>
      </trkpt>
      <trkpt lat="38.3231330" lon="-0.7757870">
        <ele>324.4</ele>
        <time>2020-03-15T08:22:58Z</time>
      </trkpt>
      <trkpt lat="38.3231150" lon="-0.7757640">
        <ele>324.8</ele>
        <time>2020-03-15T08:22:59Z</time>
      </trkpt>
      <trkpt lat="38.3230970" lon="-0.7757380">
        <ele>325.0</ele>
        <time>2020-03-15T08:23:00Z</time>
      </trkpt>
      <trkpt lat="38.3230790" lon="-0.7757090">
        <ele>325.4</ele>
        <time>2020-03-15T08:23:01Z</time>
      </trkpt>
      <trkpt lat="38.3230550" lon="-0.7756770">
        <ele>325.4</ele>
        <time>2020-03-15T08:23:02Z</time>
      </trkpt>
      <trkpt lat="38.3230250" lon="-0.7756380">
        <ele>325.2</ele>
        <time>2020-03-15T08:23:03Z</time>
      </trkpt>
      <trkpt lat="38.3229910" lon="-0.7755880">
        <ele>324.8</ele>
        <time>2020-03-15T08:23:04Z</time>
      </trkpt>
      <trkpt lat="38.3229510" lon="-0.7755300">
        <ele>324.6</ele>
        <time>2020-03-15T08:23:05Z</time>
      </trkpt>
      <trkpt lat="38.3229060" lon="-0.7754700">
        <ele>324.0</ele>
        <time>2020-03-15T08:23:06Z</time>
      </trkpt>
      <trkpt lat="38.3228540" lon="-0.7754080">
        <ele>323.4</ele>
        <time>2020-03-15T08:23:07Z</time>
      </trkpt>
      <trkpt lat="38.3228020" lon="-0.7753450">
        <ele>323.2</ele>
        <time>2020-03-15T08:23:08Z</time>
      </trkpt>
      <trkpt lat="38.3227440" lon="-0.7752850">
        <ele>323.0</ele>
        <time>2020-03-15T08:23:09Z</time>
      </trkpt>
      <trkpt lat="38.3226870" lon="-0.7752270">
        <ele>322.8</ele>
        <time>2020-03-15T08:23:10Z</time>
      </trkpt>
      <trkpt lat="38.3226290" lon="-0.7751580">
        <ele>322.2</ele>
        <time>2020-03-15T08:23:11Z</time>
      </trkpt>
      <trkpt lat="38.3225720" lon="-0.7750870">
        <ele>321.6</ele>
        <time>2020-03-15T08:23:12Z</time>
      </trkpt>
      <trkpt lat="38.3225140" lon="-0.7750060">
        <ele>320.8</ele>
        <time>2020-03-15T08:23:13Z</time>
      </trkpt>
      <trkpt lat="38.3224620" lon="-0.7749140">
        <ele>319.8</ele>
        <time>2020-03-15T08:23:14Z</time>
      </trkpt>
      <trkpt lat="38.3224180" lon="-0.7748100">
        <ele>319.0</ele>
        <time>2020-03-15T08:23:15Z</time>
      </trkpt>
      <trkpt lat="38.3223790" lon="-0.7747010">
        <ele>318.2</ele>
        <time>2020-03-15T08:23:16Z</time>
      </trkpt>
      <trkpt lat="38.3223430" lon="-0.7745930">
        <ele>317.4</ele>
        <time>2020-03-15T08:23:17Z</time>
      </trkpt>
      <trkpt lat="38.3223200" lon="-0.7744970">
        <ele>316.2</ele>
        <time>2020-03-15T08:23:18Z</time>
      </trkpt>
      <trkpt lat="38.3223080" lon="-0.7744070">
        <ele>315.4</ele>
        <time>2020-03-15T08:23:19Z</time>
      </trkpt>
      <trkpt lat="38.3223210" lon="-0.7743170">
        <ele>314.8</ele>
        <time>2020-03-15T08:23:20Z</time>
      </trkpt>
      <trkpt lat="38.3223430" lon="-0.7742370">
        <ele>314.4</ele>
        <time>2020-03-15T08:23:21Z</time>
      </trkpt>
      <trkpt lat="38.3223780" lon="-0.7741690">
        <ele>314.2</ele>
        <time>2020-03-15T08:23:22Z</time>
      </trkpt>
      <trkpt lat="38.3224110" lon="-0.7740990">
        <ele>314.4</ele>
        <time>2020-03-15T08:23:23Z</time>
      </trkpt>
      <trkpt lat="38.3224430" lon="-0.7740320">
        <ele>314.6</ele>
        <time>2020-03-15T08:23:24Z</time>
      </trkpt>
      <trkpt lat="38.3224720" lon="-0.7739650">
        <ele>314.8</ele>
        <time>2020-03-15T08:23:25Z</time>
      </trkpt>
      <trkpt lat="38.3224970" lon="-0.7738950">
        <ele>315.0</ele>
        <time>2020-03-15T08:23:26Z</time>
      </trkpt>
      <trkpt lat="38.3225150" lon="-0.7738210">
        <ele>315.0</ele>
        <time>2020-03-15T08:23:27Z</time>
      </trkpt>
      <trkpt lat="38.3225170" lon="-0.7737390">
        <ele>314.8</ele>
        <time>2020-03-15T08:23:28Z</time>
      </trkpt>
      <trkpt lat="38.3224880" lon="-0.7736600">
        <ele>314.2</ele>
        <time>2020-03-15T08:23:29Z</time>
      </trkpt>
      <trkpt lat="38.3224360" lon="-0.7735970">
        <ele>313.4</ele>
        <time>2020-03-15T08:23:30Z</time>
      </trkpt>
      <trkpt lat="38.3223740" lon="-0.7735480">
        <ele>312.8</ele>
        <time>2020-03-15T08:23:31Z</time>
      </trkpt>
      <trkpt lat="38.3223030" lon="-0.7734990">
        <ele>312.2</ele>
        <time>2020-03-15T08:23:32Z</time>
      </trkpt>
      <trkpt lat="38.3222300" lon="-0.7734430">
        <ele>311.4</ele>
        <time>2020-03-15T08:23:33Z</time>
      </trkpt>
      <trkpt lat="38.3221650" lon="-0.7733750">
        <ele>310.2</ele>
        <time>2020-03-15T08:23:34Z</time>
      </trkpt>
      <trkpt lat="38.3221170" lon="-0.7732880">
        <ele>308.8</ele>
        <time>2020-03-15T08:23:35Z</time>
      </trkpt>
      <trkpt lat="38.3220930" lon="-0.7731810">
        <ele>307.8</ele>
        <time>2020-03-15T08:23:36Z</time>
      </trkpt>
      <trkpt lat="38.3220930" lon="-0.7730640">
        <ele>306.8</ele>
        <time>2020-03-15T08:23:37Z</time>
      </trkpt>
      <trkpt lat="38.3220930" lon="-0.7729820">
        <ele>306.4</ele>
        <time>2020-03-15T08:23:38Z</time>
      </trkpt>
      <trkpt lat="38.3220930" lon="-0.7729000">
        <ele>306.2</ele>
        <time>2020-03-15T08:23:39Z</time>
      </trkpt>
      <trkpt lat="38.3220920" lon="-0.7727370">
        <ele>306.4</ele>
        <time>2020-03-15T08:23:40Z</time>
      </trkpt>
      <trkpt lat="38.3220600" lon="-0.7726350">
        <ele>306.2</ele>
        <time>2020-03-15T08:23:41Z</time>
      </trkpt>
      <trkpt lat="38.3220280" lon="-0.7725320">
        <ele>305.8</ele>
        <time>2020-03-15T08:23:42Z</time>
      </trkpt>
      <trkpt lat="38.3220140" lon="-0.7724230">
        <ele>305.8</ele>
        <time>2020-03-15T08:23:43Z</time>
      </trkpt>
      <trkpt lat="38.3220230" lon="-0.7723190">
        <ele>305.6</ele>
        <time>2020-03-15T08:23:44Z</time>
      </trkpt>
      <trkpt lat="38.3220480" lon="-0.7722190">
        <ele>305.8</ele>
        <time>2020-03-15T08:23:45Z</time>
      </trkpt>
      <trkpt lat="38.3220760" lon="-0.7721290">
        <ele>306.0</ele>
        <time>2020-03-15T08:23:46Z</time>
      </trkpt>
      <trkpt lat="38.3221080" lon="-0.7720420">
        <ele>306.2</ele>
        <time>2020-03-15T08:23:47Z</time>
      </trkpt>
      <trkpt lat="38.3221390" lon="-0.7719560">
        <ele>306.4</ele>
        <time>2020-03-15T08:23:48Z</time>
      </trkpt>
      <trkpt lat="38.3221730" lon="-0.7718740">
        <ele>306.6</ele>
        <time>2020-03-15T08:23:49Z</time>
      </trkpt>
      <trkpt lat="38.3222080" lon="-0.7717930">
        <ele>306.6</ele>
        <time>2020-03-15T08:23:50Z</time>
      </trkpt>
      <trkpt lat="38.3222450" lon="-0.7717120">
        <ele>306.8</ele>
        <time>2020-03-15T08:23:51Z</time>
      </trkpt>
      <trkpt lat="38.3222820" lon="-0.7716310">
        <ele>307.0</ele>
        <time>2020-03-15T08:23:52Z</time>
      </trkpt>
      <trkpt lat="38.3223170" lon="-0.7715490">
        <ele>307.2</ele>
        <time>2020-03-15T08:23:53Z</time>
      </trkpt>
      <trkpt lat="38.3223520" lon="-0.7714680">
        <ele>307.4</ele>
        <time>2020-03-15T08:23:54Z</time>
      </trkpt>
      <trkpt lat="38.3223860" lon="-0.7713870">
        <ele>307.6</ele>
        <time>2020-03-15T08:23:55Z</time>
      </trkpt>
      <trkpt lat="38.3224170" lon="-0.7713060">
        <ele>307.8</ele>
        <time>2020-03-15T08:23:56Z</time>
      </trkpt>
      <trkpt lat="38.3224460" lon="-0.7712240">
        <ele>308.2</ele>
        <time>2020-03-15T08:23:57Z</time>
      </trkpt>
      <trkpt lat="38.3224720" lon="-0.7711430">
        <ele>308.4</ele>
        <time>2020-03-15T08:23:58Z</time>
      </trkpt>
      <trkpt lat="38.3224980" lon="-0.7710620">
        <ele>308.4</ele>
        <time>2020-03-15T08:23:59Z</time>
      </trkpt>
      <trkpt lat="38.3225220" lon="-0.7709830">
        <ele>308.6</ele>
        <time>2020-03-15T08:24:00Z</time>
      </trkpt>
      <trkpt lat="38.3225440" lon="-0.7709110">
        <ele>308.8</ele>
        <time>2020-03-15T08:24:01Z</time>
      </trkpt>
      <trkpt lat="38.3225670" lon="-0.7708370">
        <ele>309.0</ele>
        <time>2020-03-15T08:24:02Z</time>
      </trkpt>
      <trkpt lat="38.3225940" lon="-0.7707630">
        <ele>309.4</ele>
        <time>2020-03-15T08:24:03Z</time>
      </trkpt>
      <trkpt lat="38.3226240" lon="-0.7706930">
        <ele>309.6</ele>
        <time>2020-03-15T08:24:04Z</time>
      </trkpt>
      <trkpt lat="38.3226570" lon="-0.7706240">
        <ele>309.8</ele>
        <time>2020-03-15T08:24:05Z</time>
      </trkpt>
      <trkpt lat="38.3226900" lon="-0.7705590">
        <ele>310.2</ele>
        <time>2020-03-15T08:24:06Z</time>
      </trkpt>
      <trkpt lat="38.3227250" lon="-0.7704930">
        <ele>310.4</ele>
        <time>2020-03-15T08:24:07Z</time>
      </trkpt>
      <trkpt lat="38.3227630" lon="-0.7704290">
        <ele>310.6</ele>
        <time>2020-03-15T08:24:08Z</time>
      </trkpt>
      <trkpt lat="38.3228000" lon="-0.7703600">
        <ele>310.8</ele>
        <time>2020-03-15T08:24:09Z</time>
      </trkpt>
      <trkpt lat="38.3228380" lon="-0.7702940">
        <ele>310.8</ele>
        <time>2020-03-15T08:24:10Z</time>
      </trkpt>
      <trkpt lat="38.3228810" lon="-0.7702350">
        <ele>311.0</ele>
        <time>2020-03-15T08:24:11Z</time>
      </trkpt>
      <trkpt lat="38.3229240" lon="-0.7701680">
        <ele>311.4</ele>
        <time>2020-03-15T08:24:12Z</time>
      </trkpt>
      <trkpt lat="38.3229680" lon="-0.7701030">
        <ele>311.4</ele>
        <time>2020-03-15T08:24:13Z</time>
      </trkpt>
      <trkpt lat="38.3230170" lon="-0.7700420">
        <ele>311.8</ele>
        <time>2020-03-15T08:24:14Z</time>
      </trkpt>
      <trkpt lat="38.3230670" lon="-0.7699830">
        <ele>312.0</ele>
        <time>2020-03-15T08:24:15Z</time>
      </trkpt>
      <trkpt lat="38.3231180" lon="-0.7699260">
        <ele>312.4</ele>
        <time>2020-03-15T08:24:16Z</time>
      </trkpt>
      <trkpt lat="38.3231700" lon="-0.7698750">
        <ele>312.6</ele>
        <time>2020-03-15T08:24:17Z</time>
      </trkpt>
      <trkpt lat="38.3232070" lon="-0.7698390">
        <ele>313.0</ele>
        <time>2020-03-15T08:24:18Z</time>
      </trkpt>
      <trkpt lat="38.3232440" lon="-0.7698030">
        <ele>313.4</ele>
        <time>2020-03-15T08:24:19Z</time>
      </trkpt>
      <trkpt lat="38.3233170" lon="-0.7697310">
        <ele>313.4</ele>
        <time>2020-03-15T08:24:20Z</time>
      </trkpt>
      <trkpt lat="38.3233610" lon="-0.7696880">
        <ele>313.8</ele>
        <time>2020-03-15T08:24:21Z</time>
      </trkpt>
      <trkpt lat="38.3234060" lon="-0.7696460">
        <ele>314.2</ele>
        <time>2020-03-15T08:24:22Z</time>
      </trkpt>
      <trkpt lat="38.3234500" lon="-0.7696050">
        <ele>314.4</ele>
        <time>2020-03-15T08:24:23Z</time>
      </trkpt>
      <trkpt lat="38.3234930" lon="-0.7695660">
        <ele>314.8</ele>
        <time>2020-03-15T08:24:24Z</time>
      </trkpt>
      <trkpt lat="38.3235330" lon="-0.7695280">
        <ele>315.2</ele>
        <time>2020-03-15T08:24:25Z</time>
      </trkpt>
      <trkpt lat="38.3235710" lon="-0.7694920">
        <ele>315.4</ele>
        <time>2020-03-15T08:24:26Z</time>
      </trkpt>
      <trkpt lat="38.3236050" lon="-0.7694560">
        <ele>315.8</ele>
        <time>2020-03-15T08:24:27Z</time>
      </trkpt>
      <trkpt lat="38.3236390" lon="-0.7694200">
        <ele>316.2</ele>
        <time>2020-03-15T08:24:28Z</time>
      </trkpt>
      <trkpt lat="38.3236710" lon="-0.7693820">
        <ele>316.2</ele>
        <time>2020-03-15T08:24:29Z</time>
      </trkpt>
      <trkpt lat="38.3237010" lon="-0.7693440">
        <ele>316.4</ele>
        <time>2020-03-15T08:24:30Z</time>
      </trkpt>
      <trkpt lat="38.3237320" lon="-0.7693040">
        <ele>316.6</ele>
        <time>2020-03-15T08:24:31Z</time>
      </trkpt>
      <trkpt lat="38.3237600" lon="-0.7692620">
        <ele>316.8</ele>
        <time>2020-03-15T08:24:32Z</time>
      </trkpt>
      <trkpt lat="38.3237850" lon="-0.7692170">
        <ele>316.8</ele>
        <time>2020-03-15T08:24:33Z</time>
      </trkpt>
      <trkpt lat="38.3238130" lon="-0.7691700">
        <ele>317.2</ele>
        <time>2020-03-15T08:24:34Z</time>
      </trkpt>
      <trkpt lat="38.3238410" lon="-0.7691260">
        <ele>317.6</ele>
        <time>2020-03-15T08:24:35Z</time>
      </trkpt>
      <trkpt lat="38.3238680" lon="-0.7690840">
        <ele>317.8</ele>
        <time>2020-03-15T08:24:36Z</time>
      </trkpt>
      <trkpt lat="38.3238970" lon="-0.7690430">
        <ele>318.2</ele>
        <time>2020-03-15T08:24:37Z</time>
      </trkpt>
      <trkpt lat="38.3239250" lon="-0.7690020">
        <ele>318.6</ele>
        <time>2020-03-15T08:24:38Z</time>
      </trkpt>
      <trkpt lat="38.3239480" lon="-0.7689600">
        <ele>318.8</ele>
        <time>2020-03-15T08:24:39Z</time>
      </trkpt>
      <trkpt lat="38.3239680" lon="-0.7689200">
        <ele>319.0</ele>
        <time>2020-03-15T08:24:40Z</time>
      </trkpt>
      <trkpt lat="38.3239860" lon="-0.7688810">
        <ele>319.2</ele>
        <time>2020-03-15T08:24:41Z</time>
      </trkpt>
      <trkpt lat="38.3240080" lon="-0.7688410">
        <ele>319.4</ele>
        <time>2020-03-15T08:24:42Z</time>
      </trkpt>
      <trkpt lat="38.3240290" lon="-0.7688000">
        <ele>319.6</ele>
        <time>2020-03-15T08:24:43Z</time>
      </trkpt>
      <trkpt lat="38.3240490" lon="-0.7687620">
        <ele>319.8</ele>
        <time>2020-03-15T08:24:44Z</time>
      </trkpt>
      <trkpt lat="38.3240690" lon="-0.7687240">
        <ele>320.0</ele>
        <time>2020-03-15T08:24:45Z</time>
      </trkpt>
      <trkpt lat="38.3240910" lon="-0.7686820">
        <ele>320.2</ele>
        <time>2020-03-15T08:24:46Z</time>
      </trkpt>
      <trkpt lat="38.3241120" lon="-0.7686440">
        <ele>320.4</ele>
        <time>2020-03-15T08:24:47Z</time>
      </trkpt>
      <trkpt lat="38.3241330" lon="-0.7686060">
        <ele>320.6</ele>
        <time>2020-03-15T08:24:48Z</time>
      </trkpt>
      <trkpt lat="38.3241520" lon="-0.7685680">
        <ele>320.8</ele>
        <time>2020-03-15T08:24:49Z</time>
      </trkpt>
      <trkpt lat="38.3241720" lon="-0.7685310">
        <ele>321.0</ele>
        <time>2020-03-15T08:24:50Z</time>
      </trkpt>
      <trkpt lat="38.3241910" lon="-0.7684930">
        <ele>321.2</ele>
        <time>2020-03-15T08:24:51Z</time>
      </trkpt>
      <trkpt lat="38.3242080" lon="-0.7684530">
        <ele>321.6</ele>
        <time>2020-03-15T08:24:52Z</time>
      </trkpt>
      <trkpt lat="38.3242210" lon="-0.7684090">
        <ele>321.4</ele>
        <time>2020-03-15T08:24:53Z</time>
      </trkpt>
      <trkpt lat="38.3242300" lon="-0.7683580">
        <ele>321.6</ele>
        <time>2020-03-15T08:24:54Z</time>
      </trkpt>
      <trkpt lat="38.3242340" lon="-0.7683070">
        <ele>321.8</ele>
        <time>2020-03-15T08:24:55Z</time>
      </trkpt>
      <trkpt lat="38.3242370" lon="-0.7682540">
        <ele>321.8</ele>
        <time>2020-03-15T08:24:56Z</time>
      </trkpt>
      <trkpt lat="38.3242430" lon="-0.7681980">
        <ele>322.0</ele>
        <time>2020-03-15T08:24:57Z</time>
      </trkpt>
      <trkpt lat="38.3242490" lon="-0.7681440">
        <ele>322.0</ele>
        <time>2020-03-15T08:24:58Z</time>
      </trkpt>
      <trkpt lat="38.3242520" lon="-0.7680900">
        <ele>322.0</ele>
        <time>2020-03-15T08:24:59Z</time>
      </trkpt>
      <trkpt lat="38.3242570" lon="-0.7680350">
        <ele>322.2</ele>
        <time>2020-03-15T08:25:00Z</time>
      </trkpt>
      <trkpt lat="38.3242660" lon="-0.7679860">
        <ele>322.4</ele>
        <time>2020-03-15T08:25:01Z</time>
      </trkpt>
      <trkpt lat="38.3242840" lon="-0.7679400">
        <ele>322.6</ele>
        <time>2020-03-15T08:25:02Z</time>
      </trkpt>
      <trkpt lat="38.3243070" lon="-0.7678970">
        <ele>322.6</ele>
        <time>2020-03-15T08:25:03Z</time>
      </trkpt>
      <trkpt lat="38.3243350" lon="-0.7678630">
        <ele>322.6</ele>
        <time>2020-03-15T08:25:04Z</time>
      </trkpt>
      <trkpt lat="38.3243680" lon="-0.7678300">
        <ele>323.0</ele>
        <time>2020-03-15T08:25:05Z</time>
      </trkpt>
      <trkpt lat="38.3244050" lon="-0.7677990">
        <ele>323.0</ele>
        <time>2020-03-15T08:25:06Z</time>
      </trkpt>
      <trkpt lat="38.3244450" lon="-0.7677680">
        <ele>323.0</ele>
        <time>2020-03-15T08:25:07Z</time>
      </trkpt>
      <trkpt lat="38.3244870" lon="-0.7677390">
        <ele>323.0</ele>
        <time>2020-03-15T08:25:08Z</time>
      </trkpt>
      <trkpt lat="38.3245290" lon="-0.7677100">
        <ele>323.0</ele>
        <time>2020-03-15T08:25:09Z</time>
      </trkpt>
      <trkpt lat="38.3245700" lon="-0.7676790">
        <ele>323.0</ele>
        <time>2020-03-15T08:25:10Z</time>
      </trkpt>
      <trkpt lat="38.3246120" lon="-0.7676470">
        <ele>323.0</ele>
        <time>2020-03-15T08:25:11Z</time>
      </trkpt>
      <trkpt lat="38.3246500" lon="-0.7676120">
        <ele>323.0</ele>
        <time>2020-03-15T08:25:12Z</time>
      </trkpt>
      <trkpt lat="38.3246860" lon="-0.7675750">
        <ele>323.4</ele>
        <time>2020-03-15T08:25:13Z</time>
      </trkpt>
      <trkpt lat="38.3247210" lon="-0.7675360">
        <ele>323.6</ele>
        <time>2020-03-15T08:25:14Z</time>
      </trkpt>
      <trkpt lat="38.3247520" lon="-0.7675000">
        <ele>323.8</ele>
        <time>2020-03-15T08:25:15Z</time>
      </trkpt>
      <trkpt lat="38.3247810" lon="-0.7674680">
        <ele>324.2</ele>
        <time>2020-03-15T08:25:16Z</time>
      </trkpt>
      <trkpt lat="38.3248070" lon="-0.7674340">
        <ele>324.4</ele>
        <time>2020-03-15T08:25:17Z</time>
      </trkpt>
      <trkpt lat="38.3248340" lon="-0.7674010">
        <ele>324.6</ele>
        <time>2020-03-15T08:25:18Z</time>
      </trkpt>
      <trkpt lat="38.3248600" lon="-0.7673690">
        <ele>324.8</ele>
        <time>2020-03-15T08:25:19Z</time>
      </trkpt>
      <trkpt lat="38.3248840" lon="-0.7673350">
        <ele>325.2</ele>
        <time>2020-03-15T08:25:20Z</time>
      </trkpt>
      <trkpt lat="38.3249100" lon="-0.7673050">
        <ele>325.4</ele>
        <time>2020-03-15T08:25:21Z</time>
      </trkpt>
      <trkpt lat="38.3249370" lon="-0.7672770">
        <ele>325.6</ele>
        <time>2020-03-15T08:25:22Z</time>
      </trkpt>
      <trkpt lat="38.3249670" lon="-0.7672500">
        <ele>325.8</ele>
        <time>2020-03-15T08:25:23Z</time>
      </trkpt>
      <trkpt lat="38.3249960" lon="-0.7672240">
        <ele>326.0</ele>
        <time>2020-03-15T08:25:24Z</time>
      </trkpt>
      <trkpt lat="38.3250240" lon="-0.7671980">
        <ele>326.2</ele>
        <time>2020-03-15T08:25:25Z</time>
      </trkpt>
      <trkpt lat="38.3250530" lon="-0.7671730">
        <ele>326.6</ele>
        <time>2020-03-15T08:25:26Z</time>
      </trkpt>
      <trkpt lat="38.3250810" lon="-0.7671500">
        <ele>326.8</ele>
        <time>2020-03-15T08:25:27Z</time>
      </trkpt>
      <trkpt lat="38.3251090" lon="-0.7671270">
        <ele>327.0</ele>
        <time>2020-03-15T08:25:28Z</time>
      </trkpt>
      <trkpt lat="38.3251360" lon="-0.7671030">
        <ele>327.2</ele>
        <time>2020-03-15T08:25:29Z</time>
      </trkpt>
      <trkpt lat="38.3251640" lon="-0.7670760">
        <ele>327.4</ele>
        <time>2020-03-15T08:25:30Z</time>
      </trkpt>
      <trkpt lat="38.3251920" lon="-0.7670530">
        <ele>327.6</ele>
        <time>2020-03-15T08:25:31Z</time>
      </trkpt>
      <trkpt lat="38.3252220" lon="-0.7670310">
        <ele>327.8</ele>
        <time>2020-03-15T08:25:32Z</time>
      </trkpt>
      <trkpt lat="38.3252520" lon="-0.7670090">
        <ele>328.0</ele>
        <time>2020-03-15T08:25:33Z</time>
      </trkpt>
      <trkpt lat="38.3252800" lon="-0.7669860">
        <ele>328.2</ele>
        <time>2020-03-15T08:25:34Z</time>
      </trkpt>
      <trkpt lat="38.3253100" lon="-0.7669660">
        <ele>328.4</ele>
        <time>2020-03-15T08:25:35Z</time>
      </trkpt>
      <trkpt lat="38.3253410" lon="-0.7669480">
        <ele>328.6</ele>
        <time>2020-03-15T08:25:36Z</time>
      </trkpt>
      <trkpt lat="38.3253710" lon="-0.7669300">
        <ele>328.8</ele>
        <time>2020-03-15T08:25:37Z</time>
      </trkpt>
      <trkpt lat="38.3254010" lon="-0.7669130">
        <ele>329.2</ele>
        <time>2020-03-15T08:25:38Z</time>
      </trkpt>
      <trkpt lat="38.3254290" lon="-0.7668950">
        <ele>329.4</ele>
        <time>2020-03-15T08:25:39Z</time>
      </trkpt>
      <trkpt lat="38.3254580" lon="-0.7668770">
        <ele>329.6</ele>
        <time>2020-03-15T08:25:40Z</time>
      </trkpt>
      <trkpt lat="38.3254860" lon="-0.7668580">
        <ele>329.8</ele>
        <time>2020-03-15T08:25:41Z</time>
      </trkpt>
      <trkpt lat="38.3255140" lon="-0.7668370">
        <ele>330.0</ele>
        <time>2020-03-15T08:25:42Z</time>
      </trkpt>
      <trkpt lat="38.3255420" lon="-0.7668180">
        <ele>330.4</ele>
        <time>2020-03-15T08:25:43Z</time>
      </trkpt>
      <trkpt lat="38.3255730" lon="-0.7667980">
        <ele>330.6</ele>
        <time>2020-03-15T08:25:44Z</time>
      </trkpt>
      <trkpt lat="38.3256020" lon="-0.7667800">
        <ele>330.6</ele>
        <time>2020-03-15T08:25:45Z</time>
      </trkpt>
      <trkpt lat="38.3256310" lon="-0.7667600">
        <ele>330.8</ele>
        <time>2020-03-15T08:25:46Z</time>
      </trkpt>
      <trkpt lat="38.3256590" lon="-0.7667420">
        <ele>331.2</ele>
        <time>2020-03-15T08:25:47Z</time>
      </trkpt>
      <trkpt lat="38.3256870" lon="-0.7667230">
        <ele>331.2</ele>
        <time>2020-03-15T08:25:48Z</time>
      </trkpt>
      <trkpt lat="38.3257160" lon="-0.7667040">
        <ele>331.6</ele>
        <time>2020-03-15T08:25:49Z</time>
      </trkpt>
      <trkpt lat="38.3257460" lon="-0.7666850">
        <ele>331.8</ele>
        <time>2020-03-15T08:25:50Z</time>
      </trkpt>
      <trkpt lat="38.3257750" lon="-0.7666650">
        <ele>332.2</ele>
        <time>2020-03-15T08:25:51Z</time>
      </trkpt>
      <trkpt lat="38.3258020" lon="-0.7666450">
        <ele>332.4</ele>
        <time>2020-03-15T08:25:52Z</time>
      </trkpt>
      <trkpt lat="38.3258290" lon="-0.7666240">
        <ele>332.8</ele>
        <time>2020-03-15T08:25:53Z</time>
      </trkpt>
      <trkpt lat="38.3258580" lon="-0.7666050">
        <ele>332.8</ele>
        <time>2020-03-15T08:25:54Z</time>
      </trkpt>
      <trkpt lat="38.3258890" lon="-0.7665840">
        <ele>333.2</ele>
        <time>2020-03-15T08:25:55Z</time>
      </trkpt>
      <trkpt lat="38.3259170" lon="-0.7665620">
        <ele>333.4</ele>
        <time>2020-03-15T08:25:56Z</time>
      </trkpt>
      <trkpt lat="38.3259460" lon="-0.7665390">
        <ele>333.6</ele>
        <time>2020-03-15T08:25:57Z</time>
      </trkpt>
      <trkpt lat="38.3259730" lon="-0.7665160">
        <ele>334.0</ele>
        <time>2020-03-15T08:25:58Z</time>
      </trkpt>
      <trkpt lat="38.3259980" lon="-0.7664900">
        <ele>334.0</ele>
        <time>2020-03-15T08:25:59Z</time>
      </trkpt>
      <trkpt lat="38.3260200" lon="-0.7664600">
        <ele>334.4</ele>
        <time>2020-03-15T08:26:00Z</time>
      </trkpt>
      <trkpt lat="38.3260410" lon="-0.7664290">
        <ele>334.6</ele>
        <time>2020-03-15T08:26:01Z</time>
      </trkpt>
      <trkpt lat="38.3260590" lon="-0.7663880">
        <ele>334.8</ele>
        <time>2020-03-15T08:26:02Z</time>
      </trkpt>
      <trkpt lat="38.3260730" lon="-0.7663430">
        <ele>335.0</ele>
        <time>2020-03-15T08:26:03Z</time>
      </trkpt>
      <trkpt lat="38.3260850" lon="-0.7662930">
        <ele>335.2</ele>
        <time>2020-03-15T08:26:04Z</time>
      </trkpt>
      <trkpt lat="38.3260910" lon="-0.7662380">
        <ele>335.2</ele>
        <time>2020-03-15T08:26:05Z</time>
      </trkpt>
      <trkpt lat="38.3260930" lon="-0.7661820">
        <ele>335.2</ele>
        <time>2020-03-15T08:26:06Z</time>
      </trkpt>
      <trkpt lat="38.3260890" lon="-0.7661240">
        <ele>335.0</ele>
        <time>2020-03-15T08:26:07Z</time>
      </trkpt>
      <trkpt lat="38.3260760" lon="-0.7660650">
        <ele>335.0</ele>
        <time>2020-03-15T08:26:08Z</time>
      </trkpt>
      <trkpt lat="38.3260590" lon="-0.7660040">
        <ele>335.0</ele>
        <time>2020-03-15T08:26:09Z</time>
      </trkpt>
      <trkpt lat="38.3260400" lon="-0.7659420">
        <ele>335.0</ele>
        <time>2020-03-15T08:26:10Z</time>
      </trkpt>
      <trkpt lat="38.3260170" lon="-0.7658780">
        <ele>334.8</ele>
        <time>2020-03-15T08:26:11Z</time>
      </trkpt>
      <trkpt lat="38.3259940" lon="-0.7658150">
        <ele>334.8</ele>
        <time>2020-03-15T08:26:12Z</time>
      </trkpt>
      <trkpt lat="38.3259670" lon="-0.7657520">
        <ele>334.6</ele>
        <time>2020-03-15T08:26:13Z</time>
      </trkpt>
      <trkpt lat="38.3259350" lon="-0.7656910">
        <ele>334.6</ele>
        <time>2020-03-15T08:26:14Z</time>
      </trkpt>
      <trkpt lat="38.3259030" lon="-0.7656300">
        <ele>334.6</ele>
        <time>2020-03-15T08:26:15Z</time>
      </trkpt>
      <trkpt lat="38.3258690" lon="-0.7655670">
        <ele>334.4</ele>
        <time>2020-03-15T08:26:16Z</time>
      </trkpt>
      <trkpt lat="38.3258340" lon="-0.7655030">
        <ele>334.6</ele>
        <time>2020-03-15T08:26:17Z</time>
      </trkpt>
      <trkpt lat="38.3257940" lon="-0.7654380">
        <ele>334.4</ele>
        <time>2020-03-15T08:26:18Z</time>
      </trkpt>
      <trkpt lat="38.3257520" lon="-0.7653700">
        <ele>334.4</ele>
        <time>2020-03-15T08:26:19Z</time>
      </trkpt>
      <trkpt lat="38.3257090" lon="-0.7653020">
        <ele>334.0</ele>
        <time>2020-03-15T08:26:20Z</time>
      </trkpt>
      <trkpt lat="38.3256660" lon="-0.7652350">
        <ele>334.0</ele>
        <time>2020-03-15T08:26:21Z</time>
      </trkpt>
      <trkpt lat="38.3256240" lon="-0.7651710">
        <ele>333.8</ele>
        <time>2020-03-15T08:26:22Z</time>
      </trkpt>
      <trkpt lat="38.3255830" lon="-0.7651050">
        <ele>333.6</ele>
        <time>2020-03-15T08:26:23Z</time>
      </trkpt>
      <trkpt lat="38.3255410" lon="-0.7650360">
        <ele>333.6</ele>
        <time>2020-03-15T08:26:24Z</time>
      </trkpt>
      <trkpt lat="38.3255020" lon="-0.7649680">
        <ele>333.6</ele>
        <time>2020-03-15T08:26:25Z</time>
      </trkpt>
      <trkpt lat="38.3254630" lon="-0.7649010">
        <ele>333.6</ele>
        <time>2020-03-15T08:26:26Z</time>
      </trkpt>
      <trkpt lat="38.3254240" lon="-0.7648310">
        <ele>333.6</ele>
        <time>2020-03-15T08:26:27Z</time>
      </trkpt>
      <trkpt lat="38.3253850" lon="-0.7647600">
        <ele>333.6</ele>
        <time>2020-03-15T08:26:28Z</time>
      </trkpt>
      <trkpt lat="38.3253470" lon="-0.7646860">
        <ele>333.6</ele>
        <time>2020-03-15T08:26:29Z</time>
      </trkpt>
      <trkpt lat="38.3253100" lon="-0.7646120">
        <ele>333.4</ele>
        <time>2020-03-15T08:26:30Z</time>
      </trkpt>
      <trkpt lat="38.3252740" lon="-0.7645390">
        <ele>333.4</ele>
        <time>2020-03-15T08:26:31Z</time>
      </trkpt>
      <trkpt lat="38.3252390" lon="-0.7644660">
        <ele>333.4</ele>
        <time>2020-03-15T08:26:32Z</time>
      </trkpt>
      <trkpt lat="38.3252040" lon="-0.7643920">
        <ele>333.2</ele>
        <time>2020-03-15T08:26:33Z</time>
      </trkpt>
      <trkpt lat="38.3251700" lon="-0.7643170">
        <ele>333.2</ele>
        <time>2020-03-15T08:26:34Z</time>
      </trkpt>
      <trkpt lat="38.3251370" lon="-0.7642420">
        <ele>333.2</ele>
        <time>2020-03-15T08:26:35Z</time>
      </trkpt>
      <trkpt lat="38.3251050" lon="-0.7641660">
        <ele>333.2</ele>
        <time>2020-03-15T08:26:36Z</time>
      </trkpt>
      <trkpt lat="38.3250720" lon="-0.7640900">
        <ele>333.4</ele>
        <time>2020-03-15T08:26:37Z</time>
      </trkpt>
      <trkpt lat="38.3250400" lon="-0.7640120">
        <ele>333.4</ele>
        <time>2020-03-15T08:26:38Z</time>
      </trkpt>
      <trkpt lat="38.3250100" lon="-0.7639340">
        <ele>333.2</ele>
        <time>2020-03-15T08:26:39Z</time>
      </trkpt>
      <trkpt lat="38.3249790" lon="-0.7638560">
        <ele>333.2</ele>
        <time>2020-03-15T08:26:40Z</time>
      </trkpt>
      <trkpt lat="38.3249500" lon="-0.7637780">
        <ele>333.2</ele>
        <time>2020-03-15T08:26:41Z</time>
      </trkpt>
      <trkpt lat="38.3249210" lon="-0.7636980">
        <ele>333.2</ele>
        <time>2020-03-15T08:26:42Z</time>
      </trkpt>
      <trkpt lat="38.3248920" lon="-0.7636170">
        <ele>333.0</ele>
        <time>2020-03-15T08:26:43Z</time>
      </trkpt>
      <trkpt lat="38.3248640" lon="-0.7635360">
        <ele>333.0</ele>
        <time>2020-03-15T08:26:44Z</time>
      </trkpt>
      <trkpt lat="38.3248360" lon="-0.7634560">
        <ele>333.0</ele>
        <time>2020-03-15T08:26:45Z</time>
      </trkpt>
      <trkpt lat="38.3248070" lon="-0.7633740">
        <ele>332.8</ele>
        <time>2020-03-15T08:26:46Z</time>
      </trkpt>
      <trkpt lat="38.3247770" lon="-0.7632930">
        <ele>332.8</ele>
        <time>2020-03-15T08:26:47Z</time>
      </trkpt>
      <trkpt lat="38.3247470" lon="-0.7632110">
        <ele>332.8</ele>
        <time>2020-03-15T08:26:48Z</time>
      </trkpt>
      <trkpt lat="38.3247180" lon="-0.7631290">
        <ele>332.8</ele>
        <time>2020-03-15T08:26:49Z</time>
      </trkpt>
      <trkpt lat="38.3246890" lon="-0.7630460">
        <ele>332.8</ele>
        <time>2020-03-15T08:26:50Z</time>
      </trkpt>
      <trkpt lat="38.3246590" lon="-0.7629640">
        <ele>332.8</ele>
        <time>2020-03-15T08:26:51Z</time>
      </trkpt>
      <trkpt lat="38.3246290" lon="-0.7628820">
        <ele>332.8</ele>
        <time>2020-03-15T08:26:52Z</time>
      </trkpt>
      <trkpt lat="38.3246010" lon="-0.7628020">
        <ele>332.8</ele>
        <time>2020-03-15T08:26:53Z</time>
      </trkpt>
      <trkpt lat="38.3245710" lon="-0.7627230">
        <ele>332.8</ele>
        <time>2020-03-15T08:26:54Z</time>
      </trkpt>
      <trkpt lat="38.3245430" lon="-0.7626410">
        <ele>332.8</ele>
        <time>2020-03-15T08:26:55Z</time>
      </trkpt>
      <trkpt lat="38.3245150" lon="-0.7625580">
        <ele>332.4</ele>
        <time>2020-03-15T08:26:56Z</time>
      </trkpt>
      <trkpt lat="38.3244840" lon="-0.7624710">
        <ele>332.2</ele>
        <time>2020-03-15T08:26:57Z</time>
      </trkpt>
      <trkpt lat="38.3244540" lon="-0.7623820">
        <ele>331.8</ele>
        <time>2020-03-15T08:26:58Z</time>
      </trkpt>
      <trkpt lat="38.3244260" lon="-0.7622910">
        <ele>331.6</ele>
        <time>2020-03-15T08:26:59Z</time>
      </trkpt>
      <trkpt lat="38.3244010" lon="-0.7621960">
        <ele>331.2</ele>
        <time>2020-03-15T08:27:00Z</time>
      </trkpt>
      <trkpt lat="38.3243750" lon="-0.7620980">
        <ele>330.6</ele>
        <time>2020-03-15T08:27:01Z</time>
      </trkpt>
      <trkpt lat="38.3243480" lon="-0.7620000">
        <ele>330.2</ele>
        <time>2020-03-15T08:27:02Z</time>
      </trkpt>
      <trkpt lat="38.3243200" lon="-0.7619020">
        <ele>330.0</ele>
        <time>2020-03-15T08:27:03Z</time>
      </trkpt>
      <trkpt lat="38.3242860" lon="-0.7618030">
        <ele>329.4</ele>
        <time>2020-03-15T08:27:04Z</time>
      </trkpt>
      <trkpt lat="38.3242530" lon="-0.7617030">
        <ele>328.8</ele>
        <time>2020-03-15T08:27:05Z</time>
      </trkpt>
      <trkpt lat="38.3242170" lon="-0.7616020">
        <ele>328.6</ele>
        <time>2020-03-15T08:27:06Z</time>
      </trkpt>
      <trkpt lat="38.3241810" lon="-0.7615020">
        <ele>328.0</ele>
        <time>2020-03-15T08:27:07Z</time>
      </trkpt>
      <trkpt lat="38.3241420" lon="-0.7614010">
        <ele>327.6</ele>
        <time>2020-03-15T08:27:08Z</time>
      </trkpt>
      <trkpt lat="38.3241020" lon="-0.7613010">
        <ele>327.2</ele>
        <time>2020-03-15T08:27:09Z</time>
      </trkpt>
      <trkpt lat="38.3240630" lon="-0.7612010">
        <ele>326.6</ele>
        <time>2020-03-15T08:27:10Z</time>
      </trkpt>
      <trkpt lat="38.3240230" lon="-0.7611020">
        <ele>326.2</ele>
        <time>2020-03-15T08:27:11Z</time>
      </trkpt>
      <trkpt lat="38.3239960" lon="-0.7610320">
        <ele>326.0</ele>
        <time>2020-03-15T08:27:12Z</time>
      </trkpt>
      <trkpt lat="38.3239680" lon="-0.7609620">
        <ele>325.8</ele>
        <time>2020-03-15T08:27:13Z</time>
      </trkpt>
      <trkpt lat="38.3239120" lon="-0.7608230">
        <ele>326.2</ele>
        <time>2020-03-15T08:27:14Z</time>
      </trkpt>
      <trkpt lat="38.3238780" lon="-0.7607410">
        <ele>326.6</ele>
        <time>2020-03-15T08:27:15Z</time>
      </trkpt>
      <trkpt lat="38.3238450" lon="-0.7606630">
        <ele>327.0</ele>
        <time>2020-03-15T08:27:16Z</time>
      </trkpt>
      <trkpt lat="38.3238170" lon="-0.7605900">
        <ele>327.4</ele>
        <time>2020-03-15T08:27:17Z</time>
      </trkpt>
      <trkpt lat="38.3237880" lon="-0.7605210">
        <ele>327.8</ele>
        <time>2020-03-15T08:27:18Z</time>
      </trkpt>
      <trkpt lat="38.3237600" lon="-0.7604540">
        <ele>328.2</ele>
        <time>2020-03-15T08:27:19Z</time>
      </trkpt>
      <trkpt lat="38.3237320" lon="-0.7603920">
        <ele>328.4</ele>
        <time>2020-03-15T08:27:20Z</time>
      </trkpt>
      <trkpt lat="38.3237040" lon="-0.7603310">
        <ele>328.8</ele>
        <time>2020-03-15T08:27:21Z</time>
      </trkpt>
      <trkpt lat="38.3236770" lon="-0.7602700">
        <ele>329.0</ele>
        <time>2020-03-15T08:27:22Z</time>
      </trkpt>
      <trkpt lat="38.3236510" lon="-0.7602100">
        <ele>329.2</ele>
        <time>2020-03-15T08:27:23Z</time>
      </trkpt>
      <trkpt lat="38.3236210" lon="-0.7601500">
        <ele>329.4</ele>
        <time>2020-03-15T08:27:24Z</time>
      </trkpt>
      <trkpt lat="38.3235880" lon="-0.7600880">
        <ele>329.2</ele>
        <time>2020-03-15T08:27:25Z</time>
      </trkpt>
      <trkpt lat="38.3235520" lon="-0.7600260">
        <ele>329.2</ele>
        <time>2020-03-15T08:27:26Z</time>
      </trkpt>
      <trkpt lat="38.3235130" lon="-0.7599610">
        <ele>329.0</ele>
        <time>2020-03-15T08:27:27Z</time>
      </trkpt>
      <trkpt lat="38.3234720" lon="-0.7598960">
        <ele>328.8</ele>
        <time>2020-03-15T08:27:28Z</time>
      </trkpt>
      <trkpt lat="38.3234270" lon="-0.7598280">
        <ele>328.6</ele>
        <time>2020-03-15T08:27:29Z</time>
      </trkpt>
      <trkpt lat="38.3233820" lon="-0.7597590">
        <ele>328.4</ele>
        <time>2020-03-15T08:27:30Z</time>
      </trkpt>
      <trkpt lat="38.3233350" lon="-0.7596890">
        <ele>328.2</ele>
        <time>2020-03-15T08:27:31Z</time>
      </trkpt>
      <trkpt lat="38.3232850" lon="-0.7596190">
        <ele>327.8</ele>
        <time>2020-03-15T08:27:32Z</time>
      </trkpt>
      <trkpt lat="38.3232340" lon="-0.7595470">
        <ele>327.6</ele>
        <time>2020-03-15T08:27:33Z</time>
      </trkpt>
      <trkpt lat="38.3231800" lon="-0.7594750">
        <ele>327.2</ele>
        <time>2020-03-15T08:27:34Z</time>
      </trkpt>
      <trkpt lat="38.3231270" lon="-0.7594020">
        <ele>327.2</ele>
        <time>2020-03-15T08:27:35Z</time>
      </trkpt>
      <trkpt lat="38.3230730" lon="-0.7593260">
        <ele>326.8</ele>
        <time>2020-03-15T08:27:36Z</time>
      </trkpt>
      <trkpt lat="38.3230190" lon="-0.7592510">
        <ele>326.6</ele>
        <time>2020-03-15T08:27:37Z</time>
      </trkpt>
      <trkpt lat="38.3229650" lon="-0.7591740">
        <ele>326.2</ele>
        <time>2020-03-15T08:27:38Z</time>
      </trkpt>
      <trkpt lat="38.3229090" lon="-0.7590960">
        <ele>326.0</ele>
        <time>2020-03-15T08:27:39Z</time>
      </trkpt>
      <trkpt lat="38.3228540" lon="-0.7590170">
        <ele>326.0</ele>
        <time>2020-03-15T08:27:40Z</time>
      </trkpt>
      <trkpt lat="38.3227980" lon="-0.7589370">
        <ele>325.8</ele>
        <time>2020-03-15T08:27:41Z</time>
      </trkpt>
      <trkpt lat="38.3227430" lon="-0.7588570">
        <ele>325.4</ele>
        <time>2020-03-15T08:27:42Z</time>
      </trkpt>
      <trkpt lat="38.3226860" lon="-0.7587770">
        <ele>325.4</ele>
        <time>2020-03-15T08:27:43Z</time>
      </trkpt>
      <trkpt lat="38.3226460" lon="-0.7587150">
        <ele>325.2</ele>
        <time>2020-03-15T08:27:44Z</time>
      </trkpt>
      <trkpt lat="38.3226050" lon="-0.7586540">
        <ele>324.8</ele>
        <time>2020-03-15T08:27:45Z</time>
      </trkpt>
      <trkpt lat="38.3225230" lon="-0.7585320">
        <ele>324.6</ele>
        <time>2020-03-15T08:27:46Z</time>
      </trkpt>
      <trkpt lat="38.3224720" lon="-0.7584450">
        <ele>324.4</ele>
        <time>2020-03-15T08:27:47Z</time>
      </trkpt>
      <trkpt lat="38.3224210" lon="-0.7583570">
        <ele>324.2</ele>
        <time>2020-03-15T08:27:48Z</time>
      </trkpt>
      <trkpt lat="38.3223720" lon="-0.7582660">
        <ele>323.8</ele>
        <time>2020-03-15T08:27:49Z</time>
      </trkpt>
      <trkpt lat="38.3223230" lon="-0.7581720">
        <ele>323.4</ele>
        <time>2020-03-15T08:27:50Z</time>
      </trkpt>
      <trkpt lat="38.3222750" lon="-0.7580750">
        <ele>323.2</ele>
        <time>2020-03-15T08:27:51Z</time>
      </trkpt>
      <trkpt lat="38.3222280" lon="-0.7579760">
        <ele>322.6</ele>
        <time>2020-03-15T08:27:52Z</time>
      </trkpt>
      <trkpt lat="38.3221830" lon="-0.7578730">
        <ele>322.2</ele>
        <time>2020-03-15T08:27:53Z</time>
      </trkpt>
      <trkpt lat="38.3221400" lon="-0.7577680">
        <ele>322.0</ele>
        <time>2020-03-15T08:27:54Z</time>
      </trkpt>
      <trkpt lat="38.3220990" lon="-0.7576590">
        <ele>321.4</ele>
        <time>2020-03-15T08:27:55Z</time>
      </trkpt>
      <trkpt lat="38.3220620" lon="-0.7575480">
        <ele>320.8</ele>
        <time>2020-03-15T08:27:56Z</time>
      </trkpt>
      <trkpt lat="38.3220240" lon="-0.7574340">
        <ele>320.2</ele>
        <time>2020-03-15T08:27:57Z</time>
      </trkpt>
      <trkpt lat="38.3219850" lon="-0.7573190">
        <ele>319.6</ele>
        <time>2020-03-15T08:27:58Z</time>
      </trkpt>
      <trkpt lat="38.3219480" lon="-0.7572010">
        <ele>319.0</ele>
        <time>2020-03-15T08:27:59Z</time>
      </trkpt>
      <trkpt lat="38.3219120" lon="-0.7570820">
        <ele>318.2</ele>
        <time>2020-03-15T08:28:00Z</time>
      </trkpt>
      <trkpt lat="38.3218740" lon="-0.7569620">
        <ele>317.6</ele>
        <time>2020-03-15T08:28:01Z</time>
      </trkpt>
      <trkpt lat="38.3218330" lon="-0.7568400">
        <ele>316.8</ele>
        <time>2020-03-15T08:28:02Z</time>
      </trkpt>
      <trkpt lat="38.3217900" lon="-0.7567170">
        <ele>316.0</ele>
        <time>2020-03-15T08:28:03Z</time>
      </trkpt>
      <trkpt lat="38.3217470" lon="-0.7565910">
        <ele>315.2</ele>
        <time>2020-03-15T08:28:04Z</time>
      </trkpt>
      <trkpt lat="38.3217000" lon="-0.7564650">
        <ele>314.6</ele>
        <time>2020-03-15T08:28:05Z</time>
      </trkpt>
      <trkpt lat="38.3216480" lon="-0.7563420">
        <ele>313.6</ele>
        <time>2020-03-15T08:28:06Z</time>
      </trkpt>
      <trkpt lat="38.3215860" lon="-0.7562190">
        <ele>312.8</ele>
        <time>2020-03-15T08:28:07Z</time>
      </trkpt>
      <trkpt lat="38.3215220" lon="-0.7561000">
        <ele>312.0</ele>
        <time>2020-03-15T08:28:08Z</time>
      </trkpt>
      <trkpt lat="38.3214530" lon="-0.7559860">
        <ele>311.2</ele>
        <time>2020-03-15T08:28:09Z</time>
      </trkpt>
      <trkpt lat="38.3213780" lon="-0.7558750">
        <ele>310.6</ele>
        <time>2020-03-15T08:28:10Z</time>
      </trkpt>
      <trkpt lat="38.3213000" lon="-0.7557720">
        <ele>309.8</ele>
        <time>2020-03-15T08:28:11Z</time>
      </trkpt>
      <trkpt lat="38.3212100" lon="-0.7556670">
        <ele>309.2</ele>
        <time>2020-03-15T08:28:12Z</time>
      </trkpt>
      <trkpt lat="38.3211210" lon="-0.7555700">
        <ele>308.4</ele>
        <time>2020-03-15T08:28:13Z</time>
      </trkpt>
      <trkpt lat="38.3210280" lon="-0.7554820">
        <ele>307.6</ele>
        <time>2020-03-15T08:28:14Z</time>
      </trkpt>
      <trkpt lat="38.3209330" lon="-0.7554000">
        <ele>307.0</ele>
        <time>2020-03-15T08:28:15Z</time>
      </trkpt>
      <trkpt lat="38.3208360" lon="-0.7553230">
        <ele>306.6</ele>
        <time>2020-03-15T08:28:16Z</time>
      </trkpt>
      <trkpt lat="38.3207370" lon="-0.7552510">
        <ele>306.0</ele>
        <time>2020-03-15T08:28:17Z</time>
      </trkpt>
      <trkpt lat="38.3206390" lon="-0.7551810">
        <ele>305.4</ele>
        <time>2020-03-15T08:28:18Z</time>
      </trkpt>
      <trkpt lat="38.3205420" lon="-0.7551130">
        <ele>305.2</ele>
        <time>2020-03-15T08:28:19Z</time>
      </trkpt>
      <trkpt lat="38.3204460" lon="-0.7550440">
        <ele>305.0</ele>
        <time>2020-03-15T08:28:20Z</time>
      </trkpt>
      <trkpt lat="38.3203520" lon="-0.7549770">
        <ele>304.6</ele>
        <time>2020-03-15T08:28:21Z</time>
      </trkpt>
      <trkpt lat="38.3202600" lon="-0.7549090">
        <ele>304.4</ele>
        <time>2020-03-15T08:28:22Z</time>
      </trkpt>
      <trkpt lat="38.3201690" lon="-0.7548400">
        <ele>304.0</ele>
        <time>2020-03-15T08:28:23Z</time>
      </trkpt>
      <trkpt lat="38.3200780" lon="-0.7547700">
        <ele>303.8</ele>
        <time>2020-03-15T08:28:24Z</time>
      </trkpt>
      <trkpt lat="38.3199890" lon="-0.7546990">
        <ele>303.4</ele>
        <time>2020-03-15T08:28:25Z</time>
      </trkpt>
      <trkpt lat="38.3199040" lon="-0.7546220">
        <ele>302.8</ele>
        <time>2020-03-15T08:28:26Z</time>
      </trkpt>
      <trkpt lat="38.3198210" lon="-0.7545410">
        <ele>302.4</ele>
        <time>2020-03-15T08:28:27Z</time>
      </trkpt>
      <trkpt lat="38.3197400" lon="-0.7544580">
        <ele>302.0</ele>
        <time>2020-03-15T08:28:28Z</time>
      </trkpt>
      <trkpt lat="38.3196620" lon="-0.7543720">
        <ele>301.6</ele>
        <time>2020-03-15T08:28:29Z</time>
      </trkpt>
      <trkpt lat="38.3195860" lon="-0.7542840">
        <ele>301.2</ele>
        <time>2020-03-15T08:28:30Z</time>
      </trkpt>
      <trkpt lat="38.3195110" lon="-0.7541940">
        <ele>300.8</ele>
        <time>2020-03-15T08:28:31Z</time>
      </trkpt>
      <trkpt lat="38.3194340" lon="-0.7540990">
        <ele>300.4</ele>
        <time>2020-03-15T08:28:32Z</time>
      </trkpt>
      <trkpt lat="38.3193570" lon="-0.7540060">
        <ele>300.0</ele>
        <time>2020-03-15T08:28:33Z</time>
      </trkpt>
      <trkpt lat="38.3192840" lon="-0.7539120">
        <ele>299.6</ele>
        <time>2020-03-15T08:28:34Z</time>
      </trkpt>
      <trkpt lat="38.3192100" lon="-0.7538110">
        <ele>298.8</ele>
        <time>2020-03-15T08:28:35Z</time>
      </trkpt>
      <trkpt lat="38.3191380" lon="-0.7537110">
        <ele>298.2</ele>
        <time>2020-03-15T08:28:36Z</time>
      </trkpt>
      <trkpt lat="38.3190640" lon="-0.7536120">
        <ele>297.8</ele>
        <time>2020-03-15T08:28:37Z</time>
      </trkpt>
      <trkpt lat="38.3189840" lon="-0.7535160">
        <ele>297.4</ele>
        <time>2020-03-15T08:28:38Z</time>
      </trkpt>
      <trkpt lat="38.3189030" lon="-0.7534220">
        <ele>297.0</ele>
        <time>2020-03-15T08:28:39Z</time>
      </trkpt>
      <trkpt lat="38.3188220" lon="-0.7533320">
        <ele>296.6</ele>
        <time>2020-03-15T08:28:40Z</time>
      </trkpt>
      <trkpt lat="38.3187380" lon="-0.7532480">
        <ele>296.0</ele>
        <time>2020-03-15T08:28:41Z</time>
      </trkpt>
      <trkpt lat="38.3186500" lon="-0.7531720">
        <ele>295.6</ele>
        <time>2020-03-15T08:28:42Z</time>
      </trkpt>
      <trkpt lat="38.3185590" lon="-0.7531040">
        <ele>295.0</ele>
        <time>2020-03-15T08:28:43Z</time>
      </trkpt>
      <trkpt lat="38.3184660" lon="-0.7530420">
        <ele>294.6</ele>
        <time>2020-03-15T08:28:44Z</time>
      </trkpt>
      <trkpt lat="38.3183710" lon="-0.7529890">
        <ele>294.2</ele>
        <time>2020-03-15T08:28:45Z</time>
      </trkpt>
      <trkpt lat="38.3182730" lon="-0.7529450">
        <ele>293.6</ele>
        <time>2020-03-15T08:28:46Z</time>
      </trkpt>
      <trkpt lat="38.3181730" lon="-0.7529110">
        <ele>293.2</ele>
        <time>2020-03-15T08:28:47Z</time>
      </trkpt>
      <trkpt lat="38.3180730" lon="-0.7528870">
        <ele>292.6</ele>
        <time>2020-03-15T08:28:48Z</time>
      </trkpt>
      <trkpt lat="38.3179710" lon="-0.7528750">
        <ele>292.2</ele>
        <time>2020-03-15T08:28:49Z</time>
      </trkpt>
      <trkpt lat="38.3178680" lon="-0.7528710">
        <ele>291.6</ele>
        <time>2020-03-15T08:28:50Z</time>
      </trkpt>
      <trkpt lat="38.3177660" lon="-0.7528800">
        <ele>291.0</ele>
        <time>2020-03-15T08:28:51Z</time>
      </trkpt>
      <trkpt lat="38.3176670" lon="-0.7529080">
        <ele>290.6</ele>
        <time>2020-03-15T08:28:52Z</time>
      </trkpt>
      <trkpt lat="38.3175710" lon="-0.7529490">
        <ele>290.2</ele>
        <time>2020-03-15T08:28:53Z</time>
      </trkpt>
      <trkpt lat="38.3174730" lon="-0.7529750">
        <ele>289.8</ele>
        <time>2020-03-15T08:28:54Z</time>
      </trkpt>
      <trkpt lat="38.3173750" lon="-0.7529630">
        <ele>289.6</ele>
        <time>2020-03-15T08:28:55Z</time>
      </trkpt>
      <trkpt lat="38.3172780" lon="-0.7529310">
        <ele>289.0</ele>
        <time>2020-03-15T08:28:56Z</time>
      </trkpt>
      <trkpt lat="38.3171860" lon="-0.7528850">
        <ele>288.6</ele>
        <time>2020-03-15T08:28:57Z</time>
      </trkpt>
      <trkpt lat="38.3170950" lon="-0.7528370">
        <ele>288.2</ele>
        <time>2020-03-15T08:28:58Z</time>
      </trkpt>
      <trkpt lat="38.3170010" lon="-0.7527940">
        <ele>287.8</ele>
        <time>2020-03-15T08:28:59Z</time>
      </trkpt>
      <trkpt lat="38.3169040" lon="-0.7527610">
        <ele>287.4</ele>
        <time>2020-03-15T08:29:00Z</time>
      </trkpt>
      <trkpt lat="38.3168040" lon="-0.7527380">
        <ele>287.2</ele>
        <time>2020-03-15T08:29:01Z</time>
      </trkpt>
      <trkpt lat="38.3167030" lon="-0.7527200">
        <ele>286.8</ele>
        <time>2020-03-15T08:29:02Z</time>
      </trkpt>
      <trkpt lat="38.3166030" lon="-0.7527030">
        <ele>286.4</ele>
        <time>2020-03-15T08:29:03Z</time>
      </trkpt>
      <trkpt lat="38.3165050" lon="-0.7526830">
        <ele>286.0</ele>
        <time>2020-03-15T08:29:04Z</time>
      </trkpt>
      <trkpt lat="38.3164070" lon="-0.7526640">
        <ele>285.4</ele>
        <time>2020-03-15T08:29:05Z</time>
      </trkpt>
      <trkpt lat="38.3163060" lon="-0.7526420">
        <ele>285.0</ele>
        <time>2020-03-15T08:29:06Z</time>
      </trkpt>
      <trkpt lat="38.3162080" lon="-0.7526200">
        <ele>284.8</ele>
        <time>2020-03-15T08:29:07Z</time>
      </trkpt>
      <trkpt lat="38.3161100" lon="-0.7525950">
        <ele>284.6</ele>
        <time>2020-03-15T08:29:08Z</time>
      </trkpt>
      <trkpt lat="38.3160120" lon="-0.7525630">
        <ele>284.6</ele>
        <time>2020-03-15T08:29:09Z</time>
      </trkpt>
      <trkpt lat="38.3159170" lon="-0.7525320">
        <ele>284.2</ele>
        <time>2020-03-15T08:29:10Z</time>
      </trkpt>
      <trkpt lat="38.3158200" lon="-0.7524960">
        <ele>283.8</ele>
        <time>2020-03-15T08:29:11Z</time>
      </trkpt>
      <trkpt lat="38.3157230" lon="-0.7524630">
        <ele>283.6</ele>
        <time>2020-03-15T08:29:12Z</time>
      </trkpt>
      <trkpt lat="38.3156280" lon="-0.7524310">
        <ele>283.2</ele>
        <time>2020-03-15T08:29:13Z</time>
      </trkpt>
      <trkpt lat="38.3155310" lon="-0.7523970">
        <ele>282.6</ele>
        <time>2020-03-15T08:29:14Z</time>
      </trkpt>
      <trkpt lat="38.3154340" lon="-0.7523630">
        <ele>282.4</ele>
        <time>2020-03-15T08:29:15Z</time>
      </trkpt>
      <trkpt lat="38.3153370" lon="-0.7523290">
        <ele>281.8</ele>
        <time>2020-03-15T08:29:16Z</time>
      </trkpt>
      <trkpt lat="38.3152370" lon="-0.7522960">
        <ele>281.2</ele>
        <time>2020-03-15T08:29:17Z</time>
      </trkpt>
      <trkpt lat="38.3151380" lon="-0.7522600">
        <ele>280.8</ele>
        <time>2020-03-15T08:29:18Z</time>
      </trkpt>
      <trkpt lat="38.3150380" lon="-0.7522230">
        <ele>280.4</ele>
        <time>2020-03-15T08:29:19Z</time>
      </trkpt>
      <trkpt lat="38.3149370" lon="-0.7521860">
        <ele>279.8</ele>
        <time>2020-03-15T08:29:20Z</time>
      </trkpt>
      <trkpt lat="38.3148350" lon="-0.7521500">
        <ele>279.2</ele>
        <time>2020-03-15T08:29:21Z</time>
      </trkpt>
      <trkpt lat="38.3147340" lon="-0.7521120">
        <ele>278.8</ele>
        <time>2020-03-15T08:29:22Z</time>
      </trkpt>
      <trkpt lat="38.3146300" lon="-0.7520700">
        <ele>278.4</ele>
        <time>2020-03-15T08:29:23Z</time>
      </trkpt>
      <trkpt lat="38.3145270" lon="-0.7520340">
        <ele>278.0</ele>
        <time>2020-03-15T08:29:24Z</time>
      </trkpt>
      <trkpt lat="38.3144240" lon="-0.7519930">
        <ele>277.4</ele>
        <time>2020-03-15T08:29:25Z</time>
      </trkpt>
      <trkpt lat="38.3143200" lon="-0.7519520">
        <ele>277.0</ele>
        <time>2020-03-15T08:29:26Z</time>
      </trkpt>
      <trkpt lat="38.3142170" lon="-0.7519060">
        <ele>276.4</ele>
        <time>2020-03-15T08:29:27Z</time>
      </trkpt>
      <trkpt lat="38.3141160" lon="-0.7518580">
        <ele>276.2</ele>
        <time>2020-03-15T08:29:28Z</time>
      </trkpt>
      <trkpt lat="38.3140170" lon="-0.7518060">
        <ele>275.4</ele>
        <time>2020-03-15T08:29:29Z</time>
      </trkpt>
      <trkpt lat="38.3139200" lon="-0.7517500">
        <ele>275.0</ele>
        <time>2020-03-15T08:29:30Z</time>
      </trkpt>
      <trkpt lat="38.3138250" lon="-0.7516890">
        <ele>274.6</ele>
        <time>2020-03-15T08:29:31Z</time>
      </trkpt>
      <trkpt lat="38.3137540" lon="-0.7516420">
        <ele>274.2</ele>
        <time>2020-03-15T08:29:32Z</time>
      </trkpt>
      <trkpt lat="38.3136820" lon="-0.7515950">
        <ele>273.4</ele>
        <time>2020-03-15T08:29:33Z</time>
      </trkpt>
      <trkpt lat="38.3135380" lon="-0.7515020">
        <ele>272.8</ele>
        <time>2020-03-15T08:29:34Z</time>
      </trkpt>
      <trkpt lat="38.3134450" lon="-0.7514370">
        <ele>272.4</ele>
        <time>2020-03-15T08:29:35Z</time>
      </trkpt>
      <trkpt lat="38.3133440" lon="-0.7513730">
        <ele>271.8</ele>
        <time>2020-03-15T08:29:36Z</time>
      </trkpt>
      <trkpt lat="38.3132480" lon="-0.7513080">
        <ele>271.2</ele>
        <time>2020-03-15T08:29:37Z</time>
      </trkpt>
      <trkpt lat="38.3131510" lon="-0.7512470">
        <ele>270.8</ele>
        <time>2020-03-15T08:29:38Z</time>
      </trkpt>
      <trkpt lat="38.3130510" lon="-0.7511920">
        <ele>270.2</ele>
        <time>2020-03-15T08:29:39Z</time>
      </trkpt>
      <trkpt lat="38.3129470" lon="-0.7511440">
        <ele>269.4</ele>
        <time>2020-03-15T08:29:40Z</time>
      </trkpt>
      <trkpt lat="38.3128410" lon="-0.7511030">
        <ele>268.8</ele>
        <time>2020-03-15T08:29:41Z</time>
      </trkpt>
      <trkpt lat="38.3127290" lon="-0.7510740">
        <ele>268.0</ele>
        <time>2020-03-15T08:29:42Z</time>
      </trkpt>
      <trkpt lat="38.3126170" lon="-0.7510550">
        <ele>267.2</ele>
        <time>2020-03-15T08:29:43Z</time>
      </trkpt>
      <trkpt lat="38.3125040" lon="-0.7510460">
        <ele>266.8</ele>
        <time>2020-03-15T08:29:44Z</time>
      </trkpt>
      <trkpt lat="38.3123910" lon="-0.7510350">
        <ele>266.0</ele>
        <time>2020-03-15T08:29:45Z</time>
      </trkpt>
      <trkpt lat="38.3122780" lon="-0.7510320">
        <ele>265.6</ele>
        <time>2020-03-15T08:29:46Z</time>
      </trkpt>
      <trkpt lat="38.3121630" lon="-0.7510350">
        <ele>265.2</ele>
        <time>2020-03-15T08:29:47Z</time>
      </trkpt>
      <trkpt lat="38.3120490" lon="-0.7510400">
        <ele>264.8</ele>
        <time>2020-03-15T08:29:48Z</time>
      </trkpt>
      <trkpt lat="38.3119360" lon="-0.7510420">
        <ele>264.4</ele>
        <time>2020-03-15T08:29:49Z</time>
      </trkpt>
      <trkpt lat="38.3118210" lon="-0.7510410">
        <ele>264.0</ele>
        <time>2020-03-15T08:29:50Z</time>
      </trkpt>
      <trkpt lat="38.3117090" lon="-0.7510330">
        <ele>263.6</ele>
        <time>2020-03-15T08:29:51Z</time>
      </trkpt>
      <trkpt lat="38.3115960" lon="-0.7510180">
        <ele>263.2</ele>
        <time>2020-03-15T08:29:52Z</time>
      </trkpt>
      <trkpt lat="38.3114850" lon="-0.7509960">
        <ele>262.6</ele>
        <time>2020-03-15T08:29:53Z</time>
      </trkpt>
      <trkpt lat="38.3113730" lon="-0.7509660">
        <ele>262.2</ele>
        <time>2020-03-15T08:29:54Z</time>
      </trkpt>
      <trkpt lat="38.3112650" lon="-0.7509280">
        <ele>261.6</ele>
        <time>2020-03-15T08:29:55Z</time>
      </trkpt>
      <trkpt lat="38.3111590" lon="-0.7508790">
        <ele>261.2</ele>
        <time>2020-03-15T08:29:56Z</time>
      </trkpt>
      <trkpt lat="38.3110570" lon="-0.7508230">
        <ele>260.8</ele>
        <time>2020-03-15T08:29:57Z</time>
      </trkpt>
      <trkpt lat="38.3109880" lon="-0.7507680">
        <ele>260.2</ele>
        <time>2020-03-15T08:29:58Z</time>
      </trkpt>
      <trkpt lat="38.3109190" lon="-0.7507130">
        <ele>259.8</ele>
        <time>2020-03-15T08:29:59Z</time>
      </trkpt>
      <trkpt lat="38.3107800" lon="-0.7506040">
        <ele>259.2</ele>
        <time>2020-03-15T08:30:00Z</time>
      </trkpt>
      <trkpt lat="38.3106970" lon="-0.7505200">
        <ele>258.8</ele>
        <time>2020-03-15T08:30:01Z</time>
      </trkpt>
      <trkpt lat="38.3106170" lon="-0.7504320">
        <ele>258.2</ele>
        <time>2020-03-15T08:30:02Z</time>
      </trkpt>
      <trkpt lat="38.3105410" lon="-0.7503400">
        <ele>257.8</ele>
        <time>2020-03-15T08:30:03Z</time>
      </trkpt>
      <trkpt lat="38.3104690" lon="-0.7502460">
        <ele>257.6</ele>
        <time>2020-03-15T08:30:04Z</time>
      </trkpt>
      <trkpt lat="38.3104000" lon="-0.7501490">
        <ele>257.2</ele>
        <time>2020-03-15T08:30:05Z</time>
      </trkpt>
      <trkpt lat="38.3103340" lon="-0.7500500">
        <ele>257.0</ele>
        <time>2020-03-15T08:30:06Z</time>
      </trkpt>
      <trkpt lat="38.3102700" lon="-0.7499540">
        <ele>256.6</ele>
        <time>2020-03-15T08:30:07Z</time>
      </trkpt>
      <trkpt lat="38.3102080" lon="-0.7498590">
        <ele>256.4</ele>
        <time>2020-03-15T08:30:08Z</time>
      </trkpt>
      <trkpt lat="38.3101480" lon="-0.7497640">
        <ele>256.4</ele>
        <time>2020-03-15T08:30:09Z</time>
      </trkpt>
      <trkpt lat="38.3100910" lon="-0.7496680">
        <ele>256.2</ele>
        <time>2020-03-15T08:30:10Z</time>
      </trkpt>
      <trkpt lat="38.3100350" lon="-0.7495730">
        <ele>256.0</ele>
        <time>2020-03-15T08:30:11Z</time>
      </trkpt>
      <trkpt lat="38.3099790" lon="-0.7494800">
        <ele>255.8</ele>
        <time>2020-03-15T08:30:12Z</time>
      </trkpt>
      <trkpt lat="38.3099240" lon="-0.7493900">
        <ele>255.8</ele>
        <time>2020-03-15T08:30:13Z</time>
      </trkpt>
      <trkpt lat="38.3098650" lon="-0.7493010">
        <ele>255.6</ele>
        <time>2020-03-15T08:30:14Z</time>
      </trkpt>
      <trkpt lat="38.3098110" lon="-0.7492100">
        <ele>255.6</ele>
        <time>2020-03-15T08:30:15Z</time>
      </trkpt>
      <trkpt lat="38.3097570" lon="-0.7491210">
        <ele>255.6</ele>
        <time>2020-03-15T08:30:16Z</time>
      </trkpt>
      <trkpt lat="38.3097050" lon="-0.7490360">
        <ele>255.6</ele>
        <time>2020-03-15T08:30:17Z</time>
      </trkpt>
      <trkpt lat="38.3096560" lon="-0.7489550">
        <ele>255.6</ele>
        <time>2020-03-15T08:30:18Z</time>
      </trkpt>
      <trkpt lat="38.3096060" lon="-0.7488790">
        <ele>255.8</ele>
        <time>2020-03-15T08:30:19Z</time>
      </trkpt>
      <trkpt lat="38.3095550" lon="-0.7488050">
        <ele>255.8</ele>
        <time>2020-03-15T08:30:20Z</time>
      </trkpt>
      <trkpt lat="38.3095050" lon="-0.7487380">
        <ele>256.0</ele>
        <time>2020-03-15T08:30:21Z</time>
      </trkpt>
      <trkpt lat="38.3094690" lon="-0.7486920">
        <ele>256.2</ele>
        <time>2020-03-15T08:30:22Z</time>
      </trkpt>
      <trkpt lat="38.3094320" lon="-0.7486460">
        <ele>256.2</ele>
        <time>2020-03-15T08:30:23Z</time>
      </trkpt>
      <trkpt lat="38.3093590" lon="-0.7485540">
        <ele>256.8</ele>
        <time>2020-03-15T08:30:24Z</time>
      </trkpt>
      <trkpt lat="38.3093110" lon="-0.7484980">
        <ele>257.2</ele>
        <time>2020-03-15T08:30:25Z</time>
      </trkpt>
      <trkpt lat="38.3092630" lon="-0.7484490">
        <ele>257.4</ele>
        <time>2020-03-15T08:30:26Z</time>
      </trkpt>
      <trkpt lat="38.3092170" lon="-0.7484030">
        <ele>257.6</ele>
        <time>2020-03-15T08:30:27Z</time>
      </trkpt>
      <trkpt lat="38.3091690" lon="-0.7483620">
        <ele>257.8</ele>
        <time>2020-03-15T08:30:28Z</time>
      </trkpt>
      <trkpt lat="38.3091240" lon="-0.7483210">
        <ele>258.0</ele>
        <time>2020-03-15T08:30:29Z</time>
      </trkpt>
      <trkpt lat="38.3090790" lon="-0.7482790">
        <ele>258.2</ele>
        <time>2020-03-15T08:30:30Z</time>
      </trkpt>
      <trkpt lat="38.3090310" lon="-0.7482400">
        <ele>258.4</ele>
        <time>2020-03-15T08:30:31Z</time>
      </trkpt>
      <trkpt lat="38.3089810" lon="-0.7482020">
        <ele>258.6</ele>
        <time>2020-03-15T08:30:32Z</time>
      </trkpt>
      <trkpt lat="38.3089290" lon="-0.7481680">
        <ele>258.8</ele>
        <time>2020-03-15T08:30:33Z</time>
      </trkpt>
      <trkpt lat="38.3088750" lon="-0.7481370">
        <ele>258.8</ele>
        <time>2020-03-15T08:30:34Z</time>
      </trkpt>
      <trkpt lat="38.3088170" lon="-0.7481070">
        <ele>258.6</ele>
        <time>2020-03-15T08:30:35Z</time>
      </trkpt>
      <trkpt lat="38.3087570" lon="-0.7480790">
        <ele>258.4</ele>
        <time>2020-03-15T08:30:36Z</time>
      </trkpt>
      <trkpt lat="38.3086850" lon="-0.7480520">
        <ele>258.2</ele>
        <time>2020-03-15T08:30:37Z</time>
      </trkpt>
      <trkpt lat="38.3086180" lon="-0.7480310">
        <ele>258.2</ele>
        <time>2020-03-15T08:30:38Z</time>
      </trkpt>
      <trkpt lat="38.3085470" lon="-0.7480140">
        <ele>257.8</ele>
        <time>2020-03-15T08:30:39Z</time>
      </trkpt>
      <trkpt lat="38.3084740" lon="-0.7479990">
        <ele>257.6</ele>
        <time>2020-03-15T08:30:40Z</time>
      </trkpt>
      <trkpt lat="38.3083990" lon="-0.7479880">
        <ele>257.2</ele>
        <time>2020-03-15T08:30:41Z</time>
      </trkpt>
      <trkpt lat="38.3083210" lon="-0.7479830">
        <ele>256.6</ele>
        <time>2020-03-15T08:30:42Z</time>
      </trkpt>
      <trkpt lat="38.3082410" lon="-0.7479850">
        <ele>256.4</ele>
        <time>2020-03-15T08:30:43Z</time>
      </trkpt>
      <trkpt lat="38.3082020" lon="-0.7479900">
        <ele>256.4</ele>
        <time>2020-03-15T08:30:44Z</time>
      </trkpt>
      <trkpt lat="38.3081630" lon="-0.7479950">
        <ele>256.4</ele>
        <time>2020-03-15T08:30:45Z</time>
      </trkpt>
      <trkpt lat="38.3080170" lon="-0.7480550">
        <ele>256.2</ele>
        <time>2020-03-15T08:30:46Z</time>
      </trkpt>
      <trkpt lat="38.3079420" lon="-0.7480920">
        <ele>256.0</ele>
        <time>2020-03-15T08:30:47Z</time>
      </trkpt>
      <trkpt lat="38.3078850" lon="-0.7480800">
        <ele>256.0</ele>
        <time>2020-03-15T08:30:48Z</time>
      </trkpt>
      <trkpt lat="38.3078270" lon="-0.7480690">
        <ele>255.8</ele>
        <time>2020-03-15T08:30:49Z</time>
      </trkpt>
      <trkpt lat="38.3077120" lon="-0.7480460">
        <ele>255.6</ele>
        <time>2020-03-15T08:30:50Z</time>
      </trkpt>
      <trkpt lat="38.3076510" lon="-0.7479760">
        <ele>255.2</ele>
        <time>2020-03-15T08:30:51Z</time>
      </trkpt>
      <trkpt lat="38.3076040" lon="-0.7478870">
        <ele>254.8</ele>
        <time>2020-03-15T08:30:52Z</time>
      </trkpt>
      <trkpt lat="38.3075660" lon="-0.7477890">
        <ele>254.6</ele>
        <time>2020-03-15T08:30:53Z</time>
      </trkpt>
      <trkpt lat="38.3075260" lon="-0.7476890">
        <ele>254.6</ele>
        <time>2020-03-15T08:30:54Z</time>
      </trkpt>
      <trkpt lat="38.3074840" lon="-0.7475950">
        <ele>254.6</ele>
        <time>2020-03-15T08:30:55Z</time>
      </trkpt>
      <trkpt lat="38.3074330" lon="-0.7475060">
        <ele>254.4</ele>
        <time>2020-03-15T08:30:56Z</time>
      </trkpt>
      <trkpt lat="38.3073800" lon="-0.7474190">
        <ele>254.4</ele>
        <time>2020-03-15T08:30:57Z</time>
      </trkpt>
      <trkpt lat="38.3073410" lon="-0.7473520">
        <ele>254.2</ele>
        <time>2020-03-15T08:30:58Z</time>
      </trkpt>
      <trkpt lat="38.3073020" lon="-0.7472860">
        <ele>254.2</ele>
        <time>2020-03-15T08:30:59Z</time>
      </trkpt>
      <trkpt lat="38.3072240" lon="-0.7471530">
        <ele>254.4</ele>
        <time>2020-03-15T08:31:00Z</time>
      </trkpt>
      <trkpt lat="38.3071750" lon="-0.7470620">
        <ele>254.0</ele>
        <time>2020-03-15T08:31:01Z</time>
      </trkpt>
      <trkpt lat="38.3071300" lon="-0.7469690">
        <ele>253.6</ele>
        <time>2020-03-15T08:31:02Z</time>
      </trkpt>
      <trkpt lat="38.3070890" lon="-0.7468710">
        <ele>254.0</ele>
        <time>2020-03-15T08:31:03Z</time>
      </trkpt>
      <trkpt lat="38.3070550" lon="-0.7467690">
        <ele>253.6</ele>
        <time>2020-03-15T08:31:04Z</time>
      </trkpt>
      <trkpt lat="38.3070250" lon="-0.7466630">
        <ele>253.4</ele>
        <time>2020-03-15T08:31:05Z</time>
      </trkpt>
      <trkpt lat="38.3069970" lon="-0.7465550">
        <ele>253.4</ele>
        <time>2020-03-15T08:31:06Z</time>
      </trkpt>
      <trkpt lat="38.3069720" lon="-0.7464470">
        <ele>253.2</ele>
        <time>2020-03-15T08:31:07Z</time>
      </trkpt>
      <trkpt lat="38.3069490" lon="-0.7463350">
        <ele>253.0</ele>
        <time>2020-03-15T08:31:08Z</time>
      </trkpt>
      <trkpt lat="38.3069270" lon="-0.7462270">
        <ele>253.2</ele>
        <time>2020-03-15T08:31:09Z</time>
      </trkpt>
      <trkpt lat="38.3069040" lon="-0.7461190">
        <ele>253.2</ele>
        <time>2020-03-15T08:31:10Z</time>
      </trkpt>
      <trkpt lat="38.3068820" lon="-0.7460120">
        <ele>253.2</ele>
        <time>2020-03-15T08:31:11Z</time>
      </trkpt>
      <trkpt lat="38.3068590" lon="-0.7459060">
        <ele>253.2</ele>
        <time>2020-03-15T08:31:12Z</time>
      </trkpt>
      <trkpt lat="38.3068340" lon="-0.7458010">
        <ele>253.0</ele>
        <time>2020-03-15T08:31:13Z</time>
      </trkpt>
      <trkpt lat="38.3068080" lon="-0.7456990">
        <ele>253.0</ele>
        <time>2020-03-15T08:31:14Z</time>
      </trkpt>
      <trkpt lat="38.3067780" lon="-0.7455970">
        <ele>252.8</ele>
        <time>2020-03-15T08:31:15Z</time>
      </trkpt>
      <trkpt lat="38.3067460" lon="-0.7454980">
        <ele>252.8</ele>
        <time>2020-03-15T08:31:16Z</time>
      </trkpt>
      <trkpt lat="38.3067080" lon="-0.7454000">
        <ele>252.8</ele>
        <time>2020-03-15T08:31:17Z</time>
      </trkpt>
      <trkpt lat="38.3066670" lon="-0.7453070">
        <ele>252.8</ele>
        <time>2020-03-15T08:31:18Z</time>
      </trkpt>
      <trkpt lat="38.3066270" lon="-0.7452160">
        <ele>252.6</ele>
        <time>2020-03-15T08:31:19Z</time>
      </trkpt>
      <trkpt lat="38.3065860" lon="-0.7451260">
        <ele>252.6</ele>
        <time>2020-03-15T08:31:20Z</time>
      </trkpt>
      <trkpt lat="38.3065420" lon="-0.7450390">
        <ele>252.4</ele>
        <time>2020-03-15T08:31:21Z</time>
      </trkpt>
      <trkpt lat="38.3064960" lon="-0.7449520">
        <ele>252.2</ele>
        <time>2020-03-15T08:31:22Z</time>
      </trkpt>
      <trkpt lat="38.3064470" lon="-0.7448670">
        <ele>252.0</ele>
        <time>2020-03-15T08:31:23Z</time>
      </trkpt>
      <trkpt lat="38.3063930" lon="-0.7447830">
        <ele>251.8</ele>
        <time>2020-03-15T08:31:24Z</time>
      </trkpt>
      <trkpt lat="38.3063360" lon="-0.7447040">
        <ele>251.6</ele>
        <time>2020-03-15T08:31:25Z</time>
      </trkpt>
      <trkpt lat="38.3062790" lon="-0.7446260">
        <ele>251.4</ele>
        <time>2020-03-15T08:31:26Z</time>
      </trkpt>
      <trkpt lat="38.3062200" lon="-0.7445470">
        <ele>251.2</ele>
        <time>2020-03-15T08:31:27Z</time>
      </trkpt>
      <trkpt lat="38.3061590" lon="-0.7444690">
        <ele>251.2</ele>
        <time>2020-03-15T08:31:28Z</time>
      </trkpt>
      <trkpt lat="38.3061000" lon="-0.7443910">
        <ele>251.0</ele>
        <time>2020-03-15T08:31:29Z</time>
      </trkpt>
      <trkpt lat="38.3060400" lon="-0.7443150">
        <ele>250.6</ele>
        <time>2020-03-15T08:31:30Z</time>
      </trkpt>
      <trkpt lat="38.3059790" lon="-0.7442380">
        <ele>250.2</ele>
        <time>2020-03-15T08:31:31Z</time>
      </trkpt>
      <trkpt lat="38.3059170" lon="-0.7441610">
        <ele>250.0</ele>
        <time>2020-03-15T08:31:32Z</time>
      </trkpt>
      <trkpt lat="38.3058540" lon="-0.7440850">
        <ele>250.0</ele>
        <time>2020-03-15T08:31:33Z</time>
      </trkpt>
      <trkpt lat="38.3057920" lon="-0.7440100">
        <ele>249.6</ele>
        <time>2020-03-15T08:31:34Z</time>
      </trkpt>
      <trkpt lat="38.3057300" lon="-0.7439340">
        <ele>249.6</ele>
        <time>2020-03-15T08:31:35Z</time>
      </trkpt>
      <trkpt lat="38.3056670" lon="-0.7438590">
        <ele>249.2</ele>
        <time>2020-03-15T08:31:36Z</time>
      </trkpt>
      <trkpt lat="38.3056030" lon="-0.7437830">
        <ele>249.2</ele>
        <time>2020-03-15T08:31:37Z</time>
      </trkpt>
      <trkpt lat="38.3055380" lon="-0.7437070">
        <ele>249.0</ele>
        <time>2020-03-15T08:31:38Z</time>
      </trkpt>
      <trkpt lat="38.3054750" lon="-0.7436310">
        <ele>248.6</ele>
        <time>2020-03-15T08:31:39Z</time>
      </trkpt>
      <trkpt lat="38.3054090" lon="-0.7435540">
        <ele>248.2</ele>
        <time>2020-03-15T08:31:40Z</time>
      </trkpt>
      <trkpt lat="38.3053440" lon="-0.7434770">
        <ele>248.0</ele>
        <time>2020-03-15T08:31:41Z</time>
      </trkpt>
      <trkpt lat="38.3052770" lon="-0.7434000">
        <ele>247.4</ele>
        <time>2020-03-15T08:31:42Z</time>
      </trkpt>
      <trkpt lat="38.3052060" lon="-0.7433240">
        <ele>247.0</ele>
        <time>2020-03-15T08:31:43Z</time>
      </trkpt>
      <trkpt lat="38.3051330" lon="-0.7432480">
        <ele>246.6</ele>
        <time>2020-03-15T08:31:44Z</time>
      </trkpt>
      <trkpt lat="38.3050590" lon="-0.7431710">
        <ele>246.0</ele>
        <time>2020-03-15T08:31:45Z</time>
      </trkpt>
      <trkpt lat="38.3049820" lon="-0.7430990">
        <ele>245.4</ele>
        <time>2020-03-15T08:31:46Z</time>
      </trkpt>
      <trkpt lat="38.3049010" lon="-0.7430300">
        <ele>244.8</ele>
        <time>2020-03-15T08:31:47Z</time>
      </trkpt>
      <trkpt lat="38.3048180" lon="-0.7429650">
        <ele>244.2</ele>
        <time>2020-03-15T08:31:48Z</time>
      </trkpt>
      <trkpt lat="38.3047340" lon="-0.7429000">
        <ele>243.6</ele>
        <time>2020-03-15T08:31:49Z</time>
      </trkpt>
      <trkpt lat="38.3046470" lon="-0.7428400">
        <ele>243.2</ele>
        <time>2020-03-15T08:31:50Z</time>
      </trkpt>
      <trkpt lat="38.3045570" lon="-0.7427840">
        <ele>242.4</ele>
        <time>2020-03-15T08:31:51Z</time>
      </trkpt>
      <trkpt lat="38.3044650" lon="-0.7427310">
        <ele>241.8</ele>
        <time>2020-03-15T08:31:52Z</time>
      </trkpt>
      <trkpt lat="38.3043690" lon="-0.7426810">
        <ele>241.2</ele>
        <time>2020-03-15T08:31:53Z</time>
      </trkpt>
      <trkpt lat="38.3042710" lon="-0.7426340">
        <ele>240.8</ele>
        <time>2020-03-15T08:31:54Z</time>
      </trkpt>
      <trkpt lat="38.3041700" lon="-0.7425910">
        <ele>240.0</ele>
        <time>2020-03-15T08:31:55Z</time>
      </trkpt>
      <trkpt lat="38.3040660" lon="-0.7425550">
        <ele>239.8</ele>
        <time>2020-03-15T08:31:56Z</time>
      </trkpt>
      <trkpt lat="38.3039600" lon="-0.7425210">
        <ele>239.2</ele>
        <time>2020-03-15T08:31:57Z</time>
      </trkpt>
      <trkpt lat="38.3038530" lon="-0.7424940">
        <ele>238.6</ele>
        <time>2020-03-15T08:31:58Z</time>
      </trkpt>
      <trkpt lat="38.3037470" lon="-0.7424670">
        <ele>238.2</ele>
        <time>2020-03-15T08:31:59Z</time>
      </trkpt>
      <trkpt lat="38.3036380" lon="-0.7424420">
        <ele>237.6</ele>
        <time>2020-03-15T08:32:00Z</time>
      </trkpt>
      <trkpt lat="38.3035280" lon="-0.7424150">
        <ele>237.0</ele>
        <time>2020-03-15T08:32:01Z</time>
      </trkpt>
      <trkpt lat="38.3034470" lon="-0.7423960">
        <ele>236.4</ele>
        <time>2020-03-15T08:32:02Z</time>
      </trkpt>
      <trkpt lat="38.3033650" lon="-0.7423780">
        <ele>236.0</ele>
        <time>2020-03-15T08:32:03Z</time>
      </trkpt>
      <trkpt lat="38.3032020" lon="-0.7423410">
        <ele>236.0</ele>
        <time>2020-03-15T08:32:04Z</time>
      </trkpt>
      <trkpt lat="38.3030980" lon="-0.7423130">
        <ele>235.6</ele>
        <time>2020-03-15T08:32:05Z</time>
      </trkpt>
      <trkpt lat="38.3029960" lon="-0.7422840">
        <ele>235.4</ele>
        <time>2020-03-15T08:32:06Z</time>
      </trkpt>
      <trkpt lat="38.3028980" lon="-0.7422500">
        <ele>235.4</ele>
        <time>2020-03-15T08:32:07Z</time>
      </trkpt>
      <trkpt lat="38.3028040" lon="-0.7422130">
        <ele>235.2</ele>
        <time>2020-03-15T08:32:08Z</time>
      </trkpt>
      <trkpt lat="38.3027140" lon="-0.7421700">
        <ele>235.4</ele>
        <time>2020-03-15T08:32:09Z</time>
      </trkpt>
      <trkpt lat="38.3026280" lon="-0.7421240">
        <ele>235.4</ele>
        <time>2020-03-15T08:32:10Z</time>
      </trkpt>
      <trkpt lat="38.3025450" lon="-0.7420750">
        <ele>235.6</ele>
        <time>2020-03-15T08:32:11Z</time>
      </trkpt>
      <trkpt lat="38.3024660" lon="-0.7420220">
        <ele>235.8</ele>
        <time>2020-03-15T08:32:12Z</time>
      </trkpt>
      <trkpt lat="38.3023910" lon="-0.7419660">
        <ele>235.8</ele>
        <time>2020-03-15T08:32:13Z</time>
      </trkpt>
      <trkpt lat="38.3023190" lon="-0.7419080">
        <ele>235.8</ele>
        <time>2020-03-15T08:32:14Z</time>
      </trkpt>
      <trkpt lat="38.3022510" lon="-0.7418430">
        <ele>235.8</ele>
        <time>2020-03-15T08:32:15Z</time>
      </trkpt>
      <trkpt lat="38.3021810" lon="-0.7417760">
        <ele>235.8</ele>
        <time>2020-03-15T08:32:16Z</time>
      </trkpt>
      <trkpt lat="38.3021150" lon="-0.7417030">
        <ele>235.6</ele>
        <time>2020-03-15T08:32:17Z</time>
      </trkpt>
      <trkpt lat="38.3020500" lon="-0.7416270">
        <ele>235.4</ele>
        <time>2020-03-15T08:32:18Z</time>
      </trkpt>
      <trkpt lat="38.3019860" lon="-0.7415470">
        <ele>235.2</ele>
        <time>2020-03-15T08:32:19Z</time>
      </trkpt>
      <trkpt lat="38.3019240" lon="-0.7414640">
        <ele>234.8</ele>
        <time>2020-03-15T08:32:20Z</time>
      </trkpt>
      <trkpt lat="38.3018630" lon="-0.7413800">
        <ele>234.4</ele>
        <time>2020-03-15T08:32:21Z</time>
      </trkpt>
      <trkpt lat="38.3018000" lon="-0.7412930">
        <ele>234.2</ele>
        <time>2020-03-15T08:32:22Z</time>
      </trkpt>
      <trkpt lat="38.3017390" lon="-0.7412020">
        <ele>233.4</ele>
        <time>2020-03-15T08:32:23Z</time>
      </trkpt>
      <trkpt lat="38.3016760" lon="-0.7411100">
        <ele>233.0</ele>
        <time>2020-03-15T08:32:24Z</time>
      </trkpt>
      <trkpt lat="38.3016120" lon="-0.7410170">
        <ele>232.2</ele>
        <time>2020-03-15T08:32:25Z</time>
      </trkpt>
      <trkpt lat="38.3015460" lon="-0.7409240">
        <ele>232.0</ele>
        <time>2020-03-15T08:32:26Z</time>
      </trkpt>
      <trkpt lat="38.3014800" lon="-0.7408290">
        <ele>231.6</ele>
        <time>2020-03-15T08:32:27Z</time>
      </trkpt>
      <trkpt lat="38.3014130" lon="-0.7407350">
        <ele>231.0</ele>
        <time>2020-03-15T08:32:28Z</time>
      </trkpt>
      <trkpt lat="38.3013440" lon="-0.7406410">
        <ele>230.6</ele>
        <time>2020-03-15T08:32:29Z</time>
      </trkpt>
      <trkpt lat="38.3012700" lon="-0.7405520">
        <ele>230.0</ele>
        <time>2020-03-15T08:32:30Z</time>
      </trkpt>
      <trkpt lat="38.3011950" lon="-0.7404660">
        <ele>229.8</ele>
        <time>2020-03-15T08:32:31Z</time>
      </trkpt>
      <trkpt lat="38.3011150" lon="-0.7403820">
        <ele>229.2</ele>
        <time>2020-03-15T08:32:32Z</time>
      </trkpt>
      <trkpt lat="38.3010340" lon="-0.7403010">
        <ele>229.0</ele>
        <time>2020-03-15T08:32:33Z</time>
      </trkpt>
      <trkpt lat="38.3009500" lon="-0.7402240">
        <ele>228.4</ele>
        <time>2020-03-15T08:32:34Z</time>
      </trkpt>
      <trkpt lat="38.3008640" lon="-0.7401510">
        <ele>228.0</ele>
        <time>2020-03-15T08:32:35Z</time>
      </trkpt>
      <trkpt lat="38.3007790" lon="-0.7400790">
        <ele>227.6</ele>
        <time>2020-03-15T08:32:36Z</time>
      </trkpt>
      <trkpt lat="38.3006930" lon="-0.7400100">
        <ele>227.2</ele>
        <time>2020-03-15T08:32:37Z</time>
      </trkpt>
      <trkpt lat="38.3006070" lon="-0.7399430">
        <ele>226.8</ele>
        <time>2020-03-15T08:32:38Z</time>
      </trkpt>
      <trkpt lat="38.3005200" lon="-0.7398790">
        <ele>226.2</ele>
        <time>2020-03-15T08:32:39Z</time>
      </trkpt>
      <trkpt lat="38.3004320" lon="-0.7398150">
        <ele>226.0</ele>
        <time>2020-03-15T08:32:40Z</time>
      </trkpt>
      <trkpt lat="38.3003450" lon="-0.7397520">
        <ele>225.4</ele>
        <time>2020-03-15T08:32:41Z</time>
      </trkpt>
      <trkpt lat="38.3002580" lon="-0.7396900">
        <ele>225.2</ele>
        <time>2020-03-15T08:32:42Z</time>
      </trkpt>
      <trkpt lat="38.3001700" lon="-0.7396330">
        <ele>225.0</ele>
        <time>2020-03-15T08:32:43Z</time>
      </trkpt>
      <trkpt lat="38.3000860" lon="-0.7395740">
        <ele>224.8</ele>
        <time>2020-03-15T08:32:44Z</time>
      </trkpt>
      <trkpt lat="38.3000020" lon="-0.7395180">
        <ele>224.6</ele>
        <time>2020-03-15T08:32:45Z</time>
      </trkpt>
      <trkpt lat="38.2999180" lon="-0.7394670">
        <ele>224.4</ele>
        <time>2020-03-15T08:32:46Z</time>
      </trkpt>
      <trkpt lat="38.2998320" lon="-0.7394200">
        <ele>224.4</ele>
        <time>2020-03-15T08:32:47Z</time>
      </trkpt>
      <trkpt lat="38.2997470" lon="-0.7393780">
        <ele>224.2</ele>
        <time>2020-03-15T08:32:48Z</time>
      </trkpt>
      <trkpt lat="38.2996650" lon="-0.7393400">
        <ele>224.2</ele>
        <time>2020-03-15T08:32:49Z</time>
      </trkpt>
      <trkpt lat="38.2995790" lon="-0.7393180">
        <ele>224.2</ele>
        <time>2020-03-15T08:32:50Z</time>
      </trkpt>
      <trkpt lat="38.2994940" lon="-0.7393080">
        <ele>224.2</ele>
        <time>2020-03-15T08:32:51Z</time>
      </trkpt>
      <trkpt lat="38.2994090" lon="-0.7392860">
        <ele>224.2</ele>
        <time>2020-03-15T08:32:52Z</time>
      </trkpt>
      <trkpt lat="38.2993340" lon="-0.7392540">
        <ele>224.4</ele>
        <time>2020-03-15T08:32:53Z</time>
      </trkpt>
      <trkpt lat="38.2992650" lon="-0.7392100">
        <ele>224.2</ele>
        <time>2020-03-15T08:32:54Z</time>
      </trkpt>
      <trkpt lat="38.2992050" lon="-0.7391430">
        <ele>224.2</ele>
        <time>2020-03-15T08:32:55Z</time>
      </trkpt>
      <trkpt lat="38.2991650" lon="-0.7390560">
        <ele>224.4</ele>
        <time>2020-03-15T08:32:56Z</time>
      </trkpt>
      <trkpt lat="38.2991640" lon="-0.7389550">
        <ele>224.4</ele>
        <time>2020-03-15T08:32:57Z</time>
      </trkpt>
      <trkpt lat="38.2991700" lon="-0.7388610">
        <ele>224.6</ele>
        <time>2020-03-15T08:32:58Z</time>
      </trkpt>
      <trkpt lat="38.2991980" lon="-0.7387780">
        <ele>224.6</ele>
        <time>2020-03-15T08:32:59Z</time>
      </trkpt>
      <trkpt lat="38.2992490" lon="-0.7387140">
        <ele>224.6</ele>
        <time>2020-03-15T08:33:00Z</time>
      </trkpt>
      <trkpt lat="38.2993090" lon="-0.7386650">
        <ele>224.4</ele>
        <time>2020-03-15T08:33:01Z</time>
      </trkpt>
      <trkpt lat="38.2993750" lon="-0.7386300">
        <ele>224.2</ele>
        <time>2020-03-15T08:33:02Z</time>
      </trkpt>
      <trkpt lat="38.2994390" lon="-0.7386040">
        <ele>224.2</ele>
        <time>2020-03-15T08:33:03Z</time>
      </trkpt>
      <trkpt lat="38.2994860" lon="-0.7385820">
        <ele>224.2</ele>
        <time>2020-03-15T08:33:04Z</time>
      </trkpt>
      <trkpt lat="38.2995030" lon="-0.7385600">
        <ele>223.8</ele>
        <time>2020-03-15T08:33:05Z</time>
      </trkpt>
      <trkpt lat="38.2994910" lon="-0.7385430">
        <ele>223.6</ele>
        <time>2020-03-15T08:33:06Z</time>
      </trkpt>
      <trkpt lat="38.2994700" lon="-0.7385320">
        <ele>223.6</ele>
        <time>2020-03-15T08:33:07Z</time>
      </trkpt>
      <trkpt lat="38.2994470" lon="-0.7385240">
        <ele>223.6</ele>
        <time>2020-03-15T08:33:08Z</time>
      </trkpt>
      <trkpt lat="38.2994170" lon="-0.7385200">
        <ele>223.6</ele>
        <time>2020-03-15T08:33:09Z</time>
      </trkpt>
      <trkpt lat="38.2993860" lon="-0.7385180">
        <ele>223.8</ele>
        <time>2020-03-15T08:33:10Z</time>
      </trkpt>
      <trkpt lat="38.2993510" lon="-0.7385210">
        <ele>223.6</ele>
        <time>2020-03-15T08:33:11Z</time>
      </trkpt>
      <trkpt lat="38.2993110" lon="-0.7385290">
        <ele>223.6</ele>
        <time>2020-03-15T08:33:12Z</time>
      </trkpt>
      <trkpt lat="38.2992650" lon="-0.7385340">
        <ele>223.6</ele>
        <time>2020-03-15T08:33:13Z</time>
      </trkpt>
      <trkpt lat="38.2992150" lon="-0.7385360">
        <ele>223.6</ele>
        <time>2020-03-15T08:33:14Z</time>
      </trkpt>
      <trkpt lat="38.2991610" lon="-0.7385300">
        <ele>223.4</ele>
        <time>2020-03-15T08:33:15Z</time>
      </trkpt>
      <trkpt lat="38.2991050" lon="-0.7385160">
        <ele>223.6</ele>
        <time>2020-03-15T08:33:16Z</time>
      </trkpt>
      <trkpt lat="38.2990490" lon="-0.7384940">
        <ele>223.8</ele>
        <time>2020-03-15T08:33:17Z</time>
      </trkpt>
      <trkpt lat="38.2989920" lon="-0.7384690">
        <ele>223.8</ele>
        <time>2020-03-15T08:33:18Z</time>
      </trkpt>
      <trkpt lat="38.2989360" lon="-0.7384390">
        <ele>223.8</ele>
        <time>2020-03-15T08:33:19Z</time>
      </trkpt>
      <trkpt lat="38.2988810" lon="-0.7384070">
        <ele>224.0</ele>
        <time>2020-03-15T08:33:20Z</time>
      </trkpt>
      <trkpt lat="38.2988260" lon="-0.7383750">
        <ele>224.0</ele>
        <time>2020-03-15T08:33:21Z</time>
      </trkpt>
      <trkpt lat="38.2987720" lon="-0.7383420">
        <ele>224.2</ele>
        <time>2020-03-15T08:33:22Z</time>
      </trkpt>
      <trkpt lat="38.2987170" lon="-0.7383080">
        <ele>224.2</ele>
        <time>2020-03-15T08:33:23Z</time>
      </trkpt>
      <trkpt lat="38.2986640" lon="-0.7382750">
        <ele>224.2</ele>
        <time>2020-03-15T08:33:24Z</time>
      </trkpt>
      <trkpt lat="38.2986090" lon="-0.7382390">
        <ele>224.4</ele>
        <time>2020-03-15T08:33:25Z</time>
      </trkpt>
      <trkpt lat="38.2985550" lon="-0.7382030">
        <ele>224.6</ele>
        <time>2020-03-15T08:33:26Z</time>
      </trkpt>
      <trkpt lat="38.2985010" lon="-0.7381640">
        <ele>224.6</ele>
        <time>2020-03-15T08:33:27Z</time>
      </trkpt>
      <trkpt lat="38.2984460" lon="-0.7381260">
        <ele>224.8</ele>
        <time>2020-03-15T08:33:28Z</time>
      </trkpt>
      <trkpt lat="38.2983890" lon="-0.7380880">
        <ele>224.8</ele>
        <time>2020-03-15T08:33:29Z</time>
      </trkpt>
      <trkpt lat="38.2983330" lon="-0.7380470">
        <ele>224.8</ele>
        <time>2020-03-15T08:33:30Z</time>
      </trkpt>
      <trkpt lat="38.2982760" lon="-0.7380060">
        <ele>224.8</ele>
        <time>2020-03-15T08:33:31Z</time>
      </trkpt>
      <trkpt lat="38.2982180" lon="-0.7379650">
        <ele>224.6</ele>
        <time>2020-03-15T08:33:32Z</time>
      </trkpt>
      <trkpt lat="38.2981580" lon="-0.7379250">
        <ele>224.4</ele>
        <time>2020-03-15T08:33:33Z</time>
      </trkpt>
      <trkpt lat="38.2980970" lon="-0.7378860">
        <ele>224.6</ele>
        <time>2020-03-15T08:33:34Z</time>
      </trkpt>
      <trkpt lat="38.2980360" lon="-0.7378450">
        <ele>224.4</ele>
        <time>2020-03-15T08:33:35Z</time>
      </trkpt>
      <trkpt lat="38.2979760" lon="-0.7378020">
        <ele>224.4</ele>
        <time>2020-03-15T08:33:36Z</time>
      </trkpt>
      <trkpt lat="38.2979160" lon="-0.7377570">
        <ele>224.2</ele>
        <time>2020-03-15T08:33:37Z</time>
      </trkpt>
      <trkpt lat="38.2978560" lon="-0.7377100">
        <ele>224.0</ele>
        <time>2020-03-15T08:33:38Z</time>
      </trkpt>
      <trkpt lat="38.2977950" lon="-0.7376610">
        <ele>223.6</ele>
        <time>2020-03-15T08:33:39Z</time>
      </trkpt>
      <trkpt lat="38.2977350" lon="-0.7376090">
        <ele>223.4</ele>
        <time>2020-03-15T08:33:40Z</time>
      </trkpt>
      <trkpt lat="38.2976760" lon="-0.7375580">
        <ele>223.0</ele>
        <time>2020-03-15T08:33:41Z</time>
      </trkpt>
      <trkpt lat="38.2976150" lon="-0.7375010">
        <ele>222.6</ele>
        <time>2020-03-15T08:33:42Z</time>
      </trkpt>
      <trkpt lat="38.2975470" lon="-0.7374380">
        <ele>222.0</ele>
        <time>2020-03-15T08:33:43Z</time>
      </trkpt>
      <trkpt lat="38.2974760" lon="-0.7373640">
        <ele>221.2</ele>
        <time>2020-03-15T08:33:44Z</time>
      </trkpt>
      <trkpt lat="38.2974160" lon="-0.7373000">
        <ele>219.8</ele>
        <time>2020-03-15T08:33:45Z</time>
      </trkpt>
      <trkpt lat="38.2973730" lon="-0.7372390">
        <ele>218.0</ele>
        <time>2020-03-15T08:33:46Z</time>
      </trkpt>
      <trkpt lat="38.2973740" lon="-0.7371920">
        <ele>216.8</ele>
        <time>2020-03-15T08:33:47Z</time>
      </trkpt>
      <trkpt lat="38.2973750" lon="-0.7371440">
        <ele>215.8</ele>
        <time>2020-03-15T08:33:48Z</time>
      </trkpt>
      <trkpt lat="38.2973770" lon="-0.7370480">
        <ele>215.4</ele>
        <time>2020-03-15T08:33:49Z</time>
      </trkpt>
      <trkpt lat="38.2974080" lon="-0.7369880">
        <ele>215.2</ele>
        <time>2020-03-15T08:33:50Z</time>
      </trkpt>
      <trkpt lat="38.2974440" lon="-0.7369280">
        <ele>215.2</ele>
        <time>2020-03-15T08:33:51Z</time>
      </trkpt>
      <trkpt lat="38.2974820" lon="-0.7368680">
        <ele>215.2</ele>
        <time>2020-03-15T08:33:52Z</time>
      </trkpt>
      <trkpt lat="38.2975200" lon="-0.7368090">
        <ele>215.4</ele>
        <time>2020-03-15T08:33:53Z</time>
      </trkpt>
      <trkpt lat="38.2975570" lon="-0.7367470">
        <ele>215.2</ele>
        <time>2020-03-15T08:33:54Z</time>
      </trkpt>
      <trkpt lat="38.2975920" lon="-0.7366780">
        <ele>215.2</ele>
        <time>2020-03-15T08:33:55Z</time>
      </trkpt>
      <trkpt lat="38.2976250" lon="-0.7366000">
        <ele>215.0</ele>
        <time>2020-03-15T08:33:56Z</time>
      </trkpt>
      <trkpt lat="38.2976540" lon="-0.7365140">
        <ele>214.6</ele>
        <time>2020-03-15T08:33:57Z</time>
      </trkpt>
      <trkpt lat="38.2976800" lon="-0.7364240">
        <ele>214.0</ele>
        <time>2020-03-15T08:33:58Z</time>
      </trkpt>
      <trkpt lat="38.2976980" lon="-0.7363320">
        <ele>213.8</ele>
        <time>2020-03-15T08:33:59Z</time>
      </trkpt>
      <trkpt lat="38.2977080" lon="-0.7362370">
        <ele>213.6</ele>
        <time>2020-03-15T08:34:00Z</time>
      </trkpt>
      <trkpt lat="38.2977100" lon="-0.7361430">
        <ele>213.4</ele>
        <time>2020-03-15T08:34:01Z</time>
      </trkpt>
      <trkpt lat="38.2977050" lon="-0.7360470">
        <ele>213.2</ele>
        <time>2020-03-15T08:34:02Z</time>
      </trkpt>
      <trkpt lat="38.2976940" lon="-0.7359520">
        <ele>213.0</ele>
        <time>2020-03-15T08:34:03Z</time>
      </trkpt>
      <trkpt lat="38.2976800" lon="-0.7358540">
        <ele>212.8</ele>
        <time>2020-03-15T08:34:04Z</time>
      </trkpt>
      <trkpt lat="38.2976580" lon="-0.7357560">
        <ele>212.4</ele>
        <time>2020-03-15T08:34:05Z</time>
      </trkpt>
      <trkpt lat="38.2976300" lon="-0.7356560">
        <ele>211.8</ele>
        <time>2020-03-15T08:34:06Z</time>
      </trkpt>
      <trkpt lat="38.2976020" lon="-0.7355550">
        <ele>211.4</ele>
        <time>2020-03-15T08:34:07Z</time>
      </trkpt>
      <trkpt lat="38.2975740" lon="-0.7354540">
        <ele>211.0</ele>
        <time>2020-03-15T08:34:08Z</time>
      </trkpt>
      <trkpt lat="38.2975430" lon="-0.7353520">
        <ele>210.8</ele>
        <time>2020-03-15T08:34:09Z</time>
      </trkpt>
      <trkpt lat="38.2975110" lon="-0.7352520">
        <ele>210.2</ele>
        <time>2020-03-15T08:34:10Z</time>
      </trkpt>
      <trkpt lat="38.2974800" lon="-0.7351530">
        <ele>210.0</ele>
        <time>2020-03-15T08:34:11Z</time>
      </trkpt>
      <trkpt lat="38.2974510" lon="-0.7350510">
        <ele>210.0</ele>
        <time>2020-03-15T08:34:12Z</time>
      </trkpt>
      <trkpt lat="38.2974220" lon="-0.7349530">
        <ele>209.8</ele>
        <time>2020-03-15T08:34:13Z</time>
      </trkpt>
      <trkpt lat="38.2973990" lon="-0.7348510">
        <ele>209.4</ele>
        <time>2020-03-15T08:34:14Z</time>
      </trkpt>
      <trkpt lat="38.2973920" lon="-0.7347450">
        <ele>209.2</ele>
        <time>2020-03-15T08:34:15Z</time>
      </trkpt>
      <trkpt lat="38.2974000" lon="-0.7346390">
        <ele>209.0</ele>
        <time>2020-03-15T08:34:16Z</time>
      </trkpt>
      <trkpt lat="38.2974180" lon="-0.7345340">
        <ele>209.0</ele>
        <time>2020-03-15T08:34:17Z</time>
      </trkpt>
      <trkpt lat="38.2974350" lon="-0.7344320">
        <ele>209.0</ele>
        <time>2020-03-15T08:34:18Z</time>
      </trkpt>
      <trkpt lat="38.2974530" lon="-0.7343300">
        <ele>208.8</ele>
        <time>2020-03-15T08:34:19Z</time>
      </trkpt>
      <trkpt lat="38.2974660" lon="-0.7342300">
        <ele>208.8</ele>
        <time>2020-03-15T08:34:20Z</time>
      </trkpt>
      <trkpt lat="38.2974740" lon="-0.7341300">
        <ele>209.0</ele>
        <time>2020-03-15T08:34:21Z</time>
      </trkpt>
      <trkpt lat="38.2974730" lon="-0.7340310">
        <ele>208.8</ele>
        <time>2020-03-15T08:34:22Z</time>
      </trkpt>
      <trkpt lat="38.2974630" lon="-0.7339330">
        <ele>208.6</ele>
        <time>2020-03-15T08:34:23Z</time>
      </trkpt>
      <trkpt lat="38.2974460" lon="-0.7338390">
        <ele>208.8</ele>
        <time>2020-03-15T08:34:24Z</time>
      </trkpt>
      <trkpt lat="38.2974250" lon="-0.7337490">
        <ele>208.6</ele>
        <time>2020-03-15T08:34:25Z</time>
      </trkpt>
      <trkpt lat="38.2973990" lon="-0.7336620">
        <ele>208.8</ele>
        <time>2020-03-15T08:34:26Z</time>
      </trkpt>
      <trkpt lat="38.2973720" lon="-0.7335760">
        <ele>208.8</ele>
        <time>2020-03-15T08:34:27Z</time>
      </trkpt>
      <trkpt lat="38.2973440" lon="-0.7334940">
        <ele>209.2</ele>
        <time>2020-03-15T08:34:28Z</time>
      </trkpt>
      <trkpt lat="38.2973130" lon="-0.7334170">
        <ele>209.4</ele>
        <time>2020-03-15T08:34:29Z</time>
      </trkpt>
      <trkpt lat="38.2972770" lon="-0.7333460">
        <ele>209.2</ele>
        <time>2020-03-15T08:34:30Z</time>
      </trkpt>
      <trkpt lat="38.2972380" lon="-0.7332800">
        <ele>209.2</ele>
        <time>2020-03-15T08:34:31Z</time>
      </trkpt>
      <trkpt lat="38.2971930" lon="-0.7332190">
        <ele>209.2</ele>
        <time>2020-03-15T08:34:32Z</time>
      </trkpt>
      <trkpt lat="38.2971450" lon="-0.7331640">
        <ele>209.0</ele>
        <time>2020-03-15T08:34:33Z</time>
      </trkpt>
      <trkpt lat="38.2970930" lon="-0.7331110">
        <ele>208.8</ele>
        <time>2020-03-15T08:34:34Z</time>
      </trkpt>
      <trkpt lat="38.2970390" lon="-0.7330560">
        <ele>208.4</ele>
        <time>2020-03-15T08:34:35Z</time>
      </trkpt>
      <trkpt lat="38.2969860" lon="-0.7329940">
        <ele>207.8</ele>
        <time>2020-03-15T08:34:36Z</time>
      </trkpt>
      <trkpt lat="38.2969400" lon="-0.7329330">
        <ele>207.2</ele>
        <time>2020-03-15T08:34:37Z</time>
      </trkpt>
      <trkpt lat="38.2969010" lon="-0.7328660">
        <ele>206.6</ele>
        <time>2020-03-15T08:34:38Z</time>
      </trkpt>
      <trkpt lat="38.2968660" lon="-0.7327980">
        <ele>206.2</ele>
        <time>2020-03-15T08:34:39Z</time>
      </trkpt>
      <trkpt lat="38.2968440" lon="-0.7327170">
        <ele>206.0</ele>
        <time>2020-03-15T08:34:40Z</time>
      </trkpt>
      <trkpt lat="38.2968440" lon="-0.7326330">
        <ele>205.4</ele>
        <time>2020-03-15T08:34:41Z</time>
      </trkpt>
      <trkpt lat="38.2968740" lon="-0.7325540">
        <ele>205.0</ele>
        <time>2020-03-15T08:34:42Z</time>
      </trkpt>
      <trkpt lat="38.2969160" lon="-0.7324850">
        <ele>204.8</ele>
        <time>2020-03-15T08:34:43Z</time>
      </trkpt>
      <trkpt lat="38.2969570" lon="-0.7324130">
        <ele>204.4</ele>
        <time>2020-03-15T08:34:44Z</time>
      </trkpt>
      <trkpt lat="38.2969810" lon="-0.7323500">
        <ele>203.8</ele>
        <time>2020-03-15T08:34:45Z</time>
      </trkpt>
      <trkpt lat="38.2969940" lon="-0.7322910">
        <ele>203.2</ele>
        <time>2020-03-15T08:34:46Z</time>
      </trkpt>
      <trkpt lat="38.2969910" lon="-0.7322320">
        <ele>202.8</ele>
        <time>2020-03-15T08:34:47Z</time>
      </trkpt>
      <trkpt lat="38.2969730" lon="-0.7321780">
        <ele>202.6</ele>
        <time>2020-03-15T08:34:48Z</time>
      </trkpt>
      <trkpt lat="38.2969460" lon="-0.7321300">
        <ele>202.6</ele>
        <time>2020-03-15T08:34:49Z</time>
      </trkpt>
      <trkpt lat="38.2969190" lon="-0.7320780">
        <ele>202.8</ele>
        <time>2020-03-15T08:34:50Z</time>
      </trkpt>
      <trkpt lat="38.2968980" lon="-0.7320210">
        <ele>202.8</ele>
        <time>2020-03-15T08:34:51Z</time>
      </trkpt>
      <trkpt lat="38.2968820" lon="-0.7319550">
        <ele>202.8</ele>
        <time>2020-03-15T08:34:52Z</time>
      </trkpt>
      <trkpt lat="38.2968640" lon="-0.7318870">
        <ele>202.8</ele>
        <time>2020-03-15T08:34:53Z</time>
      </trkpt>
      <trkpt lat="38.2968390" lon="-0.7318200">
        <ele>203.2</ele>
        <time>2020-03-15T08:34:54Z</time>
      </trkpt>
      <trkpt lat="38.2968160" lon="-0.7317600">
        <ele>203.6</ele>
        <time>2020-03-15T08:34:55Z</time>
      </trkpt>
      <trkpt lat="38.2967900" lon="-0.7317030">
        <ele>203.8</ele>
        <time>2020-03-15T08:34:56Z</time>
      </trkpt>
      <trkpt lat="38.2967740" lon="-0.7316470">
        <ele>204.0</ele>
        <time>2020-03-15T08:34:57Z</time>
      </trkpt>
      <trkpt lat="38.2967600" lon="-0.7315910">
        <ele>204.2</ele>
        <time>2020-03-15T08:34:58Z</time>
      </trkpt>
      <trkpt lat="38.2967450" lon="-0.7315340">
        <ele>204.4</ele>
        <time>2020-03-15T08:34:59Z</time>
      </trkpt>
      <trkpt lat="38.2967250" lon="-0.7314760">
        <ele>204.4</ele>
        <time>2020-03-15T08:35:00Z</time>
      </trkpt>
      <trkpt lat="38.2966990" lon="-0.7314150">
        <ele>204.4</ele>
        <time>2020-03-15T08:35:01Z</time>
      </trkpt>
      <trkpt lat="38.2966740" lon="-0.7313490">
        <ele>204.4</ele>
        <time>2020-03-15T08:35:02Z</time>
      </trkpt>
      <trkpt lat="38.2966460" lon="-0.7312810">
        <ele>204.4</ele>
        <time>2020-03-15T08:35:03Z</time>
      </trkpt>
      <trkpt lat="38.2966190" lon="-0.7312110">
        <ele>204.4</ele>
        <time>2020-03-15T08:35:04Z</time>
      </trkpt>
      <trkpt lat="38.2965880" lon="-0.7311390">
        <ele>204.2</ele>
        <time>2020-03-15T08:35:05Z</time>
      </trkpt>
      <trkpt lat="38.2965510" lon="-0.7310670">
        <ele>203.8</ele>
        <time>2020-03-15T08:35:06Z</time>
      </trkpt>
      <trkpt lat="38.2965090" lon="-0.7309970">
        <ele>203.6</ele>
        <time>2020-03-15T08:35:07Z</time>
      </trkpt>
      <trkpt lat="38.2964610" lon="-0.7309330">
        <ele>203.8</ele>
        <time>2020-03-15T08:35:08Z</time>
      </trkpt>
      <trkpt lat="38.2964070" lon="-0.7308730">
        <ele>203.4</ele>
        <time>2020-03-15T08:35:09Z</time>
      </trkpt>
      <trkpt lat="38.2963470" lon="-0.7308170">
        <ele>203.2</ele>
        <time>2020-03-15T08:35:10Z</time>
      </trkpt>
      <trkpt lat="38.2962830" lon="-0.7307600">
        <ele>202.6</ele>
        <time>2020-03-15T08:35:11Z</time>
      </trkpt>
      <trkpt lat="38.2962190" lon="-0.7307010">
        <ele>202.4</ele>
        <time>2020-03-15T08:35:12Z</time>
      </trkpt>
      <trkpt lat="38.2961570" lon="-0.7306380">
        <ele>202.2</ele>
        <time>2020-03-15T08:35:13Z</time>
      </trkpt>
      <trkpt lat="38.2960980" lon="-0.7305730">
        <ele>202.0</ele>
        <time>2020-03-15T08:35:14Z</time>
      </trkpt>
      <trkpt lat="38.2960430" lon="-0.7305050">
        <ele>201.8</ele>
        <time>2020-03-15T08:35:15Z</time>
      </trkpt>
      <trkpt lat="38.2959910" lon="-0.7304330">
        <ele>201.6</ele>
        <time>2020-03-15T08:35:16Z</time>
      </trkpt>
      <trkpt lat="38.2959450" lon="-0.7303560">
        <ele>201.4</ele>
        <time>2020-03-15T08:35:17Z</time>
      </trkpt>
      <trkpt lat="38.2959020" lon="-0.7302770">
        <ele>201.2</ele>
        <time>2020-03-15T08:35:18Z</time>
      </trkpt>
      <trkpt lat="38.2958640" lon="-0.7301940">
        <ele>201.0</ele>
        <time>2020-03-15T08:35:19Z</time>
      </trkpt>
      <trkpt lat="38.2958290" lon="-0.7301090">
        <ele>200.8</ele>
        <time>2020-03-15T08:35:20Z</time>
      </trkpt>
      <trkpt lat="38.2957950" lon="-0.7300250">
        <ele>200.6</ele>
        <time>2020-03-15T08:35:21Z</time>
      </trkpt>
      <trkpt lat="38.2957630" lon="-0.7299390">
        <ele>200.6</ele>
        <time>2020-03-15T08:35:22Z</time>
      </trkpt>
      <trkpt lat="38.2957310" lon="-0.7298550">
        <ele>200.4</ele>
        <time>2020-03-15T08:35:23Z</time>
      </trkpt>
      <trkpt lat="38.2957010" lon="-0.7297710">
        <ele>200.4</ele>
        <time>2020-03-15T08:35:24Z</time>
      </trkpt>
      <trkpt lat="38.2956700" lon="-0.7296870">
        <ele>200.4</ele>
        <time>2020-03-15T08:35:25Z</time>
      </trkpt>
      <trkpt lat="38.2956390" lon="-0.7296010">
        <ele>200.0</ele>
        <time>2020-03-15T08:35:26Z</time>
      </trkpt>
      <trkpt lat="38.2956030" lon="-0.7295120">
        <ele>199.6</ele>
        <time>2020-03-15T08:35:27Z</time>
      </trkpt>
      <trkpt lat="38.2955680" lon="-0.7294200">
        <ele>199.2</ele>
        <time>2020-03-15T08:35:28Z</time>
      </trkpt>
      <trkpt lat="38.2955410" lon="-0.7293230">
        <ele>199.0</ele>
        <time>2020-03-15T08:35:29Z</time>
      </trkpt>
      <trkpt lat="38.2955190" lon="-0.7292230">
        <ele>199.0</ele>
        <time>2020-03-15T08:35:30Z</time>
      </trkpt>
      <trkpt lat="38.2955010" lon="-0.7291250">
        <ele>198.8</ele>
        <time>2020-03-15T08:35:31Z</time>
      </trkpt>
      <trkpt lat="38.2954740" lon="-0.7290340">
        <ele>198.6</ele>
        <time>2020-03-15T08:35:32Z</time>
      </trkpt>
      <trkpt lat="38.2954360" lon="-0.7289470">
        <ele>198.6</ele>
        <time>2020-03-15T08:35:33Z</time>
      </trkpt>
      <trkpt lat="38.2953970" lon="-0.7288600">
        <ele>198.6</ele>
        <time>2020-03-15T08:35:34Z</time>
      </trkpt>
      <trkpt lat="38.2953660" lon="-0.7287700">
        <ele>198.6</ele>
        <time>2020-03-15T08:35:35Z</time>
      </trkpt>
      <trkpt lat="38.2953390" lon="-0.7286750">
        <ele>198.4</ele>
        <time>2020-03-15T08:35:36Z</time>
      </trkpt>
      <trkpt lat="38.2953160" lon="-0.7285800">
        <ele>198.4</ele>
        <time>2020-03-15T08:35:37Z</time>
      </trkpt>
      <trkpt lat="38.2952970" lon="-0.7284820">
        <ele>198.6</ele>
        <time>2020-03-15T08:35:38Z</time>
      </trkpt>
      <trkpt lat="38.2952820" lon="-0.7283840">
        <ele>198.4</ele>
        <time>2020-03-15T08:35:39Z</time>
      </trkpt>
      <trkpt lat="38.2952630" lon="-0.7282870">
        <ele>198.4</ele>
        <time>2020-03-15T08:35:40Z</time>
      </trkpt>
      <trkpt lat="38.2952480" lon="-0.7281880">
        <ele>198.0</ele>
        <time>2020-03-15T08:35:41Z</time>
      </trkpt>
      <trkpt lat="38.2952350" lon="-0.7281130">
        <ele>198.2</ele>
        <time>2020-03-15T08:35:42Z</time>
      </trkpt>
      <trkpt lat="38.2952220" lon="-0.7280390">
        <ele>198.0</ele>
        <time>2020-03-15T08:35:43Z</time>
      </trkpt>
      <trkpt lat="38.2951960" lon="-0.7278900">
        <ele>197.6</ele>
        <time>2020-03-15T08:35:44Z</time>
      </trkpt>
      <trkpt lat="38.2951790" lon="-0.7277870">
        <ele>197.2</ele>
        <time>2020-03-15T08:35:45Z</time>
      </trkpt>
      <trkpt lat="38.2951610" lon="-0.7276800">
        <ele>196.8</ele>
        <time>2020-03-15T08:35:46Z</time>
      </trkpt>
      <trkpt lat="38.2951460" lon="-0.7275740">
        <ele>196.4</ele>
        <time>2020-03-15T08:35:47Z</time>
      </trkpt>
      <trkpt lat="38.2951320" lon="-0.7274650">
        <ele>196.2</ele>
        <time>2020-03-15T08:35:48Z</time>
      </trkpt>
      <trkpt lat="38.2951190" lon="-0.7273560">
        <ele>196.0</ele>
        <time>2020-03-15T08:35:49Z</time>
      </trkpt>
      <trkpt lat="38.2951070" lon="-0.7272490">
        <ele>195.8</ele>
        <time>2020-03-15T08:35:50Z</time>
      </trkpt>
      <trkpt lat="38.2951000" lon="-0.7271400">
        <ele>195.6</ele>
        <time>2020-03-15T08:35:51Z</time>
      </trkpt>
      <trkpt lat="38.2950990" lon="-0.7270260">
        <ele>195.4</ele>
        <time>2020-03-15T08:35:52Z</time>
      </trkpt>
      <trkpt lat="38.2950980" lon="-0.7269120">
        <ele>194.8</ele>
        <time>2020-03-15T08:35:53Z</time>
      </trkpt>
      <trkpt lat="38.2950900" lon="-0.7267960">
        <ele>194.4</ele>
        <time>2020-03-15T08:35:54Z</time>
      </trkpt>
      <trkpt lat="38.2950810" lon="-0.7266780">
        <ele>193.8</ele>
        <time>2020-03-15T08:35:55Z</time>
      </trkpt>
      <trkpt lat="38.2950670" lon="-0.7265640">
        <ele>193.4</ele>
        <time>2020-03-15T08:35:56Z</time>
      </trkpt>
      <trkpt lat="38.2950520" lon="-0.7264500">
        <ele>193.0</ele>
        <time>2020-03-15T08:35:57Z</time>
      </trkpt>
      <trkpt lat="38.2950330" lon="-0.7263340">
        <ele>192.8</ele>
        <time>2020-03-15T08:35:58Z</time>
      </trkpt>
      <trkpt lat="38.2950120" lon="-0.7262200">
        <ele>192.6</ele>
        <time>2020-03-15T08:35:59Z</time>
      </trkpt>
      <trkpt lat="38.2949890" lon="-0.7261050">
        <ele>192.4</ele>
        <time>2020-03-15T08:36:00Z</time>
      </trkpt>
      <trkpt lat="38.2949630" lon="-0.7259910">
        <ele>192.0</ele>
        <time>2020-03-15T08:36:01Z</time>
      </trkpt>
      <trkpt lat="38.2949360" lon="-0.7258750">
        <ele>191.6</ele>
        <time>2020-03-15T08:36:02Z</time>
      </trkpt>
      <trkpt lat="38.2949080" lon="-0.7257580">
        <ele>191.2</ele>
        <time>2020-03-15T08:36:03Z</time>
      </trkpt>
      <trkpt lat="38.2948830" lon="-0.7256420">
        <ele>191.2</ele>
        <time>2020-03-15T08:36:04Z</time>
      </trkpt>
      <trkpt lat="38.2948530" lon="-0.7255280">
        <ele>190.6</ele>
        <time>2020-03-15T08:36:05Z</time>
      </trkpt>
      <trkpt lat="38.2948140" lon="-0.7254170">
        <ele>190.4</ele>
        <time>2020-03-15T08:36:06Z</time>
      </trkpt>
      <trkpt lat="38.2947730" lon="-0.7253110">
        <ele>190.2</ele>
        <time>2020-03-15T08:36:07Z</time>
      </trkpt>
      <trkpt lat="38.2947310" lon="-0.7252060">
        <ele>190.2</ele>
        <time>2020-03-15T08:36:08Z</time>
      </trkpt>
      <trkpt lat="38.2946840" lon="-0.7251010">
        <ele>189.8</ele>
        <time>2020-03-15T08:36:09Z</time>
      </trkpt>
      <trkpt lat="38.2946380" lon="-0.7249980">
        <ele>189.6</ele>
        <time>2020-03-15T08:36:10Z</time>
      </trkpt>
      <trkpt lat="38.2945920" lon="-0.7249000">
        <ele>189.6</ele>
        <time>2020-03-15T08:36:11Z</time>
      </trkpt>
      <trkpt lat="38.2945460" lon="-0.7248030">
        <ele>189.6</ele>
        <time>2020-03-15T08:36:12Z</time>
      </trkpt>
      <trkpt lat="38.2945000" lon="-0.7247060">
        <ele>189.6</ele>
        <time>2020-03-15T08:36:13Z</time>
      </trkpt>
      <trkpt lat="38.2944550" lon="-0.7246090">
        <ele>189.6</ele>
        <time>2020-03-15T08:36:14Z</time>
      </trkpt>
      <trkpt lat="38.2944090" lon="-0.7245100">
        <ele>189.2</ele>
        <time>2020-03-15T08:36:15Z</time>
      </trkpt>
      <trkpt lat="38.2943700" lon="-0.7244060">
        <ele>189.0</ele>
        <time>2020-03-15T08:36:16Z</time>
      </trkpt>
      <trkpt lat="38.2943340" lon="-0.7243010">
        <ele>188.8</ele>
        <time>2020-03-15T08:36:17Z</time>
      </trkpt>
      <trkpt lat="38.2943010" lon="-0.7241910">
        <ele>188.6</ele>
        <time>2020-03-15T08:36:18Z</time>
      </trkpt>
      <trkpt lat="38.2942690" lon="-0.7240770">
        <ele>188.2</ele>
        <time>2020-03-15T08:36:19Z</time>
      </trkpt>
      <trkpt lat="38.2942360" lon="-0.7239630">
        <ele>187.6</ele>
        <time>2020-03-15T08:36:20Z</time>
      </trkpt>
      <trkpt lat="38.2942080" lon="-0.7238430">
        <ele>187.0</ele>
        <time>2020-03-15T08:36:21Z</time>
      </trkpt>
      <trkpt lat="38.2941860" lon="-0.7237210">
        <ele>186.8</ele>
        <time>2020-03-15T08:36:22Z</time>
      </trkpt>
      <trkpt lat="38.2941670" lon="-0.7235990">
        <ele>186.4</ele>
        <time>2020-03-15T08:36:23Z</time>
      </trkpt>
      <trkpt lat="38.2941500" lon="-0.7234770">
        <ele>186.4</ele>
        <time>2020-03-15T08:36:24Z</time>
      </trkpt>
      <trkpt lat="38.2941390" lon="-0.7233540">
        <ele>186.0</ele>
        <time>2020-03-15T08:36:25Z</time>
      </trkpt>
      <trkpt lat="38.2941300" lon="-0.7232320">
        <ele>185.8</ele>
        <time>2020-03-15T08:36:26Z</time>
      </trkpt>
      <trkpt lat="38.2941240" lon="-0.7231090">
        <ele>185.4</ele>
        <time>2020-03-15T08:36:27Z</time>
      </trkpt>
      <trkpt lat="38.2941190" lon="-0.7229850">
        <ele>185.2</ele>
        <time>2020-03-15T08:36:28Z</time>
      </trkpt>
      <trkpt lat="38.2941120" lon="-0.7228600">
        <ele>184.6</ele>
        <time>2020-03-15T08:36:29Z</time>
      </trkpt>
      <trkpt lat="38.2941010" lon="-0.7227410">
        <ele>184.6</ele>
        <time>2020-03-15T08:36:30Z</time>
      </trkpt>
      <trkpt lat="38.2940940" lon="-0.7226170">
        <ele>184.2</ele>
        <time>2020-03-15T08:36:31Z</time>
      </trkpt>
      <trkpt lat="38.2940900" lon="-0.7224920">
        <ele>184.0</ele>
        <time>2020-03-15T08:36:32Z</time>
      </trkpt>
      <trkpt lat="38.2940820" lon="-0.7223660">
        <ele>183.6</ele>
        <time>2020-03-15T08:36:33Z</time>
      </trkpt>
      <trkpt lat="38.2940680" lon="-0.7222430">
        <ele>183.4</ele>
        <time>2020-03-15T08:36:34Z</time>
      </trkpt>
      <trkpt lat="38.2940500" lon="-0.7221260">
        <ele>183.0</ele>
        <time>2020-03-15T08:36:35Z</time>
      </trkpt>
      <trkpt lat="38.2940200" lon="-0.7220110">
        <ele>183.0</ele>
        <time>2020-03-15T08:36:36Z</time>
      </trkpt>
      <trkpt lat="38.2939870" lon="-0.7218950">
        <ele>183.0</ele>
        <time>2020-03-15T08:36:37Z</time>
      </trkpt>
      <trkpt lat="38.2939530" lon="-0.7217850">
        <ele>182.4</ele>
        <time>2020-03-15T08:36:38Z</time>
      </trkpt>
      <trkpt lat="38.2939220" lon="-0.7216780">
        <ele>182.0</ele>
        <time>2020-03-15T08:36:39Z</time>
      </trkpt>
      <trkpt lat="38.2938920" lon="-0.7215700">
        <ele>181.6</ele>
        <time>2020-03-15T08:36:40Z</time>
      </trkpt>
      <trkpt lat="38.2938590" lon="-0.7214630">
        <ele>181.4</ele>
        <time>2020-03-15T08:36:41Z</time>
      </trkpt>
      <trkpt lat="38.2938260" lon="-0.7213560">
        <ele>181.4</ele>
        <time>2020-03-15T08:36:42Z</time>
      </trkpt>
      <trkpt lat="38.2937960" lon="-0.7212470">
        <ele>181.2</ele>
        <time>2020-03-15T08:36:43Z</time>
      </trkpt>
      <trkpt lat="38.2937700" lon="-0.7211360">
        <ele>181.2</ele>
        <time>2020-03-15T08:36:44Z</time>
      </trkpt>
      <trkpt lat="38.2937510" lon="-0.7210260">
        <ele>181.2</ele>
        <time>2020-03-15T08:36:45Z</time>
      </trkpt>
      <trkpt lat="38.2937380" lon="-0.7209140">
        <ele>181.0</ele>
        <time>2020-03-15T08:36:46Z</time>
      </trkpt>
      <trkpt lat="38.2937290" lon="-0.7208010">
        <ele>180.6</ele>
        <time>2020-03-15T08:36:47Z</time>
      </trkpt>
      <trkpt lat="38.2937230" lon="-0.7206870">
        <ele>180.0</ele>
        <time>2020-03-15T08:36:48Z</time>
      </trkpt>
      <trkpt lat="38.2937210" lon="-0.7205710">
        <ele>179.6</ele>
        <time>2020-03-15T08:36:49Z</time>
      </trkpt>
      <trkpt lat="38.2937220" lon="-0.7204560">
        <ele>179.2</ele>
        <time>2020-03-15T08:36:50Z</time>
      </trkpt>
      <trkpt lat="38.2937260" lon="-0.7203410">
        <ele>179.2</ele>
        <time>2020-03-15T08:36:51Z</time>
      </trkpt>
      <trkpt lat="38.2937360" lon="-0.7202260">
        <ele>179.0</ele>
        <time>2020-03-15T08:36:52Z</time>
      </trkpt>
      <trkpt lat="38.2937450" lon="-0.7201120">
        <ele>178.6</ele>
        <time>2020-03-15T08:36:53Z</time>
      </trkpt>
      <trkpt lat="38.2937550" lon="-0.7199990">
        <ele>178.4</ele>
        <time>2020-03-15T08:36:54Z</time>
      </trkpt>
      <trkpt lat="38.2937680" lon="-0.7198860">
        <ele>178.2</ele>
        <time>2020-03-15T08:36:55Z</time>
      </trkpt>
      <trkpt lat="38.2937820" lon="-0.7197740">
        <ele>178.2</ele>
        <time>2020-03-15T08:36:56Z</time>
      </trkpt>
      <trkpt lat="38.2937940" lon="-0.7196630">
        <ele>177.8</ele>
        <time>2020-03-15T08:36:57Z</time>
      </trkpt>
      <trkpt lat="38.2938010" lon="-0.7195470">
        <ele>177.4</ele>
        <time>2020-03-15T08:36:58Z</time>
      </trkpt>
      <trkpt lat="38.2938030" lon="-0.7194280">
        <ele>177.0</ele>
        <time>2020-03-15T08:36:59Z</time>
      </trkpt>
      <trkpt lat="38.2937990" lon="-0.7193090">
        <ele>176.6</ele>
        <time>2020-03-15T08:37:00Z</time>
      </trkpt>
      <trkpt lat="38.2937940" lon="-0.7191920">
        <ele>176.4</ele>
        <time>2020-03-15T08:37:01Z</time>
      </trkpt>
      <trkpt lat="38.2937850" lon="-0.7190750">
        <ele>176.4</ele>
        <time>2020-03-15T08:37:02Z</time>
      </trkpt>
      <trkpt lat="38.2937740" lon="-0.7189590">
        <ele>176.0</ele>
        <time>2020-03-15T08:37:03Z</time>
      </trkpt>
      <trkpt lat="38.2937600" lon="-0.7188440">
        <ele>176.0</ele>
        <time>2020-03-15T08:37:04Z</time>
      </trkpt>
      <trkpt lat="38.2937420" lon="-0.7187300">
        <ele>175.8</ele>
        <time>2020-03-15T08:37:05Z</time>
      </trkpt>
      <trkpt lat="38.2937230" lon="-0.7186160">
        <ele>175.6</ele>
        <time>2020-03-15T08:37:06Z</time>
      </trkpt>
      <trkpt lat="38.2937060" lon="-0.7185060">
        <ele>175.6</ele>
        <time>2020-03-15T08:37:07Z</time>
      </trkpt>
      <trkpt lat="38.2936830" lon="-0.7183980">
        <ele>176.0</ele>
        <time>2020-03-15T08:37:08Z</time>
      </trkpt>
      <trkpt lat="38.2936600" lon="-0.7182920">
        <ele>175.6</ele>
        <time>2020-03-15T08:37:09Z</time>
      </trkpt>
      <trkpt lat="38.2936370" lon="-0.7181850">
        <ele>175.2</ele>
        <time>2020-03-15T08:37:10Z</time>
      </trkpt>
      <trkpt lat="38.2936120" lon="-0.7180800">
        <ele>175.0</ele>
        <time>2020-03-15T08:37:11Z</time>
      </trkpt>
      <trkpt lat="38.2935890" lon="-0.7179740">
        <ele>174.8</ele>
        <time>2020-03-15T08:37:12Z</time>
      </trkpt>
      <trkpt lat="38.2935640" lon="-0.7178680">
        <ele>174.6</ele>
        <time>2020-03-15T08:37:13Z</time>
      </trkpt>
      <trkpt lat="38.2935380" lon="-0.7177610">
        <ele>174.2</ele>
        <time>2020-03-15T08:37:14Z</time>
      </trkpt>
      <trkpt lat="38.2935130" lon="-0.7176500">
        <ele>173.8</ele>
        <time>2020-03-15T08:37:15Z</time>
      </trkpt>
      <trkpt lat="38.2934890" lon="-0.7175410">
        <ele>173.4</ele>
        <time>2020-03-15T08:37:16Z</time>
      </trkpt>
      <trkpt lat="38.2934670" lon="-0.7174340">
        <ele>173.4</ele>
        <time>2020-03-15T08:37:17Z</time>
      </trkpt>
      <trkpt lat="38.2934430" lon="-0.7173290">
        <ele>173.0</ele>
        <time>2020-03-15T08:37:18Z</time>
      </trkpt>
      <trkpt lat="38.2934210" lon="-0.7172240">
        <ele>172.8</ele>
        <time>2020-03-15T08:37:19Z</time>
      </trkpt>
      <trkpt lat="38.2933990" lon="-0.7171170">
        <ele>172.2</ele>
        <time>2020-03-15T08:37:20Z</time>
      </trkpt>
      <trkpt lat="38.2933720" lon="-0.7170080">
        <ele>172.0</ele>
        <time>2020-03-15T08:37:21Z</time>
      </trkpt>
      <trkpt lat="38.2933410" lon="-0.7169030">
        <ele>171.6</ele>
        <time>2020-03-15T08:37:22Z</time>
      </trkpt>
      <trkpt lat="38.2933080" lon="-0.7168000">
        <ele>171.4</ele>
        <time>2020-03-15T08:37:23Z</time>
      </trkpt>
      <trkpt lat="38.2932720" lon="-0.7166990">
        <ele>171.0</ele>
        <time>2020-03-15T08:37:24Z</time>
      </trkpt>
      <trkpt lat="38.2932320" lon="-0.7165980">
        <ele>171.0</ele>
        <time>2020-03-15T08:37:25Z</time>
      </trkpt>
      <trkpt lat="38.2931930" lon="-0.7164980">
        <ele>170.6</ele>
        <time>2020-03-15T08:37:26Z</time>
      </trkpt>
      <trkpt lat="38.2931510" lon="-0.7164000">
        <ele>170.4</ele>
        <time>2020-03-15T08:37:27Z</time>
      </trkpt>
      <trkpt lat="38.2931070" lon="-0.7163020">
        <ele>170.2</ele>
        <time>2020-03-15T08:37:28Z</time>
      </trkpt>
      <trkpt lat="38.2930620" lon="-0.7162040">
        <ele>170.4</ele>
        <time>2020-03-15T08:37:29Z</time>
      </trkpt>
      <trkpt lat="38.2930180" lon="-0.7161050">
        <ele>170.0</ele>
        <time>2020-03-15T08:37:30Z</time>
      </trkpt>
      <trkpt lat="38.2929760" lon="-0.7160060">
        <ele>170.0</ele>
        <time>2020-03-15T08:37:31Z</time>
      </trkpt>
      <trkpt lat="38.2929350" lon="-0.7159070">
        <ele>169.8</ele>
        <time>2020-03-15T08:37:32Z</time>
      </trkpt>
      <trkpt lat="38.2928950" lon="-0.7158100">
        <ele>169.6</ele>
        <time>2020-03-15T08:37:33Z</time>
      </trkpt>
      <trkpt lat="38.2928530" lon="-0.7157120">
        <ele>169.6</ele>
        <time>2020-03-15T08:37:34Z</time>
      </trkpt>
      <trkpt lat="38.2928130" lon="-0.7156140">
        <ele>169.4</ele>
        <time>2020-03-15T08:37:35Z</time>
      </trkpt>
      <trkpt lat="38.2927730" lon="-0.7155150">
        <ele>169.4</ele>
        <time>2020-03-15T08:37:36Z</time>
      </trkpt>
      <trkpt lat="38.2927360" lon="-0.7154140">
        <ele>169.2</ele>
        <time>2020-03-15T08:37:37Z</time>
      </trkpt>
      <trkpt lat="38.2927020" lon="-0.7153110">
        <ele>169.2</ele>
        <time>2020-03-15T08:37:38Z</time>
      </trkpt>
      <trkpt lat="38.2926700" lon="-0.7152050">
        <ele>168.8</ele>
        <time>2020-03-15T08:37:39Z</time>
      </trkpt>
      <trkpt lat="38.2926400" lon="-0.7150970">
        <ele>168.8</ele>
        <time>2020-03-15T08:37:40Z</time>
      </trkpt>
      <trkpt lat="38.2926060" lon="-0.7149880">
        <ele>168.6</ele>
        <time>2020-03-15T08:37:41Z</time>
      </trkpt>
      <trkpt lat="38.2925610" lon="-0.7148830">
        <ele>168.2</ele>
        <time>2020-03-15T08:37:42Z</time>
      </trkpt>
      <trkpt lat="38.2925040" lon="-0.7147870">
        <ele>167.8</ele>
        <time>2020-03-15T08:37:43Z</time>
      </trkpt>
      <trkpt lat="38.2924350" lon="-0.7147030">
        <ele>167.4</ele>
        <time>2020-03-15T08:37:44Z</time>
      </trkpt>
      <trkpt lat="38.2923600" lon="-0.7146280">
        <ele>167.4</ele>
        <time>2020-03-15T08:37:45Z</time>
      </trkpt>
      <trkpt lat="38.2922830" lon="-0.7145550">
        <ele>167.2</ele>
        <time>2020-03-15T08:37:46Z</time>
      </trkpt>
      <trkpt lat="38.2922260" lon="-0.7145020">
        <ele>167.2</ele>
        <time>2020-03-15T08:37:47Z</time>
      </trkpt>
      <trkpt lat="38.2921680" lon="-0.7144500">
        <ele>167.0</ele>
        <time>2020-03-15T08:37:48Z</time>
      </trkpt>
      <trkpt lat="38.2920520" lon="-0.7143460">
        <ele>167.0</ele>
        <time>2020-03-15T08:37:49Z</time>
      </trkpt>
      <trkpt lat="38.2919740" lon="-0.7142820">
        <ele>167.0</ele>
        <time>2020-03-15T08:37:50Z</time>
      </trkpt>
      <trkpt lat="38.2918950" lon="-0.7142210">
        <ele>167.0</ele>
        <time>2020-03-15T08:37:51Z</time>
      </trkpt>
      <trkpt lat="38.2918130" lon="-0.7141660">
        <ele>166.8</ele>
        <time>2020-03-15T08:37:52Z</time>
      </trkpt>
      <trkpt lat="38.2917280" lon="-0.7141200">
        <ele>166.6</ele>
        <time>2020-03-15T08:37:53Z</time>
      </trkpt>
      <trkpt lat="38.2916420" lon="-0.7140810">
        <ele>166.6</ele>
        <time>2020-03-15T08:37:54Z</time>
      </trkpt>
      <trkpt lat="38.2915550" lon="-0.7140450">
        <ele>166.8</ele>
        <time>2020-03-15T08:37:55Z</time>
      </trkpt>
      <trkpt lat="38.2914670" lon="-0.7140190">
        <ele>166.8</ele>
        <time>2020-03-15T08:37:56Z</time>
      </trkpt>
      <trkpt lat="38.2913790" lon="-0.7140080">
        <ele>166.8</ele>
        <time>2020-03-15T08:37:57Z</time>
      </trkpt>
      <trkpt lat="38.2912910" lon="-0.7140120">
        <ele>166.8</ele>
        <time>2020-03-15T08:37:58Z</time>
      </trkpt>
      <trkpt lat="38.2912040" lon="-0.7140240">
        <ele>166.6</ele>
        <time>2020-03-15T08:37:59Z</time>
      </trkpt>
      <trkpt lat="38.2911200" lon="-0.7140440">
        <ele>166.8</ele>
        <time>2020-03-15T08:38:00Z</time>
      </trkpt>
      <trkpt lat="38.2910400" lon="-0.7140730">
        <ele>167.0</ele>
        <time>2020-03-15T08:38:01Z</time>
      </trkpt>
      <trkpt lat="38.2909620" lon="-0.7141120">
        <ele>167.2</ele>
        <time>2020-03-15T08:38:02Z</time>
      </trkpt>
      <trkpt lat="38.2908890" lon="-0.7141570">
        <ele>167.2</ele>
        <time>2020-03-15T08:38:03Z</time>
      </trkpt>
      <trkpt lat="38.2908200" lon="-0.7142100">
        <ele>167.2</ele>
        <time>2020-03-15T08:38:04Z</time>
      </trkpt>
      <trkpt lat="38.2907570" lon="-0.7142680">
        <ele>167.2</ele>
        <time>2020-03-15T08:38:05Z</time>
      </trkpt>
      <trkpt lat="38.2906960" lon="-0.7143290">
        <ele>167.2</ele>
        <time>2020-03-15T08:38:06Z</time>
      </trkpt>
      <trkpt lat="38.2906350" lon="-0.7143890">
        <ele>167.2</ele>
        <time>2020-03-15T08:38:07Z</time>
      </trkpt>
      <trkpt lat="38.2905690" lon="-0.7144360">
        <ele>167.4</ele>
        <time>2020-03-15T08:38:08Z</time>
      </trkpt>
      <trkpt lat="38.2904980" lon="-0.7144680">
        <ele>167.4</ele>
        <time>2020-03-15T08:38:09Z</time>
      </trkpt>
      <trkpt lat="38.2904250" lon="-0.7144850">
        <ele>167.8</ele>
        <time>2020-03-15T08:38:10Z</time>
      </trkpt>
      <trkpt lat="38.2903530" lon="-0.7144810">
        <ele>167.8</ele>
        <time>2020-03-15T08:38:11Z</time>
      </trkpt>
      <trkpt lat="38.2902840" lon="-0.7144630">
        <ele>167.8</ele>
        <time>2020-03-15T08:38:12Z</time>
      </trkpt>
      <trkpt lat="38.2902180" lon="-0.7144310">
        <ele>168.2</ele>
        <time>2020-03-15T08:38:13Z</time>
      </trkpt>
      <trkpt lat="38.2901570" lon="-0.7143920">
        <ele>168.4</ele>
        <time>2020-03-15T08:38:14Z</time>
      </trkpt>
      <trkpt lat="38.2901000" lon="-0.7143450">
        <ele>168.6</ele>
        <time>2020-03-15T08:38:15Z</time>
      </trkpt>
      <trkpt lat="38.2900440" lon="-0.7142990">
        <ele>168.6</ele>
        <time>2020-03-15T08:38:16Z</time>
      </trkpt>
      <trkpt lat="38.2899890" lon="-0.7142490">
        <ele>168.8</ele>
        <time>2020-03-15T08:38:17Z</time>
      </trkpt>
      <trkpt lat="38.2899310" lon="-0.7141910">
        <ele>169.0</ele>
        <time>2020-03-15T08:38:18Z</time>
      </trkpt>
      <trkpt lat="38.2898760" lon="-0.7141340">
        <ele>168.8</ele>
        <time>2020-03-15T08:38:19Z</time>
      </trkpt>
      <trkpt lat="38.2898190" lon="-0.7140740">
        <ele>168.6</ele>
        <time>2020-03-15T08:38:20Z</time>
      </trkpt>
      <trkpt lat="38.2897640" lon="-0.7140110">
        <ele>168.4</ele>
        <time>2020-03-15T08:38:21Z</time>
      </trkpt>
      <trkpt lat="38.2897100" lon="-0.7139420">
        <ele>168.2</ele>
        <time>2020-03-15T08:38:22Z</time>
      </trkpt>
      <trkpt lat="38.2896590" lon="-0.7138680">
        <ele>168.0</ele>
        <time>2020-03-15T08:38:23Z</time>
      </trkpt>
      <trkpt lat="38.2896100" lon="-0.7137880">
        <ele>168.0</ele>
        <time>2020-03-15T08:38:24Z</time>
      </trkpt>
      <trkpt lat="38.2895620" lon="-0.7137070">
        <ele>167.8</ele>
        <time>2020-03-15T08:38:25Z</time>
      </trkpt>
      <trkpt lat="38.2895150" lon="-0.7136220">
        <ele>167.8</ele>
        <time>2020-03-15T08:38:26Z</time>
      </trkpt>
      <trkpt lat="38.2894650" lon="-0.7135370">
        <ele>167.6</ele>
        <time>2020-03-15T08:38:27Z</time>
      </trkpt>
      <trkpt lat="38.2894140" lon="-0.7134520">
        <ele>167.4</ele>
        <time>2020-03-15T08:38:28Z</time>
      </trkpt>
      <trkpt lat="38.2893590" lon="-0.7133680">
        <ele>167.2</ele>
        <time>2020-03-15T08:38:29Z</time>
      </trkpt>
      <trkpt lat="38.2893010" lon="-0.7132860">
        <ele>167.0</ele>
        <time>2020-03-15T08:38:30Z</time>
      </trkpt>
      <trkpt lat="38.2892420" lon="-0.7132060">
        <ele>167.0</ele>
        <time>2020-03-15T08:38:31Z</time>
      </trkpt>
      <trkpt lat="38.2891780" lon="-0.7131300">
        <ele>167.0</ele>
        <time>2020-03-15T08:38:32Z</time>
      </trkpt>
      <trkpt lat="38.2891140" lon="-0.7130610">
        <ele>166.8</ele>
        <time>2020-03-15T08:38:33Z</time>
      </trkpt>
      <trkpt lat="38.2890540" lon="-0.7129920">
        <ele>166.6</ele>
        <time>2020-03-15T08:38:34Z</time>
      </trkpt>
      <trkpt lat="38.2889950" lon="-0.7129290">
        <ele>166.4</ele>
        <time>2020-03-15T08:38:35Z</time>
      </trkpt>
      <trkpt lat="38.2889630" lon="-0.7128700">
        <ele>166.4</ele>
        <time>2020-03-15T08:38:36Z</time>
      </trkpt>
      <trkpt lat="38.2889090" lon="-0.7128030">
        <ele>166.4</ele>
        <time>2020-03-15T08:38:37Z</time>
      </trkpt>
      <trkpt lat="38.2888550" lon="-0.7127370">
        <ele>166.2</ele>
        <time>2020-03-15T08:38:38Z</time>
      </trkpt>
      <trkpt lat="38.2887470" lon="-0.7126040">
        <ele>166.2</ele>
        <time>2020-03-15T08:38:39Z</time>
      </trkpt>
      <trkpt lat="38.2886690" lon="-0.7125240">
        <ele>166.2</ele>
        <time>2020-03-15T08:38:40Z</time>
      </trkpt>
      <trkpt lat="38.2886220" lon="-0.7124190">
        <ele>166.0</ele>
        <time>2020-03-15T08:38:41Z</time>
      </trkpt>
      <trkpt lat="38.2885770" lon="-0.7123110">
        <ele>165.8</ele>
        <time>2020-03-15T08:38:42Z</time>
      </trkpt>
      <trkpt lat="38.2885380" lon="-0.7122040">
        <ele>165.6</ele>
        <time>2020-03-15T08:38:43Z</time>
      </trkpt>
      <trkpt lat="38.2884940" lon="-0.7120970">
        <ele>165.6</ele>
        <time>2020-03-15T08:38:44Z</time>
      </trkpt>
      <trkpt lat="38.2884450" lon="-0.7119880">
        <ele>165.0</ele>
        <time>2020-03-15T08:38:45Z</time>
      </trkpt>
      <trkpt lat="38.2883990" lon="-0.7118880">
        <ele>164.6</ele>
        <time>2020-03-15T08:38:46Z</time>
      </trkpt>
      <trkpt lat="38.2883500" lon="-0.7117900">
        <ele>164.4</ele>
        <time>2020-03-15T08:38:47Z</time>
      </trkpt>
      <trkpt lat="38.2882980" lon="-0.7116940">
        <ele>164.2</ele>
        <time>2020-03-15T08:38:48Z</time>
      </trkpt>
      <trkpt lat="38.2882450" lon="-0.7115980">
        <ele>164.0</ele>
        <time>2020-03-15T08:38:49Z</time>
      </trkpt>
      <trkpt lat="38.2881890" lon="-0.7115020">
        <ele>163.6</ele>
        <time>2020-03-15T08:38:50Z</time>
      </trkpt>
      <trkpt lat="38.2881320" lon="-0.7114100">
        <ele>163.4</ele>
        <time>2020-03-15T08:38:51Z</time>
      </trkpt>
      <trkpt lat="38.2880720" lon="-0.7113170">
        <ele>163.0</ele>
        <time>2020-03-15T08:38:52Z</time>
      </trkpt>
      <trkpt lat="38.2880100" lon="-0.7112240">
        <ele>162.8</ele>
        <time>2020-03-15T08:38:53Z</time>
      </trkpt>
      <trkpt lat="38.2879440" lon="-0.7111290">
        <ele>162.4</ele>
        <time>2020-03-15T08:38:54Z</time>
      </trkpt>
      <trkpt lat="38.2878780" lon="-0.7110380">
        <ele>162.0</ele>
        <time>2020-03-15T08:38:55Z</time>
      </trkpt>
      <trkpt lat="38.2878120" lon="-0.7109450">
        <ele>162.0</ele>
        <time>2020-03-15T08:38:56Z</time>
      </trkpt>
      <trkpt lat="38.2877460" lon="-0.7108560">
        <ele>161.6</ele>
        <time>2020-03-15T08:38:57Z</time>
      </trkpt>
      <trkpt lat="38.2876790" lon="-0.7107690">
        <ele>161.4</ele>
        <time>2020-03-15T08:38:58Z</time>
      </trkpt>
      <trkpt lat="38.2876140" lon="-0.7106810">
        <ele>161.4</ele>
        <time>2020-03-15T08:38:59Z</time>
      </trkpt>
      <trkpt lat="38.2875490" lon="-0.7105910">
        <ele>161.2</ele>
        <time>2020-03-15T08:39:00Z</time>
      </trkpt>
      <trkpt lat="38.2874840" lon="-0.7105020">
        <ele>161.0</ele>
        <time>2020-03-15T08:39:01Z</time>
      </trkpt>
      <trkpt lat="38.2874210" lon="-0.7104140">
        <ele>161.0</ele>
        <time>2020-03-15T08:39:02Z</time>
      </trkpt>
      <trkpt lat="38.2873560" lon="-0.7103270">
        <ele>160.8</ele>
        <time>2020-03-15T08:39:03Z</time>
      </trkpt>
      <trkpt lat="38.2872910" lon="-0.7102430">
        <ele>160.6</ele>
        <time>2020-03-15T08:39:04Z</time>
      </trkpt>
      <trkpt lat="38.2872240" lon="-0.7101630">
        <ele>160.8</ele>
        <time>2020-03-15T08:39:05Z</time>
      </trkpt>
      <trkpt lat="38.2871570" lon="-0.7100860">
        <ele>160.8</ele>
        <time>2020-03-15T08:39:06Z</time>
      </trkpt>
      <trkpt lat="38.2870870" lon="-0.7100150">
        <ele>160.8</ele>
        <time>2020-03-15T08:39:07Z</time>
      </trkpt>
      <trkpt lat="38.2870150" lon="-0.7099490">
        <ele>160.6</ele>
        <time>2020-03-15T08:39:08Z</time>
      </trkpt>
      <trkpt lat="38.2869390" lon="-0.7098920">
        <ele>160.6</ele>
        <time>2020-03-15T08:39:09Z</time>
      </trkpt>
      <trkpt lat="38.2868630" lon="-0.7098400">
        <ele>160.8</ele>
        <time>2020-03-15T08:39:10Z</time>
      </trkpt>
      <trkpt lat="38.2867830" lon="-0.7097970">
        <ele>160.6</ele>
        <time>2020-03-15T08:39:11Z</time>
      </trkpt>
      <trkpt lat="38.2867020" lon="-0.7097590">
        <ele>160.6</ele>
        <time>2020-03-15T08:39:12Z</time>
      </trkpt>
      <trkpt lat="38.2866220" lon="-0.7097250">
        <ele>160.6</ele>
        <time>2020-03-15T08:39:13Z</time>
      </trkpt>
      <trkpt lat="38.2865400" lon="-0.7096940">
        <ele>160.6</ele>
        <time>2020-03-15T08:39:14Z</time>
      </trkpt>
      <trkpt lat="38.2864620" lon="-0.7096600">
        <ele>160.6</ele>
        <time>2020-03-15T08:39:15Z</time>
      </trkpt>
      <trkpt lat="38.2863860" lon="-0.7096260">
        <ele>161.0</ele>
        <time>2020-03-15T08:39:16Z</time>
      </trkpt>
      <trkpt lat="38.2863120" lon="-0.7095940">
        <ele>161.0</ele>
        <time>2020-03-15T08:39:17Z</time>
      </trkpt>
      <trkpt lat="38.2862430" lon="-0.7095620">
        <ele>161.6</ele>
        <time>2020-03-15T08:39:18Z</time>
      </trkpt>
      <trkpt lat="38.2861740" lon="-0.7095320">
        <ele>161.8</ele>
        <time>2020-03-15T08:39:19Z</time>
      </trkpt>
      <trkpt lat="38.2861080" lon="-0.7095010">
        <ele>162.2</ele>
        <time>2020-03-15T08:39:20Z</time>
      </trkpt>
      <trkpt lat="38.2860430" lon="-0.7094690">
        <ele>162.6</ele>
        <time>2020-03-15T08:39:21Z</time>
      </trkpt>
      <trkpt lat="38.2859820" lon="-0.7094370">
        <ele>163.0</ele>
        <time>2020-03-15T08:39:22Z</time>
      </trkpt>
      <trkpt lat="38.2859200" lon="-0.7094060">
        <ele>163.0</ele>
        <time>2020-03-15T08:39:23Z</time>
      </trkpt>
      <trkpt lat="38.2858590" lon="-0.7093760">
        <ele>163.2</ele>
        <time>2020-03-15T08:39:24Z</time>
      </trkpt>
      <trkpt lat="38.2857970" lon="-0.7093450">
        <ele>163.4</ele>
        <time>2020-03-15T08:39:25Z</time>
      </trkpt>
      <trkpt lat="38.2857330" lon="-0.7093120">
        <ele>163.4</ele>
        <time>2020-03-15T08:39:26Z</time>
      </trkpt>
      <trkpt lat="38.2856660" lon="-0.7092810">
        <ele>163.4</ele>
        <time>2020-03-15T08:39:27Z</time>
      </trkpt>
      <trkpt lat="38.2855980" lon="-0.7092480">
        <ele>163.2</ele>
        <time>2020-03-15T08:39:28Z</time>
      </trkpt>
      <trkpt lat="38.2855270" lon="-0.7092150">
        <ele>163.0</ele>
        <time>2020-03-15T08:39:29Z</time>
      </trkpt>
      <trkpt lat="38.2854530" lon="-0.7091830">
        <ele>162.8</ele>
        <time>2020-03-15T08:39:30Z</time>
      </trkpt>
      <trkpt lat="38.2853750" lon="-0.7091510">
        <ele>162.2</ele>
        <time>2020-03-15T08:39:31Z</time>
      </trkpt>
      <trkpt lat="38.2852950" lon="-0.7091210">
        <ele>162.0</ele>
        <time>2020-03-15T08:39:32Z</time>
      </trkpt>
      <trkpt lat="38.2852110" lon="-0.7090920">
        <ele>161.6</ele>
        <time>2020-03-15T08:39:33Z</time>
      </trkpt>
      <trkpt lat="38.2851220" lon="-0.7090620">
        <ele>161.0</ele>
        <time>2020-03-15T08:39:34Z</time>
      </trkpt>
      <trkpt lat="38.2850300" lon="-0.7090330">
        <ele>160.0</ele>
        <time>2020-03-15T08:39:35Z</time>
      </trkpt>
      <trkpt lat="38.2849370" lon="-0.7090080">
        <ele>159.4</ele>
        <time>2020-03-15T08:39:36Z</time>
      </trkpt>
      <trkpt lat="38.2848410" lon="-0.7089910">
        <ele>159.2</ele>
        <time>2020-03-15T08:39:37Z</time>
      </trkpt>
      <trkpt lat="38.2847410" lon="-0.7089800">
        <ele>158.8</ele>
        <time>2020-03-15T08:39:38Z</time>
      </trkpt>
      <trkpt lat="38.2846400" lon="-0.7089750">
        <ele>158.0</ele>
        <time>2020-03-15T08:39:39Z</time>
      </trkpt>
      <trkpt lat="38.2845400" lon="-0.7089730">
        <ele>157.8</ele>
        <time>2020-03-15T08:39:40Z</time>
      </trkpt>
      <trkpt lat="38.2844400" lon="-0.7089750">
        <ele>157.6</ele>
        <time>2020-03-15T08:39:41Z</time>
      </trkpt>
      <trkpt lat="38.2843430" lon="-0.7089800">
        <ele>157.4</ele>
        <time>2020-03-15T08:39:42Z</time>
      </trkpt>
      <trkpt lat="38.2842460" lon="-0.7089820">
        <ele>157.2</ele>
        <time>2020-03-15T08:39:43Z</time>
      </trkpt>
      <trkpt lat="38.2841490" lon="-0.7089770">
        <ele>157.0</ele>
        <time>2020-03-15T08:39:44Z</time>
      </trkpt>
      <trkpt lat="38.2840560" lon="-0.7089570">
        <ele>156.8</ele>
        <time>2020-03-15T08:39:45Z</time>
      </trkpt>
      <trkpt lat="38.2839680" lon="-0.7089190">
        <ele>156.8</ele>
        <time>2020-03-15T08:39:46Z</time>
      </trkpt>
      <trkpt lat="38.2838860" lon="-0.7088640">
        <ele>156.6</ele>
        <time>2020-03-15T08:39:47Z</time>
      </trkpt>
      <trkpt lat="38.2838100" lon="-0.7087980">
        <ele>156.4</ele>
        <time>2020-03-15T08:39:48Z</time>
      </trkpt>
      <trkpt lat="38.2837370" lon="-0.7087260">
        <ele>156.4</ele>
        <time>2020-03-15T08:39:49Z</time>
      </trkpt>
      <trkpt lat="38.2836640" lon="-0.7086500">
        <ele>156.2</ele>
        <time>2020-03-15T08:39:50Z</time>
      </trkpt>
      <trkpt lat="38.2835940" lon="-0.7085710">
        <ele>156.0</ele>
        <time>2020-03-15T08:39:51Z</time>
      </trkpt>
      <trkpt lat="38.2835240" lon="-0.7084900">
        <ele>155.8</ele>
        <time>2020-03-15T08:39:52Z</time>
      </trkpt>
      <trkpt lat="38.2834560" lon="-0.7084080">
        <ele>155.6</ele>
        <time>2020-03-15T08:39:53Z</time>
      </trkpt>
      <trkpt lat="38.2833890" lon="-0.7083250">
        <ele>155.4</ele>
        <time>2020-03-15T08:39:54Z</time>
      </trkpt>
      <trkpt lat="38.2833250" lon="-0.7082400">
        <ele>155.4</ele>
        <time>2020-03-15T08:39:55Z</time>
      </trkpt>
      <trkpt lat="38.2832600" lon="-0.7081570">
        <ele>155.2</ele>
        <time>2020-03-15T08:39:56Z</time>
      </trkpt>
      <trkpt lat="38.2831940" lon="-0.7080720">
        <ele>155.0</ele>
        <time>2020-03-15T08:39:57Z</time>
      </trkpt>
      <trkpt lat="38.2831270" lon="-0.7079880">
        <ele>154.8</ele>
        <time>2020-03-15T08:39:58Z</time>
      </trkpt>
      <trkpt lat="38.2830610" lon="-0.7079060">
        <ele>154.8</ele>
        <time>2020-03-15T08:39:59Z</time>
      </trkpt>
      <trkpt lat="38.2829930" lon="-0.7078270">
        <ele>154.6</ele>
        <time>2020-03-15T08:40:00Z</time>
      </trkpt>
      <trkpt lat="38.2829240" lon="-0.7077530">
        <ele>154.6</ele>
        <time>2020-03-15T08:40:01Z</time>
      </trkpt>
      <trkpt lat="38.2828530" lon="-0.7076810">
        <ele>154.6</ele>
        <time>2020-03-15T08:40:02Z</time>
      </trkpt>
      <trkpt lat="38.2827810" lon="-0.7076110">
        <ele>154.4</ele>
        <time>2020-03-15T08:40:03Z</time>
      </trkpt>
      <trkpt lat="38.2827070" lon="-0.7075420">
        <ele>154.0</ele>
        <time>2020-03-15T08:40:04Z</time>
      </trkpt>
      <trkpt lat="38.2826330" lon="-0.7074750">
        <ele>153.6</ele>
        <time>2020-03-15T08:40:05Z</time>
      </trkpt>
      <trkpt lat="38.2825570" lon="-0.7074100">
        <ele>153.6</ele>
        <time>2020-03-15T08:40:06Z</time>
      </trkpt>
      <trkpt lat="38.2824810" lon="-0.7073440">
        <ele>153.2</ele>
        <time>2020-03-15T08:40:07Z</time>
      </trkpt>
      <trkpt lat="38.2824050" lon="-0.7072780">
        <ele>153.2</ele>
        <time>2020-03-15T08:40:08Z</time>
      </trkpt>
      <trkpt lat="38.2823270" lon="-0.7072140">
        <ele>153.0</ele>
        <time>2020-03-15T08:40:09Z</time>
      </trkpt>
      <trkpt lat="38.2822470" lon="-0.7071550">
        <ele>152.8</ele>
        <time>2020-03-15T08:40:10Z</time>
      </trkpt>
      <trkpt lat="38.2821670" lon="-0.7070990">
        <ele>152.8</ele>
        <time>2020-03-15T08:40:11Z</time>
      </trkpt>
      <trkpt lat="38.2820880" lon="-0.7070410">
        <ele>152.8</ele>
        <time>2020-03-15T08:40:12Z</time>
      </trkpt>
      <trkpt lat="38.2820140" lon="-0.7069770">
        <ele>152.6</ele>
        <time>2020-03-15T08:40:13Z</time>
      </trkpt>
      <trkpt lat="38.2819450" lon="-0.7068980">
        <ele>152.2</ele>
        <time>2020-03-15T08:40:14Z</time>
      </trkpt>
      <trkpt lat="38.2818820" lon="-0.7068030">
        <ele>151.8</ele>
        <time>2020-03-15T08:40:15Z</time>
      </trkpt>
      <trkpt lat="38.2818260" lon="-0.7066970">
        <ele>151.0</ele>
        <time>2020-03-15T08:40:16Z</time>
      </trkpt>
      <trkpt lat="38.2817730" lon="-0.7065840">
        <ele>150.4</ele>
        <time>2020-03-15T08:40:17Z</time>
      </trkpt>
      <trkpt lat="38.2817200" lon="-0.7064710">
        <ele>150.0</ele>
        <time>2020-03-15T08:40:18Z</time>
      </trkpt>
      <trkpt lat="38.2816660" lon="-0.7063580">
        <ele>149.4</ele>
        <time>2020-03-15T08:40:19Z</time>
      </trkpt>
      <trkpt lat="38.2816290" lon="-0.7062740">
        <ele>149.0</ele>
        <time>2020-03-15T08:40:20Z</time>
      </trkpt>
      <trkpt lat="38.2815910" lon="-0.7061900">
        <ele>148.8</ele>
        <time>2020-03-15T08:40:21Z</time>
      </trkpt>
      <trkpt lat="38.2815150" lon="-0.7060220">
        <ele>148.6</ele>
        <time>2020-03-15T08:40:22Z</time>
      </trkpt>
      <trkpt lat="38.2814690" lon="-0.7059120">
        <ele>148.6</ele>
        <time>2020-03-15T08:40:23Z</time>
      </trkpt>
      <trkpt lat="38.2814210" lon="-0.7058070">
        <ele>148.4</ele>
        <time>2020-03-15T08:40:24Z</time>
      </trkpt>
      <trkpt lat="38.2813720" lon="-0.7057070">
        <ele>148.2</ele>
        <time>2020-03-15T08:40:25Z</time>
      </trkpt>
      <trkpt lat="38.2813180" lon="-0.7056150">
        <ele>148.4</ele>
        <time>2020-03-15T08:40:26Z</time>
      </trkpt>
      <trkpt lat="38.2812600" lon="-0.7055290">
        <ele>148.4</ele>
        <time>2020-03-15T08:40:27Z</time>
      </trkpt>
      <trkpt lat="38.2812010" lon="-0.7054510">
        <ele>148.6</ele>
        <time>2020-03-15T08:40:28Z</time>
      </trkpt>
      <trkpt lat="38.2811400" lon="-0.7053770">
        <ele>148.6</ele>
        <time>2020-03-15T08:40:29Z</time>
      </trkpt>
      <trkpt lat="38.2810770" lon="-0.7053090">
        <ele>148.8</ele>
        <time>2020-03-15T08:40:30Z</time>
      </trkpt>
      <trkpt lat="38.2810140" lon="-0.7052490">
        <ele>149.0</ele>
        <time>2020-03-15T08:40:31Z</time>
      </trkpt>
      <trkpt lat="38.2809510" lon="-0.7051980">
        <ele>149.4</ele>
        <time>2020-03-15T08:40:32Z</time>
      </trkpt>
      <trkpt lat="38.2808900" lon="-0.7051510">
        <ele>149.6</ele>
        <time>2020-03-15T08:40:33Z</time>
      </trkpt>
      <trkpt lat="38.2808320" lon="-0.7051070">
        <ele>150.0</ele>
        <time>2020-03-15T08:40:34Z</time>
      </trkpt>
      <trkpt lat="38.2807750" lon="-0.7050650">
        <ele>150.4</ele>
        <time>2020-03-15T08:40:35Z</time>
      </trkpt>
      <trkpt lat="38.2807210" lon="-0.7050240">
        <ele>150.6</ele>
        <time>2020-03-15T08:40:36Z</time>
      </trkpt>
      <trkpt lat="38.2806670" lon="-0.7049850">
        <ele>150.8</ele>
        <time>2020-03-15T08:40:37Z</time>
      </trkpt>
      <trkpt lat="38.2806150" lon="-0.7049460">
        <ele>151.2</ele>
        <time>2020-03-15T08:40:38Z</time>
      </trkpt>
      <trkpt lat="38.2805660" lon="-0.7049080">
        <ele>151.6</ele>
        <time>2020-03-15T08:40:39Z</time>
      </trkpt>
      <trkpt lat="38.2805180" lon="-0.7048700">
        <ele>151.8</ele>
        <time>2020-03-15T08:40:40Z</time>
      </trkpt>
      <trkpt lat="38.2804750" lon="-0.7048310">
        <ele>152.0</ele>
        <time>2020-03-15T08:40:41Z</time>
      </trkpt>
      <trkpt lat="38.2804320" lon="-0.7047940">
        <ele>152.6</ele>
        <time>2020-03-15T08:40:42Z</time>
      </trkpt>
      <trkpt lat="38.2803880" lon="-0.7047610">
        <ele>153.0</ele>
        <time>2020-03-15T08:40:43Z</time>
      </trkpt>
      <trkpt lat="38.2803490" lon="-0.7047250">
        <ele>153.4</ele>
        <time>2020-03-15T08:40:44Z</time>
      </trkpt>
      <trkpt lat="38.2803100" lon="-0.7046900">
        <ele>153.8</ele>
        <time>2020-03-15T08:40:45Z</time>
      </trkpt>
      <trkpt lat="38.2802770" lon="-0.7046520">
        <ele>154.2</ele>
        <time>2020-03-15T08:40:46Z</time>
      </trkpt>
      <trkpt lat="38.2802440" lon="-0.7046070">
        <ele>154.4</ele>
        <time>2020-03-15T08:40:47Z</time>
      </trkpt>
      <trkpt lat="38.2802080" lon="-0.7045590">
        <ele>154.6</ele>
        <time>2020-03-15T08:40:48Z</time>
      </trkpt>
      <trkpt lat="38.2801710" lon="-0.7045050">
        <ele>154.4</ele>
        <time>2020-03-15T08:40:49Z</time>
      </trkpt>
      <trkpt lat="38.2801300" lon="-0.7044450">
        <ele>154.4</ele>
        <time>2020-03-15T08:40:50Z</time>
      </trkpt>
      <trkpt lat="38.2800880" lon="-0.7043830">
        <ele>154.4</ele>
        <time>2020-03-15T08:40:51Z</time>
      </trkpt>
      <trkpt lat="38.2800440" lon="-0.7043190">
        <ele>154.6</ele>
        <time>2020-03-15T08:40:52Z</time>
      </trkpt>
      <trkpt lat="38.2799960" lon="-0.7042550">
        <ele>154.2</ele>
        <time>2020-03-15T08:40:53Z</time>
      </trkpt>
      <trkpt lat="38.2799440" lon="-0.7041890">
        <ele>153.8</ele>
        <time>2020-03-15T08:40:54Z</time>
      </trkpt>
      <trkpt lat="38.2798880" lon="-0.7041250">
        <ele>153.8</ele>
        <time>2020-03-15T08:40:55Z</time>
      </trkpt>
      <trkpt lat="38.2798270" lon="-0.7040640">
        <ele>153.4</ele>
        <time>2020-03-15T08:40:56Z</time>
      </trkpt>
      <trkpt lat="38.2797670" lon="-0.7040060">
        <ele>153.0</ele>
        <time>2020-03-15T08:40:57Z</time>
      </trkpt>
      <trkpt lat="38.2797030" lon="-0.7039580">
        <ele>152.8</ele>
        <time>2020-03-15T08:40:58Z</time>
      </trkpt>
      <trkpt lat="38.2796340" lon="-0.7039190">
        <ele>152.8</ele>
        <time>2020-03-15T08:40:59Z</time>
      </trkpt>
      <trkpt lat="38.2795630" lon="-0.7039030">
        <ele>152.6</ele>
        <time>2020-03-15T08:41:00Z</time>
      </trkpt>
      <trkpt lat="38.2794940" lon="-0.7039220">
        <ele>152.8</ele>
        <time>2020-03-15T08:41:01Z</time>
      </trkpt>
      <trkpt lat="38.2794330" lon="-0.7039670">
        <ele>153.0</ele>
        <time>2020-03-15T08:41:02Z</time>
      </trkpt>
      <trkpt lat="38.2793780" lon="-0.7040150">
        <ele>153.2</ele>
        <time>2020-03-15T08:41:03Z</time>
      </trkpt>
      <trkpt lat="38.2793190" lon="-0.7040520">
        <ele>153.6</ele>
        <time>2020-03-15T08:41:04Z</time>
      </trkpt>
      <trkpt lat="38.2792580" lon="-0.7040710">
        <ele>153.8</ele>
        <time>2020-03-15T08:41:05Z</time>
      </trkpt>
      <trkpt lat="38.2791970" lon="-0.7040720">
        <ele>154.0</ele>
        <time>2020-03-15T08:41:06Z</time>
      </trkpt>
      <trkpt lat="38.2791360" lon="-0.7040530">
        <ele>154.0</ele>
        <time>2020-03-15T08:41:07Z</time>
      </trkpt>
      <trkpt lat="38.2790810" lon="-0.7040170">
        <ele>154.0</ele>
        <time>2020-03-15T08:41:08Z</time>
      </trkpt>
      <trkpt lat="38.2790310" lon="-0.7039630">
        <ele>154.0</ele>
        <time>2020-03-15T08:41:09Z</time>
      </trkpt>
      <trkpt lat="38.2789920" lon="-0.7038930">
        <ele>153.8</ele>
        <time>2020-03-15T08:41:10Z</time>
      </trkpt>
      <trkpt lat="38.2789680" lon="-0.7038100">
        <ele>153.6</ele>
        <time>2020-03-15T08:41:11Z</time>
      </trkpt>
      <trkpt lat="38.2789680" lon="-0.7037140">
        <ele>153.2</ele>
        <time>2020-03-15T08:41:12Z</time>
      </trkpt>
      <trkpt lat="38.2789810" lon="-0.7036220">
        <ele>153.0</ele>
        <time>2020-03-15T08:41:13Z</time>
      </trkpt>
      <trkpt lat="38.2790080" lon="-0.7035580">
        <ele>152.8</ele>
        <time>2020-03-15T08:41:14Z</time>
      </trkpt>
      <trkpt lat="38.2790340" lon="-0.7034930">
        <ele>152.4</ele>
        <time>2020-03-15T08:41:15Z</time>
      </trkpt>
      <trkpt lat="38.2790870" lon="-0.7033640">
        <ele>152.2</ele>
        <time>2020-03-15T08:41:16Z</time>
      </trkpt>
      <trkpt lat="38.2791330" lon="-0.7032790">
        <ele>152.0</ele>
        <time>2020-03-15T08:41:17Z</time>
      </trkpt>
      <trkpt lat="38.2791750" lon="-0.7031940">
        <ele>151.8</ele>
        <time>2020-03-15T08:41:18Z</time>
      </trkpt>
      <trkpt lat="38.2792070" lon="-0.7031000">
        <ele>151.6</ele>
        <time>2020-03-15T08:41:19Z</time>
      </trkpt>
      <trkpt lat="38.2792240" lon="-0.7030000">
        <ele>151.2</ele>
        <time>2020-03-15T08:41:20Z</time>
      </trkpt>
      <trkpt lat="38.2792350" lon="-0.7029000">
        <ele>151.2</ele>
        <time>2020-03-15T08:41:21Z</time>
      </trkpt>
      <trkpt lat="38.2792430" lon="-0.7028010">
        <ele>151.0</ele>
        <time>2020-03-15T08:41:22Z</time>
      </trkpt>
      <trkpt lat="38.2792500" lon="-0.7027010">
        <ele>150.8</ele>
        <time>2020-03-15T08:41:23Z</time>
      </trkpt>
      <trkpt lat="38.2792560" lon="-0.7025990">
        <ele>150.6</ele>
        <time>2020-03-15T08:41:24Z</time>
      </trkpt>
      <trkpt lat="38.2792620" lon="-0.7025210">
        <ele>150.2</ele>
        <time>2020-03-15T08:41:25Z</time>
      </trkpt>
      <trkpt lat="38.2792670" lon="-0.7024430">
        <ele>150.2</ele>
        <time>2020-03-15T08:41:26Z</time>
      </trkpt>
      <trkpt lat="38.2792770" lon="-0.7022860">
        <ele>149.8</ele>
        <time>2020-03-15T08:41:27Z</time>
      </trkpt>
      <trkpt lat="38.2792850" lon="-0.7021790">
        <ele>149.6</ele>
        <time>2020-03-15T08:41:28Z</time>
      </trkpt>
      <trkpt lat="38.2792940" lon="-0.7020710">
        <ele>149.2</ele>
        <time>2020-03-15T08:41:29Z</time>
      </trkpt>
      <trkpt lat="38.2793040" lon="-0.7019620">
        <ele>148.8</ele>
        <time>2020-03-15T08:41:30Z</time>
      </trkpt>
      <trkpt lat="38.2793150" lon="-0.7018510">
        <ele>148.6</ele>
        <time>2020-03-15T08:41:31Z</time>
      </trkpt>
      <trkpt lat="38.2793240" lon="-0.7017380">
        <ele>148.2</ele>
        <time>2020-03-15T08:41:32Z</time>
      </trkpt>
      <trkpt lat="38.2793350" lon="-0.7016250">
        <ele>148.0</ele>
        <time>2020-03-15T08:41:33Z</time>
      </trkpt>
      <trkpt lat="38.2793440" lon="-0.7015130">
        <ele>147.6</ele>
        <time>2020-03-15T08:41:34Z</time>
      </trkpt>
      <trkpt lat="38.2793530" lon="-0.7013990">
        <ele>147.2</ele>
        <time>2020-03-15T08:41:35Z</time>
      </trkpt>
      <trkpt lat="38.2793630" lon="-0.7012830">
        <ele>146.8</ele>
        <time>2020-03-15T08:41:36Z</time>
      </trkpt>
      <trkpt lat="38.2793710" lon="-0.7011670">
        <ele>146.4</ele>
        <time>2020-03-15T08:41:37Z</time>
      </trkpt>
      <trkpt lat="38.2793810" lon="-0.7010500">
        <ele>146.0</ele>
        <time>2020-03-15T08:41:38Z</time>
      </trkpt>
      <trkpt lat="38.2793910" lon="-0.7009310">
        <ele>145.6</ele>
        <time>2020-03-15T08:41:39Z</time>
      </trkpt>
      <trkpt lat="38.2794020" lon="-0.7008140">
        <ele>145.4</ele>
        <time>2020-03-15T08:41:40Z</time>
      </trkpt>
      <trkpt lat="38.2794180" lon="-0.7006970">
        <ele>145.2</ele>
        <time>2020-03-15T08:41:41Z</time>
      </trkpt>
      <trkpt lat="38.2794370" lon="-0.7005820">
        <ele>145.0</ele>
        <time>2020-03-15T08:41:42Z</time>
      </trkpt>
      <trkpt lat="38.2794560" lon="-0.7004660">
        <ele>144.8</ele>
        <time>2020-03-15T08:41:43Z</time>
      </trkpt>
      <trkpt lat="38.2794730" lon="-0.7003490">
        <ele>144.4</ele>
        <time>2020-03-15T08:41:44Z</time>
      </trkpt>
      <trkpt lat="38.2794870" lon="-0.7002310">
        <ele>144.0</ele>
        <time>2020-03-15T08:41:45Z</time>
      </trkpt>
      <trkpt lat="38.2794980" lon="-0.7001110">
        <ele>143.8</ele>
        <time>2020-03-15T08:41:46Z</time>
      </trkpt>
      <trkpt lat="38.2795050" lon="-0.6999910">
        <ele>143.6</ele>
        <time>2020-03-15T08:41:47Z</time>
      </trkpt>
      <trkpt lat="38.2795040" lon="-0.6998710">
        <ele>143.4</ele>
        <time>2020-03-15T08:41:48Z</time>
      </trkpt>
      <trkpt lat="38.2795020" lon="-0.6997510">
        <ele>143.0</ele>
        <time>2020-03-15T08:41:49Z</time>
      </trkpt>
      <trkpt lat="38.2795060" lon="-0.6996310">
        <ele>142.8</ele>
        <time>2020-03-15T08:41:50Z</time>
      </trkpt>
      <trkpt lat="38.2795150" lon="-0.6995120">
        <ele>142.8</ele>
        <time>2020-03-15T08:41:51Z</time>
      </trkpt>
      <trkpt lat="38.2795260" lon="-0.6993940">
        <ele>142.8</ele>
        <time>2020-03-15T08:41:52Z</time>
      </trkpt>
      <trkpt lat="38.2795330" lon="-0.6992750">
        <ele>142.4</ele>
        <time>2020-03-15T08:41:53Z</time>
      </trkpt>
      <trkpt lat="38.2795410" lon="-0.6991580">
        <ele>142.4</ele>
        <time>2020-03-15T08:41:54Z</time>
      </trkpt>
      <trkpt lat="38.2795510" lon="-0.6990420">
        <ele>142.4</ele>
        <time>2020-03-15T08:41:55Z</time>
      </trkpt>
      <trkpt lat="38.2795610" lon="-0.6989300">
        <ele>142.6</ele>
        <time>2020-03-15T08:41:56Z</time>
      </trkpt>
      <trkpt lat="38.2795690" lon="-0.6988190">
        <ele>142.6</ele>
        <time>2020-03-15T08:41:57Z</time>
      </trkpt>
      <trkpt lat="38.2795770" lon="-0.6987120">
        <ele>142.6</ele>
        <time>2020-03-15T08:41:58Z</time>
      </trkpt>
      <trkpt lat="38.2795840" lon="-0.6986070">
        <ele>142.6</ele>
        <time>2020-03-15T08:41:59Z</time>
      </trkpt>
      <trkpt lat="38.2795880" lon="-0.6985010">
        <ele>142.4</ele>
        <time>2020-03-15T08:42:00Z</time>
      </trkpt>
      <trkpt lat="38.2795950" lon="-0.6983990">
        <ele>142.6</ele>
        <time>2020-03-15T08:42:01Z</time>
      </trkpt>
      <trkpt lat="38.2796010" lon="-0.6982990">
        <ele>142.6</ele>
        <time>2020-03-15T08:42:02Z</time>
      </trkpt>
      <trkpt lat="38.2796060" lon="-0.6981990">
        <ele>142.8</ele>
        <time>2020-03-15T08:42:03Z</time>
      </trkpt>
      <trkpt lat="38.2796090" lon="-0.6981000">
        <ele>142.6</ele>
        <time>2020-03-15T08:42:04Z</time>
      </trkpt>
      <trkpt lat="38.2796130" lon="-0.6980020">
        <ele>142.6</ele>
        <time>2020-03-15T08:42:05Z</time>
      </trkpt>
      <trkpt lat="38.2796190" lon="-0.6979040">
        <ele>142.8</ele>
        <time>2020-03-15T08:42:06Z</time>
      </trkpt>
      <trkpt lat="38.2796240" lon="-0.6978110">
        <ele>143.0</ele>
        <time>2020-03-15T08:42:07Z</time>
      </trkpt>
      <trkpt lat="38.2796270" lon="-0.6977390">
        <ele>143.0</ele>
        <time>2020-03-15T08:42:08Z</time>
      </trkpt>
      <trkpt lat="38.2796280" lon="-0.6976920">
        <ele>142.6</ele>
        <time>2020-03-15T08:42:09Z</time>
      </trkpt>
      <trkpt lat="38.2796280" lon="-0.6976640">
        <ele>142.6</ele>
        <time>2020-03-15T08:42:10Z</time>
      </trkpt>
      <trkpt lat="38.2796650" lon="-0.6975610">
        <ele>142.6</ele>
        <time>2020-03-15T08:42:55Z</time>
      </trkpt>
      <trkpt lat="38.2796690" lon="-0.6975240">
        <ele>142.6</ele>
        <time>2020-03-15T08:42:56Z</time>
      </trkpt>
      <trkpt lat="38.2796710" lon="-0.6974820">
        <ele>142.6</ele>
        <time>2020-03-15T08:42:57Z</time>
      </trkpt>
      <trkpt lat="38.2796720" lon="-0.6974310">
        <ele>142.6</ele>
        <time>2020-03-15T08:42:58Z</time>
      </trkpt>
      <trkpt lat="38.2796760" lon="-0.6973760">
        <ele>142.6</ele>
        <time>2020-03-15T08:42:59Z</time>
      </trkpt>
      <trkpt lat="38.2796790" lon="-0.6973190">
        <ele>142.8</ele>
        <time>2020-03-15T08:43:00Z</time>
      </trkpt>
      <trkpt lat="38.2796840" lon="-0.6972520">
        <ele>142.8</ele>
        <time>2020-03-15T08:43:01Z</time>
      </trkpt>
      <trkpt lat="38.2796860" lon="-0.6971790">
        <ele>143.0</ele>
        <time>2020-03-15T08:43:02Z</time>
      </trkpt>
      <trkpt lat="38.2796830" lon="-0.6971010">
        <ele>143.0</ele>
        <time>2020-03-15T08:43:03Z</time>
      </trkpt>
      <trkpt lat="38.2796690" lon="-0.6970200">
        <ele>142.6</ele>
        <time>2020-03-15T08:43:04Z</time>
      </trkpt>
      <trkpt lat="38.2796360" lon="-0.6969430">
        <ele>142.6</ele>
        <time>2020-03-15T08:43:05Z</time>
      </trkpt>
      <trkpt lat="38.2795820" lon="-0.6968790">
        <ele>142.4</ele>
        <time>2020-03-15T08:43:06Z</time>
      </trkpt>
      <trkpt lat="38.2795170" lon="-0.6968340">
        <ele>142.6</ele>
        <time>2020-03-15T08:43:07Z</time>
      </trkpt>
      <trkpt lat="38.2794430" lon="-0.6968050">
        <ele>142.6</ele>
        <time>2020-03-15T08:43:08Z</time>
      </trkpt>
      <trkpt lat="38.2793640" lon="-0.6967910">
        <ele>142.6</ele>
        <time>2020-03-15T08:43:09Z</time>
      </trkpt>
      <trkpt lat="38.2792840" lon="-0.6967830">
        <ele>142.2</ele>
        <time>2020-03-15T08:43:10Z</time>
      </trkpt>
      <trkpt lat="38.2792010" lon="-0.6967730">
        <ele>142.2</ele>
        <time>2020-03-15T08:43:11Z</time>
      </trkpt>
      <trkpt lat="38.2791180" lon="-0.6967590">
        <ele>141.8</ele>
        <time>2020-03-15T08:43:12Z</time>
      </trkpt>
      <trkpt lat="38.2790370" lon="-0.6967370">
        <ele>141.6</ele>
        <time>2020-03-15T08:43:13Z</time>
      </trkpt>
      <trkpt lat="38.2789530" lon="-0.6967140">
        <ele>141.4</ele>
        <time>2020-03-15T08:43:14Z</time>
      </trkpt>
      <trkpt lat="38.2788690" lon="-0.6966890">
        <ele>141.0</ele>
        <time>2020-03-15T08:43:15Z</time>
      </trkpt>
      <trkpt lat="38.2787850" lon="-0.6966640">
        <ele>141.0</ele>
        <time>2020-03-15T08:43:16Z</time>
      </trkpt>
      <trkpt lat="38.2787000" lon="-0.6966390">
        <ele>140.6</ele>
        <time>2020-03-15T08:43:17Z</time>
      </trkpt>
      <trkpt lat="38.2786150" lon="-0.6966140">
        <ele>140.4</ele>
        <time>2020-03-15T08:43:18Z</time>
      </trkpt>
      <trkpt lat="38.2785280" lon="-0.6965890">
        <ele>140.2</ele>
        <time>2020-03-15T08:43:19Z</time>
      </trkpt>
      <trkpt lat="38.2784440" lon="-0.6965620">
        <ele>140.0</ele>
        <time>2020-03-15T08:43:20Z</time>
      </trkpt>
      <trkpt lat="38.2783520" lon="-0.6965370">
        <ele>139.8</ele>
        <time>2020-03-15T08:43:21Z</time>
      </trkpt>
      <trkpt lat="38.2782700" lon="-0.6965070">
        <ele>139.6</ele>
        <time>2020-03-15T08:43:22Z</time>
      </trkpt>
      <trkpt lat="38.2781890" lon="-0.6964780">
        <ele>139.4</ele>
        <time>2020-03-15T08:43:23Z</time>
      </trkpt>
      <trkpt lat="38.2781090" lon="-0.6964490">
        <ele>139.6</ele>
        <time>2020-03-15T08:43:24Z</time>
      </trkpt>
      <trkpt lat="38.2780280" lon="-0.6964150">
        <ele>139.4</ele>
        <time>2020-03-15T08:43:25Z</time>
      </trkpt>
      <trkpt lat="38.2779500" lon="-0.6963850">
        <ele>139.4</ele>
        <time>2020-03-15T08:43:26Z</time>
      </trkpt>
      <trkpt lat="38.2778710" lon="-0.6963560">
        <ele>139.4</ele>
        <time>2020-03-15T08:43:27Z</time>
      </trkpt>
      <trkpt lat="38.2777890" lon="-0.6963220">
        <ele>139.4</ele>
        <time>2020-03-15T08:43:28Z</time>
      </trkpt>
      <trkpt lat="38.2777050" lon="-0.6962930">
        <ele>139.0</ele>
        <time>2020-03-15T08:43:29Z</time>
      </trkpt>
      <trkpt lat="38.2776180" lon="-0.6962740">
        <ele>138.6</ele>
        <time>2020-03-15T08:43:30Z</time>
      </trkpt>
      <trkpt lat="38.2775310" lon="-0.6962600">
        <ele>138.4</ele>
        <time>2020-03-15T08:43:31Z</time>
      </trkpt>
      <trkpt lat="38.2774420" lon="-0.6962520">
        <ele>138.2</ele>
        <time>2020-03-15T08:43:32Z</time>
      </trkpt>
      <trkpt lat="38.2773540" lon="-0.6962490">
        <ele>138.2</ele>
        <time>2020-03-15T08:43:33Z</time>
      </trkpt>
      <trkpt lat="38.2772640" lon="-0.6962490">
        <ele>138.2</ele>
        <time>2020-03-15T08:43:34Z</time>
      </trkpt>
      <trkpt lat="38.2771730" lon="-0.6962460">
        <ele>138.2</ele>
        <time>2020-03-15T08:43:35Z</time>
      </trkpt>
      <trkpt lat="38.2770850" lon="-0.6962440">
        <ele>138.0</ele>
        <time>2020-03-15T08:43:36Z</time>
      </trkpt>
      <trkpt lat="38.2769970" lon="-0.6962430">
        <ele>138.0</ele>
        <time>2020-03-15T08:43:37Z</time>
      </trkpt>
      <trkpt lat="38.2769090" lon="-0.6962430">
        <ele>138.0</ele>
        <time>2020-03-15T08:43:38Z</time>
      </trkpt>
      <trkpt lat="38.2768200" lon="-0.6962520">
        <ele>137.8</ele>
        <time>2020-03-15T08:43:39Z</time>
      </trkpt>
      <trkpt lat="38.2767330" lon="-0.6962780">
        <ele>137.8</ele>
        <time>2020-03-15T08:43:40Z</time>
      </trkpt>
      <trkpt lat="38.2766480" lon="-0.6963100">
        <ele>137.8</ele>
        <time>2020-03-15T08:43:41Z</time>
      </trkpt>
      <trkpt lat="38.2765610" lon="-0.6963480">
        <ele>137.8</ele>
        <time>2020-03-15T08:43:42Z</time>
      </trkpt>
      <trkpt lat="38.2764750" lon="-0.6963810">
        <ele>137.6</ele>
        <time>2020-03-15T08:43:43Z</time>
      </trkpt>
      <trkpt lat="38.2763880" lon="-0.6964080">
        <ele>137.6</ele>
        <time>2020-03-15T08:43:44Z</time>
      </trkpt>
      <trkpt lat="38.2762980" lon="-0.6964310">
        <ele>137.6</ele>
        <time>2020-03-15T08:43:45Z</time>
      </trkpt>
      <trkpt lat="38.2762100" lon="-0.6964550">
        <ele>137.6</ele>
        <time>2020-03-15T08:43:46Z</time>
      </trkpt>
      <trkpt lat="38.2761210" lon="-0.6964770">
        <ele>137.4</ele>
        <time>2020-03-15T08:43:47Z</time>
      </trkpt>
      <trkpt lat="38.2760310" lon="-0.6964910">
        <ele>137.2</ele>
        <time>2020-03-15T08:43:48Z</time>
      </trkpt>
      <trkpt lat="38.2759430" lon="-0.6964930">
        <ele>137.2</ele>
        <time>2020-03-15T08:43:49Z</time>
      </trkpt>
      <trkpt lat="38.2758540" lon="-0.6964820">
        <ele>137.0</ele>
        <time>2020-03-15T08:43:50Z</time>
      </trkpt>
      <trkpt lat="38.2757690" lon="-0.6964590">
        <ele>137.0</ele>
        <time>2020-03-15T08:43:51Z</time>
      </trkpt>
      <trkpt lat="38.2756850" lon="-0.6964270">
        <ele>136.8</ele>
        <time>2020-03-15T08:43:52Z</time>
      </trkpt>
      <trkpt lat="38.2756040" lon="-0.6963840">
        <ele>136.8</ele>
        <time>2020-03-15T08:43:53Z</time>
      </trkpt>
      <trkpt lat="38.2755220" lon="-0.6963340">
        <ele>136.8</ele>
        <time>2020-03-15T08:43:54Z</time>
      </trkpt>
      <trkpt lat="38.2754410" lon="-0.6962880">
        <ele>136.8</ele>
        <time>2020-03-15T08:43:55Z</time>
      </trkpt>
      <trkpt lat="38.2753630" lon="-0.6962400">
        <ele>136.6</ele>
        <time>2020-03-15T08:43:56Z</time>
      </trkpt>
      <trkpt lat="38.2752860" lon="-0.6961920">
        <ele>136.6</ele>
        <time>2020-03-15T08:43:57Z</time>
      </trkpt>
      <trkpt lat="38.2752090" lon="-0.6961420">
        <ele>136.4</ele>
        <time>2020-03-15T08:43:58Z</time>
      </trkpt>
      <trkpt lat="38.2751330" lon="-0.6960850">
        <ele>136.4</ele>
        <time>2020-03-15T08:43:59Z</time>
      </trkpt>
      <trkpt lat="38.2750590" lon="-0.6960240">
        <ele>136.2</ele>
        <time>2020-03-15T08:44:00Z</time>
      </trkpt>
      <trkpt lat="38.2749850" lon="-0.6959600">
        <ele>136.2</ele>
        <time>2020-03-15T08:44:01Z</time>
      </trkpt>
      <trkpt lat="38.2749120" lon="-0.6958980">
        <ele>136.2</ele>
        <time>2020-03-15T08:44:02Z</time>
      </trkpt>
      <trkpt lat="38.2748380" lon="-0.6958360">
        <ele>136.0</ele>
        <time>2020-03-15T08:44:03Z</time>
      </trkpt>
      <trkpt lat="38.2747670" lon="-0.6957730">
        <ele>135.8</ele>
        <time>2020-03-15T08:44:04Z</time>
      </trkpt>
      <trkpt lat="38.2746960" lon="-0.6957070">
        <ele>135.8</ele>
        <time>2020-03-15T08:44:05Z</time>
      </trkpt>
      <trkpt lat="38.2746250" lon="-0.6956430">
        <ele>135.6</ele>
        <time>2020-03-15T08:44:06Z</time>
      </trkpt>
      <trkpt lat="38.2745480" lon="-0.6955700">
        <ele>135.4</ele>
        <time>2020-03-15T08:44:07Z</time>
      </trkpt>
      <trkpt lat="38.2744750" lon="-0.6955020">
        <ele>135.4</ele>
        <time>2020-03-15T08:44:08Z</time>
      </trkpt>
      <trkpt lat="38.2744020" lon="-0.6954360">
        <ele>135.2</ele>
        <time>2020-03-15T08:44:09Z</time>
      </trkpt>
      <trkpt lat="38.2743270" lon="-0.6953750">
        <ele>135.2</ele>
        <time>2020-03-15T08:44:10Z</time>
      </trkpt>
      <trkpt lat="38.2742470" lon="-0.6953240">
        <ele>135.0</ele>
        <time>2020-03-15T08:44:11Z</time>
      </trkpt>
      <trkpt lat="38.2741630" lon="-0.6952860">
        <ele>134.8</ele>
        <time>2020-03-15T08:44:12Z</time>
      </trkpt>
      <trkpt lat="38.2740760" lon="-0.6952700">
        <ele>134.8</ele>
        <time>2020-03-15T08:44:13Z</time>
      </trkpt>
      <trkpt lat="38.2739850" lon="-0.6952630">
        <ele>134.6</ele>
        <time>2020-03-15T08:44:14Z</time>
      </trkpt>
      <trkpt lat="38.2738950" lon="-0.6952520">
        <ele>134.6</ele>
        <time>2020-03-15T08:44:15Z</time>
      </trkpt>
      <trkpt lat="38.2738060" lon="-0.6952360">
        <ele>134.4</ele>
        <time>2020-03-15T08:44:16Z</time>
      </trkpt>
      <trkpt lat="38.2737190" lon="-0.6952150">
        <ele>134.4</ele>
        <time>2020-03-15T08:44:17Z</time>
      </trkpt>
      <trkpt lat="38.2736330" lon="-0.6951870">
        <ele>134.6</ele>
        <time>2020-03-15T08:44:18Z</time>
      </trkpt>
      <trkpt lat="38.2735480" lon="-0.6951550">
        <ele>134.4</ele>
        <time>2020-03-15T08:44:19Z</time>
      </trkpt>
      <trkpt lat="38.2734650" lon="-0.6951230">
        <ele>134.4</ele>
        <time>2020-03-15T08:44:20Z</time>
      </trkpt>
      <trkpt lat="38.2733800" lon="-0.6950890">
        <ele>134.4</ele>
        <time>2020-03-15T08:44:21Z</time>
      </trkpt>
      <trkpt lat="38.2732940" lon="-0.6950610">
        <ele>134.4</ele>
        <time>2020-03-15T08:44:22Z</time>
      </trkpt>
      <trkpt lat="38.2732100" lon="-0.6950390">
        <ele>134.4</ele>
        <time>2020-03-15T08:44:23Z</time>
      </trkpt>
      <trkpt lat="38.2731250" lon="-0.6950190">
        <ele>134.2</ele>
        <time>2020-03-15T08:44:24Z</time>
      </trkpt>
      <trkpt lat="38.2730380" lon="-0.6949970">
        <ele>134.2</ele>
        <time>2020-03-15T08:44:25Z</time>
      </trkpt>
      <trkpt lat="38.2729520" lon="-0.6949760">
        <ele>134.2</ele>
        <time>2020-03-15T08:44:26Z</time>
      </trkpt>
      <trkpt lat="38.2728690" lon="-0.6949550">
        <ele>134.0</ele>
        <time>2020-03-15T08:44:27Z</time>
      </trkpt>
      <trkpt lat="38.2727870" lon="-0.6949390">
        <ele>133.8</ele>
        <time>2020-03-15T08:44:28Z</time>
      </trkpt>
      <trkpt lat="38.2727050" lon="-0.6949230">
        <ele>133.8</ele>
        <time>2020-03-15T08:44:29Z</time>
      </trkpt>
      <trkpt lat="38.2726250" lon="-0.6949030">
        <ele>133.6</ele>
        <time>2020-03-15T08:44:30Z</time>
      </trkpt>
      <trkpt lat="38.2725480" lon="-0.6948870">
        <ele>133.6</ele>
        <time>2020-03-15T08:44:31Z</time>
      </trkpt>
      <trkpt lat="38.2724670" lon="-0.6948950">
        <ele>133.2</ele>
        <time>2020-03-15T08:44:32Z</time>
      </trkpt>
      <trkpt lat="38.2723860" lon="-0.6949170">
        <ele>133.0</ele>
        <time>2020-03-15T08:44:33Z</time>
      </trkpt>
      <trkpt lat="38.2723020" lon="-0.6949170">
        <ele>132.8</ele>
        <time>2020-03-15T08:44:34Z</time>
      </trkpt>
      <trkpt lat="38.2722240" lon="-0.6948850">
        <ele>132.8</ele>
        <time>2020-03-15T08:44:35Z</time>
      </trkpt>
      <trkpt lat="38.2721610" lon="-0.6948170">
        <ele>132.8</ele>
        <time>2020-03-15T08:44:36Z</time>
      </trkpt>
      <trkpt lat="38.2721220" lon="-0.6947190">
        <ele>132.4</ele>
        <time>2020-03-15T08:44:37Z</time>
      </trkpt>
      <trkpt lat="38.2721110" lon="-0.6946180">
        <ele>132.2</ele>
        <time>2020-03-15T08:44:38Z</time>
      </trkpt>
      <trkpt lat="38.2721260" lon="-0.6945190">
        <ele>132.2</ele>
        <time>2020-03-15T08:44:39Z</time>
      </trkpt>
      <trkpt lat="38.2721590" lon="-0.6944270">
        <ele>132.2</ele>
        <time>2020-03-15T08:44:40Z</time>
      </trkpt>
      <trkpt lat="38.2721980" lon="-0.6943380">
        <ele>132.0</ele>
        <time>2020-03-15T08:44:41Z</time>
      </trkpt>
      <trkpt lat="38.2722330" lon="-0.6942490">
        <ele>132.2</ele>
        <time>2020-03-15T08:44:42Z</time>
      </trkpt>
      <trkpt lat="38.2722570" lon="-0.6941520">
        <ele>132.2</ele>
        <time>2020-03-15T08:44:43Z</time>
      </trkpt>
      <trkpt lat="38.2722770" lon="-0.6940560">
        <ele>132.2</ele>
        <time>2020-03-15T08:44:44Z</time>
      </trkpt>
      <trkpt lat="38.2722930" lon="-0.6939590">
        <ele>132.4</ele>
        <time>2020-03-15T08:44:45Z</time>
      </trkpt>
      <trkpt lat="38.2723100" lon="-0.6938640">
        <ele>132.4</ele>
        <time>2020-03-15T08:44:46Z</time>
      </trkpt>
      <trkpt lat="38.2723260" lon="-0.6937670">
        <ele>132.4</ele>
        <time>2020-03-15T08:44:47Z</time>
      </trkpt>
      <trkpt lat="38.2723420" lon="-0.6936710">
        <ele>132.4</ele>
        <time>2020-03-15T08:44:48Z</time>
      </trkpt>
      <trkpt lat="38.2723600" lon="-0.6935760">
        <ele>132.4</ele>
        <time>2020-03-15T08:44:49Z</time>
      </trkpt>
      <trkpt lat="38.2723710" lon="-0.6934750">
        <ele>132.4</ele>
        <time>2020-03-15T08:44:50Z</time>
      </trkpt>
      <trkpt lat="38.2723850" lon="-0.6933780">
        <ele>132.4</ele>
        <time>2020-03-15T08:44:51Z</time>
      </trkpt>
      <trkpt lat="38.2724040" lon="-0.6932830">
        <ele>132.4</ele>
        <time>2020-03-15T08:44:52Z</time>
      </trkpt>
      <trkpt lat="38.2724200" lon="-0.6931870">
        <ele>132.4</ele>
        <time>2020-03-15T08:44:53Z</time>
      </trkpt>
      <trkpt lat="38.2724340" lon="-0.6930930">
        <ele>132.4</ele>
        <time>2020-03-15T08:44:54Z</time>
      </trkpt>
      <trkpt lat="38.2724480" lon="-0.6930010">
        <ele>132.4</ele>
        <time>2020-03-15T08:44:55Z</time>
      </trkpt>
      <trkpt lat="38.2724640" lon="-0.6929060">
        <ele>132.4</ele>
        <time>2020-03-15T08:44:56Z</time>
      </trkpt>
      <trkpt lat="38.2724790" lon="-0.6928120">
        <ele>132.2</ele>
        <time>2020-03-15T08:44:57Z</time>
      </trkpt>
      <trkpt lat="38.2724960" lon="-0.6927210">
        <ele>132.4</ele>
        <time>2020-03-15T08:44:58Z</time>
      </trkpt>
      <trkpt lat="38.2725120" lon="-0.6926280">
        <ele>132.4</ele>
        <time>2020-03-15T08:44:59Z</time>
      </trkpt>
      <trkpt lat="38.2725260" lon="-0.6925330">
        <ele>132.4</ele>
        <time>2020-03-15T08:45:00Z</time>
      </trkpt>
      <trkpt lat="38.2725430" lon="-0.6924390">
        <ele>132.2</ele>
        <time>2020-03-15T08:45:01Z</time>
      </trkpt>
      <trkpt lat="38.2725580" lon="-0.6923440">
        <ele>132.4</ele>
        <time>2020-03-15T08:45:02Z</time>
      </trkpt>
      <trkpt lat="38.2725730" lon="-0.6922500">
        <ele>132.6</ele>
        <time>2020-03-15T08:45:03Z</time>
      </trkpt>
      <trkpt lat="38.2725890" lon="-0.6921560">
        <ele>132.4</ele>
        <time>2020-03-15T08:45:04Z</time>
      </trkpt>
      <trkpt lat="38.2726030" lon="-0.6920620">
        <ele>132.4</ele>
        <time>2020-03-15T08:45:05Z</time>
      </trkpt>
      <trkpt lat="38.2726200" lon="-0.6919700">
        <ele>132.4</ele>
        <time>2020-03-15T08:45:06Z</time>
      </trkpt>
      <trkpt lat="38.2726310" lon="-0.6918760">
        <ele>132.4</ele>
        <time>2020-03-15T08:45:07Z</time>
      </trkpt>
      <trkpt lat="38.2726420" lon="-0.6917810">
        <ele>132.4</ele>
        <time>2020-03-15T08:45:08Z</time>
      </trkpt>
      <trkpt lat="38.2726570" lon="-0.6916880">
        <ele>132.2</ele>
        <time>2020-03-15T08:45:09Z</time>
      </trkpt>
      <trkpt lat="38.2726740" lon="-0.6915950">
        <ele>132.4</ele>
        <time>2020-03-15T08:45:10Z</time>
      </trkpt>
      <trkpt lat="38.2726910" lon="-0.6915030">
        <ele>132.2</ele>
        <time>2020-03-15T08:45:11Z</time>
      </trkpt>
      <trkpt lat="38.2727090" lon="-0.6914120">
        <ele>132.0</ele>
        <time>2020-03-15T08:45:12Z</time>
      </trkpt>
      <trkpt lat="38.2727230" lon="-0.6913200">
        <ele>132.0</ele>
        <time>2020-03-15T08:45:13Z</time>
      </trkpt>
      <trkpt lat="38.2727380" lon="-0.6912280">
        <ele>132.2</ele>
        <time>2020-03-15T08:45:14Z</time>
      </trkpt>
      <trkpt lat="38.2727570" lon="-0.6911390">
        <ele>132.2</ele>
        <time>2020-03-15T08:45:15Z</time>
      </trkpt>
      <trkpt lat="38.2727700" lon="-0.6910480">
        <ele>132.0</ele>
        <time>2020-03-15T08:45:16Z</time>
      </trkpt>
      <trkpt lat="38.2727840" lon="-0.6909560">
        <ele>132.2</ele>
        <time>2020-03-15T08:45:17Z</time>
      </trkpt>
      <trkpt lat="38.2727800" lon="-0.6908680">
        <ele>132.2</ele>
        <time>2020-03-15T08:45:18Z</time>
      </trkpt>
      <trkpt lat="38.2727730" lon="-0.6907760">
        <ele>132.2</ele>
        <time>2020-03-15T08:45:19Z</time>
      </trkpt>
      <trkpt lat="38.2727560" lon="-0.6906850">
        <ele>132.2</ele>
        <time>2020-03-15T08:45:20Z</time>
      </trkpt>
      <trkpt lat="38.2727470" lon="-0.6905920">
        <ele>132.2</ele>
        <time>2020-03-15T08:45:21Z</time>
      </trkpt>
      <trkpt lat="38.2727560" lon="-0.6904990">
        <ele>132.0</ele>
        <time>2020-03-15T08:45:22Z</time>
      </trkpt>
      <trkpt lat="38.2727860" lon="-0.6904140">
        <ele>132.0</ele>
        <time>2020-03-15T08:45:23Z</time>
      </trkpt>
      <trkpt lat="38.2728250" lon="-0.6903350">
        <ele>132.0</ele>
        <time>2020-03-15T08:45:24Z</time>
      </trkpt>
      <trkpt lat="38.2728660" lon="-0.6902570">
        <ele>132.0</ele>
        <time>2020-03-15T08:45:25Z</time>
      </trkpt>
      <trkpt lat="38.2728910" lon="-0.6901720">
        <ele>131.8</ele>
        <time>2020-03-15T08:45:26Z</time>
      </trkpt>
      <trkpt lat="38.2728890" lon="-0.6900790">
        <ele>132.0</ele>
        <time>2020-03-15T08:45:27Z</time>
      </trkpt>
      <trkpt lat="38.2728690" lon="-0.6899910">
        <ele>132.0</ele>
        <time>2020-03-15T08:45:28Z</time>
      </trkpt>
      <trkpt lat="38.2728570" lon="-0.6899010">
        <ele>132.0</ele>
        <time>2020-03-15T08:45:29Z</time>
      </trkpt>
      <trkpt lat="38.2728600" lon="-0.6898090">
        <ele>131.8</ele>
        <time>2020-03-15T08:45:30Z</time>
      </trkpt>
      <trkpt lat="38.2728720" lon="-0.6897150">
        <ele>131.8</ele>
        <time>2020-03-15T08:45:31Z</time>
      </trkpt>
      <trkpt lat="38.2728850" lon="-0.6896220">
        <ele>131.8</ele>
        <time>2020-03-15T08:45:32Z</time>
      </trkpt>
      <trkpt lat="38.2729010" lon="-0.6895290">
        <ele>131.6</ele>
        <time>2020-03-15T08:45:33Z</time>
      </trkpt>
      <trkpt lat="38.2729150" lon="-0.6894360">
        <ele>131.4</ele>
        <time>2020-03-15T08:45:34Z</time>
      </trkpt>
      <trkpt lat="38.2729300" lon="-0.6893420">
        <ele>131.4</ele>
        <time>2020-03-15T08:45:35Z</time>
      </trkpt>
      <trkpt lat="38.2729450" lon="-0.6892460">
        <ele>131.4</ele>
        <time>2020-03-15T08:45:36Z</time>
      </trkpt>
      <trkpt lat="38.2729630" lon="-0.6891510">
        <ele>131.4</ele>
        <time>2020-03-15T08:45:37Z</time>
      </trkpt>
      <trkpt lat="38.2729790" lon="-0.6890550">
        <ele>131.4</ele>
        <time>2020-03-15T08:45:38Z</time>
      </trkpt>
      <trkpt lat="38.2729960" lon="-0.6889600">
        <ele>131.2</ele>
        <time>2020-03-15T08:45:39Z</time>
      </trkpt>
      <trkpt lat="38.2730150" lon="-0.6888650">
        <ele>131.2</ele>
        <time>2020-03-15T08:45:40Z</time>
      </trkpt>
      <trkpt lat="38.2730340" lon="-0.6887680">
        <ele>130.8</ele>
        <time>2020-03-15T08:45:41Z</time>
      </trkpt>
      <trkpt lat="38.2730450" lon="-0.6886710">
        <ele>130.8</ele>
        <time>2020-03-15T08:45:42Z</time>
      </trkpt>
      <trkpt lat="38.2730620" lon="-0.6885750">
        <ele>130.6</ele>
        <time>2020-03-15T08:45:43Z</time>
      </trkpt>
      <trkpt lat="38.2730790" lon="-0.6884780">
        <ele>130.6</ele>
        <time>2020-03-15T08:45:44Z</time>
      </trkpt>
      <trkpt lat="38.2730940" lon="-0.6883790">
        <ele>130.8</ele>
        <time>2020-03-15T08:45:45Z</time>
      </trkpt>
      <trkpt lat="38.2731120" lon="-0.6882830">
        <ele>130.4</ele>
        <time>2020-03-15T08:45:46Z</time>
      </trkpt>
      <trkpt lat="38.2731290" lon="-0.6881860">
        <ele>130.4</ele>
        <time>2020-03-15T08:45:47Z</time>
      </trkpt>
      <trkpt lat="38.2731460" lon="-0.6880880">
        <ele>130.4</ele>
        <time>2020-03-15T08:45:48Z</time>
      </trkpt>
      <trkpt lat="38.2731640" lon="-0.6879910">
        <ele>130.4</ele>
        <time>2020-03-15T08:45:49Z</time>
      </trkpt>
      <trkpt lat="38.2731810" lon="-0.6878920">
        <ele>130.6</ele>
        <time>2020-03-15T08:45:50Z</time>
      </trkpt>
      <trkpt lat="38.2731920" lon="-0.6877930">
        <ele>130.6</ele>
        <time>2020-03-15T08:45:51Z</time>
      </trkpt>
      <trkpt lat="38.2732050" lon="-0.6876930">
        <ele>130.4</ele>
        <time>2020-03-15T08:45:52Z</time>
      </trkpt>
      <trkpt lat="38.2732170" lon="-0.6875920">
        <ele>130.4</ele>
        <time>2020-03-15T08:45:53Z</time>
      </trkpt>
      <trkpt lat="38.2732310" lon="-0.6874920">
        <ele>130.2</ele>
        <time>2020-03-15T08:45:54Z</time>
      </trkpt>
      <trkpt lat="38.2732490" lon="-0.6873930">
        <ele>130.0</ele>
        <time>2020-03-15T08:45:55Z</time>
      </trkpt>
      <trkpt lat="38.2732670" lon="-0.6872950">
        <ele>130.4</ele>
        <time>2020-03-15T08:45:56Z</time>
      </trkpt>
      <trkpt lat="38.2732840" lon="-0.6871980">
        <ele>130.2</ele>
        <time>2020-03-15T08:45:57Z</time>
      </trkpt>
      <trkpt lat="38.2733040" lon="-0.6871020">
        <ele>130.0</ele>
        <time>2020-03-15T08:45:58Z</time>
      </trkpt>
      <trkpt lat="38.2733230" lon="-0.6870040">
        <ele>129.8</ele>
        <time>2020-03-15T08:45:59Z</time>
      </trkpt>
      <trkpt lat="38.2733390" lon="-0.6869070">
        <ele>129.8</ele>
        <time>2020-03-15T08:46:00Z</time>
      </trkpt>
      <trkpt lat="38.2733530" lon="-0.6868100">
        <ele>129.8</ele>
        <time>2020-03-15T08:46:01Z</time>
      </trkpt>
      <trkpt lat="38.2733780" lon="-0.6867180">
        <ele>129.8</ele>
        <time>2020-03-15T08:46:02Z</time>
      </trkpt>
      <trkpt lat="38.2733950" lon="-0.6866250">
        <ele>129.8</ele>
        <time>2020-03-15T08:46:03Z</time>
      </trkpt>
      <trkpt lat="38.2734070" lon="-0.6865320">
        <ele>130.0</ele>
        <time>2020-03-15T08:46:04Z</time>
      </trkpt>
      <trkpt lat="38.2734200" lon="-0.6864400">
        <ele>129.8</ele>
        <time>2020-03-15T08:46:05Z</time>
      </trkpt>
      <trkpt lat="38.2734420" lon="-0.6863590">
        <ele>129.8</ele>
        <time>2020-03-15T08:46:06Z</time>
      </trkpt>
      <trkpt lat="38.2734520" lon="-0.6862750">
        <ele>129.8</ele>
        <time>2020-03-15T08:46:07Z</time>
      </trkpt>
      <trkpt lat="38.2734720" lon="-0.6861850">
        <ele>130.0</ele>
        <time>2020-03-15T08:46:08Z</time>
      </trkpt>
      <trkpt lat="38.2734850" lon="-0.6860940">
        <ele>130.4</ele>
        <time>2020-03-15T08:46:09Z</time>
      </trkpt>
      <trkpt lat="38.2734950" lon="-0.6860030">
        <ele>130.2</ele>
        <time>2020-03-15T08:46:10Z</time>
      </trkpt>
      <trkpt lat="38.2735210" lon="-0.6859150">
        <ele>130.2</ele>
        <time>2020-03-15T08:46:11Z</time>
      </trkpt>
      <trkpt lat="38.2735470" lon="-0.6858290">
        <ele>130.2</ele>
        <time>2020-03-15T08:46:12Z</time>
      </trkpt>
      <trkpt lat="38.2735680" lon="-0.6857410">
        <ele>130.2</ele>
        <time>2020-03-15T08:46:13Z</time>
      </trkpt>
      <trkpt lat="38.2735830" lon="-0.6856520">
        <ele>130.2</ele>
        <time>2020-03-15T08:46:14Z</time>
      </trkpt>
      <trkpt lat="38.2735950" lon="-0.6855630">
        <ele>130.2</ele>
        <time>2020-03-15T08:46:15Z</time>
      </trkpt>
      <trkpt lat="38.2736090" lon="-0.6854740">
        <ele>130.0</ele>
        <time>2020-03-15T08:46:16Z</time>
      </trkpt>
      <trkpt lat="38.2736190" lon="-0.6853850">
        <ele>130.2</ele>
        <time>2020-03-15T08:46:17Z</time>
      </trkpt>
      <trkpt lat="38.2736290" lon="-0.6852960">
        <ele>130.0</ele>
        <time>2020-03-15T08:46:18Z</time>
      </trkpt>
      <trkpt lat="38.2736350" lon="-0.6852090">
        <ele>130.0</ele>
        <time>2020-03-15T08:46:19Z</time>
      </trkpt>
      <trkpt lat="38.2736460" lon="-0.6851220">
        <ele>130.2</ele>
        <time>2020-03-15T08:46:20Z</time>
      </trkpt>
      <trkpt lat="38.2736670" lon="-0.6850390">
        <ele>130.2</ele>
        <time>2020-03-15T08:46:21Z</time>
      </trkpt>
      <trkpt lat="38.2736770" lon="-0.6849510">
        <ele>130.2</ele>
        <time>2020-03-15T08:46:22Z</time>
      </trkpt>
      <trkpt lat="38.2736920" lon="-0.6848680">
        <ele>130.0</ele>
        <time>2020-03-15T08:46:23Z</time>
      </trkpt>
      <trkpt lat="38.2737140" lon="-0.6847840">
        <ele>130.0</ele>
        <time>2020-03-15T08:46:24Z</time>
      </trkpt>
      <trkpt lat="38.2737240" lon="-0.6846980">
        <ele>130.0</ele>
        <time>2020-03-15T08:46:25Z</time>
      </trkpt>
      <trkpt lat="38.2737370" lon="-0.6846120">
        <ele>130.2</ele>
        <time>2020-03-15T08:46:26Z</time>
      </trkpt>
      <trkpt lat="38.2737520" lon="-0.6845250">
        <ele>130.2</ele>
        <time>2020-03-15T08:46:27Z</time>
      </trkpt>
      <trkpt lat="38.2737680" lon="-0.6844410">
        <ele>130.2</ele>
        <time>2020-03-15T08:46:28Z</time>
      </trkpt>
      <trkpt lat="38.2737810" lon="-0.6843560">
        <ele>130.2</ele>
        <time>2020-03-15T08:46:29Z</time>
      </trkpt>
      <trkpt lat="38.2737940" lon="-0.6842710">
        <ele>130.2</ele>
        <time>2020-03-15T08:46:30Z</time>
      </trkpt>
      <trkpt lat="38.2738060" lon="-0.6841850">
        <ele>130.0</ele>
        <time>2020-03-15T08:46:31Z</time>
      </trkpt>
      <trkpt lat="38.2738140" lon="-0.6841030">
        <ele>130.0</ele>
        <time>2020-03-15T08:46:32Z</time>
      </trkpt>
      <trkpt lat="38.2738270" lon="-0.6840350">
        <ele>130.0</ele>
        <time>2020-03-15T08:46:33Z</time>
      </trkpt>
      <trkpt lat="38.2738420" lon="-0.6839800">
        <ele>130.0</ele>
        <time>2020-03-15T08:46:34Z</time>
      </trkpt>
      <trkpt lat="38.2738530" lon="-0.6839250">
        <ele>130.2</ele>
        <time>2020-03-15T08:46:35Z</time>
      </trkpt>
      <trkpt lat="38.2738560" lon="-0.6838870">
        <ele>130.0</ele>
        <time>2020-03-15T08:46:36Z</time>
      </trkpt>
      <trkpt lat="38.2739830" lon="-0.6828930">
        <ele>87.0</ele>
        <time>2018-03-05T13:11:36Z</time>
      </trkpt>
      <trkpt lat="38.2739860" lon="-0.6828680">
        <ele>87.0</ele>
        <time>2018-03-05T13:11:37Z</time>
      </trkpt>
      <trkpt lat="38.2739890" lon="-0.6828420">
        <ele>87.0</ele>
        <time>2018-03-05T13:11:38Z</time>
      </trkpt>
      <trkpt lat="38.2739980" lon="-0.6827930">
        <ele>88.0</ele>
        <time>2018-03-05T13:11:39Z</time>
      </trkpt>
      <trkpt lat="38.2740090" lon="-0.6827350">
        <ele>87.0</ele>
        <time>2018-03-05T13:11:40Z</time>
      </trkpt>
      <trkpt lat="38.2740170" lon="-0.6826760">
        <ele>88.0</ele>
        <time>2018-03-05T13:11:41Z</time>
      </trkpt>
      <trkpt lat="38.2740280" lon="-0.6826110">
        <ele>87.0</ele>
        <time>2018-03-05T13:11:42Z</time>
      </trkpt>
      <trkpt lat="38.2740390" lon="-0.6825480">
        <ele>87.0</ele>
        <time>2018-03-05T13:11:43Z</time>
      </trkpt>
      <trkpt lat="38.2740500" lon="-0.6824850">
        <ele>87.0</ele>
        <time>2018-03-05T13:11:44Z</time>
      </trkpt>
      <trkpt lat="38.2740620" lon="-0.6824210">
        <ele>88.0</ele>
        <time>2018-03-05T13:11:45Z</time>
      </trkpt>
      <trkpt lat="38.2740740" lon="-0.6823490">
        <ele>88.0</ele>
        <time>2018-03-05T13:11:46Z</time>
      </trkpt>
      <trkpt lat="38.2740860" lon="-0.6822820">
        <ele>88.0</ele>
        <time>2018-03-05T13:11:47Z</time>
      </trkpt>
      <trkpt lat="38.2740960" lon="-0.6822100">
        <ele>88.0</ele>
        <time>2018-03-05T13:11:48Z</time>
      </trkpt>
      <trkpt lat="38.2741070" lon="-0.6821370">
        <ele>88.0</ele>
        <time>2018-03-05T13:11:49Z</time>
      </trkpt>
      <trkpt lat="38.2741170" lon="-0.6820650">
        <ele>88.0</ele>
        <time>2018-03-05T13:11:50Z</time>
      </trkpt>
      <trkpt lat="38.2741250" lon="-0.6819960">
        <ele>87.0</ele>
        <time>2018-03-05T13:11:51Z</time>
      </trkpt>
      <trkpt lat="38.2741340" lon="-0.6819280">
        <ele>87.0</ele>
        <time>2018-03-05T13:11:52Z</time>
      </trkpt>
      <trkpt lat="38.2741420" lon="-0.6818580">
        <ele>87.0</ele>
        <time>2018-03-05T13:11:53Z</time>
      </trkpt>
      <trkpt lat="38.2741600" lon="-0.6817720">
        <ele>87.0</ele>
        <time>2018-03-05T13:11:54Z</time>
      </trkpt>
      <trkpt lat="38.2741680" lon="-0.6816990">
        <ele>86.0</ele>
        <time>2018-03-05T13:11:55Z</time>
      </trkpt>
      <trkpt lat="38.2741800" lon="-0.6816210">
        <ele>86.0</ele>
        <time>2018-03-05T13:11:56Z</time>
      </trkpt>
      <trkpt lat="38.2741870" lon="-0.6815460">
        <ele>85.0</ele>
        <time>2018-03-05T13:11:57Z</time>
      </trkpt>
      <trkpt lat="38.2742000" lon="-0.6814650">
        <ele>85.0</ele>
        <time>2018-03-05T13:11:58Z</time>
      </trkpt>
      <trkpt lat="38.2742070" lon="-0.6813900">
        <ele>84.0</ele>
        <time>2018-03-05T13:11:59Z</time>
      </trkpt>
      <trkpt lat="38.2742140" lon="-0.6813210">
        <ele>83.0</ele>
        <time>2018-03-05T13:12:00Z</time>
      </trkpt>
      <trkpt lat="38.2742200" lon="-0.6812500">
        <ele>82.0</ele>
        <time>2018-03-05T13:12:01Z</time>
      </trkpt>
      <trkpt lat="38.2742260" lon="-0.6811800">
        <ele>82.0</ele>
        <time>2018-03-05T13:12:02Z</time>
      </trkpt>
      <trkpt lat="38.2742280" lon="-0.6811130">
        <ele>80.0</ele>
        <time>2018-03-05T13:12:03Z</time>
      </trkpt>
      <trkpt lat="38.2742340" lon="-0.6810460">
        <ele>80.0</ele>
        <time>2018-03-05T13:12:04Z</time>
      </trkpt>
      <trkpt lat="38.2742370" lon="-0.6809850">
        <ele>78.0</ele>
        <time>2018-03-05T13:12:05Z</time>
      </trkpt>
      <trkpt lat="38.2742420" lon="-0.6809290">
        <ele>77.0</ele>
        <time>2018-03-05T13:12:06Z</time>
      </trkpt>
      <trkpt lat="38.2742510" lon="-0.6808800">
        <ele>78.0</ele>
        <time>2018-03-05T13:12:07Z</time>
      </trkpt>
      <trkpt lat="38.2742570" lon="-0.6808380">
        <ele>79.0</ele>
        <time>2018-03-05T13:12:08Z</time>
      </trkpt>
      <trkpt lat="38.2742990" lon="-0.6805920">
        <ele>85.0</ele>
        <time>2018-03-05T13:12:09Z</time>
      </trkpt>
      <trkpt lat="38.2743400" lon="-0.6803450">
        <ele>84.0</ele>
        <time>2018-03-05T13:12:10Z</time>
      </trkpt>
      <trkpt lat="38.2743350" lon="-0.6802930">
        <ele>84.0</ele>
        <time>2018-03-05T13:12:11Z</time>
      </trkpt>
      <trkpt lat="38.2743270" lon="-0.6802400">
        <ele>84.0</ele>
        <time>2018-03-05T13:12:12Z</time>
      </trkpt>
      <trkpt lat="38.2743250" lon="-0.6801810">
        <ele>83.0</ele>
        <time>2018-03-05T13:12:13Z</time>
      </trkpt>
      <trkpt lat="38.2743300" lon="-0.6801220">
        <ele>83.0</ele>
        <time>2018-03-05T13:12:14Z</time>
      </trkpt>
      <trkpt lat="38.2743450" lon="-0.6800600">
        <ele>84.0</ele>
        <time>2018-03-05T13:12:15Z</time>
      </trkpt>
      <trkpt lat="38.2743710" lon="-0.6800030">
        <ele>85.0</ele>
        <time>2018-03-05T13:12:16Z</time>
      </trkpt>
      <trkpt lat="38.2744020" lon="-0.6799520">
        <ele>87.0</ele>
        <time>2018-03-05T13:12:17Z</time>
      </trkpt>
      <trkpt lat="38.2744430" lon="-0.6799090">
        <ele>87.0</ele>
        <time>2018-03-05T13:12:18Z</time>
      </trkpt>
      <trkpt lat="38.2745050" lon="-0.6798670">
        <ele>89.0</ele>
        <time>2018-03-05T13:12:19Z</time>
      </trkpt>
      <trkpt lat="38.2745570" lon="-0.6798510">
        <ele>89.0</ele>
        <time>2018-03-05T13:12:20Z</time>
      </trkpt>
      <trkpt lat="38.2746130" lon="-0.6798490">
        <ele>89.0</ele>
        <time>2018-03-05T13:12:21Z</time>
      </trkpt>
      <trkpt lat="38.2746670" lon="-0.6798610">
        <ele>90.0</ele>
        <time>2018-03-05T13:12:22Z</time>
      </trkpt>
      <trkpt lat="38.2747190" lon="-0.6798870">
        <ele>90.0</ele>
        <time>2018-03-05T13:12:23Z</time>
      </trkpt>
      <trkpt lat="38.2747630" lon="-0.6799260">
        <ele>90.0</ele>
        <time>2018-03-05T13:12:24Z</time>
      </trkpt>
      <trkpt lat="38.2747980" lon="-0.6799760">
        <ele>90.0</ele>
        <time>2018-03-05T13:12:25Z</time>
      </trkpt>
      <trkpt lat="38.2748340" lon="-0.6800280">
        <ele>90.0</ele>
        <time>2018-03-05T13:12:26Z</time>
      </trkpt>
      <trkpt lat="38.2748680" lon="-0.6800820">
        <ele>90.0</ele>
        <time>2018-03-05T13:12:27Z</time>
      </trkpt>
      <trkpt lat="38.2749040" lon="-0.6801350">
        <ele>90.0</ele>
        <time>2018-03-05T13:12:28Z</time>
      </trkpt>
      <trkpt lat="38.2749410" lon="-0.6801880">
        <ele>90.0</ele>
        <time>2018-03-05T13:12:29Z</time>
      </trkpt>
      <trkpt lat="38.2749880" lon="-0.6802220">
        <ele>91.0</ele>
        <time>2018-03-05T13:12:30Z</time>
      </trkpt>
      <trkpt lat="38.2750320" lon="-0.6802620">
        <ele>91.0</ele>
        <time>2018-03-05T13:12:31Z</time>
      </trkpt>
      <trkpt lat="38.2750820" lon="-0.6802990">
        <ele>92.0</ele>
        <time>2018-03-05T13:12:32Z</time>
      </trkpt>
      <trkpt lat="38.2751580" lon="-0.6802810">
        <ele>90.0</ele>
        <time>2018-03-05T13:12:33Z</time>
      </trkpt>
      <trkpt lat="38.2752130" lon="-0.6803040">
        <ele>91.0</ele>
        <time>2018-03-05T13:12:34Z</time>
      </trkpt>
      <trkpt lat="38.2752660" lon="-0.6803270">
        <ele>91.0</ele>
        <time>2018-03-05T13:12:35Z</time>
      </trkpt>
      <trkpt lat="38.2753190" lon="-0.6803540">
        <ele>91.0</ele>
        <time>2018-03-05T13:12:36Z</time>
      </trkpt>
      <trkpt lat="38.2753750" lon="-0.6803780">
        <ele>91.0</ele>
        <time>2018-03-05T13:12:37Z</time>
      </trkpt>
      <trkpt lat="38.2754390" lon="-0.6803940">
        <ele>91.0</ele>
        <time>2018-03-05T13:12:38Z</time>
      </trkpt>
      <trkpt lat="38.2754970" lon="-0.6804130">
        <ele>92.0</ele>
        <time>2018-03-05T13:12:39Z</time>
      </trkpt>
      <trkpt lat="38.2755540" lon="-0.6804350">
        <ele>92.0</ele>
        <time>2018-03-05T13:12:40Z</time>
      </trkpt>
      <trkpt lat="38.2756100" lon="-0.6804590">
        <ele>92.0</ele>
        <time>2018-03-05T13:12:41Z</time>
      </trkpt>
      <trkpt lat="38.2756680" lon="-0.6804790">
        <ele>92.0</ele>
        <time>2018-03-05T13:12:42Z</time>
      </trkpt>
      <trkpt lat="38.2757230" lon="-0.6804990">
        <ele>92.0</ele>
        <time>2018-03-05T13:12:43Z</time>
      </trkpt>
      <trkpt lat="38.2757780" lon="-0.6805180">
        <ele>92.0</ele>
        <time>2018-03-05T13:12:44Z</time>
      </trkpt>
      <trkpt lat="38.2758320" lon="-0.6805380">
        <ele>92.0</ele>
        <time>2018-03-05T13:12:45Z</time>
      </trkpt>
      <trkpt lat="38.2758830" lon="-0.6805610">
        <ele>92.0</ele>
        <time>2018-03-05T13:12:46Z</time>
      </trkpt>
      <trkpt lat="38.2759300" lon="-0.6805950">
        <ele>92.0</ele>
        <time>2018-03-05T13:12:47Z</time>
      </trkpt>
      <trkpt lat="38.2759780" lon="-0.6806210">
        <ele>92.0</ele>
        <time>2018-03-05T13:12:48Z</time>
      </trkpt>
      <trkpt lat="38.2760280" lon="-0.6806350">
        <ele>92.0</ele>
        <time>2018-03-05T13:12:49Z</time>
      </trkpt>
      <trkpt lat="38.2760750" lon="-0.6806540">
        <ele>92.0</ele>
        <time>2018-03-05T13:12:50Z</time>
      </trkpt>
      <trkpt lat="38.2761120" lon="-0.6806740">
        <ele>92.0</ele>
        <time>2018-03-05T13:12:51Z</time>
      </trkpt>
      <trkpt lat="38.2761510" lon="-0.6806800">
        <ele>92.0</ele>
        <time>2018-03-05T13:12:52Z</time>
      </trkpt>
      <trkpt lat="38.2761940" lon="-0.6806910">
        <ele>92.0</ele>
        <time>2018-03-05T13:12:53Z</time>
      </trkpt>
      <trkpt lat="38.2762400" lon="-0.6807050">
        <ele>92.0</ele>
        <time>2018-03-05T13:12:54Z</time>
      </trkpt>
      <trkpt lat="38.2762880" lon="-0.6807230">
        <ele>91.0</ele>
        <time>2018-03-05T13:12:55Z</time>
      </trkpt>
      <trkpt lat="38.2763440" lon="-0.6807420">
        <ele>91.0</ele>
        <time>2018-03-05T13:12:56Z</time>
      </trkpt>
      <trkpt lat="38.2764010" lon="-0.6807630">
        <ele>92.0</ele>
        <time>2018-03-05T13:12:57Z</time>
      </trkpt>
      <trkpt lat="38.2764600" lon="-0.6807870">
        <ele>92.0</ele>
        <time>2018-03-05T13:12:58Z</time>
      </trkpt>
      <trkpt lat="38.2765200" lon="-0.6808100">
        <ele>92.0</ele>
        <time>2018-03-05T13:12:59Z</time>
      </trkpt>
      <trkpt lat="38.2765820" lon="-0.6808310">
        <ele>92.0</ele>
        <time>2018-03-05T13:13:00Z</time>
      </trkpt>
      <trkpt lat="38.2766440" lon="-0.6808520">
        <ele>92.0</ele>
        <time>2018-03-05T13:13:01Z</time>
      </trkpt>
      <trkpt lat="38.2767040" lon="-0.6808740">
        <ele>92.0</ele>
        <time>2018-03-05T13:13:02Z</time>
      </trkpt>
      <trkpt lat="38.2767660" lon="-0.6808970">
        <ele>92.0</ele>
        <time>2018-03-05T13:13:03Z</time>
      </trkpt>
      <trkpt lat="38.2768260" lon="-0.6809210">
        <ele>93.0</ele>
        <time>2018-03-05T13:13:04Z</time>
      </trkpt>
      <trkpt lat="38.2768860" lon="-0.6809430">
        <ele>93.0</ele>
        <time>2018-03-05T13:13:05Z</time>
      </trkpt>
      <trkpt lat="38.2769460" lon="-0.6809660">
        <ele>93.0</ele>
        <time>2018-03-05T13:13:06Z</time>
      </trkpt>
      <trkpt lat="38.2770060" lon="-0.6809900">
        <ele>93.0</ele>
        <time>2018-03-05T13:13:07Z</time>
      </trkpt>
      <trkpt lat="38.2770660" lon="-0.6810130">
        <ele>93.0</ele>
        <time>2018-03-05T13:13:08Z</time>
      </trkpt>
      <trkpt lat="38.2771260" lon="-0.6810370">
        <ele>93.0</ele>
        <time>2018-03-05T13:13:09Z</time>
      </trkpt>
      <trkpt lat="38.2771840" lon="-0.6810600">
        <ele>93.0</ele>
        <time>2018-03-05T13:13:10Z</time>
      </trkpt>
      <trkpt lat="38.2772430" lon="-0.6810830">
        <ele>93.0</ele>
        <time>2018-03-05T13:13:11Z</time>
      </trkpt>
      <trkpt lat="38.2772990" lon="-0.6811060">
        <ele>93.0</ele>
        <time>2018-03-05T13:13:12Z</time>
      </trkpt>
      <trkpt lat="38.2773540" lon="-0.6811290">
        <ele>93.0</ele>
        <time>2018-03-05T13:13:13Z</time>
      </trkpt>
      <trkpt lat="38.2774080" lon="-0.6811450">
        <ele>93.0</ele>
        <time>2018-03-05T13:13:14Z</time>
      </trkpt>
      <trkpt lat="38.2774660" lon="-0.6811390">
        <ele>93.0</ele>
        <time>2018-03-05T13:13:15Z</time>
      </trkpt>
      <trkpt lat="38.2775190" lon="-0.6811100">
        <ele>94.0</ele>
        <time>2018-03-05T13:13:16Z</time>
      </trkpt>
      <trkpt lat="38.2775660" lon="-0.6810690">
        <ele>94.0</ele>
        <time>2018-03-05T13:13:17Z</time>
      </trkpt>
      <trkpt lat="38.2776230" lon="-0.6810290">
        <ele>94.0</ele>
        <time>2018-03-05T13:13:18Z</time>
      </trkpt>
      <trkpt lat="38.2776790" lon="-0.6809970">
        <ele>94.0</ele>
        <time>2018-03-05T13:13:19Z</time>
      </trkpt>
      <trkpt lat="38.2777330" lon="-0.6809600">
        <ele>94.0</ele>
        <time>2018-03-05T13:13:20Z</time>
      </trkpt>
      <trkpt lat="38.2777790" lon="-0.6809110">
        <ele>94.0</ele>
        <time>2018-03-05T13:13:21Z</time>
      </trkpt>
      <trkpt lat="38.2778060" lon="-0.6808560">
        <ele>94.0</ele>
        <time>2018-03-05T13:13:22Z</time>
      </trkpt>
      <trkpt lat="38.2778250" lon="-0.6807800">
        <ele>94.0</ele>
        <time>2018-03-05T13:13:23Z</time>
      </trkpt>
      <trkpt lat="38.2778380" lon="-0.6807010">
        <ele>93.0</ele>
        <time>2018-03-05T13:13:24Z</time>
      </trkpt>
      <trkpt lat="38.2778550" lon="-0.6806200">
        <ele>93.0</ele>
        <time>2018-03-05T13:13:25Z</time>
      </trkpt>
      <trkpt lat="38.2778690" lon="-0.6805400">
        <ele>94.0</ele>
        <time>2018-03-05T13:13:26Z</time>
      </trkpt>
      <trkpt lat="38.2778810" lon="-0.6804590">
        <ele>94.0</ele>
        <time>2018-03-05T13:13:27Z</time>
      </trkpt>
      <trkpt lat="38.2778940" lon="-0.6803790">
        <ele>94.0</ele>
        <time>2018-03-05T13:13:28Z</time>
      </trkpt>
      <trkpt lat="38.2779090" lon="-0.6802990">
        <ele>94.0</ele>
        <time>2018-03-05T13:13:29Z</time>
      </trkpt>
      <trkpt lat="38.2779230" lon="-0.6802200">
        <ele>94.0</ele>
        <time>2018-03-05T13:13:30Z</time>
      </trkpt>
      <trkpt lat="38.2779370" lon="-0.6801400">
        <ele>95.0</ele>
        <time>2018-03-05T13:13:31Z</time>
      </trkpt>
      <trkpt lat="38.2779510" lon="-0.6800600">
        <ele>95.0</ele>
        <time>2018-03-05T13:13:32Z</time>
      </trkpt>
      <trkpt lat="38.2779640" lon="-0.6799800">
        <ele>95.0</ele>
        <time>2018-03-05T13:13:33Z</time>
      </trkpt>
      <trkpt lat="38.2779780" lon="-0.6799010">
        <ele>95.0</ele>
        <time>2018-03-05T13:13:34Z</time>
      </trkpt>
      <trkpt lat="38.2779910" lon="-0.6798200">
        <ele>95.0</ele>
        <time>2018-03-05T13:13:35Z</time>
      </trkpt>
      <trkpt lat="38.2780050" lon="-0.6797410">
        <ele>95.0</ele>
        <time>2018-03-05T13:13:36Z</time>
      </trkpt>
      <trkpt lat="38.2780180" lon="-0.6796610">
        <ele>94.0</ele>
        <time>2018-03-05T13:13:37Z</time>
      </trkpt>
      <trkpt lat="38.2780320" lon="-0.6795800">
        <ele>94.0</ele>
        <time>2018-03-05T13:13:38Z</time>
      </trkpt>
      <trkpt lat="38.2780430" lon="-0.6795000">
        <ele>94.0</ele>
        <time>2018-03-05T13:13:39Z</time>
      </trkpt>
      <trkpt lat="38.2780590" lon="-0.6794190">
        <ele>94.0</ele>
        <time>2018-03-05T13:13:40Z</time>
      </trkpt>
      <trkpt lat="38.2780750" lon="-0.6793400">
        <ele>94.0</ele>
        <time>2018-03-05T13:13:41Z</time>
      </trkpt>
      <trkpt lat="38.2780910" lon="-0.6792610">
        <ele>94.0</ele>
        <time>2018-03-05T13:13:42Z</time>
      </trkpt>
      <trkpt lat="38.2781040" lon="-0.6791840">
        <ele>93.0</ele>
        <time>2018-03-05T13:13:43Z</time>
      </trkpt>
      <trkpt lat="38.2781240" lon="-0.6791010">
        <ele>94.0</ele>
        <time>2018-03-05T13:13:44Z</time>
      </trkpt>
      <trkpt lat="38.2781410" lon="-0.6790210">
        <ele>93.0</ele>
        <time>2018-03-05T13:13:45Z</time>
      </trkpt>
      <trkpt lat="38.2781560" lon="-0.6789390">
        <ele>93.0</ele>
        <time>2018-03-05T13:13:46Z</time>
      </trkpt>
      <trkpt lat="38.2781690" lon="-0.6788550">
        <ele>93.0</ele>
        <time>2018-03-05T13:13:47Z</time>
      </trkpt>
      <trkpt lat="38.2781820" lon="-0.6787720">
        <ele>92.0</ele>
        <time>2018-03-05T13:13:48Z</time>
      </trkpt>
      <trkpt lat="38.2781960" lon="-0.6786850">
        <ele>92.0</ele>
        <time>2018-03-05T13:13:49Z</time>
      </trkpt>
      <trkpt lat="38.2782080" lon="-0.6786020">
        <ele>92.0</ele>
        <time>2018-03-05T13:13:50Z</time>
      </trkpt>
      <trkpt lat="38.2782230" lon="-0.6785180">
        <ele>92.0</ele>
        <time>2018-03-05T13:13:51Z</time>
      </trkpt>
      <trkpt lat="38.2782350" lon="-0.6784350">
        <ele>92.0</ele>
        <time>2018-03-05T13:13:52Z</time>
      </trkpt>
      <trkpt lat="38.2782400" lon="-0.6783530">
        <ele>91.0</ele>
        <time>2018-03-05T13:13:53Z</time>
      </trkpt>
      <trkpt lat="38.2782380" lon="-0.6782760">
        <ele>89.0</ele>
        <time>2018-03-05T13:13:54Z</time>
      </trkpt>
      <trkpt lat="38.2782500" lon="-0.6781970">
        <ele>88.0</ele>
        <time>2018-03-05T13:13:55Z</time>
      </trkpt>
      <trkpt lat="38.2782640" lon="-0.6781140">
        <ele>88.0</ele>
        <time>2018-03-05T13:13:56Z</time>
      </trkpt>
      <trkpt lat="38.2782740" lon="-0.6780340">
        <ele>87.0</ele>
        <time>2018-03-05T13:13:57Z</time>
      </trkpt>
      <trkpt lat="38.2782830" lon="-0.6779540">
        <ele>87.0</ele>
        <time>2018-03-05T13:13:58Z</time>
      </trkpt>
      <trkpt lat="38.2782880" lon="-0.6778750">
        <ele>86.0</ele>
        <time>2018-03-05T13:13:59Z</time>
      </trkpt>
      <trkpt lat="38.2783020" lon="-0.6777950">
        <ele>86.0</ele>
        <time>2018-03-05T13:14:00Z</time>
      </trkpt>
      <trkpt lat="38.2783180" lon="-0.6777110">
        <ele>87.0</ele>
        <time>2018-03-05T13:14:01Z</time>
      </trkpt>
      <trkpt lat="38.2783260" lon="-0.6776260">
        <ele>87.0</ele>
        <time>2018-03-05T13:14:02Z</time>
      </trkpt>
      <trkpt lat="38.2783400" lon="-0.6775470">
        <ele>87.0</ele>
        <time>2018-03-05T13:14:03Z</time>
      </trkpt>
      <trkpt lat="38.2783630" lon="-0.6774640">
        <ele>88.0</ele>
        <time>2018-03-05T13:14:04Z</time>
      </trkpt>
      <trkpt lat="38.2783900" lon="-0.6773720">
        <ele>91.0</ele>
        <time>2018-03-05T13:14:05Z</time>
      </trkpt>
      <trkpt lat="38.2784090" lon="-0.6772870">
        <ele>93.0</ele>
        <time>2018-03-05T13:14:06Z</time>
      </trkpt>
      <trkpt lat="38.2784260" lon="-0.6772070">
        <ele>93.0</ele>
        <time>2018-03-05T13:14:07Z</time>
      </trkpt>
      <trkpt lat="38.2784380" lon="-0.6771270">
        <ele>93.0</ele>
        <time>2018-03-05T13:14:08Z</time>
      </trkpt>
      <trkpt lat="38.2784500" lon="-0.6770470">
        <ele>92.0</ele>
        <time>2018-03-05T13:14:09Z</time>
      </trkpt>
      <trkpt lat="38.2784630" lon="-0.6769670">
        <ele>92.0</ele>
        <time>2018-03-05T13:14:10Z</time>
      </trkpt>
      <trkpt lat="38.2784780" lon="-0.6768850">
        <ele>93.0</ele>
        <time>2018-03-05T13:14:11Z</time>
      </trkpt>
      <trkpt lat="38.2784910" lon="-0.6768040">
        <ele>93.0</ele>
        <time>2018-03-05T13:14:12Z</time>
      </trkpt>
      <trkpt lat="38.2785050" lon="-0.6767200">
        <ele>93.0</ele>
        <time>2018-03-05T13:14:13Z</time>
      </trkpt>
      <trkpt lat="38.2785170" lon="-0.6766380">
        <ele>93.0</ele>
        <time>2018-03-05T13:14:14Z</time>
      </trkpt>
      <trkpt lat="38.2785310" lon="-0.6765560">
        <ele>93.0</ele>
        <time>2018-03-05T13:14:15Z</time>
      </trkpt>
      <trkpt lat="38.2785480" lon="-0.6764720">
        <ele>93.0</ele>
        <time>2018-03-05T13:14:16Z</time>
      </trkpt>
      <trkpt lat="38.2785620" lon="-0.6763900">
        <ele>94.0</ele>
        <time>2018-03-05T13:14:17Z</time>
      </trkpt>
      <trkpt lat="38.2785770" lon="-0.6763060">
        <ele>94.0</ele>
        <time>2018-03-05T13:14:18Z</time>
      </trkpt>
      <trkpt lat="38.2785950" lon="-0.6762200">
        <ele>95.0</ele>
        <time>2018-03-05T13:14:19Z</time>
      </trkpt>
      <trkpt lat="38.2786080" lon="-0.6761370">
        <ele>95.0</ele>
        <time>2018-03-05T13:14:20Z</time>
      </trkpt>
      <trkpt lat="38.2786220" lon="-0.6760530">
        <ele>96.0</ele>
        <time>2018-03-05T13:14:21Z</time>
      </trkpt>
      <trkpt lat="38.2786360" lon="-0.6759700">
        <ele>96.0</ele>
        <time>2018-03-05T13:14:22Z</time>
      </trkpt>
      <trkpt lat="38.2786500" lon="-0.6758890">
        <ele>95.0</ele>
        <time>2018-03-05T13:14:23Z</time>
      </trkpt>
      <trkpt lat="38.2786650" lon="-0.6758060">
        <ele>95.0</ele>
        <time>2018-03-05T13:14:24Z</time>
      </trkpt>
      <trkpt lat="38.2786790" lon="-0.6757240">
        <ele>96.0</ele>
        <time>2018-03-05T13:14:25Z</time>
      </trkpt>
      <trkpt lat="38.2786940" lon="-0.6756430">
        <ele>95.0</ele>
        <time>2018-03-05T13:14:26Z</time>
      </trkpt>
      <trkpt lat="38.2787070" lon="-0.6755630">
        <ele>95.0</ele>
        <time>2018-03-05T13:14:27Z</time>
      </trkpt>
      <trkpt lat="38.2787230" lon="-0.6754800">
        <ele>96.0</ele>
        <time>2018-03-05T13:14:28Z</time>
      </trkpt>
      <trkpt lat="38.2787360" lon="-0.6753990">
        <ele>96.0</ele>
        <time>2018-03-05T13:14:29Z</time>
      </trkpt>
      <trkpt lat="38.2787480" lon="-0.6753190">
        <ele>96.0</ele>
        <time>2018-03-05T13:14:30Z</time>
      </trkpt>
      <trkpt lat="38.2787610" lon="-0.6752380">
        <ele>96.0</ele>
        <time>2018-03-05T13:14:31Z</time>
      </trkpt>
      <trkpt lat="38.2787740" lon="-0.6751580">
        <ele>96.0</ele>
        <time>2018-03-05T13:14:32Z</time>
      </trkpt>
      <trkpt lat="38.2787890" lon="-0.6750780">
        <ele>96.0</ele>
        <time>2018-03-05T13:14:33Z</time>
      </trkpt>
      <trkpt lat="38.2788020" lon="-0.6749990">
        <ele>96.0</ele>
        <time>2018-03-05T13:14:34Z</time>
      </trkpt>
      <trkpt lat="38.2788130" lon="-0.6749200">
        <ele>96.0</ele>
        <time>2018-03-05T13:14:35Z</time>
      </trkpt>
      <trkpt lat="38.2788280" lon="-0.6748380">
        <ele>96.0</ele>
        <time>2018-03-05T13:14:36Z</time>
      </trkpt>
      <trkpt lat="38.2788400" lon="-0.6747560">
        <ele>96.0</ele>
        <time>2018-03-05T13:14:37Z</time>
      </trkpt>
      <trkpt lat="38.2788560" lon="-0.6746730">
        <ele>96.0</ele>
        <time>2018-03-05T13:14:38Z</time>
      </trkpt>
      <trkpt lat="38.2788680" lon="-0.6745930">
        <ele>96.0</ele>
        <time>2018-03-05T13:14:39Z</time>
      </trkpt>
      <trkpt lat="38.2788850" lon="-0.6745070">
        <ele>96.0</ele>
        <time>2018-03-05T13:14:40Z</time>
      </trkpt>
      <trkpt lat="38.2788990" lon="-0.6744220">
        <ele>97.0</ele>
        <time>2018-03-05T13:14:41Z</time>
      </trkpt>
      <trkpt lat="38.2789130" lon="-0.6743390">
        <ele>97.0</ele>
        <time>2018-03-05T13:14:42Z</time>
      </trkpt>
      <trkpt lat="38.2789270" lon="-0.6742560">
        <ele>97.0</ele>
        <time>2018-03-05T13:14:43Z</time>
      </trkpt>
      <trkpt lat="38.2789410" lon="-0.6741730">
        <ele>97.0</ele>
        <time>2018-03-05T13:14:44Z</time>
      </trkpt>
      <trkpt lat="38.2789550" lon="-0.6740910">
        <ele>97.0</ele>
        <time>2018-03-05T13:14:45Z</time>
      </trkpt>
      <trkpt lat="38.2789700" lon="-0.6740060">
        <ele>97.0</ele>
        <time>2018-03-05T13:14:46Z</time>
      </trkpt>
      <trkpt lat="38.2789830" lon="-0.6739230">
        <ele>97.0</ele>
        <time>2018-03-05T13:14:47Z</time>
      </trkpt>
      <trkpt lat="38.2789980" lon="-0.6738390">
        <ele>98.0</ele>
        <time>2018-03-05T13:14:48Z</time>
      </trkpt>
      <trkpt lat="38.2790130" lon="-0.6737550">
        <ele>97.0</ele>
        <time>2018-03-05T13:14:49Z</time>
      </trkpt>
      <trkpt lat="38.2790280" lon="-0.6736700">
        <ele>98.0</ele>
        <time>2018-03-05T13:14:50Z</time>
      </trkpt>
      <trkpt lat="38.2790440" lon="-0.6735840">
        <ele>97.0</ele>
        <time>2018-03-05T13:14:51Z</time>
      </trkpt>
      <trkpt lat="38.2790580" lon="-0.6734980">
        <ele>97.0</ele>
        <time>2018-03-05T13:14:52Z</time>
      </trkpt>
      <trkpt lat="38.2790710" lon="-0.6734120">
        <ele>97.0</ele>
        <time>2018-03-05T13:14:53Z</time>
      </trkpt>
      <trkpt lat="38.2790850" lon="-0.6733270">
        <ele>97.0</ele>
        <time>2018-03-05T13:14:54Z</time>
      </trkpt>
      <trkpt lat="38.2790980" lon="-0.6732440">
        <ele>96.0</ele>
        <time>2018-03-05T13:14:55Z</time>
      </trkpt>
      <trkpt lat="38.2791130" lon="-0.6731590">
        <ele>96.0</ele>
        <time>2018-03-05T13:14:56Z</time>
      </trkpt>
      <trkpt lat="38.2791280" lon="-0.6730750">
        <ele>96.0</ele>
        <time>2018-03-05T13:14:57Z</time>
      </trkpt>
      <trkpt lat="38.2791470" lon="-0.6729910">
        <ele>96.0</ele>
        <time>2018-03-05T13:14:58Z</time>
      </trkpt>
      <trkpt lat="38.2791660" lon="-0.6729050">
        <ele>97.0</ele>
        <time>2018-03-05T13:14:59Z</time>
      </trkpt>
      <trkpt lat="38.2791820" lon="-0.6728180">
        <ele>97.0</ele>
        <time>2018-03-05T13:15:00Z</time>
      </trkpt>
      <trkpt lat="38.2791930" lon="-0.6727350">
        <ele>97.0</ele>
        <time>2018-03-05T13:15:01Z</time>
      </trkpt>
      <trkpt lat="38.2792080" lon="-0.6726490">
        <ele>97.0</ele>
        <time>2018-03-05T13:15:02Z</time>
      </trkpt>
      <trkpt lat="38.2792230" lon="-0.6725630">
        <ele>96.0</ele>
        <time>2018-03-05T13:15:03Z</time>
      </trkpt>
      <trkpt lat="38.2792370" lon="-0.6724770">
        <ele>96.0</ele>
        <time>2018-03-05T13:15:04Z</time>
      </trkpt>
      <trkpt lat="38.2792510" lon="-0.6723910">
        <ele>96.0</ele>
        <time>2018-03-05T13:15:05Z</time>
      </trkpt>
      <trkpt lat="38.2792640" lon="-0.6723050">
        <ele>96.0</ele>
        <time>2018-03-05T13:15:06Z</time>
      </trkpt>
      <trkpt lat="38.2792820" lon="-0.6722180">
        <ele>96.0</ele>
        <time>2018-03-05T13:15:07Z</time>
      </trkpt>
      <trkpt lat="38.2792970" lon="-0.6721320">
        <ele>96.0</ele>
        <time>2018-03-05T13:15:08Z</time>
      </trkpt>
      <trkpt lat="38.2793110" lon="-0.6720450">
        <ele>96.0</ele>
        <time>2018-03-05T13:15:09Z</time>
      </trkpt>
      <trkpt lat="38.2793260" lon="-0.6719590">
        <ele>96.0</ele>
        <time>2018-03-05T13:15:10Z</time>
      </trkpt>
      <trkpt lat="38.2793410" lon="-0.6718730">
        <ele>95.0</ele>
        <time>2018-03-05T13:15:11Z</time>
      </trkpt>
      <trkpt lat="38.2793550" lon="-0.6717870">
        <ele>95.0</ele>
        <time>2018-03-05T13:15:12Z</time>
      </trkpt>
      <trkpt lat="38.2793690" lon="-0.6717000">
        <ele>96.0</ele>
        <time>2018-03-05T13:15:13Z</time>
      </trkpt>
      <trkpt lat="38.2793840" lon="-0.6716140">
        <ele>96.0</ele>
        <time>2018-03-05T13:15:14Z</time>
      </trkpt>
      <trkpt lat="38.2793970" lon="-0.6715280">
        <ele>95.0</ele>
        <time>2018-03-05T13:15:15Z</time>
      </trkpt>
      <trkpt lat="38.2794110" lon="-0.6714420">
        <ele>95.0</ele>
        <time>2018-03-05T13:15:16Z</time>
      </trkpt>
      <trkpt lat="38.2794250" lon="-0.6713560">
        <ele>95.0</ele>
        <time>2018-03-05T13:15:17Z</time>
      </trkpt>
      <trkpt lat="38.2794390" lon="-0.6712710">
        <ele>95.0</ele>
        <time>2018-03-05T13:15:18Z</time>
      </trkpt>
      <trkpt lat="38.2794540" lon="-0.6711890">
        <ele>95.0</ele>
        <time>2018-03-05T13:15:19Z</time>
      </trkpt>
      <trkpt lat="38.2794660" lon="-0.6711030">
        <ele>95.0</ele>
        <time>2018-03-05T13:15:20Z</time>
      </trkpt>
      <trkpt lat="38.2794820" lon="-0.6710130">
        <ele>95.0</ele>
        <time>2018-03-05T13:15:21Z</time>
      </trkpt>
      <trkpt lat="38.2794950" lon="-0.6709230">
        <ele>95.0</ele>
        <time>2018-03-05T13:15:22Z</time>
      </trkpt>
      <trkpt lat="38.2795100" lon="-0.6708340">
        <ele>95.0</ele>
        <time>2018-03-05T13:15:23Z</time>
      </trkpt>
      <trkpt lat="38.2795270" lon="-0.6707430">
        <ele>95.0</ele>
        <time>2018-03-05T13:15:24Z</time>
      </trkpt>
      <trkpt lat="38.2795400" lon="-0.6706550">
        <ele>95.0</ele>
        <time>2018-03-05T13:15:25Z</time>
      </trkpt>
      <trkpt lat="38.2795590" lon="-0.6705630">
        <ele>95.0</ele>
        <time>2018-03-05T13:15:26Z</time>
      </trkpt>
      <trkpt lat="38.2795730" lon="-0.6704770">
        <ele>95.0</ele>
        <time>2018-03-05T13:15:27Z</time>
      </trkpt>
      <trkpt lat="38.2795860" lon="-0.6703890">
        <ele>95.0</ele>
        <time>2018-03-05T13:15:28Z</time>
      </trkpt>
      <trkpt lat="38.2795990" lon="-0.6703030">
        <ele>95.0</ele>
        <time>2018-03-05T13:15:29Z</time>
      </trkpt>
      <trkpt lat="38.2796130" lon="-0.6702170">
        <ele>95.0</ele>
        <time>2018-03-05T13:15:30Z</time>
      </trkpt>
      <trkpt lat="38.2796270" lon="-0.6701300">
        <ele>95.0</ele>
        <time>2018-03-05T13:15:31Z</time>
      </trkpt>
      <trkpt lat="38.2796370" lon="-0.6700440">
        <ele>95.0</ele>
        <time>2018-03-05T13:15:32Z</time>
      </trkpt>
      <trkpt lat="38.2796420" lon="-0.6699590">
        <ele>94.0</ele>
        <time>2018-03-05T13:15:33Z</time>
      </trkpt>
      <trkpt lat="38.2796440" lon="-0.6698710">
        <ele>94.0</ele>
        <time>2018-03-05T13:15:34Z</time>
      </trkpt>
      <trkpt lat="38.2796100" lon="-0.6697880">
        <ele>95.0</ele>
        <time>2018-03-05T13:15:35Z</time>
      </trkpt>
      <trkpt lat="38.2795780" lon="-0.6697150">
        <ele>93.0</ele>
        <time>2018-03-05T13:15:36Z</time>
      </trkpt>
      <trkpt lat="38.2795550" lon="-0.6696320">
        <ele>92.0</ele>
        <time>2018-03-05T13:15:37Z</time>
      </trkpt>
      <trkpt lat="38.2795530" lon="-0.6695360">
        <ele>94.0</ele>
        <time>2018-03-05T13:15:38Z</time>
      </trkpt>
      <trkpt lat="38.2795590" lon="-0.6694500">
        <ele>94.0</ele>
        <time>2018-03-05T13:15:39Z</time>
      </trkpt>
      <trkpt lat="38.2795780" lon="-0.6693650">
        <ele>94.0</ele>
        <time>2018-03-05T13:15:40Z</time>
      </trkpt>
      <trkpt lat="38.2796100" lon="-0.6692930">
        <ele>94.0</ele>
        <time>2018-03-05T13:15:41Z</time>
      </trkpt>
      <trkpt lat="38.2796530" lon="-0.6692250">
        <ele>95.0</ele>
        <time>2018-03-05T13:15:42Z</time>
      </trkpt>
      <trkpt lat="38.2797120" lon="-0.6691990">
        <ele>94.0</ele>
        <time>2018-03-05T13:15:43Z</time>
      </trkpt>
      <trkpt lat="38.2797740" lon="-0.6692160">
        <ele>93.0</ele>
        <time>2018-03-05T13:15:44Z</time>
      </trkpt>
      <trkpt lat="38.2798220" lon="-0.6692590">
        <ele>93.0</ele>
        <time>2018-03-05T13:15:45Z</time>
      </trkpt>
      <trkpt lat="38.2798550" lon="-0.6693180">
        <ele>91.0</ele>
        <time>2018-03-05T13:15:46Z</time>
      </trkpt>
      <trkpt lat="38.2798620" lon="-0.6693860">
        <ele>91.0</ele>
        <time>2018-03-05T13:15:47Z</time>
      </trkpt>
      <trkpt lat="38.2798640" lon="-0.6694660">
        <ele>90.0</ele>
        <time>2018-03-05T13:15:48Z</time>
      </trkpt>
      <trkpt lat="38.2798500" lon="-0.6695440">
        <ele>90.0</ele>
        <time>2018-03-05T13:15:49Z</time>
      </trkpt>
      <trkpt lat="38.2798360" lon="-0.6696230">
        <ele>90.0</ele>
        <time>2018-03-05T13:15:50Z</time>
      </trkpt>
      <trkpt lat="38.2798230" lon="-0.6697030">
        <ele>90.0</ele>
        <time>2018-03-05T13:15:51Z</time>
      </trkpt>
      <trkpt lat="38.2798080" lon="-0.6697860">
        <ele>90.0</ele>
        <time>2018-03-05T13:15:52Z</time>
      </trkpt>
      <trkpt lat="38.2797950" lon="-0.6698690">
        <ele>90.0</ele>
        <time>2018-03-05T13:15:53Z</time>
      </trkpt>
      <trkpt lat="38.2797810" lon="-0.6699520">
        <ele>90.0</ele>
        <time>2018-03-05T13:15:54Z</time>
      </trkpt>
      <trkpt lat="38.2797680" lon="-0.6700370">
        <ele>90.0</ele>
        <time>2018-03-05T13:15:55Z</time>
      </trkpt>
      <trkpt lat="38.2797520" lon="-0.6701210">
        <ele>90.0</ele>
        <time>2018-03-05T13:15:56Z</time>
      </trkpt>
      <trkpt lat="38.2797350" lon="-0.6702040">
        <ele>91.0</ele>
        <time>2018-03-05T13:15:57Z</time>
      </trkpt>
      <trkpt lat="38.2797160" lon="-0.6702870">
        <ele>91.0</ele>
        <time>2018-03-05T13:15:58Z</time>
      </trkpt>
      <trkpt lat="38.2797000" lon="-0.6703710">
        <ele>91.0</ele>
        <time>2018-03-05T13:15:59Z</time>
      </trkpt>
      <trkpt lat="38.2796840" lon="-0.6704550">
        <ele>91.0</ele>
        <time>2018-03-05T13:16:00Z</time>
      </trkpt>
      <trkpt lat="38.2796690" lon="-0.6705390">
        <ele>91.0</ele>
        <time>2018-03-05T13:16:01Z</time>
      </trkpt>
      <trkpt lat="38.2796540" lon="-0.6706240">
        <ele>92.0</ele>
        <time>2018-03-05T13:16:02Z</time>
      </trkpt>
      <trkpt lat="38.2796370" lon="-0.6707070">
        <ele>92.0</ele>
        <time>2018-03-05T13:16:03Z</time>
      </trkpt>
      <trkpt lat="38.2796200" lon="-0.6707890">
        <ele>92.0</ele>
        <time>2018-03-05T13:16:04Z</time>
      </trkpt>
      <trkpt lat="38.2796040" lon="-0.6708680">
        <ele>92.0</ele>
        <time>2018-03-05T13:16:05Z</time>
      </trkpt>
      <trkpt lat="38.2796180" lon="-0.6709580">
        <ele>93.0</ele>
        <time>2018-03-05T13:16:06Z</time>
      </trkpt>
      <trkpt lat="38.2796340" lon="-0.6710460">
        <ele>92.0</ele>
        <time>2018-03-05T13:16:07Z</time>
      </trkpt>
      <trkpt lat="38.2796910" lon="-0.6710510">
        <ele>88.0</ele>
        <time>2018-03-05T13:16:08Z</time>
      </trkpt>
      <trkpt lat="38.2797340" lon="-0.6710640">
        <ele>89.0</ele>
        <time>2018-03-05T13:16:09Z</time>
      </trkpt>
      <trkpt lat="38.2797760" lon="-0.6710490">
        <ele>90.0</ele>
        <time>2018-03-05T13:16:10Z</time>
      </trkpt>
      <trkpt lat="38.2798080" lon="-0.6710130">
        <ele>91.0</ele>
        <time>2018-03-05T13:16:11Z</time>
      </trkpt>
      <trkpt lat="38.2798420" lon="-0.6709580">
        <ele>92.0</ele>
        <time>2018-03-05T13:16:12Z</time>
      </trkpt>
      <trkpt lat="38.2798730" lon="-0.6709030">
        <ele>92.0</ele>
        <time>2018-03-05T13:16:13Z</time>
      </trkpt>
      <trkpt lat="38.2799100" lon="-0.6708500">
        <ele>93.0</ele>
        <time>2018-03-05T13:16:14Z</time>
      </trkpt>
      <trkpt lat="38.2799520" lon="-0.6708030">
        <ele>93.0</ele>
        <time>2018-03-05T13:16:15Z</time>
      </trkpt>
      <trkpt lat="38.2799980" lon="-0.6707580">
        <ele>93.0</ele>
        <time>2018-03-05T13:16:16Z</time>
      </trkpt>
      <trkpt lat="38.2800460" lon="-0.6707170">
        <ele>94.0</ele>
        <time>2018-03-05T13:16:17Z</time>
      </trkpt>
      <trkpt lat="38.2800940" lon="-0.6706750">
        <ele>94.0</ele>
        <time>2018-03-05T13:16:18Z</time>
      </trkpt>
      <trkpt lat="38.2801450" lon="-0.6706340">
        <ele>94.0</ele>
        <time>2018-03-05T13:16:19Z</time>
      </trkpt>
      <trkpt lat="38.2801970" lon="-0.6705940">
        <ele>95.0</ele>
        <time>2018-03-05T13:16:20Z</time>
      </trkpt>
      <trkpt lat="38.2802470" lon="-0.6705520">
        <ele>95.0</ele>
        <time>2018-03-05T13:16:21Z</time>
      </trkpt>
      <trkpt lat="38.2802970" lon="-0.6705100">
        <ele>95.0</ele>
        <time>2018-03-05T13:16:22Z</time>
      </trkpt>
      <trkpt lat="38.2803490" lon="-0.6704730">
        <ele>95.0</ele>
        <time>2018-03-05T13:16:23Z</time>
      </trkpt>
      <trkpt lat="38.2804020" lon="-0.6704360">
        <ele>96.0</ele>
        <time>2018-03-05T13:16:24Z</time>
      </trkpt>
      <trkpt lat="38.2804540" lon="-0.6704000">
        <ele>96.0</ele>
        <time>2018-03-05T13:16:25Z</time>
      </trkpt>
      <trkpt lat="38.2805060" lon="-0.6703620">
        <ele>96.0</ele>
        <time>2018-03-05T13:16:26Z</time>
      </trkpt>
      <trkpt lat="38.2805600" lon="-0.6703270">
        <ele>96.0</ele>
        <time>2018-03-05T13:16:27Z</time>
      </trkpt>
      <trkpt lat="38.2806140" lon="-0.6702910">
        <ele>96.0</ele>
        <time>2018-03-05T13:16:28Z</time>
      </trkpt>
      <trkpt lat="38.2806670" lon="-0.6702510">
        <ele>96.0</ele>
        <time>2018-03-05T13:16:29Z</time>
      </trkpt>
      <trkpt lat="38.2807220" lon="-0.6702110">
        <ele>96.0</ele>
        <time>2018-03-05T13:16:30Z</time>
      </trkpt>
      <trkpt lat="38.2807780" lon="-0.6701700">
        <ele>97.0</ele>
        <time>2018-03-05T13:16:31Z</time>
      </trkpt>
      <trkpt lat="38.2808340" lon="-0.6701290">
        <ele>97.0</ele>
        <time>2018-03-05T13:16:32Z</time>
      </trkpt>
      <trkpt lat="38.2808920" lon="-0.6700870">
        <ele>97.0</ele>
        <time>2018-03-05T13:16:33Z</time>
      </trkpt>
      <trkpt lat="38.2809490" lon="-0.6700440">
        <ele>97.0</ele>
        <time>2018-03-05T13:16:34Z</time>
      </trkpt>
      <trkpt lat="38.2810030" lon="-0.6699970">
        <ele>97.0</ele>
        <time>2018-03-05T13:16:35Z</time>
      </trkpt>
      <trkpt lat="38.2810580" lon="-0.6699490">
        <ele>97.0</ele>
        <time>2018-03-05T13:16:36Z</time>
      </trkpt>
      <trkpt lat="38.2811120" lon="-0.6699010">
        <ele>97.0</ele>
        <time>2018-03-05T13:16:37Z</time>
      </trkpt>
      <trkpt lat="38.2811660" lon="-0.6698520">
        <ele>98.0</ele>
        <time>2018-03-05T13:16:38Z</time>
      </trkpt>
      <trkpt lat="38.2812210" lon="-0.6698020">
        <ele>98.0</ele>
        <time>2018-03-05T13:16:39Z</time>
      </trkpt>
      <trkpt lat="38.2812740" lon="-0.6697490">
        <ele>98.0</ele>
        <time>2018-03-05T13:16:40Z</time>
      </trkpt>
      <trkpt lat="38.2813250" lon="-0.6696940">
        <ele>98.0</ele>
        <time>2018-03-05T13:16:41Z</time>
      </trkpt>
      <trkpt lat="38.2813750" lon="-0.6696350">
        <ele>98.0</ele>
        <time>2018-03-05T13:16:42Z</time>
      </trkpt>
      <trkpt lat="38.2814250" lon="-0.6695740">
        <ele>98.0</ele>
        <time>2018-03-05T13:16:43Z</time>
      </trkpt>
      <trkpt lat="38.2814730" lon="-0.6695120">
        <ele>98.0</ele>
        <time>2018-03-05T13:16:44Z</time>
      </trkpt>
      <trkpt lat="38.2815180" lon="-0.6694460">
        <ele>98.0</ele>
        <time>2018-03-05T13:16:45Z</time>
      </trkpt>
      <trkpt lat="38.2815630" lon="-0.6693800">
        <ele>98.0</ele>
        <time>2018-03-05T13:16:46Z</time>
      </trkpt>
      <trkpt lat="38.2816080" lon="-0.6693130">
        <ele>98.0</ele>
        <time>2018-03-05T13:16:47Z</time>
      </trkpt>
      <trkpt lat="38.2816540" lon="-0.6692450">
        <ele>98.0</ele>
        <time>2018-03-05T13:16:48Z</time>
      </trkpt>
      <trkpt lat="38.2817030" lon="-0.6691770">
        <ele>98.0</ele>
        <time>2018-03-05T13:16:49Z</time>
      </trkpt>
      <trkpt lat="38.2817540" lon="-0.6691100">
        <ele>98.0</ele>
        <time>2018-03-05T13:16:50Z</time>
      </trkpt>
      <trkpt lat="38.2818060" lon="-0.6690410">
        <ele>97.0</ele>
        <time>2018-03-05T13:16:51Z</time>
      </trkpt>
      <trkpt lat="38.2818680" lon="-0.6689690">
        <ele>97.0</ele>
        <time>2018-03-05T13:16:52Z</time>
      </trkpt>
      <trkpt lat="38.2819340" lon="-0.6689000">
        <ele>97.0</ele>
        <time>2018-03-05T13:16:53Z</time>
      </trkpt>
      <trkpt lat="38.2820030" lon="-0.6688380">
        <ele>97.0</ele>
        <time>2018-03-05T13:16:54Z</time>
      </trkpt>
      <trkpt lat="38.2820820" lon="-0.6687880">
        <ele>97.0</ele>
        <time>2018-03-05T13:16:55Z</time>
      </trkpt>
      <trkpt lat="38.2821620" lon="-0.6687490">
        <ele>97.0</ele>
        <time>2018-03-05T13:16:56Z</time>
      </trkpt>
      <trkpt lat="38.2822460" lon="-0.6687340">
        <ele>96.0</ele>
        <time>2018-03-05T13:16:57Z</time>
      </trkpt>
      <trkpt lat="38.2823310" lon="-0.6687220">
        <ele>96.0</ele>
        <time>2018-03-05T13:16:58Z</time>
      </trkpt>
      <trkpt lat="38.2824150" lon="-0.6687130">
        <ele>96.0</ele>
        <time>2018-03-05T13:16:59Z</time>
      </trkpt>
      <trkpt lat="38.2825010" lon="-0.6687010">
        <ele>95.0</ele>
        <time>2018-03-05T13:17:00Z</time>
      </trkpt>
      <trkpt lat="38.2825910" lon="-0.6686820">
        <ele>94.0</ele>
        <time>2018-03-05T13:17:01Z</time>
      </trkpt>
      <trkpt lat="38.2826830" lon="-0.6686610">
        <ele>94.0</ele>
        <time>2018-03-05T13:17:02Z</time>
      </trkpt>
      <trkpt lat="38.2827750" lon="-0.6686420">
        <ele>94.0</ele>
        <time>2018-03-05T13:17:03Z</time>
      </trkpt>
      <trkpt lat="38.2828620" lon="-0.6686160">
        <ele>95.0</ele>
        <time>2018-03-05T13:17:04Z</time>
      </trkpt>
      <trkpt lat="38.2829390" lon="-0.6685930">
        <ele>96.0</ele>
        <time>2018-03-05T13:17:05Z</time>
      </trkpt>
      <trkpt lat="38.2830050" lon="-0.6685790">
        <ele>96.0</ele>
        <time>2018-03-05T13:17:06Z</time>
      </trkpt>
      <trkpt lat="38.2830660" lon="-0.6685700">
        <ele>97.0</ele>
        <time>2018-03-05T13:17:07Z</time>
      </trkpt>
      <trkpt lat="38.2831280" lon="-0.6685540">
        <ele>98.0</ele>
        <time>2018-03-05T13:17:08Z</time>
      </trkpt>
      <trkpt lat="38.2831890" lon="-0.6685360">
        <ele>98.0</ele>
        <time>2018-03-05T13:17:09Z</time>
      </trkpt>
      <trkpt lat="38.2832480" lon="-0.6685150">
        <ele>98.0</ele>
        <time>2018-03-05T13:17:10Z</time>
      </trkpt>
      <trkpt lat="38.2833070" lon="-0.6684940">
        <ele>99.0</ele>
        <time>2018-03-05T13:17:11Z</time>
      </trkpt>
      <trkpt lat="38.2833650" lon="-0.6684720">
        <ele>99.0</ele>
        <time>2018-03-05T13:17:12Z</time>
      </trkpt>
      <trkpt lat="38.2834230" lon="-0.6684510">
        <ele>100.0</ele>
        <time>2018-03-05T13:17:13Z</time>
      </trkpt>
      <trkpt lat="38.2834800" lon="-0.6684290">
        <ele>100.0</ele>
        <time>2018-03-05T13:17:14Z</time>
      </trkpt>
      <trkpt lat="38.2835350" lon="-0.6684080">
        <ele>101.0</ele>
        <time>2018-03-05T13:17:15Z</time>
      </trkpt>
      <trkpt lat="38.2835910" lon="-0.6683900">
        <ele>101.0</ele>
        <time>2018-03-05T13:17:16Z</time>
      </trkpt>
      <trkpt lat="38.2836440" lon="-0.6683750">
        <ele>101.0</ele>
        <time>2018-03-05T13:17:17Z</time>
      </trkpt>
      <trkpt lat="38.2836970" lon="-0.6683620">
        <ele>101.0</ele>
        <time>2018-03-05T13:17:18Z</time>
      </trkpt>
      <trkpt lat="38.2837510" lon="-0.6683580">
        <ele>102.0</ele>
        <time>2018-03-05T13:17:19Z</time>
      </trkpt>
      <trkpt lat="38.2838060" lon="-0.6683580">
        <ele>102.0</ele>
        <time>2018-03-05T13:17:20Z</time>
      </trkpt>
      <trkpt lat="38.2838590" lon="-0.6683600">
        <ele>102.0</ele>
        <time>2018-03-05T13:17:21Z</time>
      </trkpt>
      <trkpt lat="38.2839130" lon="-0.6683690">
        <ele>102.0</ele>
        <time>2018-03-05T13:17:22Z</time>
      </trkpt>
      <trkpt lat="38.2839670" lon="-0.6683790">
        <ele>102.0</ele>
        <time>2018-03-05T13:17:23Z</time>
      </trkpt>
      <trkpt lat="38.2840210" lon="-0.6683890">
        <ele>103.0</ele>
        <time>2018-03-05T13:17:24Z</time>
      </trkpt>
      <trkpt lat="38.2840750" lon="-0.6683980">
        <ele>103.0</ele>
        <time>2018-03-05T13:17:25Z</time>
      </trkpt>
      <trkpt lat="38.2841260" lon="-0.6684050">
        <ele>103.0</ele>
        <time>2018-03-05T13:17:26Z</time>
      </trkpt>
      <trkpt lat="38.2841800" lon="-0.6684100">
        <ele>103.0</ele>
        <time>2018-03-05T13:17:27Z</time>
      </trkpt>
      <trkpt lat="38.2842330" lon="-0.6684140">
        <ele>103.0</ele>
        <time>2018-03-05T13:17:28Z</time>
      </trkpt>
      <trkpt lat="38.2842850" lon="-0.6684200">
        <ele>104.0</ele>
        <time>2018-03-05T13:17:29Z</time>
      </trkpt>
      <trkpt lat="38.2843370" lon="-0.6684230">
        <ele>104.0</ele>
        <time>2018-03-05T13:17:30Z</time>
      </trkpt>
      <trkpt lat="38.2843860" lon="-0.6684190">
        <ele>103.0</ele>
        <time>2018-03-05T13:17:31Z</time>
      </trkpt>
      <trkpt lat="38.2844410" lon="-0.6683950">
        <ele>104.0</ele>
        <time>2018-03-05T13:17:32Z</time>
      </trkpt>
      <trkpt lat="38.2844920" lon="-0.6683660">
        <ele>103.0</ele>
        <time>2018-03-05T13:17:33Z</time>
      </trkpt>
      <trkpt lat="38.2845370" lon="-0.6683300">
        <ele>103.0</ele>
        <time>2018-03-05T13:17:34Z</time>
      </trkpt>
      <trkpt lat="38.2845810" lon="-0.6682840">
        <ele>104.0</ele>
        <time>2018-03-05T13:17:35Z</time>
      </trkpt>
      <trkpt lat="38.2846180" lon="-0.6682350">
        <ele>104.0</ele>
        <time>2018-03-05T13:17:36Z</time>
      </trkpt>
      <trkpt lat="38.2846470" lon="-0.6681820">
        <ele>104.0</ele>
        <time>2018-03-05T13:17:37Z</time>
      </trkpt>
      <trkpt lat="38.2846690" lon="-0.6681260">
        <ele>104.0</ele>
        <time>2018-03-05T13:17:38Z</time>
      </trkpt>
      <trkpt lat="38.2846890" lon="-0.6680690">
        <ele>104.0</ele>
        <time>2018-03-05T13:17:39Z</time>
      </trkpt>
      <trkpt lat="38.2847090" lon="-0.6680110">
        <ele>104.0</ele>
        <time>2018-03-05T13:17:40Z</time>
      </trkpt>
      <trkpt lat="38.2847280" lon="-0.6679530">
        <ele>105.0</ele>
        <time>2018-03-05T13:17:41Z</time>
      </trkpt>
      <trkpt lat="38.2847470" lon="-0.6678950">
        <ele>105.0</ele>
        <time>2018-03-05T13:17:42Z</time>
      </trkpt>
      <trkpt lat="38.2847790" lon="-0.6678510">
        <ele>105.0</ele>
        <time>2018-03-05T13:17:43Z</time>
      </trkpt>
      <trkpt lat="38.2848250" lon="-0.6678270">
        <ele>105.0</ele>
        <time>2018-03-05T13:17:44Z</time>
      </trkpt>
      <trkpt lat="38.2848740" lon="-0.6678360">
        <ele>104.0</ele>
        <time>2018-03-05T13:17:45Z</time>
      </trkpt>
      <trkpt lat="38.2849190" lon="-0.6678640">
        <ele>103.0</ele>
        <time>2018-03-05T13:17:46Z</time>
      </trkpt>
      <trkpt lat="38.2849610" lon="-0.6679030">
        <ele>103.0</ele>
        <time>2018-03-05T13:17:47Z</time>
      </trkpt>
      <trkpt lat="38.2850100" lon="-0.6679360">
        <ele>104.0</ele>
        <time>2018-03-05T13:17:48Z</time>
      </trkpt>
      <trkpt lat="38.2850580" lon="-0.6679670">
        <ele>104.0</ele>
        <time>2018-03-05T13:17:49Z</time>
      </trkpt>
      <trkpt lat="38.2851090" lon="-0.6679960">
        <ele>104.0</ele>
        <time>2018-03-05T13:17:50Z</time>
      </trkpt>
      <trkpt lat="38.2851600" lon="-0.6680180">
        <ele>104.0</ele>
        <time>2018-03-05T13:17:51Z</time>
      </trkpt>
      <trkpt lat="38.2852140" lon="-0.6680280">
        <ele>104.0</ele>
        <time>2018-03-05T13:17:52Z</time>
      </trkpt>
      <trkpt lat="38.2852700" lon="-0.6680250">
        <ele>104.0</ele>
        <time>2018-03-05T13:17:53Z</time>
      </trkpt>
      <trkpt lat="38.2853270" lon="-0.6680160">
        <ele>104.0</ele>
        <time>2018-03-05T13:17:54Z</time>
      </trkpt>
      <trkpt lat="38.2853850" lon="-0.6680070">
        <ele>104.0</ele>
        <time>2018-03-05T13:17:55Z</time>
      </trkpt>
      <trkpt lat="38.2854420" lon="-0.6679990">
        <ele>104.0</ele>
        <time>2018-03-05T13:17:56Z</time>
      </trkpt>
      <trkpt lat="38.2855010" lon="-0.6679920">
        <ele>104.0</ele>
        <time>2018-03-05T13:17:57Z</time>
      </trkpt>
      <trkpt lat="38.2855590" lon="-0.6679850">
        <ele>104.0</ele>
        <time>2018-03-05T13:17:58Z</time>
      </trkpt>
      <trkpt lat="38.2856190" lon="-0.6679790">
        <ele>105.0</ele>
        <time>2018-03-05T13:17:59Z</time>
      </trkpt>
      <trkpt lat="38.2856770" lon="-0.6679730">
        <ele>105.0</ele>
        <time>2018-03-05T13:18:00Z</time>
      </trkpt>
      <trkpt lat="38.2857340" lon="-0.6679690">
        <ele>105.0</ele>
        <time>2018-03-05T13:18:01Z</time>
      </trkpt>
      <trkpt lat="38.2857910" lon="-0.6679640">
        <ele>105.0</ele>
        <time>2018-03-05T13:18:02Z</time>
      </trkpt>
      <trkpt lat="38.2858460" lon="-0.6679640">
        <ele>105.0</ele>
        <time>2018-03-05T13:18:03Z</time>
      </trkpt>
      <trkpt lat="38.2858850" lon="-0.6679680">
        <ele>106.0</ele>
        <time>2018-03-05T13:18:04Z</time>
      </trkpt>
      <trkpt lat="38.2859190" lon="-0.6679740">
        <ele>106.0</ele>
        <time>2018-03-05T13:18:05Z</time>
      </trkpt>
      <trkpt lat="38.2859470" lon="-0.6679640">
        <ele>106.0</ele>
        <time>2018-03-05T13:18:06Z</time>
      </trkpt>
      <trkpt lat="38.2859690" lon="-0.6679430">
        <ele>106.0</ele>
        <time>2018-03-05T13:18:07Z</time>
      </trkpt>
      <trkpt lat="38.2859880" lon="-0.6679080">
        <ele>107.0</ele>
        <time>2018-03-05T13:18:08Z</time>
      </trkpt>
      <trkpt lat="38.2860020" lon="-0.6678640">
        <ele>107.0</ele>
        <time>2018-03-05T13:18:09Z</time>
      </trkpt>
      <trkpt lat="38.2860150" lon="-0.6678100">
        <ele>107.0</ele>
        <time>2018-03-05T13:18:10Z</time>
      </trkpt>
      <trkpt lat="38.2860250" lon="-0.6677490">
        <ele>107.0</ele>
        <time>2018-03-05T13:18:11Z</time>
      </trkpt>
      <trkpt lat="38.2860360" lon="-0.6676830">
        <ele>107.0</ele>
        <time>2018-03-05T13:18:12Z</time>
      </trkpt>
      <trkpt lat="38.2860500" lon="-0.6676130">
        <ele>107.0</ele>
        <time>2018-03-05T13:18:13Z</time>
      </trkpt>
      <trkpt lat="38.2860620" lon="-0.6675370">
        <ele>107.0</ele>
        <time>2018-03-05T13:18:14Z</time>
      </trkpt>
      <trkpt lat="38.2860740" lon="-0.6674610">
        <ele>107.0</ele>
        <time>2018-03-05T13:18:15Z</time>
      </trkpt>
      <trkpt lat="38.2860880" lon="-0.6673840">
        <ele>108.0</ele>
        <time>2018-03-05T13:18:16Z</time>
      </trkpt>
      <trkpt lat="38.2861020" lon="-0.6673070">
        <ele>108.0</ele>
        <time>2018-03-05T13:18:17Z</time>
      </trkpt>
      <trkpt lat="38.2861150" lon="-0.6672300">
        <ele>108.0</ele>
        <time>2018-03-05T13:18:18Z</time>
      </trkpt>
      <trkpt lat="38.2861280" lon="-0.6671520">
        <ele>108.0</ele>
        <time>2018-03-05T13:18:19Z</time>
      </trkpt>
      <trkpt lat="38.2861400" lon="-0.6670740">
        <ele>109.0</ele>
        <time>2018-03-05T13:18:20Z</time>
      </trkpt>
      <trkpt lat="38.2861530" lon="-0.6669960">
        <ele>109.0</ele>
        <time>2018-03-05T13:18:21Z</time>
      </trkpt>
      <trkpt lat="38.2861660" lon="-0.6669160">
        <ele>109.0</ele>
        <time>2018-03-05T13:18:22Z</time>
      </trkpt>
      <trkpt lat="38.2861800" lon="-0.6668370">
        <ele>109.0</ele>
        <time>2018-03-05T13:18:23Z</time>
      </trkpt>
      <trkpt lat="38.2861940" lon="-0.6667580">
        <ele>109.0</ele>
        <time>2018-03-05T13:18:24Z</time>
      </trkpt>
      <trkpt lat="38.2862080" lon="-0.6666790">
        <ele>109.0</ele>
        <time>2018-03-05T13:18:25Z</time>
      </trkpt>
      <trkpt lat="38.2862200" lon="-0.6666000">
        <ele>109.0</ele>
        <time>2018-03-05T13:18:26Z</time>
      </trkpt>
      <trkpt lat="38.2862330" lon="-0.6665200">
        <ele>109.0</ele>
        <time>2018-03-05T13:18:27Z</time>
      </trkpt>
      <trkpt lat="38.2862460" lon="-0.6664410">
        <ele>109.0</ele>
        <time>2018-03-05T13:18:28Z</time>
      </trkpt>
      <trkpt lat="38.2862600" lon="-0.6663610">
        <ele>109.0</ele>
        <time>2018-03-05T13:18:29Z</time>
      </trkpt>
      <trkpt lat="38.2862710" lon="-0.6662800">
        <ele>109.0</ele>
        <time>2018-03-05T13:18:30Z</time>
      </trkpt>
      <trkpt lat="38.2862790" lon="-0.6662000">
        <ele>109.0</ele>
        <time>2018-03-05T13:18:31Z</time>
      </trkpt>
      <trkpt lat="38.2862660" lon="-0.6661180">
        <ele>109.0</ele>
        <time>2018-03-05T13:18:32Z</time>
      </trkpt>
      <trkpt lat="38.2862430" lon="-0.6660420">
        <ele>109.0</ele>
        <time>2018-03-05T13:18:33Z</time>
      </trkpt>
      <trkpt lat="38.2862090" lon="-0.6659630">
        <ele>109.0</ele>
        <time>2018-03-05T13:18:34Z</time>
      </trkpt>
      <trkpt lat="38.2861660" lon="-0.6658880">
        <ele>109.0</ele>
        <time>2018-03-05T13:18:35Z</time>
      </trkpt>
      <trkpt lat="38.2861230" lon="-0.6658120">
        <ele>109.0</ele>
        <time>2018-03-05T13:18:36Z</time>
      </trkpt>
      <trkpt lat="38.2860850" lon="-0.6657320">
        <ele>109.0</ele>
        <time>2018-03-05T13:18:37Z</time>
      </trkpt>
      <trkpt lat="38.2860530" lon="-0.6656470">
        <ele>109.0</ele>
        <time>2018-03-05T13:18:38Z</time>
      </trkpt>
      <trkpt lat="38.2860290" lon="-0.6655560">
        <ele>108.0</ele>
        <time>2018-03-05T13:18:39Z</time>
      </trkpt>
      <trkpt lat="38.2860130" lon="-0.6654630">
        <ele>108.0</ele>
        <time>2018-03-05T13:18:40Z</time>
      </trkpt>
      <trkpt lat="38.2860090" lon="-0.6653680">
        <ele>108.0</ele>
        <time>2018-03-05T13:18:41Z</time>
      </trkpt>
      <trkpt lat="38.2860170" lon="-0.6652740">
        <ele>108.0</ele>
        <time>2018-03-05T13:18:42Z</time>
      </trkpt>
      <trkpt lat="38.2860390" lon="-0.6651860">
        <ele>108.0</ele>
        <time>2018-03-05T13:18:43Z</time>
      </trkpt>
      <trkpt lat="38.2860660" lon="-0.6650990">
        <ele>108.0</ele>
        <time>2018-03-05T13:18:44Z</time>
      </trkpt>
      <trkpt lat="38.2861020" lon="-0.6650170">
        <ele>108.0</ele>
        <time>2018-03-05T13:18:45Z</time>
      </trkpt>
      <trkpt lat="38.2861450" lon="-0.6649430">
        <ele>108.0</ele>
        <time>2018-03-05T13:18:46Z</time>
      </trkpt>
      <trkpt lat="38.2861950" lon="-0.6648730">
        <ele>108.0</ele>
        <time>2018-03-05T13:18:47Z</time>
      </trkpt>
      <trkpt lat="38.2862500" lon="-0.6648100">
        <ele>108.0</ele>
        <time>2018-03-05T13:18:48Z</time>
      </trkpt>
      <trkpt lat="38.2863110" lon="-0.6647570">
        <ele>108.0</ele>
        <time>2018-03-05T13:18:49Z</time>
      </trkpt>
      <trkpt lat="38.2863750" lon="-0.6647130">
        <ele>108.0</ele>
        <time>2018-03-05T13:18:50Z</time>
      </trkpt>
      <trkpt lat="38.2864340" lon="-0.6646620">
        <ele>108.0</ele>
        <time>2018-03-05T13:18:51Z</time>
      </trkpt>
      <trkpt lat="38.2864870" lon="-0.6645970">
        <ele>109.0</ele>
        <time>2018-03-05T13:18:52Z</time>
      </trkpt>
      <trkpt lat="38.2865230" lon="-0.6645230">
        <ele>109.0</ele>
        <time>2018-03-05T13:18:53Z</time>
      </trkpt>
      <trkpt lat="38.2865220" lon="-0.6644410">
        <ele>107.0</ele>
        <time>2018-03-05T13:18:54Z</time>
      </trkpt>
      <trkpt lat="38.2865260" lon="-0.6643450">
        <ele>107.0</ele>
        <time>2018-03-05T13:18:55Z</time>
      </trkpt>
      <trkpt lat="38.2865390" lon="-0.6642490">
        <ele>107.0</ele>
        <time>2018-03-05T13:18:56Z</time>
      </trkpt>
      <trkpt lat="38.2865580" lon="-0.6641540">
        <ele>107.0</ele>
        <time>2018-03-05T13:18:57Z</time>
      </trkpt>
      <trkpt lat="38.2865770" lon="-0.6640580">
        <ele>107.0</ele>
        <time>2018-03-05T13:18:58Z</time>
      </trkpt>
      <trkpt lat="38.2865950" lon="-0.6639610">
        <ele>107.0</ele>
        <time>2018-03-05T13:18:59Z</time>
      </trkpt>
      <trkpt lat="38.2866120" lon="-0.6638640">
        <ele>107.0</ele>
        <time>2018-03-05T13:19:00Z</time>
      </trkpt>
      <trkpt lat="38.2866290" lon="-0.6637690">
        <ele>107.0</ele>
        <time>2018-03-05T13:19:01Z</time>
      </trkpt>
      <trkpt lat="38.2866460" lon="-0.6636730">
        <ele>107.0</ele>
        <time>2018-03-05T13:19:02Z</time>
      </trkpt>
      <trkpt lat="38.2866640" lon="-0.6635790">
        <ele>107.0</ele>
        <time>2018-03-05T13:19:03Z</time>
      </trkpt>
      <trkpt lat="38.2866820" lon="-0.6634870">
        <ele>107.0</ele>
        <time>2018-03-05T13:19:04Z</time>
      </trkpt>
      <trkpt lat="38.2867020" lon="-0.6633960">
        <ele>107.0</ele>
        <time>2018-03-05T13:19:05Z</time>
      </trkpt>
      <trkpt lat="38.2867210" lon="-0.6633060">
        <ele>107.0</ele>
        <time>2018-03-05T13:19:06Z</time>
      </trkpt>
      <trkpt lat="38.2867330" lon="-0.6632130">
        <ele>107.0</ele>
        <time>2018-03-05T13:19:07Z</time>
      </trkpt>
      <trkpt lat="38.2867300" lon="-0.6631170">
        <ele>107.0</ele>
        <time>2018-03-05T13:19:08Z</time>
      </trkpt>
      <trkpt lat="38.2867090" lon="-0.6630220">
        <ele>106.0</ele>
        <time>2018-03-05T13:19:09Z</time>
      </trkpt>
      <trkpt lat="38.2866580" lon="-0.6629400">
        <ele>104.0</ele>
        <time>2018-03-05T13:19:10Z</time>
      </trkpt>
      <trkpt lat="38.2865930" lon="-0.6628670">
        <ele>104.0</ele>
        <time>2018-03-05T13:19:11Z</time>
      </trkpt>
      <trkpt lat="38.2865330" lon="-0.6627820">
        <ele>104.0</ele>
        <time>2018-03-05T13:19:12Z</time>
      </trkpt>
      <trkpt lat="38.2864840" lon="-0.6626920">
        <ele>103.0</ele>
        <time>2018-03-05T13:19:13Z</time>
      </trkpt>
      <trkpt lat="38.2864410" lon="-0.6625940">
        <ele>103.0</ele>
        <time>2018-03-05T13:19:14Z</time>
      </trkpt>
      <trkpt lat="38.2864040" lon="-0.6624950">
        <ele>102.0</ele>
        <time>2018-03-05T13:19:15Z</time>
      </trkpt>
      <trkpt lat="38.2863790" lon="-0.6623930">
        <ele>102.0</ele>
        <time>2018-03-05T13:19:16Z</time>
      </trkpt>
      <trkpt lat="38.2863740" lon="-0.6622930">
        <ele>101.0</ele>
        <time>2018-03-05T13:19:17Z</time>
      </trkpt>
      <trkpt lat="38.2863870" lon="-0.6621910">
        <ele>100.0</ele>
        <time>2018-03-05T13:19:18Z</time>
      </trkpt>
      <trkpt lat="38.2864170" lon="-0.6620970">
        <ele>101.0</ele>
        <time>2018-03-05T13:19:19Z</time>
      </trkpt>
      <trkpt lat="38.2864490" lon="-0.6619970">
        <ele>101.0</ele>
        <time>2018-03-05T13:19:20Z</time>
      </trkpt>
      <trkpt lat="38.2864810" lon="-0.6619000">
        <ele>102.0</ele>
        <time>2018-03-05T13:19:21Z</time>
      </trkpt>
      <trkpt lat="38.2865140" lon="-0.6618020">
        <ele>102.0</ele>
        <time>2018-03-05T13:19:22Z</time>
      </trkpt>
      <trkpt lat="38.2865490" lon="-0.6617040">
        <ele>102.0</ele>
        <time>2018-03-05T13:19:23Z</time>
      </trkpt>
      <trkpt lat="38.2865830" lon="-0.6616060">
        <ele>102.0</ele>
        <time>2018-03-05T13:19:24Z</time>
      </trkpt>
      <trkpt lat="38.2866200" lon="-0.6615080">
        <ele>102.0</ele>
        <time>2018-03-05T13:19:25Z</time>
      </trkpt>
      <trkpt lat="38.2866560" lon="-0.6614100">
        <ele>102.0</ele>
        <time>2018-03-05T13:19:26Z</time>
      </trkpt>
      <trkpt lat="38.2866920" lon="-0.6613120">
        <ele>102.0</ele>
        <time>2018-03-05T13:19:27Z</time>
      </trkpt>
      <trkpt lat="38.2867280" lon="-0.6612130">
        <ele>102.0</ele>
        <time>2018-03-05T13:19:28Z</time>
      </trkpt>
      <trkpt lat="38.2867670" lon="-0.6611160">
        <ele>102.0</ele>
        <time>2018-03-05T13:19:29Z</time>
      </trkpt>
      <trkpt lat="38.2868100" lon="-0.6610220">
        <ele>102.0</ele>
        <time>2018-03-05T13:19:30Z</time>
      </trkpt>
      <trkpt lat="38.2868640" lon="-0.6609330">
        <ele>102.0</ele>
        <time>2018-03-05T13:19:31Z</time>
      </trkpt>
      <trkpt lat="38.2869270" lon="-0.6608530">
        <ele>101.0</ele>
        <time>2018-03-05T13:19:32Z</time>
      </trkpt>
      <trkpt lat="38.2869970" lon="-0.6607800">
        <ele>101.0</ele>
        <time>2018-03-05T13:19:33Z</time>
      </trkpt>
      <trkpt lat="38.2870740" lon="-0.6607100">
        <ele>101.0</ele>
        <time>2018-03-05T13:19:34Z</time>
      </trkpt>
      <trkpt lat="38.2871580" lon="-0.6606440">
        <ele>100.0</ele>
        <time>2018-03-05T13:19:35Z</time>
      </trkpt>
      <trkpt lat="38.2872480" lon="-0.6605840">
        <ele>100.0</ele>
        <time>2018-03-05T13:19:36Z</time>
      </trkpt>
      <trkpt lat="38.2873360" lon="-0.6605300">
        <ele>99.0</ele>
        <time>2018-03-05T13:19:37Z</time>
      </trkpt>
      <trkpt lat="38.2874340" lon="-0.6604850">
        <ele>99.0</ele>
        <time>2018-03-05T13:19:38Z</time>
      </trkpt>
      <trkpt lat="38.2875260" lon="-0.6604370">
        <ele>99.0</ele>
        <time>2018-03-05T13:19:39Z</time>
      </trkpt>
      <trkpt lat="38.2876240" lon="-0.6604020">
        <ele>99.0</ele>
        <time>2018-03-05T13:19:40Z</time>
      </trkpt>
      <trkpt lat="38.2877160" lon="-0.6603620">
        <ele>99.0</ele>
        <time>2018-03-05T13:19:41Z</time>
      </trkpt>
      <trkpt lat="38.2878110" lon="-0.6603280">
        <ele>99.0</ele>
        <time>2018-03-05T13:19:42Z</time>
      </trkpt>
      <trkpt lat="38.2879050" lon="-0.6602940">
        <ele>99.0</ele>
        <time>2018-03-05T13:19:43Z</time>
      </trkpt>
      <trkpt lat="38.2879870" lon="-0.6602370">
        <ele>100.0</ele>
        <time>2018-03-05T13:19:44Z</time>
      </trkpt>
      <trkpt lat="38.2880640" lon="-0.6601840">
        <ele>102.0</ele>
        <time>2018-03-05T13:19:45Z</time>
      </trkpt>
      <trkpt lat="38.2881330" lon="-0.6601380">
        <ele>102.0</ele>
        <time>2018-03-05T13:19:46Z</time>
      </trkpt>
      <trkpt lat="38.2882030" lon="-0.6600840">
        <ele>102.0</ele>
        <time>2018-03-05T13:19:47Z</time>
      </trkpt>
      <trkpt lat="38.2882630" lon="-0.6600290">
        <ele>103.0</ele>
        <time>2018-03-05T13:19:48Z</time>
      </trkpt>
      <trkpt lat="38.2883160" lon="-0.6599800">
        <ele>104.0</ele>
        <time>2018-03-05T13:19:49Z</time>
      </trkpt>
      <trkpt lat="38.2883660" lon="-0.6599350">
        <ele>104.0</ele>
        <time>2018-03-05T13:19:50Z</time>
      </trkpt>
      <trkpt lat="38.2884140" lon="-0.6598870">
        <ele>104.0</ele>
        <time>2018-03-05T13:19:51Z</time>
      </trkpt>
      <trkpt lat="38.2884630" lon="-0.6598380">
        <ele>105.0</ele>
        <time>2018-03-05T13:19:52Z</time>
      </trkpt>
      <trkpt lat="38.2885140" lon="-0.6597880">
        <ele>105.0</ele>
        <time>2018-03-05T13:19:53Z</time>
      </trkpt>
      <trkpt lat="38.2885640" lon="-0.6597350">
        <ele>105.0</ele>
        <time>2018-03-05T13:19:54Z</time>
      </trkpt>
      <trkpt lat="38.2886130" lon="-0.6596770">
        <ele>105.0</ele>
        <time>2018-03-05T13:19:55Z</time>
      </trkpt>
      <trkpt lat="38.2886660" lon="-0.6596210">
        <ele>105.0</ele>
        <time>2018-03-05T13:19:56Z</time>
      </trkpt>
      <trkpt lat="38.2887270" lon="-0.6595710">
        <ele>105.0</ele>
        <time>2018-03-05T13:19:57Z</time>
      </trkpt>
      <trkpt lat="38.2887890" lon="-0.6595230">
        <ele>105.0</ele>
        <time>2018-03-05T13:19:58Z</time>
      </trkpt>
      <trkpt lat="38.2888520" lon="-0.6594790">
        <ele>104.0</ele>
        <time>2018-03-05T13:19:59Z</time>
      </trkpt>
      <trkpt lat="38.2889150" lon="-0.6594290">
        <ele>104.0</ele>
        <time>2018-03-05T13:20:00Z</time>
      </trkpt>
      <trkpt lat="38.2889720" lon="-0.6593690">
        <ele>104.0</ele>
        <time>2018-03-05T13:20:01Z</time>
      </trkpt>
      <trkpt lat="38.2890320" lon="-0.6593000">
        <ele>104.0</ele>
        <time>2018-03-05T13:20:02Z</time>
      </trkpt>
      <trkpt lat="38.2890920" lon="-0.6592340">
        <ele>104.0</ele>
        <time>2018-03-05T13:20:03Z</time>
      </trkpt>
      <trkpt lat="38.2891520" lon="-0.6591670">
        <ele>104.0</ele>
        <time>2018-03-05T13:20:04Z</time>
      </trkpt>
      <trkpt lat="38.2892140" lon="-0.6590990">
        <ele>104.0</ele>
        <time>2018-03-05T13:20:05Z</time>
      </trkpt>
      <trkpt lat="38.2892760" lon="-0.6590320">
        <ele>104.0</ele>
        <time>2018-03-05T13:20:06Z</time>
      </trkpt>
      <trkpt lat="38.2893380" lon="-0.6589650">
        <ele>104.0</ele>
        <time>2018-03-05T13:20:07Z</time>
      </trkpt>
      <trkpt lat="38.2894010" lon="-0.6588970">
        <ele>104.0</ele>
        <time>2018-03-05T13:20:08Z</time>
      </trkpt>
      <trkpt lat="38.2894640" lon="-0.6588280">
        <ele>104.0</ele>
        <time>2018-03-05T13:20:09Z</time>
      </trkpt>
      <trkpt lat="38.2895280" lon="-0.6587600">
        <ele>104.0</ele>
        <time>2018-03-05T13:20:10Z</time>
      </trkpt>
      <trkpt lat="38.2895920" lon="-0.6586920">
        <ele>105.0</ele>
        <time>2018-03-05T13:20:11Z</time>
      </trkpt>
      <trkpt lat="38.2896560" lon="-0.6586250">
        <ele>105.0</ele>
        <time>2018-03-05T13:20:12Z</time>
      </trkpt>
      <trkpt lat="38.2897190" lon="-0.6585580">
        <ele>105.0</ele>
        <time>2018-03-05T13:20:13Z</time>
      </trkpt>
      <trkpt lat="38.2897810" lon="-0.6584930">
        <ele>105.0</ele>
        <time>2018-03-05T13:20:14Z</time>
      </trkpt>
      <trkpt lat="38.2898430" lon="-0.6584260">
        <ele>105.0</ele>
        <time>2018-03-05T13:20:15Z</time>
      </trkpt>
      <trkpt lat="38.2899030" lon="-0.6583590">
        <ele>105.0</ele>
        <time>2018-03-05T13:20:16Z</time>
      </trkpt>
      <trkpt lat="38.2899590" lon="-0.6582910">
        <ele>105.0</ele>
        <time>2018-03-05T13:20:17Z</time>
      </trkpt>
      <trkpt lat="38.2900140" lon="-0.6582200">
        <ele>105.0</ele>
        <time>2018-03-05T13:20:18Z</time>
      </trkpt>
      <trkpt lat="38.2900680" lon="-0.6581480">
        <ele>106.0</ele>
        <time>2018-03-05T13:20:19Z</time>
      </trkpt>
      <trkpt lat="38.2901220" lon="-0.6580750">
        <ele>106.0</ele>
        <time>2018-03-05T13:20:20Z</time>
      </trkpt>
      <trkpt lat="38.2901770" lon="-0.6580020">
        <ele>106.0</ele>
        <time>2018-03-05T13:20:21Z</time>
      </trkpt>
      <trkpt lat="38.2902290" lon="-0.6579290">
        <ele>106.0</ele>
        <time>2018-03-05T13:20:22Z</time>
      </trkpt>
      <trkpt lat="38.2902810" lon="-0.6578470">
        <ele>106.0</ele>
        <time>2018-03-05T13:20:23Z</time>
      </trkpt>
      <trkpt lat="38.2903320" lon="-0.6577670">
        <ele>105.0</ele>
        <time>2018-03-05T13:20:24Z</time>
      </trkpt>
      <trkpt lat="38.2903850" lon="-0.6576850">
        <ele>105.0</ele>
        <time>2018-03-05T13:20:25Z</time>
      </trkpt>
      <trkpt lat="38.2904390" lon="-0.6576050">
        <ele>105.0</ele>
        <time>2018-03-05T13:20:26Z</time>
      </trkpt>
      <trkpt lat="38.2904940" lon="-0.6575240">
        <ele>105.0</ele>
        <time>2018-03-05T13:20:27Z</time>
      </trkpt>
      <trkpt lat="38.2905510" lon="-0.6574410">
        <ele>105.0</ele>
        <time>2018-03-05T13:20:28Z</time>
      </trkpt>
      <trkpt lat="38.2906080" lon="-0.6573580">
        <ele>105.0</ele>
        <time>2018-03-05T13:20:29Z</time>
      </trkpt>
      <trkpt lat="38.2906650" lon="-0.6572750">
        <ele>105.0</ele>
        <time>2018-03-05T13:20:30Z</time>
      </trkpt>
      <trkpt lat="38.2907220" lon="-0.6571910">
        <ele>104.0</ele>
        <time>2018-03-05T13:20:31Z</time>
      </trkpt>
      <trkpt lat="38.2907770" lon="-0.6571080">
        <ele>104.0</ele>
        <time>2018-03-05T13:20:32Z</time>
      </trkpt>
      <trkpt lat="38.2908300" lon="-0.6570240">
        <ele>104.0</ele>
        <time>2018-03-05T13:20:33Z</time>
      </trkpt>
      <trkpt lat="38.2908780" lon="-0.6569380">
        <ele>105.0</ele>
        <time>2018-03-05T13:20:34Z</time>
      </trkpt>
      <trkpt lat="38.2909260" lon="-0.6568520">
        <ele>105.0</ele>
        <time>2018-03-05T13:20:35Z</time>
      </trkpt>
      <trkpt lat="38.2909750" lon="-0.6567700">
        <ele>105.0</ele>
        <time>2018-03-05T13:20:36Z</time>
      </trkpt>
      <trkpt lat="38.2910260" lon="-0.6566900">
        <ele>106.0</ele>
        <time>2018-03-05T13:20:37Z</time>
      </trkpt>
      <trkpt lat="38.2910800" lon="-0.6566140">
        <ele>106.0</ele>
        <time>2018-03-05T13:20:38Z</time>
      </trkpt>
      <trkpt lat="38.2911360" lon="-0.6565410">
        <ele>106.0</ele>
        <time>2018-03-05T13:20:39Z</time>
      </trkpt>
      <trkpt lat="38.2911920" lon="-0.6564700">
        <ele>106.0</ele>
        <time>2018-03-05T13:20:40Z</time>
      </trkpt>
      <trkpt lat="38.2912500" lon="-0.6564020">
        <ele>106.0</ele>
        <time>2018-03-05T13:20:41Z</time>
      </trkpt>
      <trkpt lat="38.2913080" lon="-0.6563340">
        <ele>106.0</ele>
        <time>2018-03-05T13:20:42Z</time>
      </trkpt>
      <trkpt lat="38.2913650" lon="-0.6562640">
        <ele>106.0</ele>
        <time>2018-03-05T13:20:43Z</time>
      </trkpt>
      <trkpt lat="38.2914230" lon="-0.6561940">
        <ele>106.0</ele>
        <time>2018-03-05T13:20:44Z</time>
      </trkpt>
      <trkpt lat="38.2914810" lon="-0.6561220">
        <ele>106.0</ele>
        <time>2018-03-05T13:20:45Z</time>
      </trkpt>
      <trkpt lat="38.2915380" lon="-0.6560490">
        <ele>106.0</ele>
        <time>2018-03-05T13:20:46Z</time>
      </trkpt>
      <trkpt lat="38.2915910" lon="-0.6559700">
        <ele>106.0</ele>
        <time>2018-03-05T13:20:47Z</time>
      </trkpt>
      <trkpt lat="38.2916410" lon="-0.6558880">
        <ele>106.0</ele>
        <time>2018-03-05T13:20:48Z</time>
      </trkpt>
      <trkpt lat="38.2916870" lon="-0.6558000">
        <ele>105.0</ele>
        <time>2018-03-05T13:20:49Z</time>
      </trkpt>
      <trkpt lat="38.2917330" lon="-0.6557100">
        <ele>105.0</ele>
        <time>2018-03-05T13:20:50Z</time>
      </trkpt>
      <trkpt lat="38.2917810" lon="-0.6556200">
        <ele>105.0</ele>
        <time>2018-03-05T13:20:51Z</time>
      </trkpt>
      <trkpt lat="38.2918320" lon="-0.6555280">
        <ele>104.0</ele>
        <time>2018-03-05T13:20:52Z</time>
      </trkpt>
      <trkpt lat="38.2918870" lon="-0.6554320">
        <ele>103.0</ele>
        <time>2018-03-05T13:20:53Z</time>
      </trkpt>
      <trkpt lat="38.2919440" lon="-0.6553340">
        <ele>102.0</ele>
        <time>2018-03-05T13:20:54Z</time>
      </trkpt>
      <trkpt lat="38.2920010" lon="-0.6552350">
        <ele>102.0</ele>
        <time>2018-03-05T13:20:55Z</time>
      </trkpt>
      <trkpt lat="38.2920590" lon="-0.6551360">
        <ele>101.0</ele>
        <time>2018-03-05T13:20:56Z</time>
      </trkpt>
      <trkpt lat="38.2921170" lon="-0.6550370">
        <ele>101.0</ele>
        <time>2018-03-05T13:20:57Z</time>
      </trkpt>
      <trkpt lat="38.2921730" lon="-0.6549380">
        <ele>101.0</ele>
        <time>2018-03-05T13:20:58Z</time>
      </trkpt>
      <trkpt lat="38.2922290" lon="-0.6548420">
        <ele>101.0</ele>
        <time>2018-03-05T13:20:59Z</time>
      </trkpt>
      <trkpt lat="38.2922830" lon="-0.6547470">
        <ele>101.0</ele>
        <time>2018-03-05T13:21:00Z</time>
      </trkpt>
      <trkpt lat="38.2923330" lon="-0.6546560">
        <ele>102.0</ele>
        <time>2018-03-05T13:21:01Z</time>
      </trkpt>
      <trkpt lat="38.2923840" lon="-0.6545770">
        <ele>103.0</ele>
        <time>2018-03-05T13:21:02Z</time>
      </trkpt>
      <trkpt lat="38.2924350" lon="-0.6545030">
        <ele>103.0</ele>
        <time>2018-03-05T13:21:03Z</time>
      </trkpt>
      <trkpt lat="38.2924920" lon="-0.6544360">
        <ele>104.0</ele>
        <time>2018-03-05T13:21:04Z</time>
      </trkpt>
      <trkpt lat="38.2925520" lon="-0.6543870">
        <ele>105.0</ele>
        <time>2018-03-05T13:21:05Z</time>
      </trkpt>
      <trkpt lat="38.2926050" lon="-0.6543410">
        <ele>106.0</ele>
        <time>2018-03-05T13:21:06Z</time>
      </trkpt>
      <trkpt lat="38.2926560" lon="-0.6542960">
        <ele>106.0</ele>
        <time>2018-03-05T13:21:07Z</time>
      </trkpt>
      <trkpt lat="38.2927040" lon="-0.6542590">
        <ele>107.0</ele>
        <time>2018-03-05T13:21:08Z</time>
      </trkpt>
      <trkpt lat="38.2927530" lon="-0.6542240">
        <ele>108.0</ele>
        <time>2018-03-05T13:21:09Z</time>
      </trkpt>
      <trkpt lat="38.2928060" lon="-0.6541850">
        <ele>108.0</ele>
        <time>2018-03-05T13:21:10Z</time>
      </trkpt>
      <trkpt lat="38.2928580" lon="-0.6541470">
        <ele>108.0</ele>
        <time>2018-03-05T13:21:11Z</time>
      </trkpt>
      <trkpt lat="38.2929130" lon="-0.6541120">
        <ele>109.0</ele>
        <time>2018-03-05T13:21:12Z</time>
      </trkpt>
      <trkpt lat="38.2929650" lon="-0.6540830">
        <ele>108.0</ele>
        <time>2018-03-05T13:21:13Z</time>
      </trkpt>
      <trkpt lat="38.2930220" lon="-0.6540520">
        <ele>108.0</ele>
        <time>2018-03-05T13:21:14Z</time>
      </trkpt>
      <trkpt lat="38.2930780" lon="-0.6540190">
        <ele>108.0</ele>
        <time>2018-03-05T13:21:15Z</time>
      </trkpt>
      <trkpt lat="38.2931340" lon="-0.6539780">
        <ele>108.0</ele>
        <time>2018-03-05T13:21:16Z</time>
      </trkpt>
      <trkpt lat="38.2931900" lon="-0.6539350">
        <ele>108.0</ele>
        <time>2018-03-05T13:21:17Z</time>
      </trkpt>
      <trkpt lat="38.2932460" lon="-0.6538860">
        <ele>108.0</ele>
        <time>2018-03-05T13:21:18Z</time>
      </trkpt>
      <trkpt lat="38.2933010" lon="-0.6538360">
        <ele>109.0</ele>
        <time>2018-03-05T13:21:19Z</time>
      </trkpt>
      <trkpt lat="38.2933540" lon="-0.6537860">
        <ele>109.0</ele>
        <time>2018-03-05T13:21:20Z</time>
      </trkpt>
      <trkpt lat="38.2934080" lon="-0.6537350">
        <ele>109.0</ele>
        <time>2018-03-05T13:21:21Z</time>
      </trkpt>
      <trkpt lat="38.2934590" lon="-0.6536840">
        <ele>109.0</ele>
        <time>2018-03-05T13:21:22Z</time>
      </trkpt>
      <trkpt lat="38.2935110" lon="-0.6536310">
        <ele>109.0</ele>
        <time>2018-03-05T13:21:23Z</time>
      </trkpt>
      <trkpt lat="38.2935630" lon="-0.6535790">
        <ele>110.0</ele>
        <time>2018-03-05T13:21:24Z</time>
      </trkpt>
      <trkpt lat="38.2936140" lon="-0.6535260">
        <ele>110.0</ele>
        <time>2018-03-05T13:21:25Z</time>
      </trkpt>
      <trkpt lat="38.2936640" lon="-0.6534710">
        <ele>110.0</ele>
        <time>2018-03-05T13:21:26Z</time>
      </trkpt>
      <trkpt lat="38.2937140" lon="-0.6534160">
        <ele>110.0</ele>
        <time>2018-03-05T13:21:27Z</time>
      </trkpt>
      <trkpt lat="38.2937620" lon="-0.6533600">
        <ele>110.0</ele>
        <time>2018-03-05T13:21:28Z</time>
      </trkpt>
      <trkpt lat="38.2938090" lon="-0.6532990">
        <ele>110.0</ele>
        <time>2018-03-05T13:21:29Z</time>
      </trkpt>
      <trkpt lat="38.2938500" lon="-0.6532360">
        <ele>111.0</ele>
        <time>2018-03-05T13:21:30Z</time>
      </trkpt>
      <trkpt lat="38.2938870" lon="-0.6531670">
        <ele>111.0</ele>
        <time>2018-03-05T13:21:31Z</time>
      </trkpt>
      <trkpt lat="38.2939230" lon="-0.6530940">
        <ele>111.0</ele>
        <time>2018-03-05T13:21:32Z</time>
      </trkpt>
      <trkpt lat="38.2939570" lon="-0.6530200">
        <ele>111.0</ele>
        <time>2018-03-05T13:21:33Z</time>
      </trkpt>
      <trkpt lat="38.2939890" lon="-0.6529430">
        <ele>111.0</ele>
        <time>2018-03-05T13:21:34Z</time>
      </trkpt>
      <trkpt lat="38.2940200" lon="-0.6528640">
        <ele>111.0</ele>
        <time>2018-03-05T13:21:35Z</time>
      </trkpt>
      <trkpt lat="38.2940500" lon="-0.6527830">
        <ele>111.0</ele>
        <time>2018-03-05T13:21:36Z</time>
      </trkpt>
      <trkpt lat="38.2940780" lon="-0.6527000">
        <ele>111.0</ele>
        <time>2018-03-05T13:21:37Z</time>
      </trkpt>
      <trkpt lat="38.2941060" lon="-0.6526160">
        <ele>111.0</ele>
        <time>2018-03-05T13:21:38Z</time>
      </trkpt>
      <trkpt lat="38.2941340" lon="-0.6525310">
        <ele>111.0</ele>
        <time>2018-03-05T13:21:39Z</time>
      </trkpt>
      <trkpt lat="38.2941620" lon="-0.6524460">
        <ele>111.0</ele>
        <time>2018-03-05T13:21:40Z</time>
      </trkpt>
      <trkpt lat="38.2941890" lon="-0.6523600">
        <ele>111.0</ele>
        <time>2018-03-05T13:21:41Z</time>
      </trkpt>
      <trkpt lat="38.2942150" lon="-0.6522720">
        <ele>111.0</ele>
        <time>2018-03-05T13:21:42Z</time>
      </trkpt>
      <trkpt lat="38.2942400" lon="-0.6521850">
        <ele>111.0</ele>
        <time>2018-03-05T13:21:43Z</time>
      </trkpt>
      <trkpt lat="38.2942670" lon="-0.6520980">
        <ele>111.0</ele>
        <time>2018-03-05T13:21:44Z</time>
      </trkpt>
      <trkpt lat="38.2942940" lon="-0.6520100">
        <ele>111.0</ele>
        <time>2018-03-05T13:21:45Z</time>
      </trkpt>
      <trkpt lat="38.2943190" lon="-0.6519200">
        <ele>111.0</ele>
        <time>2018-03-05T13:21:46Z</time>
      </trkpt>
      <trkpt lat="38.2943460" lon="-0.6518310">
        <ele>111.0</ele>
        <time>2018-03-05T13:21:47Z</time>
      </trkpt>
      <trkpt lat="38.2943730" lon="-0.6517400">
        <ele>111.0</ele>
        <time>2018-03-05T13:21:48Z</time>
      </trkpt>
      <trkpt lat="38.2943990" lon="-0.6516480">
        <ele>111.0</ele>
        <time>2018-03-05T13:21:49Z</time>
      </trkpt>
      <trkpt lat="38.2944230" lon="-0.6515550">
        <ele>111.0</ele>
        <time>2018-03-05T13:21:50Z</time>
      </trkpt>
      <trkpt lat="38.2944450" lon="-0.6514610">
        <ele>111.0</ele>
        <time>2018-03-05T13:21:51Z</time>
      </trkpt>
      <trkpt lat="38.2944660" lon="-0.6513670">
        <ele>111.0</ele>
        <time>2018-03-05T13:21:52Z</time>
      </trkpt>
      <trkpt lat="38.2944910" lon="-0.6512740">
        <ele>111.0</ele>
        <time>2018-03-05T13:21:53Z</time>
      </trkpt>
      <trkpt lat="38.2945190" lon="-0.6511830">
        <ele>112.0</ele>
        <time>2018-03-05T13:21:54Z</time>
      </trkpt>
      <trkpt lat="38.2945520" lon="-0.6510930">
        <ele>112.0</ele>
        <time>2018-03-05T13:21:55Z</time>
      </trkpt>
      <trkpt lat="38.2945900" lon="-0.6510050">
        <ele>112.0</ele>
        <time>2018-03-05T13:21:56Z</time>
      </trkpt>
      <trkpt lat="38.2946340" lon="-0.6509200">
        <ele>111.0</ele>
        <time>2018-03-05T13:21:57Z</time>
      </trkpt>
      <trkpt lat="38.2946820" lon="-0.6508400">
        <ele>111.0</ele>
        <time>2018-03-05T13:21:58Z</time>
      </trkpt>
      <trkpt lat="38.2947270" lon="-0.6507590">
        <ele>111.0</ele>
        <time>2018-03-05T13:21:59Z</time>
      </trkpt>
      <trkpt lat="38.2947690" lon="-0.6506760">
        <ele>112.0</ele>
        <time>2018-03-05T13:22:00Z</time>
      </trkpt>
      <trkpt lat="38.2948100" lon="-0.6505900">
        <ele>112.0</ele>
        <time>2018-03-05T13:22:01Z</time>
      </trkpt>
      <trkpt lat="38.2948480" lon="-0.6505070">
        <ele>112.0</ele>
        <time>2018-03-05T13:22:02Z</time>
      </trkpt>
      <trkpt lat="38.2948830" lon="-0.6504240">
        <ele>112.0</ele>
        <time>2018-03-05T13:22:03Z</time>
      </trkpt>
      <trkpt lat="38.2949180" lon="-0.6503370">
        <ele>112.0</ele>
        <time>2018-03-05T13:22:04Z</time>
      </trkpt>
      <trkpt lat="38.2949530" lon="-0.6502500">
        <ele>112.0</ele>
        <time>2018-03-05T13:22:05Z</time>
      </trkpt>
      <trkpt lat="38.2949870" lon="-0.6501630">
        <ele>112.0</ele>
        <time>2018-03-05T13:22:06Z</time>
      </trkpt>
      <trkpt lat="38.2950190" lon="-0.6500720">
        <ele>112.0</ele>
        <time>2018-03-05T13:22:07Z</time>
      </trkpt>
      <trkpt lat="38.2950510" lon="-0.6499840">
        <ele>112.0</ele>
        <time>2018-03-05T13:22:08Z</time>
      </trkpt>
      <trkpt lat="38.2950850" lon="-0.6498940">
        <ele>112.0</ele>
        <time>2018-03-05T13:22:09Z</time>
      </trkpt>
      <trkpt lat="38.2951180" lon="-0.6498080">
        <ele>113.0</ele>
        <time>2018-03-05T13:22:10Z</time>
      </trkpt>
      <trkpt lat="38.2951510" lon="-0.6497170">
        <ele>113.0</ele>
        <time>2018-03-05T13:22:11Z</time>
      </trkpt>
      <trkpt lat="38.2951830" lon="-0.6496250">
        <ele>113.0</ele>
        <time>2018-03-05T13:22:12Z</time>
      </trkpt>
      <trkpt lat="38.2952140" lon="-0.6495330">
        <ele>113.0</ele>
        <time>2018-03-05T13:22:13Z</time>
      </trkpt>
      <trkpt lat="38.2952440" lon="-0.6494400">
        <ele>113.0</ele>
        <time>2018-03-05T13:22:14Z</time>
      </trkpt>
      <trkpt lat="38.2952740" lon="-0.6493480">
        <ele>113.0</ele>
        <time>2018-03-05T13:22:15Z</time>
      </trkpt>
      <trkpt lat="38.2953010" lon="-0.6492510">
        <ele>112.0</ele>
        <time>2018-03-05T13:22:16Z</time>
      </trkpt>
      <trkpt lat="38.2953290" lon="-0.6491570">
        <ele>112.0</ele>
        <time>2018-03-05T13:22:17Z</time>
      </trkpt>
      <trkpt lat="38.2953510" lon="-0.6490600">
        <ele>112.0</ele>
        <time>2018-03-05T13:22:18Z</time>
      </trkpt>
      <trkpt lat="38.2953740" lon="-0.6489630">
        <ele>112.0</ele>
        <time>2018-03-05T13:22:19Z</time>
      </trkpt>
      <trkpt lat="38.2953960" lon="-0.6488660">
        <ele>112.0</ele>
        <time>2018-03-05T13:22:20Z</time>
      </trkpt>
      <trkpt lat="38.2954170" lon="-0.6487710">
        <ele>112.0</ele>
        <time>2018-03-05T13:22:21Z</time>
      </trkpt>
      <trkpt lat="38.2954410" lon="-0.6486750">
        <ele>112.0</ele>
        <time>2018-03-05T13:22:22Z</time>
      </trkpt>
      <trkpt lat="38.2954650" lon="-0.6485820">
        <ele>111.0</ele>
        <time>2018-03-05T13:22:23Z</time>
      </trkpt>
      <trkpt lat="38.2954910" lon="-0.6484890">
        <ele>111.0</ele>
        <time>2018-03-05T13:22:24Z</time>
      </trkpt>
      <trkpt lat="38.2955200" lon="-0.6483980">
        <ele>112.0</ele>
        <time>2018-03-05T13:22:25Z</time>
      </trkpt>
      <trkpt lat="38.2955520" lon="-0.6483090">
        <ele>112.0</ele>
        <time>2018-03-05T13:22:26Z</time>
      </trkpt>
      <trkpt lat="38.2955870" lon="-0.6482230">
        <ele>112.0</ele>
        <time>2018-03-05T13:22:27Z</time>
      </trkpt>
      <trkpt lat="38.2956260" lon="-0.6481390">
        <ele>112.0</ele>
        <time>2018-03-05T13:22:28Z</time>
      </trkpt>
      <trkpt lat="38.2956670" lon="-0.6480570">
        <ele>112.0</ele>
        <time>2018-03-05T13:22:29Z</time>
      </trkpt>
      <trkpt lat="38.2957070" lon="-0.6479740">
        <ele>112.0</ele>
        <time>2018-03-05T13:22:30Z</time>
      </trkpt>
      <trkpt lat="38.2957470" lon="-0.6478900">
        <ele>112.0</ele>
        <time>2018-03-05T13:22:31Z</time>
      </trkpt>
      <trkpt lat="38.2957870" lon="-0.6478080">
        <ele>112.0</ele>
        <time>2018-03-05T13:22:32Z</time>
      </trkpt>
      <trkpt lat="38.2958280" lon="-0.6477250">
        <ele>112.0</ele>
        <time>2018-03-05T13:22:33Z</time>
      </trkpt>
      <trkpt lat="38.2958690" lon="-0.6476430">
        <ele>113.0</ele>
        <time>2018-03-05T13:22:34Z</time>
      </trkpt>
      <trkpt lat="38.2959110" lon="-0.6475620">
        <ele>113.0</ele>
        <time>2018-03-05T13:22:35Z</time>
      </trkpt>
      <trkpt lat="38.2959530" lon="-0.6474810">
        <ele>113.0</ele>
        <time>2018-03-05T13:22:36Z</time>
      </trkpt>
      <trkpt lat="38.2959940" lon="-0.6473990">
        <ele>113.0</ele>
        <time>2018-03-05T13:22:37Z</time>
      </trkpt>
      <trkpt lat="38.2960320" lon="-0.6473150">
        <ele>113.0</ele>
        <time>2018-03-05T13:22:38Z</time>
      </trkpt>
      <trkpt lat="38.2960660" lon="-0.6472230">
        <ele>113.0</ele>
        <time>2018-03-05T13:22:39Z</time>
      </trkpt>
      <trkpt lat="38.2960970" lon="-0.6471230">
        <ele>113.0</ele>
        <time>2018-03-05T13:22:40Z</time>
      </trkpt>
      <trkpt lat="38.2961230" lon="-0.6470290">
        <ele>113.0</ele>
        <time>2018-03-05T13:22:41Z</time>
      </trkpt>
      <trkpt lat="38.2961470" lon="-0.6469330">
        <ele>113.0</ele>
        <time>2018-03-05T13:22:42Z</time>
      </trkpt>
      <trkpt lat="38.2961720" lon="-0.6468380">
        <ele>113.0</ele>
        <time>2018-03-05T13:22:43Z</time>
      </trkpt>
      <trkpt lat="38.2961990" lon="-0.6467440">
        <ele>113.0</ele>
        <time>2018-03-05T13:22:44Z</time>
      </trkpt>
      <trkpt lat="38.2962300" lon="-0.6466540">
        <ele>113.0</ele>
        <time>2018-03-05T13:22:45Z</time>
      </trkpt>
      <trkpt lat="38.2962660" lon="-0.6465650">
        <ele>113.0</ele>
        <time>2018-03-05T13:22:46Z</time>
      </trkpt>
      <trkpt lat="38.2963050" lon="-0.6464770">
        <ele>113.0</ele>
        <time>2018-03-05T13:22:47Z</time>
      </trkpt>
      <trkpt lat="38.2963460" lon="-0.6463910">
        <ele>113.0</ele>
        <time>2018-03-05T13:22:48Z</time>
      </trkpt>
      <trkpt lat="38.2963880" lon="-0.6463080">
        <ele>113.0</ele>
        <time>2018-03-05T13:22:49Z</time>
      </trkpt>
      <trkpt lat="38.2964320" lon="-0.6462250">
        <ele>113.0</ele>
        <time>2018-03-05T13:22:50Z</time>
      </trkpt>
      <trkpt lat="38.2964790" lon="-0.6461450">
        <ele>113.0</ele>
        <time>2018-03-05T13:22:51Z</time>
      </trkpt>
      <trkpt lat="38.2965290" lon="-0.6460710">
        <ele>114.0</ele>
        <time>2018-03-05T13:22:52Z</time>
      </trkpt>
      <trkpt lat="38.2965830" lon="-0.6460010">
        <ele>114.0</ele>
        <time>2018-03-05T13:22:53Z</time>
      </trkpt>
      <trkpt lat="38.2966440" lon="-0.6459370">
        <ele>114.0</ele>
        <time>2018-03-05T13:22:54Z</time>
      </trkpt>
      <trkpt lat="38.2967080" lon="-0.6458760">
        <ele>113.0</ele>
        <time>2018-03-05T13:22:55Z</time>
      </trkpt>
      <trkpt lat="38.2967720" lon="-0.6458110">
        <ele>113.0</ele>
        <time>2018-03-05T13:22:56Z</time>
      </trkpt>
      <trkpt lat="38.2968330" lon="-0.6457390">
        <ele>113.0</ele>
        <time>2018-03-05T13:22:57Z</time>
      </trkpt>
      <trkpt lat="38.2968890" lon="-0.6456610">
        <ele>113.0</ele>
        <time>2018-03-05T13:22:58Z</time>
      </trkpt>
      <trkpt lat="38.2969410" lon="-0.6455780">
        <ele>113.0</ele>
        <time>2018-03-05T13:22:59Z</time>
      </trkpt>
      <trkpt lat="38.2969900" lon="-0.6454930">
        <ele>113.0</ele>
        <time>2018-03-05T13:23:00Z</time>
      </trkpt>
      <trkpt lat="38.2970360" lon="-0.6454060">
        <ele>113.0</ele>
        <time>2018-03-05T13:23:01Z</time>
      </trkpt>
      <trkpt lat="38.2970800" lon="-0.6453160">
        <ele>113.0</ele>
        <time>2018-03-05T13:23:02Z</time>
      </trkpt>
      <trkpt lat="38.2971220" lon="-0.6452240">
        <ele>113.0</ele>
        <time>2018-03-05T13:23:03Z</time>
      </trkpt>
      <trkpt lat="38.2971580" lon="-0.6451280">
        <ele>113.0</ele>
        <time>2018-03-05T13:23:04Z</time>
      </trkpt>
      <trkpt lat="38.2971900" lon="-0.6450320">
        <ele>113.0</ele>
        <time>2018-03-05T13:23:05Z</time>
      </trkpt>
      <trkpt lat="38.2972160" lon="-0.6449280">
        <ele>113.0</ele>
        <time>2018-03-05T13:23:06Z</time>
      </trkpt>
      <trkpt lat="38.2972400" lon="-0.6448270">
        <ele>113.0</ele>
        <time>2018-03-05T13:23:07Z</time>
      </trkpt>
      <trkpt lat="38.2972650" lon="-0.6447270">
        <ele>113.0</ele>
        <time>2018-03-05T13:23:08Z</time>
      </trkpt>
      <trkpt lat="38.2972840" lon="-0.6446230">
        <ele>113.0</ele>
        <time>2018-03-05T13:23:09Z</time>
      </trkpt>
      <trkpt lat="38.2973060" lon="-0.6445230">
        <ele>113.0</ele>
        <time>2018-03-05T13:23:10Z</time>
      </trkpt>
      <trkpt lat="38.2973300" lon="-0.6444220">
        <ele>113.0</ele>
        <time>2018-03-05T13:23:11Z</time>
      </trkpt>
      <trkpt lat="38.2973590" lon="-0.6443250">
        <ele>113.0</ele>
        <time>2018-03-05T13:23:12Z</time>
      </trkpt>
      <trkpt lat="38.2973930" lon="-0.6442270">
        <ele>113.0</ele>
        <time>2018-03-05T13:23:13Z</time>
      </trkpt>
      <trkpt lat="38.2974260" lon="-0.6441310">
        <ele>113.0</ele>
        <time>2018-03-05T13:23:14Z</time>
      </trkpt>
      <trkpt lat="38.2974620" lon="-0.6440370">
        <ele>113.0</ele>
        <time>2018-03-05T13:23:15Z</time>
      </trkpt>
      <trkpt lat="38.2974990" lon="-0.6439440">
        <ele>113.0</ele>
        <time>2018-03-05T13:23:16Z</time>
      </trkpt>
      <trkpt lat="38.2975360" lon="-0.6438510">
        <ele>113.0</ele>
        <time>2018-03-05T13:23:17Z</time>
      </trkpt>
      <trkpt lat="38.2975740" lon="-0.6437570">
        <ele>113.0</ele>
        <time>2018-03-05T13:23:18Z</time>
      </trkpt>
      <trkpt lat="38.2976110" lon="-0.6436640">
        <ele>113.0</ele>
        <time>2018-03-05T13:23:19Z</time>
      </trkpt>
      <trkpt lat="38.2976500" lon="-0.6435710">
        <ele>113.0</ele>
        <time>2018-03-05T13:23:20Z</time>
      </trkpt>
      <trkpt lat="38.2976880" lon="-0.6434800">
        <ele>113.0</ele>
        <time>2018-03-05T13:23:21Z</time>
      </trkpt>
      <trkpt lat="38.2977240" lon="-0.6433870">
        <ele>113.0</ele>
        <time>2018-03-05T13:23:22Z</time>
      </trkpt>
      <trkpt lat="38.2977610" lon="-0.6432950">
        <ele>113.0</ele>
        <time>2018-03-05T13:23:23Z</time>
      </trkpt>
      <trkpt lat="38.2977970" lon="-0.6432040">
        <ele>114.0</ele>
        <time>2018-03-05T13:23:24Z</time>
      </trkpt>
      <trkpt lat="38.2978330" lon="-0.6431140">
        <ele>114.0</ele>
        <time>2018-03-05T13:23:25Z</time>
      </trkpt>
      <trkpt lat="38.2978700" lon="-0.6430230">
        <ele>114.0</ele>
        <time>2018-03-05T13:23:26Z</time>
      </trkpt>
      <trkpt lat="38.2979070" lon="-0.6429320">
        <ele>114.0</ele>
        <time>2018-03-05T13:23:27Z</time>
      </trkpt>
      <trkpt lat="38.2979430" lon="-0.6428410">
        <ele>114.0</ele>
        <time>2018-03-05T13:23:28Z</time>
      </trkpt>
      <trkpt lat="38.2979770" lon="-0.6427490">
        <ele>114.0</ele>
        <time>2018-03-05T13:23:29Z</time>
      </trkpt>
      <trkpt lat="38.2980070" lon="-0.6426530">
        <ele>114.0</ele>
        <time>2018-03-05T13:23:30Z</time>
      </trkpt>
      <trkpt lat="38.2980360" lon="-0.6425570">
        <ele>114.0</ele>
        <time>2018-03-05T13:23:31Z</time>
      </trkpt>
      <trkpt lat="38.2980640" lon="-0.6424610">
        <ele>114.0</ele>
        <time>2018-03-05T13:23:32Z</time>
      </trkpt>
      <trkpt lat="38.2980930" lon="-0.6423640">
        <ele>114.0</ele>
        <time>2018-03-05T13:23:33Z</time>
      </trkpt>
      <trkpt lat="38.2981270" lon="-0.6422720">
        <ele>114.0</ele>
        <time>2018-03-05T13:23:34Z</time>
      </trkpt>
      <trkpt lat="38.2981710" lon="-0.6421890">
        <ele>114.0</ele>
        <time>2018-03-05T13:23:35Z</time>
      </trkpt>
      <trkpt lat="38.2982240" lon="-0.6421130">
        <ele>114.0</ele>
        <time>2018-03-05T13:23:36Z</time>
      </trkpt>
      <trkpt lat="38.2982880" lon="-0.6420490">
        <ele>114.0</ele>
        <time>2018-03-05T13:23:37Z</time>
      </trkpt>
      <trkpt lat="38.2983560" lon="-0.6419890">
        <ele>115.0</ele>
        <time>2018-03-05T13:23:38Z</time>
      </trkpt>
      <trkpt lat="38.2984230" lon="-0.6419280">
        <ele>115.0</ele>
        <time>2018-03-05T13:23:39Z</time>
      </trkpt>
      <trkpt lat="38.2984830" lon="-0.6418590">
        <ele>115.0</ele>
        <time>2018-03-05T13:23:40Z</time>
      </trkpt>
      <trkpt lat="38.2985360" lon="-0.6417830">
        <ele>115.0</ele>
        <time>2018-03-05T13:23:41Z</time>
      </trkpt>
      <trkpt lat="38.2985800" lon="-0.6416970">
        <ele>115.0</ele>
        <time>2018-03-05T13:23:42Z</time>
      </trkpt>
      <trkpt lat="38.2986180" lon="-0.6416050">
        <ele>115.0</ele>
        <time>2018-03-05T13:23:43Z</time>
      </trkpt>
      <trkpt lat="38.2986530" lon="-0.6415070">
        <ele>115.0</ele>
        <time>2018-03-05T13:23:44Z</time>
      </trkpt>
      <trkpt lat="38.2986830" lon="-0.6414080">
        <ele>115.0</ele>
        <time>2018-03-05T13:23:45Z</time>
      </trkpt>
      <trkpt lat="38.2987100" lon="-0.6413040">
        <ele>115.0</ele>
        <time>2018-03-05T13:23:46Z</time>
      </trkpt>
      <trkpt lat="38.2987380" lon="-0.6411990">
        <ele>115.0</ele>
        <time>2018-03-05T13:23:47Z</time>
      </trkpt>
      <trkpt lat="38.2987640" lon="-0.6410940">
        <ele>115.0</ele>
        <time>2018-03-05T13:23:48Z</time>
      </trkpt>
      <trkpt lat="38.2987930" lon="-0.6409900">
        <ele>114.0</ele>
        <time>2018-03-05T13:23:49Z</time>
      </trkpt>
      <trkpt lat="38.2988240" lon="-0.6408860">
        <ele>114.0</ele>
        <time>2018-03-05T13:23:50Z</time>
      </trkpt>
      <trkpt lat="38.2988570" lon="-0.6407820">
        <ele>114.0</ele>
        <time>2018-03-05T13:23:51Z</time>
      </trkpt>
      <trkpt lat="38.2988930" lon="-0.6406790">
        <ele>114.0</ele>
        <time>2018-03-05T13:23:52Z</time>
      </trkpt>
      <trkpt lat="38.2989310" lon="-0.6405770">
        <ele>114.0</ele>
        <time>2018-03-05T13:23:53Z</time>
      </trkpt>
      <trkpt lat="38.2989680" lon="-0.6404720">
        <ele>113.0</ele>
        <time>2018-03-05T13:23:54Z</time>
      </trkpt>
      <trkpt lat="38.2990060" lon="-0.6403670">
        <ele>113.0</ele>
        <time>2018-03-05T13:23:55Z</time>
      </trkpt>
      <trkpt lat="38.2990430" lon="-0.6402600">
        <ele>113.0</ele>
        <time>2018-03-05T13:23:56Z</time>
      </trkpt>
      <trkpt lat="38.2990780" lon="-0.6401500">
        <ele>113.0</ele>
        <time>2018-03-05T13:23:57Z</time>
      </trkpt>
      <trkpt lat="38.2991140" lon="-0.6400400">
        <ele>113.0</ele>
        <time>2018-03-05T13:23:58Z</time>
      </trkpt>
      <trkpt lat="38.2991510" lon="-0.6399300">
        <ele>113.0</ele>
        <time>2018-03-05T13:23:59Z</time>
      </trkpt>
      <trkpt lat="38.2991910" lon="-0.6398220">
        <ele>113.0</ele>
        <time>2018-03-05T13:24:00Z</time>
      </trkpt>
      <trkpt lat="38.2992350" lon="-0.6397160">
        <ele>113.0</ele>
        <time>2018-03-05T13:24:01Z</time>
      </trkpt>
      <trkpt lat="38.2992860" lon="-0.6396150">
        <ele>113.0</ele>
        <time>2018-03-05T13:24:02Z</time>
      </trkpt>
      <trkpt lat="38.2993440" lon="-0.6395210">
        <ele>113.0</ele>
        <time>2018-03-05T13:24:03Z</time>
      </trkpt>
      <trkpt lat="38.2994070" lon="-0.6394330">
        <ele>113.0</ele>
        <time>2018-03-05T13:24:04Z</time>
      </trkpt>
      <trkpt lat="38.2994750" lon="-0.6393510">
        <ele>113.0</ele>
        <time>2018-03-05T13:24:05Z</time>
      </trkpt>
      <trkpt lat="38.2995460" lon="-0.6392730">
        <ele>113.0</ele>
        <time>2018-03-05T13:24:06Z</time>
      </trkpt>
      <trkpt lat="38.2996220" lon="-0.6392020">
        <ele>113.0</ele>
        <time>2018-03-05T13:24:07Z</time>
      </trkpt>
      <trkpt lat="38.2997000" lon="-0.6391330">
        <ele>113.0</ele>
        <time>2018-03-05T13:24:08Z</time>
      </trkpt>
      <trkpt lat="38.2997780" lon="-0.6390650">
        <ele>113.0</ele>
        <time>2018-03-05T13:24:09Z</time>
      </trkpt>
      <trkpt lat="38.2998530" lon="-0.6389910">
        <ele>113.0</ele>
        <time>2018-03-05T13:24:10Z</time>
      </trkpt>
      <trkpt lat="38.2999200" lon="-0.6389040">
        <ele>112.0</ele>
        <time>2018-03-05T13:24:11Z</time>
      </trkpt>
      <trkpt lat="38.2999880" lon="-0.6388120">
        <ele>112.0</ele>
        <time>2018-03-05T13:24:12Z</time>
      </trkpt>
      <trkpt lat="38.3000530" lon="-0.6387180">
        <ele>112.0</ele>
        <time>2018-03-05T13:24:13Z</time>
      </trkpt>
      <trkpt lat="38.3001170" lon="-0.6386220">
        <ele>113.0</ele>
        <time>2018-03-05T13:24:14Z</time>
      </trkpt>
      <trkpt lat="38.3001810" lon="-0.6385260">
        <ele>113.0</ele>
        <time>2018-03-05T13:24:15Z</time>
      </trkpt>
      <trkpt lat="38.3002450" lon="-0.6384310">
        <ele>113.0</ele>
        <time>2018-03-05T13:24:16Z</time>
      </trkpt>
      <trkpt lat="38.3003050" lon="-0.6383330">
        <ele>113.0</ele>
        <time>2018-03-05T13:24:17Z</time>
      </trkpt>
      <trkpt lat="38.3003600" lon="-0.6382340">
        <ele>114.0</ele>
        <time>2018-03-05T13:24:18Z</time>
      </trkpt>
      <trkpt lat="38.3004080" lon="-0.6381290">
        <ele>114.0</ele>
        <time>2018-03-05T13:24:19Z</time>
      </trkpt>
      <trkpt lat="38.3004400" lon="-0.6380100">
        <ele>114.0</ele>
        <time>2018-03-05T13:24:20Z</time>
      </trkpt>
      <trkpt lat="38.3004620" lon="-0.6378790">
        <ele>114.0</ele>
        <time>2018-03-05T13:24:21Z</time>
      </trkpt>
      <trkpt lat="38.3004800" lon="-0.6377540">
        <ele>114.0</ele>
        <time>2018-03-05T13:24:22Z</time>
      </trkpt>
      <trkpt lat="38.3004980" lon="-0.6376320">
        <ele>114.0</ele>
        <time>2018-03-05T13:24:23Z</time>
      </trkpt>
      <trkpt lat="38.3005320" lon="-0.6375160">
        <ele>114.0</ele>
        <time>2018-03-05T13:24:24Z</time>
      </trkpt>
      <trkpt lat="38.3005750" lon="-0.6374050">
        <ele>114.0</ele>
        <time>2018-03-05T13:24:25Z</time>
      </trkpt>
      <trkpt lat="38.3006170" lon="-0.6372910">
        <ele>114.0</ele>
        <time>2018-03-05T13:24:26Z</time>
      </trkpt>
      <trkpt lat="38.3006600" lon="-0.6371770">
        <ele>114.0</ele>
        <time>2018-03-05T13:24:27Z</time>
      </trkpt>
      <trkpt lat="38.3007060" lon="-0.6370630">
        <ele>114.0</ele>
        <time>2018-03-05T13:24:28Z</time>
      </trkpt>
      <trkpt lat="38.3007540" lon="-0.6369480">
        <ele>114.0</ele>
        <time>2018-03-05T13:24:29Z</time>
      </trkpt>
      <trkpt lat="38.3008010" lon="-0.6368340">
        <ele>114.0</ele>
        <time>2018-03-05T13:24:30Z</time>
      </trkpt>
      <trkpt lat="38.3008460" lon="-0.6367190">
        <ele>114.0</ele>
        <time>2018-03-05T13:24:31Z</time>
      </trkpt>
      <trkpt lat="38.3008870" lon="-0.6366040">
        <ele>114.0</ele>
        <time>2018-03-05T13:24:32Z</time>
      </trkpt>
      <trkpt lat="38.3009260" lon="-0.6364890">
        <ele>114.0</ele>
        <time>2018-03-05T13:24:33Z</time>
      </trkpt>
      <trkpt lat="38.3009620" lon="-0.6363720">
        <ele>114.0</ele>
        <time>2018-03-05T13:24:34Z</time>
      </trkpt>
      <trkpt lat="38.3010030" lon="-0.6362600">
        <ele>114.0</ele>
        <time>2018-03-05T13:24:35Z</time>
      </trkpt>
      <trkpt lat="38.3010460" lon="-0.6361490">
        <ele>114.0</ele>
        <time>2018-03-05T13:24:36Z</time>
      </trkpt>
      <trkpt lat="38.3010970" lon="-0.6360440">
        <ele>114.0</ele>
        <time>2018-03-05T13:24:37Z</time>
      </trkpt>
      <trkpt lat="38.3011570" lon="-0.6359460">
        <ele>113.0</ele>
        <time>2018-03-05T13:24:38Z</time>
      </trkpt>
      <trkpt lat="38.3012210" lon="-0.6358550">
        <ele>113.0</ele>
        <time>2018-03-05T13:24:39Z</time>
      </trkpt>
      <trkpt lat="38.3012860" lon="-0.6357660">
        <ele>114.0</ele>
        <time>2018-03-05T13:24:40Z</time>
      </trkpt>
      <trkpt lat="38.3013520" lon="-0.6356790">
        <ele>114.0</ele>
        <time>2018-03-05T13:24:41Z</time>
      </trkpt>
      <trkpt lat="38.3014160" lon="-0.6355920">
        <ele>114.0</ele>
        <time>2018-03-05T13:24:42Z</time>
      </trkpt>
      <trkpt lat="38.3014780" lon="-0.6355050">
        <ele>114.0</ele>
        <time>2018-03-05T13:24:43Z</time>
      </trkpt>
      <trkpt lat="38.3015370" lon="-0.6354160">
        <ele>114.0</ele>
        <time>2018-03-05T13:24:44Z</time>
      </trkpt>
      <trkpt lat="38.3015880" lon="-0.6353180">
        <ele>113.0</ele>
        <time>2018-03-05T13:24:45Z</time>
      </trkpt>
      <trkpt lat="38.3016180" lon="-0.6352170">
        <ele>113.0</ele>
        <time>2018-03-05T13:24:46Z</time>
      </trkpt>
      <trkpt lat="38.3016250" lon="-0.6351070">
        <ele>112.0</ele>
        <time>2018-03-05T13:24:47Z</time>
      </trkpt>
      <trkpt lat="38.3016230" lon="-0.6349900">
        <ele>112.0</ele>
        <time>2018-03-05T13:24:48Z</time>
      </trkpt>
      <trkpt lat="38.3016170" lon="-0.6348740">
        <ele>112.0</ele>
        <time>2018-03-05T13:24:49Z</time>
      </trkpt>
      <trkpt lat="38.3016110" lon="-0.6347560">
        <ele>112.0</ele>
        <time>2018-03-05T13:24:50Z</time>
      </trkpt>
      <trkpt lat="38.3016050" lon="-0.6346370">
        <ele>111.0</ele>
        <time>2018-03-05T13:24:51Z</time>
      </trkpt>
      <trkpt lat="38.3016020" lon="-0.6345180">
        <ele>111.0</ele>
        <time>2018-03-05T13:24:52Z</time>
      </trkpt>
      <trkpt lat="38.3016020" lon="-0.6343980">
        <ele>111.0</ele>
        <time>2018-03-05T13:24:53Z</time>
      </trkpt>
      <trkpt lat="38.3016030" lon="-0.6342770">
        <ele>111.0</ele>
        <time>2018-03-05T13:24:54Z</time>
      </trkpt>
      <trkpt lat="38.3016070" lon="-0.6341550">
        <ele>111.0</ele>
        <time>2018-03-05T13:24:55Z</time>
      </trkpt>
      <trkpt lat="38.3016120" lon="-0.6340320">
        <ele>111.0</ele>
        <time>2018-03-05T13:24:56Z</time>
      </trkpt>
      <trkpt lat="38.3016140" lon="-0.6339040">
        <ele>110.0</ele>
        <time>2018-03-05T13:24:57Z</time>
      </trkpt>
      <trkpt lat="38.3016150" lon="-0.6337730">
        <ele>109.0</ele>
        <time>2018-03-05T13:24:58Z</time>
      </trkpt>
      <trkpt lat="38.3016170" lon="-0.6336360">
        <ele>109.0</ele>
        <time>2018-03-05T13:24:59Z</time>
      </trkpt>
      <trkpt lat="38.3016350" lon="-0.6335090">
        <ele>110.0</ele>
        <time>2018-03-05T13:25:00Z</time>
      </trkpt>
      <trkpt lat="38.3016540" lon="-0.6333870">
        <ele>110.0</ele>
        <time>2018-03-05T13:25:01Z</time>
      </trkpt>
      <trkpt lat="38.3016750" lon="-0.6332700">
        <ele>111.0</ele>
        <time>2018-03-05T13:25:02Z</time>
      </trkpt>
      <trkpt lat="38.3016940" lon="-0.6331570">
        <ele>111.0</ele>
        <time>2018-03-05T13:25:03Z</time>
      </trkpt>
      <trkpt lat="38.3017120" lon="-0.6330490">
        <ele>112.0</ele>
        <time>2018-03-05T13:25:04Z</time>
      </trkpt>
      <trkpt lat="38.3017300" lon="-0.6329390">
        <ele>112.0</ele>
        <time>2018-03-05T13:25:05Z</time>
      </trkpt>
      <trkpt lat="38.3017480" lon="-0.6328290">
        <ele>111.0</ele>
        <time>2018-03-05T13:25:06Z</time>
      </trkpt>
      <trkpt lat="38.3017630" lon="-0.6327160">
        <ele>111.0</ele>
        <time>2018-03-05T13:25:07Z</time>
      </trkpt>
      <trkpt lat="38.3017780" lon="-0.6326010">
        <ele>111.0</ele>
        <time>2018-03-05T13:25:08Z</time>
      </trkpt>
      <trkpt lat="38.3017940" lon="-0.6324830">
        <ele>110.0</ele>
        <time>2018-03-05T13:25:09Z</time>
      </trkpt>
      <trkpt lat="38.3018160" lon="-0.6323620">
        <ele>110.0</ele>
        <time>2018-03-05T13:25:10Z</time>
      </trkpt>
      <trkpt lat="38.3018430" lon="-0.6322450">
        <ele>110.0</ele>
        <time>2018-03-05T13:25:11Z</time>
      </trkpt>
      <trkpt lat="38.3018760" lon="-0.6321380">
        <ele>111.0</ele>
        <time>2018-03-05T13:25:12Z</time>
      </trkpt>
      <trkpt lat="38.3019080" lon="-0.6320320">
        <ele>111.0</ele>
        <time>2018-03-05T13:25:13Z</time>
      </trkpt>
      <trkpt lat="38.3019420" lon="-0.6319260">
        <ele>111.0</ele>
        <time>2018-03-05T13:25:14Z</time>
      </trkpt>
      <trkpt lat="38.3019760" lon="-0.6318210">
        <ele>111.0</ele>
        <time>2018-03-05T13:25:15Z</time>
      </trkpt>
      <trkpt lat="38.3020120" lon="-0.6317180">
        <ele>111.0</ele>
        <time>2018-03-05T13:25:16Z</time>
      </trkpt>
      <trkpt lat="38.3020480" lon="-0.6316150">
        <ele>111.0</ele>
        <time>2018-03-05T13:25:17Z</time>
      </trkpt>
      <trkpt lat="38.3020830" lon="-0.6315130">
        <ele>112.0</ele>
        <time>2018-03-05T13:25:18Z</time>
      </trkpt>
      <trkpt lat="38.3021150" lon="-0.6314100">
        <ele>112.0</ele>
        <time>2018-03-05T13:25:19Z</time>
      </trkpt>
      <trkpt lat="38.3021440" lon="-0.6313070">
        <ele>112.0</ele>
        <time>2018-03-05T13:25:20Z</time>
      </trkpt>
      <trkpt lat="38.3021760" lon="-0.6312070">
        <ele>112.0</ele>
        <time>2018-03-05T13:25:21Z</time>
      </trkpt>
      <trkpt lat="38.3022120" lon="-0.6311090">
        <ele>112.0</ele>
        <time>2018-03-05T13:25:22Z</time>
      </trkpt>
      <trkpt lat="38.3022470" lon="-0.6310100">
        <ele>112.0</ele>
        <time>2018-03-05T13:25:23Z</time>
      </trkpt>
      <trkpt lat="38.3022820" lon="-0.6309110">
        <ele>112.0</ele>
        <time>2018-03-05T13:25:24Z</time>
      </trkpt>
      <trkpt lat="38.3023150" lon="-0.6308110">
        <ele>112.0</ele>
        <time>2018-03-05T13:25:25Z</time>
      </trkpt>
      <trkpt lat="38.3023470" lon="-0.6307120">
        <ele>112.0</ele>
        <time>2018-03-05T13:25:26Z</time>
      </trkpt>
      <trkpt lat="38.3023800" lon="-0.6306130">
        <ele>112.0</ele>
        <time>2018-03-05T13:25:27Z</time>
      </trkpt>
      <trkpt lat="38.3024130" lon="-0.6305140">
        <ele>112.0</ele>
        <time>2018-03-05T13:25:28Z</time>
      </trkpt>
      <trkpt lat="38.3024460" lon="-0.6304150">
        <ele>112.0</ele>
        <time>2018-03-05T13:25:29Z</time>
      </trkpt>
      <trkpt lat="38.3024770" lon="-0.6303150">
        <ele>112.0</ele>
        <time>2018-03-05T13:25:30Z</time>
      </trkpt>
      <trkpt lat="38.3025080" lon="-0.6302160">
        <ele>112.0</ele>
        <time>2018-03-05T13:25:31Z</time>
      </trkpt>
      <trkpt lat="38.3025380" lon="-0.6301160">
        <ele>112.0</ele>
        <time>2018-03-05T13:25:32Z</time>
      </trkpt>
      <trkpt lat="38.3025690" lon="-0.6300170">
        <ele>112.0</ele>
        <time>2018-03-05T13:25:33Z</time>
      </trkpt>
      <trkpt lat="38.3026020" lon="-0.6299200">
        <ele>112.0</ele>
        <time>2018-03-05T13:25:34Z</time>
      </trkpt>
      <trkpt lat="38.3026340" lon="-0.6298210">
        <ele>112.0</ele>
        <time>2018-03-05T13:25:35Z</time>
      </trkpt>
      <trkpt lat="38.3026650" lon="-0.6297210">
        <ele>113.0</ele>
        <time>2018-03-05T13:25:36Z</time>
      </trkpt>
      <trkpt lat="38.3026940" lon="-0.6296210">
        <ele>113.0</ele>
        <time>2018-03-05T13:25:37Z</time>
      </trkpt>
      <trkpt lat="38.3027230" lon="-0.6295220">
        <ele>113.0</ele>
        <time>2018-03-05T13:25:38Z</time>
      </trkpt>
      <trkpt lat="38.3027510" lon="-0.6294230">
        <ele>113.0</ele>
        <time>2018-03-05T13:25:39Z</time>
      </trkpt>
      <trkpt lat="38.3027800" lon="-0.6293250">
        <ele>113.0</ele>
        <time>2018-03-05T13:25:40Z</time>
      </trkpt>
      <trkpt lat="38.3028090" lon="-0.6292270">
        <ele>113.0</ele>
        <time>2018-03-05T13:25:41Z</time>
      </trkpt>
      <trkpt lat="38.3028370" lon="-0.6291290">
        <ele>113.0</ele>
        <time>2018-03-05T13:25:42Z</time>
      </trkpt>
      <trkpt lat="38.3028650" lon="-0.6290320">
        <ele>113.0</ele>
        <time>2018-03-05T13:25:43Z</time>
      </trkpt>
      <trkpt lat="38.3028940" lon="-0.6289350">
        <ele>113.0</ele>
        <time>2018-03-05T13:25:44Z</time>
      </trkpt>
      <trkpt lat="38.3029210" lon="-0.6288390">
        <ele>113.0</ele>
        <time>2018-03-05T13:25:45Z</time>
      </trkpt>
      <trkpt lat="38.3029480" lon="-0.6287440">
        <ele>113.0</ele>
        <time>2018-03-05T13:25:46Z</time>
      </trkpt>
      <trkpt lat="38.3029750" lon="-0.6286490">
        <ele>113.0</ele>
        <time>2018-03-05T13:25:47Z</time>
      </trkpt>
      <trkpt lat="38.3030010" lon="-0.6285550">
        <ele>113.0</ele>
        <time>2018-03-05T13:25:48Z</time>
      </trkpt>
      <trkpt lat="38.3030250" lon="-0.6284600">
        <ele>114.0</ele>
        <time>2018-03-05T13:25:49Z</time>
      </trkpt>
      <trkpt lat="38.3030480" lon="-0.6283660">
        <ele>114.0</ele>
        <time>2018-03-05T13:25:50Z</time>
      </trkpt>
      <trkpt lat="38.3030700" lon="-0.6282700">
        <ele>114.0</ele>
        <time>2018-03-05T13:25:51Z</time>
      </trkpt>
      <trkpt lat="38.3030920" lon="-0.6281720">
        <ele>113.0</ele>
        <time>2018-03-05T13:25:52Z</time>
      </trkpt>
      <trkpt lat="38.3031130" lon="-0.6280700">
        <ele>113.0</ele>
        <time>2018-03-05T13:25:53Z</time>
      </trkpt>
      <trkpt lat="38.3031350" lon="-0.6279650">
        <ele>113.0</ele>
        <time>2018-03-05T13:25:54Z</time>
      </trkpt>
      <trkpt lat="38.3031590" lon="-0.6278590">
        <ele>113.0</ele>
        <time>2018-03-05T13:25:55Z</time>
      </trkpt>
      <trkpt lat="38.3031840" lon="-0.6277570">
        <ele>113.0</ele>
        <time>2018-03-05T13:25:56Z</time>
      </trkpt>
      <trkpt lat="38.3032080" lon="-0.6276580">
        <ele>113.0</ele>
        <time>2018-03-05T13:25:57Z</time>
      </trkpt>
      <trkpt lat="38.3032370" lon="-0.6275650">
        <ele>113.0</ele>
        <time>2018-03-05T13:25:58Z</time>
      </trkpt>
      <trkpt lat="38.3032630" lon="-0.6274730">
        <ele>113.0</ele>
        <time>2018-03-05T13:25:59Z</time>
      </trkpt>
      <trkpt lat="38.3032840" lon="-0.6273800">
        <ele>113.0</ele>
        <time>2018-03-05T13:26:00Z</time>
      </trkpt>
      <trkpt lat="38.3033050" lon="-0.6272880">
        <ele>113.0</ele>
        <time>2018-03-05T13:26:01Z</time>
      </trkpt>
      <trkpt lat="38.3033150" lon="-0.6272040">
        <ele>113.0</ele>
        <time>2018-03-05T13:26:02Z</time>
      </trkpt>
      <trkpt lat="38.3033120" lon="-0.6271360">
        <ele>112.0</ele>
        <time>2018-03-05T13:26:03Z</time>
      </trkpt>
      <trkpt lat="38.3032850" lon="-0.6270850">
        <ele>112.0</ele>
        <time>2018-03-05T13:26:04Z</time>
      </trkpt>
      <trkpt lat="38.3032440" lon="-0.6270480">
        <ele>112.0</ele>
        <time>2018-03-05T13:26:05Z</time>
      </trkpt>
      <trkpt lat="38.3031880" lon="-0.6270270">
        <ele>112.0</ele>
        <time>2018-03-05T13:26:06Z</time>
      </trkpt>
      <trkpt lat="38.3031270" lon="-0.6270200">
        <ele>111.0</ele>
        <time>2018-03-05T13:26:07Z</time>
      </trkpt>
      <trkpt lat="38.3030640" lon="-0.6270230">
        <ele>111.0</ele>
        <time>2018-03-05T13:26:08Z</time>
      </trkpt>
      <trkpt lat="38.3030000" lon="-0.6270250">
        <ele>111.0</ele>
        <time>2018-03-05T13:26:09Z</time>
      </trkpt>
      <trkpt lat="38.3029280" lon="-0.6270300">
        <ele>111.0</ele>
        <time>2018-03-05T13:26:10Z</time>
      </trkpt>
      <trkpt lat="38.3028580" lon="-0.6270370">
        <ele>110.0</ele>
        <time>2018-03-05T13:26:11Z</time>
      </trkpt>
      <trkpt lat="38.3027900" lon="-0.6270490">
        <ele>110.0</ele>
        <time>2018-03-05T13:26:12Z</time>
      </trkpt>
      <trkpt lat="38.3027220" lon="-0.6270640">
        <ele>110.0</ele>
        <time>2018-03-05T13:26:13Z</time>
      </trkpt>
      <trkpt lat="38.3026520" lon="-0.6270850">
        <ele>110.0</ele>
        <time>2018-03-05T13:26:14Z</time>
      </trkpt>
      <trkpt lat="38.3025820" lon="-0.6271100">
        <ele>110.0</ele>
        <time>2018-03-05T13:26:15Z</time>
      </trkpt>
      <trkpt lat="38.3025110" lon="-0.6271360">
        <ele>110.0</ele>
        <time>2018-03-05T13:26:16Z</time>
      </trkpt>
      <trkpt lat="38.3024410" lon="-0.6271610">
        <ele>110.0</ele>
        <time>2018-03-05T13:26:17Z</time>
      </trkpt>
      <trkpt lat="38.3023710" lon="-0.6271890">
        <ele>109.0</ele>
        <time>2018-03-05T13:26:18Z</time>
      </trkpt>
      <trkpt lat="38.3023000" lon="-0.6272150">
        <ele>109.0</ele>
        <time>2018-03-05T13:26:19Z</time>
      </trkpt>
      <trkpt lat="38.3022250" lon="-0.6272400">
        <ele>109.0</ele>
        <time>2018-03-05T13:26:20Z</time>
      </trkpt>
      <trkpt lat="38.3021500" lon="-0.6272650">
        <ele>109.0</ele>
        <time>2018-03-05T13:26:21Z</time>
      </trkpt>
      <trkpt lat="38.3020750" lon="-0.6272900">
        <ele>109.0</ele>
        <time>2018-03-05T13:26:22Z</time>
      </trkpt>
      <trkpt lat="38.3020010" lon="-0.6273150">
        <ele>109.0</ele>
        <time>2018-03-05T13:26:23Z</time>
      </trkpt>
      <trkpt lat="38.3019290" lon="-0.6273380">
        <ele>108.0</ele>
        <time>2018-03-05T13:26:24Z</time>
      </trkpt>
      <trkpt lat="38.3018560" lon="-0.6273530">
        <ele>108.0</ele>
        <time>2018-03-05T13:26:25Z</time>
      </trkpt>
      <trkpt lat="38.3017940" lon="-0.6273520">
        <ele>108.0</ele>
        <time>2018-03-05T13:26:26Z</time>
      </trkpt>
      <trkpt lat="38.3017560" lon="-0.6273290">
        <ele>107.0</ele>
        <time>2018-03-05T13:26:27Z</time>
      </trkpt>
      <trkpt lat="38.3017230" lon="-0.6272970">
        <ele>106.0</ele>
        <time>2018-03-05T13:26:28Z</time>
      </trkpt>
      <trkpt lat="38.3017040" lon="-0.6272500">
        <ele>106.0</ele>
        <time>2018-03-05T13:26:29Z</time>
      </trkpt>
      <trkpt lat="38.3017130" lon="-0.6272080">
        <ele>106.0</ele>
        <time>2018-03-05T13:26:30Z</time>
      </trkpt>
      <trkpt lat="38.3017340" lon="-0.6271650">
        <ele>106.0</ele>
        <time>2018-03-05T13:26:31Z</time>
      </trkpt>
      <trkpt lat="38.3017710" lon="-0.6271280">
        <ele>106.0</ele>
        <time>2018-03-05T13:26:32Z</time>
      </trkpt>
      <trkpt lat="38.3018150" lon="-0.6270980">
        <ele>107.0</ele>
        <time>2018-03-05T13:26:33Z</time>
      </trkpt>
      <trkpt lat="38.3018600" lon="-0.6270720">
        <ele>106.0</ele>
        <time>2018-03-05T13:26:34Z</time>
      </trkpt>
      <trkpt lat="38.3019100" lon="-0.6270520">
        <ele>106.0</ele>
        <time>2018-03-05T13:26:35Z</time>
      </trkpt>
      <trkpt lat="38.3019640" lon="-0.6270220">
        <ele>106.0</ele>
        <time>2018-03-05T13:26:36Z</time>
      </trkpt>
      <trkpt lat="38.3020170" lon="-0.6269920">
        <ele>106.0</ele>
        <time>2018-03-05T13:26:37Z</time>
      </trkpt>
      <trkpt lat="38.3020740" lon="-0.6269590">
        <ele>106.0</ele>
        <time>2018-03-05T13:26:38Z</time>
      </trkpt>
      <trkpt lat="38.3021300" lon="-0.6269280">
        <ele>106.0</ele>
        <time>2018-03-05T13:26:39Z</time>
      </trkpt>
      <trkpt lat="38.3021910" lon="-0.6269000">
        <ele>106.0</ele>
        <time>2018-03-05T13:26:40Z</time>
      </trkpt>
      <trkpt lat="38.3022520" lon="-0.6268730">
        <ele>106.0</ele>
        <time>2018-03-05T13:26:41Z</time>
      </trkpt>
      <trkpt lat="38.3023090" lon="-0.6268470">
        <ele>106.0</ele>
        <time>2018-03-05T13:26:42Z</time>
      </trkpt>
      <trkpt lat="38.3023650" lon="-0.6268180">
        <ele>107.0</ele>
        <time>2018-03-05T13:26:43Z</time>
      </trkpt>
      <trkpt lat="38.3024180" lon="-0.6267890">
        <ele>107.0</ele>
        <time>2018-03-05T13:26:44Z</time>
      </trkpt>
      <trkpt lat="38.3024710" lon="-0.6267590">
        <ele>107.0</ele>
        <time>2018-03-05T13:26:45Z</time>
      </trkpt>
      <trkpt lat="38.3025270" lon="-0.6267330">
        <ele>107.0</ele>
        <time>2018-03-05T13:26:46Z</time>
      </trkpt>
      <trkpt lat="38.3025860" lon="-0.6267070">
        <ele>107.0</ele>
        <time>2018-03-05T13:26:47Z</time>
      </trkpt>
      <trkpt lat="38.3026480" lon="-0.6266850">
        <ele>106.0</ele>
        <time>2018-03-05T13:26:48Z</time>
      </trkpt>
      <trkpt lat="38.3027110" lon="-0.6266590">
        <ele>106.0</ele>
        <time>2018-03-05T13:26:49Z</time>
      </trkpt>
      <trkpt lat="38.3027750" lon="-0.6266360">
        <ele>107.0</ele>
        <time>2018-03-05T13:26:50Z</time>
      </trkpt>
      <trkpt lat="38.3028400" lon="-0.6266130">
        <ele>107.0</ele>
        <time>2018-03-05T13:26:51Z</time>
      </trkpt>
      <trkpt lat="38.3029090" lon="-0.6265980">
        <ele>107.0</ele>
        <time>2018-03-05T13:26:52Z</time>
      </trkpt>
      <trkpt lat="38.3029780" lon="-0.6265850">
        <ele>107.0</ele>
        <time>2018-03-05T13:26:53Z</time>
      </trkpt>
      <trkpt lat="38.3030470" lon="-0.6265690">
        <ele>107.0</ele>
        <time>2018-03-05T13:26:54Z</time>
      </trkpt>
      <trkpt lat="38.3031120" lon="-0.6265540">
        <ele>108.0</ele>
        <time>2018-03-05T13:26:55Z</time>
      </trkpt>
      <trkpt lat="38.3031720" lon="-0.6265410">
        <ele>108.0</ele>
        <time>2018-03-05T13:26:56Z</time>
      </trkpt>
      <trkpt lat="38.3032310" lon="-0.6265220">
        <ele>108.0</ele>
        <time>2018-03-05T13:26:57Z</time>
      </trkpt>
      <trkpt lat="38.3032910" lon="-0.6265000">
        <ele>108.0</ele>
        <time>2018-03-05T13:26:58Z</time>
      </trkpt>
      <trkpt lat="38.3033490" lon="-0.6264750">
        <ele>108.0</ele>
        <time>2018-03-05T13:26:59Z</time>
      </trkpt>
      <trkpt lat="38.3033980" lon="-0.6264270">
        <ele>110.0</ele>
        <time>2018-03-05T13:27:00Z</time>
      </trkpt>
      <trkpt lat="38.3034350" lon="-0.6263710">
        <ele>112.0</ele>
        <time>2018-03-05T13:27:01Z</time>
      </trkpt>
      <trkpt lat="38.3034620" lon="-0.6263010">
        <ele>110.0</ele>
        <time>2018-03-05T13:27:02Z</time>
      </trkpt>
      <trkpt lat="38.3034720" lon="-0.6262250">
        <ele>110.0</ele>
        <time>2018-03-05T13:27:03Z</time>
      </trkpt>
      <trkpt lat="38.3034840" lon="-0.6261440">
        <ele>111.0</ele>
        <time>2018-03-05T13:27:04Z</time>
      </trkpt>
      <trkpt lat="38.3034960" lon="-0.6260590">
        <ele>111.0</ele>
        <time>2018-03-05T13:27:05Z</time>
      </trkpt>
      <trkpt lat="38.3035080" lon="-0.6259750">
        <ele>111.0</ele>
        <time>2018-03-05T13:27:06Z</time>
      </trkpt>
      <trkpt lat="38.3035190" lon="-0.6258870">
        <ele>111.0</ele>
        <time>2018-03-05T13:27:07Z</time>
      </trkpt>
      <trkpt lat="38.3035270" lon="-0.6257900">
        <ele>110.0</ele>
        <time>2018-03-05T13:27:08Z</time>
      </trkpt>
      <trkpt lat="38.3035350" lon="-0.6256890">
        <ele>110.0</ele>
        <time>2018-03-05T13:27:09Z</time>
      </trkpt>
      <trkpt lat="38.3035470" lon="-0.6255870">
        <ele>110.0</ele>
        <time>2018-03-05T13:27:10Z</time>
      </trkpt>
      <trkpt lat="38.3035610" lon="-0.6254840">
        <ele>110.0</ele>
        <time>2018-03-05T13:27:11Z</time>
      </trkpt>
      <trkpt lat="38.3035750" lon="-0.6253790">
        <ele>110.0</ele>
        <time>2018-03-05T13:27:12Z</time>
      </trkpt>
      <trkpt lat="38.3035900" lon="-0.6252760">
        <ele>109.0</ele>
        <time>2018-03-05T13:27:13Z</time>
      </trkpt>
      <trkpt lat="38.3036070" lon="-0.6251750">
        <ele>110.0</ele>
        <time>2018-03-05T13:27:14Z</time>
      </trkpt>
      <trkpt lat="38.3036190" lon="-0.6250760">
        <ele>110.0</ele>
        <time>2018-03-05T13:27:15Z</time>
      </trkpt>
      <trkpt lat="38.3036300" lon="-0.6249760">
        <ele>110.0</ele>
        <time>2018-03-05T13:27:16Z</time>
      </trkpt>
      <trkpt lat="38.3036420" lon="-0.6248740">
        <ele>109.0</ele>
        <time>2018-03-05T13:27:17Z</time>
      </trkpt>
      <trkpt lat="38.3036530" lon="-0.6247690">
        <ele>109.0</ele>
        <time>2018-03-05T13:27:18Z</time>
      </trkpt>
      <trkpt lat="38.3036630" lon="-0.6246610">
        <ele>109.0</ele>
        <time>2018-03-05T13:27:19Z</time>
      </trkpt>
      <trkpt lat="38.3036710" lon="-0.6245510">
        <ele>109.0</ele>
        <time>2018-03-05T13:27:20Z</time>
      </trkpt>
      <trkpt lat="38.3036770" lon="-0.6244410">
        <ele>110.0</ele>
        <time>2018-03-05T13:27:21Z</time>
      </trkpt>
      <trkpt lat="38.3036850" lon="-0.6243320">
        <ele>110.0</ele>
        <time>2018-03-05T13:27:22Z</time>
      </trkpt>
      <trkpt lat="38.3036930" lon="-0.6242230">
        <ele>110.0</ele>
        <time>2018-03-05T13:27:23Z</time>
      </trkpt>
      <trkpt lat="38.3037020" lon="-0.6241150">
        <ele>110.0</ele>
        <time>2018-03-05T13:27:24Z</time>
      </trkpt>
      <trkpt lat="38.3037110" lon="-0.6240060">
        <ele>110.0</ele>
        <time>2018-03-05T13:27:25Z</time>
      </trkpt>
      <trkpt lat="38.3037180" lon="-0.6238990">
        <ele>110.0</ele>
        <time>2018-03-05T13:27:26Z</time>
      </trkpt>
      <trkpt lat="38.3037250" lon="-0.6237900">
        <ele>110.0</ele>
        <time>2018-03-05T13:27:27Z</time>
      </trkpt>
      <trkpt lat="38.3037350" lon="-0.6236830">
        <ele>110.0</ele>
        <time>2018-03-05T13:27:28Z</time>
      </trkpt>
      <trkpt lat="38.3037440" lon="-0.6235770">
        <ele>110.0</ele>
        <time>2018-03-05T13:27:29Z</time>
      </trkpt>
      <trkpt lat="38.3037570" lon="-0.6234730">
        <ele>110.0</ele>
        <time>2018-03-05T13:27:30Z</time>
      </trkpt>
      <trkpt lat="38.3037670" lon="-0.6233660">
        <ele>110.0</ele>
        <time>2018-03-05T13:27:31Z</time>
      </trkpt>
      <trkpt lat="38.3037760" lon="-0.6232540">
        <ele>110.0</ele>
        <time>2018-03-05T13:27:32Z</time>
      </trkpt>
      <trkpt lat="38.3037860" lon="-0.6231390">
        <ele>109.0</ele>
        <time>2018-03-05T13:27:33Z</time>
      </trkpt>
      <trkpt lat="38.3037950" lon="-0.6230230">
        <ele>109.0</ele>
        <time>2018-03-05T13:27:34Z</time>
      </trkpt>
      <trkpt lat="38.3038080" lon="-0.6229070">
        <ele>109.0</ele>
        <time>2018-03-05T13:27:35Z</time>
      </trkpt>
      <trkpt lat="38.3038220" lon="-0.6227900">
        <ele>109.0</ele>
        <time>2018-03-05T13:27:36Z</time>
      </trkpt>
      <trkpt lat="38.3038340" lon="-0.6226720">
        <ele>109.0</ele>
        <time>2018-03-05T13:27:37Z</time>
      </trkpt>
      <trkpt lat="38.3038430" lon="-0.6225560">
        <ele>109.0</ele>
        <time>2018-03-05T13:27:38Z</time>
      </trkpt>
      <trkpt lat="38.3038540" lon="-0.6224390">
        <ele>109.0</ele>
        <time>2018-03-05T13:27:39Z</time>
      </trkpt>
      <trkpt lat="38.3038680" lon="-0.6223240">
        <ele>109.0</ele>
        <time>2018-03-05T13:27:40Z</time>
      </trkpt>
      <trkpt lat="38.3038810" lon="-0.6222080">
        <ele>109.0</ele>
        <time>2018-03-05T13:27:41Z</time>
      </trkpt>
      <trkpt lat="38.3038930" lon="-0.6220920">
        <ele>108.0</ele>
        <time>2018-03-05T13:27:42Z</time>
      </trkpt>
      <trkpt lat="38.3039010" lon="-0.6219720">
        <ele>108.0</ele>
        <time>2018-03-05T13:27:43Z</time>
      </trkpt>
      <trkpt lat="38.3039090" lon="-0.6218460">
        <ele>107.0</ele>
        <time>2018-03-05T13:27:44Z</time>
      </trkpt>
      <trkpt lat="38.3039210" lon="-0.6217170">
        <ele>106.0</ele>
        <time>2018-03-05T13:27:45Z</time>
      </trkpt>
      <trkpt lat="38.3039420" lon="-0.6215920">
        <ele>106.0</ele>
        <time>2018-03-05T13:27:46Z</time>
      </trkpt>
      <trkpt lat="38.3039670" lon="-0.6214750">
        <ele>107.0</ele>
        <time>2018-03-05T13:27:47Z</time>
      </trkpt>
      <trkpt lat="38.3039910" lon="-0.6213650">
        <ele>107.0</ele>
        <time>2018-03-05T13:27:48Z</time>
      </trkpt>
      <trkpt lat="38.3040200" lon="-0.6212630">
        <ele>108.0</ele>
        <time>2018-03-05T13:27:49Z</time>
      </trkpt>
      <trkpt lat="38.3040470" lon="-0.6211630">
        <ele>108.0</ele>
        <time>2018-03-05T13:27:50Z</time>
      </trkpt>
      <trkpt lat="38.3040770" lon="-0.6210670">
        <ele>108.0</ele>
        <time>2018-03-05T13:27:51Z</time>
      </trkpt>
      <trkpt lat="38.3041040" lon="-0.6209690">
        <ele>108.0</ele>
        <time>2018-03-05T13:27:52Z</time>
      </trkpt>
      <trkpt lat="38.3041230" lon="-0.6208670">
        <ele>108.0</ele>
        <time>2018-03-05T13:27:53Z</time>
      </trkpt>
      <trkpt lat="38.3041420" lon="-0.6207610">
        <ele>108.0</ele>
        <time>2018-03-05T13:27:54Z</time>
      </trkpt>
      <trkpt lat="38.3041640" lon="-0.6206550">
        <ele>108.0</ele>
        <time>2018-03-05T13:27:55Z</time>
      </trkpt>
      <trkpt lat="38.3041860" lon="-0.6205480">
        <ele>108.0</ele>
        <time>2018-03-05T13:27:56Z</time>
      </trkpt>
      <trkpt lat="38.3042090" lon="-0.6204400">
        <ele>108.0</ele>
        <time>2018-03-05T13:27:57Z</time>
      </trkpt>
      <trkpt lat="38.3042330" lon="-0.6203320">
        <ele>107.0</ele>
        <time>2018-03-05T13:27:58Z</time>
      </trkpt>
      <trkpt lat="38.3042540" lon="-0.6202190">
        <ele>107.0</ele>
        <time>2018-03-05T13:27:59Z</time>
      </trkpt>
      <trkpt lat="38.3042760" lon="-0.6201030">
        <ele>106.0</ele>
        <time>2018-03-05T13:28:00Z</time>
      </trkpt>
      <trkpt lat="38.3042970" lon="-0.6199850">
        <ele>106.0</ele>
        <time>2018-03-05T13:28:01Z</time>
      </trkpt>
      <trkpt lat="38.3043210" lon="-0.6198680">
        <ele>106.0</ele>
        <time>2018-03-05T13:28:02Z</time>
      </trkpt>
      <trkpt lat="38.3043460" lon="-0.6197500">
        <ele>106.0</ele>
        <time>2018-03-05T13:28:03Z</time>
      </trkpt>
      <trkpt lat="38.3043690" lon="-0.6196310">
        <ele>105.0</ele>
        <time>2018-03-05T13:28:04Z</time>
      </trkpt>
      <trkpt lat="38.3043970" lon="-0.6195130">
        <ele>105.0</ele>
        <time>2018-03-05T13:28:05Z</time>
      </trkpt>
      <trkpt lat="38.3044270" lon="-0.6193960">
        <ele>105.0</ele>
        <time>2018-03-05T13:28:06Z</time>
      </trkpt>
      <trkpt lat="38.3044590" lon="-0.6192800">
        <ele>105.0</ele>
        <time>2018-03-05T13:28:07Z</time>
      </trkpt>
      <trkpt lat="38.3044930" lon="-0.6191640">
        <ele>105.0</ele>
        <time>2018-03-05T13:28:08Z</time>
      </trkpt>
      <trkpt lat="38.3045270" lon="-0.6190520">
        <ele>105.0</ele>
        <time>2018-03-05T13:28:09Z</time>
      </trkpt>
      <trkpt lat="38.3045630" lon="-0.6189420">
        <ele>105.0</ele>
        <time>2018-03-05T13:28:10Z</time>
      </trkpt>
      <trkpt lat="38.3045990" lon="-0.6188330">
        <ele>105.0</ele>
        <time>2018-03-05T13:28:11Z</time>
      </trkpt>
      <trkpt lat="38.3046350" lon="-0.6187270">
        <ele>105.0</ele>
        <time>2018-03-05T13:28:12Z</time>
      </trkpt>
      <trkpt lat="38.3046710" lon="-0.6186230">
        <ele>105.0</ele>
        <time>2018-03-05T13:28:13Z</time>
      </trkpt>
      <trkpt lat="38.3047000" lon="-0.6185190">
        <ele>106.0</ele>
        <time>2018-03-05T13:28:14Z</time>
      </trkpt>
      <trkpt lat="38.3047310" lon="-0.6184160">
        <ele>106.0</ele>
        <time>2018-03-05T13:28:15Z</time>
      </trkpt>
      <trkpt lat="38.3047610" lon="-0.6183120">
        <ele>106.0</ele>
        <time>2018-03-05T13:28:16Z</time>
      </trkpt>
      <trkpt lat="38.3047940" lon="-0.6182090">
        <ele>106.0</ele>
        <time>2018-03-05T13:28:17Z</time>
      </trkpt>
      <trkpt lat="38.3048250" lon="-0.6181070">
        <ele>106.0</ele>
        <time>2018-03-05T13:28:18Z</time>
      </trkpt>
      <trkpt lat="38.3048550" lon="-0.6180070">
        <ele>106.0</ele>
        <time>2018-03-05T13:28:19Z</time>
      </trkpt>
      <trkpt lat="38.3048910" lon="-0.6179130">
        <ele>106.0</ele>
        <time>2018-03-05T13:28:20Z</time>
      </trkpt>
      <trkpt lat="38.3049290" lon="-0.6178200">
        <ele>106.0</ele>
        <time>2018-03-05T13:28:21Z</time>
      </trkpt>
      <trkpt lat="38.3049660" lon="-0.6177270">
        <ele>107.0</ele>
        <time>2018-03-05T13:28:22Z</time>
      </trkpt>
      <trkpt lat="38.3050020" lon="-0.6176360">
        <ele>107.0</ele>
        <time>2018-03-05T13:28:23Z</time>
      </trkpt>
      <trkpt lat="38.3050370" lon="-0.6175450">
        <ele>107.0</ele>
        <time>2018-03-05T13:28:24Z</time>
      </trkpt>
      <trkpt lat="38.3050710" lon="-0.6174540">
        <ele>107.0</ele>
        <time>2018-03-05T13:28:25Z</time>
      </trkpt>
      <trkpt lat="38.3051050" lon="-0.6173630">
        <ele>107.0</ele>
        <time>2018-03-05T13:28:26Z</time>
      </trkpt>
      <trkpt lat="38.3051400" lon="-0.6172730">
        <ele>107.0</ele>
        <time>2018-03-05T13:28:27Z</time>
      </trkpt>
      <trkpt lat="38.3051750" lon="-0.6171830">
        <ele>107.0</ele>
        <time>2018-03-05T13:28:28Z</time>
      </trkpt>
      <trkpt lat="38.3052100" lon="-0.6170940">
        <ele>107.0</ele>
        <time>2018-03-05T13:28:29Z</time>
      </trkpt>
      <trkpt lat="38.3052450" lon="-0.6170060">
        <ele>107.0</ele>
        <time>2018-03-05T13:28:30Z</time>
      </trkpt>
      <trkpt lat="38.3052820" lon="-0.6169190">
        <ele>108.0</ele>
        <time>2018-03-05T13:28:31Z</time>
      </trkpt>
      <trkpt lat="38.3053170" lon="-0.6168320">
        <ele>108.0</ele>
        <time>2018-03-05T13:28:32Z</time>
      </trkpt>
      <trkpt lat="38.3053520" lon="-0.6167450">
        <ele>108.0</ele>
        <time>2018-03-05T13:28:33Z</time>
      </trkpt>
      <trkpt lat="38.3053890" lon="-0.6166580">
        <ele>108.0</ele>
        <time>2018-03-05T13:28:34Z</time>
      </trkpt>
      <trkpt lat="38.3054270" lon="-0.6165710">
        <ele>108.0</ele>
        <time>2018-03-05T13:28:35Z</time>
      </trkpt>
      <trkpt lat="38.3054630" lon="-0.6164840">
        <ele>108.0</ele>
        <time>2018-03-05T13:28:36Z</time>
      </trkpt>
      <trkpt lat="38.3055000" lon="-0.6163980">
        <ele>108.0</ele>
        <time>2018-03-05T13:28:37Z</time>
      </trkpt>
      <trkpt lat="38.3055370" lon="-0.6163110">
        <ele>108.0</ele>
        <time>2018-03-05T13:28:38Z</time>
      </trkpt>
      <trkpt lat="38.3055730" lon="-0.6162240">
        <ele>108.0</ele>
        <time>2018-03-05T13:28:39Z</time>
      </trkpt>
      <trkpt lat="38.3056100" lon="-0.6161380">
        <ele>108.0</ele>
        <time>2018-03-05T13:28:40Z</time>
      </trkpt>
      <trkpt lat="38.3056460" lon="-0.6160540">
        <ele>108.0</ele>
        <time>2018-03-05T13:28:41Z</time>
      </trkpt>
      <trkpt lat="38.3056840" lon="-0.6159730">
        <ele>109.0</ele>
        <time>2018-03-05T13:28:42Z</time>
      </trkpt>
      <trkpt lat="38.3057200" lon="-0.6158940">
        <ele>109.0</ele>
        <time>2018-03-05T13:28:43Z</time>
      </trkpt>
      <trkpt lat="38.3057560" lon="-0.6158170">
        <ele>109.0</ele>
        <time>2018-03-05T13:28:44Z</time>
      </trkpt>
      <trkpt lat="38.3057900" lon="-0.6157400">
        <ele>109.0</ele>
        <time>2018-03-05T13:28:45Z</time>
      </trkpt>
      <trkpt lat="38.3058280" lon="-0.6156640">
        <ele>109.0</ele>
        <time>2018-03-05T13:28:46Z</time>
      </trkpt>
      <trkpt lat="38.3058660" lon="-0.6155860">
        <ele>109.0</ele>
        <time>2018-03-05T13:28:47Z</time>
      </trkpt>
      <trkpt lat="38.3059030" lon="-0.6155080">
        <ele>110.0</ele>
        <time>2018-03-05T13:28:48Z</time>
      </trkpt>
      <trkpt lat="38.3059410" lon="-0.6154290">
        <ele>110.0</ele>
        <time>2018-03-05T13:28:49Z</time>
      </trkpt>
      <trkpt lat="38.3059800" lon="-0.6153510">
        <ele>110.0</ele>
        <time>2018-03-05T13:28:50Z</time>
      </trkpt>
      <trkpt lat="38.3060180" lon="-0.6152710">
        <ele>110.0</ele>
        <time>2018-03-05T13:28:51Z</time>
      </trkpt>
      <trkpt lat="38.3060550" lon="-0.6151910">
        <ele>110.0</ele>
        <time>2018-03-05T13:28:52Z</time>
      </trkpt>
      <trkpt lat="38.3060910" lon="-0.6151120">
        <ele>110.0</ele>
        <time>2018-03-05T13:28:53Z</time>
      </trkpt>
      <trkpt lat="38.3061260" lon="-0.6150320">
        <ele>110.0</ele>
        <time>2018-03-05T13:28:54Z</time>
      </trkpt>
      <trkpt lat="38.3061660" lon="-0.6149560">
        <ele>110.0</ele>
        <time>2018-03-05T13:28:55Z</time>
      </trkpt>
      <trkpt lat="38.3062070" lon="-0.6148790">
        <ele>110.0</ele>
        <time>2018-03-05T13:28:56Z</time>
      </trkpt>
      <trkpt lat="38.3062460" lon="-0.6148010">
        <ele>111.0</ele>
        <time>2018-03-05T13:28:57Z</time>
      </trkpt>
      <trkpt lat="38.3062850" lon="-0.6147240">
        <ele>111.0</ele>
        <time>2018-03-05T13:28:58Z</time>
      </trkpt>
      <trkpt lat="38.3063210" lon="-0.6146470">
        <ele>111.0</ele>
        <time>2018-03-05T13:28:59Z</time>
      </trkpt>
      <trkpt lat="38.3063560" lon="-0.6145680">
        <ele>111.0</ele>
        <time>2018-03-05T13:29:00Z</time>
      </trkpt>
      <trkpt lat="38.3063920" lon="-0.6144890">
        <ele>111.0</ele>
        <time>2018-03-05T13:29:01Z</time>
      </trkpt>
      <trkpt lat="38.3064280" lon="-0.6144070">
        <ele>111.0</ele>
        <time>2018-03-05T13:29:02Z</time>
      </trkpt>
      <trkpt lat="38.3064640" lon="-0.6143240">
        <ele>111.0</ele>
        <time>2018-03-05T13:29:03Z</time>
      </trkpt>
      <trkpt lat="38.3064990" lon="-0.6142400">
        <ele>111.0</ele>
        <time>2018-03-05T13:29:04Z</time>
      </trkpt>
      <trkpt lat="38.3065340" lon="-0.6141540">
        <ele>111.0</ele>
        <time>2018-03-05T13:29:05Z</time>
      </trkpt>
      <trkpt lat="38.3065690" lon="-0.6140670">
        <ele>111.0</ele>
        <time>2018-03-05T13:29:06Z</time>
      </trkpt>
      <trkpt lat="38.3066050" lon="-0.6139800">
        <ele>111.0</ele>
        <time>2018-03-05T13:29:07Z</time>
      </trkpt>
      <trkpt lat="38.3066410" lon="-0.6138930">
        <ele>111.0</ele>
        <time>2018-03-05T13:29:08Z</time>
      </trkpt>
      <trkpt lat="38.3066770" lon="-0.6138070">
        <ele>111.0</ele>
        <time>2018-03-05T13:29:09Z</time>
      </trkpt>
      <trkpt lat="38.3067130" lon="-0.6137200">
        <ele>111.0</ele>
        <time>2018-03-05T13:29:10Z</time>
      </trkpt>
      <trkpt lat="38.3067490" lon="-0.6136340">
        <ele>111.0</ele>
        <time>2018-03-05T13:29:11Z</time>
      </trkpt>
      <trkpt lat="38.3067850" lon="-0.6135470">
        <ele>111.0</ele>
        <time>2018-03-05T13:29:12Z</time>
      </trkpt>
      <trkpt lat="38.3068210" lon="-0.6134610">
        <ele>111.0</ele>
        <time>2018-03-05T13:29:13Z</time>
      </trkpt>
      <trkpt lat="38.3068570" lon="-0.6133750">
        <ele>111.0</ele>
        <time>2018-03-05T13:29:14Z</time>
      </trkpt>
      <trkpt lat="38.3068920" lon="-0.6132870">
        <ele>111.0</ele>
        <time>2018-03-05T13:29:15Z</time>
      </trkpt>
      <trkpt lat="38.3069290" lon="-0.6131970">
        <ele>111.0</ele>
        <time>2018-03-05T13:29:16Z</time>
      </trkpt>
      <trkpt lat="38.3069650" lon="-0.6131050">
        <ele>111.0</ele>
        <time>2018-03-05T13:29:17Z</time>
      </trkpt>
      <trkpt lat="38.3069990" lon="-0.6130130">
        <ele>111.0</ele>
        <time>2018-03-05T13:29:18Z</time>
      </trkpt>
      <trkpt lat="38.3070340" lon="-0.6129200">
        <ele>111.0</ele>
        <time>2018-03-05T13:29:19Z</time>
      </trkpt>
      <trkpt lat="38.3070680" lon="-0.6128270">
        <ele>111.0</ele>
        <time>2018-03-05T13:29:20Z</time>
      </trkpt>
      <trkpt lat="38.3071030" lon="-0.6127350">
        <ele>111.0</ele>
        <time>2018-03-05T13:29:21Z</time>
      </trkpt>
      <trkpt lat="38.3071370" lon="-0.6126400">
        <ele>111.0</ele>
        <time>2018-03-05T13:29:22Z</time>
      </trkpt>
      <trkpt lat="38.3071700" lon="-0.6125450">
        <ele>111.0</ele>
        <time>2018-03-05T13:29:23Z</time>
      </trkpt>
      <trkpt lat="38.3072020" lon="-0.6124480">
        <ele>111.0</ele>
        <time>2018-03-05T13:29:24Z</time>
      </trkpt>
      <trkpt lat="38.3072320" lon="-0.6123500">
        <ele>110.0</ele>
        <time>2018-03-05T13:29:25Z</time>
      </trkpt>
      <trkpt lat="38.3072640" lon="-0.6122520">
        <ele>110.0</ele>
        <time>2018-03-05T13:29:26Z</time>
      </trkpt>
      <trkpt lat="38.3072960" lon="-0.6121530">
        <ele>110.0</ele>
        <time>2018-03-05T13:29:27Z</time>
      </trkpt>
      <trkpt lat="38.3073320" lon="-0.6120550">
        <ele>110.0</ele>
        <time>2018-03-05T13:29:28Z</time>
      </trkpt>
      <trkpt lat="38.3073730" lon="-0.6119630">
        <ele>110.0</ele>
        <time>2018-03-05T13:29:29Z</time>
      </trkpt>
      <trkpt lat="38.3074220" lon="-0.6118720">
        <ele>110.0</ele>
        <time>2018-03-05T13:29:30Z</time>
      </trkpt>
      <trkpt lat="38.3074740" lon="-0.6117820">
        <ele>110.0</ele>
        <time>2018-03-05T13:29:31Z</time>
      </trkpt>
      <trkpt lat="38.3075230" lon="-0.6116900">
        <ele>110.0</ele>
        <time>2018-03-05T13:29:32Z</time>
      </trkpt>
      <trkpt lat="38.3075660" lon="-0.6115960">
        <ele>110.0</ele>
        <time>2018-03-05T13:29:33Z</time>
      </trkpt>
      <trkpt lat="38.3076030" lon="-0.6115020">
        <ele>110.0</ele>
        <time>2018-03-05T13:29:34Z</time>
      </trkpt>
      <trkpt lat="38.3076350" lon="-0.6114080">
        <ele>111.0</ele>
        <time>2018-03-05T13:29:35Z</time>
      </trkpt>
      <trkpt lat="38.3076610" lon="-0.6113160">
        <ele>111.0</ele>
        <time>2018-03-05T13:29:36Z</time>
      </trkpt>
      <trkpt lat="38.3076840" lon="-0.6112290">
        <ele>112.0</ele>
        <time>2018-03-05T13:29:37Z</time>
      </trkpt>
      <trkpt lat="38.3077160" lon="-0.6111520">
        <ele>112.0</ele>
        <time>2018-03-05T13:29:38Z</time>
      </trkpt>
      <trkpt lat="38.3077600" lon="-0.6110900">
        <ele>112.0</ele>
        <time>2018-03-05T13:29:39Z</time>
      </trkpt>
      <trkpt lat="38.3077990" lon="-0.6110540">
        <ele>113.0</ele>
        <time>2018-03-05T13:29:40Z</time>
      </trkpt>
      <trkpt lat="38.3078490" lon="-0.6110280">
        <ele>112.0</ele>
        <time>2018-03-05T13:29:41Z</time>
      </trkpt>
      <trkpt lat="38.3079010" lon="-0.6110160">
        <ele>112.0</ele>
        <time>2018-03-05T13:29:42Z</time>
      </trkpt>
      <trkpt lat="38.3079490" lon="-0.6110030">
        <ele>111.0</ele>
        <time>2018-03-05T13:29:43Z</time>
      </trkpt>
      <trkpt lat="38.3079920" lon="-0.6110050">
        <ele>109.0</ele>
        <time>2018-03-05T13:29:44Z</time>
      </trkpt>
      <trkpt lat="38.3080400" lon="-0.6110120">
        <ele>107.0</ele>
        <time>2018-03-05T13:29:45Z</time>
      </trkpt>
      <trkpt lat="38.3080900" lon="-0.6110380">
        <ele>104.0</ele>
        <time>2018-03-05T13:29:46Z</time>
      </trkpt>
      <trkpt lat="38.3081230" lon="-0.6111430">
        <ele>106.0</ele>
        <time>2018-03-05T13:29:47Z</time>
      </trkpt>
      <trkpt lat="38.3081520" lon="-0.6112440">
        <ele>108.0</ele>
        <time>2018-03-05T13:29:48Z</time>
      </trkpt>
      <trkpt lat="38.3081980" lon="-0.6113040">
        <ele>107.0</ele>
        <time>2018-03-05T13:29:49Z</time>
      </trkpt>
      <trkpt lat="38.3082440" lon="-0.6113730">
        <ele>107.0</ele>
        <time>2018-03-05T13:29:50Z</time>
      </trkpt>
      <trkpt lat="38.3082850" lon="-0.6114400">
        <ele>107.0</ele>
        <time>2018-03-05T13:29:51Z</time>
      </trkpt>
      <trkpt lat="38.3083230" lon="-0.6115210">
        <ele>107.0</ele>
        <time>2018-03-05T13:29:52Z</time>
      </trkpt>
      <trkpt lat="38.3083570" lon="-0.6116160">
        <ele>109.0</ele>
        <time>2018-03-05T13:29:53Z</time>
      </trkpt>
      <trkpt lat="38.3083850" lon="-0.6117060">
        <ele>109.0</ele>
        <time>2018-03-05T13:29:54Z</time>
      </trkpt>
      <trkpt lat="38.3084000" lon="-0.6118010">
        <ele>110.0</ele>
        <time>2018-03-05T13:29:55Z</time>
      </trkpt>
      <trkpt lat="38.3084090" lon="-0.6118930">
        <ele>110.0</ele>
        <time>2018-03-05T13:29:56Z</time>
      </trkpt>
      <trkpt lat="38.3084130" lon="-0.6119880">
        <ele>110.0</ele>
        <time>2018-03-05T13:29:57Z</time>
      </trkpt>
      <trkpt lat="38.3084100" lon="-0.6120830">
        <ele>110.0</ele>
        <time>2018-03-05T13:29:58Z</time>
      </trkpt>
      <trkpt lat="38.3084040" lon="-0.6121740">
        <ele>110.0</ele>
        <time>2018-03-05T13:29:59Z</time>
      </trkpt>
      <trkpt lat="38.3084010" lon="-0.6122610">
        <ele>111.0</ele>
        <time>2018-03-05T13:30:00Z</time>
      </trkpt>
      <trkpt lat="38.3084180" lon="-0.6123430">
        <ele>111.0</ele>
        <time>2018-03-05T13:30:01Z</time>
      </trkpt>
      <trkpt lat="38.3084570" lon="-0.6124140">
        <ele>111.0</ele>
        <time>2018-03-05T13:30:02Z</time>
      </trkpt>
      <trkpt lat="38.3085050" lon="-0.6124600">
        <ele>112.0</ele>
        <time>2018-03-05T13:30:03Z</time>
      </trkpt>
      <trkpt lat="38.3085620" lon="-0.6124810">
        <ele>111.0</ele>
        <time>2018-03-05T13:30:04Z</time>
      </trkpt>
      <trkpt lat="38.3086220" lon="-0.6124940">
        <ele>111.0</ele>
        <time>2018-03-05T13:30:05Z</time>
      </trkpt>
      <trkpt lat="38.3086810" lon="-0.6125140">
        <ele>111.0</ele>
        <time>2018-03-05T13:30:06Z</time>
      </trkpt>
      <trkpt lat="38.3087390" lon="-0.6125360">
        <ele>111.0</ele>
        <time>2018-03-05T13:30:07Z</time>
      </trkpt>
      <trkpt lat="38.3087930" lon="-0.6125740">
        <ele>112.0</ele>
        <time>2018-03-05T13:30:08Z</time>
      </trkpt>
      <trkpt lat="38.3088530" lon="-0.6125990">
        <ele>112.0</ele>
        <time>2018-03-05T13:30:09Z</time>
      </trkpt>
      <trkpt lat="38.3089110" lon="-0.6126040">
        <ele>112.0</ele>
        <time>2018-03-05T13:30:10Z</time>
      </trkpt>
      <trkpt lat="38.3089830" lon="-0.6126310">
        <ele>111.0</ele>
        <time>2018-03-05T13:30:11Z</time>
      </trkpt>
      <trkpt lat="38.3090440" lon="-0.6126680">
        <ele>110.0</ele>
        <time>2018-03-05T13:30:12Z</time>
      </trkpt>
      <trkpt lat="38.3091000" lon="-0.6127160">
        <ele>110.0</ele>
        <time>2018-03-05T13:30:13Z</time>
      </trkpt>
      <trkpt lat="38.3091510" lon="-0.6127720">
        <ele>110.0</ele>
        <time>2018-03-05T13:30:14Z</time>
      </trkpt>
      <trkpt lat="38.3092020" lon="-0.6128360">
        <ele>110.0</ele>
        <time>2018-03-05T13:30:15Z</time>
      </trkpt>
      <trkpt lat="38.3092420" lon="-0.6129110">
        <ele>110.0</ele>
        <time>2018-03-05T13:30:16Z</time>
      </trkpt>
      <trkpt lat="38.3092750" lon="-0.6129900">
        <ele>110.0</ele>
        <time>2018-03-05T13:30:17Z</time>
      </trkpt>
      <trkpt lat="38.3093040" lon="-0.6130710">
        <ele>111.0</ele>
        <time>2018-03-05T13:30:18Z</time>
      </trkpt>
      <trkpt lat="38.3093200" lon="-0.6131520">
        <ele>110.0</ele>
        <time>2018-03-05T13:30:19Z</time>
      </trkpt>
      <trkpt lat="38.3093440" lon="-0.6132310">
        <ele>110.0</ele>
        <time>2018-03-05T13:30:20Z</time>
      </trkpt>
      <trkpt lat="38.3093660" lon="-0.6133120">
        <ele>111.0</ele>
        <time>2018-03-05T13:30:21Z</time>
      </trkpt>
      <trkpt lat="38.3093860" lon="-0.6133910">
        <ele>111.0</ele>
        <time>2018-03-05T13:30:22Z</time>
      </trkpt>
      <trkpt lat="38.3094030" lon="-0.6134740">
        <ele>111.0</ele>
        <time>2018-03-05T13:30:23Z</time>
      </trkpt>
      <trkpt lat="38.3094210" lon="-0.6135520">
        <ele>112.0</ele>
        <time>2018-03-05T13:30:24Z</time>
      </trkpt>
      <trkpt lat="38.3094410" lon="-0.6136280">
        <ele>112.0</ele>
        <time>2018-03-05T13:30:25Z</time>
      </trkpt>
      <trkpt lat="38.3094630" lon="-0.6137040">
        <ele>112.0</ele>
        <time>2018-03-05T13:30:26Z</time>
      </trkpt>
      <trkpt lat="38.3094940" lon="-0.6137810">
        <ele>112.0</ele>
        <time>2018-03-05T13:30:27Z</time>
      </trkpt>
      <trkpt lat="38.3095250" lon="-0.6138520">
        <ele>111.0</ele>
        <time>2018-03-05T13:30:28Z</time>
      </trkpt>
      <trkpt lat="38.3095560" lon="-0.6139200">
        <ele>111.0</ele>
        <time>2018-03-05T13:30:29Z</time>
      </trkpt>
      <trkpt lat="38.3095960" lon="-0.6139830">
        <ele>112.0</ele>
        <time>2018-03-05T13:30:30Z</time>
      </trkpt>
      <trkpt lat="38.3096410" lon="-0.6140460">
        <ele>112.0</ele>
        <time>2018-03-05T13:30:31Z</time>
      </trkpt>
      <trkpt lat="38.3096890" lon="-0.6141040">
        <ele>112.0</ele>
        <time>2018-03-05T13:30:32Z</time>
      </trkpt>
      <trkpt lat="38.3097470" lon="-0.6141530">
        <ele>112.0</ele>
        <time>2018-03-05T13:30:33Z</time>
      </trkpt>
      <trkpt lat="38.3098120" lon="-0.6141810">
        <ele>113.0</ele>
        <time>2018-03-05T13:30:34Z</time>
      </trkpt>
      <trkpt lat="38.3098780" lon="-0.6141890">
        <ele>112.0</ele>
        <time>2018-03-05T13:30:35Z</time>
      </trkpt>
      <trkpt lat="38.3099460" lon="-0.6141750">
        <ele>113.0</ele>
        <time>2018-03-05T13:30:36Z</time>
      </trkpt>
      <trkpt lat="38.3100110" lon="-0.6141390">
        <ele>114.0</ele>
        <time>2018-03-05T13:30:37Z</time>
      </trkpt>
      <trkpt lat="38.3100770" lon="-0.6141050">
        <ele>114.0</ele>
        <time>2018-03-05T13:30:38Z</time>
      </trkpt>
      <trkpt lat="38.3101450" lon="-0.6140850">
        <ele>115.0</ele>
        <time>2018-03-05T13:30:39Z</time>
      </trkpt>
      <trkpt lat="38.3102140" lon="-0.6141030">
        <ele>114.0</ele>
        <time>2018-03-05T13:30:40Z</time>
      </trkpt>
      <trkpt lat="38.3102730" lon="-0.6141420">
        <ele>114.0</ele>
        <time>2018-03-05T13:30:41Z</time>
      </trkpt>
      <trkpt lat="38.3103240" lon="-0.6141980">
        <ele>114.0</ele>
        <time>2018-03-05T13:30:42Z</time>
      </trkpt>
      <trkpt lat="38.3103660" lon="-0.6142620">
        <ele>115.0</ele>
        <time>2018-03-05T13:30:43Z</time>
      </trkpt>
      <trkpt lat="38.3104010" lon="-0.6143290">
        <ele>115.0</ele>
        <time>2018-03-05T13:30:44Z</time>
      </trkpt>
      <trkpt lat="38.3104370" lon="-0.6143970">
        <ele>115.0</ele>
        <time>2018-03-05T13:30:45Z</time>
      </trkpt>
      <trkpt lat="38.3104750" lon="-0.6144640">
        <ele>116.0</ele>
        <time>2018-03-05T13:30:46Z</time>
      </trkpt>
      <trkpt lat="38.3105130" lon="-0.6145310">
        <ele>116.0</ele>
        <time>2018-03-05T13:30:47Z</time>
      </trkpt>
      <trkpt lat="38.3105520" lon="-0.6145990">
        <ele>116.0</ele>
        <time>2018-03-05T13:30:48Z</time>
      </trkpt>
      <trkpt lat="38.3105910" lon="-0.6146670">
        <ele>116.0</ele>
        <time>2018-03-05T13:30:49Z</time>
      </trkpt>
      <trkpt lat="38.3106320" lon="-0.6147340">
        <ele>116.0</ele>
        <time>2018-03-05T13:30:50Z</time>
      </trkpt>
      <trkpt lat="38.3106770" lon="-0.6147990">
        <ele>117.0</ele>
        <time>2018-03-05T13:30:51Z</time>
      </trkpt>
      <trkpt lat="38.3107200" lon="-0.6148650">
        <ele>117.0</ele>
        <time>2018-03-05T13:30:52Z</time>
      </trkpt>
      <trkpt lat="38.3107610" lon="-0.6149320">
        <ele>117.0</ele>
        <time>2018-03-05T13:30:53Z</time>
      </trkpt>
      <trkpt lat="38.3108020" lon="-0.6149980">
        <ele>117.0</ele>
        <time>2018-03-05T13:30:54Z</time>
      </trkpt>
      <trkpt lat="38.3108420" lon="-0.6150630">
        <ele>118.0</ele>
        <time>2018-03-05T13:30:55Z</time>
      </trkpt>
      <trkpt lat="38.3108810" lon="-0.6151270">
        <ele>118.0</ele>
        <time>2018-03-05T13:30:56Z</time>
      </trkpt>
      <trkpt lat="38.3109200" lon="-0.6151910">
        <ele>118.0</ele>
        <time>2018-03-05T13:30:57Z</time>
      </trkpt>
      <trkpt lat="38.3109580" lon="-0.6152540">
        <ele>118.0</ele>
        <time>2018-03-05T13:30:58Z</time>
      </trkpt>
      <trkpt lat="38.3109960" lon="-0.6153180">
        <ele>118.0</ele>
        <time>2018-03-05T13:30:59Z</time>
      </trkpt>
      <trkpt lat="38.3110330" lon="-0.6153850">
        <ele>118.0</ele>
        <time>2018-03-05T13:31:00Z</time>
      </trkpt>
      <trkpt lat="38.3110700" lon="-0.6154500">
        <ele>119.0</ele>
        <time>2018-03-05T13:31:01Z</time>
      </trkpt>
      <trkpt lat="38.3111080" lon="-0.6155140">
        <ele>119.0</ele>
        <time>2018-03-05T13:31:02Z</time>
      </trkpt>
      <trkpt lat="38.3111450" lon="-0.6155770">
        <ele>119.0</ele>
        <time>2018-03-05T13:31:03Z</time>
      </trkpt>
      <trkpt lat="38.3111810" lon="-0.6156410">
        <ele>119.0</ele>
        <time>2018-03-05T13:31:04Z</time>
      </trkpt>
      <trkpt lat="38.3112160" lon="-0.6157050">
        <ele>119.0</ele>
        <time>2018-03-05T13:31:05Z</time>
      </trkpt>
      <trkpt lat="38.3112550" lon="-0.6157670">
        <ele>120.0</ele>
        <time>2018-03-05T13:31:06Z</time>
      </trkpt>
      <trkpt lat="38.3112970" lon="-0.6158260">
        <ele>120.0</ele>
        <time>2018-03-05T13:31:07Z</time>
      </trkpt>
      <trkpt lat="38.3113390" lon="-0.6158850">
        <ele>120.0</ele>
        <time>2018-03-05T13:31:08Z</time>
      </trkpt>
      <trkpt lat="38.3113810" lon="-0.6159440">
        <ele>120.0</ele>
        <time>2018-03-05T13:31:09Z</time>
      </trkpt>
      <trkpt lat="38.3114230" lon="-0.6160030">
        <ele>120.0</ele>
        <time>2018-03-05T13:31:10Z</time>
      </trkpt>
      <trkpt lat="38.3114660" lon="-0.6160620">
        <ele>121.0</ele>
        <time>2018-03-05T13:31:11Z</time>
      </trkpt>
      <trkpt lat="38.3115070" lon="-0.6161210">
        <ele>121.0</ele>
        <time>2018-03-05T13:31:12Z</time>
      </trkpt>
      <trkpt lat="38.3115490" lon="-0.6161790">
        <ele>121.0</ele>
        <time>2018-03-05T13:31:13Z</time>
      </trkpt>
      <trkpt lat="38.3115910" lon="-0.6162350">
        <ele>122.0</ele>
        <time>2018-03-05T13:31:14Z</time>
      </trkpt>
      <trkpt lat="38.3116340" lon="-0.6162890">
        <ele>122.0</ele>
        <time>2018-03-05T13:31:15Z</time>
      </trkpt>
      <trkpt lat="38.3116780" lon="-0.6163430">
        <ele>122.0</ele>
        <time>2018-03-05T13:31:16Z</time>
      </trkpt>
      <trkpt lat="38.3117230" lon="-0.6163970">
        <ele>122.0</ele>
        <time>2018-03-05T13:31:17Z</time>
      </trkpt>
      <trkpt lat="38.3117690" lon="-0.6164470">
        <ele>122.0</ele>
        <time>2018-03-05T13:31:18Z</time>
      </trkpt>
      <trkpt lat="38.3118180" lon="-0.6164930">
        <ele>122.0</ele>
        <time>2018-03-05T13:31:19Z</time>
      </trkpt>
      <trkpt lat="38.3118680" lon="-0.6165360">
        <ele>122.0</ele>
        <time>2018-03-05T13:31:20Z</time>
      </trkpt>
      <trkpt lat="38.3119180" lon="-0.6165830">
        <ele>123.0</ele>
        <time>2018-03-05T13:31:21Z</time>
      </trkpt>
      <trkpt lat="38.3119670" lon="-0.6166290">
        <ele>123.0</ele>
        <time>2018-03-05T13:31:22Z</time>
      </trkpt>
      <trkpt lat="38.3120150" lon="-0.6166740">
        <ele>123.0</ele>
        <time>2018-03-05T13:31:23Z</time>
      </trkpt>
      <trkpt lat="38.3120660" lon="-0.6167120">
        <ele>123.0</ele>
        <time>2018-03-05T13:31:24Z</time>
      </trkpt>
      <trkpt lat="38.3121150" lon="-0.6167480">
        <ele>123.0</ele>
        <time>2018-03-05T13:31:25Z</time>
      </trkpt>
      <trkpt lat="38.3121690" lon="-0.6167160">
        <ele>127.0</ele>
        <time>2018-03-05T13:31:26Z</time>
      </trkpt>
      <trkpt lat="38.3122150" lon="-0.6166810">
        <ele>127.0</ele>
        <time>2018-03-05T13:31:27Z</time>
      </trkpt>
      <trkpt lat="38.3122590" lon="-0.6166360">
        <ele>127.0</ele>
        <time>2018-03-05T13:31:28Z</time>
      </trkpt>
      <trkpt lat="38.3123050" lon="-0.6165930">
        <ele>126.0</ele>
        <time>2018-03-05T13:31:29Z</time>
      </trkpt>
      <trkpt lat="38.3123570" lon="-0.6165540">
        <ele>126.0</ele>
        <time>2018-03-05T13:31:30Z</time>
      </trkpt>
      <trkpt lat="38.3124130" lon="-0.6165110">
        <ele>126.0</ele>
        <time>2018-03-05T13:31:31Z</time>
      </trkpt>
      <trkpt lat="38.3124680" lon="-0.6164690">
        <ele>127.0</ele>
        <time>2018-03-05T13:31:32Z</time>
      </trkpt>
      <trkpt lat="38.3125250" lon="-0.6164030">
        <ele>126.0</ele>
        <time>2018-03-05T13:31:33Z</time>
      </trkpt>
      <trkpt lat="38.3125810" lon="-0.6163430">
        <ele>125.0</ele>
        <time>2018-03-05T13:31:34Z</time>
      </trkpt>
      <trkpt lat="38.3126380" lon="-0.6162910">
        <ele>125.0</ele>
        <time>2018-03-05T13:31:35Z</time>
      </trkpt>
      <trkpt lat="38.3126970" lon="-0.6162520">
        <ele>124.0</ele>
        <time>2018-03-05T13:31:36Z</time>
      </trkpt>
      <trkpt lat="38.3127610" lon="-0.6162320">
        <ele>125.0</ele>
        <time>2018-03-05T13:31:37Z</time>
      </trkpt>
      <trkpt lat="38.3128290" lon="-0.6162440">
        <ele>124.0</ele>
        <time>2018-03-05T13:31:38Z</time>
      </trkpt>
      <trkpt lat="38.3128880" lon="-0.6162760">
        <ele>123.0</ele>
        <time>2018-03-05T13:31:39Z</time>
      </trkpt>
      <trkpt lat="38.3129420" lon="-0.6163160">
        <ele>124.0</ele>
        <time>2018-03-05T13:31:40Z</time>
      </trkpt>
      <trkpt lat="38.3129880" lon="-0.6163590">
        <ele>124.0</ele>
        <time>2018-03-05T13:31:41Z</time>
      </trkpt>
      <trkpt lat="38.3130300" lon="-0.6164090">
        <ele>125.0</ele>
        <time>2018-03-05T13:31:42Z</time>
      </trkpt>
      <trkpt lat="38.3130710" lon="-0.6164610">
        <ele>125.0</ele>
        <time>2018-03-05T13:31:43Z</time>
      </trkpt>
      <trkpt lat="38.3131140" lon="-0.6165140">
        <ele>125.0</ele>
        <time>2018-03-05T13:31:44Z</time>
      </trkpt>
      <trkpt lat="38.3131580" lon="-0.6165690">
        <ele>125.0</ele>
        <time>2018-03-05T13:31:45Z</time>
      </trkpt>
      <trkpt lat="38.3132080" lon="-0.6166240">
        <ele>125.0</ele>
        <time>2018-03-05T13:31:46Z</time>
      </trkpt>
      <trkpt lat="38.3132540" lon="-0.6166770">
        <ele>125.0</ele>
        <time>2018-03-05T13:31:47Z</time>
      </trkpt>
      <trkpt lat="38.3133000" lon="-0.6167280">
        <ele>126.0</ele>
        <time>2018-03-05T13:31:48Z</time>
      </trkpt>
      <trkpt lat="38.3133440" lon="-0.6167800">
        <ele>126.0</ele>
        <time>2018-03-05T13:31:49Z</time>
      </trkpt>
      <trkpt lat="38.3133880" lon="-0.6168300">
        <ele>126.0</ele>
        <time>2018-03-05T13:31:50Z</time>
      </trkpt>
      <trkpt lat="38.3134350" lon="-0.6168770">
        <ele>127.0</ele>
        <time>2018-03-05T13:31:51Z</time>
      </trkpt>
      <trkpt lat="38.3134820" lon="-0.6169200">
        <ele>127.0</ele>
        <time>2018-03-05T13:31:52Z</time>
      </trkpt>
      <trkpt lat="38.3135310" lon="-0.6169600">
        <ele>127.0</ele>
        <time>2018-03-05T13:31:53Z</time>
      </trkpt>
      <trkpt lat="38.3135850" lon="-0.6169810">
        <ele>127.0</ele>
        <time>2018-03-05T13:31:54Z</time>
      </trkpt>
      <trkpt lat="38.3136390" lon="-0.6169990">
        <ele>126.0</ele>
        <time>2018-03-05T13:31:55Z</time>
      </trkpt>
      <trkpt lat="38.3137010" lon="-0.6169900">
        <ele>125.0</ele>
        <time>2018-03-05T13:31:56Z</time>
      </trkpt>
      <trkpt lat="38.3137530" lon="-0.6169790">
        <ele>124.0</ele>
        <time>2018-03-05T13:31:57Z</time>
      </trkpt>
      <trkpt lat="38.3138130" lon="-0.6169650">
        <ele>124.0</ele>
        <time>2018-03-05T13:31:58Z</time>
      </trkpt>
      <trkpt lat="38.3138720" lon="-0.6169440">
        <ele>124.0</ele>
        <time>2018-03-05T13:31:59Z</time>
      </trkpt>
      <trkpt lat="38.3139310" lon="-0.6169260">
        <ele>124.0</ele>
        <time>2018-03-05T13:32:00Z</time>
      </trkpt>
      <trkpt lat="38.3139950" lon="-0.6169160">
        <ele>124.0</ele>
        <time>2018-03-05T13:32:01Z</time>
      </trkpt>
      <trkpt lat="38.3140630" lon="-0.6169110">
        <ele>124.0</ele>
        <time>2018-03-05T13:32:02Z</time>
      </trkpt>
      <trkpt lat="38.3141290" lon="-0.6169190">
        <ele>124.0</ele>
        <time>2018-03-05T13:32:03Z</time>
      </trkpt>
      <trkpt lat="38.3141950" lon="-0.6169350">
        <ele>124.0</ele>
        <time>2018-03-05T13:32:04Z</time>
      </trkpt>
      <trkpt lat="38.3142620" lon="-0.6169540">
        <ele>124.0</ele>
        <time>2018-03-05T13:32:05Z</time>
      </trkpt>
      <trkpt lat="38.3143310" lon="-0.6169700">
        <ele>124.0</ele>
        <time>2018-03-05T13:32:06Z</time>
      </trkpt>
      <trkpt lat="38.3144000" lon="-0.6169830">
        <ele>124.0</ele>
        <time>2018-03-05T13:32:07Z</time>
      </trkpt>
      <trkpt lat="38.3144710" lon="-0.6169960">
        <ele>124.0</ele>
        <time>2018-03-05T13:32:08Z</time>
      </trkpt>
      <trkpt lat="38.3145420" lon="-0.6170090">
        <ele>124.0</ele>
        <time>2018-03-05T13:32:09Z</time>
      </trkpt>
      <trkpt lat="38.3146130" lon="-0.6170200">
        <ele>124.0</ele>
        <time>2018-03-05T13:32:10Z</time>
      </trkpt>
      <trkpt lat="38.3146850" lon="-0.6170330">
        <ele>124.0</ele>
        <time>2018-03-05T13:32:11Z</time>
      </trkpt>
      <trkpt lat="38.3147580" lon="-0.6170460">
        <ele>124.0</ele>
        <time>2018-03-05T13:32:12Z</time>
      </trkpt>
      <trkpt lat="38.3148300" lon="-0.6170610">
        <ele>124.0</ele>
        <time>2018-03-05T13:32:13Z</time>
      </trkpt>
      <trkpt lat="38.3149020" lon="-0.6170760">
        <ele>124.0</ele>
        <time>2018-03-05T13:32:14Z</time>
      </trkpt>
      <trkpt lat="38.3149730" lon="-0.6170910">
        <ele>124.0</ele>
        <time>2018-03-05T13:32:15Z</time>
      </trkpt>
      <trkpt lat="38.3150440" lon="-0.6171060">
        <ele>124.0</ele>
        <time>2018-03-05T13:32:16Z</time>
      </trkpt>
      <trkpt lat="38.3151140" lon="-0.6171200">
        <ele>124.0</ele>
        <time>2018-03-05T13:32:17Z</time>
      </trkpt>
      <trkpt lat="38.3151850" lon="-0.6171290">
        <ele>125.0</ele>
        <time>2018-03-05T13:32:18Z</time>
      </trkpt>
      <trkpt lat="38.3152520" lon="-0.6171390">
        <ele>125.0</ele>
        <time>2018-03-05T13:32:19Z</time>
      </trkpt>
      <trkpt lat="38.3153160" lon="-0.6171510">
        <ele>126.0</ele>
        <time>2018-03-05T13:32:20Z</time>
      </trkpt>
      <trkpt lat="38.3153780" lon="-0.6171630">
        <ele>126.0</ele>
        <time>2018-03-05T13:32:21Z</time>
      </trkpt>
      <trkpt lat="38.3154400" lon="-0.6171750">
        <ele>126.0</ele>
        <time>2018-03-05T13:32:22Z</time>
      </trkpt>
      <trkpt lat="38.3155010" lon="-0.6171860">
        <ele>127.0</ele>
        <time>2018-03-05T13:32:23Z</time>
      </trkpt>
      <trkpt lat="38.3155600" lon="-0.6172000">
        <ele>127.0</ele>
        <time>2018-03-05T13:32:24Z</time>
      </trkpt>
      <trkpt lat="38.3156190" lon="-0.6172140">
        <ele>128.0</ele>
        <time>2018-03-05T13:32:25Z</time>
      </trkpt>
      <trkpt lat="38.3156760" lon="-0.6172260">
        <ele>128.0</ele>
        <time>2018-03-05T13:32:26Z</time>
      </trkpt>
      <trkpt lat="38.3157330" lon="-0.6172430">
        <ele>128.0</ele>
        <time>2018-03-05T13:32:27Z</time>
      </trkpt>
      <trkpt lat="38.3157900" lon="-0.6172630">
        <ele>129.0</ele>
        <time>2018-03-05T13:32:28Z</time>
      </trkpt>
      <trkpt lat="38.3158480" lon="-0.6172820">
        <ele>129.0</ele>
        <time>2018-03-05T13:32:29Z</time>
      </trkpt>
      <trkpt lat="38.3159070" lon="-0.6172990">
        <ele>129.0</ele>
        <time>2018-03-05T13:32:30Z</time>
      </trkpt>
      <trkpt lat="38.3159650" lon="-0.6173150">
        <ele>130.0</ele>
        <time>2018-03-05T13:32:31Z</time>
      </trkpt>
      <trkpt lat="38.3160230" lon="-0.6173310">
        <ele>130.0</ele>
        <time>2018-03-05T13:32:32Z</time>
      </trkpt>
      <trkpt lat="38.3160820" lon="-0.6173410">
        <ele>130.0</ele>
        <time>2018-03-05T13:32:33Z</time>
      </trkpt>
      <trkpt lat="38.3161410" lon="-0.6173530">
        <ele>130.0</ele>
        <time>2018-03-05T13:32:34Z</time>
      </trkpt>
      <trkpt lat="38.3161990" lon="-0.6173680">
        <ele>130.0</ele>
        <time>2018-03-05T13:32:35Z</time>
      </trkpt>
      <trkpt lat="38.3162570" lon="-0.6173840">
        <ele>131.0</ele>
        <time>2018-03-05T13:32:36Z</time>
      </trkpt>
      <trkpt lat="38.3163150" lon="-0.6173890">
        <ele>131.0</ele>
        <time>2018-03-05T13:32:37Z</time>
      </trkpt>
      <trkpt lat="38.3163750" lon="-0.6173830">
        <ele>131.0</ele>
        <time>2018-03-05T13:32:38Z</time>
      </trkpt>
      <trkpt lat="38.3164290" lon="-0.6173570">
        <ele>132.0</ele>
        <time>2018-03-05T13:32:39Z</time>
      </trkpt>
      <trkpt lat="38.3164870" lon="-0.6173160">
        <ele>132.0</ele>
        <time>2018-03-05T13:32:40Z</time>
      </trkpt>
      <trkpt lat="38.3165450" lon="-0.6172730">
        <ele>132.0</ele>
        <time>2018-03-05T13:32:41Z</time>
      </trkpt>
      <trkpt lat="38.3166010" lon="-0.6172230">
        <ele>131.0</ele>
        <time>2018-03-05T13:32:42Z</time>
      </trkpt>
      <trkpt lat="38.3166580" lon="-0.6171740">
        <ele>131.0</ele>
        <time>2018-03-05T13:32:43Z</time>
      </trkpt>
      <trkpt lat="38.3167170" lon="-0.6171310">
        <ele>131.0</ele>
        <time>2018-03-05T13:32:44Z</time>
      </trkpt>
      <trkpt lat="38.3167800" lon="-0.6171010">
        <ele>131.0</ele>
        <time>2018-03-05T13:32:45Z</time>
      </trkpt>
      <trkpt lat="38.3168450" lon="-0.6170890">
        <ele>131.0</ele>
        <time>2018-03-05T13:32:46Z</time>
      </trkpt>
      <trkpt lat="38.3169110" lon="-0.6170910">
        <ele>131.0</ele>
        <time>2018-03-05T13:32:47Z</time>
      </trkpt>
      <trkpt lat="38.3169710" lon="-0.6171060">
        <ele>131.0</ele>
        <time>2018-03-05T13:32:48Z</time>
      </trkpt>
      <trkpt lat="38.3170320" lon="-0.6171250">
        <ele>132.0</ele>
        <time>2018-03-05T13:32:49Z</time>
      </trkpt>
      <trkpt lat="38.3170900" lon="-0.6171390">
        <ele>132.0</ele>
        <time>2018-03-05T13:32:50Z</time>
      </trkpt>
      <trkpt lat="38.3171340" lon="-0.6171380">
        <ele>131.0</ele>
        <time>2018-03-05T13:32:51Z</time>
      </trkpt>
      <trkpt lat="38.3171660" lon="-0.6171140">
        <ele>131.0</ele>
        <time>2018-03-05T13:32:52Z</time>
      </trkpt>
      <trkpt lat="38.3171980" lon="-0.6170750">
        <ele>131.0</ele>
        <time>2018-03-05T13:32:53Z</time>
      </trkpt>
      <trkpt lat="38.3172210" lon="-0.6170070">
        <ele>130.0</ele>
        <time>2018-03-05T13:32:54Z</time>
      </trkpt>
      <trkpt lat="38.3172370" lon="-0.6169360">
        <ele>129.0</ele>
        <time>2018-03-05T13:32:55Z</time>
      </trkpt>
      <trkpt lat="38.3172520" lon="-0.6168540">
        <ele>130.0</ele>
        <time>2018-03-05T13:32:56Z</time>
      </trkpt>
      <trkpt lat="38.3172680" lon="-0.6167710">
        <ele>130.0</ele>
        <time>2018-03-05T13:32:57Z</time>
      </trkpt>
      <trkpt lat="38.3172880" lon="-0.6166850">
        <ele>130.0</ele>
        <time>2018-03-05T13:32:58Z</time>
      </trkpt>
      <trkpt lat="38.3173070" lon="-0.6165970">
        <ele>130.0</ele>
        <time>2018-03-05T13:32:59Z</time>
      </trkpt>
      <trkpt lat="38.3173250" lon="-0.6165110">
        <ele>131.0</ele>
        <time>2018-03-05T13:33:00Z</time>
      </trkpt>
      <trkpt lat="38.3173430" lon="-0.6164280">
        <ele>131.0</ele>
        <time>2018-03-05T13:33:01Z</time>
      </trkpt>
      <trkpt lat="38.3173590" lon="-0.6163620">
        <ele>131.0</ele>
        <time>2018-03-05T13:33:02Z</time>
      </trkpt>
      <trkpt lat="38.3173720" lon="-0.6162940">
        <ele>131.0</ele>
        <time>2018-03-05T13:33:03Z</time>
      </trkpt>
      <trkpt lat="38.3174090" lon="-0.6162450">
        <ele>132.0</ele>
        <time>2018-03-05T13:33:04Z</time>
      </trkpt>
      <trkpt lat="38.3174480" lon="-0.6161890">
        <ele>131.0</ele>
        <time>2018-03-05T13:33:05Z</time>
      </trkpt>
      <trkpt lat="38.3174820" lon="-0.6161310">
        <ele>131.0</ele>
        <time>2018-03-05T13:33:06Z</time>
      </trkpt>
      <trkpt lat="38.3175230" lon="-0.6160670">
        <ele>132.0</ele>
        <time>2018-03-05T13:33:07Z</time>
      </trkpt>
      <trkpt lat="38.3175670" lon="-0.6160080">
        <ele>131.0</ele>
        <time>2018-03-05T13:33:08Z</time>
      </trkpt>
      <trkpt lat="38.3176160" lon="-0.6159560">
        <ele>132.0</ele>
        <time>2018-03-05T13:33:09Z</time>
      </trkpt>
      <trkpt lat="38.3176630" lon="-0.6159110">
        <ele>133.0</ele>
        <time>2018-03-05T13:33:10Z</time>
      </trkpt>
      <trkpt lat="38.3177120" lon="-0.6158680">
        <ele>133.0</ele>
        <time>2018-03-05T13:33:11Z</time>
      </trkpt>
      <trkpt lat="38.3177600" lon="-0.6158260">
        <ele>134.0</ele>
        <time>2018-03-05T13:33:12Z</time>
      </trkpt>
      <trkpt lat="38.3178100" lon="-0.6157900">
        <ele>134.0</ele>
        <time>2018-03-05T13:33:13Z</time>
      </trkpt>
      <trkpt lat="38.3178560" lon="-0.6157600">
        <ele>134.0</ele>
        <time>2018-03-05T13:33:14Z</time>
      </trkpt>
      <trkpt lat="38.3179020" lon="-0.6157340">
        <ele>135.0</ele>
        <time>2018-03-05T13:33:15Z</time>
      </trkpt>
      <trkpt lat="38.3179420" lon="-0.6157320">
        <ele>136.0</ele>
        <time>2018-03-05T13:33:16Z</time>
      </trkpt>
      <trkpt lat="38.3179760" lon="-0.6157280">
        <ele>137.0</ele>
        <time>2018-03-05T13:33:17Z</time>
      </trkpt>
      <trkpt lat="38.3180100" lon="-0.6157210">
        <ele>137.0</ele>
        <time>2018-03-05T13:33:18Z</time>
      </trkpt>
      <trkpt lat="38.3180450" lon="-0.6157150">
        <ele>138.0</ele>
        <time>2018-03-05T13:33:19Z</time>
      </trkpt>
      <trkpt lat="38.3180770" lon="-0.6157120">
        <ele>137.0</ele>
        <time>2018-03-05T13:33:20Z</time>
      </trkpt>
      <trkpt lat="38.3181150" lon="-0.6157090">
        <ele>137.0</ele>
        <time>2018-03-05T13:33:21Z</time>
      </trkpt>
      <trkpt lat="38.3181600" lon="-0.6157020">
        <ele>137.0</ele>
        <time>2018-03-05T13:33:22Z</time>
      </trkpt>
      <trkpt lat="38.3182070" lon="-0.6156960">
        <ele>137.0</ele>
        <time>2018-03-05T13:33:23Z</time>
      </trkpt>
      <trkpt lat="38.3182560" lon="-0.6156900">
        <ele>137.0</ele>
        <time>2018-03-05T13:33:24Z</time>
      </trkpt>
      <trkpt lat="38.3183090" lon="-0.6156830">
        <ele>137.0</ele>
        <time>2018-03-05T13:33:25Z</time>
      </trkpt>
      <trkpt lat="38.3183640" lon="-0.6156750">
        <ele>137.0</ele>
        <time>2018-03-05T13:33:26Z</time>
      </trkpt>
      <trkpt lat="38.3184170" lon="-0.6156770">
        <ele>138.0</ele>
        <time>2018-03-05T13:33:27Z</time>
      </trkpt>
      <trkpt lat="38.3184690" lon="-0.6156840">
        <ele>138.0</ele>
        <time>2018-03-05T13:33:28Z</time>
      </trkpt>
      <trkpt lat="38.3185220" lon="-0.6156890">
        <ele>138.0</ele>
        <time>2018-03-05T13:33:29Z</time>
      </trkpt>
      <trkpt lat="38.3185750" lon="-0.6156940">
        <ele>138.0</ele>
        <time>2018-03-05T13:33:30Z</time>
      </trkpt>
      <trkpt lat="38.3186300" lon="-0.6157010">
        <ele>138.0</ele>
        <time>2018-03-05T13:33:31Z</time>
      </trkpt>
      <trkpt lat="38.3186840" lon="-0.6157090">
        <ele>138.0</ele>
        <time>2018-03-05T13:33:32Z</time>
      </trkpt>
      <trkpt lat="38.3187370" lon="-0.6157190">
        <ele>139.0</ele>
        <time>2018-03-05T13:33:33Z</time>
      </trkpt>
      <trkpt lat="38.3187920" lon="-0.6157290">
        <ele>139.0</ele>
        <time>2018-03-05T13:33:34Z</time>
      </trkpt>
      <trkpt lat="38.3188450" lon="-0.6157430">
        <ele>139.0</ele>
        <time>2018-03-05T13:33:35Z</time>
      </trkpt>
      <trkpt lat="38.3188980" lon="-0.6157630">
        <ele>139.0</ele>
        <time>2018-03-05T13:33:36Z</time>
      </trkpt>
      <trkpt lat="38.3189500" lon="-0.6157840">
        <ele>140.0</ele>
        <time>2018-03-05T13:33:37Z</time>
      </trkpt>
      <trkpt lat="38.3190020" lon="-0.6158040">
        <ele>140.0</ele>
        <time>2018-03-05T13:33:38Z</time>
      </trkpt>
      <trkpt lat="38.3190560" lon="-0.6158270">
        <ele>140.0</ele>
        <time>2018-03-05T13:33:39Z</time>
      </trkpt>
      <trkpt lat="38.3191100" lon="-0.6158490">
        <ele>140.0</ele>
        <time>2018-03-05T13:33:40Z</time>
      </trkpt>
      <trkpt lat="38.3191640" lon="-0.6158740">
        <ele>140.0</ele>
        <time>2018-03-05T13:33:41Z</time>
      </trkpt>
      <trkpt lat="38.3192180" lon="-0.6158970">
        <ele>140.0</ele>
        <time>2018-03-05T13:33:42Z</time>
      </trkpt>
      <trkpt lat="38.3192720" lon="-0.6159230">
        <ele>140.0</ele>
        <time>2018-03-05T13:33:43Z</time>
      </trkpt>
      <trkpt lat="38.3193250" lon="-0.6159510">
        <ele>141.0</ele>
        <time>2018-03-05T13:33:44Z</time>
      </trkpt>
      <trkpt lat="38.3193710" lon="-0.6159870">
        <ele>141.0</ele>
        <time>2018-03-05T13:33:45Z</time>
      </trkpt>
      <trkpt lat="38.3194120" lon="-0.6160190">
        <ele>141.0</ele>
        <time>2018-03-05T13:33:46Z</time>
      </trkpt>
      <trkpt lat="38.3194540" lon="-0.6160430">
        <ele>142.0</ele>
        <time>2018-03-05T13:33:47Z</time>
      </trkpt>
      <trkpt lat="38.3195010" lon="-0.6160620">
        <ele>142.0</ele>
        <time>2018-03-05T13:33:48Z</time>
      </trkpt>
      <trkpt lat="38.3195510" lon="-0.6160800">
        <ele>142.0</ele>
        <time>2018-03-05T13:33:49Z</time>
      </trkpt>
      <trkpt lat="38.3196020" lon="-0.6160970">
        <ele>142.0</ele>
        <time>2018-03-05T13:33:50Z</time>
      </trkpt>
      <trkpt lat="38.3196480" lon="-0.6161310">
        <ele>142.0</ele>
        <time>2018-03-05T13:33:51Z</time>
      </trkpt>
      <trkpt lat="38.3196890" lon="-0.6161690">
        <ele>142.0</ele>
        <time>2018-03-05T13:33:52Z</time>
      </trkpt>
      <trkpt lat="38.3197240" lon="-0.6162030">
        <ele>143.0</ele>
        <time>2018-03-05T13:33:53Z</time>
      </trkpt>
      <trkpt lat="38.3197600" lon="-0.6162320">
        <ele>143.0</ele>
        <time>2018-03-05T13:33:54Z</time>
      </trkpt>
      <trkpt lat="38.3197960" lon="-0.6162600">
        <ele>144.0</ele>
        <time>2018-03-05T13:33:55Z</time>
      </trkpt>
      <trkpt lat="38.3198380" lon="-0.6162870">
        <ele>144.0</ele>
        <time>2018-03-05T13:33:56Z</time>
      </trkpt>
      <trkpt lat="38.3198860" lon="-0.6163060">
        <ele>144.0</ele>
        <time>2018-03-05T13:33:57Z</time>
      </trkpt>
      <trkpt lat="38.3199310" lon="-0.6163310">
        <ele>144.0</ele>
        <time>2018-03-05T13:33:58Z</time>
      </trkpt>
      <trkpt lat="38.3199760" lon="-0.6163580">
        <ele>144.0</ele>
        <time>2018-03-05T13:33:59Z</time>
      </trkpt>
      <trkpt lat="38.3200210" lon="-0.6163900">
        <ele>145.0</ele>
        <time>2018-03-05T13:34:00Z</time>
      </trkpt>
      <trkpt lat="38.3200660" lon="-0.6164240">
        <ele>145.0</ele>
        <time>2018-03-05T13:34:01Z</time>
      </trkpt>
      <trkpt lat="38.3201120" lon="-0.6164550">
        <ele>145.0</ele>
        <time>2018-03-05T13:34:02Z</time>
      </trkpt>
      <trkpt lat="38.3201570" lon="-0.6164820">
        <ele>146.0</ele>
        <time>2018-03-05T13:34:03Z</time>
      </trkpt>
      <trkpt lat="38.3202030" lon="-0.6165030">
        <ele>146.0</ele>
        <time>2018-03-05T13:34:04Z</time>
      </trkpt>
      <trkpt lat="38.3202480" lon="-0.6165160">
        <ele>146.0</ele>
        <time>2018-03-05T13:34:05Z</time>
      </trkpt>
      <trkpt lat="38.3202940" lon="-0.6165250">
        <ele>147.0</ele>
        <time>2018-03-05T13:34:06Z</time>
      </trkpt>
      <trkpt lat="38.3203370" lon="-0.6165310">
        <ele>147.0</ele>
        <time>2018-03-05T13:34:07Z</time>
      </trkpt>
      <trkpt lat="38.3203810" lon="-0.6165420">
        <ele>147.0</ele>
        <time>2018-03-05T13:34:08Z</time>
      </trkpt>
      <trkpt lat="38.3204230" lon="-0.6165530">
        <ele>147.0</ele>
        <time>2018-03-05T13:34:09Z</time>
      </trkpt>
      <trkpt lat="38.3204660" lon="-0.6165630">
        <ele>148.0</ele>
        <time>2018-03-05T13:34:10Z</time>
      </trkpt>
      <trkpt lat="38.3205080" lon="-0.6165700">
        <ele>148.0</ele>
        <time>2018-03-05T13:34:11Z</time>
      </trkpt>
      <trkpt lat="38.3205480" lon="-0.6165780">
        <ele>148.0</ele>
        <time>2018-03-05T13:34:12Z</time>
      </trkpt>
      <trkpt lat="38.3205890" lon="-0.6165810">
        <ele>148.0</ele>
        <time>2018-03-05T13:34:13Z</time>
      </trkpt>
      <trkpt lat="38.3206310" lon="-0.6165800">
        <ele>149.0</ele>
        <time>2018-03-05T13:34:14Z</time>
      </trkpt>
      <trkpt lat="38.3206710" lon="-0.6165870">
        <ele>149.0</ele>
        <time>2018-03-05T13:34:15Z</time>
      </trkpt>
      <trkpt lat="38.3207110" lon="-0.6165960">
        <ele>149.0</ele>
        <time>2018-03-05T13:34:16Z</time>
      </trkpt>
      <trkpt lat="38.3207520" lon="-0.6165970">
        <ele>149.0</ele>
        <time>2018-03-05T13:34:17Z</time>
      </trkpt>
      <trkpt lat="38.3207900" lon="-0.6165950">
        <ele>150.0</ele>
        <time>2018-03-05T13:34:18Z</time>
      </trkpt>
      <trkpt lat="38.3208270" lon="-0.6165950">
        <ele>150.0</ele>
        <time>2018-03-05T13:34:19Z</time>
      </trkpt>
      <trkpt lat="38.3208600" lon="-0.6165910">
        <ele>150.0</ele>
        <time>2018-03-05T13:34:20Z</time>
      </trkpt>
      <trkpt lat="38.3208950" lon="-0.6165890">
        <ele>150.0</ele>
        <time>2018-03-05T13:34:21Z</time>
      </trkpt>
      <trkpt lat="38.3209300" lon="-0.6165870">
        <ele>150.0</ele>
        <time>2018-03-05T13:34:22Z</time>
      </trkpt>
      <trkpt lat="38.3209630" lon="-0.6165710">
        <ele>150.0</ele>
        <time>2018-03-05T13:34:23Z</time>
      </trkpt>
      <trkpt lat="38.3209930" lon="-0.6165460">
        <ele>151.0</ele>
        <time>2018-03-05T13:34:24Z</time>
      </trkpt>
      <trkpt lat="38.3210180" lon="-0.6165170">
        <ele>152.0</ele>
        <time>2018-03-05T13:34:25Z</time>
      </trkpt>
      <trkpt lat="38.3210300" lon="-0.6164790">
        <ele>152.0</ele>
        <time>2018-03-05T13:34:26Z</time>
      </trkpt>
      <trkpt lat="38.3210430" lon="-0.6164400">
        <ele>152.0</ele>
        <time>2018-03-05T13:34:27Z</time>
      </trkpt>
      <trkpt lat="38.3210520" lon="-0.6164030">
        <ele>153.0</ele>
        <time>2018-03-05T13:34:28Z</time>
      </trkpt>
      <trkpt lat="38.3210600" lon="-0.6163660">
        <ele>153.0</ele>
        <time>2018-03-05T13:34:29Z</time>
      </trkpt>
      <trkpt lat="38.3210660" lon="-0.6163200">
        <ele>153.0</ele>
        <time>2018-03-05T13:34:30Z</time>
      </trkpt>
      <trkpt lat="38.3210730" lon="-0.6162740">
        <ele>153.0</ele>
        <time>2018-03-05T13:34:31Z</time>
      </trkpt>
      <trkpt lat="38.3210790" lon="-0.6162260">
        <ele>153.0</ele>
        <time>2018-03-05T13:34:32Z</time>
      </trkpt>
      <trkpt lat="38.3210870" lon="-0.6161750">
        <ele>153.0</ele>
        <time>2018-03-05T13:34:33Z</time>
      </trkpt>
      <trkpt lat="38.3210970" lon="-0.6161240">
        <ele>153.0</ele>
        <time>2018-03-05T13:34:34Z</time>
      </trkpt>
      <trkpt lat="38.3211060" lon="-0.6160700">
        <ele>154.0</ele>
        <time>2018-03-05T13:34:35Z</time>
      </trkpt>
      <trkpt lat="38.3211160" lon="-0.6160140">
        <ele>154.0</ele>
        <time>2018-03-05T13:34:36Z</time>
      </trkpt>
      <trkpt lat="38.3211250" lon="-0.6159570">
        <ele>154.0</ele>
        <time>2018-03-05T13:34:37Z</time>
      </trkpt>
      <trkpt lat="38.3211350" lon="-0.6158990">
        <ele>154.0</ele>
        <time>2018-03-05T13:34:38Z</time>
      </trkpt>
      <trkpt lat="38.3211460" lon="-0.6158400">
        <ele>154.0</ele>
        <time>2018-03-05T13:34:39Z</time>
      </trkpt>
      <trkpt lat="38.3211570" lon="-0.6157800">
        <ele>155.0</ele>
        <time>2018-03-05T13:34:40Z</time>
      </trkpt>
      <trkpt lat="38.3211680" lon="-0.6157210">
        <ele>155.0</ele>
        <time>2018-03-05T13:34:41Z</time>
      </trkpt>
      <trkpt lat="38.3211790" lon="-0.6156610">
        <ele>155.0</ele>
        <time>2018-03-05T13:34:42Z</time>
      </trkpt>
      <trkpt lat="38.3211890" lon="-0.6156010">
        <ele>155.0</ele>
        <time>2018-03-05T13:34:43Z</time>
      </trkpt>
      <trkpt lat="38.3212000" lon="-0.6155430">
        <ele>155.0</ele>
        <time>2018-03-05T13:34:44Z</time>
      </trkpt>
      <trkpt lat="38.3212110" lon="-0.6154820">
        <ele>155.0</ele>
        <time>2018-03-05T13:34:45Z</time>
      </trkpt>
      <trkpt lat="38.3212210" lon="-0.6154210">
        <ele>156.0</ele>
        <time>2018-03-05T13:34:46Z</time>
      </trkpt>
      <trkpt lat="38.3212320" lon="-0.6153600">
        <ele>156.0</ele>
        <time>2018-03-05T13:34:47Z</time>
      </trkpt>
      <trkpt lat="38.3212460" lon="-0.6153000">
        <ele>156.0</ele>
        <time>2018-03-05T13:34:48Z</time>
      </trkpt>
      <trkpt lat="38.3212610" lon="-0.6152420">
        <ele>157.0</ele>
        <time>2018-03-05T13:34:49Z</time>
      </trkpt>
      <trkpt lat="38.3212740" lon="-0.6151860">
        <ele>157.0</ele>
        <time>2018-03-05T13:34:50Z</time>
      </trkpt>
      <trkpt lat="38.3212870" lon="-0.6151300">
        <ele>157.0</ele>
        <time>2018-03-05T13:34:51Z</time>
      </trkpt>
      <trkpt lat="38.3212990" lon="-0.6150750">
        <ele>157.0</ele>
        <time>2018-03-05T13:34:52Z</time>
      </trkpt>
      <trkpt lat="38.3213110" lon="-0.6150190">
        <ele>158.0</ele>
        <time>2018-03-05T13:34:53Z</time>
      </trkpt>
      <trkpt lat="38.3213240" lon="-0.6149620">
        <ele>158.0</ele>
        <time>2018-03-05T13:34:54Z</time>
      </trkpt>
      <trkpt lat="38.3213380" lon="-0.6149070">
        <ele>158.0</ele>
        <time>2018-03-05T13:34:55Z</time>
      </trkpt>
      <trkpt lat="38.3213510" lon="-0.6148500">
        <ele>158.0</ele>
        <time>2018-03-05T13:34:56Z</time>
      </trkpt>
      <trkpt lat="38.3213670" lon="-0.6147940">
        <ele>158.0</ele>
        <time>2018-03-05T13:34:57Z</time>
      </trkpt>
      <trkpt lat="38.3213820" lon="-0.6147380">
        <ele>159.0</ele>
        <time>2018-03-05T13:34:58Z</time>
      </trkpt>
      <trkpt lat="38.3213960" lon="-0.6146820">
        <ele>159.0</ele>
        <time>2018-03-05T13:34:59Z</time>
      </trkpt>
      <trkpt lat="38.3214100" lon="-0.6146250">
        <ele>159.0</ele>
        <time>2018-03-05T13:35:00Z</time>
      </trkpt>
      <trkpt lat="38.3214220" lon="-0.6145700">
        <ele>159.0</ele>
        <time>2018-03-05T13:35:01Z</time>
      </trkpt>
      <trkpt lat="38.3214330" lon="-0.6145150">
        <ele>160.0</ele>
        <time>2018-03-05T13:35:02Z</time>
      </trkpt>
      <trkpt lat="38.3214430" lon="-0.6144610">
        <ele>160.0</ele>
        <time>2018-03-05T13:35:03Z</time>
      </trkpt>
      <trkpt lat="38.3214540" lon="-0.6144070">
        <ele>160.0</ele>
        <time>2018-03-05T13:35:04Z</time>
      </trkpt>
      <trkpt lat="38.3214630" lon="-0.6143510">
        <ele>160.0</ele>
        <time>2018-03-05T13:35:05Z</time>
      </trkpt>
      <trkpt lat="38.3214700" lon="-0.6142920">
        <ele>160.0</ele>
        <time>2018-03-05T13:35:06Z</time>
      </trkpt>
      <trkpt lat="38.3214760" lon="-0.6142320">
        <ele>161.0</ele>
        <time>2018-03-05T13:35:07Z</time>
      </trkpt>
      <trkpt lat="38.3214780" lon="-0.6141710">
        <ele>161.0</ele>
        <time>2018-03-05T13:35:08Z</time>
      </trkpt>
      <trkpt lat="38.3214770" lon="-0.6141100">
        <ele>160.0</ele>
        <time>2018-03-05T13:35:09Z</time>
      </trkpt>
      <trkpt lat="38.3214710" lon="-0.6140450">
        <ele>160.0</ele>
        <time>2018-03-05T13:35:10Z</time>
      </trkpt>
      <trkpt lat="38.3214660" lon="-0.6139770">
        <ele>160.0</ele>
        <time>2018-03-05T13:35:11Z</time>
      </trkpt>
      <trkpt lat="38.3214520" lon="-0.6139030">
        <ele>160.0</ele>
        <time>2018-03-05T13:35:12Z</time>
      </trkpt>
      <trkpt lat="38.3214380" lon="-0.6138280">
        <ele>159.0</ele>
        <time>2018-03-05T13:35:13Z</time>
      </trkpt>
      <trkpt lat="38.3214300" lon="-0.6137440">
        <ele>158.0</ele>
        <time>2018-03-05T13:35:14Z</time>
      </trkpt>
      <trkpt lat="38.3214180" lon="-0.6136550">
        <ele>158.0</ele>
        <time>2018-03-05T13:35:15Z</time>
      </trkpt>
      <trkpt lat="38.3214060" lon="-0.6135640">
        <ele>157.0</ele>
        <time>2018-03-05T13:35:16Z</time>
      </trkpt>
      <trkpt lat="38.3213940" lon="-0.6134690">
        <ele>157.0</ele>
        <time>2018-03-05T13:35:17Z</time>
      </trkpt>
      <trkpt lat="38.3213860" lon="-0.6133720">
        <ele>157.0</ele>
        <time>2018-03-05T13:35:18Z</time>
      </trkpt>
      <trkpt lat="38.3213790" lon="-0.6132740">
        <ele>156.0</ele>
        <time>2018-03-05T13:35:19Z</time>
      </trkpt>
      <trkpt lat="38.3213730" lon="-0.6131760">
        <ele>156.0</ele>
        <time>2018-03-05T13:35:20Z</time>
      </trkpt>
      <trkpt lat="38.3213660" lon="-0.6130790">
        <ele>156.0</ele>
        <time>2018-03-05T13:35:21Z</time>
      </trkpt>
      <trkpt lat="38.3213630" lon="-0.6129820">
        <ele>156.0</ele>
        <time>2018-03-05T13:35:22Z</time>
      </trkpt>
      <trkpt lat="38.3213560" lon="-0.6128930">
        <ele>157.0</ele>
        <time>2018-03-05T13:35:23Z</time>
      </trkpt>
      <trkpt lat="38.3213560" lon="-0.6128190">
        <ele>157.0</ele>
        <time>2018-03-05T13:35:24Z</time>
      </trkpt>
      <trkpt lat="38.3213790" lon="-0.6127760">
        <ele>158.0</ele>
        <time>2018-03-05T13:35:25Z</time>
      </trkpt>
      <trkpt lat="38.3213920" lon="-0.6127520">
        <ele>158.0</ele>
        <time>2018-03-05T13:35:26Z</time>
      </trkpt>
      <trkpt lat="38.3214020" lon="-0.6127490">
        <ele>156.0</ele>
        <time>2018-03-05T13:35:27Z</time>
      </trkpt>
      <trkpt lat="38.3214150" lon="-0.6127300">
        <ele>157.0</ele>
        <time>2018-03-05T13:35:28Z</time>
      </trkpt>
      <trkpt lat="38.3214240" lon="-0.6127080">
        <ele>156.0</ele>
        <time>2018-03-05T13:35:29Z</time>
      </trkpt>
      <trkpt lat="38.3214320" lon="-0.6126800">
        <ele>157.0</ele>
        <time>2018-03-05T13:35:30Z</time>
      </trkpt>
      <trkpt lat="38.3214340" lon="-0.6126440">
        <ele>156.0</ele>
        <time>2018-03-05T13:35:31Z</time>
      </trkpt>
      <trkpt lat="38.3214340" lon="-0.6126050">
        <ele>156.0</ele>
        <time>2018-03-05T13:35:32Z</time>
      </trkpt>
      <trkpt lat="38.3214300" lon="-0.6125560">
        <ele>156.0</ele>
        <time>2018-03-05T13:35:33Z</time>
      </trkpt>
      <trkpt lat="38.3214260" lon="-0.6125010">
        <ele>156.0</ele>
        <time>2018-03-05T13:35:34Z</time>
      </trkpt>
      <trkpt lat="38.3214220" lon="-0.6124380">
        <ele>156.0</ele>
        <time>2018-03-05T13:35:35Z</time>
      </trkpt>
      <trkpt lat="38.3214200" lon="-0.6123660">
        <ele>155.0</ele>
        <time>2018-03-05T13:35:36Z</time>
      </trkpt>
      <trkpt lat="38.3214270" lon="-0.6122880">
        <ele>154.0</ele>
        <time>2018-03-05T13:35:37Z</time>
      </trkpt>
      <trkpt lat="38.3214390" lon="-0.6122020">
        <ele>155.0</ele>
        <time>2018-03-05T13:35:38Z</time>
      </trkpt>
      <trkpt lat="38.3214570" lon="-0.6121170">
        <ele>155.0</ele>
        <time>2018-03-05T13:35:39Z</time>
      </trkpt>
      <trkpt lat="38.3214850" lon="-0.6120340">
        <ele>155.0</ele>
        <time>2018-03-05T13:35:40Z</time>
      </trkpt>
      <trkpt lat="38.3215140" lon="-0.6119430">
        <ele>155.0</ele>
        <time>2018-03-05T13:35:41Z</time>
      </trkpt>
      <trkpt lat="38.3215410" lon="-0.6118520">
        <ele>156.0</ele>
        <time>2018-03-05T13:35:42Z</time>
      </trkpt>
      <trkpt lat="38.3215670" lon="-0.6117660">
        <ele>156.0</ele>
        <time>2018-03-05T13:35:43Z</time>
      </trkpt>
      <trkpt lat="38.3215910" lon="-0.6116830">
        <ele>157.0</ele>
        <time>2018-03-05T13:35:44Z</time>
      </trkpt>
      <trkpt lat="38.3216140" lon="-0.6116010">
        <ele>157.0</ele>
        <time>2018-03-05T13:35:45Z</time>
      </trkpt>
      <trkpt lat="38.3216310" lon="-0.6115170">
        <ele>157.0</ele>
        <time>2018-03-05T13:35:46Z</time>
      </trkpt>
      <trkpt lat="38.3216480" lon="-0.6114340">
        <ele>157.0</ele>
        <time>2018-03-05T13:35:47Z</time>
      </trkpt>
      <trkpt lat="38.3216680" lon="-0.6113540">
        <ele>157.0</ele>
        <time>2018-03-05T13:35:48Z</time>
      </trkpt>
      <trkpt lat="38.3216870" lon="-0.6112770">
        <ele>158.0</ele>
        <time>2018-03-05T13:35:49Z</time>
      </trkpt>
      <trkpt lat="38.3217090" lon="-0.6112000">
        <ele>158.0</ele>
        <time>2018-03-05T13:35:50Z</time>
      </trkpt>
      <trkpt lat="38.3217300" lon="-0.6111210">
        <ele>158.0</ele>
        <time>2018-03-05T13:35:51Z</time>
      </trkpt>
      <trkpt lat="38.3217490" lon="-0.6110440">
        <ele>159.0</ele>
        <time>2018-03-05T13:35:52Z</time>
      </trkpt>
      <trkpt lat="38.3217690" lon="-0.6109700">
        <ele>159.0</ele>
        <time>2018-03-05T13:35:53Z</time>
      </trkpt>
      <trkpt lat="38.3217910" lon="-0.6109010">
        <ele>160.0</ele>
        <time>2018-03-05T13:35:54Z</time>
      </trkpt>
      <trkpt lat="38.3218140" lon="-0.6108370">
        <ele>160.0</ele>
        <time>2018-03-05T13:35:55Z</time>
      </trkpt>
      <trkpt lat="38.3218330" lon="-0.6107750">
        <ele>161.0</ele>
        <time>2018-03-05T13:35:56Z</time>
      </trkpt>
      <trkpt lat="38.3218540" lon="-0.6107270">
        <ele>162.0</ele>
        <time>2018-03-05T13:35:57Z</time>
      </trkpt>
      <trkpt lat="38.3218720" lon="-0.6106870">
        <ele>162.0</ele>
        <time>2018-03-05T13:35:58Z</time>
      </trkpt>
      <trkpt lat="38.3218980" lon="-0.6106600">
        <ele>163.0</ele>
        <time>2018-03-05T13:35:59Z</time>
      </trkpt>
      <trkpt lat="38.3219200" lon="-0.6106470">
        <ele>163.0</ele>
        <time>2018-03-05T13:36:00Z</time>
      </trkpt>
      <trkpt lat="38.3219410" lon="-0.6106460">
        <ele>164.0</ele>
        <time>2018-03-05T13:36:01Z</time>
      </trkpt>
      <trkpt lat="38.3219620" lon="-0.6106510">
        <ele>164.0</ele>
        <time>2018-03-05T13:36:02Z</time>
      </trkpt>
      <trkpt lat="38.3219840" lon="-0.6106610">
        <ele>164.0</ele>
        <time>2018-03-05T13:36:03Z</time>
      </trkpt>
      <trkpt lat="38.3220050" lon="-0.6106700">
        <ele>164.0</ele>
        <time>2018-03-05T13:36:04Z</time>
      </trkpt>
      <trkpt lat="38.3220270" lon="-0.6106730">
        <ele>165.0</ele>
        <time>2018-03-05T13:36:05Z</time>
      </trkpt>
      <trkpt lat="38.3220510" lon="-0.6106670">
        <ele>165.0</ele>
        <time>2018-03-05T13:36:06Z</time>
      </trkpt>
      <trkpt lat="38.3220750" lon="-0.6106580">
        <ele>166.0</ele>
        <time>2018-03-05T13:36:07Z</time>
      </trkpt>
      <trkpt lat="38.3220980" lon="-0.6106480">
        <ele>166.0</ele>
        <time>2018-03-05T13:36:08Z</time>
      </trkpt>
      <trkpt lat="38.3221190" lon="-0.6106320">
        <ele>167.0</ele>
        <time>2018-03-05T13:36:09Z</time>
      </trkpt>
      <trkpt lat="38.3221370" lon="-0.6106120">
        <ele>167.0</ele>
        <time>2018-03-05T13:36:10Z</time>
      </trkpt>
      <trkpt lat="38.3221550" lon="-0.6105910">
        <ele>168.0</ele>
        <time>2018-03-05T13:36:11Z</time>
      </trkpt>
      <trkpt lat="38.3221720" lon="-0.6105700">
        <ele>168.0</ele>
        <time>2018-03-05T13:36:12Z</time>
      </trkpt>
      <trkpt lat="38.3221890" lon="-0.6105480">
        <ele>168.0</ele>
        <time>2018-03-05T13:36:13Z</time>
      </trkpt>
      <trkpt lat="38.3222050" lon="-0.6105220">
        <ele>169.0</ele>
        <time>2018-03-05T13:36:14Z</time>
      </trkpt>
      <trkpt lat="38.3222220" lon="-0.6104900">
        <ele>169.0</ele>
        <time>2018-03-05T13:36:15Z</time>
      </trkpt>
      <trkpt lat="38.3222360" lon="-0.6104590">
        <ele>169.0</ele>
        <time>2018-03-05T13:36:16Z</time>
      </trkpt>
      <trkpt lat="38.3222530" lon="-0.6104290">
        <ele>170.0</ele>
        <time>2018-03-05T13:36:17Z</time>
      </trkpt>
      <trkpt lat="38.3222700" lon="-0.6103940">
        <ele>170.0</ele>
        <time>2018-03-05T13:36:18Z</time>
      </trkpt>
      <trkpt lat="38.3222890" lon="-0.6103610">
        <ele>170.0</ele>
        <time>2018-03-05T13:36:19Z</time>
      </trkpt>
      <trkpt lat="38.3223110" lon="-0.6103270">
        <ele>170.0</ele>
        <time>2018-03-05T13:36:20Z</time>
      </trkpt>
      <trkpt lat="38.3223320" lon="-0.6102910">
        <ele>171.0</ele>
        <time>2018-03-05T13:36:21Z</time>
      </trkpt>
      <trkpt lat="38.3223490" lon="-0.6102510">
        <ele>171.0</ele>
        <time>2018-03-05T13:36:22Z</time>
      </trkpt>
      <trkpt lat="38.3223660" lon="-0.6102100">
        <ele>171.0</ele>
        <time>2018-03-05T13:36:23Z</time>
      </trkpt>
      <trkpt lat="38.3223850" lon="-0.6101710">
        <ele>172.0</ele>
        <time>2018-03-05T13:36:24Z</time>
      </trkpt>
      <trkpt lat="38.3224040" lon="-0.6101310">
        <ele>172.0</ele>
        <time>2018-03-05T13:36:25Z</time>
      </trkpt>
      <trkpt lat="38.3224190" lon="-0.6100910">
        <ele>172.0</ele>
        <time>2018-03-05T13:36:26Z</time>
      </trkpt>
      <trkpt lat="38.3224360" lon="-0.6100520">
        <ele>173.0</ele>
        <time>2018-03-05T13:36:27Z</time>
      </trkpt>
      <trkpt lat="38.3224540" lon="-0.6100130">
        <ele>173.0</ele>
        <time>2018-03-05T13:36:28Z</time>
      </trkpt>
      <trkpt lat="38.3224710" lon="-0.6099750">
        <ele>174.0</ele>
        <time>2018-03-05T13:36:29Z</time>
      </trkpt>
      <trkpt lat="38.3224880" lon="-0.6099360">
        <ele>174.0</ele>
        <time>2018-03-05T13:36:30Z</time>
      </trkpt>
      <trkpt lat="38.3225030" lon="-0.6098960">
        <ele>174.0</ele>
        <time>2018-03-05T13:36:31Z</time>
      </trkpt>
      <trkpt lat="38.3225200" lon="-0.6098550">
        <ele>174.0</ele>
        <time>2018-03-05T13:36:32Z</time>
      </trkpt>
      <trkpt lat="38.3225350" lon="-0.6098110">
        <ele>175.0</ele>
        <time>2018-03-05T13:36:33Z</time>
      </trkpt>
      <trkpt lat="38.3225500" lon="-0.6097690">
        <ele>175.0</ele>
        <time>2018-03-05T13:36:34Z</time>
      </trkpt>
      <trkpt lat="38.3225700" lon="-0.6097280">
        <ele>175.0</ele>
        <time>2018-03-05T13:36:35Z</time>
      </trkpt>
      <trkpt lat="38.3225870" lon="-0.6096870">
        <ele>175.0</ele>
        <time>2018-03-05T13:36:36Z</time>
      </trkpt>
      <trkpt lat="38.3226060" lon="-0.6096460">
        <ele>176.0</ele>
        <time>2018-03-05T13:36:37Z</time>
      </trkpt>
      <trkpt lat="38.3226230" lon="-0.6096060">
        <ele>176.0</ele>
        <time>2018-03-05T13:36:38Z</time>
      </trkpt>
      <trkpt lat="38.3226420" lon="-0.6095690">
        <ele>176.0</ele>
        <time>2018-03-05T13:36:39Z</time>
      </trkpt>
      <trkpt lat="38.3226630" lon="-0.6095340">
        <ele>177.0</ele>
        <time>2018-03-05T13:36:40Z</time>
      </trkpt>
      <trkpt lat="38.3226810" lon="-0.6094990">
        <ele>177.0</ele>
        <time>2018-03-05T13:36:41Z</time>
      </trkpt>
      <trkpt lat="38.3226960" lon="-0.6094630">
        <ele>177.0</ele>
        <time>2018-03-05T13:36:42Z</time>
      </trkpt>
      <trkpt lat="38.3227130" lon="-0.6094320">
        <ele>178.0</ele>
        <time>2018-03-05T13:36:43Z</time>
      </trkpt>
      <trkpt lat="38.3227290" lon="-0.6094010">
        <ele>178.0</ele>
        <time>2018-03-05T13:36:44Z</time>
      </trkpt>
      <trkpt lat="38.3227440" lon="-0.6093710">
        <ele>178.0</ele>
        <time>2018-03-05T13:36:45Z</time>
      </trkpt>
      <trkpt lat="38.3227600" lon="-0.6093430">
        <ele>179.0</ele>
        <time>2018-03-05T13:36:46Z</time>
      </trkpt>
      <trkpt lat="38.3227800" lon="-0.6093220">
        <ele>179.0</ele>
        <time>2018-03-05T13:36:47Z</time>
      </trkpt>
      <trkpt lat="38.3228030" lon="-0.6093080">
        <ele>179.0</ele>
        <time>2018-03-05T13:36:48Z</time>
      </trkpt>
      <trkpt lat="38.3228250" lon="-0.6092960">
        <ele>180.0</ele>
        <time>2018-03-05T13:36:49Z</time>
      </trkpt>
      <trkpt lat="38.3228460" lon="-0.6092860">
        <ele>180.0</ele>
        <time>2018-03-05T13:36:50Z</time>
      </trkpt>
      <trkpt lat="38.3228640" lon="-0.6092840">
        <ele>180.0</ele>
        <time>2018-03-05T13:36:51Z</time>
      </trkpt>
      <trkpt lat="38.3228800" lon="-0.6092920">
        <ele>180.0</ele>
        <time>2018-03-05T13:36:52Z</time>
      </trkpt>
      <trkpt lat="38.3228930" lon="-0.6093070">
        <ele>181.0</ele>
        <time>2018-03-05T13:36:53Z</time>
      </trkpt>
      <trkpt lat="38.3229010" lon="-0.6093310">
        <ele>181.0</ele>
        <time>2018-03-05T13:36:54Z</time>
      </trkpt>
      <trkpt lat="38.3229110" lon="-0.6093580">
        <ele>181.0</ele>
        <time>2018-03-05T13:36:55Z</time>
      </trkpt>
      <trkpt lat="38.3229210" lon="-0.6093870">
        <ele>181.0</ele>
        <time>2018-03-05T13:36:56Z</time>
      </trkpt>
      <trkpt lat="38.3229350" lon="-0.6094160">
        <ele>182.0</ele>
        <time>2018-03-05T13:36:57Z</time>
      </trkpt>
      <trkpt lat="38.3229460" lon="-0.6094470">
        <ele>182.0</ele>
        <time>2018-03-05T13:36:58Z</time>
      </trkpt>
      <trkpt lat="38.3229570" lon="-0.6094800">
        <ele>182.0</ele>
        <time>2018-03-05T13:36:59Z</time>
      </trkpt>
      <trkpt lat="38.3229670" lon="-0.6095150">
        <ele>182.0</ele>
        <time>2018-03-05T13:37:00Z</time>
      </trkpt>
      <trkpt lat="38.3229770" lon="-0.6095510">
        <ele>183.0</ele>
        <time>2018-03-05T13:37:01Z</time>
      </trkpt>
      <trkpt lat="38.3229860" lon="-0.6095860">
        <ele>183.0</ele>
        <time>2018-03-05T13:37:02Z</time>
      </trkpt>
      <trkpt lat="38.3229960" lon="-0.6096220">
        <ele>183.0</ele>
        <time>2018-03-05T13:37:03Z</time>
      </trkpt>
      <trkpt lat="38.3230060" lon="-0.6096580">
        <ele>183.0</ele>
        <time>2018-03-05T13:37:04Z</time>
      </trkpt>
      <trkpt lat="38.3230160" lon="-0.6096950">
        <ele>184.0</ele>
        <time>2018-03-05T13:37:05Z</time>
      </trkpt>
      <trkpt lat="38.3230280" lon="-0.6097320">
        <ele>184.0</ele>
        <time>2018-03-05T13:37:06Z</time>
      </trkpt>
      <trkpt lat="38.3230380" lon="-0.6097680">
        <ele>184.0</ele>
        <time>2018-03-05T13:37:07Z</time>
      </trkpt>
      <trkpt lat="38.3230500" lon="-0.6098020">
        <ele>184.0</ele>
        <time>2018-03-05T13:37:08Z</time>
      </trkpt>
      <trkpt lat="38.3230640" lon="-0.6098350">
        <ele>185.0</ele>
        <time>2018-03-05T13:37:09Z</time>
      </trkpt>
      <trkpt lat="38.3230840" lon="-0.6098610">
        <ele>185.0</ele>
        <time>2018-03-05T13:37:10Z</time>
      </trkpt>
      <trkpt lat="38.3231030" lon="-0.6098860">
        <ele>185.0</ele>
        <time>2018-03-05T13:37:11Z</time>
      </trkpt>
      <trkpt lat="38.3231220" lon="-0.6099090">
        <ele>186.0</ele>
        <time>2018-03-05T13:37:12Z</time>
      </trkpt>
      <trkpt lat="38.3231400" lon="-0.6099300">
        <ele>186.0</ele>
        <time>2018-03-05T13:37:13Z</time>
      </trkpt>
      <trkpt lat="38.3231590" lon="-0.6099450">
        <ele>186.0</ele>
        <time>2018-03-05T13:37:14Z</time>
      </trkpt>
      <trkpt lat="38.3231760" lon="-0.6099520">
        <ele>186.0</ele>
        <time>2018-03-05T13:37:15Z</time>
      </trkpt>
      <trkpt lat="38.3231910" lon="-0.6099560">
        <ele>187.0</ele>
        <time>2018-03-05T13:37:16Z</time>
      </trkpt>
      <trkpt lat="38.3232050" lon="-0.6099580">
        <ele>187.0</ele>
        <time>2018-03-05T13:37:17Z</time>
      </trkpt>
      <trkpt lat="38.3232200" lon="-0.6099570">
        <ele>187.0</ele>
        <time>2018-03-05T13:37:18Z</time>
      </trkpt>
      <trkpt lat="38.3232330" lon="-0.6099500">
        <ele>187.0</ele>
        <time>2018-03-05T13:37:19Z</time>
      </trkpt>
      <trkpt lat="38.3232480" lon="-0.6099390">
        <ele>188.0</ele>
        <time>2018-03-05T13:37:20Z</time>
      </trkpt>
      <trkpt lat="38.3232650" lon="-0.6099250">
        <ele>188.0</ele>
        <time>2018-03-05T13:37:21Z</time>
      </trkpt>
      <trkpt lat="38.3232790" lon="-0.6099070">
        <ele>188.0</ele>
        <time>2018-03-05T13:37:22Z</time>
      </trkpt>
      <trkpt lat="38.3232940" lon="-0.6098870">
        <ele>188.0</ele>
        <time>2018-03-05T13:37:23Z</time>
      </trkpt>
      <trkpt lat="38.3233070" lon="-0.6098630">
        <ele>188.0</ele>
        <time>2018-03-05T13:37:24Z</time>
      </trkpt>
      <trkpt lat="38.3233190" lon="-0.6098360">
        <ele>189.0</ele>
        <time>2018-03-05T13:37:25Z</time>
      </trkpt>
      <trkpt lat="38.3233320" lon="-0.6098070">
        <ele>189.0</ele>
        <time>2018-03-05T13:37:26Z</time>
      </trkpt>
      <trkpt lat="38.3233450" lon="-0.6097790">
        <ele>189.0</ele>
        <time>2018-03-05T13:37:27Z</time>
      </trkpt>
      <trkpt lat="38.3233600" lon="-0.6097520">
        <ele>189.0</ele>
        <time>2018-03-05T13:37:28Z</time>
      </trkpt>
      <trkpt lat="38.3233750" lon="-0.6097260">
        <ele>190.0</ele>
        <time>2018-03-05T13:37:29Z</time>
      </trkpt>
      <trkpt lat="38.3233910" lon="-0.6097010">
        <ele>190.0</ele>
        <time>2018-03-05T13:37:30Z</time>
      </trkpt>
      <trkpt lat="38.3234070" lon="-0.6096780">
        <ele>190.0</ele>
        <time>2018-03-05T13:37:31Z</time>
      </trkpt>
      <trkpt lat="38.3234240" lon="-0.6096510">
        <ele>190.0</ele>
        <time>2018-03-05T13:37:32Z</time>
      </trkpt>
      <trkpt lat="38.3234400" lon="-0.6096230">
        <ele>191.0</ele>
        <time>2018-03-05T13:37:33Z</time>
      </trkpt>
      <trkpt lat="38.3234530" lon="-0.6095940">
        <ele>191.0</ele>
        <time>2018-03-05T13:37:34Z</time>
      </trkpt>
      <trkpt lat="38.3234650" lon="-0.6095660">
        <ele>191.0</ele>
        <time>2018-03-05T13:37:35Z</time>
      </trkpt>
      <trkpt lat="38.3234790" lon="-0.6095380">
        <ele>191.0</ele>
        <time>2018-03-05T13:37:36Z</time>
      </trkpt>
      <trkpt lat="38.3234930" lon="-0.6095100">
        <ele>192.0</ele>
        <time>2018-03-05T13:37:37Z</time>
      </trkpt>
      <trkpt lat="38.3235100" lon="-0.6094840">
        <ele>192.0</ele>
        <time>2018-03-05T13:37:38Z</time>
      </trkpt>
      <trkpt lat="38.3235260" lon="-0.6094560">
        <ele>192.0</ele>
        <time>2018-03-05T13:37:39Z</time>
      </trkpt>
      <trkpt lat="38.3235420" lon="-0.6094300">
        <ele>192.0</ele>
        <time>2018-03-05T13:37:40Z</time>
      </trkpt>
      <trkpt lat="38.3235590" lon="-0.6094040">
        <ele>193.0</ele>
        <time>2018-03-05T13:37:41Z</time>
      </trkpt>
      <trkpt lat="38.3235750" lon="-0.6093790">
        <ele>193.0</ele>
        <time>2018-03-05T13:37:42Z</time>
      </trkpt>
      <trkpt lat="38.3235910" lon="-0.6093530">
        <ele>193.0</ele>
        <time>2018-03-05T13:37:43Z</time>
      </trkpt>
      <trkpt lat="38.3236080" lon="-0.6093270">
        <ele>194.0</ele>
        <time>2018-03-05T13:37:44Z</time>
      </trkpt>
      <trkpt lat="38.3236240" lon="-0.6092990">
        <ele>194.0</ele>
        <time>2018-03-05T13:37:45Z</time>
      </trkpt>
      <trkpt lat="38.3236400" lon="-0.6092710">
        <ele>194.0</ele>
        <time>2018-03-05T13:37:46Z</time>
      </trkpt>
      <trkpt lat="38.3236550" lon="-0.6092430">
        <ele>195.0</ele>
        <time>2018-03-05T13:37:47Z</time>
      </trkpt>
      <trkpt lat="38.3236700" lon="-0.6092150">
        <ele>195.0</ele>
        <time>2018-03-05T13:37:48Z</time>
      </trkpt>
      <trkpt lat="38.3236860" lon="-0.6091850">
        <ele>195.0</ele>
        <time>2018-03-05T13:37:49Z</time>
      </trkpt>
      <trkpt lat="38.3237000" lon="-0.6091570">
        <ele>196.0</ele>
        <time>2018-03-05T13:37:50Z</time>
      </trkpt>
      <trkpt lat="38.3237150" lon="-0.6091330">
        <ele>196.0</ele>
        <time>2018-03-05T13:37:51Z</time>
      </trkpt>
      <trkpt lat="38.3237310" lon="-0.6091070">
        <ele>196.0</ele>
        <time>2018-03-05T13:37:52Z</time>
      </trkpt>
      <trkpt lat="38.3237490" lon="-0.6090760">
        <ele>197.0</ele>
        <time>2018-03-05T13:37:53Z</time>
      </trkpt>
      <trkpt lat="38.3237670" lon="-0.6090440">
        <ele>197.0</ele>
        <time>2018-03-05T13:37:54Z</time>
      </trkpt>
      <trkpt lat="38.3237870" lon="-0.6090090">
        <ele>198.0</ele>
        <time>2018-03-05T13:37:55Z</time>
      </trkpt>
      <trkpt lat="38.3238040" lon="-0.6089770">
        <ele>198.0</ele>
        <time>2018-03-05T13:37:56Z</time>
      </trkpt>
      <trkpt lat="38.3238210" lon="-0.6089450">
        <ele>198.0</ele>
        <time>2018-03-05T13:37:57Z</time>
      </trkpt>
      <trkpt lat="38.3238370" lon="-0.6089140">
        <ele>199.0</ele>
        <time>2018-03-05T13:37:58Z</time>
      </trkpt>
      <trkpt lat="38.3238520" lon="-0.6088840">
        <ele>199.0</ele>
        <time>2018-03-05T13:37:59Z</time>
      </trkpt>
      <trkpt lat="38.3238680" lon="-0.6088550">
        <ele>199.0</ele>
        <time>2018-03-05T13:38:00Z</time>
      </trkpt>
      <trkpt lat="38.3238840" lon="-0.6088260">
        <ele>200.0</ele>
        <time>2018-03-05T13:38:01Z</time>
      </trkpt>
      <trkpt lat="38.3238990" lon="-0.6087960">
        <ele>200.0</ele>
        <time>2018-03-05T13:38:02Z</time>
      </trkpt>
      <trkpt lat="38.3239150" lon="-0.6087660">
        <ele>200.0</ele>
        <time>2018-03-05T13:38:03Z</time>
      </trkpt>
      <trkpt lat="38.3239300" lon="-0.6087360">
        <ele>201.0</ele>
        <time>2018-03-05T13:38:04Z</time>
      </trkpt>
      <trkpt lat="38.3239460" lon="-0.6087050">
        <ele>201.0</ele>
        <time>2018-03-05T13:38:05Z</time>
      </trkpt>
      <trkpt lat="38.3239610" lon="-0.6086760">
        <ele>201.0</ele>
        <time>2018-03-05T13:38:06Z</time>
      </trkpt>
      <trkpt lat="38.3239770" lon="-0.6086470">
        <ele>201.0</ele>
        <time>2018-03-05T13:38:07Z</time>
      </trkpt>
      <trkpt lat="38.3239900" lon="-0.6086160">
        <ele>202.0</ele>
        <time>2018-03-05T13:38:08Z</time>
      </trkpt>
      <trkpt lat="38.3240010" lon="-0.6085830">
        <ele>202.0</ele>
        <time>2018-03-05T13:38:09Z</time>
      </trkpt>
      <trkpt lat="38.3240140" lon="-0.6085500">
        <ele>202.0</ele>
        <time>2018-03-05T13:38:10Z</time>
      </trkpt>
      <trkpt lat="38.3240300" lon="-0.6085210">
        <ele>203.0</ele>
        <time>2018-03-05T13:38:11Z</time>
      </trkpt>
      <trkpt lat="38.3240530" lon="-0.6085070">
        <ele>203.0</ele>
        <time>2018-03-05T13:38:12Z</time>
      </trkpt>
      <trkpt lat="38.3240770" lon="-0.6085170">
        <ele>203.0</ele>
        <time>2018-03-05T13:38:13Z</time>
      </trkpt>
      <trkpt lat="38.3240900" lon="-0.6085400">
        <ele>203.0</ele>
        <time>2018-03-05T13:38:14Z</time>
      </trkpt>
      <trkpt lat="38.3240960" lon="-0.6085670">
        <ele>202.0</ele>
        <time>2018-03-05T13:38:15Z</time>
      </trkpt>
      <trkpt lat="38.3240940" lon="-0.6085990">
        <ele>202.0</ele>
        <time>2018-03-05T13:38:16Z</time>
      </trkpt>
      <trkpt lat="38.3240870" lon="-0.6086370">
        <ele>202.0</ele>
        <time>2018-03-05T13:38:17Z</time>
      </trkpt>
      <trkpt lat="38.3240770" lon="-0.6086770">
        <ele>202.0</ele>
        <time>2018-03-05T13:38:18Z</time>
      </trkpt>
      <trkpt lat="38.3240680" lon="-0.6087210">
        <ele>202.0</ele>
        <time>2018-03-05T13:38:19Z</time>
      </trkpt>
      <trkpt lat="38.3240600" lon="-0.6087700">
        <ele>202.0</ele>
        <time>2018-03-05T13:38:20Z</time>
      </trkpt>
      <trkpt lat="38.3240510" lon="-0.6088210">
        <ele>202.0</ele>
        <time>2018-03-05T13:38:21Z</time>
      </trkpt>
      <trkpt lat="38.3240460" lon="-0.6088770">
        <ele>202.0</ele>
        <time>2018-03-05T13:38:22Z</time>
      </trkpt>
      <trkpt lat="38.3240380" lon="-0.6089340">
        <ele>202.0</ele>
        <time>2018-03-05T13:38:23Z</time>
      </trkpt>
      <trkpt lat="38.3240300" lon="-0.6089920">
        <ele>202.0</ele>
        <time>2018-03-05T13:38:24Z</time>
      </trkpt>
      <trkpt lat="38.3240210" lon="-0.6090540">
        <ele>202.0</ele>
        <time>2018-03-05T13:38:25Z</time>
      </trkpt>
      <trkpt lat="38.3240140" lon="-0.6091170">
        <ele>202.0</ele>
        <time>2018-03-05T13:38:26Z</time>
      </trkpt>
      <trkpt lat="38.3240070" lon="-0.6091810">
        <ele>202.0</ele>
        <time>2018-03-05T13:38:27Z</time>
      </trkpt>
      <trkpt lat="38.3240000" lon="-0.6092480">
        <ele>202.0</ele>
        <time>2018-03-05T13:38:28Z</time>
      </trkpt>
      <trkpt lat="38.3239870" lon="-0.6093150">
        <ele>201.0</ele>
        <time>2018-03-05T13:38:29Z</time>
      </trkpt>
      <trkpt lat="38.3239650" lon="-0.6093820">
        <ele>201.0</ele>
        <time>2018-03-05T13:38:30Z</time>
      </trkpt>
      <trkpt lat="38.3239430" lon="-0.6094540">
        <ele>201.0</ele>
        <time>2018-03-05T13:38:31Z</time>
      </trkpt>
      <trkpt lat="38.3239220" lon="-0.6095280">
        <ele>201.0</ele>
        <time>2018-03-05T13:38:32Z</time>
      </trkpt>
      <trkpt lat="38.3239090" lon="-0.6096040">
        <ele>201.0</ele>
        <time>2018-03-05T13:38:33Z</time>
      </trkpt>
      <trkpt lat="38.3239080" lon="-0.6096760">
        <ele>202.0</ele>
        <time>2018-03-05T13:38:34Z</time>
      </trkpt>
      <trkpt lat="38.3239220" lon="-0.6097360">
        <ele>201.0</ele>
        <time>2018-03-05T13:38:35Z</time>
      </trkpt>
      <trkpt lat="38.3239310" lon="-0.6097990">
        <ele>201.0</ele>
        <time>2018-03-05T13:38:36Z</time>
      </trkpt>
      <trkpt lat="38.3239370" lon="-0.6098600">
        <ele>201.0</ele>
        <time>2018-03-05T13:38:37Z</time>
      </trkpt>
      <trkpt lat="38.3239410" lon="-0.6099210">
        <ele>201.0</ele>
        <time>2018-03-05T13:38:38Z</time>
      </trkpt>
      <trkpt lat="38.3239420" lon="-0.6099840">
        <ele>201.0</ele>
        <time>2018-03-05T13:38:39Z</time>
      </trkpt>
      <trkpt lat="38.3239420" lon="-0.6100480">
        <ele>202.0</ele>
        <time>2018-03-05T13:38:40Z</time>
      </trkpt>
      <trkpt lat="38.3239430" lon="-0.6101160">
        <ele>202.0</ele>
        <time>2018-03-05T13:38:41Z</time>
      </trkpt>
      <trkpt lat="38.3239420" lon="-0.6101840">
        <ele>202.0</ele>
        <time>2018-03-05T13:38:42Z</time>
      </trkpt>
      <trkpt lat="38.3239440" lon="-0.6102520">
        <ele>202.0</ele>
        <time>2018-03-05T13:38:43Z</time>
      </trkpt>
      <trkpt lat="38.3239440" lon="-0.6103190">
        <ele>202.0</ele>
        <time>2018-03-05T13:38:44Z</time>
      </trkpt>
      <trkpt lat="38.3239390" lon="-0.6103860">
        <ele>202.0</ele>
        <time>2018-03-05T13:38:45Z</time>
      </trkpt>
      <trkpt lat="38.3239360" lon="-0.6104540">
        <ele>203.0</ele>
        <time>2018-03-05T13:38:46Z</time>
      </trkpt>
      <trkpt lat="38.3239320" lon="-0.6105200">
        <ele>203.0</ele>
        <time>2018-03-05T13:38:47Z</time>
      </trkpt>
      <trkpt lat="38.3239280" lon="-0.6105860">
        <ele>203.0</ele>
        <time>2018-03-05T13:38:48Z</time>
      </trkpt>
      <trkpt lat="38.3239230" lon="-0.6106510">
        <ele>203.0</ele>
        <time>2018-03-05T13:38:49Z</time>
      </trkpt>
      <trkpt lat="38.3239170" lon="-0.6107170">
        <ele>203.0</ele>
        <time>2018-03-05T13:38:50Z</time>
      </trkpt>
      <trkpt lat="38.3239080" lon="-0.6107830">
        <ele>203.0</ele>
        <time>2018-03-05T13:38:51Z</time>
      </trkpt>
      <trkpt lat="38.3238950" lon="-0.6108480">
        <ele>203.0</ele>
        <time>2018-03-05T13:38:52Z</time>
      </trkpt>
      <trkpt lat="38.3238840" lon="-0.6109160">
        <ele>203.0</ele>
        <time>2018-03-05T13:38:53Z</time>
      </trkpt>
      <trkpt lat="38.3238620" lon="-0.6109850">
        <ele>202.0</ele>
        <time>2018-03-05T13:38:54Z</time>
      </trkpt>
      <trkpt lat="38.3238400" lon="-0.6110570">
        <ele>202.0</ele>
        <time>2018-03-05T13:38:55Z</time>
      </trkpt>
      <trkpt lat="38.3238190" lon="-0.6111330">
        <ele>202.0</ele>
        <time>2018-03-05T13:38:56Z</time>
      </trkpt>
      <trkpt lat="38.3237980" lon="-0.6112120">
        <ele>201.0</ele>
        <time>2018-03-05T13:38:57Z</time>
      </trkpt>
      <trkpt lat="38.3237710" lon="-0.6112930">
        <ele>201.0</ele>
        <time>2018-03-05T13:38:58Z</time>
      </trkpt>
      <trkpt lat="38.3237420" lon="-0.6113780">
        <ele>201.0</ele>
        <time>2018-03-05T13:38:59Z</time>
      </trkpt>
      <trkpt lat="38.3237110" lon="-0.6114660">
        <ele>200.0</ele>
        <time>2018-03-05T13:39:00Z</time>
      </trkpt>
      <trkpt lat="38.3236790" lon="-0.6115550">
        <ele>200.0</ele>
        <time>2018-03-05T13:39:01Z</time>
      </trkpt>
      <trkpt lat="38.3236500" lon="-0.6116480">
        <ele>199.0</ele>
        <time>2018-03-05T13:39:02Z</time>
      </trkpt>
      <trkpt lat="38.3236190" lon="-0.6117420">
        <ele>199.0</ele>
        <time>2018-03-05T13:39:03Z</time>
      </trkpt>
      <trkpt lat="38.3235840" lon="-0.6118390">
        <ele>198.0</ele>
        <time>2018-03-05T13:39:04Z</time>
      </trkpt>
      <trkpt lat="38.3235480" lon="-0.6119390">
        <ele>198.0</ele>
        <time>2018-03-05T13:39:05Z</time>
      </trkpt>
      <trkpt lat="38.3235130" lon="-0.6120380">
        <ele>197.0</ele>
        <time>2018-03-05T13:39:06Z</time>
      </trkpt>
      <trkpt lat="38.3234800" lon="-0.6121420">
        <ele>196.0</ele>
        <time>2018-03-05T13:39:07Z</time>
      </trkpt>
      <trkpt lat="38.3234550" lon="-0.6122470">
        <ele>196.0</ele>
        <time>2018-03-05T13:39:08Z</time>
      </trkpt>
      <trkpt lat="38.3234390" lon="-0.6123480">
        <ele>197.0</ele>
        <time>2018-03-05T13:39:09Z</time>
      </trkpt>
      <trkpt lat="38.3234530" lon="-0.6124360">
        <ele>196.0</ele>
        <time>2018-03-05T13:39:10Z</time>
      </trkpt>
      <trkpt lat="38.3234710" lon="-0.6125210">
        <ele>197.0</ele>
        <time>2018-03-05T13:39:11Z</time>
      </trkpt>
      <trkpt lat="38.3235010" lon="-0.6125880">
        <ele>197.0</ele>
        <time>2018-03-05T13:39:12Z</time>
      </trkpt>
      <trkpt lat="38.3235290" lon="-0.6126430">
        <ele>198.0</ele>
        <time>2018-03-05T13:39:13Z</time>
      </trkpt>
      <trkpt lat="38.3235560" lon="-0.6126910">
        <ele>199.0</ele>
        <time>2018-03-05T13:39:14Z</time>
      </trkpt>
      <trkpt lat="38.3235820" lon="-0.6127310">
        <ele>199.0</ele>
        <time>2018-03-05T13:39:15Z</time>
      </trkpt>
      <trkpt lat="38.3236100" lon="-0.6127620">
        <ele>200.0</ele>
        <time>2018-03-05T13:39:16Z</time>
      </trkpt>
      <trkpt lat="38.3236320" lon="-0.6127960">
        <ele>200.0</ele>
        <time>2018-03-05T13:39:17Z</time>
      </trkpt>
      <trkpt lat="38.3236510" lon="-0.6128310">
        <ele>201.0</ele>
        <time>2018-03-05T13:39:18Z</time>
      </trkpt>
      <trkpt lat="38.3236680" lon="-0.6128670">
        <ele>201.0</ele>
        <time>2018-03-05T13:39:19Z</time>
      </trkpt>
      <trkpt lat="38.3236830" lon="-0.6129020">
        <ele>202.0</ele>
        <time>2018-03-05T13:39:20Z</time>
      </trkpt>
      <trkpt lat="38.3236940" lon="-0.6129390">
        <ele>202.0</ele>
        <time>2018-03-05T13:39:21Z</time>
      </trkpt>
      <trkpt lat="38.3237060" lon="-0.6129790">
        <ele>202.0</ele>
        <time>2018-03-05T13:39:22Z</time>
      </trkpt>
      <trkpt lat="38.3237140" lon="-0.6130200">
        <ele>203.0</ele>
        <time>2018-03-05T13:39:23Z</time>
      </trkpt>
      <trkpt lat="38.3237200" lon="-0.6130640">
        <ele>203.0</ele>
        <time>2018-03-05T13:39:24Z</time>
      </trkpt>
      <trkpt lat="38.3237230" lon="-0.6131140">
        <ele>203.0</ele>
        <time>2018-03-05T13:39:25Z</time>
      </trkpt>
      <trkpt lat="38.3237270" lon="-0.6131640">
        <ele>203.0</ele>
        <time>2018-03-05T13:39:26Z</time>
      </trkpt>
      <trkpt lat="38.3237280" lon="-0.6132140">
        <ele>203.0</ele>
        <time>2018-03-05T13:39:27Z</time>
      </trkpt>
      <trkpt lat="38.3237300" lon="-0.6132640">
        <ele>203.0</ele>
        <time>2018-03-05T13:39:28Z</time>
      </trkpt>
      <trkpt lat="38.3237310" lon="-0.6133140">
        <ele>203.0</ele>
        <time>2018-03-05T13:39:29Z</time>
      </trkpt>
      <trkpt lat="38.3237310" lon="-0.6133610">
        <ele>204.0</ele>
        <time>2018-03-05T13:39:30Z</time>
      </trkpt>
      <trkpt lat="38.3237310" lon="-0.6134090">
        <ele>204.0</ele>
        <time>2018-03-05T13:39:31Z</time>
      </trkpt>
      <trkpt lat="38.3237280" lon="-0.6134570">
        <ele>204.0</ele>
        <time>2018-03-05T13:39:32Z</time>
      </trkpt>
      <trkpt lat="38.3237320" lon="-0.6135050">
        <ele>204.0</ele>
        <time>2018-03-05T13:39:33Z</time>
      </trkpt>
      <trkpt lat="38.3237340" lon="-0.6135560">
        <ele>204.0</ele>
        <time>2018-03-05T13:39:34Z</time>
      </trkpt>
      <trkpt lat="38.3237340" lon="-0.6136060">
        <ele>204.0</ele>
        <time>2018-03-05T13:39:35Z</time>
      </trkpt>
      <trkpt lat="38.3237340" lon="-0.6136550">
        <ele>204.0</ele>
        <time>2018-03-05T13:39:36Z</time>
      </trkpt>
      <trkpt lat="38.3237320" lon="-0.6137100">
        <ele>205.0</ele>
        <time>2018-03-05T13:39:37Z</time>
      </trkpt>
      <trkpt lat="38.3237310" lon="-0.6137650">
        <ele>205.0</ele>
        <time>2018-03-05T13:39:38Z</time>
      </trkpt>
      <trkpt lat="38.3237290" lon="-0.6138220">
        <ele>205.0</ele>
        <time>2018-03-05T13:39:39Z</time>
      </trkpt>
      <trkpt lat="38.3237280" lon="-0.6138810">
        <ele>205.0</ele>
        <time>2018-03-05T13:39:40Z</time>
      </trkpt>
      <trkpt lat="38.3237230" lon="-0.6139400">
        <ele>205.0</ele>
        <time>2018-03-05T13:39:41Z</time>
      </trkpt>
      <trkpt lat="38.3237190" lon="-0.6139980">
        <ele>205.0</ele>
        <time>2018-03-05T13:39:42Z</time>
      </trkpt>
      <trkpt lat="38.3237120" lon="-0.6140560">
        <ele>205.0</ele>
        <time>2018-03-05T13:39:43Z</time>
      </trkpt>
      <trkpt lat="38.3237040" lon="-0.6141150">
        <ele>205.0</ele>
        <time>2018-03-05T13:39:44Z</time>
      </trkpt>
      <trkpt lat="38.3236950" lon="-0.6141750">
        <ele>205.0</ele>
        <time>2018-03-05T13:39:45Z</time>
      </trkpt>
      <trkpt lat="38.3236870" lon="-0.6142380">
        <ele>205.0</ele>
        <time>2018-03-05T13:39:46Z</time>
      </trkpt>
      <trkpt lat="38.3236780" lon="-0.6143050">
        <ele>205.0</ele>
        <time>2018-03-05T13:39:47Z</time>
      </trkpt>
      <trkpt lat="38.3236680" lon="-0.6143730">
        <ele>205.0</ele>
        <time>2018-03-05T13:39:48Z</time>
      </trkpt>
      <trkpt lat="38.3236560" lon="-0.6144440">
        <ele>205.0</ele>
        <time>2018-03-05T13:39:49Z</time>
      </trkpt>
      <trkpt lat="38.3236420" lon="-0.6145160">
        <ele>204.0</ele>
        <time>2018-03-05T13:39:50Z</time>
      </trkpt>
      <trkpt lat="38.3236270" lon="-0.6145920">
        <ele>204.0</ele>
        <time>2018-03-05T13:39:51Z</time>
      </trkpt>
      <trkpt lat="38.3236100" lon="-0.6146700">
        <ele>204.0</ele>
        <time>2018-03-05T13:39:52Z</time>
      </trkpt>
      <trkpt lat="38.3235950" lon="-0.6147490">
        <ele>204.0</ele>
        <time>2018-03-05T13:39:53Z</time>
      </trkpt>
      <trkpt lat="38.3235800" lon="-0.6148270">
        <ele>204.0</ele>
        <time>2018-03-05T13:39:54Z</time>
      </trkpt>
      <trkpt lat="38.3235670" lon="-0.6149040">
        <ele>204.0</ele>
        <time>2018-03-05T13:39:55Z</time>
      </trkpt>
      <trkpt lat="38.3235570" lon="-0.6149790">
        <ele>204.0</ele>
        <time>2018-03-05T13:39:56Z</time>
      </trkpt>
      <trkpt lat="38.3235570" lon="-0.6150520">
        <ele>204.0</ele>
        <time>2018-03-05T13:39:57Z</time>
      </trkpt>
      <trkpt lat="38.3235560" lon="-0.6151260">
        <ele>204.0</ele>
        <time>2018-03-05T13:39:58Z</time>
      </trkpt>
      <trkpt lat="38.3235580" lon="-0.6151980">
        <ele>204.0</ele>
        <time>2018-03-05T13:39:59Z</time>
      </trkpt>
      <trkpt lat="38.3235590" lon="-0.6152690">
        <ele>204.0</ele>
        <time>2018-03-05T13:40:00Z</time>
      </trkpt>
      <trkpt lat="38.3235620" lon="-0.6153360">
        <ele>204.0</ele>
        <time>2018-03-05T13:40:01Z</time>
      </trkpt>
      <trkpt lat="38.3235640" lon="-0.6154000">
        <ele>204.0</ele>
        <time>2018-03-05T13:40:02Z</time>
      </trkpt>
      <trkpt lat="38.3235730" lon="-0.6154600">
        <ele>205.0</ele>
        <time>2018-03-05T13:40:03Z</time>
      </trkpt>
      <trkpt lat="38.3235820" lon="-0.6155170">
        <ele>205.0</ele>
        <time>2018-03-05T13:40:04Z</time>
      </trkpt>
      <trkpt lat="38.3235920" lon="-0.6155700">
        <ele>205.0</ele>
        <time>2018-03-05T13:40:05Z</time>
      </trkpt>
      <trkpt lat="38.3236040" lon="-0.6156210">
        <ele>205.0</ele>
        <time>2018-03-05T13:40:06Z</time>
      </trkpt>
      <trkpt lat="38.3236170" lon="-0.6156690">
        <ele>205.0</ele>
        <time>2018-03-05T13:40:07Z</time>
      </trkpt>
      <trkpt lat="38.3236330" lon="-0.6157140">
        <ele>206.0</ele>
        <time>2018-03-05T13:40:08Z</time>
      </trkpt>
      <trkpt lat="38.3236480" lon="-0.6157570">
        <ele>206.0</ele>
        <time>2018-03-05T13:40:09Z</time>
      </trkpt>
      <trkpt lat="38.3236660" lon="-0.6157960">
        <ele>206.0</ele>
        <time>2018-03-05T13:40:10Z</time>
      </trkpt>
      <trkpt lat="38.3236820" lon="-0.6158330">
        <ele>207.0</ele>
        <time>2018-03-05T13:40:11Z</time>
      </trkpt>
      <trkpt lat="38.3236940" lon="-0.6158720">
        <ele>207.0</ele>
        <time>2018-03-05T13:40:12Z</time>
      </trkpt>
      <trkpt lat="38.3237070" lon="-0.6159100">
        <ele>207.0</ele>
        <time>2018-03-05T13:40:13Z</time>
      </trkpt>
      <trkpt lat="38.3237190" lon="-0.6159510">
        <ele>207.0</ele>
        <time>2018-03-05T13:40:14Z</time>
      </trkpt>
      <trkpt lat="38.3237300" lon="-0.6159930">
        <ele>207.0</ele>
        <time>2018-03-05T13:40:15Z</time>
      </trkpt>
      <trkpt lat="38.3237410" lon="-0.6160350">
        <ele>208.0</ele>
        <time>2018-03-05T13:40:16Z</time>
      </trkpt>
      <trkpt lat="38.3237510" lon="-0.6160750">
        <ele>208.0</ele>
        <time>2018-03-05T13:40:17Z</time>
      </trkpt>
      <trkpt lat="38.3237590" lon="-0.6161150">
        <ele>208.0</ele>
        <time>2018-03-05T13:40:18Z</time>
      </trkpt>
      <trkpt lat="38.3237690" lon="-0.6161570">
        <ele>208.0</ele>
        <time>2018-03-05T13:40:19Z</time>
      </trkpt>
      <trkpt lat="38.3237790" lon="-0.6161990">
        <ele>209.0</ele>
        <time>2018-03-05T13:40:20Z</time>
      </trkpt>
      <trkpt lat="38.3237900" lon="-0.6162410">
        <ele>209.0</ele>
        <time>2018-03-05T13:40:21Z</time>
      </trkpt>
      <trkpt lat="38.3237990" lon="-0.6162840">
        <ele>209.0</ele>
        <time>2018-03-05T13:40:22Z</time>
      </trkpt>
      <trkpt lat="38.3238070" lon="-0.6163280">
        <ele>210.0</ele>
        <time>2018-03-05T13:40:23Z</time>
      </trkpt>
      <trkpt lat="38.3238150" lon="-0.6163710">
        <ele>210.0</ele>
        <time>2018-03-05T13:40:24Z</time>
      </trkpt>
      <trkpt lat="38.3238220" lon="-0.6164130">
        <ele>210.0</ele>
        <time>2018-03-05T13:40:25Z</time>
      </trkpt>
      <trkpt lat="38.3238280" lon="-0.6164550">
        <ele>210.0</ele>
        <time>2018-03-05T13:40:26Z</time>
      </trkpt>
      <trkpt lat="38.3238360" lon="-0.6164970">
        <ele>211.0</ele>
        <time>2018-03-05T13:40:27Z</time>
      </trkpt>
      <trkpt lat="38.3238420" lon="-0.6165400">
        <ele>211.0</ele>
        <time>2018-03-05T13:40:28Z</time>
      </trkpt>
      <trkpt lat="38.3238500" lon="-0.6165860">
        <ele>211.0</ele>
        <time>2018-03-05T13:40:29Z</time>
      </trkpt>
      <trkpt lat="38.3238570" lon="-0.6166330">
        <ele>211.0</ele>
        <time>2018-03-05T13:40:30Z</time>
      </trkpt>
      <trkpt lat="38.3238630" lon="-0.6166810">
        <ele>211.0</ele>
        <time>2018-03-05T13:40:31Z</time>
      </trkpt>
      <trkpt lat="38.3238720" lon="-0.6167320">
        <ele>211.0</ele>
        <time>2018-03-05T13:40:32Z</time>
      </trkpt>
      <trkpt lat="38.3238800" lon="-0.6167830">
        <ele>211.0</ele>
        <time>2018-03-05T13:40:33Z</time>
      </trkpt>
      <trkpt lat="38.3238890" lon="-0.6168340">
        <ele>211.0</ele>
        <time>2018-03-05T13:40:34Z</time>
      </trkpt>
      <trkpt lat="38.3238970" lon="-0.6168840">
        <ele>212.0</ele>
        <time>2018-03-05T13:40:35Z</time>
      </trkpt>
      <trkpt lat="38.3239040" lon="-0.6169350">
        <ele>212.0</ele>
        <time>2018-03-05T13:40:36Z</time>
      </trkpt>
      <trkpt lat="38.3239110" lon="-0.6169850">
        <ele>212.0</ele>
        <time>2018-03-05T13:40:37Z</time>
      </trkpt>
      <trkpt lat="38.3239160" lon="-0.6170360">
        <ele>212.0</ele>
        <time>2018-03-05T13:40:38Z</time>
      </trkpt>
      <trkpt lat="38.3239220" lon="-0.6170860">
        <ele>212.0</ele>
        <time>2018-03-05T13:40:39Z</time>
      </trkpt>
      <trkpt lat="38.3239280" lon="-0.6171370">
        <ele>213.0</ele>
        <time>2018-03-05T13:40:40Z</time>
      </trkpt>
      <trkpt lat="38.3239330" lon="-0.6171890">
        <ele>213.0</ele>
        <time>2018-03-05T13:40:41Z</time>
      </trkpt>
      <trkpt lat="38.3239370" lon="-0.6172410">
        <ele>213.0</ele>
        <time>2018-03-05T13:40:42Z</time>
      </trkpt>
      <trkpt lat="38.3239410" lon="-0.6172940">
        <ele>213.0</ele>
        <time>2018-03-05T13:40:43Z</time>
      </trkpt>
      <trkpt lat="38.3239440" lon="-0.6173470">
        <ele>213.0</ele>
        <time>2018-03-05T13:40:44Z</time>
      </trkpt>
      <trkpt lat="38.3239460" lon="-0.6174000">
        <ele>213.0</ele>
        <time>2018-03-05T13:40:45Z</time>
      </trkpt>
      <trkpt lat="38.3239470" lon="-0.6174550">
        <ele>213.0</ele>
        <time>2018-03-05T13:40:46Z</time>
      </trkpt>
      <trkpt lat="38.3239480" lon="-0.6175090">
        <ele>213.0</ele>
        <time>2018-03-05T13:40:47Z</time>
      </trkpt>
      <trkpt lat="38.3239440" lon="-0.6175640">
        <ele>213.0</ele>
        <time>2018-03-05T13:40:48Z</time>
      </trkpt>
      <trkpt lat="38.3239420" lon="-0.6176210">
        <ele>213.0</ele>
        <time>2018-03-05T13:40:49Z</time>
      </trkpt>
      <trkpt lat="38.3239440" lon="-0.6176790">
        <ele>212.0</ele>
        <time>2018-03-05T13:40:50Z</time>
      </trkpt>
      <trkpt lat="38.3239460" lon="-0.6177400">
        <ele>212.0</ele>
        <time>2018-03-05T13:40:51Z</time>
      </trkpt>
      <trkpt lat="38.3239490" lon="-0.6178000">
        <ele>212.0</ele>
        <time>2018-03-05T13:40:52Z</time>
      </trkpt>
      <trkpt lat="38.3239530" lon="-0.6178610">
        <ele>213.0</ele>
        <time>2018-03-05T13:40:53Z</time>
      </trkpt>
      <trkpt lat="38.3239570" lon="-0.6179210">
        <ele>213.0</ele>
        <time>2018-03-05T13:40:54Z</time>
      </trkpt>
      <trkpt lat="38.3239630" lon="-0.6179780">
        <ele>213.0</ele>
        <time>2018-03-05T13:40:55Z</time>
      </trkpt>
      <trkpt lat="38.3239690" lon="-0.6180360">
        <ele>213.0</ele>
        <time>2018-03-05T13:40:56Z</time>
      </trkpt>
      <trkpt lat="38.3239770" lon="-0.6180940">
        <ele>213.0</ele>
        <time>2018-03-05T13:40:57Z</time>
      </trkpt>
      <trkpt lat="38.3239850" lon="-0.6181520">
        <ele>213.0</ele>
        <time>2018-03-05T13:40:58Z</time>
      </trkpt>
      <trkpt lat="38.3239910" lon="-0.6182110">
        <ele>213.0</ele>
        <time>2018-03-05T13:40:59Z</time>
      </trkpt>
      <trkpt lat="38.3239980" lon="-0.6182710">
        <ele>213.0</ele>
        <time>2018-03-05T13:41:00Z</time>
      </trkpt>
      <trkpt lat="38.3240060" lon="-0.6183340">
        <ele>213.0</ele>
        <time>2018-03-05T13:41:01Z</time>
      </trkpt>
      <trkpt lat="38.3240170" lon="-0.6184000">
        <ele>212.0</ele>
        <time>2018-03-05T13:41:02Z</time>
      </trkpt>
      <trkpt lat="38.3240290" lon="-0.6184670">
        <ele>212.0</ele>
        <time>2018-03-05T13:41:03Z</time>
      </trkpt>
      <trkpt lat="38.3240440" lon="-0.6185360">
        <ele>212.0</ele>
        <time>2018-03-05T13:41:04Z</time>
      </trkpt>
      <trkpt lat="38.3240620" lon="-0.6186080">
        <ele>212.0</ele>
        <time>2018-03-05T13:41:05Z</time>
      </trkpt>
      <trkpt lat="38.3240800" lon="-0.6186750">
        <ele>212.0</ele>
        <time>2018-03-05T13:41:06Z</time>
      </trkpt>
      <trkpt lat="38.3240970" lon="-0.6187410">
        <ele>212.0</ele>
        <time>2018-03-05T13:41:07Z</time>
      </trkpt>
      <trkpt lat="38.3241120" lon="-0.6187990">
        <ele>213.0</ele>
        <time>2018-03-05T13:41:08Z</time>
      </trkpt>
      <trkpt lat="38.3241270" lon="-0.6188510">
        <ele>213.0</ele>
        <time>2018-03-05T13:41:09Z</time>
      </trkpt>
      <trkpt lat="38.3241410" lon="-0.6188990">
        <ele>214.0</ele>
        <time>2018-03-05T13:41:10Z</time>
      </trkpt>
      <trkpt lat="38.3241550" lon="-0.6189490">
        <ele>214.0</ele>
        <time>2018-03-05T13:41:11Z</time>
      </trkpt>
      <trkpt lat="38.3241700" lon="-0.6189940">
        <ele>215.0</ele>
        <time>2018-03-05T13:41:12Z</time>
      </trkpt>
      <trkpt lat="38.3241850" lon="-0.6190370">
        <ele>215.0</ele>
        <time>2018-03-05T13:41:13Z</time>
      </trkpt>
      <trkpt lat="38.3241950" lon="-0.6190760">
        <ele>216.0</ele>
        <time>2018-03-05T13:41:14Z</time>
      </trkpt>
      <trkpt lat="38.3242030" lon="-0.6191080">
        <ele>217.0</ele>
        <time>2018-03-05T13:41:15Z</time>
      </trkpt>
      <trkpt lat="38.3242160" lon="-0.6191360">
        <ele>217.0</ele>
        <time>2018-03-05T13:41:16Z</time>
      </trkpt>
      <trkpt lat="38.3242270" lon="-0.6191630">
        <ele>217.0</ele>
        <time>2018-03-05T13:41:17Z</time>
      </trkpt>
      <trkpt lat="38.3242400" lon="-0.6191910">
        <ele>218.0</ele>
        <time>2018-03-05T13:41:18Z</time>
      </trkpt>
      <trkpt lat="38.3242550" lon="-0.6192170">
        <ele>218.0</ele>
        <time>2018-03-05T13:41:19Z</time>
      </trkpt>
      <trkpt lat="38.3242700" lon="-0.6192440">
        <ele>219.0</ele>
        <time>2018-03-05T13:41:20Z</time>
      </trkpt>
      <trkpt lat="38.3242850" lon="-0.6192700">
        <ele>219.0</ele>
        <time>2018-03-05T13:41:21Z</time>
      </trkpt>
      <trkpt lat="38.3242990" lon="-0.6192960">
        <ele>219.0</ele>
        <time>2018-03-05T13:41:22Z</time>
      </trkpt>
      <trkpt lat="38.3243150" lon="-0.6193220">
        <ele>220.0</ele>
        <time>2018-03-05T13:41:23Z</time>
      </trkpt>
      <trkpt lat="38.3243310" lon="-0.6193480">
        <ele>220.0</ele>
        <time>2018-03-05T13:41:24Z</time>
      </trkpt>
      <trkpt lat="38.3243480" lon="-0.6193740">
        <ele>220.0</ele>
        <time>2018-03-05T13:41:25Z</time>
      </trkpt>
      <trkpt lat="38.3243630" lon="-0.6194040">
        <ele>221.0</ele>
        <time>2018-03-05T13:41:26Z</time>
      </trkpt>
      <trkpt lat="38.3243750" lon="-0.6194380">
        <ele>221.0</ele>
        <time>2018-03-05T13:41:27Z</time>
      </trkpt>
      <trkpt lat="38.3243840" lon="-0.6194750">
        <ele>221.0</ele>
        <time>2018-03-05T13:41:28Z</time>
      </trkpt>
      <trkpt lat="38.3243920" lon="-0.6195090">
        <ele>221.0</ele>
        <time>2018-03-05T13:41:29Z</time>
      </trkpt>
      <trkpt lat="38.3243960" lon="-0.6195470">
        <ele>221.0</ele>
        <time>2018-03-05T13:41:30Z</time>
      </trkpt>
      <trkpt lat="38.3244020" lon="-0.6195850">
        <ele>221.0</ele>
        <time>2018-03-05T13:41:31Z</time>
      </trkpt>
      <trkpt lat="38.3244090" lon="-0.6196220">
        <ele>221.0</ele>
        <time>2018-03-05T13:41:32Z</time>
      </trkpt>
      <trkpt lat="38.3244160" lon="-0.6196630">
        <ele>221.0</ele>
        <time>2018-03-05T13:41:33Z</time>
      </trkpt>
      <trkpt lat="38.3244210" lon="-0.6197050">
        <ele>222.0</ele>
        <time>2018-03-05T13:41:34Z</time>
      </trkpt>
      <trkpt lat="38.3244240" lon="-0.6197500">
        <ele>222.0</ele>
        <time>2018-03-05T13:41:35Z</time>
      </trkpt>
      <trkpt lat="38.3244270" lon="-0.6197970">
        <ele>222.0</ele>
        <time>2018-03-05T13:41:36Z</time>
      </trkpt>
      <trkpt lat="38.3244300" lon="-0.6198460">
        <ele>222.0</ele>
        <time>2018-03-05T13:41:37Z</time>
      </trkpt>
      <trkpt lat="38.3244290" lon="-0.6198950">
        <ele>222.0</ele>
        <time>2018-03-05T13:41:38Z</time>
      </trkpt>
      <trkpt lat="38.3244280" lon="-0.6199450">
        <ele>222.0</ele>
        <time>2018-03-05T13:41:39Z</time>
      </trkpt>
      <trkpt lat="38.3244300" lon="-0.6199970">
        <ele>222.0</ele>
        <time>2018-03-05T13:41:40Z</time>
      </trkpt>
      <trkpt lat="38.3244310" lon="-0.6200510">
        <ele>222.0</ele>
        <time>2018-03-05T13:41:41Z</time>
      </trkpt>
      <trkpt lat="38.3244300" lon="-0.6201050">
        <ele>222.0</ele>
        <time>2018-03-05T13:41:42Z</time>
      </trkpt>
      <trkpt lat="38.3244280" lon="-0.6201640">
        <ele>222.0</ele>
        <time>2018-03-05T13:41:43Z</time>
      </trkpt>
      <trkpt lat="38.3244260" lon="-0.6202260">
        <ele>222.0</ele>
        <time>2018-03-05T13:41:44Z</time>
      </trkpt>
      <trkpt lat="38.3244210" lon="-0.6202880">
        <ele>222.0</ele>
        <time>2018-03-05T13:41:45Z</time>
      </trkpt>
      <trkpt lat="38.3244060" lon="-0.6203500">
        <ele>221.0</ele>
        <time>2018-03-05T13:41:46Z</time>
      </trkpt>
      <trkpt lat="38.3243930" lon="-0.6204140">
        <ele>221.0</ele>
        <time>2018-03-05T13:41:47Z</time>
      </trkpt>
      <trkpt lat="38.3243780" lon="-0.6204770">
        <ele>220.0</ele>
        <time>2018-03-05T13:41:48Z</time>
      </trkpt>
      <trkpt lat="38.3243660" lon="-0.6205390">
        <ele>220.0</ele>
        <time>2018-03-05T13:41:49Z</time>
      </trkpt>
      <trkpt lat="38.3243620" lon="-0.6205920">
        <ele>220.0</ele>
        <time>2018-03-05T13:41:50Z</time>
      </trkpt>
      <trkpt lat="38.3243780" lon="-0.6206260">
        <ele>219.0</ele>
        <time>2018-03-05T13:41:51Z</time>
      </trkpt>
      <trkpt lat="38.3243910" lon="-0.6206590">
        <ele>220.0</ele>
        <time>2018-03-05T13:41:52Z</time>
      </trkpt>
      <trkpt lat="38.3243940" lon="-0.6206950">
        <ele>219.0</ele>
        <time>2018-03-05T13:41:53Z</time>
      </trkpt>
      <trkpt lat="38.3243940" lon="-0.6207430">
        <ele>219.0</ele>
        <time>2018-03-05T13:41:54Z</time>
      </trkpt>
      <trkpt lat="38.3243950" lon="-0.6207950">
        <ele>219.0</ele>
        <time>2018-03-05T13:41:55Z</time>
      </trkpt>
      <trkpt lat="38.3243920" lon="-0.6208550">
        <ele>219.0</ele>
        <time>2018-03-05T13:41:56Z</time>
      </trkpt>
      <trkpt lat="38.3243910" lon="-0.6209150">
        <ele>219.0</ele>
        <time>2018-03-05T13:41:57Z</time>
      </trkpt>
      <trkpt lat="38.3243900" lon="-0.6209760">
        <ele>219.0</ele>
        <time>2018-03-05T13:41:58Z</time>
      </trkpt>
      <trkpt lat="38.3243940" lon="-0.6210380">
        <ele>220.0</ele>
        <time>2018-03-05T13:41:59Z</time>
      </trkpt>
      <trkpt lat="38.3243980" lon="-0.6211000">
        <ele>220.0</ele>
        <time>2018-03-05T13:42:00Z</time>
      </trkpt>
      <trkpt lat="38.3244080" lon="-0.6211620">
        <ele>220.0</ele>
        <time>2018-03-05T13:42:01Z</time>
      </trkpt>
      <trkpt lat="38.3244170" lon="-0.6212180">
        <ele>221.0</ele>
        <time>2018-03-05T13:42:02Z</time>
      </trkpt>
      <trkpt lat="38.3244250" lon="-0.6212760">
        <ele>221.0</ele>
        <time>2018-03-05T13:42:03Z</time>
      </trkpt>
      <trkpt lat="38.3244290" lon="-0.6213340">
        <ele>221.0</ele>
        <time>2018-03-05T13:42:04Z</time>
      </trkpt>
      <trkpt lat="38.3244220" lon="-0.6213900">
        <ele>221.0</ele>
        <time>2018-03-05T13:42:05Z</time>
      </trkpt>
      <trkpt lat="38.3244120" lon="-0.6214500">
        <ele>220.0</ele>
        <time>2018-03-05T13:42:06Z</time>
      </trkpt>
      <trkpt lat="38.3244030" lon="-0.6215120">
        <ele>221.0</ele>
        <time>2018-03-05T13:42:07Z</time>
      </trkpt>
      <trkpt lat="38.3243940" lon="-0.6215740">
        <ele>220.0</ele>
        <time>2018-03-05T13:42:08Z</time>
      </trkpt>
      <trkpt lat="38.3243880" lon="-0.6216360">
        <ele>220.0</ele>
        <time>2018-03-05T13:42:09Z</time>
      </trkpt>
      <trkpt lat="38.3243840" lon="-0.6217000">
        <ele>220.0</ele>
        <time>2018-03-05T13:42:10Z</time>
      </trkpt>
      <trkpt lat="38.3243870" lon="-0.6217590">
        <ele>220.0</ele>
        <time>2018-03-05T13:42:11Z</time>
      </trkpt>
      <trkpt lat="38.3243900" lon="-0.6218180">
        <ele>219.0</ele>
        <time>2018-03-05T13:42:12Z</time>
      </trkpt>
      <trkpt lat="38.3243920" lon="-0.6218750">
        <ele>219.0</ele>
        <time>2018-03-05T13:42:13Z</time>
      </trkpt>
      <trkpt lat="38.3243960" lon="-0.6219340">
        <ele>219.0</ele>
        <time>2018-03-05T13:42:14Z</time>
      </trkpt>
      <trkpt lat="38.3244020" lon="-0.6219940">
        <ele>218.0</ele>
        <time>2018-03-05T13:42:15Z</time>
      </trkpt>
      <trkpt lat="38.3244070" lon="-0.6220520">
        <ele>218.0</ele>
        <time>2018-03-05T13:42:16Z</time>
      </trkpt>
      <trkpt lat="38.3244020" lon="-0.6221050">
        <ele>218.0</ele>
        <time>2018-03-05T13:42:17Z</time>
      </trkpt>
      <trkpt lat="38.3243980" lon="-0.6221620">
        <ele>217.0</ele>
        <time>2018-03-05T13:42:18Z</time>
      </trkpt>
      <trkpt lat="38.3243910" lon="-0.6222270">
        <ele>218.0</ele>
        <time>2018-03-05T13:42:19Z</time>
      </trkpt>
      <trkpt lat="38.3243930" lon="-0.6222890">
        <ele>218.0</ele>
        <time>2018-03-05T13:42:20Z</time>
      </trkpt>
      <trkpt lat="38.3243900" lon="-0.6223480">
        <ele>219.0</ele>
        <time>2018-03-05T13:42:21Z</time>
      </trkpt>
      <trkpt lat="38.3243770" lon="-0.6223920">
        <ele>219.0</ele>
        <time>2018-03-05T13:42:22Z</time>
      </trkpt>
      <trkpt lat="38.3243670" lon="-0.6224260">
        <ele>219.0</ele>
        <time>2018-03-05T13:42:23Z</time>
      </trkpt>
      <trkpt lat="38.3243610" lon="-0.6224700">
        <ele>220.0</ele>
        <time>2018-03-05T13:42:24Z</time>
      </trkpt>
      <trkpt lat="38.3243560" lon="-0.6225170">
        <ele>220.0</ele>
        <time>2018-03-05T13:42:25Z</time>
      </trkpt>
      <trkpt lat="38.3243600" lon="-0.6225590">
        <ele>220.0</ele>
        <time>2018-03-05T13:42:26Z</time>
      </trkpt>
      <trkpt lat="38.3243520" lon="-0.6226010">
        <ele>220.0</ele>
        <time>2018-03-05T13:42:27Z</time>
      </trkpt>
      <trkpt lat="38.3243420" lon="-0.6226480">
        <ele>220.0</ele>
        <time>2018-03-05T13:42:28Z</time>
      </trkpt>
      <trkpt lat="38.3243300" lon="-0.6226970">
        <ele>219.0</ele>
        <time>2018-03-05T13:42:29Z</time>
      </trkpt>
      <trkpt lat="38.3243150" lon="-0.6227480">
        <ele>219.0</ele>
        <time>2018-03-05T13:42:30Z</time>
      </trkpt>
      <trkpt lat="38.3243020" lon="-0.6228030">
        <ele>219.0</ele>
        <time>2018-03-05T13:42:31Z</time>
      </trkpt>
      <trkpt lat="38.3242900" lon="-0.6228590">
        <ele>219.0</ele>
        <time>2018-03-05T13:42:32Z</time>
      </trkpt>
      <trkpt lat="38.3242730" lon="-0.6229170">
        <ele>219.0</ele>
        <time>2018-03-05T13:42:33Z</time>
      </trkpt>
      <trkpt lat="38.3242520" lon="-0.6229740">
        <ele>218.0</ele>
        <time>2018-03-05T13:42:34Z</time>
      </trkpt>
      <trkpt lat="38.3242230" lon="-0.6230230">
        <ele>218.0</ele>
        <time>2018-03-05T13:42:35Z</time>
      </trkpt>
      <trkpt lat="38.3241800" lon="-0.6230510">
        <ele>216.0</ele>
        <time>2018-03-05T13:42:36Z</time>
      </trkpt>
      <trkpt lat="38.3241250" lon="-0.6230750">
        <ele>215.0</ele>
        <time>2018-03-05T13:42:37Z</time>
      </trkpt>
      <trkpt lat="38.3240630" lon="-0.6230800">
        <ele>213.0</ele>
        <time>2018-03-05T13:42:38Z</time>
      </trkpt>
      <trkpt lat="38.3239930" lon="-0.6230740">
        <ele>212.0</ele>
        <time>2018-03-05T13:42:39Z</time>
      </trkpt>
      <trkpt lat="38.3239250" lon="-0.6230700">
        <ele>211.0</ele>
        <time>2018-03-05T13:42:40Z</time>
      </trkpt>
      <trkpt lat="38.3238690" lon="-0.6230550">
        <ele>211.0</ele>
        <time>2018-03-05T13:42:41Z</time>
      </trkpt>
      <trkpt lat="38.3238220" lon="-0.6230350">
        <ele>210.0</ele>
        <time>2018-03-05T13:42:42Z</time>
      </trkpt>
      <trkpt lat="38.3237870" lon="-0.6230170">
        <ele>209.0</ele>
        <time>2018-03-05T13:42:43Z</time>
      </trkpt>
      <trkpt lat="38.3237620" lon="-0.6230260">
        <ele>208.0</ele>
        <time>2018-03-05T13:42:44Z</time>
      </trkpt>
      <trkpt lat="38.3237360" lon="-0.6230460">
        <ele>206.0</ele>
        <time>2018-03-05T13:42:45Z</time>
      </trkpt>
      <trkpt lat="38.3237060" lon="-0.6230800">
        <ele>206.0</ele>
        <time>2018-03-05T13:42:46Z</time>
      </trkpt>
      <trkpt lat="38.3236730" lon="-0.6231220">
        <ele>205.0</ele>
        <time>2018-03-05T13:42:47Z</time>
      </trkpt>
      <trkpt lat="38.3236430" lon="-0.6231860">
        <ele>205.0</ele>
        <time>2018-03-05T13:42:48Z</time>
      </trkpt>
      <trkpt lat="38.3236180" lon="-0.6232590">
        <ele>204.0</ele>
        <time>2018-03-05T13:42:49Z</time>
      </trkpt>
      <trkpt lat="38.3236070" lon="-0.6233330">
        <ele>203.0</ele>
        <time>2018-03-05T13:42:50Z</time>
      </trkpt>
      <trkpt lat="38.3236200" lon="-0.6233910">
        <ele>202.0</ele>
        <time>2018-03-05T13:42:51Z</time>
      </trkpt>
      <trkpt lat="38.3236590" lon="-0.6234580">
        <ele>201.0</ele>
        <time>2018-03-05T13:42:52Z</time>
      </trkpt>
      <trkpt lat="38.3237200" lon="-0.6235110">
        <ele>200.0</ele>
        <time>2018-03-05T13:42:53Z</time>
      </trkpt>
      <trkpt lat="38.3237890" lon="-0.6235600">
        <ele>199.0</ele>
        <time>2018-03-05T13:42:54Z</time>
      </trkpt>
      <trkpt lat="38.3238640" lon="-0.6236120">
        <ele>198.0</ele>
        <time>2018-03-05T13:42:55Z</time>
      </trkpt>
      <trkpt lat="38.3239390" lon="-0.6236650">
        <ele>197.0</ele>
        <time>2018-03-05T13:42:56Z</time>
      </trkpt>
      <trkpt lat="38.3239970" lon="-0.6237180">
        <ele>197.0</ele>
        <time>2018-03-05T13:42:57Z</time>
      </trkpt>
      <trkpt lat="38.3240390" lon="-0.6237780">
        <ele>195.0</ele>
        <time>2018-03-05T13:42:58Z</time>
      </trkpt>
      <trkpt lat="38.3240380" lon="-0.6238270">
        <ele>193.0</ele>
        <time>2018-03-05T13:42:59Z</time>
      </trkpt>
      <trkpt lat="38.3240440" lon="-0.6239030">
        <ele>193.0</ele>
        <time>2018-03-05T13:43:00Z</time>
      </trkpt>
      <trkpt lat="38.3240530" lon="-0.6239800">
        <ele>192.0</ele>
        <time>2018-03-05T13:43:01Z</time>
      </trkpt>
      <trkpt lat="38.3240490" lon="-0.6240420">
        <ele>193.0</ele>
        <time>2018-03-05T13:43:02Z</time>
      </trkpt>
      <trkpt lat="38.3240560" lon="-0.6241090">
        <ele>194.0</ele>
        <time>2018-03-05T13:43:03Z</time>
      </trkpt>
      <trkpt lat="38.3240640" lon="-0.6241700">
        <ele>195.0</ele>
        <time>2018-03-05T13:43:04Z</time>
      </trkpt>
      <trkpt lat="38.3240840" lon="-0.6242160">
        <ele>195.0</ele>
        <time>2018-03-05T13:43:05Z</time>
      </trkpt>
      <trkpt lat="38.3240930" lon="-0.6242680">
        <ele>195.0</ele>
        <time>2018-03-05T13:43:06Z</time>
      </trkpt>
      <trkpt lat="38.3241010" lon="-0.6243150">
        <ele>195.0</ele>
        <time>2018-03-05T13:43:07Z</time>
      </trkpt>
      <trkpt lat="38.3240850" lon="-0.6243490">
        <ele>195.0</ele>
        <time>2018-03-05T13:43:08Z</time>
      </trkpt>
      <trkpt lat="38.3240750" lon="-0.6243820">
        <ele>195.0</ele>
        <time>2018-03-05T13:43:09Z</time>
      </trkpt>
      <trkpt lat="38.3240690" lon="-0.6244150">
        <ele>195.0</ele>
        <time>2018-03-05T13:43:10Z</time>
      </trkpt>
      <trkpt lat="38.3240610" lon="-0.6244580">
        <ele>195.0</ele>
        <time>2018-03-05T13:43:11Z</time>
      </trkpt>
      <trkpt lat="38.3240530" lon="-0.6245090">
        <ele>195.0</ele>
        <time>2018-03-05T13:43:12Z</time>
      </trkpt>
      <trkpt lat="38.3240420" lon="-0.6245590">
        <ele>194.0</ele>
        <time>2018-03-05T13:43:13Z</time>
      </trkpt>
      <trkpt lat="38.3240360" lon="-0.6246190">
        <ele>194.0</ele>
        <time>2018-03-05T13:43:14Z</time>
      </trkpt>
      <trkpt lat="38.3240290" lon="-0.6246840">
        <ele>195.0</ele>
        <time>2018-03-05T13:43:15Z</time>
      </trkpt>
      <trkpt lat="38.3240230" lon="-0.6247620">
        <ele>194.0</ele>
        <time>2018-03-05T13:43:16Z</time>
      </trkpt>
      <trkpt lat="38.3240110" lon="-0.6248410">
        <ele>194.0</ele>
        <time>2018-03-05T13:43:17Z</time>
      </trkpt>
      <trkpt lat="38.3240010" lon="-0.6249230">
        <ele>193.0</ele>
        <time>2018-03-05T13:43:18Z</time>
      </trkpt>
      <trkpt lat="38.3239920" lon="-0.6250100">
        <ele>192.0</ele>
        <time>2018-03-05T13:43:19Z</time>
      </trkpt>
      <trkpt lat="38.3239820" lon="-0.6250980">
        <ele>191.0</ele>
        <time>2018-03-05T13:43:20Z</time>
      </trkpt>
      <trkpt lat="38.3239760" lon="-0.6251960">
        <ele>190.0</ele>
        <time>2018-03-05T13:43:21Z</time>
      </trkpt>
      <trkpt lat="38.3239720" lon="-0.6252980">
        <ele>190.0</ele>
        <time>2018-03-05T13:43:22Z</time>
      </trkpt>
      <trkpt lat="38.3239710" lon="-0.6254010">
        <ele>190.0</ele>
        <time>2018-03-05T13:43:23Z</time>
      </trkpt>
      <trkpt lat="38.3239690" lon="-0.6255060">
        <ele>190.0</ele>
        <time>2018-03-05T13:43:24Z</time>
      </trkpt>
      <trkpt lat="38.3239620" lon="-0.6256100">
        <ele>189.0</ele>
        <time>2018-03-05T13:43:25Z</time>
      </trkpt>
      <trkpt lat="38.3239530" lon="-0.6257120">
        <ele>189.0</ele>
        <time>2018-03-05T13:43:26Z</time>
      </trkpt>
      <trkpt lat="38.3239430" lon="-0.6258150">
        <ele>188.0</ele>
        <time>2018-03-05T13:43:27Z</time>
      </trkpt>
      <trkpt lat="38.3239410" lon="-0.6259180">
        <ele>188.0</ele>
        <time>2018-03-05T13:43:28Z</time>
      </trkpt>
      <trkpt lat="38.3239440" lon="-0.6260180">
        <ele>187.0</ele>
        <time>2018-03-05T13:43:29Z</time>
      </trkpt>
      <trkpt lat="38.3239510" lon="-0.6261180">
        <ele>186.0</ele>
        <time>2018-03-05T13:43:30Z</time>
      </trkpt>
      <trkpt lat="38.3239580" lon="-0.6262170">
        <ele>186.0</ele>
        <time>2018-03-05T13:43:31Z</time>
      </trkpt>
      <trkpt lat="38.3239670" lon="-0.6263170">
        <ele>186.0</ele>
        <time>2018-03-05T13:43:32Z</time>
      </trkpt>
      <trkpt lat="38.3239720" lon="-0.6264150">
        <ele>187.0</ele>
        <time>2018-03-05T13:43:33Z</time>
      </trkpt>
      <trkpt lat="38.3239800" lon="-0.6265100">
        <ele>187.0</ele>
        <time>2018-03-05T13:43:34Z</time>
      </trkpt>
      <trkpt lat="38.3239860" lon="-0.6266050">
        <ele>187.0</ele>
        <time>2018-03-05T13:43:35Z</time>
      </trkpt>
      <trkpt lat="38.3239880" lon="-0.6266950">
        <ele>187.0</ele>
        <time>2018-03-05T13:43:36Z</time>
      </trkpt>
      <trkpt lat="38.3239690" lon="-0.6267720">
        <ele>187.0</ele>
        <time>2018-03-05T13:43:37Z</time>
      </trkpt>
      <trkpt lat="38.3239310" lon="-0.6268330">
        <ele>187.0</ele>
        <time>2018-03-05T13:43:38Z</time>
      </trkpt>
      <trkpt lat="38.3238950" lon="-0.6268470">
        <ele>185.0</ele>
        <time>2018-03-05T13:43:39Z</time>
      </trkpt>
      <trkpt lat="38.3238540" lon="-0.6268150">
        <ele>188.0</ele>
        <time>2018-03-05T13:43:40Z</time>
      </trkpt>
      <trkpt lat="38.3238130" lon="-0.6267930">
        <ele>188.0</ele>
        <time>2018-03-05T13:43:41Z</time>
      </trkpt>
      <trkpt lat="38.3237660" lon="-0.6267830">
        <ele>189.0</ele>
        <time>2018-03-05T13:43:42Z</time>
      </trkpt>
      <trkpt lat="38.3237150" lon="-0.6267740">
        <ele>189.0</ele>
        <time>2018-03-05T13:43:43Z</time>
      </trkpt>
      <trkpt lat="38.3236650" lon="-0.6267600">
        <ele>189.0</ele>
        <time>2018-03-05T13:43:44Z</time>
      </trkpt>
      <trkpt lat="38.3236200" lon="-0.6267540">
        <ele>190.0</ele>
        <time>2018-03-05T13:43:45Z</time>
      </trkpt>
      <trkpt lat="38.3235830" lon="-0.6267520">
        <ele>190.0</ele>
        <time>2018-03-05T13:43:46Z</time>
      </trkpt>
      <trkpt lat="38.3235540" lon="-0.6267560">
        <ele>190.0</ele>
        <time>2018-03-05T13:43:47Z</time>
      </trkpt>
      <trkpt lat="38.3235280" lon="-0.6267670">
        <ele>190.0</ele>
        <time>2018-03-05T13:43:48Z</time>
      </trkpt>
      <trkpt lat="38.3235080" lon="-0.6267800">
        <ele>191.0</ele>
        <time>2018-03-05T13:43:49Z</time>
      </trkpt>
      <trkpt lat="38.3234900" lon="-0.6268040">
        <ele>191.0</ele>
        <time>2018-03-05T13:43:50Z</time>
      </trkpt>
      <trkpt lat="38.3234730" lon="-0.6268320">
        <ele>192.0</ele>
        <time>2018-03-05T13:43:51Z</time>
      </trkpt>
      <trkpt lat="38.3234560" lon="-0.6268670">
        <ele>192.0</ele>
        <time>2018-03-05T13:43:52Z</time>
      </trkpt>
      <trkpt lat="38.3234410" lon="-0.6269070">
        <ele>191.0</ele>
        <time>2018-03-05T13:43:53Z</time>
      </trkpt>
      <trkpt lat="38.3234260" lon="-0.6269550">
        <ele>192.0</ele>
        <time>2018-03-05T13:43:54Z</time>
      </trkpt>
      <trkpt lat="38.3234100" lon="-0.6270000">
        <ele>191.0</ele>
        <time>2018-03-05T13:43:55Z</time>
      </trkpt>
      <trkpt lat="38.3233920" lon="-0.6270540">
        <ele>192.0</ele>
        <time>2018-03-05T13:43:56Z</time>
      </trkpt>
      <trkpt lat="38.3233750" lon="-0.6271110">
        <ele>191.0</ele>
        <time>2018-03-05T13:43:57Z</time>
      </trkpt>
      <trkpt lat="38.3233590" lon="-0.6271680">
        <ele>191.0</ele>
        <time>2018-03-05T13:43:58Z</time>
      </trkpt>
      <trkpt lat="38.3233360" lon="-0.6272270">
        <ele>192.0</ele>
        <time>2018-03-05T13:43:59Z</time>
      </trkpt>
      <trkpt lat="38.3233110" lon="-0.6272800">
        <ele>193.0</ele>
        <time>2018-03-05T13:44:00Z</time>
      </trkpt>
      <trkpt lat="38.3232860" lon="-0.6273230">
        <ele>194.0</ele>
        <time>2018-03-05T13:44:01Z</time>
      </trkpt>
      <trkpt lat="38.3232690" lon="-0.6273600">
        <ele>194.0</ele>
        <time>2018-03-05T13:44:02Z</time>
      </trkpt>
      <trkpt lat="38.3232500" lon="-0.6273950">
        <ele>195.0</ele>
        <time>2018-03-05T13:44:03Z</time>
      </trkpt>
      <trkpt lat="38.3232360" lon="-0.6274380">
        <ele>195.0</ele>
        <time>2018-03-05T13:44:04Z</time>
      </trkpt>
      <trkpt lat="38.3232340" lon="-0.6274890">
        <ele>195.0</ele>
        <time>2018-03-05T13:44:05Z</time>
      </trkpt>
      <trkpt lat="38.3232540" lon="-0.6275380">
        <ele>195.0</ele>
        <time>2018-03-05T13:44:06Z</time>
      </trkpt>
      <trkpt lat="38.3232810" lon="-0.6275850">
        <ele>194.0</ele>
        <time>2018-03-05T13:44:07Z</time>
      </trkpt>
      <trkpt lat="38.3233110" lon="-0.6276300">
        <ele>194.0</ele>
        <time>2018-03-05T13:44:08Z</time>
      </trkpt>
      <trkpt lat="38.3233470" lon="-0.6276740">
        <ele>194.0</ele>
        <time>2018-03-05T13:44:09Z</time>
      </trkpt>
      <trkpt lat="38.3233820" lon="-0.6277140">
        <ele>194.0</ele>
        <time>2018-03-05T13:44:10Z</time>
      </trkpt>
      <trkpt lat="38.3234250" lon="-0.6277430">
        <ele>195.0</ele>
        <time>2018-03-05T13:44:11Z</time>
      </trkpt>
      <trkpt lat="38.3234650" lon="-0.6277640">
        <ele>196.0</ele>
        <time>2018-03-05T13:44:12Z</time>
      </trkpt>
      <trkpt lat="38.3235030" lon="-0.6277780">
        <ele>197.0</ele>
        <time>2018-03-05T13:44:13Z</time>
      </trkpt>
      <trkpt lat="38.3235420" lon="-0.6277920">
        <ele>197.0</ele>
        <time>2018-03-05T13:44:14Z</time>
      </trkpt>
      <trkpt lat="38.3235810" lon="-0.6278070">
        <ele>198.0</ele>
        <time>2018-03-05T13:44:15Z</time>
      </trkpt>
      <trkpt lat="38.3236170" lon="-0.6278240">
        <ele>198.0</ele>
        <time>2018-03-05T13:44:16Z</time>
      </trkpt>
      <trkpt lat="38.3236470" lon="-0.6278490">
        <ele>199.0</ele>
        <time>2018-03-05T13:44:17Z</time>
      </trkpt>
      <trkpt lat="38.3236600" lon="-0.6278790">
        <ele>198.0</ele>
        <time>2018-03-05T13:44:18Z</time>
      </trkpt>
      <trkpt lat="38.3236490" lon="-0.6278960">
        <ele>198.0</ele>
        <time>2018-03-05T13:44:19Z</time>
      </trkpt>
      <trkpt lat="38.3236310" lon="-0.6279120">
        <ele>197.0</ele>
        <time>2018-03-05T13:44:20Z</time>
      </trkpt>
      <trkpt lat="38.3236200" lon="-0.6279270">
        <ele>197.0</ele>
        <time>2018-03-05T13:44:21Z</time>
      </trkpt>
      <trkpt lat="38.3236020" lon="-0.6279320">
        <ele>197.0</ele>
        <time>2018-03-05T13:44:22Z</time>
      </trkpt>
      <trkpt lat="38.3235540" lon="-0.6279440">
        <ele>196.0</ele>
        <time>2018-03-05T13:44:23Z</time>
      </trkpt>
      <trkpt lat="38.3235090" lon="-0.6279610">
        <ele>197.0</ele>
        <time>2018-03-05T13:44:24Z</time>
      </trkpt>
      <trkpt lat="38.3234750" lon="-0.6279790">
        <ele>197.0</ele>
        <time>2018-03-05T13:44:25Z</time>
      </trkpt>
      <trkpt lat="38.3234410" lon="-0.6280110">
        <ele>196.0</ele>
        <time>2018-03-05T13:44:26Z</time>
      </trkpt>
      <trkpt lat="38.3234160" lon="-0.6280790">
        <ele>197.0</ele>
        <time>2018-03-05T13:44:27Z</time>
      </trkpt>
      <trkpt lat="38.3234010" lon="-0.6281340">
        <ele>197.0</ele>
        <time>2018-03-05T13:44:28Z</time>
      </trkpt>
      <trkpt lat="38.3234040" lon="-0.6281880">
        <ele>195.0</ele>
        <time>2018-03-05T13:44:29Z</time>
      </trkpt>
      <trkpt lat="38.3234090" lon="-0.6282450">
        <ele>197.0</ele>
        <time>2018-03-05T13:44:30Z</time>
      </trkpt>
      <trkpt lat="38.3234330" lon="-0.6283030">
        <ele>197.0</ele>
        <time>2018-03-05T13:44:31Z</time>
      </trkpt>
      <trkpt lat="38.3234500" lon="-0.6283630">
        <ele>198.0</ele>
        <time>2018-03-05T13:44:32Z</time>
      </trkpt>
      <trkpt lat="38.3234490" lon="-0.6284290">
        <ele>199.0</ele>
        <time>2018-03-05T13:44:33Z</time>
      </trkpt>
      <trkpt lat="38.3234340" lon="-0.6284850">
        <ele>199.0</ele>
        <time>2018-03-05T13:44:34Z</time>
      </trkpt>
      <trkpt lat="38.3233940" lon="-0.6285130">
        <ele>200.0</ele>
        <time>2018-03-05T13:44:35Z</time>
      </trkpt>
      <trkpt lat="38.3233660" lon="-0.6285480">
        <ele>200.0</ele>
        <time>2018-03-05T13:44:36Z</time>
      </trkpt>
      <trkpt lat="38.3233410" lon="-0.6285900">
        <ele>200.0</ele>
        <time>2018-03-05T13:44:37Z</time>
      </trkpt>
      <trkpt lat="38.3233180" lon="-0.6286400">
        <ele>201.0</ele>
        <time>2018-03-05T13:44:38Z</time>
      </trkpt>
      <trkpt lat="38.3233010" lon="-0.6286930">
        <ele>201.0</ele>
        <time>2018-03-05T13:44:39Z</time>
      </trkpt>
      <trkpt lat="38.3232910" lon="-0.6287530">
        <ele>201.0</ele>
        <time>2018-03-05T13:44:40Z</time>
      </trkpt>
      <trkpt lat="38.3232800" lon="-0.6288130">
        <ele>201.0</ele>
        <time>2018-03-05T13:44:41Z</time>
      </trkpt>
      <trkpt lat="38.3232690" lon="-0.6288720">
        <ele>201.0</ele>
        <time>2018-03-05T13:44:42Z</time>
      </trkpt>
      <trkpt lat="38.3232500" lon="-0.6289280">
        <ele>201.0</ele>
        <time>2018-03-05T13:44:43Z</time>
      </trkpt>
      <trkpt lat="38.3232370" lon="-0.6289860">
        <ele>201.0</ele>
        <time>2018-03-05T13:44:44Z</time>
      </trkpt>
      <trkpt lat="38.3232260" lon="-0.6290430">
        <ele>201.0</ele>
        <time>2018-03-05T13:44:45Z</time>
      </trkpt>
      <trkpt lat="38.3232320" lon="-0.6291160">
        <ele>201.0</ele>
        <time>2018-03-05T13:44:46Z</time>
      </trkpt>
      <trkpt lat="38.3232290" lon="-0.6291820">
        <ele>200.0</ele>
        <time>2018-03-05T13:44:47Z</time>
      </trkpt>
      <trkpt lat="38.3232280" lon="-0.6292490">
        <ele>201.0</ele>
        <time>2018-03-05T13:44:48Z</time>
      </trkpt>
      <trkpt lat="38.3232290" lon="-0.6293160">
        <ele>201.0</ele>
        <time>2018-03-05T13:44:49Z</time>
      </trkpt>
      <trkpt lat="38.3232320" lon="-0.6293840">
        <ele>201.0</ele>
        <time>2018-03-05T13:44:50Z</time>
      </trkpt>
      <trkpt lat="38.3232300" lon="-0.6294480">
        <ele>201.0</ele>
        <time>2018-03-05T13:44:51Z</time>
      </trkpt>
      <trkpt lat="38.3232310" lon="-0.6295110">
        <ele>201.0</ele>
        <time>2018-03-05T13:44:52Z</time>
      </trkpt>
      <trkpt lat="38.3232390" lon="-0.6295740">
        <ele>201.0</ele>
        <time>2018-03-05T13:44:53Z</time>
      </trkpt>
      <trkpt lat="38.3232490" lon="-0.6296370">
        <ele>201.0</ele>
        <time>2018-03-05T13:44:54Z</time>
      </trkpt>
      <trkpt lat="38.3232550" lon="-0.6297010">
        <ele>201.0</ele>
        <time>2018-03-05T13:44:55Z</time>
      </trkpt>
      <trkpt lat="38.3232600" lon="-0.6297650">
        <ele>201.0</ele>
        <time>2018-03-05T13:44:56Z</time>
      </trkpt>
      <trkpt lat="38.3232690" lon="-0.6298310">
        <ele>202.0</ele>
        <time>2018-03-05T13:44:57Z</time>
      </trkpt>
      <trkpt lat="38.3232800" lon="-0.6298960">
        <ele>202.0</ele>
        <time>2018-03-05T13:44:58Z</time>
      </trkpt>
      <trkpt lat="38.3232980" lon="-0.6299600">
        <ele>202.0</ele>
        <time>2018-03-05T13:44:59Z</time>
      </trkpt>
      <trkpt lat="38.3233130" lon="-0.6300230">
        <ele>202.0</ele>
        <time>2018-03-05T13:45:00Z</time>
      </trkpt>
      <trkpt lat="38.3233270" lon="-0.6300880">
        <ele>201.0</ele>
        <time>2018-03-05T13:45:01Z</time>
      </trkpt>
      <trkpt lat="38.3233410" lon="-0.6301520">
        <ele>201.0</ele>
        <time>2018-03-05T13:45:02Z</time>
      </trkpt>
      <trkpt lat="38.3233510" lon="-0.6302210">
        <ele>202.0</ele>
        <time>2018-03-05T13:45:03Z</time>
      </trkpt>
      <trkpt lat="38.3233550" lon="-0.6302900">
        <ele>202.0</ele>
        <time>2018-03-05T13:45:04Z</time>
      </trkpt>
      <trkpt lat="38.3233600" lon="-0.6303600">
        <ele>202.0</ele>
        <time>2018-03-05T13:45:05Z</time>
      </trkpt>
      <trkpt lat="38.3233630" lon="-0.6304300">
        <ele>202.0</ele>
        <time>2018-03-05T13:45:06Z</time>
      </trkpt>
      <trkpt lat="38.3233640" lon="-0.6305010">
        <ele>202.0</ele>
        <time>2018-03-05T13:45:07Z</time>
      </trkpt>
      <trkpt lat="38.3233610" lon="-0.6305700">
        <ele>202.0</ele>
        <time>2018-03-05T13:45:08Z</time>
      </trkpt>
      <trkpt lat="38.3233590" lon="-0.6306400">
        <ele>202.0</ele>
        <time>2018-03-05T13:45:09Z</time>
      </trkpt>
      <trkpt lat="38.3233570" lon="-0.6307100">
        <ele>202.0</ele>
        <time>2018-03-05T13:45:10Z</time>
      </trkpt>
      <trkpt lat="38.3233600" lon="-0.6307800">
        <ele>202.0</ele>
        <time>2018-03-05T13:45:11Z</time>
      </trkpt>
      <trkpt lat="38.3233670" lon="-0.6308510">
        <ele>202.0</ele>
        <time>2018-03-05T13:45:12Z</time>
      </trkpt>
      <trkpt lat="38.3233730" lon="-0.6309310">
        <ele>201.0</ele>
        <time>2018-03-05T13:45:13Z</time>
      </trkpt>
      <trkpt lat="38.3233730" lon="-0.6310170">
        <ele>200.0</ele>
        <time>2018-03-05T13:45:14Z</time>
      </trkpt>
      <trkpt lat="38.3233670" lon="-0.6311070">
        <ele>200.0</ele>
        <time>2018-03-05T13:45:15Z</time>
      </trkpt>
      <trkpt lat="38.3233620" lon="-0.6311830">
        <ele>201.0</ele>
        <time>2018-03-05T13:45:16Z</time>
      </trkpt>
      <trkpt lat="38.3233570" lon="-0.6312380">
        <ele>202.0</ele>
        <time>2018-03-05T13:45:17Z</time>
      </trkpt>
      <trkpt lat="38.3233470" lon="-0.6312900">
        <ele>202.0</ele>
        <time>2018-03-05T13:45:18Z</time>
      </trkpt>
      <trkpt lat="38.3233440" lon="-0.6313500">
        <ele>202.0</ele>
        <time>2018-03-05T13:45:19Z</time>
      </trkpt>
      <trkpt lat="38.3233390" lon="-0.6314170">
        <ele>201.0</ele>
        <time>2018-03-05T13:45:20Z</time>
      </trkpt>
      <trkpt lat="38.3233300" lon="-0.6314940">
        <ele>201.0</ele>
        <time>2018-03-05T13:45:21Z</time>
      </trkpt>
      <trkpt lat="38.3233230" lon="-0.6315670">
        <ele>201.0</ele>
        <time>2018-03-05T13:45:22Z</time>
      </trkpt>
      <trkpt lat="38.3233140" lon="-0.6316300">
        <ele>201.0</ele>
        <time>2018-03-05T13:45:23Z</time>
      </trkpt>
      <trkpt lat="38.3233110" lon="-0.6316880">
        <ele>202.0</ele>
        <time>2018-03-05T13:45:24Z</time>
      </trkpt>
      <trkpt lat="38.3233020" lon="-0.6317480">
        <ele>202.0</ele>
        <time>2018-03-05T13:45:25Z</time>
      </trkpt>
      <trkpt lat="38.3232960" lon="-0.6318130">
        <ele>202.0</ele>
        <time>2018-03-05T13:45:26Z</time>
      </trkpt>
      <trkpt lat="38.3232900" lon="-0.6318790">
        <ele>202.0</ele>
        <time>2018-03-05T13:45:27Z</time>
      </trkpt>
      <trkpt lat="38.3232870" lon="-0.6319450">
        <ele>202.0</ele>
        <time>2018-03-05T13:45:28Z</time>
      </trkpt>
      <trkpt lat="38.3232820" lon="-0.6320090">
        <ele>202.0</ele>
        <time>2018-03-05T13:45:29Z</time>
      </trkpt>
      <trkpt lat="38.3232860" lon="-0.6320590">
        <ele>202.0</ele>
        <time>2018-03-05T13:45:30Z</time>
      </trkpt>
      <trkpt lat="38.3232960" lon="-0.6321030">
        <ele>201.0</ele>
        <time>2018-03-05T13:45:31Z</time>
      </trkpt>
      <trkpt lat="38.3233070" lon="-0.6321410">
        <ele>201.0</ele>
        <time>2018-03-05T13:45:32Z</time>
      </trkpt>
      <trkpt lat="38.3233290" lon="-0.6321710">
        <ele>202.0</ele>
        <time>2018-03-05T13:45:33Z</time>
      </trkpt>
      <trkpt lat="38.3233570" lon="-0.6321930">
        <ele>202.0</ele>
        <time>2018-03-05T13:45:34Z</time>
      </trkpt>
      <trkpt lat="38.3233910" lon="-0.6322060">
        <ele>202.0</ele>
        <time>2018-03-05T13:45:35Z</time>
      </trkpt>
      <trkpt lat="38.3234290" lon="-0.6322170">
        <ele>202.0</ele>
        <time>2018-03-05T13:45:36Z</time>
      </trkpt>
      <trkpt lat="38.3234690" lon="-0.6322290">
        <ele>202.0</ele>
        <time>2018-03-05T13:45:37Z</time>
      </trkpt>
      <trkpt lat="38.3235120" lon="-0.6322480">
        <ele>202.0</ele>
        <time>2018-03-05T13:45:38Z</time>
      </trkpt>
      <trkpt lat="38.3235540" lon="-0.6322650">
        <ele>202.0</ele>
        <time>2018-03-05T13:45:39Z</time>
      </trkpt>
      <trkpt lat="38.3235970" lon="-0.6322840">
        <ele>202.0</ele>
        <time>2018-03-05T13:45:40Z</time>
      </trkpt>
      <trkpt lat="38.3236390" lon="-0.6323040">
        <ele>202.0</ele>
        <time>2018-03-05T13:45:41Z</time>
      </trkpt>
      <trkpt lat="38.3236790" lon="-0.6323330">
        <ele>202.0</ele>
        <time>2018-03-05T13:45:42Z</time>
      </trkpt>
      <trkpt lat="38.3237130" lon="-0.6323670">
        <ele>202.0</ele>
        <time>2018-03-05T13:45:43Z</time>
      </trkpt>
      <trkpt lat="38.3237440" lon="-0.6324060">
        <ele>201.0</ele>
        <time>2018-03-05T13:45:44Z</time>
      </trkpt>
      <trkpt lat="38.3237580" lon="-0.6324510">
        <ele>201.0</ele>
        <time>2018-03-05T13:45:45Z</time>
      </trkpt>
      <trkpt lat="38.3237490" lon="-0.6325100">
        <ele>201.0</ele>
        <time>2018-03-05T13:45:46Z</time>
      </trkpt>
      <trkpt lat="38.3237410" lon="-0.6325610">
        <ele>200.0</ele>
        <time>2018-03-05T13:45:47Z</time>
      </trkpt>
      <trkpt lat="38.3237180" lon="-0.6326060">
        <ele>199.0</ele>
        <time>2018-03-05T13:45:48Z</time>
      </trkpt>
      <trkpt lat="38.3236910" lon="-0.6326370">
        <ele>199.0</ele>
        <time>2018-03-05T13:45:49Z</time>
      </trkpt>
      <trkpt lat="38.3236520" lon="-0.6326210">
        <ele>196.0</ele>
        <time>2018-03-05T13:45:50Z</time>
      </trkpt>
      <trkpt lat="38.3235900" lon="-0.6326250">
        <ele>196.0</ele>
        <time>2018-03-05T13:45:51Z</time>
      </trkpt>
      <trkpt lat="38.3235370" lon="-0.6326390">
        <ele>196.0</ele>
        <time>2018-03-05T13:45:52Z</time>
      </trkpt>
      <trkpt lat="38.3234880" lon="-0.6326310">
        <ele>196.0</ele>
        <time>2018-03-05T13:45:53Z</time>
      </trkpt>
      <trkpt lat="38.3234350" lon="-0.6326080">
        <ele>197.0</ele>
        <time>2018-03-05T13:45:54Z</time>
      </trkpt>
      <trkpt lat="38.3233830" lon="-0.6325910">
        <ele>198.0</ele>
        <time>2018-03-05T13:45:55Z</time>
      </trkpt>
      <trkpt lat="38.3233340" lon="-0.6325810">
        <ele>198.0</ele>
        <time>2018-03-05T13:45:56Z</time>
      </trkpt>
      <trkpt lat="38.3232900" lon="-0.6325840">
        <ele>197.0</ele>
        <time>2018-03-05T13:45:57Z</time>
      </trkpt>
      <trkpt lat="38.3232450" lon="-0.6326060">
        <ele>198.0</ele>
        <time>2018-03-05T13:45:58Z</time>
      </trkpt>
      <trkpt lat="38.3232120" lon="-0.6326480">
        <ele>198.0</ele>
        <time>2018-03-05T13:45:59Z</time>
      </trkpt>
      <trkpt lat="38.3231900" lon="-0.6327050">
        <ele>199.0</ele>
        <time>2018-03-05T13:46:00Z</time>
      </trkpt>
      <trkpt lat="38.3231750" lon="-0.6327630">
        <ele>199.0</ele>
        <time>2018-03-05T13:46:01Z</time>
      </trkpt>
      <trkpt lat="38.3231710" lon="-0.6328250">
        <ele>199.0</ele>
        <time>2018-03-05T13:46:02Z</time>
      </trkpt>
      <trkpt lat="38.3231740" lon="-0.6328910">
        <ele>199.0</ele>
        <time>2018-03-05T13:46:03Z</time>
      </trkpt>
      <trkpt lat="38.3231750" lon="-0.6329580">
        <ele>199.0</ele>
        <time>2018-03-05T13:46:04Z</time>
      </trkpt>
      <trkpt lat="38.3231740" lon="-0.6330270">
        <ele>199.0</ele>
        <time>2018-03-05T13:46:05Z</time>
      </trkpt>
      <trkpt lat="38.3231730" lon="-0.6330900">
        <ele>199.0</ele>
        <time>2018-03-05T13:46:06Z</time>
      </trkpt>
      <trkpt lat="38.3231780" lon="-0.6331460">
        <ele>199.0</ele>
        <time>2018-03-05T13:46:07Z</time>
      </trkpt>
      <trkpt lat="38.3231940" lon="-0.6332000">
        <ele>200.0</ele>
        <time>2018-03-05T13:46:08Z</time>
      </trkpt>
      <trkpt lat="38.3232100" lon="-0.6332540">
        <ele>200.0</ele>
        <time>2018-03-05T13:46:09Z</time>
      </trkpt>
      <trkpt lat="38.3232310" lon="-0.6333100">
        <ele>200.0</ele>
        <time>2018-03-05T13:46:10Z</time>
      </trkpt>
      <trkpt lat="38.3232520" lon="-0.6333680">
        <ele>200.0</ele>
        <time>2018-03-05T13:46:11Z</time>
      </trkpt>
      <trkpt lat="38.3232730" lon="-0.6334220">
        <ele>200.0</ele>
        <time>2018-03-05T13:46:12Z</time>
      </trkpt>
      <trkpt lat="38.3232960" lon="-0.6334720">
        <ele>200.0</ele>
        <time>2018-03-05T13:46:13Z</time>
      </trkpt>
      <trkpt lat="38.3233250" lon="-0.6335050">
        <ele>201.0</ele>
        <time>2018-03-05T13:46:14Z</time>
      </trkpt>
      <trkpt lat="38.3233620" lon="-0.6335180">
        <ele>202.0</ele>
        <time>2018-03-05T13:46:15Z</time>
      </trkpt>
      <trkpt lat="38.3234020" lon="-0.6335330">
        <ele>202.0</ele>
        <time>2018-03-05T13:46:16Z</time>
      </trkpt>
      <trkpt lat="38.3234440" lon="-0.6335510">
        <ele>202.0</ele>
        <time>2018-03-05T13:46:17Z</time>
      </trkpt>
      <trkpt lat="38.3234940" lon="-0.6335720">
        <ele>202.0</ele>
        <time>2018-03-05T13:46:18Z</time>
      </trkpt>
      <trkpt lat="38.3235440" lon="-0.6335950">
        <ele>203.0</ele>
        <time>2018-03-05T13:46:19Z</time>
      </trkpt>
      <trkpt lat="38.3235930" lon="-0.6336130">
        <ele>203.0</ele>
        <time>2018-03-05T13:46:20Z</time>
      </trkpt>
      <trkpt lat="38.3236420" lon="-0.6336320">
        <ele>202.0</ele>
        <time>2018-03-05T13:46:21Z</time>
      </trkpt>
      <trkpt lat="38.3236910" lon="-0.6336530">
        <ele>203.0</ele>
        <time>2018-03-05T13:46:22Z</time>
      </trkpt>
      <trkpt lat="38.3237410" lon="-0.6336740">
        <ele>202.0</ele>
        <time>2018-03-05T13:46:23Z</time>
      </trkpt>
      <trkpt lat="38.3237910" lon="-0.6336970">
        <ele>202.0</ele>
        <time>2018-03-05T13:46:24Z</time>
      </trkpt>
      <trkpt lat="38.3238420" lon="-0.6337180">
        <ele>202.0</ele>
        <time>2018-03-05T13:46:25Z</time>
      </trkpt>
      <trkpt lat="38.3238930" lon="-0.6337450">
        <ele>202.0</ele>
        <time>2018-03-05T13:46:26Z</time>
      </trkpt>
      <trkpt lat="38.3239400" lon="-0.6337820">
        <ele>202.0</ele>
        <time>2018-03-05T13:46:27Z</time>
      </trkpt>
      <trkpt lat="38.3239840" lon="-0.6338290">
        <ele>201.0</ele>
        <time>2018-03-05T13:46:28Z</time>
      </trkpt>
      <trkpt lat="38.3240200" lon="-0.6338840">
        <ele>201.0</ele>
        <time>2018-03-05T13:46:29Z</time>
      </trkpt>
      <trkpt lat="38.3240420" lon="-0.6339470">
        <ele>201.0</ele>
        <time>2018-03-05T13:46:30Z</time>
      </trkpt>
      <trkpt lat="38.3240650" lon="-0.6340110">
        <ele>201.0</ele>
        <time>2018-03-05T13:46:31Z</time>
      </trkpt>
      <trkpt lat="38.3240990" lon="-0.6340670">
        <ele>202.0</ele>
        <time>2018-03-05T13:46:32Z</time>
      </trkpt>
      <trkpt lat="38.3241410" lon="-0.6341110">
        <ele>201.0</ele>
        <time>2018-03-05T13:46:33Z</time>
      </trkpt>
      <trkpt lat="38.3241830" lon="-0.6341580">
        <ele>201.0</ele>
        <time>2018-03-05T13:46:34Z</time>
      </trkpt>
      <trkpt lat="38.3242270" lon="-0.6342050">
        <ele>201.0</ele>
        <time>2018-03-05T13:46:35Z</time>
      </trkpt>
      <trkpt lat="38.3242720" lon="-0.6342490">
        <ele>201.0</ele>
        <time>2018-03-05T13:46:36Z</time>
      </trkpt>
      <trkpt lat="38.3243170" lon="-0.6342970">
        <ele>201.0</ele>
        <time>2018-03-05T13:46:37Z</time>
      </trkpt>
      <trkpt lat="38.3243540" lon="-0.6343540">
        <ele>201.0</ele>
        <time>2018-03-05T13:46:38Z</time>
      </trkpt>
      <trkpt lat="38.3243840" lon="-0.6344170">
        <ele>201.0</ele>
        <time>2018-03-05T13:46:39Z</time>
      </trkpt>
      <trkpt lat="38.3244100" lon="-0.6344800">
        <ele>201.0</ele>
        <time>2018-03-05T13:46:40Z</time>
      </trkpt>
      <trkpt lat="38.3244400" lon="-0.6345410">
        <ele>201.0</ele>
        <time>2018-03-05T13:46:41Z</time>
      </trkpt>
      <trkpt lat="38.3244710" lon="-0.6346010">
        <ele>201.0</ele>
        <time>2018-03-05T13:46:42Z</time>
      </trkpt>
      <trkpt lat="38.3245040" lon="-0.6346580">
        <ele>201.0</ele>
        <time>2018-03-05T13:46:43Z</time>
      </trkpt>
      <trkpt lat="38.3245450" lon="-0.6347070">
        <ele>201.0</ele>
        <time>2018-03-05T13:46:44Z</time>
      </trkpt>
      <trkpt lat="38.3245900" lon="-0.6347480">
        <ele>201.0</ele>
        <time>2018-03-05T13:46:45Z</time>
      </trkpt>
      <trkpt lat="38.3246340" lon="-0.6347930">
        <ele>201.0</ele>
        <time>2018-03-05T13:46:46Z</time>
      </trkpt>
      <trkpt lat="38.3246690" lon="-0.6348510">
        <ele>201.0</ele>
        <time>2018-03-05T13:46:47Z</time>
      </trkpt>
      <trkpt lat="38.3246970" lon="-0.6349140">
        <ele>201.0</ele>
        <time>2018-03-05T13:46:48Z</time>
      </trkpt>
      <trkpt lat="38.3247180" lon="-0.6349830">
        <ele>201.0</ele>
        <time>2018-03-05T13:46:49Z</time>
      </trkpt>
      <trkpt lat="38.3247340" lon="-0.6350530">
        <ele>201.0</ele>
        <time>2018-03-05T13:46:50Z</time>
      </trkpt>
      <trkpt lat="38.3247390" lon="-0.6351220">
        <ele>201.0</ele>
        <time>2018-03-05T13:46:51Z</time>
      </trkpt>
      <trkpt lat="38.3247440" lon="-0.6351940">
        <ele>201.0</ele>
        <time>2018-03-05T13:46:52Z</time>
      </trkpt>
      <trkpt lat="38.3247520" lon="-0.6352680">
        <ele>201.0</ele>
        <time>2018-03-05T13:46:53Z</time>
      </trkpt>
      <trkpt lat="38.3247590" lon="-0.6353390">
        <ele>201.0</ele>
        <time>2018-03-05T13:46:54Z</time>
      </trkpt>
      <trkpt lat="38.3247690" lon="-0.6354100">
        <ele>201.0</ele>
        <time>2018-03-05T13:46:55Z</time>
      </trkpt>
      <trkpt lat="38.3247850" lon="-0.6354760">
        <ele>201.0</ele>
        <time>2018-03-05T13:46:56Z</time>
      </trkpt>
      <trkpt lat="38.3248130" lon="-0.6355360">
        <ele>201.0</ele>
        <time>2018-03-05T13:46:57Z</time>
      </trkpt>
      <trkpt lat="38.3248520" lon="-0.6355810">
        <ele>201.0</ele>
        <time>2018-03-05T13:46:58Z</time>
      </trkpt>
      <trkpt lat="38.3248960" lon="-0.6356230">
        <ele>201.0</ele>
        <time>2018-03-05T13:46:59Z</time>
      </trkpt>
      <trkpt lat="38.3249410" lon="-0.6356610">
        <ele>201.0</ele>
        <time>2018-03-05T13:47:00Z</time>
      </trkpt>
      <trkpt lat="38.3249850" lon="-0.6356990">
        <ele>201.0</ele>
        <time>2018-03-05T13:47:01Z</time>
      </trkpt>
      <trkpt lat="38.3250270" lon="-0.6357390">
        <ele>201.0</ele>
        <time>2018-03-05T13:47:02Z</time>
      </trkpt>
      <trkpt lat="38.3250610" lon="-0.6357900">
        <ele>201.0</ele>
        <time>2018-03-05T13:47:03Z</time>
      </trkpt>
      <trkpt lat="38.3250810" lon="-0.6358580">
        <ele>200.0</ele>
        <time>2018-03-05T13:47:04Z</time>
      </trkpt>
      <trkpt lat="38.3250700" lon="-0.6359210">
        <ele>199.0</ele>
        <time>2018-03-05T13:47:05Z</time>
      </trkpt>
      <trkpt lat="38.3250520" lon="-0.6359980">
        <ele>198.0</ele>
        <time>2018-03-05T13:47:06Z</time>
      </trkpt>
      <trkpt lat="38.3250380" lon="-0.6360850">
        <ele>197.0</ele>
        <time>2018-03-05T13:47:07Z</time>
      </trkpt>
      <trkpt lat="38.3250240" lon="-0.6361770">
        <ele>197.0</ele>
        <time>2018-03-05T13:47:08Z</time>
      </trkpt>
      <trkpt lat="38.3250030" lon="-0.6362710">
        <ele>196.0</ele>
        <time>2018-03-05T13:47:09Z</time>
      </trkpt>
      <trkpt lat="38.3249810" lon="-0.6363640">
        <ele>195.0</ele>
        <time>2018-03-05T13:47:10Z</time>
      </trkpt>
      <trkpt lat="38.3249480" lon="-0.6364370">
        <ele>195.0</ele>
        <time>2018-03-05T13:47:11Z</time>
      </trkpt>
      <trkpt lat="38.3249260" lon="-0.6364920">
        <ele>194.0</ele>
        <time>2018-03-05T13:47:12Z</time>
      </trkpt>
      <trkpt lat="38.3249070" lon="-0.6365320">
        <ele>194.0</ele>
        <time>2018-03-05T13:47:13Z</time>
      </trkpt>
      <trkpt lat="38.3248970" lon="-0.6365670">
        <ele>193.0</ele>
        <time>2018-03-05T13:47:14Z</time>
      </trkpt>
      <trkpt lat="38.3249120" lon="-0.6366010">
        <ele>194.0</ele>
        <time>2018-03-05T13:47:15Z</time>
      </trkpt>
      <trkpt lat="38.3249470" lon="-0.6366180">
        <ele>193.0</ele>
        <time>2018-03-05T13:47:16Z</time>
      </trkpt>
      <trkpt lat="38.3249870" lon="-0.6366180">
        <ele>193.0</ele>
        <time>2018-03-05T13:47:17Z</time>
      </trkpt>
      <trkpt lat="38.3250220" lon="-0.6366140">
        <ele>192.0</ele>
        <time>2018-03-05T13:47:18Z</time>
      </trkpt>
      <trkpt lat="38.3250610" lon="-0.6366230">
        <ele>192.0</ele>
        <time>2018-03-05T13:47:19Z</time>
      </trkpt>
      <trkpt lat="38.3250990" lon="-0.6366350">
        <ele>192.0</ele>
        <time>2018-03-05T13:47:20Z</time>
      </trkpt>
      <trkpt lat="38.3251370" lon="-0.6366470">
        <ele>192.0</ele>
        <time>2018-03-05T13:47:21Z</time>
      </trkpt>
      <trkpt lat="38.3251760" lon="-0.6366730">
        <ele>192.0</ele>
        <time>2018-03-05T13:47:22Z</time>
      </trkpt>
      <trkpt lat="38.3252100" lon="-0.6367110">
        <ele>192.0</ele>
        <time>2018-03-05T13:47:23Z</time>
      </trkpt>
      <trkpt lat="38.3252350" lon="-0.6367620">
        <ele>192.0</ele>
        <time>2018-03-05T13:47:24Z</time>
      </trkpt>
      <trkpt lat="38.3252450" lon="-0.6368160">
        <ele>192.0</ele>
        <time>2018-03-05T13:47:25Z</time>
      </trkpt>
      <trkpt lat="38.3252460" lon="-0.6368710">
        <ele>193.0</ele>
        <time>2018-03-05T13:47:26Z</time>
      </trkpt>
      <trkpt lat="38.3252470" lon="-0.6369230">
        <ele>194.0</ele>
        <time>2018-03-05T13:47:27Z</time>
      </trkpt>
      <trkpt lat="38.3252460" lon="-0.6369700">
        <ele>194.0</ele>
        <time>2018-03-05T13:47:28Z</time>
      </trkpt>
      <trkpt lat="38.3252450" lon="-0.6370180">
        <ele>195.0</ele>
        <time>2018-03-05T13:47:29Z</time>
      </trkpt>
      <trkpt lat="38.3252440" lon="-0.6370640">
        <ele>195.0</ele>
        <time>2018-03-05T13:47:30Z</time>
      </trkpt>
      <trkpt lat="38.3252430" lon="-0.6371090">
        <ele>195.0</ele>
        <time>2018-03-05T13:47:31Z</time>
      </trkpt>
      <trkpt lat="38.3252460" lon="-0.6371540">
        <ele>196.0</ele>
        <time>2018-03-05T13:47:32Z</time>
      </trkpt>
      <trkpt lat="38.3252540" lon="-0.6371940">
        <ele>196.0</ele>
        <time>2018-03-05T13:47:33Z</time>
      </trkpt>
      <trkpt lat="38.3252590" lon="-0.6372380">
        <ele>196.0</ele>
        <time>2018-03-05T13:47:34Z</time>
      </trkpt>
      <trkpt lat="38.3252600" lon="-0.6372800">
        <ele>196.0</ele>
        <time>2018-03-05T13:47:35Z</time>
      </trkpt>
      <trkpt lat="38.3252610" lon="-0.6373210">
        <ele>197.0</ele>
        <time>2018-03-05T13:47:36Z</time>
      </trkpt>
      <trkpt lat="38.3252590" lon="-0.6373660">
        <ele>197.0</ele>
        <time>2018-03-05T13:47:37Z</time>
      </trkpt>
      <trkpt lat="38.3252560" lon="-0.6374050">
        <ele>198.0</ele>
        <time>2018-03-05T13:47:38Z</time>
      </trkpt>
      <trkpt lat="38.3252520" lon="-0.6374460">
        <ele>199.0</ele>
        <time>2018-03-05T13:47:39Z</time>
      </trkpt>
      <trkpt lat="38.3252510" lon="-0.6374890">
        <ele>199.0</ele>
        <time>2018-03-05T13:47:40Z</time>
      </trkpt>
      <trkpt lat="38.3252480" lon="-0.6375320">
        <ele>200.0</ele>
        <time>2018-03-05T13:47:41Z</time>
      </trkpt>
      <trkpt lat="38.3252460" lon="-0.6375730">
        <ele>200.0</ele>
        <time>2018-03-05T13:47:42Z</time>
      </trkpt>
      <trkpt lat="38.3252440" lon="-0.6376140">
        <ele>201.0</ele>
        <time>2018-03-05T13:47:43Z</time>
      </trkpt>
      <trkpt lat="38.3252390" lon="-0.6376560">
        <ele>201.0</ele>
        <time>2018-03-05T13:47:44Z</time>
      </trkpt>
      <trkpt lat="38.3252370" lon="-0.6376990">
        <ele>202.0</ele>
        <time>2018-03-05T13:47:45Z</time>
      </trkpt>
      <trkpt lat="38.3252380" lon="-0.6377410">
        <ele>202.0</ele>
        <time>2018-03-05T13:47:46Z</time>
      </trkpt>
      <trkpt lat="38.3252370" lon="-0.6377840">
        <ele>202.0</ele>
        <time>2018-03-05T13:47:47Z</time>
      </trkpt>
      <trkpt lat="38.3252350" lon="-0.6378270">
        <ele>202.0</ele>
        <time>2018-03-05T13:47:48Z</time>
      </trkpt>
      <trkpt lat="38.3252380" lon="-0.6378710">
        <ele>203.0</ele>
        <time>2018-03-05T13:47:49Z</time>
      </trkpt>
      <trkpt lat="38.3252410" lon="-0.6379160">
        <ele>203.0</ele>
        <time>2018-03-05T13:47:50Z</time>
      </trkpt>
      <trkpt lat="38.3252430" lon="-0.6379580">
        <ele>204.0</ele>
        <time>2018-03-05T13:47:51Z</time>
      </trkpt>
      <trkpt lat="38.3252450" lon="-0.6380050">
        <ele>205.0</ele>
        <time>2018-03-05T13:47:52Z</time>
      </trkpt>
      <trkpt lat="38.3252460" lon="-0.6380520">
        <ele>206.0</ele>
        <time>2018-03-05T13:47:53Z</time>
      </trkpt>
      <trkpt lat="38.3252490" lon="-0.6380970">
        <ele>206.0</ele>
        <time>2018-03-05T13:47:54Z</time>
      </trkpt>
      <trkpt lat="38.3252510" lon="-0.6381420">
        <ele>206.0</ele>
        <time>2018-03-05T13:47:55Z</time>
      </trkpt>
      <trkpt lat="38.3252560" lon="-0.6381880">
        <ele>207.0</ele>
        <time>2018-03-05T13:47:56Z</time>
      </trkpt>
      <trkpt lat="38.3252610" lon="-0.6382350">
        <ele>207.0</ele>
        <time>2018-03-05T13:47:57Z</time>
      </trkpt>
      <trkpt lat="38.3252680" lon="-0.6382830">
        <ele>207.0</ele>
        <time>2018-03-05T13:47:58Z</time>
      </trkpt>
      <trkpt lat="38.3252760" lon="-0.6383300">
        <ele>207.0</ele>
        <time>2018-03-05T13:47:59Z</time>
      </trkpt>
      <trkpt lat="38.3252860" lon="-0.6383760">
        <ele>208.0</ele>
        <time>2018-03-05T13:48:00Z</time>
      </trkpt>
      <trkpt lat="38.3252980" lon="-0.6384200">
        <ele>208.0</ele>
        <time>2018-03-05T13:48:01Z</time>
      </trkpt>
      <trkpt lat="38.3253110" lon="-0.6384640">
        <ele>208.0</ele>
        <time>2018-03-05T13:48:02Z</time>
      </trkpt>
      <trkpt lat="38.3253240" lon="-0.6385080">
        <ele>208.0</ele>
        <time>2018-03-05T13:48:03Z</time>
      </trkpt>
      <trkpt lat="38.3253360" lon="-0.6385510">
        <ele>209.0</ele>
        <time>2018-03-05T13:48:04Z</time>
      </trkpt>
      <trkpt lat="38.3253480" lon="-0.6385900">
        <ele>209.0</ele>
        <time>2018-03-05T13:48:05Z</time>
      </trkpt>
      <trkpt lat="38.3253570" lon="-0.6386270">
        <ele>209.0</ele>
        <time>2018-03-05T13:48:06Z</time>
      </trkpt>
      <trkpt lat="38.3253670" lon="-0.6386640">
        <ele>209.0</ele>
        <time>2018-03-05T13:48:07Z</time>
      </trkpt>
      <trkpt lat="38.3253780" lon="-0.6386980">
        <ele>210.0</ele>
        <time>2018-03-05T13:48:08Z</time>
      </trkpt>
      <trkpt lat="38.3253900" lon="-0.6387320">
        <ele>210.0</ele>
        <time>2018-03-05T13:48:09Z</time>
      </trkpt>
      <trkpt lat="38.3254010" lon="-0.6387660">
        <ele>210.0</ele>
        <time>2018-03-05T13:48:10Z</time>
      </trkpt>
      <trkpt lat="38.3254120" lon="-0.6387980">
        <ele>211.0</ele>
        <time>2018-03-05T13:48:11Z</time>
      </trkpt>
      <trkpt lat="38.3254220" lon="-0.6388310">
        <ele>211.0</ele>
        <time>2018-03-05T13:48:12Z</time>
      </trkpt>
      <trkpt lat="38.3254290" lon="-0.6388620">
        <ele>211.0</ele>
        <time>2018-03-05T13:48:13Z</time>
      </trkpt>
      <trkpt lat="38.3254360" lon="-0.6388950">
        <ele>212.0</ele>
        <time>2018-03-05T13:48:14Z</time>
      </trkpt>
      <trkpt lat="38.3254460" lon="-0.6389320">
        <ele>212.0</ele>
        <time>2018-03-05T13:48:15Z</time>
      </trkpt>
      <trkpt lat="38.3254590" lon="-0.6389670">
        <ele>212.0</ele>
        <time>2018-03-05T13:48:16Z</time>
      </trkpt>
      <trkpt lat="38.3254690" lon="-0.6390020">
        <ele>213.0</ele>
        <time>2018-03-05T13:48:17Z</time>
      </trkpt>
      <trkpt lat="38.3254740" lon="-0.6390370">
        <ele>213.0</ele>
        <time>2018-03-05T13:48:18Z</time>
      </trkpt>
      <trkpt lat="38.3254800" lon="-0.6390740">
        <ele>213.0</ele>
        <time>2018-03-05T13:48:19Z</time>
      </trkpt>
      <trkpt lat="38.3254900" lon="-0.6391110">
        <ele>213.0</ele>
        <time>2018-03-05T13:48:20Z</time>
      </trkpt>
      <trkpt lat="38.3254980" lon="-0.6391500">
        <ele>214.0</ele>
        <time>2018-03-05T13:48:21Z</time>
      </trkpt>
      <trkpt lat="38.3255010" lon="-0.6391900">
        <ele>214.0</ele>
        <time>2018-03-05T13:48:22Z</time>
      </trkpt>
      <trkpt lat="38.3255000" lon="-0.6392320">
        <ele>214.0</ele>
        <time>2018-03-05T13:48:23Z</time>
      </trkpt>
      <trkpt lat="38.3254960" lon="-0.6392750">
        <ele>214.0</ele>
        <time>2018-03-05T13:48:24Z</time>
      </trkpt>
      <trkpt lat="38.3254910" lon="-0.6393190">
        <ele>214.0</ele>
        <time>2018-03-05T13:48:25Z</time>
      </trkpt>
      <trkpt lat="38.3254850" lon="-0.6393650">
        <ele>214.0</ele>
        <time>2018-03-05T13:48:26Z</time>
      </trkpt>
      <trkpt lat="38.3254740" lon="-0.6394120">
        <ele>214.0</ele>
        <time>2018-03-05T13:48:27Z</time>
      </trkpt>
      <trkpt lat="38.3254600" lon="-0.6394620">
        <ele>214.0</ele>
        <time>2018-03-05T13:48:28Z</time>
      </trkpt>
      <trkpt lat="38.3254450" lon="-0.6395160">
        <ele>213.0</ele>
        <time>2018-03-05T13:48:29Z</time>
      </trkpt>
      <trkpt lat="38.3254280" lon="-0.6395740">
        <ele>213.0</ele>
        <time>2018-03-05T13:48:30Z</time>
      </trkpt>
      <trkpt lat="38.3254110" lon="-0.6396340">
        <ele>212.0</ele>
        <time>2018-03-05T13:48:31Z</time>
      </trkpt>
      <trkpt lat="38.3253930" lon="-0.6396970">
        <ele>212.0</ele>
        <time>2018-03-05T13:48:32Z</time>
      </trkpt>
      <trkpt lat="38.3253760" lon="-0.6397610">
        <ele>212.0</ele>
        <time>2018-03-05T13:48:33Z</time>
      </trkpt>
      <trkpt lat="38.3253610" lon="-0.6398240">
        <ele>212.0</ele>
        <time>2018-03-05T13:48:34Z</time>
      </trkpt>
      <trkpt lat="38.3253470" lon="-0.6398870">
        <ele>212.0</ele>
        <time>2018-03-05T13:48:35Z</time>
      </trkpt>
      <trkpt lat="38.3253350" lon="-0.6399510">
        <ele>212.0</ele>
        <time>2018-03-05T13:48:36Z</time>
      </trkpt>
      <trkpt lat="38.3253250" lon="-0.6400160">
        <ele>212.0</ele>
        <time>2018-03-05T13:48:37Z</time>
      </trkpt>
      <trkpt lat="38.3253130" lon="-0.6400830">
        <ele>213.0</ele>
        <time>2018-03-05T13:48:38Z</time>
      </trkpt>
      <trkpt lat="38.3253050" lon="-0.6401500">
        <ele>213.0</ele>
        <time>2018-03-05T13:48:39Z</time>
      </trkpt>
      <trkpt lat="38.3252970" lon="-0.6402170">
        <ele>213.0</ele>
        <time>2018-03-05T13:48:40Z</time>
      </trkpt>
      <trkpt lat="38.3252910" lon="-0.6402830">
        <ele>213.0</ele>
        <time>2018-03-05T13:48:41Z</time>
      </trkpt>
      <trkpt lat="38.3252870" lon="-0.6403480">
        <ele>213.0</ele>
        <time>2018-03-05T13:48:42Z</time>
      </trkpt>
      <trkpt lat="38.3252850" lon="-0.6404130">
        <ele>213.0</ele>
        <time>2018-03-05T13:48:43Z</time>
      </trkpt>
      <trkpt lat="38.3252810" lon="-0.6404770">
        <ele>213.0</ele>
        <time>2018-03-05T13:48:44Z</time>
      </trkpt>
      <trkpt lat="38.3252760" lon="-0.6405400">
        <ele>214.0</ele>
        <time>2018-03-05T13:48:45Z</time>
      </trkpt>
      <trkpt lat="38.3252700" lon="-0.6406000">
        <ele>214.0</ele>
        <time>2018-03-05T13:48:46Z</time>
      </trkpt>
      <trkpt lat="38.3252660" lon="-0.6406600">
        <ele>214.0</ele>
        <time>2018-03-05T13:48:47Z</time>
      </trkpt>
      <trkpt lat="38.3252620" lon="-0.6407190">
        <ele>214.0</ele>
        <time>2018-03-05T13:48:48Z</time>
      </trkpt>
      <trkpt lat="38.3252590" lon="-0.6407780">
        <ele>214.0</ele>
        <time>2018-03-05T13:48:49Z</time>
      </trkpt>
      <trkpt lat="38.3252550" lon="-0.6408360">
        <ele>214.0</ele>
        <time>2018-03-05T13:48:50Z</time>
      </trkpt>
      <trkpt lat="38.3252500" lon="-0.6408940">
        <ele>214.0</ele>
        <time>2018-03-05T13:48:51Z</time>
      </trkpt>
      <trkpt lat="38.3252460" lon="-0.6409510">
        <ele>215.0</ele>
        <time>2018-03-05T13:48:52Z</time>
      </trkpt>
      <trkpt lat="38.3252420" lon="-0.6410070">
        <ele>215.0</ele>
        <time>2018-03-05T13:48:53Z</time>
      </trkpt>
      <trkpt lat="38.3252390" lon="-0.6410630">
        <ele>215.0</ele>
        <time>2018-03-05T13:48:54Z</time>
      </trkpt>
      <trkpt lat="38.3252370" lon="-0.6411170">
        <ele>215.0</ele>
        <time>2018-03-05T13:48:55Z</time>
      </trkpt>
      <trkpt lat="38.3252340" lon="-0.6411710">
        <ele>215.0</ele>
        <time>2018-03-05T13:48:56Z</time>
      </trkpt>
      <trkpt lat="38.3252310" lon="-0.6412240">
        <ele>215.0</ele>
        <time>2018-03-05T13:48:57Z</time>
      </trkpt>
      <trkpt lat="38.3252270" lon="-0.6412770">
        <ele>215.0</ele>
        <time>2018-03-05T13:48:58Z</time>
      </trkpt>
      <trkpt lat="38.3252250" lon="-0.6413290">
        <ele>216.0</ele>
        <time>2018-03-05T13:48:59Z</time>
      </trkpt>
      <trkpt lat="38.3252190" lon="-0.6413790">
        <ele>216.0</ele>
        <time>2018-03-05T13:49:00Z</time>
      </trkpt>
      <trkpt lat="38.3252150" lon="-0.6414270">
        <ele>216.0</ele>
        <time>2018-03-05T13:49:01Z</time>
      </trkpt>
      <trkpt lat="38.3252100" lon="-0.6414750">
        <ele>216.0</ele>
        <time>2018-03-05T13:49:02Z</time>
      </trkpt>
      <trkpt lat="38.3252020" lon="-0.6415230">
        <ele>216.0</ele>
        <time>2018-03-05T13:49:03Z</time>
      </trkpt>
      <trkpt lat="38.3251960" lon="-0.6415700">
        <ele>217.0</ele>
        <time>2018-03-05T13:49:04Z</time>
      </trkpt>
      <trkpt lat="38.3251890" lon="-0.6416140">
        <ele>217.0</ele>
        <time>2018-03-05T13:49:05Z</time>
      </trkpt>
      <trkpt lat="38.3251810" lon="-0.6416600">
        <ele>218.0</ele>
        <time>2018-03-05T13:49:06Z</time>
      </trkpt>
      <trkpt lat="38.3251700" lon="-0.6417020">
        <ele>218.0</ele>
        <time>2018-03-05T13:49:07Z</time>
      </trkpt>
      <trkpt lat="38.3251630" lon="-0.6417440">
        <ele>219.0</ele>
        <time>2018-03-05T13:49:08Z</time>
      </trkpt>
      <trkpt lat="38.3251550" lon="-0.6417830">
        <ele>220.0</ele>
        <time>2018-03-05T13:49:09Z</time>
      </trkpt>
      <trkpt lat="38.3251480" lon="-0.6418210">
        <ele>220.0</ele>
        <time>2018-03-05T13:49:10Z</time>
      </trkpt>
      <trkpt lat="38.3251430" lon="-0.6418580">
        <ele>221.0</ele>
        <time>2018-03-05T13:49:11Z</time>
      </trkpt>
      <trkpt lat="38.3251370" lon="-0.6418910">
        <ele>221.0</ele>
        <time>2018-03-05T13:49:12Z</time>
      </trkpt>
      <trkpt lat="38.3251320" lon="-0.6419200">
        <ele>222.0</ele>
        <time>2018-03-05T13:49:13Z</time>
      </trkpt>
      <trkpt lat="38.3251290" lon="-0.6419480">
        <ele>222.0</ele>
        <time>2018-03-05T13:49:14Z</time>
      </trkpt>
      <trkpt lat="38.3251290" lon="-0.6419790">
        <ele>222.0</ele>
        <time>2018-03-05T13:49:15Z</time>
      </trkpt>
      <trkpt lat="38.3251320" lon="-0.6420070">
        <ele>222.0</ele>
        <time>2018-03-05T13:49:16Z</time>
      </trkpt>
      <trkpt lat="38.3251360" lon="-0.6420380">
        <ele>222.0</ele>
        <time>2018-03-05T13:49:17Z</time>
      </trkpt>
      <trkpt lat="38.3251420" lon="-0.6420740">
        <ele>222.0</ele>
        <time>2018-03-05T13:49:18Z</time>
      </trkpt>
      <trkpt lat="38.3251490" lon="-0.6421140">
        <ele>222.0</ele>
        <time>2018-03-05T13:49:19Z</time>
      </trkpt>
      <trkpt lat="38.3251570" lon="-0.6421550">
        <ele>222.0</ele>
        <time>2018-03-05T13:49:20Z</time>
      </trkpt>
      <trkpt lat="38.3251650" lon="-0.6422000">
        <ele>222.0</ele>
        <time>2018-03-05T13:49:21Z</time>
      </trkpt>
      <trkpt lat="38.3251740" lon="-0.6422480">
        <ele>222.0</ele>
        <time>2018-03-05T13:49:22Z</time>
      </trkpt>
      <trkpt lat="38.3251850" lon="-0.6422990">
        <ele>222.0</ele>
        <time>2018-03-05T13:49:23Z</time>
      </trkpt>
      <trkpt lat="38.3251960" lon="-0.6423550">
        <ele>222.0</ele>
        <time>2018-03-05T13:49:24Z</time>
      </trkpt>
      <trkpt lat="38.3252080" lon="-0.6424150">
        <ele>221.0</ele>
        <time>2018-03-05T13:49:25Z</time>
      </trkpt>
      <trkpt lat="38.3252220" lon="-0.6424760">
        <ele>221.0</ele>
        <time>2018-03-05T13:49:26Z</time>
      </trkpt>
      <trkpt lat="38.3252370" lon="-0.6425400">
        <ele>221.0</ele>
        <time>2018-03-05T13:49:27Z</time>
      </trkpt>
      <trkpt lat="38.3252540" lon="-0.6426110">
        <ele>221.0</ele>
        <time>2018-03-05T13:49:28Z</time>
      </trkpt>
      <trkpt lat="38.3252730" lon="-0.6426850">
        <ele>220.0</ele>
        <time>2018-03-05T13:49:29Z</time>
      </trkpt>
      <trkpt lat="38.3252970" lon="-0.6427680">
        <ele>219.0</ele>
        <time>2018-03-05T13:49:30Z</time>
      </trkpt>
      <trkpt lat="38.3253260" lon="-0.6428610">
        <ele>218.0</ele>
        <time>2018-03-05T13:49:31Z</time>
      </trkpt>
      <trkpt lat="38.3253590" lon="-0.6429610">
        <ele>218.0</ele>
        <time>2018-03-05T13:49:32Z</time>
      </trkpt>
      <trkpt lat="38.3253930" lon="-0.6430670">
        <ele>217.0</ele>
        <time>2018-03-05T13:49:33Z</time>
      </trkpt>
      <trkpt lat="38.3254230" lon="-0.6431740">
        <ele>216.0</ele>
        <time>2018-03-05T13:49:34Z</time>
      </trkpt>
      <trkpt lat="38.3254540" lon="-0.6432840">
        <ele>216.0</ele>
        <time>2018-03-05T13:49:35Z</time>
      </trkpt>
      <trkpt lat="38.3254820" lon="-0.6433950">
        <ele>215.0</ele>
        <time>2018-03-05T13:49:36Z</time>
      </trkpt>
      <trkpt lat="38.3255050" lon="-0.6435080">
        <ele>215.0</ele>
        <time>2018-03-05T13:49:37Z</time>
      </trkpt>
      <trkpt lat="38.3255240" lon="-0.6436220">
        <ele>215.0</ele>
        <time>2018-03-05T13:49:38Z</time>
      </trkpt>
      <trkpt lat="38.3255370" lon="-0.6437360">
        <ele>215.0</ele>
        <time>2018-03-05T13:49:39Z</time>
      </trkpt>
      <trkpt lat="38.3255450" lon="-0.6438480">
        <ele>215.0</ele>
        <time>2018-03-05T13:49:40Z</time>
      </trkpt>
      <trkpt lat="38.3255550" lon="-0.6439580">
        <ele>214.0</ele>
        <time>2018-03-05T13:49:41Z</time>
      </trkpt>
      <trkpt lat="38.3255660" lon="-0.6440670">
        <ele>214.0</ele>
        <time>2018-03-05T13:49:42Z</time>
      </trkpt>
      <trkpt lat="38.3255800" lon="-0.6441770">
        <ele>213.0</ele>
        <time>2018-03-05T13:49:43Z</time>
      </trkpt>
      <trkpt lat="38.3255970" lon="-0.6442870">
        <ele>213.0</ele>
        <time>2018-03-05T13:49:44Z</time>
      </trkpt>
      <trkpt lat="38.3256170" lon="-0.6443990">
        <ele>212.0</ele>
        <time>2018-03-05T13:49:45Z</time>
      </trkpt>
      <trkpt lat="38.3256410" lon="-0.6445150">
        <ele>211.0</ele>
        <time>2018-03-05T13:49:46Z</time>
      </trkpt>
      <trkpt lat="38.3256700" lon="-0.6446350">
        <ele>210.0</ele>
        <time>2018-03-05T13:49:47Z</time>
      </trkpt>
      <trkpt lat="38.3257030" lon="-0.6447550">
        <ele>209.0</ele>
        <time>2018-03-05T13:49:48Z</time>
      </trkpt>
      <trkpt lat="38.3257410" lon="-0.6448750">
        <ele>209.0</ele>
        <time>2018-03-05T13:49:49Z</time>
      </trkpt>
      <trkpt lat="38.3257800" lon="-0.6449930">
        <ele>208.0</ele>
        <time>2018-03-05T13:49:50Z</time>
      </trkpt>
      <trkpt lat="38.3258210" lon="-0.6451140">
        <ele>207.0</ele>
        <time>2018-03-05T13:49:51Z</time>
      </trkpt>
      <trkpt lat="38.3258560" lon="-0.6452360">
        <ele>207.0</ele>
        <time>2018-03-05T13:49:52Z</time>
      </trkpt>
      <trkpt lat="38.3258920" lon="-0.6453570">
        <ele>206.0</ele>
        <time>2018-03-05T13:49:53Z</time>
      </trkpt>
      <trkpt lat="38.3259230" lon="-0.6454760">
        <ele>206.0</ele>
        <time>2018-03-05T13:49:54Z</time>
      </trkpt>
      <trkpt lat="38.3259460" lon="-0.6455960">
        <ele>206.0</ele>
        <time>2018-03-05T13:49:55Z</time>
      </trkpt>
      <trkpt lat="38.3259630" lon="-0.6457130">
        <ele>206.0</ele>
        <time>2018-03-05T13:49:56Z</time>
      </trkpt>
      <trkpt lat="38.3259790" lon="-0.6458250">
        <ele>206.0</ele>
        <time>2018-03-05T13:49:57Z</time>
      </trkpt>
      <trkpt lat="38.3259960" lon="-0.6459350">
        <ele>206.0</ele>
        <time>2018-03-05T13:49:58Z</time>
      </trkpt>
      <trkpt lat="38.3260130" lon="-0.6460420">
        <ele>205.0</ele>
        <time>2018-03-05T13:49:59Z</time>
      </trkpt>
      <trkpt lat="38.3260380" lon="-0.6461460">
        <ele>205.0</ele>
        <time>2018-03-05T13:50:00Z</time>
      </trkpt>
      <trkpt lat="38.3260690" lon="-0.6462470">
        <ele>204.0</ele>
        <time>2018-03-05T13:50:01Z</time>
      </trkpt>
      <trkpt lat="38.3261040" lon="-0.6463480">
        <ele>204.0</ele>
        <time>2018-03-05T13:50:02Z</time>
      </trkpt>
      <trkpt lat="38.3261410" lon="-0.6464500">
        <ele>203.0</ele>
        <time>2018-03-05T13:50:03Z</time>
      </trkpt>
      <trkpt lat="38.3261710" lon="-0.6465560">
        <ele>203.0</ele>
        <time>2018-03-05T13:50:04Z</time>
      </trkpt>
      <trkpt lat="38.3261970" lon="-0.6466630">
        <ele>203.0</ele>
        <time>2018-03-05T13:50:05Z</time>
      </trkpt>
      <trkpt lat="38.3262170" lon="-0.6467690">
        <ele>203.0</ele>
        <time>2018-03-05T13:50:06Z</time>
      </trkpt>
      <trkpt lat="38.3262340" lon="-0.6468750">
        <ele>203.0</ele>
        <time>2018-03-05T13:50:07Z</time>
      </trkpt>
      <trkpt lat="38.3262430" lon="-0.6469760">
        <ele>203.0</ele>
        <time>2018-03-05T13:50:08Z</time>
      </trkpt>
      <trkpt lat="38.3262480" lon="-0.6470740">
        <ele>203.0</ele>
        <time>2018-03-05T13:50:09Z</time>
      </trkpt>
      <trkpt lat="38.3262550" lon="-0.6471700">
        <ele>203.0</ele>
        <time>2018-03-05T13:50:10Z</time>
      </trkpt>
      <trkpt lat="38.3262650" lon="-0.6472640">
        <ele>202.0</ele>
        <time>2018-03-05T13:50:11Z</time>
      </trkpt>
      <trkpt lat="38.3262750" lon="-0.6473560">
        <ele>202.0</ele>
        <time>2018-03-05T13:50:12Z</time>
      </trkpt>
      <trkpt lat="38.3262830" lon="-0.6474450">
        <ele>202.0</ele>
        <time>2018-03-05T13:50:13Z</time>
      </trkpt>
      <trkpt lat="38.3262930" lon="-0.6475200">
        <ele>202.0</ele>
        <time>2018-03-05T13:50:14Z</time>
      </trkpt>
      <trkpt lat="38.3263090" lon="-0.6475680">
        <ele>202.0</ele>
        <time>2018-03-05T13:50:15Z</time>
      </trkpt>
      <trkpt lat="38.3263310" lon="-0.6475860">
        <ele>202.0</ele>
        <time>2018-03-05T13:50:16Z</time>
      </trkpt>
      <trkpt lat="38.3263590" lon="-0.6475900">
        <ele>202.0</ele>
        <time>2018-03-05T13:50:17Z</time>
      </trkpt>
      <trkpt lat="38.3263820" lon="-0.6475790">
        <ele>202.0</ele>
        <time>2018-03-05T13:50:18Z</time>
      </trkpt>
      <trkpt lat="38.3264000" lon="-0.6475510">
        <ele>202.0</ele>
        <time>2018-03-05T13:50:19Z</time>
      </trkpt>
      <trkpt lat="38.3264160" lon="-0.6475220">
        <ele>202.0</ele>
        <time>2018-03-05T13:50:20Z</time>
      </trkpt>
      <trkpt lat="38.3264340" lon="-0.6474930">
        <ele>203.0</ele>
        <time>2018-03-05T13:50:21Z</time>
      </trkpt>
      <trkpt lat="38.3264560" lon="-0.6474590">
        <ele>203.0</ele>
        <time>2018-03-05T13:50:22Z</time>
      </trkpt>
      <trkpt lat="38.3264790" lon="-0.6474270">
        <ele>203.0</ele>
        <time>2018-03-05T13:50:23Z</time>
      </trkpt>
      <trkpt lat="38.3265010" lon="-0.6473900">
        <ele>203.0</ele>
        <time>2018-03-05T13:50:24Z</time>
      </trkpt>
      <trkpt lat="38.3265230" lon="-0.6473510">
        <ele>204.0</ele>
        <time>2018-03-05T13:50:25Z</time>
      </trkpt>
      <trkpt lat="38.3265450" lon="-0.6473110">
        <ele>204.0</ele>
        <time>2018-03-05T13:50:26Z</time>
      </trkpt>
      <trkpt lat="38.3265660" lon="-0.6472700">
        <ele>204.0</ele>
        <time>2018-03-05T13:50:27Z</time>
      </trkpt>
      <trkpt lat="38.3265890" lon="-0.6472310">
        <ele>204.0</ele>
        <time>2018-03-05T13:50:28Z</time>
      </trkpt>
      <trkpt lat="38.3266080" lon="-0.6471900">
        <ele>205.0</ele>
        <time>2018-03-05T13:50:29Z</time>
      </trkpt>
      <trkpt lat="38.3266250" lon="-0.6471550">
        <ele>205.0</ele>
        <time>2018-03-05T13:50:30Z</time>
      </trkpt>
      <trkpt lat="38.3266430" lon="-0.6471190">
        <ele>206.0</ele>
        <time>2018-03-05T13:50:31Z</time>
      </trkpt>
      <trkpt lat="38.3266610" lon="-0.6470840">
        <ele>206.0</ele>
        <time>2018-03-05T13:50:32Z</time>
      </trkpt>
      <trkpt lat="38.3266810" lon="-0.6470450">
        <ele>206.0</ele>
        <time>2018-03-05T13:50:33Z</time>
      </trkpt>
      <trkpt lat="38.3266970" lon="-0.6470050">
        <ele>207.0</ele>
        <time>2018-03-05T13:50:34Z</time>
      </trkpt>
      <trkpt lat="38.3267150" lon="-0.6469680">
        <ele>207.0</ele>
        <time>2018-03-05T13:50:35Z</time>
      </trkpt>
      <trkpt lat="38.3267320" lon="-0.6469320">
        <ele>207.0</ele>
        <time>2018-03-05T13:50:36Z</time>
      </trkpt>
      <trkpt lat="38.3267490" lon="-0.6468970">
        <ele>208.0</ele>
        <time>2018-03-05T13:50:37Z</time>
      </trkpt>
      <trkpt lat="38.3267690" lon="-0.6468620">
        <ele>208.0</ele>
        <time>2018-03-05T13:50:38Z</time>
      </trkpt>
      <trkpt lat="38.3267840" lon="-0.6468260">
        <ele>209.0</ele>
        <time>2018-03-05T13:50:39Z</time>
      </trkpt>
      <trkpt lat="38.3268010" lon="-0.6467930">
        <ele>209.0</ele>
        <time>2018-03-05T13:50:40Z</time>
      </trkpt>
      <trkpt lat="38.3268210" lon="-0.6467640">
        <ele>209.0</ele>
        <time>2018-03-05T13:50:41Z</time>
      </trkpt>
      <trkpt lat="38.3268380" lon="-0.6467320">
        <ele>209.0</ele>
        <time>2018-03-05T13:50:42Z</time>
      </trkpt>
      <trkpt lat="38.3268530" lon="-0.6466980">
        <ele>210.0</ele>
        <time>2018-03-05T13:50:43Z</time>
      </trkpt>
      <trkpt lat="38.3268690" lon="-0.6466690">
        <ele>210.0</ele>
        <time>2018-03-05T13:50:44Z</time>
      </trkpt>
      <trkpt lat="38.3268870" lon="-0.6466410">
        <ele>211.0</ele>
        <time>2018-03-05T13:50:45Z</time>
      </trkpt>
      <trkpt lat="38.3269030" lon="-0.6466110">
        <ele>211.0</ele>
        <time>2018-03-05T13:50:46Z</time>
      </trkpt>
      <trkpt lat="38.3269180" lon="-0.6465800">
        <ele>211.0</ele>
        <time>2018-03-05T13:50:47Z</time>
      </trkpt>
      <trkpt lat="38.3269340" lon="-0.6465490">
        <ele>212.0</ele>
        <time>2018-03-05T13:50:48Z</time>
      </trkpt>
      <trkpt lat="38.3269520" lon="-0.6465190">
        <ele>212.0</ele>
        <time>2018-03-05T13:50:49Z</time>
      </trkpt>
      <trkpt lat="38.3269710" lon="-0.6464910">
        <ele>212.0</ele>
        <time>2018-03-05T13:50:50Z</time>
      </trkpt>
      <trkpt lat="38.3269860" lon="-0.6464610">
        <ele>212.0</ele>
        <time>2018-03-05T13:50:51Z</time>
      </trkpt>
      <trkpt lat="38.3270000" lon="-0.6464300">
        <ele>212.0</ele>
        <time>2018-03-05T13:50:52Z</time>
      </trkpt>
      <trkpt lat="38.3270120" lon="-0.6463940">
        <ele>213.0</ele>
        <time>2018-03-05T13:50:53Z</time>
      </trkpt>
      <trkpt lat="38.3270230" lon="-0.6463590">
        <ele>213.0</ele>
        <time>2018-03-05T13:50:54Z</time>
      </trkpt>
      <trkpt lat="38.3270310" lon="-0.6463240">
        <ele>213.0</ele>
        <time>2018-03-05T13:50:55Z</time>
      </trkpt>
      <trkpt lat="38.3270360" lon="-0.6462890">
        <ele>213.0</ele>
        <time>2018-03-05T13:50:56Z</time>
      </trkpt>
      <trkpt lat="38.3270410" lon="-0.6462530">
        <ele>213.0</ele>
        <time>2018-03-05T13:50:57Z</time>
      </trkpt>
      <trkpt lat="38.3270390" lon="-0.6462120">
        <ele>213.0</ele>
        <time>2018-03-05T13:50:58Z</time>
      </trkpt>
      <trkpt lat="38.3270300" lon="-0.6461630">
        <ele>214.0</ele>
        <time>2018-03-05T13:50:59Z</time>
      </trkpt>
      <trkpt lat="38.3270140" lon="-0.6461140">
        <ele>214.0</ele>
        <time>2018-03-05T13:51:00Z</time>
      </trkpt>
      <trkpt lat="38.3269950" lon="-0.6460650">
        <ele>214.0</ele>
        <time>2018-03-05T13:51:01Z</time>
      </trkpt>
      <trkpt lat="38.3269770" lon="-0.6460160">
        <ele>214.0</ele>
        <time>2018-03-05T13:51:02Z</time>
      </trkpt>
      <trkpt lat="38.3269640" lon="-0.6459660">
        <ele>214.0</ele>
        <time>2018-03-05T13:51:03Z</time>
      </trkpt>
      <trkpt lat="38.3269560" lon="-0.6459160">
        <ele>215.0</ele>
        <time>2018-03-05T13:51:04Z</time>
      </trkpt>
      <trkpt lat="38.3269560" lon="-0.6458730">
        <ele>215.0</ele>
        <time>2018-03-05T13:51:05Z</time>
      </trkpt>
      <trkpt lat="38.3269600" lon="-0.6458400">
        <ele>216.0</ele>
        <time>2018-03-05T13:51:06Z</time>
      </trkpt>
      <trkpt lat="38.3269650" lon="-0.6458180">
        <ele>216.0</ele>
        <time>2018-03-05T13:51:07Z</time>
      </trkpt>
      <trkpt lat="38.3269720" lon="-0.6457970">
        <ele>217.0</ele>
        <time>2018-03-05T13:51:08Z</time>
      </trkpt>
      <trkpt lat="38.3269810" lon="-0.6457780">
        <ele>217.0</ele>
        <time>2018-03-05T13:51:09Z</time>
      </trkpt>
      <trkpt lat="38.3269910" lon="-0.6457550">
        <ele>217.0</ele>
        <time>2018-03-05T13:51:10Z</time>
      </trkpt>
      <trkpt lat="38.3270030" lon="-0.6457340">
        <ele>217.0</ele>
        <time>2018-03-05T13:51:11Z</time>
      </trkpt>
      <trkpt lat="38.3270160" lon="-0.6457130">
        <ele>217.0</ele>
        <time>2018-03-05T13:51:12Z</time>
      </trkpt>
      <trkpt lat="38.3270280" lon="-0.6456950">
        <ele>218.0</ele>
        <time>2018-03-05T13:51:13Z</time>
      </trkpt>
      <trkpt lat="38.3270420" lon="-0.6456760">
        <ele>218.0</ele>
        <time>2018-03-05T13:51:14Z</time>
      </trkpt>
      <trkpt lat="38.3270570" lon="-0.6456590">
        <ele>218.0</ele>
        <time>2018-03-05T13:51:15Z</time>
      </trkpt>
      <trkpt lat="38.3270710" lon="-0.6456430">
        <ele>219.0</ele>
        <time>2018-03-05T13:51:16Z</time>
      </trkpt>
      <trkpt lat="38.3270860" lon="-0.6456250">
        <ele>219.0</ele>
        <time>2018-03-05T13:51:17Z</time>
      </trkpt>
      <trkpt lat="38.3271010" lon="-0.6456090">
        <ele>219.0</ele>
        <time>2018-03-05T13:51:18Z</time>
      </trkpt>
      <trkpt lat="38.3271160" lon="-0.6455950">
        <ele>219.0</ele>
        <time>2018-03-05T13:51:19Z</time>
      </trkpt>
      <trkpt lat="38.3271300" lon="-0.6455800">
        <ele>219.0</ele>
        <time>2018-03-05T13:51:20Z</time>
      </trkpt>
      <trkpt lat="38.3271440" lon="-0.6455700">
        <ele>220.0</ele>
        <time>2018-03-05T13:51:21Z</time>
      </trkpt>
      <trkpt lat="38.3271590" lon="-0.6455670">
        <ele>220.0</ele>
        <time>2018-03-05T13:51:22Z</time>
      </trkpt>
      <trkpt lat="38.3271770" lon="-0.6455650">
        <ele>220.0</ele>
        <time>2018-03-05T13:51:23Z</time>
      </trkpt>
      <trkpt lat="38.3271950" lon="-0.6455680">
        <ele>221.0</ele>
        <time>2018-03-05T13:51:24Z</time>
      </trkpt>
      <trkpt lat="38.3272110" lon="-0.6455700">
        <ele>221.0</ele>
        <time>2018-03-05T13:51:25Z</time>
      </trkpt>
      <trkpt lat="38.3272260" lon="-0.6455770">
        <ele>221.0</ele>
        <time>2018-03-05T13:51:26Z</time>
      </trkpt>
      <trkpt lat="38.3272390" lon="-0.6455870">
        <ele>222.0</ele>
        <time>2018-03-05T13:51:27Z</time>
      </trkpt>
      <trkpt lat="38.3272500" lon="-0.6455990">
        <ele>222.0</ele>
        <time>2018-03-05T13:51:28Z</time>
      </trkpt>
      <trkpt lat="38.3272600" lon="-0.6456110">
        <ele>222.0</ele>
        <time>2018-03-05T13:51:29Z</time>
      </trkpt>
      <trkpt lat="38.3272710" lon="-0.6456240">
        <ele>222.0</ele>
        <time>2018-03-05T13:51:30Z</time>
      </trkpt>
      <trkpt lat="38.3272810" lon="-0.6456400">
        <ele>223.0</ele>
        <time>2018-03-05T13:51:31Z</time>
      </trkpt>
      <trkpt lat="38.3272920" lon="-0.6456530">
        <ele>223.0</ele>
        <time>2018-03-05T13:51:32Z</time>
      </trkpt>
      <trkpt lat="38.3273010" lon="-0.6456670">
        <ele>223.0</ele>
        <time>2018-03-05T13:51:33Z</time>
      </trkpt>
      <trkpt lat="38.3273100" lon="-0.6456800">
        <ele>224.0</ele>
        <time>2018-03-05T13:51:34Z</time>
      </trkpt>
      <trkpt lat="38.3273190" lon="-0.6456980">
        <ele>224.0</ele>
        <time>2018-03-05T13:51:35Z</time>
      </trkpt>
      <trkpt lat="38.3273300" lon="-0.6457140">
        <ele>224.0</ele>
        <time>2018-03-05T13:51:36Z</time>
      </trkpt>
      <trkpt lat="38.3273410" lon="-0.6457330">
        <ele>224.0</ele>
        <time>2018-03-05T13:51:37Z</time>
      </trkpt>
      <trkpt lat="38.3273540" lon="-0.6457500">
        <ele>225.0</ele>
        <time>2018-03-05T13:51:38Z</time>
      </trkpt>
      <trkpt lat="38.3273660" lon="-0.6457710">
        <ele>225.0</ele>
        <time>2018-03-05T13:51:39Z</time>
      </trkpt>
      <trkpt lat="38.3273770" lon="-0.6457970">
        <ele>225.0</ele>
        <time>2018-03-05T13:51:40Z</time>
      </trkpt>
      <trkpt lat="38.3273850" lon="-0.6458270">
        <ele>225.0</ele>
        <time>2018-03-05T13:51:41Z</time>
      </trkpt>
      <trkpt lat="38.3273940" lon="-0.6458590">
        <ele>225.0</ele>
        <time>2018-03-05T13:51:42Z</time>
      </trkpt>
      <trkpt lat="38.3274030" lon="-0.6458880">
        <ele>225.0</ele>
        <time>2018-03-05T13:51:43Z</time>
      </trkpt>
      <trkpt lat="38.3274130" lon="-0.6459190">
        <ele>225.0</ele>
        <time>2018-03-05T13:51:44Z</time>
      </trkpt>
      <trkpt lat="38.3274240" lon="-0.6459520">
        <ele>225.0</ele>
        <time>2018-03-05T13:51:45Z</time>
      </trkpt>
      <trkpt lat="38.3274360" lon="-0.6459890">
        <ele>225.0</ele>
        <time>2018-03-05T13:51:46Z</time>
      </trkpt>
      <trkpt lat="38.3274500" lon="-0.6460270">
        <ele>225.0</ele>
        <time>2018-03-05T13:51:47Z</time>
      </trkpt>
      <trkpt lat="38.3274620" lon="-0.6460660">
        <ele>226.0</ele>
        <time>2018-03-05T13:51:48Z</time>
      </trkpt>
      <trkpt lat="38.3274740" lon="-0.6461010">
        <ele>226.0</ele>
        <time>2018-03-05T13:51:49Z</time>
      </trkpt>
      <trkpt lat="38.3274880" lon="-0.6461380">
        <ele>225.0</ele>
        <time>2018-03-05T13:51:50Z</time>
      </trkpt>
      <trkpt lat="38.3275020" lon="-0.6461790">
        <ele>226.0</ele>
        <time>2018-03-05T13:51:51Z</time>
      </trkpt>
      <trkpt lat="38.3275160" lon="-0.6462260">
        <ele>226.0</ele>
        <time>2018-03-05T13:51:52Z</time>
      </trkpt>
      <trkpt lat="38.3275340" lon="-0.6462750">
        <ele>226.0</ele>
        <time>2018-03-05T13:51:53Z</time>
      </trkpt>
      <trkpt lat="38.3275540" lon="-0.6463230">
        <ele>226.0</ele>
        <time>2018-03-05T13:51:54Z</time>
      </trkpt>
      <trkpt lat="38.3275790" lon="-0.6463710">
        <ele>226.0</ele>
        <time>2018-03-05T13:51:55Z</time>
      </trkpt>
      <trkpt lat="38.3276040" lon="-0.6464180">
        <ele>226.0</ele>
        <time>2018-03-05T13:51:56Z</time>
      </trkpt>
      <trkpt lat="38.3276300" lon="-0.6464630">
        <ele>226.0</ele>
        <time>2018-03-05T13:51:57Z</time>
      </trkpt>
      <trkpt lat="38.3276550" lon="-0.6465040">
        <ele>226.0</ele>
        <time>2018-03-05T13:51:58Z</time>
      </trkpt>
      <trkpt lat="38.3276800" lon="-0.6465490">
        <ele>226.0</ele>
        <time>2018-03-05T13:51:59Z</time>
      </trkpt>
      <trkpt lat="38.3277060" lon="-0.6465950">
        <ele>226.0</ele>
        <time>2018-03-05T13:52:00Z</time>
      </trkpt>
      <trkpt lat="38.3277330" lon="-0.6466420">
        <ele>226.0</ele>
        <time>2018-03-05T13:52:01Z</time>
      </trkpt>
      <trkpt lat="38.3277600" lon="-0.6466890">
        <ele>226.0</ele>
        <time>2018-03-05T13:52:02Z</time>
      </trkpt>
      <trkpt lat="38.3277860" lon="-0.6467380">
        <ele>226.0</ele>
        <time>2018-03-05T13:52:03Z</time>
      </trkpt>
      <trkpt lat="38.3278130" lon="-0.6467880">
        <ele>226.0</ele>
        <time>2018-03-05T13:52:04Z</time>
      </trkpt>
      <trkpt lat="38.3278380" lon="-0.6468380">
        <ele>226.0</ele>
        <time>2018-03-05T13:52:05Z</time>
      </trkpt>
      <trkpt lat="38.3278660" lon="-0.6468850">
        <ele>226.0</ele>
        <time>2018-03-05T13:52:06Z</time>
      </trkpt>
      <trkpt lat="38.3278940" lon="-0.6469290">
        <ele>226.0</ele>
        <time>2018-03-05T13:52:07Z</time>
      </trkpt>
      <trkpt lat="38.3279230" lon="-0.6469700">
        <ele>225.0</ele>
        <time>2018-03-05T13:52:08Z</time>
      </trkpt>
      <trkpt lat="38.3279560" lon="-0.6470090">
        <ele>225.0</ele>
        <time>2018-03-05T13:52:09Z</time>
      </trkpt>
      <trkpt lat="38.3279940" lon="-0.6470420">
        <ele>226.0</ele>
        <time>2018-03-05T13:52:10Z</time>
      </trkpt>
      <trkpt lat="38.3280360" lon="-0.6470730">
        <ele>226.0</ele>
        <time>2018-03-05T13:52:11Z</time>
      </trkpt>
      <trkpt lat="38.3280780" lon="-0.6470970">
        <ele>226.0</ele>
        <time>2018-03-05T13:52:12Z</time>
      </trkpt>
      <trkpt lat="38.3281200" lon="-0.6471140">
        <ele>226.0</ele>
        <time>2018-03-05T13:52:13Z</time>
      </trkpt>
      <trkpt lat="38.3281620" lon="-0.6471290">
        <ele>227.0</ele>
        <time>2018-03-05T13:52:14Z</time>
      </trkpt>
      <trkpt lat="38.3282020" lon="-0.6471460">
        <ele>227.0</ele>
        <time>2018-03-05T13:52:15Z</time>
      </trkpt>
      <trkpt lat="38.3282370" lon="-0.6471660">
        <ele>227.0</ele>
        <time>2018-03-05T13:52:16Z</time>
      </trkpt>
      <trkpt lat="38.3282690" lon="-0.6471820">
        <ele>228.0</ele>
        <time>2018-03-05T13:52:17Z</time>
      </trkpt>
      <trkpt lat="38.3282950" lon="-0.6471930">
        <ele>229.0</ele>
        <time>2018-03-05T13:52:18Z</time>
      </trkpt>
      <trkpt lat="38.3283200" lon="-0.6471990">
        <ele>229.0</ele>
        <time>2018-03-05T13:52:19Z</time>
      </trkpt>
      <trkpt lat="38.3283430" lon="-0.6472040">
        <ele>229.0</ele>
        <time>2018-03-05T13:52:20Z</time>
      </trkpt>
      <trkpt lat="38.3283640" lon="-0.6472150">
        <ele>230.0</ele>
        <time>2018-03-05T13:52:21Z</time>
      </trkpt>
      <trkpt lat="38.3283890" lon="-0.6472220">
        <ele>230.0</ele>
        <time>2018-03-05T13:52:22Z</time>
      </trkpt>
      <trkpt lat="38.3284180" lon="-0.6472280">
        <ele>230.0</ele>
        <time>2018-03-05T13:52:23Z</time>
      </trkpt>
      <trkpt lat="38.3284540" lon="-0.6472400">
        <ele>229.0</ele>
        <time>2018-03-05T13:52:24Z</time>
      </trkpt>
      <trkpt lat="38.3284970" lon="-0.6472490">
        <ele>228.0</ele>
        <time>2018-03-05T13:52:25Z</time>
      </trkpt>
      <trkpt lat="38.3285500" lon="-0.6472540">
        <ele>228.0</ele>
        <time>2018-03-05T13:52:26Z</time>
      </trkpt>
      <trkpt lat="38.3286090" lon="-0.6472560">
        <ele>227.0</ele>
        <time>2018-03-05T13:52:27Z</time>
      </trkpt>
      <trkpt lat="38.3286680" lon="-0.6472650">
        <ele>227.0</ele>
        <time>2018-03-05T13:52:28Z</time>
      </trkpt>
      <trkpt lat="38.3287280" lon="-0.6472770">
        <ele>227.0</ele>
        <time>2018-03-05T13:52:29Z</time>
      </trkpt>
      <trkpt lat="38.3287880" lon="-0.6472880">
        <ele>227.0</ele>
        <time>2018-03-05T13:52:30Z</time>
      </trkpt>
      <trkpt lat="38.3288440" lon="-0.6473030">
        <ele>228.0</ele>
        <time>2018-03-05T13:52:31Z</time>
      </trkpt>
      <trkpt lat="38.3288910" lon="-0.6473390">
        <ele>228.0</ele>
        <time>2018-03-05T13:52:32Z</time>
      </trkpt>
      <trkpt lat="38.3289070" lon="-0.6473860">
        <ele>226.0</ele>
        <time>2018-03-05T13:52:33Z</time>
      </trkpt>
      <trkpt lat="38.3289170" lon="-0.6474420">
        <ele>225.0</ele>
        <time>2018-03-05T13:52:34Z</time>
      </trkpt>
      <trkpt lat="38.3289290" lon="-0.6475100">
        <ele>223.0</ele>
        <time>2018-03-05T13:52:35Z</time>
      </trkpt>
      <trkpt lat="38.3289440" lon="-0.6476000">
        <ele>222.0</ele>
        <time>2018-03-05T13:52:36Z</time>
      </trkpt>
      <trkpt lat="38.3289570" lon="-0.6476950">
        <ele>221.0</ele>
        <time>2018-03-05T13:52:37Z</time>
      </trkpt>
      <trkpt lat="38.3289790" lon="-0.6477930">
        <ele>219.0</ele>
        <time>2018-03-05T13:52:38Z</time>
      </trkpt>
      <trkpt lat="38.3290160" lon="-0.6478910">
        <ele>218.0</ele>
        <time>2018-03-05T13:52:39Z</time>
      </trkpt>
      <trkpt lat="38.3290540" lon="-0.6479900">
        <ele>217.0</ele>
        <time>2018-03-05T13:52:40Z</time>
      </trkpt>
      <trkpt lat="38.3290920" lon="-0.6480930">
        <ele>216.0</ele>
        <time>2018-03-05T13:52:41Z</time>
      </trkpt>
      <trkpt lat="38.3291270" lon="-0.6481970">
        <ele>215.0</ele>
        <time>2018-03-05T13:52:42Z</time>
      </trkpt>
      <trkpt lat="38.3291560" lon="-0.6482910">
        <ele>214.0</ele>
        <time>2018-03-05T13:52:43Z</time>
      </trkpt>
      <trkpt lat="38.3291720" lon="-0.6483700">
        <ele>213.0</ele>
        <time>2018-03-05T13:52:44Z</time>
      </trkpt>
      <trkpt lat="38.3291760" lon="-0.6484380">
        <ele>213.0</ele>
        <time>2018-03-05T13:52:45Z</time>
      </trkpt>
      <trkpt lat="38.3291620" lon="-0.6484860">
        <ele>213.0</ele>
        <time>2018-03-05T13:52:46Z</time>
      </trkpt>
      <trkpt lat="38.3291430" lon="-0.6485280">
        <ele>213.0</ele>
        <time>2018-03-05T13:52:47Z</time>
      </trkpt>
      <trkpt lat="38.3291140" lon="-0.6485730">
        <ele>213.0</ele>
        <time>2018-03-05T13:52:48Z</time>
      </trkpt>
      <trkpt lat="38.3290780" lon="-0.6486190">
        <ele>213.0</ele>
        <time>2018-03-05T13:52:49Z</time>
      </trkpt>
      <trkpt lat="38.3290390" lon="-0.6486660">
        <ele>212.0</ele>
        <time>2018-03-05T13:52:50Z</time>
      </trkpt>
      <trkpt lat="38.3289990" lon="-0.6487270">
        <ele>211.0</ele>
        <time>2018-03-05T13:52:51Z</time>
      </trkpt>
      <trkpt lat="38.3289590" lon="-0.6487910">
        <ele>211.0</ele>
        <time>2018-03-05T13:52:52Z</time>
      </trkpt>
      <trkpt lat="38.3289130" lon="-0.6488590">
        <ele>210.0</ele>
        <time>2018-03-05T13:52:53Z</time>
      </trkpt>
      <trkpt lat="38.3288670" lon="-0.6489350">
        <ele>210.0</ele>
        <time>2018-03-05T13:52:54Z</time>
      </trkpt>
      <trkpt lat="38.3288230" lon="-0.6490190">
        <ele>210.0</ele>
        <time>2018-03-05T13:52:55Z</time>
      </trkpt>
      <trkpt lat="38.3287790" lon="-0.6491070">
        <ele>210.0</ele>
        <time>2018-03-05T13:52:56Z</time>
      </trkpt>
      <trkpt lat="38.3287440" lon="-0.6491950">
        <ele>209.0</ele>
        <time>2018-03-05T13:52:57Z</time>
      </trkpt>
      <trkpt lat="38.3287020" lon="-0.6492820">
        <ele>208.0</ele>
        <time>2018-03-05T13:52:58Z</time>
      </trkpt>
      <trkpt lat="38.3286550" lon="-0.6493670">
        <ele>207.0</ele>
        <time>2018-03-05T13:52:59Z</time>
      </trkpt>
      <trkpt lat="38.3286070" lon="-0.6494530">
        <ele>206.0</ele>
        <time>2018-03-05T13:53:00Z</time>
      </trkpt>
      <trkpt lat="38.3285570" lon="-0.6495400">
        <ele>206.0</ele>
        <time>2018-03-05T13:53:01Z</time>
      </trkpt>
      <trkpt lat="38.3285130" lon="-0.6496300">
        <ele>205.0</ele>
        <time>2018-03-05T13:53:02Z</time>
      </trkpt>
      <trkpt lat="38.3284710" lon="-0.6497270">
        <ele>204.0</ele>
        <time>2018-03-05T13:53:03Z</time>
      </trkpt>
      <trkpt lat="38.3284170" lon="-0.6498190">
        <ele>203.0</ele>
        <time>2018-03-05T13:53:04Z</time>
      </trkpt>
      <trkpt lat="38.3283630" lon="-0.6499090">
        <ele>202.0</ele>
        <time>2018-03-05T13:53:05Z</time>
      </trkpt>
      <trkpt lat="38.3283090" lon="-0.6500080">
        <ele>202.0</ele>
        <time>2018-03-05T13:53:06Z</time>
      </trkpt>
      <trkpt lat="38.3282550" lon="-0.6501060">
        <ele>201.0</ele>
        <time>2018-03-05T13:53:07Z</time>
      </trkpt>
      <trkpt lat="38.3282020" lon="-0.6502020">
        <ele>200.0</ele>
        <time>2018-03-05T13:53:08Z</time>
      </trkpt>
      <trkpt lat="38.3281540" lon="-0.6502930">
        <ele>199.0</ele>
        <time>2018-03-05T13:53:09Z</time>
      </trkpt>
      <trkpt lat="38.3281130" lon="-0.6503920">
        <ele>199.0</ele>
        <time>2018-03-05T13:53:10Z</time>
      </trkpt>
      <trkpt lat="38.3280770" lon="-0.6504980">
        <ele>199.0</ele>
        <time>2018-03-05T13:53:11Z</time>
      </trkpt>
      <trkpt lat="38.3280590" lon="-0.6506000">
        <ele>199.0</ele>
        <time>2018-03-05T13:53:12Z</time>
      </trkpt>
      <trkpt lat="38.3280390" lon="-0.6506970">
        <ele>199.0</ele>
        <time>2018-03-05T13:53:13Z</time>
      </trkpt>
      <trkpt lat="38.3280200" lon="-0.6507940">
        <ele>198.0</ele>
        <time>2018-03-05T13:53:14Z</time>
      </trkpt>
      <trkpt lat="38.3280080" lon="-0.6508930">
        <ele>198.0</ele>
        <time>2018-03-05T13:53:15Z</time>
      </trkpt>
      <trkpt lat="38.3280340" lon="-0.6509780">
        <ele>197.0</ele>
        <time>2018-03-05T13:53:16Z</time>
      </trkpt>
      <trkpt lat="38.3280510" lon="-0.6510720">
        <ele>197.0</ele>
        <time>2018-03-05T13:53:17Z</time>
      </trkpt>
      <trkpt lat="38.3280660" lon="-0.6511730">
        <ele>197.0</ele>
        <time>2018-03-05T13:53:18Z</time>
      </trkpt>
      <trkpt lat="38.3280850" lon="-0.6512730">
        <ele>196.0</ele>
        <time>2018-03-05T13:53:19Z</time>
      </trkpt>
      <trkpt lat="38.3281090" lon="-0.6513690">
        <ele>196.0</ele>
        <time>2018-03-05T13:53:20Z</time>
      </trkpt>
      <trkpt lat="38.3281360" lon="-0.6514620">
        <ele>195.0</ele>
        <time>2018-03-05T13:53:21Z</time>
      </trkpt>
      <trkpt lat="38.3281410" lon="-0.6515540">
        <ele>194.0</ele>
        <time>2018-03-05T13:53:22Z</time>
      </trkpt>
      <trkpt lat="38.3281140" lon="-0.6516280">
        <ele>194.0</ele>
        <time>2018-03-05T13:53:23Z</time>
      </trkpt>
      <trkpt lat="38.3280770" lon="-0.6516840">
        <ele>195.0</ele>
        <time>2018-03-05T13:53:24Z</time>
      </trkpt>
      <trkpt lat="38.3280330" lon="-0.6517420">
        <ele>195.0</ele>
        <time>2018-03-05T13:53:25Z</time>
      </trkpt>
      <trkpt lat="38.3279870" lon="-0.6518010">
        <ele>195.0</ele>
        <time>2018-03-05T13:53:26Z</time>
      </trkpt>
      <trkpt lat="38.3279390" lon="-0.6518660">
        <ele>195.0</ele>
        <time>2018-03-05T13:53:27Z</time>
      </trkpt>
      <trkpt lat="38.3278930" lon="-0.6519320">
        <ele>195.0</ele>
        <time>2018-03-05T13:53:28Z</time>
      </trkpt>
      <trkpt lat="38.3278510" lon="-0.6520000">
        <ele>195.0</ele>
        <time>2018-03-05T13:53:29Z</time>
      </trkpt>
      <trkpt lat="38.3278120" lon="-0.6520720">
        <ele>195.0</ele>
        <time>2018-03-05T13:53:30Z</time>
      </trkpt>
      <trkpt lat="38.3277720" lon="-0.6521390">
        <ele>194.0</ele>
        <time>2018-03-05T13:53:31Z</time>
      </trkpt>
      <trkpt lat="38.3277210" lon="-0.6521940">
        <ele>194.0</ele>
        <time>2018-03-05T13:53:32Z</time>
      </trkpt>
      <trkpt lat="38.3276620" lon="-0.6522340">
        <ele>193.0</ele>
        <time>2018-03-05T13:53:33Z</time>
      </trkpt>
      <trkpt lat="38.3276020" lon="-0.6522740">
        <ele>193.0</ele>
        <time>2018-03-05T13:53:34Z</time>
      </trkpt>
      <trkpt lat="38.3275470" lon="-0.6523150">
        <ele>193.0</ele>
        <time>2018-03-05T13:53:35Z</time>
      </trkpt>
      <trkpt lat="38.3274890" lon="-0.6523540">
        <ele>192.0</ele>
        <time>2018-03-05T13:53:36Z</time>
      </trkpt>
      <trkpt lat="38.3274300" lon="-0.6523860">
        <ele>192.0</ele>
        <time>2018-03-05T13:53:37Z</time>
      </trkpt>
      <trkpt lat="38.3273710" lon="-0.6524190">
        <ele>191.0</ele>
        <time>2018-03-05T13:53:38Z</time>
      </trkpt>
      <trkpt lat="38.3273090" lon="-0.6524510">
        <ele>191.0</ele>
        <time>2018-03-05T13:53:39Z</time>
      </trkpt>
      <trkpt lat="38.3272460" lon="-0.6524840">
        <ele>190.0</ele>
        <time>2018-03-05T13:53:40Z</time>
      </trkpt>
      <trkpt lat="38.3271800" lon="-0.6525140">
        <ele>190.0</ele>
        <time>2018-03-05T13:53:41Z</time>
      </trkpt>
      <trkpt lat="38.3271090" lon="-0.6525480">
        <ele>189.0</ele>
        <time>2018-03-05T13:53:42Z</time>
      </trkpt>
      <trkpt lat="38.3270370" lon="-0.6525780">
        <ele>189.0</ele>
        <time>2018-03-05T13:53:43Z</time>
      </trkpt>
      <trkpt lat="38.3269650" lon="-0.6526080">
        <ele>188.0</ele>
        <time>2018-03-05T13:53:44Z</time>
      </trkpt>
      <trkpt lat="38.3268900" lon="-0.6526350">
        <ele>188.0</ele>
        <time>2018-03-05T13:53:45Z</time>
      </trkpt>
      <trkpt lat="38.3268160" lon="-0.6526570">
        <ele>188.0</ele>
        <time>2018-03-05T13:53:46Z</time>
      </trkpt>
      <trkpt lat="38.3267420" lon="-0.6526750">
        <ele>187.0</ele>
        <time>2018-03-05T13:53:47Z</time>
      </trkpt>
      <trkpt lat="38.3266680" lon="-0.6526910">
        <ele>187.0</ele>
        <time>2018-03-05T13:53:48Z</time>
      </trkpt>
      <trkpt lat="38.3265950" lon="-0.6527080">
        <ele>187.0</ele>
        <time>2018-03-05T13:53:49Z</time>
      </trkpt>
      <trkpt lat="38.3265280" lon="-0.6527290">
        <ele>187.0</ele>
        <time>2018-03-05T13:53:50Z</time>
      </trkpt>
      <trkpt lat="38.3264740" lon="-0.6527640">
        <ele>186.0</ele>
        <time>2018-03-05T13:53:51Z</time>
      </trkpt>
      <trkpt lat="38.3264350" lon="-0.6528280">
        <ele>186.0</ele>
        <time>2018-03-05T13:53:52Z</time>
      </trkpt>
      <trkpt lat="38.3264160" lon="-0.6528940">
        <ele>186.0</ele>
        <time>2018-03-05T13:53:53Z</time>
      </trkpt>
      <trkpt lat="38.3264090" lon="-0.6529670">
        <ele>186.0</ele>
        <time>2018-03-05T13:53:54Z</time>
      </trkpt>
      <trkpt lat="38.3264010" lon="-0.6530450">
        <ele>186.0</ele>
        <time>2018-03-05T13:53:55Z</time>
      </trkpt>
      <trkpt lat="38.3263930" lon="-0.6531270">
        <ele>186.0</ele>
        <time>2018-03-05T13:53:56Z</time>
      </trkpt>
      <trkpt lat="38.3263860" lon="-0.6532070">
        <ele>186.0</ele>
        <time>2018-03-05T13:53:57Z</time>
      </trkpt>
      <trkpt lat="38.3263830" lon="-0.6532900">
        <ele>186.0</ele>
        <time>2018-03-05T13:53:58Z</time>
      </trkpt>
      <trkpt lat="38.3263810" lon="-0.6533730">
        <ele>186.0</ele>
        <time>2018-03-05T13:53:59Z</time>
      </trkpt>
      <trkpt lat="38.3263760" lon="-0.6534600">
        <ele>186.0</ele>
        <time>2018-03-05T13:54:00Z</time>
      </trkpt>
      <trkpt lat="38.3263710" lon="-0.6535460">
        <ele>186.0</ele>
        <time>2018-03-05T13:54:01Z</time>
      </trkpt>
      <trkpt lat="38.3263670" lon="-0.6536330">
        <ele>186.0</ele>
        <time>2018-03-05T13:54:02Z</time>
      </trkpt>
      <trkpt lat="38.3263630" lon="-0.6537250">
        <ele>186.0</ele>
        <time>2018-03-05T13:54:03Z</time>
      </trkpt>
      <trkpt lat="38.3263590" lon="-0.6538160">
        <ele>185.0</ele>
        <time>2018-03-05T13:54:04Z</time>
      </trkpt>
      <trkpt lat="38.3263450" lon="-0.6539080">
        <ele>185.0</ele>
        <time>2018-03-05T13:54:05Z</time>
      </trkpt>
      <trkpt lat="38.3263180" lon="-0.6539970">
        <ele>184.0</ele>
        <time>2018-03-05T13:54:06Z</time>
      </trkpt>
      <trkpt lat="38.3262800" lon="-0.6540810">
        <ele>184.0</ele>
        <time>2018-03-05T13:54:07Z</time>
      </trkpt>
      <trkpt lat="38.3262330" lon="-0.6541590">
        <ele>183.0</ele>
        <time>2018-03-05T13:54:08Z</time>
      </trkpt>
      <trkpt lat="38.3261810" lon="-0.6542340">
        <ele>183.0</ele>
        <time>2018-03-05T13:54:09Z</time>
      </trkpt>
      <trkpt lat="38.3261290" lon="-0.6543080">
        <ele>183.0</ele>
        <time>2018-03-05T13:54:10Z</time>
      </trkpt>
      <trkpt lat="38.3260750" lon="-0.6543800">
        <ele>183.0</ele>
        <time>2018-03-05T13:54:11Z</time>
      </trkpt>
      <trkpt lat="38.3260220" lon="-0.6544520">
        <ele>182.0</ele>
        <time>2018-03-05T13:54:12Z</time>
      </trkpt>
      <trkpt lat="38.3259700" lon="-0.6545280">
        <ele>182.0</ele>
        <time>2018-03-05T13:54:13Z</time>
      </trkpt>
      <trkpt lat="38.3259180" lon="-0.6546040">
        <ele>181.0</ele>
        <time>2018-03-05T13:54:14Z</time>
      </trkpt>
      <trkpt lat="38.3258700" lon="-0.6546860">
        <ele>181.0</ele>
        <time>2018-03-05T13:54:15Z</time>
      </trkpt>
      <trkpt lat="38.3258270" lon="-0.6547710">
        <ele>181.0</ele>
        <time>2018-03-05T13:54:16Z</time>
      </trkpt>
      <trkpt lat="38.3257870" lon="-0.6548550">
        <ele>180.0</ele>
        <time>2018-03-05T13:54:17Z</time>
      </trkpt>
      <trkpt lat="38.3257460" lon="-0.6549370">
        <ele>180.0</ele>
        <time>2018-03-05T13:54:18Z</time>
      </trkpt>
      <trkpt lat="38.3257050" lon="-0.6549980">
        <ele>179.0</ele>
        <time>2018-03-05T13:54:19Z</time>
      </trkpt>
      <trkpt lat="38.3256520" lon="-0.6550300">
        <ele>178.0</ele>
        <time>2018-03-05T13:54:20Z</time>
      </trkpt>
      <trkpt lat="38.3255860" lon="-0.6550500">
        <ele>178.0</ele>
        <time>2018-03-05T13:54:21Z</time>
      </trkpt>
      <trkpt lat="38.3255180" lon="-0.6550600">
        <ele>178.0</ele>
        <time>2018-03-05T13:54:22Z</time>
      </trkpt>
      <trkpt lat="38.3254460" lon="-0.6550690">
        <ele>178.0</ele>
        <time>2018-03-05T13:54:23Z</time>
      </trkpt>
      <trkpt lat="38.3253740" lon="-0.6550820">
        <ele>177.0</ele>
        <time>2018-03-05T13:54:24Z</time>
      </trkpt>
      <trkpt lat="38.3253010" lon="-0.6551010">
        <ele>177.0</ele>
        <time>2018-03-05T13:54:25Z</time>
      </trkpt>
      <trkpt lat="38.3252270" lon="-0.6551250">
        <ele>177.0</ele>
        <time>2018-03-05T13:54:26Z</time>
      </trkpt>
      <trkpt lat="38.3251540" lon="-0.6551520">
        <ele>177.0</ele>
        <time>2018-03-05T13:54:27Z</time>
      </trkpt>
      <trkpt lat="38.3250800" lon="-0.6551810">
        <ele>177.0</ele>
        <time>2018-03-05T13:54:28Z</time>
      </trkpt>
      <trkpt lat="38.3250080" lon="-0.6552140">
        <ele>177.0</ele>
        <time>2018-03-05T13:54:29Z</time>
      </trkpt>
      <trkpt lat="38.3249350" lon="-0.6552460">
        <ele>176.0</ele>
        <time>2018-03-05T13:54:30Z</time>
      </trkpt>
      <trkpt lat="38.3248630" lon="-0.6552780">
        <ele>176.0</ele>
        <time>2018-03-05T13:54:31Z</time>
      </trkpt>
      <trkpt lat="38.3247910" lon="-0.6553060">
        <ele>177.0</ele>
        <time>2018-03-05T13:54:32Z</time>
      </trkpt>
      <trkpt lat="38.3247190" lon="-0.6553290">
        <ele>177.0</ele>
        <time>2018-03-05T13:54:33Z</time>
      </trkpt>
      <trkpt lat="38.3246460" lon="-0.6553500">
        <ele>176.0</ele>
        <time>2018-03-05T13:54:34Z</time>
      </trkpt>
      <trkpt lat="38.3245690" lon="-0.6553720">
        <ele>176.0</ele>
        <time>2018-03-05T13:54:35Z</time>
      </trkpt>
      <trkpt lat="38.3244900" lon="-0.6553970">
        <ele>175.0</ele>
        <time>2018-03-05T13:54:36Z</time>
      </trkpt>
      <trkpt lat="38.3244080" lon="-0.6554210">
        <ele>175.0</ele>
        <time>2018-03-05T13:54:37Z</time>
      </trkpt>
      <trkpt lat="38.3243260" lon="-0.6554450">
        <ele>175.0</ele>
        <time>2018-03-05T13:54:38Z</time>
      </trkpt>
      <trkpt lat="38.3242430" lon="-0.6554640">
        <ele>175.0</ele>
        <time>2018-03-05T13:54:39Z</time>
      </trkpt>
      <trkpt lat="38.3241590" lon="-0.6554600">
        <ele>175.0</ele>
        <time>2018-03-05T13:54:40Z</time>
      </trkpt>
      <trkpt lat="38.3240780" lon="-0.6554490">
        <ele>175.0</ele>
        <time>2018-03-05T13:54:41Z</time>
      </trkpt>
      <trkpt lat="38.3240060" lon="-0.6554070">
        <ele>175.0</ele>
        <time>2018-03-05T13:54:42Z</time>
      </trkpt>
      <trkpt lat="38.3239360" lon="-0.6553560">
        <ele>174.0</ele>
        <time>2018-03-05T13:54:43Z</time>
      </trkpt>
      <trkpt lat="38.3238600" lon="-0.6553010">
        <ele>175.0</ele>
        <time>2018-03-05T13:54:44Z</time>
      </trkpt>
      <trkpt lat="38.3237880" lon="-0.6552340">
        <ele>175.0</ele>
        <time>2018-03-05T13:54:45Z</time>
      </trkpt>
      <trkpt lat="38.3237190" lon="-0.6551680">
        <ele>175.0</ele>
        <time>2018-03-05T13:54:46Z</time>
      </trkpt>
      <trkpt lat="38.3236500" lon="-0.6551020">
        <ele>175.0</ele>
        <time>2018-03-05T13:54:47Z</time>
      </trkpt>
      <trkpt lat="38.3235820" lon="-0.6550380">
        <ele>175.0</ele>
        <time>2018-03-05T13:54:48Z</time>
      </trkpt>
      <trkpt lat="38.3235140" lon="-0.6549760">
        <ele>175.0</ele>
        <time>2018-03-05T13:54:49Z</time>
      </trkpt>
      <trkpt lat="38.3234440" lon="-0.6549200">
        <ele>175.0</ele>
        <time>2018-03-05T13:54:50Z</time>
      </trkpt>
      <trkpt lat="38.3233720" lon="-0.6548740">
        <ele>175.0</ele>
        <time>2018-03-05T13:54:51Z</time>
      </trkpt>
      <trkpt lat="38.3232990" lon="-0.6548380">
        <ele>175.0</ele>
        <time>2018-03-05T13:54:52Z</time>
      </trkpt>
      <trkpt lat="38.3232260" lon="-0.6548120">
        <ele>175.0</ele>
        <time>2018-03-05T13:54:53Z</time>
      </trkpt>
      <trkpt lat="38.3231520" lon="-0.6547900">
        <ele>175.0</ele>
        <time>2018-03-05T13:54:54Z</time>
      </trkpt>
      <trkpt lat="38.3230740" lon="-0.6547760">
        <ele>174.0</ele>
        <time>2018-03-05T13:54:55Z</time>
      </trkpt>
      <trkpt lat="38.3229920" lon="-0.6547680">
        <ele>174.0</ele>
        <time>2018-03-05T13:54:56Z</time>
      </trkpt>
      <trkpt lat="38.3229080" lon="-0.6547690">
        <ele>174.0</ele>
        <time>2018-03-05T13:54:57Z</time>
      </trkpt>
      <trkpt lat="38.3228280" lon="-0.6547810">
        <ele>173.0</ele>
        <time>2018-03-05T13:54:58Z</time>
      </trkpt>
      <trkpt lat="38.3227490" lon="-0.6548020">
        <ele>173.0</ele>
        <time>2018-03-05T13:54:59Z</time>
      </trkpt>
      <trkpt lat="38.3226710" lon="-0.6548220">
        <ele>173.0</ele>
        <time>2018-03-05T13:55:00Z</time>
      </trkpt>
      <trkpt lat="38.3225920" lon="-0.6548410">
        <ele>173.0</ele>
        <time>2018-03-05T13:55:01Z</time>
      </trkpt>
      <trkpt lat="38.3225150" lon="-0.6548560">
        <ele>173.0</ele>
        <time>2018-03-05T13:55:02Z</time>
      </trkpt>
      <trkpt lat="38.3224380" lon="-0.6548680">
        <ele>172.0</ele>
        <time>2018-03-05T13:55:03Z</time>
      </trkpt>
      <trkpt lat="38.3223620" lon="-0.6548760">
        <ele>172.0</ele>
        <time>2018-03-05T13:55:04Z</time>
      </trkpt>
      <trkpt lat="38.3222840" lon="-0.6548930">
        <ele>171.0</ele>
        <time>2018-03-05T13:55:05Z</time>
      </trkpt>
      <trkpt lat="38.3222040" lon="-0.6549130">
        <ele>171.0</ele>
        <time>2018-03-05T13:55:06Z</time>
      </trkpt>
      <trkpt lat="38.3221230" lon="-0.6549290">
        <ele>171.0</ele>
        <time>2018-03-05T13:55:07Z</time>
      </trkpt>
      <trkpt lat="38.3220430" lon="-0.6549410">
        <ele>171.0</ele>
        <time>2018-03-05T13:55:08Z</time>
      </trkpt>
      <trkpt lat="38.3219640" lon="-0.6549470">
        <ele>170.0</ele>
        <time>2018-03-05T13:55:09Z</time>
      </trkpt>
      <trkpt lat="38.3218860" lon="-0.6549470">
        <ele>170.0</ele>
        <time>2018-03-05T13:55:10Z</time>
      </trkpt>
      <trkpt lat="38.3218070" lon="-0.6549500">
        <ele>170.0</ele>
        <time>2018-03-05T13:55:11Z</time>
      </trkpt>
      <trkpt lat="38.3217290" lon="-0.6549550">
        <ele>169.0</ele>
        <time>2018-03-05T13:55:12Z</time>
      </trkpt>
      <trkpt lat="38.3216500" lon="-0.6549630">
        <ele>169.0</ele>
        <time>2018-03-05T13:55:13Z</time>
      </trkpt>
      <trkpt lat="38.3215720" lon="-0.6549730">
        <ele>169.0</ele>
        <time>2018-03-05T13:55:14Z</time>
      </trkpt>
      <trkpt lat="38.3214960" lon="-0.6549890">
        <ele>168.0</ele>
        <time>2018-03-05T13:55:15Z</time>
      </trkpt>
      <trkpt lat="38.3214200" lon="-0.6550160">
        <ele>167.0</ele>
        <time>2018-03-05T13:55:16Z</time>
      </trkpt>
      <trkpt lat="38.3213400" lon="-0.6550500">
        <ele>167.0</ele>
        <time>2018-03-05T13:55:17Z</time>
      </trkpt>
      <trkpt lat="38.3212610" lon="-0.6550820">
        <ele>167.0</ele>
        <time>2018-03-05T13:55:18Z</time>
      </trkpt>
      <trkpt lat="38.3211800" lon="-0.6551110">
        <ele>166.0</ele>
        <time>2018-03-05T13:55:19Z</time>
      </trkpt>
      <trkpt lat="38.3210980" lon="-0.6551380">
        <ele>166.0</ele>
        <time>2018-03-05T13:55:20Z</time>
      </trkpt>
      <trkpt lat="38.3210170" lon="-0.6551640">
        <ele>166.0</ele>
        <time>2018-03-05T13:55:21Z</time>
      </trkpt>
      <trkpt lat="38.3209360" lon="-0.6551890">
        <ele>165.0</ele>
        <time>2018-03-05T13:55:22Z</time>
      </trkpt>
      <trkpt lat="38.3208560" lon="-0.6552110">
        <ele>165.0</ele>
        <time>2018-03-05T13:55:23Z</time>
      </trkpt>
      <trkpt lat="38.3207770" lon="-0.6552330">
        <ele>165.0</ele>
        <time>2018-03-05T13:55:24Z</time>
      </trkpt>
      <trkpt lat="38.3206990" lon="-0.6552530">
        <ele>165.0</ele>
        <time>2018-03-05T13:55:25Z</time>
      </trkpt>
      <trkpt lat="38.3206180" lon="-0.6552730">
        <ele>164.0</ele>
        <time>2018-03-05T13:55:26Z</time>
      </trkpt>
      <trkpt lat="38.3205370" lon="-0.6553000">
        <ele>163.0</ele>
        <time>2018-03-05T13:55:27Z</time>
      </trkpt>
      <trkpt lat="38.3204560" lon="-0.6553330">
        <ele>163.0</ele>
        <time>2018-03-05T13:55:28Z</time>
      </trkpt>
      <trkpt lat="38.3203750" lon="-0.6553710">
        <ele>163.0</ele>
        <time>2018-03-05T13:55:29Z</time>
      </trkpt>
      <trkpt lat="38.3202970" lon="-0.6554090">
        <ele>163.0</ele>
        <time>2018-03-05T13:55:30Z</time>
      </trkpt>
      <trkpt lat="38.3202230" lon="-0.6554510">
        <ele>163.0</ele>
        <time>2018-03-05T13:55:31Z</time>
      </trkpt>
      <trkpt lat="38.3201500" lon="-0.6554950">
        <ele>162.0</ele>
        <time>2018-03-05T13:55:32Z</time>
      </trkpt>
      <trkpt lat="38.3200790" lon="-0.6555400">
        <ele>162.0</ele>
        <time>2018-03-05T13:55:33Z</time>
      </trkpt>
      <trkpt lat="38.3200080" lon="-0.6555860">
        <ele>162.0</ele>
        <time>2018-03-05T13:55:34Z</time>
      </trkpt>
      <trkpt lat="38.3199380" lon="-0.6556340">
        <ele>161.0</ele>
        <time>2018-03-05T13:55:35Z</time>
      </trkpt>
      <trkpt lat="38.3198690" lon="-0.6556810">
        <ele>161.0</ele>
        <time>2018-03-05T13:55:36Z</time>
      </trkpt>
      <trkpt lat="38.3197990" lon="-0.6557310">
        <ele>161.0</ele>
        <time>2018-03-05T13:55:37Z</time>
      </trkpt>
      <trkpt lat="38.3197310" lon="-0.6557790">
        <ele>161.0</ele>
        <time>2018-03-05T13:55:38Z</time>
      </trkpt>
      <trkpt lat="38.3196610" lon="-0.6558270">
        <ele>160.0</ele>
        <time>2018-03-05T13:55:39Z</time>
      </trkpt>
      <trkpt lat="38.3195890" lon="-0.6558770">
        <ele>160.0</ele>
        <time>2018-03-05T13:55:40Z</time>
      </trkpt>
      <trkpt lat="38.3195150" lon="-0.6559230">
        <ele>160.0</ele>
        <time>2018-03-05T13:55:41Z</time>
      </trkpt>
      <trkpt lat="38.3194370" lon="-0.6559570">
        <ele>160.0</ele>
        <time>2018-03-05T13:55:42Z</time>
      </trkpt>
      <trkpt lat="38.3193560" lon="-0.6559740">
        <ele>159.0</ele>
        <time>2018-03-05T13:55:43Z</time>
      </trkpt>
      <trkpt lat="38.3192760" lon="-0.6559780">
        <ele>159.0</ele>
        <time>2018-03-05T13:55:44Z</time>
      </trkpt>
      <trkpt lat="38.3191950" lon="-0.6559720">
        <ele>159.0</ele>
        <time>2018-03-05T13:55:45Z</time>
      </trkpt>
      <trkpt lat="38.3191130" lon="-0.6559610">
        <ele>159.0</ele>
        <time>2018-03-05T13:55:46Z</time>
      </trkpt>
      <trkpt lat="38.3190300" lon="-0.6559520">
        <ele>159.0</ele>
        <time>2018-03-05T13:55:47Z</time>
      </trkpt>
      <trkpt lat="38.3189480" lon="-0.6559440">
        <ele>158.0</ele>
        <time>2018-03-05T13:55:48Z</time>
      </trkpt>
      <trkpt lat="38.3188650" lon="-0.6559350">
        <ele>158.0</ele>
        <time>2018-03-05T13:55:49Z</time>
      </trkpt>
      <trkpt lat="38.3187830" lon="-0.6559270">
        <ele>158.0</ele>
        <time>2018-03-05T13:55:50Z</time>
      </trkpt>
      <trkpt lat="38.3186980" lon="-0.6559210">
        <ele>158.0</ele>
        <time>2018-03-05T13:55:51Z</time>
      </trkpt>
      <trkpt lat="38.3186110" lon="-0.6559180">
        <ele>157.0</ele>
        <time>2018-03-05T13:55:52Z</time>
      </trkpt>
      <trkpt lat="38.3185240" lon="-0.6559190">
        <ele>157.0</ele>
        <time>2018-03-05T13:55:53Z</time>
      </trkpt>
      <trkpt lat="38.3184360" lon="-0.6559230">
        <ele>156.0</ele>
        <time>2018-03-05T13:55:54Z</time>
      </trkpt>
      <trkpt lat="38.3183490" lon="-0.6559320">
        <ele>156.0</ele>
        <time>2018-03-05T13:55:55Z</time>
      </trkpt>
      <trkpt lat="38.3182580" lon="-0.6559620">
        <ele>155.0</ele>
        <time>2018-03-05T13:55:56Z</time>
      </trkpt>
      <trkpt lat="38.3181720" lon="-0.6560010">
        <ele>155.0</ele>
        <time>2018-03-05T13:55:57Z</time>
      </trkpt>
      <trkpt lat="38.3180860" lon="-0.6560460">
        <ele>154.0</ele>
        <time>2018-03-05T13:55:58Z</time>
      </trkpt>
      <trkpt lat="38.3180050" lon="-0.6561050">
        <ele>154.0</ele>
        <time>2018-03-05T13:55:59Z</time>
      </trkpt>
      <trkpt lat="38.3179350" lon="-0.6561800">
        <ele>154.0</ele>
        <time>2018-03-05T13:56:00Z</time>
      </trkpt>
      <trkpt lat="38.3178880" lon="-0.6562700">
        <ele>155.0</ele>
        <time>2018-03-05T13:56:01Z</time>
      </trkpt>
      <trkpt lat="38.3178700" lon="-0.6563570">
        <ele>156.0</ele>
        <time>2018-03-05T13:56:02Z</time>
      </trkpt>
      <trkpt lat="38.3179030" lon="-0.6564070">
        <ele>154.0</ele>
        <time>2018-03-05T13:56:03Z</time>
      </trkpt>
      <trkpt lat="38.3179380" lon="-0.6564650">
        <ele>154.0</ele>
        <time>2018-03-05T13:56:04Z</time>
      </trkpt>
      <trkpt lat="38.3179850" lon="-0.6565140">
        <ele>154.0</ele>
        <time>2018-03-05T13:56:05Z</time>
      </trkpt>
      <trkpt lat="38.3180290" lon="-0.6565650">
        <ele>154.0</ele>
        <time>2018-03-05T13:56:06Z</time>
      </trkpt>
      <trkpt lat="38.3180740" lon="-0.6566210">
        <ele>154.0</ele>
        <time>2018-03-05T13:56:07Z</time>
      </trkpt>
      <trkpt lat="38.3181190" lon="-0.6566740">
        <ele>155.0</ele>
        <time>2018-03-05T13:56:08Z</time>
      </trkpt>
      <trkpt lat="38.3181640" lon="-0.6567270">
        <ele>155.0</ele>
        <time>2018-03-05T13:56:09Z</time>
      </trkpt>
      <trkpt lat="38.3182090" lon="-0.6567790">
        <ele>155.0</ele>
        <time>2018-03-05T13:56:10Z</time>
      </trkpt>
      <trkpt lat="38.3182560" lon="-0.6568290">
        <ele>155.0</ele>
        <time>2018-03-05T13:56:11Z</time>
      </trkpt>
      <trkpt lat="38.3183030" lon="-0.6568770">
        <ele>156.0</ele>
        <time>2018-03-05T13:56:12Z</time>
      </trkpt>
      <trkpt lat="38.3183520" lon="-0.6569240">
        <ele>156.0</ele>
        <time>2018-03-05T13:56:13Z</time>
      </trkpt>
      <trkpt lat="38.3184020" lon="-0.6569700">
        <ele>156.0</ele>
        <time>2018-03-05T13:56:14Z</time>
      </trkpt>
      <trkpt lat="38.3184510" lon="-0.6570150">
        <ele>156.0</ele>
        <time>2018-03-05T13:56:15Z</time>
      </trkpt>
      <trkpt lat="38.3185010" lon="-0.6570600">
        <ele>157.0</ele>
        <time>2018-03-05T13:56:16Z</time>
      </trkpt>
      <trkpt lat="38.3185510" lon="-0.6571050">
        <ele>157.0</ele>
        <time>2018-03-05T13:56:17Z</time>
      </trkpt>
      <trkpt lat="38.3186080" lon="-0.6571390">
        <ele>157.0</ele>
        <time>2018-03-05T13:56:18Z</time>
      </trkpt>
      <trkpt lat="38.3186680" lon="-0.6571570">
        <ele>157.0</ele>
        <time>2018-03-05T13:56:19Z</time>
      </trkpt>
      <trkpt lat="38.3187310" lon="-0.6571670">
        <ele>156.0</ele>
        <time>2018-03-05T13:56:20Z</time>
      </trkpt>
      <trkpt lat="38.3187990" lon="-0.6571810">
        <ele>156.0</ele>
        <time>2018-03-05T13:56:21Z</time>
      </trkpt>
      <trkpt lat="38.3188710" lon="-0.6571980">
        <ele>156.0</ele>
        <time>2018-03-05T13:56:22Z</time>
      </trkpt>
      <trkpt lat="38.3189400" lon="-0.6572190">
        <ele>156.0</ele>
        <time>2018-03-05T13:56:23Z</time>
      </trkpt>
      <trkpt lat="38.3190060" lon="-0.6572450">
        <ele>156.0</ele>
        <time>2018-03-05T13:56:24Z</time>
      </trkpt>
      <trkpt lat="38.3190720" lon="-0.6572670">
        <ele>157.0</ele>
        <time>2018-03-05T13:56:25Z</time>
      </trkpt>
      <trkpt lat="38.3191340" lon="-0.6572940">
        <ele>157.0</ele>
        <time>2018-03-05T13:56:26Z</time>
      </trkpt>
      <trkpt lat="38.3191940" lon="-0.6573240">
        <ele>158.0</ele>
        <time>2018-03-05T13:56:27Z</time>
      </trkpt>
      <trkpt lat="38.3192540" lon="-0.6573510">
        <ele>158.0</ele>
        <time>2018-03-05T13:56:28Z</time>
      </trkpt>
      <trkpt lat="38.3193130" lon="-0.6573770">
        <ele>158.0</ele>
        <time>2018-03-05T13:56:29Z</time>
      </trkpt>
      <trkpt lat="38.3193710" lon="-0.6574000">
        <ele>158.0</ele>
        <time>2018-03-05T13:56:30Z</time>
      </trkpt>
      <trkpt lat="38.3194270" lon="-0.6574190">
        <ele>159.0</ele>
        <time>2018-03-05T13:56:31Z</time>
      </trkpt>
      <trkpt lat="38.3194830" lon="-0.6574310">
        <ele>159.0</ele>
        <time>2018-03-05T13:56:32Z</time>
      </trkpt>
      <trkpt lat="38.3195400" lon="-0.6574310">
        <ele>159.0</ele>
        <time>2018-03-05T13:56:33Z</time>
      </trkpt>
      <trkpt lat="38.3195990" lon="-0.6574310">
        <ele>159.0</ele>
        <time>2018-03-05T13:56:34Z</time>
      </trkpt>
      <trkpt lat="38.3196600" lon="-0.6574420">
        <ele>159.0</ele>
        <time>2018-03-05T13:56:35Z</time>
      </trkpt>
      <trkpt lat="38.3197150" lon="-0.6574590">
        <ele>160.0</ele>
        <time>2018-03-05T13:56:36Z</time>
      </trkpt>
      <trkpt lat="38.3197680" lon="-0.6574880">
        <ele>160.0</ele>
        <time>2018-03-05T13:56:37Z</time>
      </trkpt>
      <trkpt lat="38.3198110" lon="-0.6575230">
        <ele>161.0</ele>
        <time>2018-03-05T13:56:38Z</time>
      </trkpt>
      <trkpt lat="38.3198450" lon="-0.6575660">
        <ele>161.0</ele>
        <time>2018-03-05T13:56:39Z</time>
      </trkpt>
      <trkpt lat="38.3198780" lon="-0.6576120">
        <ele>162.0</ele>
        <time>2018-03-05T13:56:40Z</time>
      </trkpt>
      <trkpt lat="38.3199080" lon="-0.6576600">
        <ele>162.0</ele>
        <time>2018-03-05T13:56:41Z</time>
      </trkpt>
      <trkpt lat="38.3199360" lon="-0.6577090">
        <ele>163.0</ele>
        <time>2018-03-05T13:56:42Z</time>
      </trkpt>
      <trkpt lat="38.3199630" lon="-0.6577570">
        <ele>163.0</ele>
        <time>2018-03-05T13:56:43Z</time>
      </trkpt>
      <trkpt lat="38.3199920" lon="-0.6578050">
        <ele>164.0</ele>
        <time>2018-03-05T13:56:44Z</time>
      </trkpt>
      <trkpt lat="38.3200200" lon="-0.6578540">
        <ele>164.0</ele>
        <time>2018-03-05T13:56:45Z</time>
      </trkpt>
      <trkpt lat="38.3200460" lon="-0.6579020">
        <ele>164.0</ele>
        <time>2018-03-05T13:56:46Z</time>
      </trkpt>
      <trkpt lat="38.3200740" lon="-0.6579520">
        <ele>165.0</ele>
        <time>2018-03-05T13:56:47Z</time>
      </trkpt>
      <trkpt lat="38.3200950" lon="-0.6580070">
        <ele>165.0</ele>
        <time>2018-03-05T13:56:48Z</time>
      </trkpt>
      <trkpt lat="38.3201020" lon="-0.6580650">
        <ele>164.0</ele>
        <time>2018-03-05T13:56:49Z</time>
      </trkpt>
      <trkpt lat="38.3200830" lon="-0.6581200">
        <ele>165.0</ele>
        <time>2018-03-05T13:56:50Z</time>
      </trkpt>
      <trkpt lat="38.3200760" lon="-0.6581770">
        <ele>166.0</ele>
        <time>2018-03-05T13:56:51Z</time>
      </trkpt>
      <trkpt lat="38.3200720" lon="-0.6582300">
        <ele>166.0</ele>
        <time>2018-03-05T13:56:52Z</time>
      </trkpt>
      <trkpt lat="38.3200700" lon="-0.6582860">
        <ele>166.0</ele>
        <time>2018-03-05T13:56:53Z</time>
      </trkpt>
      <trkpt lat="38.3200740" lon="-0.6583400">
        <ele>167.0</ele>
        <time>2018-03-05T13:56:54Z</time>
      </trkpt>
      <trkpt lat="38.3200770" lon="-0.6583940">
        <ele>167.0</ele>
        <time>2018-03-05T13:56:55Z</time>
      </trkpt>
      <trkpt lat="38.3200790" lon="-0.6584490">
        <ele>167.0</ele>
        <time>2018-03-05T13:56:56Z</time>
      </trkpt>
      <trkpt lat="38.3200900" lon="-0.6585080">
        <ele>167.0</ele>
        <time>2018-03-05T13:56:57Z</time>
      </trkpt>
      <trkpt lat="38.3200950" lon="-0.6585670">
        <ele>167.0</ele>
        <time>2018-03-05T13:56:58Z</time>
      </trkpt>
      <trkpt lat="38.3201000" lon="-0.6586260">
        <ele>168.0</ele>
        <time>2018-03-05T13:56:59Z</time>
      </trkpt>
      <trkpt lat="38.3201040" lon="-0.6586800">
        <ele>168.0</ele>
        <time>2018-03-05T13:57:00Z</time>
      </trkpt>
      <trkpt lat="38.3201090" lon="-0.6587330">
        <ele>169.0</ele>
        <time>2018-03-05T13:57:01Z</time>
      </trkpt>
      <trkpt lat="38.3201180" lon="-0.6587790">
        <ele>169.0</ele>
        <time>2018-03-05T13:57:02Z</time>
      </trkpt>
      <trkpt lat="38.3201290" lon="-0.6588260">
        <ele>170.0</ele>
        <time>2018-03-05T13:57:03Z</time>
      </trkpt>
      <trkpt lat="38.3201420" lon="-0.6588720">
        <ele>170.0</ele>
        <time>2018-03-05T13:57:04Z</time>
      </trkpt>
      <trkpt lat="38.3201570" lon="-0.6589160">
        <ele>170.0</ele>
        <time>2018-03-05T13:57:05Z</time>
      </trkpt>
      <trkpt lat="38.3201740" lon="-0.6589610">
        <ele>170.0</ele>
        <time>2018-03-05T13:57:06Z</time>
      </trkpt>
      <trkpt lat="38.3201940" lon="-0.6590060">
        <ele>170.0</ele>
        <time>2018-03-05T13:57:07Z</time>
      </trkpt>
      <trkpt lat="38.3202150" lon="-0.6590500">
        <ele>170.0</ele>
        <time>2018-03-05T13:57:08Z</time>
      </trkpt>
      <trkpt lat="38.3202370" lon="-0.6590980">
        <ele>170.0</ele>
        <time>2018-03-05T13:57:09Z</time>
      </trkpt>
      <trkpt lat="38.3202600" lon="-0.6591450">
        <ele>170.0</ele>
        <time>2018-03-05T13:57:10Z</time>
      </trkpt>
      <trkpt lat="38.3202830" lon="-0.6591940">
        <ele>170.0</ele>
        <time>2018-03-05T13:57:11Z</time>
      </trkpt>
      <trkpt lat="38.3203040" lon="-0.6592440">
        <ele>170.0</ele>
        <time>2018-03-05T13:57:12Z</time>
      </trkpt>
      <trkpt lat="38.3203210" lon="-0.6592920">
        <ele>171.0</ele>
        <time>2018-03-05T13:57:13Z</time>
      </trkpt>
      <trkpt lat="38.3203380" lon="-0.6593380">
        <ele>171.0</ele>
        <time>2018-03-05T13:57:14Z</time>
      </trkpt>
      <trkpt lat="38.3203580" lon="-0.6593830">
        <ele>172.0</ele>
        <time>2018-03-05T13:57:15Z</time>
      </trkpt>
      <trkpt lat="38.3203770" lon="-0.6594260">
        <ele>172.0</ele>
        <time>2018-03-05T13:57:16Z</time>
      </trkpt>
      <trkpt lat="38.3203960" lon="-0.6594690">
        <ele>172.0</ele>
        <time>2018-03-05T13:57:17Z</time>
      </trkpt>
      <trkpt lat="38.3204130" lon="-0.6595120">
        <ele>172.0</ele>
        <time>2018-03-05T13:57:18Z</time>
      </trkpt>
      <trkpt lat="38.3204290" lon="-0.6595580">
        <ele>173.0</ele>
        <time>2018-03-05T13:57:19Z</time>
      </trkpt>
      <trkpt lat="38.3204450" lon="-0.6595980">
        <ele>173.0</ele>
        <time>2018-03-05T13:57:20Z</time>
      </trkpt>
      <trkpt lat="38.3204610" lon="-0.6596390">
        <ele>173.0</ele>
        <time>2018-03-05T13:57:21Z</time>
      </trkpt>
      <trkpt lat="38.3204780" lon="-0.6596810">
        <ele>174.0</ele>
        <time>2018-03-05T13:57:22Z</time>
      </trkpt>
      <trkpt lat="38.3204910" lon="-0.6597230">
        <ele>174.0</ele>
        <time>2018-03-05T13:57:23Z</time>
      </trkpt>
      <trkpt lat="38.3205050" lon="-0.6597650">
        <ele>174.0</ele>
        <time>2018-03-05T13:57:24Z</time>
      </trkpt>
      <trkpt lat="38.3205180" lon="-0.6598080">
        <ele>175.0</ele>
        <time>2018-03-05T13:57:25Z</time>
      </trkpt>
      <trkpt lat="38.3205340" lon="-0.6598500">
        <ele>175.0</ele>
        <time>2018-03-05T13:57:26Z</time>
      </trkpt>
      <trkpt lat="38.3205500" lon="-0.6598940">
        <ele>175.0</ele>
        <time>2018-03-05T13:57:27Z</time>
      </trkpt>
      <trkpt lat="38.3205650" lon="-0.6599400">
        <ele>175.0</ele>
        <time>2018-03-05T13:57:28Z</time>
      </trkpt>
      <trkpt lat="38.3205760" lon="-0.6599860">
        <ele>176.0</ele>
        <time>2018-03-05T13:57:29Z</time>
      </trkpt>
      <trkpt lat="38.3205880" lon="-0.6600330">
        <ele>176.0</ele>
        <time>2018-03-05T13:57:30Z</time>
      </trkpt>
      <trkpt lat="38.3205960" lon="-0.6600790">
        <ele>176.0</ele>
        <time>2018-03-05T13:57:31Z</time>
      </trkpt>
      <trkpt lat="38.3206030" lon="-0.6601230">
        <ele>176.0</ele>
        <time>2018-03-05T13:57:32Z</time>
      </trkpt>
      <trkpt lat="38.3206090" lon="-0.6601710">
        <ele>176.0</ele>
        <time>2018-03-05T13:57:33Z</time>
      </trkpt>
      <trkpt lat="38.3206170" lon="-0.6602190">
        <ele>176.0</ele>
        <time>2018-03-05T13:57:34Z</time>
      </trkpt>
      <trkpt lat="38.3206260" lon="-0.6602670">
        <ele>176.0</ele>
        <time>2018-03-05T13:57:35Z</time>
      </trkpt>
      <trkpt lat="38.3206340" lon="-0.6603170">
        <ele>177.0</ele>
        <time>2018-03-05T13:57:36Z</time>
      </trkpt>
      <trkpt lat="38.3206440" lon="-0.6603700">
        <ele>177.0</ele>
        <time>2018-03-05T13:57:37Z</time>
      </trkpt>
      <trkpt lat="38.3206520" lon="-0.6604230">
        <ele>177.0</ele>
        <time>2018-03-05T13:57:38Z</time>
      </trkpt>
      <trkpt lat="38.3206600" lon="-0.6604730">
        <ele>177.0</ele>
        <time>2018-03-05T13:57:39Z</time>
      </trkpt>
      <trkpt lat="38.3206680" lon="-0.6605210">
        <ele>177.0</ele>
        <time>2018-03-05T13:57:40Z</time>
      </trkpt>
      <trkpt lat="38.3206770" lon="-0.6605700">
        <ele>178.0</ele>
        <time>2018-03-05T13:57:41Z</time>
      </trkpt>
      <trkpt lat="38.3206820" lon="-0.6606190">
        <ele>178.0</ele>
        <time>2018-03-05T13:57:42Z</time>
      </trkpt>
      <trkpt lat="38.3206880" lon="-0.6606650">
        <ele>178.0</ele>
        <time>2018-03-05T13:57:43Z</time>
      </trkpt>
      <trkpt lat="38.3206930" lon="-0.6607120">
        <ele>178.0</ele>
        <time>2018-03-05T13:57:44Z</time>
      </trkpt>
      <trkpt lat="38.3206980" lon="-0.6607570">
        <ele>178.0</ele>
        <time>2018-03-05T13:57:45Z</time>
      </trkpt>
      <trkpt lat="38.3207050" lon="-0.6608000">
        <ele>179.0</ele>
        <time>2018-03-05T13:57:46Z</time>
      </trkpt>
      <trkpt lat="38.3207160" lon="-0.6608430">
        <ele>179.0</ele>
        <time>2018-03-05T13:57:47Z</time>
      </trkpt>
      <trkpt lat="38.3207250" lon="-0.6608860">
        <ele>179.0</ele>
        <time>2018-03-05T13:57:48Z</time>
      </trkpt>
      <trkpt lat="38.3207320" lon="-0.6609310">
        <ele>180.0</ele>
        <time>2018-03-05T13:57:49Z</time>
      </trkpt>
      <trkpt lat="38.3207360" lon="-0.6609760">
        <ele>180.0</ele>
        <time>2018-03-05T13:57:50Z</time>
      </trkpt>
      <trkpt lat="38.3207400" lon="-0.6610210">
        <ele>180.0</ele>
        <time>2018-03-05T13:57:51Z</time>
      </trkpt>
      <trkpt lat="38.3207460" lon="-0.6610630">
        <ele>180.0</ele>
        <time>2018-03-05T13:57:52Z</time>
      </trkpt>
      <trkpt lat="38.3207560" lon="-0.6611060">
        <ele>180.0</ele>
        <time>2018-03-05T13:57:53Z</time>
      </trkpt>
      <trkpt lat="38.3207640" lon="-0.6611500">
        <ele>180.0</ele>
        <time>2018-03-05T13:57:54Z</time>
      </trkpt>
      <trkpt lat="38.3207700" lon="-0.6611970">
        <ele>181.0</ele>
        <time>2018-03-05T13:57:55Z</time>
      </trkpt>
      <trkpt lat="38.3207720" lon="-0.6612460">
        <ele>181.0</ele>
        <time>2018-03-05T13:57:56Z</time>
      </trkpt>
      <trkpt lat="38.3207750" lon="-0.6612950">
        <ele>181.0</ele>
        <time>2018-03-05T13:57:57Z</time>
      </trkpt>
      <trkpt lat="38.3207820" lon="-0.6613410">
        <ele>181.0</ele>
        <time>2018-03-05T13:57:58Z</time>
      </trkpt>
      <trkpt lat="38.3207890" lon="-0.6613890">
        <ele>182.0</ele>
        <time>2018-03-05T13:57:59Z</time>
      </trkpt>
      <trkpt lat="38.3207920" lon="-0.6614370">
        <ele>182.0</ele>
        <time>2018-03-05T13:58:00Z</time>
      </trkpt>
      <trkpt lat="38.3207910" lon="-0.6614860">
        <ele>182.0</ele>
        <time>2018-03-05T13:58:01Z</time>
      </trkpt>
      <trkpt lat="38.3207830" lon="-0.6615330">
        <ele>182.0</ele>
        <time>2018-03-05T13:58:02Z</time>
      </trkpt>
      <trkpt lat="38.3207720" lon="-0.6615780">
        <ele>181.0</ele>
        <time>2018-03-05T13:58:03Z</time>
      </trkpt>
      <trkpt lat="38.3207580" lon="-0.6616220">
        <ele>181.0</ele>
        <time>2018-03-05T13:58:04Z</time>
      </trkpt>
      <trkpt lat="38.3207430" lon="-0.6616650">
        <ele>181.0</ele>
        <time>2018-03-05T13:58:05Z</time>
      </trkpt>
      <trkpt lat="38.3207260" lon="-0.6617030">
        <ele>180.0</ele>
        <time>2018-03-05T13:58:06Z</time>
      </trkpt>
      <trkpt lat="38.3207060" lon="-0.6617390">
        <ele>181.0</ele>
        <time>2018-03-05T13:58:07Z</time>
      </trkpt>
      <trkpt lat="38.3206850" lon="-0.6617740">
        <ele>181.0</ele>
        <time>2018-03-05T13:58:08Z</time>
      </trkpt>
      <trkpt lat="38.3206640" lon="-0.6618050">
        <ele>181.0</ele>
        <time>2018-03-05T13:58:09Z</time>
      </trkpt>
      <trkpt lat="38.3206420" lon="-0.6618380">
        <ele>181.0</ele>
        <time>2018-03-05T13:58:10Z</time>
      </trkpt>
      <trkpt lat="38.3206210" lon="-0.6618750">
        <ele>181.0</ele>
        <time>2018-03-05T13:58:11Z</time>
      </trkpt>
      <trkpt lat="38.3206030" lon="-0.6619110">
        <ele>181.0</ele>
        <time>2018-03-05T13:58:12Z</time>
      </trkpt>
      <trkpt lat="38.3205820" lon="-0.6619490">
        <ele>181.0</ele>
        <time>2018-03-05T13:58:13Z</time>
      </trkpt>
      <trkpt lat="38.3205630" lon="-0.6619870">
        <ele>181.0</ele>
        <time>2018-03-05T13:58:14Z</time>
      </trkpt>
      <trkpt lat="38.3205440" lon="-0.6620220">
        <ele>181.0</ele>
        <time>2018-03-05T13:58:15Z</time>
      </trkpt>
      <trkpt lat="38.3205220" lon="-0.6620550">
        <ele>181.0</ele>
        <time>2018-03-05T13:58:16Z</time>
      </trkpt>
      <trkpt lat="38.3205000" lon="-0.6620950">
        <ele>181.0</ele>
        <time>2018-03-05T13:58:17Z</time>
      </trkpt>
      <trkpt lat="38.3204830" lon="-0.6621340">
        <ele>181.0</ele>
        <time>2018-03-05T13:58:18Z</time>
      </trkpt>
      <trkpt lat="38.3204740" lon="-0.6621710">
        <ele>182.0</ele>
        <time>2018-03-05T13:58:19Z</time>
      </trkpt>
      <trkpt lat="38.3204690" lon="-0.6622110">
        <ele>182.0</ele>
        <time>2018-03-05T13:58:20Z</time>
      </trkpt>
      <trkpt lat="38.3204690" lon="-0.6622440">
        <ele>182.0</ele>
        <time>2018-03-05T13:58:21Z</time>
      </trkpt>
      <trkpt lat="38.3204840" lon="-0.6622830">
        <ele>182.0</ele>
        <time>2018-03-05T13:58:22Z</time>
      </trkpt>
      <trkpt lat="38.3205040" lon="-0.6623190">
        <ele>182.0</ele>
        <time>2018-03-05T13:58:23Z</time>
      </trkpt>
      <trkpt lat="38.3205290" lon="-0.6623540">
        <ele>182.0</ele>
        <time>2018-03-05T13:58:24Z</time>
      </trkpt>
      <trkpt lat="38.3205580" lon="-0.6623880">
        <ele>182.0</ele>
        <time>2018-03-05T13:58:25Z</time>
      </trkpt>
      <trkpt lat="38.3205890" lon="-0.6624200">
        <ele>183.0</ele>
        <time>2018-03-05T13:58:26Z</time>
      </trkpt>
      <trkpt lat="38.3206190" lon="-0.6624560">
        <ele>183.0</ele>
        <time>2018-03-05T13:58:27Z</time>
      </trkpt>
      <trkpt lat="38.3206520" lon="-0.6624900">
        <ele>183.0</ele>
        <time>2018-03-05T13:58:28Z</time>
      </trkpt>
      <trkpt lat="38.3206840" lon="-0.6625230">
        <ele>183.0</ele>
        <time>2018-03-05T13:58:29Z</time>
      </trkpt>
      <trkpt lat="38.3207150" lon="-0.6625560">
        <ele>183.0</ele>
        <time>2018-03-05T13:58:30Z</time>
      </trkpt>
      <trkpt lat="38.3207450" lon="-0.6625900">
        <ele>183.0</ele>
        <time>2018-03-05T13:58:31Z</time>
      </trkpt>
      <trkpt lat="38.3207770" lon="-0.6626240">
        <ele>183.0</ele>
        <time>2018-03-05T13:58:32Z</time>
      </trkpt>
      <trkpt lat="38.3208080" lon="-0.6626580">
        <ele>183.0</ele>
        <time>2018-03-05T13:58:33Z</time>
      </trkpt>
      <trkpt lat="38.3208350" lon="-0.6626970">
        <ele>183.0</ele>
        <time>2018-03-05T13:58:34Z</time>
      </trkpt>
      <trkpt lat="38.3208630" lon="-0.6627360">
        <ele>183.0</ele>
        <time>2018-03-05T13:58:35Z</time>
      </trkpt>
      <trkpt lat="38.3208920" lon="-0.6627750">
        <ele>183.0</ele>
        <time>2018-03-05T13:58:36Z</time>
      </trkpt>
      <trkpt lat="38.3209200" lon="-0.6628110">
        <ele>183.0</ele>
        <time>2018-03-05T13:58:37Z</time>
      </trkpt>
      <trkpt lat="38.3209490" lon="-0.6628460">
        <ele>184.0</ele>
        <time>2018-03-05T13:58:38Z</time>
      </trkpt>
      <trkpt lat="38.3209800" lon="-0.6628840">
        <ele>184.0</ele>
        <time>2018-03-05T13:58:39Z</time>
      </trkpt>
      <trkpt lat="38.3210090" lon="-0.6629240">
        <ele>184.0</ele>
        <time>2018-03-05T13:58:40Z</time>
      </trkpt>
      <trkpt lat="38.3210360" lon="-0.6629660">
        <ele>184.0</ele>
        <time>2018-03-05T13:58:41Z</time>
      </trkpt>
      <trkpt lat="38.3210580" lon="-0.6630090">
        <ele>184.0</ele>
        <time>2018-03-05T13:58:42Z</time>
      </trkpt>
      <trkpt lat="38.3210820" lon="-0.6630510">
        <ele>184.0</ele>
        <time>2018-03-05T13:58:43Z</time>
      </trkpt>
      <trkpt lat="38.3211090" lon="-0.6630880">
        <ele>184.0</ele>
        <time>2018-03-05T13:58:44Z</time>
      </trkpt>
      <trkpt lat="38.3211350" lon="-0.6631230">
        <ele>184.0</ele>
        <time>2018-03-05T13:58:45Z</time>
      </trkpt>
      <trkpt lat="38.3211600" lon="-0.6631600">
        <ele>184.0</ele>
        <time>2018-03-05T13:58:46Z</time>
      </trkpt>
      <trkpt lat="38.3211820" lon="-0.6631980">
        <ele>185.0</ele>
        <time>2018-03-05T13:58:47Z</time>
      </trkpt>
      <trkpt lat="38.3212010" lon="-0.6632410">
        <ele>184.0</ele>
        <time>2018-03-05T13:58:48Z</time>
      </trkpt>
      <trkpt lat="38.3212190" lon="-0.6632840">
        <ele>184.0</ele>
        <time>2018-03-05T13:58:49Z</time>
      </trkpt>
      <trkpt lat="38.3212350" lon="-0.6633280">
        <ele>185.0</ele>
        <time>2018-03-05T13:58:50Z</time>
      </trkpt>
      <trkpt lat="38.3212500" lon="-0.6633660">
        <ele>185.0</ele>
        <time>2018-03-05T13:58:51Z</time>
      </trkpt>
      <trkpt lat="38.3212710" lon="-0.6633930">
        <ele>185.0</ele>
        <time>2018-03-05T13:58:52Z</time>
      </trkpt>
      <trkpt lat="38.3212950" lon="-0.6634060">
        <ele>186.0</ele>
        <time>2018-03-05T13:58:53Z</time>
      </trkpt>
      <trkpt lat="38.3213140" lon="-0.6634070">
        <ele>185.0</ele>
        <time>2018-03-05T13:58:54Z</time>
      </trkpt>
      <trkpt lat="38.3213250" lon="-0.6634240">
        <ele>185.0</ele>
        <time>2018-03-05T13:58:55Z</time>
      </trkpt>
      <trkpt lat="38.3213320" lon="-0.6634500">
        <ele>185.0</ele>
        <time>2018-03-05T13:58:56Z</time>
      </trkpt>
      <trkpt lat="38.3213220" lon="-0.6634700">
        <ele>185.0</ele>
        <time>2018-03-05T13:58:57Z</time>
      </trkpt>
      <trkpt lat="38.3213100" lon="-0.6634920">
        <ele>184.0</ele>
        <time>2018-03-05T13:58:58Z</time>
      </trkpt>
      <trkpt lat="38.3212980" lon="-0.6635220">
        <ele>184.0</ele>
        <time>2018-03-05T13:58:59Z</time>
      </trkpt>
      <trkpt lat="38.3212960" lon="-0.6635510">
        <ele>184.0</ele>
        <time>2018-03-05T13:59:00Z</time>
      </trkpt>
      <trkpt lat="38.3213250" lon="-0.6635530">
        <ele>183.0</ele>
        <time>2018-03-05T13:59:01Z</time>
      </trkpt>
      <trkpt lat="38.3213580" lon="-0.6635560">
        <ele>183.0</ele>
        <time>2018-03-05T13:59:02Z</time>
      </trkpt>
      <trkpt lat="38.3213930" lon="-0.6635490">
        <ele>183.0</ele>
        <time>2018-03-05T13:59:03Z</time>
      </trkpt>
      <trkpt lat="38.3214310" lon="-0.6635400">
        <ele>183.0</ele>
        <time>2018-03-05T13:59:04Z</time>
      </trkpt>
      <trkpt lat="38.3214710" lon="-0.6635350">
        <ele>183.0</ele>
        <time>2018-03-05T13:59:05Z</time>
      </trkpt>
      <trkpt lat="38.3215150" lon="-0.6635300">
        <ele>184.0</ele>
        <time>2018-03-05T13:59:06Z</time>
      </trkpt>
      <trkpt lat="38.3215590" lon="-0.6635240">
        <ele>184.0</ele>
        <time>2018-03-05T13:59:07Z</time>
      </trkpt>
      <trkpt lat="38.3216060" lon="-0.6635170">
        <ele>184.0</ele>
        <time>2018-03-05T13:59:08Z</time>
      </trkpt>
      <trkpt lat="38.3216530" lon="-0.6635100">
        <ele>184.0</ele>
        <time>2018-03-05T13:59:09Z</time>
      </trkpt>
      <trkpt lat="38.3217020" lon="-0.6635060">
        <ele>184.0</ele>
        <time>2018-03-05T13:59:10Z</time>
      </trkpt>
      <trkpt lat="38.3217510" lon="-0.6635030">
        <ele>184.0</ele>
        <time>2018-03-05T13:59:11Z</time>
      </trkpt>
      <trkpt lat="38.3218010" lon="-0.6635000">
        <ele>184.0</ele>
        <time>2018-03-05T13:59:12Z</time>
      </trkpt>
      <trkpt lat="38.3218530" lon="-0.6634990">
        <ele>184.0</ele>
        <time>2018-03-05T13:59:13Z</time>
      </trkpt>
      <trkpt lat="38.3219060" lon="-0.6634980">
        <ele>184.0</ele>
        <time>2018-03-05T13:59:14Z</time>
      </trkpt>
      <trkpt lat="38.3219580" lon="-0.6634950">
        <ele>184.0</ele>
        <time>2018-03-05T13:59:15Z</time>
      </trkpt>
      <trkpt lat="38.3220110" lon="-0.6634910">
        <ele>184.0</ele>
        <time>2018-03-05T13:59:16Z</time>
      </trkpt>
      <trkpt lat="38.3220650" lon="-0.6634900">
        <ele>184.0</ele>
        <time>2018-03-05T13:59:17Z</time>
      </trkpt>
      <trkpt lat="38.3221190" lon="-0.6634900">
        <ele>184.0</ele>
        <time>2018-03-05T13:59:18Z</time>
      </trkpt>
      <trkpt lat="38.3221750" lon="-0.6634900">
        <ele>184.0</ele>
        <time>2018-03-05T13:59:19Z</time>
      </trkpt>
      <trkpt lat="38.3222310" lon="-0.6634890">
        <ele>184.0</ele>
        <time>2018-03-05T13:59:20Z</time>
      </trkpt>
      <trkpt lat="38.3222860" lon="-0.6634880">
        <ele>184.0</ele>
        <time>2018-03-05T13:59:21Z</time>
      </trkpt>
      <trkpt lat="38.3223430" lon="-0.6634880">
        <ele>184.0</ele>
        <time>2018-03-05T13:59:22Z</time>
      </trkpt>
      <trkpt lat="38.3224010" lon="-0.6634900">
        <ele>184.0</ele>
        <time>2018-03-05T13:59:23Z</time>
      </trkpt>
      <trkpt lat="38.3224580" lon="-0.6634900">
        <ele>184.0</ele>
        <time>2018-03-05T13:59:24Z</time>
      </trkpt>
      <trkpt lat="38.3225160" lon="-0.6634880">
        <ele>184.0</ele>
        <time>2018-03-05T13:59:25Z</time>
      </trkpt>
      <trkpt lat="38.3225750" lon="-0.6634870">
        <ele>184.0</ele>
        <time>2018-03-05T13:59:26Z</time>
      </trkpt>
      <trkpt lat="38.3226350" lon="-0.6634880">
        <ele>184.0</ele>
        <time>2018-03-05T13:59:27Z</time>
      </trkpt>
      <trkpt lat="38.3226960" lon="-0.6634880">
        <ele>183.0</ele>
        <time>2018-03-05T13:59:28Z</time>
      </trkpt>
      <trkpt lat="38.3227570" lon="-0.6634880">
        <ele>183.0</ele>
        <time>2018-03-05T13:59:29Z</time>
      </trkpt>
      <trkpt lat="38.3228190" lon="-0.6634890">
        <ele>183.0</ele>
        <time>2018-03-05T13:59:30Z</time>
      </trkpt>
      <trkpt lat="38.3228820" lon="-0.6634900">
        <ele>183.0</ele>
        <time>2018-03-05T13:59:31Z</time>
      </trkpt>
      <trkpt lat="38.3229460" lon="-0.6634890">
        <ele>183.0</ele>
        <time>2018-03-05T13:59:32Z</time>
      </trkpt>
      <trkpt lat="38.3230110" lon="-0.6634880">
        <ele>183.0</ele>
        <time>2018-03-05T13:59:33Z</time>
      </trkpt>
      <trkpt lat="38.3230780" lon="-0.6634860">
        <ele>183.0</ele>
        <time>2018-03-05T13:59:34Z</time>
      </trkpt>
      <trkpt lat="38.3231450" lon="-0.6634850">
        <ele>183.0</ele>
        <time>2018-03-05T13:59:35Z</time>
      </trkpt>
      <trkpt lat="38.3232110" lon="-0.6634830">
        <ele>183.0</ele>
        <time>2018-03-05T13:59:36Z</time>
      </trkpt>
      <trkpt lat="38.3232790" lon="-0.6634760">
        <ele>182.0</ele>
        <time>2018-03-05T13:59:37Z</time>
      </trkpt>
      <trkpt lat="38.3233460" lon="-0.6634700">
        <ele>182.0</ele>
        <time>2018-03-05T13:59:38Z</time>
      </trkpt>
      <trkpt lat="38.3234150" lon="-0.6634570">
        <ele>182.0</ele>
        <time>2018-03-05T13:59:39Z</time>
      </trkpt>
      <trkpt lat="38.3234830" lon="-0.6634400">
        <ele>182.0</ele>
        <time>2018-03-05T13:59:40Z</time>
      </trkpt>
      <trkpt lat="38.3235490" lon="-0.6634210">
        <ele>182.0</ele>
        <time>2018-03-05T13:59:41Z</time>
      </trkpt>
      <trkpt lat="38.3236170" lon="-0.6633980">
        <ele>182.0</ele>
        <time>2018-03-05T13:59:42Z</time>
      </trkpt>
      <trkpt lat="38.3236820" lon="-0.6633650">
        <ele>182.0</ele>
        <time>2018-03-05T13:59:43Z</time>
      </trkpt>
      <trkpt lat="38.3237440" lon="-0.6633170">
        <ele>183.0</ele>
        <time>2018-03-05T13:59:44Z</time>
      </trkpt>
      <trkpt lat="38.3238090" lon="-0.6632740">
        <ele>183.0</ele>
        <time>2018-03-05T13:59:45Z</time>
      </trkpt>
      <trkpt lat="38.3238710" lon="-0.6632240">
        <ele>183.0</ele>
        <time>2018-03-05T13:59:46Z</time>
      </trkpt>
      <trkpt lat="38.3239310" lon="-0.6631710">
        <ele>183.0</ele>
        <time>2018-03-05T13:59:47Z</time>
      </trkpt>
      <trkpt lat="38.3239900" lon="-0.6631150">
        <ele>183.0</ele>
        <time>2018-03-05T13:59:48Z</time>
      </trkpt>
      <trkpt lat="38.3240460" lon="-0.6630540">
        <ele>183.0</ele>
        <time>2018-03-05T13:59:49Z</time>
      </trkpt>
      <trkpt lat="38.3241010" lon="-0.6629890">
        <ele>183.0</ele>
        <time>2018-03-05T13:59:50Z</time>
      </trkpt>
      <trkpt lat="38.3241560" lon="-0.6629130">
        <ele>183.0</ele>
        <time>2018-03-05T13:59:51Z</time>
      </trkpt>
      <trkpt lat="38.3242090" lon="-0.6628400">
        <ele>183.0</ele>
        <time>2018-03-05T13:59:52Z</time>
      </trkpt>
      <trkpt lat="38.3242640" lon="-0.6627650">
        <ele>182.0</ele>
        <time>2018-03-05T13:59:53Z</time>
      </trkpt>
      <trkpt lat="38.3243190" lon="-0.6626880">
        <ele>182.0</ele>
        <time>2018-03-05T13:59:54Z</time>
      </trkpt>
      <trkpt lat="38.3243740" lon="-0.6626090">
        <ele>182.0</ele>
        <time>2018-03-05T13:59:55Z</time>
      </trkpt>
      <trkpt lat="38.3244320" lon="-0.6625330">
        <ele>181.0</ele>
        <time>2018-03-05T13:59:56Z</time>
      </trkpt>
      <trkpt lat="38.3244960" lon="-0.6624580">
        <ele>181.0</ele>
        <time>2018-03-05T13:59:57Z</time>
      </trkpt>
      <trkpt lat="38.3245630" lon="-0.6623890">
        <ele>181.0</ele>
        <time>2018-03-05T13:59:58Z</time>
      </trkpt>
      <trkpt lat="38.3246300" lon="-0.6623180">
        <ele>181.0</ele>
        <time>2018-03-05T13:59:59Z</time>
      </trkpt>
      <trkpt lat="38.3246930" lon="-0.6622430">
        <ele>181.0</ele>
        <time>2018-03-05T14:00:00Z</time>
      </trkpt>
      <trkpt lat="38.3247550" lon="-0.6621680">
        <ele>180.0</ele>
        <time>2018-03-05T14:00:01Z</time>
      </trkpt>
      <trkpt lat="38.3248230" lon="-0.6621030">
        <ele>179.0</ele>
        <time>2018-03-05T14:00:02Z</time>
      </trkpt>
      <trkpt lat="38.3248990" lon="-0.6620680">
        <ele>179.0</ele>
        <time>2018-03-05T14:00:03Z</time>
      </trkpt>
      <trkpt lat="38.3249760" lon="-0.6620720">
        <ele>178.0</ele>
        <time>2018-03-05T14:00:04Z</time>
      </trkpt>
      <trkpt lat="38.3250430" lon="-0.6621180">
        <ele>178.0</ele>
        <time>2018-03-05T14:00:05Z</time>
      </trkpt>
      <trkpt lat="38.3250920" lon="-0.6621920">
        <ele>178.0</ele>
        <time>2018-03-05T14:00:06Z</time>
      </trkpt>
      <trkpt lat="38.3251180" lon="-0.6622770">
        <ele>178.0</ele>
        <time>2018-03-05T14:00:07Z</time>
      </trkpt>
      <trkpt lat="38.3251250" lon="-0.6623660">
        <ele>178.0</ele>
        <time>2018-03-05T14:00:08Z</time>
      </trkpt>
      <trkpt lat="38.3251200" lon="-0.6624510">
        <ele>178.0</ele>
        <time>2018-03-05T14:00:09Z</time>
      </trkpt>
      <trkpt lat="38.3251120" lon="-0.6625340">
        <ele>178.0</ele>
        <time>2018-03-05T14:00:10Z</time>
      </trkpt>
      <trkpt lat="38.3251060" lon="-0.6626160">
        <ele>178.0</ele>
        <time>2018-03-05T14:00:11Z</time>
      </trkpt>
      <trkpt lat="38.3251080" lon="-0.6626970">
        <ele>178.0</ele>
        <time>2018-03-05T14:00:12Z</time>
      </trkpt>
      <trkpt lat="38.3251210" lon="-0.6627780">
        <ele>178.0</ele>
        <time>2018-03-05T14:00:13Z</time>
      </trkpt>
      <trkpt lat="38.3251400" lon="-0.6628630">
        <ele>177.0</ele>
        <time>2018-03-05T14:00:14Z</time>
      </trkpt>
      <trkpt lat="38.3251600" lon="-0.6629480">
        <ele>177.0</ele>
        <time>2018-03-05T14:00:15Z</time>
      </trkpt>
      <trkpt lat="38.3251770" lon="-0.6630310">
        <ele>177.0</ele>
        <time>2018-03-05T14:00:16Z</time>
      </trkpt>
      <trkpt lat="38.3251950" lon="-0.6631140">
        <ele>177.0</ele>
        <time>2018-03-05T14:00:17Z</time>
      </trkpt>
      <trkpt lat="38.3252120" lon="-0.6631960">
        <ele>176.0</ele>
        <time>2018-03-05T14:00:18Z</time>
      </trkpt>
      <trkpt lat="38.3252290" lon="-0.6632760">
        <ele>176.0</ele>
        <time>2018-03-05T14:00:19Z</time>
      </trkpt>
      <trkpt lat="38.3252470" lon="-0.6633530">
        <ele>176.0</ele>
        <time>2018-03-05T14:00:20Z</time>
      </trkpt>
      <trkpt lat="38.3252670" lon="-0.6634190">
        <ele>177.0</ele>
        <time>2018-03-05T14:00:21Z</time>
      </trkpt>
      <trkpt lat="38.3252970" lon="-0.6634790">
        <ele>177.0</ele>
        <time>2018-03-05T14:00:22Z</time>
      </trkpt>
      <trkpt lat="38.3253320" lon="-0.6635360">
        <ele>176.0</ele>
        <time>2018-03-05T14:00:23Z</time>
      </trkpt>
      <trkpt lat="38.3253650" lon="-0.6635960">
        <ele>177.0</ele>
        <time>2018-03-05T14:00:24Z</time>
      </trkpt>
      <trkpt lat="38.3254070" lon="-0.6636430">
        <ele>177.0</ele>
        <time>2018-03-05T14:00:25Z</time>
      </trkpt>
      <trkpt lat="38.3254520" lon="-0.6636810">
        <ele>177.0</ele>
        <time>2018-03-05T14:00:26Z</time>
      </trkpt>
      <trkpt lat="38.3255010" lon="-0.6637140">
        <ele>177.0</ele>
        <time>2018-03-05T14:00:27Z</time>
      </trkpt>
      <trkpt lat="38.3255530" lon="-0.6637450">
        <ele>177.0</ele>
        <time>2018-03-05T14:00:28Z</time>
      </trkpt>
      <trkpt lat="38.3256110" lon="-0.6637610">
        <ele>177.0</ele>
        <time>2018-03-05T14:00:29Z</time>
      </trkpt>
      <trkpt lat="38.3256620" lon="-0.6637530">
        <ele>178.0</ele>
        <time>2018-03-05T14:00:30Z</time>
      </trkpt>
      <trkpt lat="38.3257170" lon="-0.6637370">
        <ele>178.0</ele>
        <time>2018-03-05T14:00:31Z</time>
      </trkpt>
      <trkpt lat="38.3257710" lon="-0.6637100">
        <ele>178.0</ele>
        <time>2018-03-05T14:00:32Z</time>
      </trkpt>
      <trkpt lat="38.3258240" lon="-0.6636720">
        <ele>178.0</ele>
        <time>2018-03-05T14:00:33Z</time>
      </trkpt>
      <trkpt lat="38.3258740" lon="-0.6636280">
        <ele>178.0</ele>
        <time>2018-03-05T14:00:34Z</time>
      </trkpt>
      <trkpt lat="38.3259240" lon="-0.6635840">
        <ele>178.0</ele>
        <time>2018-03-05T14:00:35Z</time>
      </trkpt>
      <trkpt lat="38.3259740" lon="-0.6635390">
        <ele>178.0</ele>
        <time>2018-03-05T14:00:36Z</time>
      </trkpt>
      <trkpt lat="38.3260230" lon="-0.6634940">
        <ele>179.0</ele>
        <time>2018-03-05T14:00:37Z</time>
      </trkpt>
      <trkpt lat="38.3260690" lon="-0.6634490">
        <ele>179.0</ele>
        <time>2018-03-05T14:00:38Z</time>
      </trkpt>
      <trkpt lat="38.3261170" lon="-0.6634060">
        <ele>179.0</ele>
        <time>2018-03-05T14:00:39Z</time>
      </trkpt>
      <trkpt lat="38.3261680" lon="-0.6633670">
        <ele>179.0</ele>
        <time>2018-03-05T14:00:40Z</time>
      </trkpt>
      <trkpt lat="38.3262170" lon="-0.6633310">
        <ele>180.0</ele>
        <time>2018-03-05T14:00:41Z</time>
      </trkpt>
      <trkpt lat="38.3262670" lon="-0.6633050">
        <ele>181.0</ele>
        <time>2018-03-05T14:00:42Z</time>
      </trkpt>
      <trkpt lat="38.3263170" lon="-0.6632910">
        <ele>180.0</ele>
        <time>2018-03-05T14:00:43Z</time>
      </trkpt>
      <trkpt lat="38.3263680" lon="-0.6632750">
        <ele>181.0</ele>
        <time>2018-03-05T14:00:44Z</time>
      </trkpt>
      <trkpt lat="38.3264180" lon="-0.6632620">
        <ele>181.0</ele>
        <time>2018-03-05T14:00:45Z</time>
      </trkpt>
      <trkpt lat="38.3264700" lon="-0.6632490">
        <ele>181.0</ele>
        <time>2018-03-05T14:00:46Z</time>
      </trkpt>
      <trkpt lat="38.3265230" lon="-0.6632430">
        <ele>181.0</ele>
        <time>2018-03-05T14:00:47Z</time>
      </trkpt>
      <trkpt lat="38.3265770" lon="-0.6632380">
        <ele>181.0</ele>
        <time>2018-03-05T14:00:48Z</time>
      </trkpt>
      <trkpt lat="38.3266320" lon="-0.6632310">
        <ele>181.0</ele>
        <time>2018-03-05T14:00:49Z</time>
      </trkpt>
      <trkpt lat="38.3266880" lon="-0.6632240">
        <ele>181.0</ele>
        <time>2018-03-05T14:00:50Z</time>
      </trkpt>
      <trkpt lat="38.3267440" lon="-0.6632190">
        <ele>181.0</ele>
        <time>2018-03-05T14:00:51Z</time>
      </trkpt>
      <trkpt lat="38.3268020" lon="-0.6632160">
        <ele>181.0</ele>
        <time>2018-03-05T14:00:52Z</time>
      </trkpt>
      <trkpt lat="38.3268610" lon="-0.6632130">
        <ele>181.0</ele>
        <time>2018-03-05T14:00:53Z</time>
      </trkpt>
      <trkpt lat="38.3269200" lon="-0.6632090">
        <ele>181.0</ele>
        <time>2018-03-05T14:00:54Z</time>
      </trkpt>
      <trkpt lat="38.3269810" lon="-0.6632060">
        <ele>182.0</ele>
        <time>2018-03-05T14:00:55Z</time>
      </trkpt>
      <trkpt lat="38.3270410" lon="-0.6632010">
        <ele>182.0</ele>
        <time>2018-03-05T14:00:56Z</time>
      </trkpt>
      <trkpt lat="38.3271020" lon="-0.6631960">
        <ele>182.0</ele>
        <time>2018-03-05T14:00:57Z</time>
      </trkpt>
      <trkpt lat="38.3271630" lon="-0.6631890">
        <ele>182.0</ele>
        <time>2018-03-05T14:00:58Z</time>
      </trkpt>
      <trkpt lat="38.3272250" lon="-0.6631840">
        <ele>181.0</ele>
        <time>2018-03-05T14:00:59Z</time>
      </trkpt>
      <trkpt lat="38.3272880" lon="-0.6631810">
        <ele>181.0</ele>
        <time>2018-03-05T14:01:00Z</time>
      </trkpt>
      <trkpt lat="38.3273520" lon="-0.6631770">
        <ele>181.0</ele>
        <time>2018-03-05T14:01:01Z</time>
      </trkpt>
      <trkpt lat="38.3274170" lon="-0.6631720">
        <ele>181.0</ele>
        <time>2018-03-05T14:01:02Z</time>
      </trkpt>
      <trkpt lat="38.3274830" lon="-0.6631670">
        <ele>181.0</ele>
        <time>2018-03-05T14:01:03Z</time>
      </trkpt>
      <trkpt lat="38.3275500" lon="-0.6631600">
        <ele>181.0</ele>
        <time>2018-03-05T14:01:04Z</time>
      </trkpt>
      <trkpt lat="38.3276180" lon="-0.6631560">
        <ele>181.0</ele>
        <time>2018-03-05T14:01:05Z</time>
      </trkpt>
      <trkpt lat="38.3276870" lon="-0.6631530">
        <ele>181.0</ele>
        <time>2018-03-05T14:01:06Z</time>
      </trkpt>
      <trkpt lat="38.3277570" lon="-0.6631480">
        <ele>180.0</ele>
        <time>2018-03-05T14:01:07Z</time>
      </trkpt>
      <trkpt lat="38.3278280" lon="-0.6631420">
        <ele>180.0</ele>
        <time>2018-03-05T14:01:08Z</time>
      </trkpt>
      <trkpt lat="38.3279000" lon="-0.6631370">
        <ele>180.0</ele>
        <time>2018-03-05T14:01:09Z</time>
      </trkpt>
      <trkpt lat="38.3279720" lon="-0.6631310">
        <ele>180.0</ele>
        <time>2018-03-05T14:01:10Z</time>
      </trkpt>
      <trkpt lat="38.3280460" lon="-0.6631250">
        <ele>180.0</ele>
        <time>2018-03-05T14:01:11Z</time>
      </trkpt>
      <trkpt lat="38.3281190" lon="-0.6631160">
        <ele>180.0</ele>
        <time>2018-03-05T14:01:12Z</time>
      </trkpt>
      <trkpt lat="38.3281920" lon="-0.6631090">
        <ele>180.0</ele>
        <time>2018-03-05T14:01:13Z</time>
      </trkpt>
      <trkpt lat="38.3282660" lon="-0.6631050">
        <ele>180.0</ele>
        <time>2018-03-05T14:01:14Z</time>
      </trkpt>
      <trkpt lat="38.3283350" lon="-0.6631020">
        <ele>180.0</ele>
        <time>2018-03-05T14:01:15Z</time>
      </trkpt>
      <trkpt lat="38.3283980" lon="-0.6630980">
        <ele>181.0</ele>
        <time>2018-03-05T14:01:16Z</time>
      </trkpt>
      <trkpt lat="38.3284580" lon="-0.6630920">
        <ele>181.0</ele>
        <time>2018-03-05T14:01:17Z</time>
      </trkpt>
      <trkpt lat="38.3285140" lon="-0.6630860">
        <ele>181.0</ele>
        <time>2018-03-05T14:01:18Z</time>
      </trkpt>
      <trkpt lat="38.3285690" lon="-0.6630810">
        <ele>182.0</ele>
        <time>2018-03-05T14:01:19Z</time>
      </trkpt>
      <trkpt lat="38.3286190" lon="-0.6630760">
        <ele>182.0</ele>
        <time>2018-03-05T14:01:20Z</time>
      </trkpt>
      <trkpt lat="38.3286680" lon="-0.6630730">
        <ele>182.0</ele>
        <time>2018-03-05T14:01:21Z</time>
      </trkpt>
      <trkpt lat="38.3287160" lon="-0.6630710">
        <ele>182.0</ele>
        <time>2018-03-05T14:01:22Z</time>
      </trkpt>
      <trkpt lat="38.3287640" lon="-0.6630660">
        <ele>183.0</ele>
        <time>2018-03-05T14:01:23Z</time>
      </trkpt>
      <trkpt lat="38.3288110" lon="-0.6630620">
        <ele>183.0</ele>
        <time>2018-03-05T14:01:24Z</time>
      </trkpt>
      <trkpt lat="38.3288570" lon="-0.6630580">
        <ele>183.0</ele>
        <time>2018-03-05T14:01:25Z</time>
      </trkpt>
      <trkpt lat="38.3289040" lon="-0.6630530">
        <ele>183.0</ele>
        <time>2018-03-05T14:01:26Z</time>
      </trkpt>
      <trkpt lat="38.3289510" lon="-0.6630480">
        <ele>183.0</ele>
        <time>2018-03-05T14:01:27Z</time>
      </trkpt>
      <trkpt lat="38.3290000" lon="-0.6630440">
        <ele>183.0</ele>
        <time>2018-03-05T14:01:28Z</time>
      </trkpt>
      <trkpt lat="38.3290490" lon="-0.6630410">
        <ele>183.0</ele>
        <time>2018-03-05T14:01:29Z</time>
      </trkpt>
      <trkpt lat="38.3290990" lon="-0.6630380">
        <ele>184.0</ele>
        <time>2018-03-05T14:01:30Z</time>
      </trkpt>
      <trkpt lat="38.3291470" lon="-0.6630350">
        <ele>184.0</ele>
        <time>2018-03-05T14:01:31Z</time>
      </trkpt>
      <trkpt lat="38.3291950" lon="-0.6630340">
        <ele>184.0</ele>
        <time>2018-03-05T14:01:32Z</time>
      </trkpt>
      <trkpt lat="38.3292430" lon="-0.6630330">
        <ele>184.0</ele>
        <time>2018-03-05T14:01:33Z</time>
      </trkpt>
      <trkpt lat="38.3292910" lon="-0.6630300">
        <ele>184.0</ele>
        <time>2018-03-05T14:01:34Z</time>
      </trkpt>
      <trkpt lat="38.3293390" lon="-0.6630260">
        <ele>185.0</ele>
        <time>2018-03-05T14:01:35Z</time>
      </trkpt>
      <trkpt lat="38.3293860" lon="-0.6630250">
        <ele>185.0</ele>
        <time>2018-03-05T14:01:36Z</time>
      </trkpt>
      <trkpt lat="38.3294320" lon="-0.6630270">
        <ele>185.0</ele>
        <time>2018-03-05T14:01:37Z</time>
      </trkpt>
      <trkpt lat="38.3294770" lon="-0.6630240">
        <ele>185.0</ele>
        <time>2018-03-05T14:01:38Z</time>
      </trkpt>
      <trkpt lat="38.3295210" lon="-0.6630240">
        <ele>185.0</ele>
        <time>2018-03-05T14:01:39Z</time>
      </trkpt>
      <trkpt lat="38.3295640" lon="-0.6630250">
        <ele>185.0</ele>
        <time>2018-03-05T14:01:40Z</time>
      </trkpt>
      <trkpt lat="38.3296080" lon="-0.6630250">
        <ele>186.0</ele>
        <time>2018-03-05T14:01:41Z</time>
      </trkpt>
      <trkpt lat="38.3296530" lon="-0.6630290">
        <ele>186.0</ele>
        <time>2018-03-05T14:01:42Z</time>
      </trkpt>
      <trkpt lat="38.3296980" lon="-0.6630360">
        <ele>186.0</ele>
        <time>2018-03-05T14:01:43Z</time>
      </trkpt>
      <trkpt lat="38.3297450" lon="-0.6630400">
        <ele>186.0</ele>
        <time>2018-03-05T14:01:44Z</time>
      </trkpt>
      <trkpt lat="38.3297940" lon="-0.6630390">
        <ele>186.0</ele>
        <time>2018-03-05T14:01:45Z</time>
      </trkpt>
      <trkpt lat="38.3298400" lon="-0.6630380">
        <ele>186.0</ele>
        <time>2018-03-05T14:01:46Z</time>
      </trkpt>
      <trkpt lat="38.3298870" lon="-0.6630400">
        <ele>187.0</ele>
        <time>2018-03-05T14:01:47Z</time>
      </trkpt>
      <trkpt lat="38.3299340" lon="-0.6630370">
        <ele>187.0</ele>
        <time>2018-03-05T14:01:48Z</time>
      </trkpt>
      <trkpt lat="38.3299850" lon="-0.6630300">
        <ele>186.0</ele>
        <time>2018-03-05T14:01:49Z</time>
      </trkpt>
      <trkpt lat="38.3300380" lon="-0.6630220">
        <ele>186.0</ele>
        <time>2018-03-05T14:01:50Z</time>
      </trkpt>
      <trkpt lat="38.3300950" lon="-0.6630160">
        <ele>186.0</ele>
        <time>2018-03-05T14:01:51Z</time>
      </trkpt>
      <trkpt lat="38.3301540" lon="-0.6630110">
        <ele>185.0</ele>
        <time>2018-03-05T14:01:52Z</time>
      </trkpt>
      <trkpt lat="38.3302180" lon="-0.6630050">
        <ele>185.0</ele>
        <time>2018-03-05T14:01:53Z</time>
      </trkpt>
      <trkpt lat="38.3302890" lon="-0.6630060">
        <ele>185.0</ele>
        <time>2018-03-05T14:01:54Z</time>
      </trkpt>
      <trkpt lat="38.3303600" lon="-0.6630070">
        <ele>185.0</ele>
        <time>2018-03-05T14:01:55Z</time>
      </trkpt>
      <trkpt lat="38.3304290" lon="-0.6630100">
        <ele>185.0</ele>
        <time>2018-03-05T14:01:56Z</time>
      </trkpt>
      <trkpt lat="38.3304990" lon="-0.6630160">
        <ele>185.0</ele>
        <time>2018-03-05T14:01:57Z</time>
      </trkpt>
      <trkpt lat="38.3305680" lon="-0.6630220">
        <ele>185.0</ele>
        <time>2018-03-05T14:01:58Z</time>
      </trkpt>
      <trkpt lat="38.3306370" lon="-0.6630290">
        <ele>185.0</ele>
        <time>2018-03-05T14:01:59Z</time>
      </trkpt>
      <trkpt lat="38.3307050" lon="-0.6630350">
        <ele>185.0</ele>
        <time>2018-03-05T14:02:00Z</time>
      </trkpt>
      <trkpt lat="38.3307730" lon="-0.6630440">
        <ele>185.0</ele>
        <time>2018-03-05T14:02:01Z</time>
      </trkpt>
      <trkpt lat="38.3308390" lon="-0.6630550">
        <ele>185.0</ele>
        <time>2018-03-05T14:02:02Z</time>
      </trkpt>
      <trkpt lat="38.3309050" lon="-0.6630670">
        <ele>185.0</ele>
        <time>2018-03-05T14:02:03Z</time>
      </trkpt>
      <trkpt lat="38.3309720" lon="-0.6630800">
        <ele>185.0</ele>
        <time>2018-03-05T14:02:04Z</time>
      </trkpt>
      <trkpt lat="38.3310370" lon="-0.6630920">
        <ele>185.0</ele>
        <time>2018-03-05T14:02:05Z</time>
      </trkpt>
      <trkpt lat="38.3311030" lon="-0.6631080">
        <ele>185.0</ele>
        <time>2018-03-05T14:02:06Z</time>
      </trkpt>
      <trkpt lat="38.3311680" lon="-0.6631250">
        <ele>185.0</ele>
        <time>2018-03-05T14:02:07Z</time>
      </trkpt>
      <trkpt lat="38.3312340" lon="-0.6631400">
        <ele>185.0</ele>
        <time>2018-03-05T14:02:08Z</time>
      </trkpt>
      <trkpt lat="38.3312990" lon="-0.6631570">
        <ele>185.0</ele>
        <time>2018-03-05T14:02:09Z</time>
      </trkpt>
      <trkpt lat="38.3313650" lon="-0.6631730">
        <ele>185.0</ele>
        <time>2018-03-05T14:02:10Z</time>
      </trkpt>
      <trkpt lat="38.3314300" lon="-0.6631880">
        <ele>185.0</ele>
        <time>2018-03-05T14:02:11Z</time>
      </trkpt>
      <trkpt lat="38.3314940" lon="-0.6632040">
        <ele>185.0</ele>
        <time>2018-03-05T14:02:12Z</time>
      </trkpt>
      <trkpt lat="38.3315590" lon="-0.6632210">
        <ele>185.0</ele>
        <time>2018-03-05T14:02:13Z</time>
      </trkpt>
      <trkpt lat="38.3316230" lon="-0.6632380">
        <ele>185.0</ele>
        <time>2018-03-05T14:02:14Z</time>
      </trkpt>
      <trkpt lat="38.3316860" lon="-0.6632560">
        <ele>185.0</ele>
        <time>2018-03-05T14:02:15Z</time>
      </trkpt>
      <trkpt lat="38.3317490" lon="-0.6632750">
        <ele>185.0</ele>
        <time>2018-03-05T14:02:16Z</time>
      </trkpt>
      <trkpt lat="38.3318110" lon="-0.6632940">
        <ele>185.0</ele>
        <time>2018-03-05T14:02:17Z</time>
      </trkpt>
      <trkpt lat="38.3318740" lon="-0.6633130">
        <ele>185.0</ele>
        <time>2018-03-05T14:02:18Z</time>
      </trkpt>
      <trkpt lat="38.3319350" lon="-0.6633360">
        <ele>185.0</ele>
        <time>2018-03-05T14:02:19Z</time>
      </trkpt>
      <trkpt lat="38.3319950" lon="-0.6633600">
        <ele>185.0</ele>
        <time>2018-03-05T14:02:20Z</time>
      </trkpt>
      <trkpt lat="38.3320550" lon="-0.6633830">
        <ele>185.0</ele>
        <time>2018-03-05T14:02:21Z</time>
      </trkpt>
      <trkpt lat="38.3321150" lon="-0.6634090">
        <ele>185.0</ele>
        <time>2018-03-05T14:02:22Z</time>
      </trkpt>
      <trkpt lat="38.3321770" lon="-0.6634370">
        <ele>185.0</ele>
        <time>2018-03-05T14:02:23Z</time>
      </trkpt>
      <trkpt lat="38.3322380" lon="-0.6634690">
        <ele>185.0</ele>
        <time>2018-03-05T14:02:24Z</time>
      </trkpt>
      <trkpt lat="38.3323010" lon="-0.6635020">
        <ele>185.0</ele>
        <time>2018-03-05T14:02:25Z</time>
      </trkpt>
      <trkpt lat="38.3323660" lon="-0.6635350">
        <ele>185.0</ele>
        <time>2018-03-05T14:02:26Z</time>
      </trkpt>
      <trkpt lat="38.3324320" lon="-0.6635640">
        <ele>185.0</ele>
        <time>2018-03-05T14:02:27Z</time>
      </trkpt>
      <trkpt lat="38.3324990" lon="-0.6635890">
        <ele>185.0</ele>
        <time>2018-03-05T14:02:28Z</time>
      </trkpt>
      <trkpt lat="38.3325650" lon="-0.6636160">
        <ele>185.0</ele>
        <time>2018-03-05T14:02:29Z</time>
      </trkpt>
      <trkpt lat="38.3326300" lon="-0.6636430">
        <ele>185.0</ele>
        <time>2018-03-05T14:02:30Z</time>
      </trkpt>
      <trkpt lat="38.3326930" lon="-0.6636660">
        <ele>185.0</ele>
        <time>2018-03-05T14:02:31Z</time>
      </trkpt>
      <trkpt lat="38.3327540" lon="-0.6636860">
        <ele>186.0</ele>
        <time>2018-03-05T14:02:32Z</time>
      </trkpt>
      <trkpt lat="38.3328110" lon="-0.6637000">
        <ele>186.0</ele>
        <time>2018-03-05T14:02:33Z</time>
      </trkpt>
      <trkpt lat="38.3328650" lon="-0.6637150">
        <ele>187.0</ele>
        <time>2018-03-05T14:02:34Z</time>
      </trkpt>
      <trkpt lat="38.3329170" lon="-0.6637330">
        <ele>187.0</ele>
        <time>2018-03-05T14:02:35Z</time>
      </trkpt>
      <trkpt lat="38.3329680" lon="-0.6637510">
        <ele>187.0</ele>
        <time>2018-03-05T14:02:36Z</time>
      </trkpt>
      <trkpt lat="38.3330190" lon="-0.6637670">
        <ele>188.0</ele>
        <time>2018-03-05T14:02:37Z</time>
      </trkpt>
      <trkpt lat="38.3330690" lon="-0.6637830">
        <ele>188.0</ele>
        <time>2018-03-05T14:02:38Z</time>
      </trkpt>
      <trkpt lat="38.3331180" lon="-0.6637980">
        <ele>188.0</ele>
        <time>2018-03-05T14:02:39Z</time>
      </trkpt>
      <trkpt lat="38.3331690" lon="-0.6638130">
        <ele>188.0</ele>
        <time>2018-03-05T14:02:40Z</time>
      </trkpt>
      <trkpt lat="38.3332190" lon="-0.6638320">
        <ele>188.0</ele>
        <time>2018-03-05T14:02:41Z</time>
      </trkpt>
      <trkpt lat="38.3332700" lon="-0.6638500">
        <ele>189.0</ele>
        <time>2018-03-05T14:02:42Z</time>
      </trkpt>
      <trkpt lat="38.3333230" lon="-0.6638650">
        <ele>189.0</ele>
        <time>2018-03-05T14:02:43Z</time>
      </trkpt>
      <trkpt lat="38.3333760" lon="-0.6638800">
        <ele>189.0</ele>
        <time>2018-03-05T14:02:44Z</time>
      </trkpt>
      <trkpt lat="38.3334280" lon="-0.6638960">
        <ele>189.0</ele>
        <time>2018-03-05T14:02:45Z</time>
      </trkpt>
      <trkpt lat="38.3334810" lon="-0.6639110">
        <ele>189.0</ele>
        <time>2018-03-05T14:02:46Z</time>
      </trkpt>
      <trkpt lat="38.3335360" lon="-0.6639260">
        <ele>189.0</ele>
        <time>2018-03-05T14:02:47Z</time>
      </trkpt>
      <trkpt lat="38.3335900" lon="-0.6639410">
        <ele>189.0</ele>
        <time>2018-03-05T14:02:48Z</time>
      </trkpt>
      <trkpt lat="38.3336460" lon="-0.6639550">
        <ele>190.0</ele>
        <time>2018-03-05T14:02:49Z</time>
      </trkpt>
      <trkpt lat="38.3337010" lon="-0.6639710">
        <ele>190.0</ele>
        <time>2018-03-05T14:02:50Z</time>
      </trkpt>
      <trkpt lat="38.3337580" lon="-0.6639890">
        <ele>190.0</ele>
        <time>2018-03-05T14:02:51Z</time>
      </trkpt>
      <trkpt lat="38.3338150" lon="-0.6640070">
        <ele>190.0</ele>
        <time>2018-03-05T14:02:52Z</time>
      </trkpt>
      <trkpt lat="38.3338720" lon="-0.6640250">
        <ele>190.0</ele>
        <time>2018-03-05T14:02:53Z</time>
      </trkpt>
      <trkpt lat="38.3339290" lon="-0.6640410">
        <ele>190.0</ele>
        <time>2018-03-05T14:02:54Z</time>
      </trkpt>
      <trkpt lat="38.3339880" lon="-0.6640560">
        <ele>190.0</ele>
        <time>2018-03-05T14:02:55Z</time>
      </trkpt>
      <trkpt lat="38.3340460" lon="-0.6640680">
        <ele>190.0</ele>
        <time>2018-03-05T14:02:56Z</time>
      </trkpt>
      <trkpt lat="38.3341040" lon="-0.6640780">
        <ele>190.0</ele>
        <time>2018-03-05T14:02:57Z</time>
      </trkpt>
      <trkpt lat="38.3341620" lon="-0.6640870">
        <ele>191.0</ele>
        <time>2018-03-05T14:02:58Z</time>
      </trkpt>
      <trkpt lat="38.3342190" lon="-0.6640940">
        <ele>191.0</ele>
        <time>2018-03-05T14:02:59Z</time>
      </trkpt>
      <trkpt lat="38.3342760" lon="-0.6641000">
        <ele>191.0</ele>
        <time>2018-03-05T14:03:00Z</time>
      </trkpt>
      <trkpt lat="38.3343330" lon="-0.6641110">
        <ele>191.0</ele>
        <time>2018-03-05T14:03:01Z</time>
      </trkpt>
      <trkpt lat="38.3343900" lon="-0.6641220">
        <ele>191.0</ele>
        <time>2018-03-05T14:03:02Z</time>
      </trkpt>
      <trkpt lat="38.3344460" lon="-0.6641330">
        <ele>191.0</ele>
        <time>2018-03-05T14:03:03Z</time>
      </trkpt>
      <trkpt lat="38.3345010" lon="-0.6641430">
        <ele>191.0</ele>
        <time>2018-03-05T14:03:04Z</time>
      </trkpt>
      <trkpt lat="38.3345570" lon="-0.6641510">
        <ele>192.0</ele>
        <time>2018-03-05T14:03:05Z</time>
      </trkpt>
      <trkpt lat="38.3346130" lon="-0.6641590">
        <ele>192.0</ele>
        <time>2018-03-05T14:03:06Z</time>
      </trkpt>
      <trkpt lat="38.3346690" lon="-0.6641650">
        <ele>192.0</ele>
        <time>2018-03-05T14:03:07Z</time>
      </trkpt>
      <trkpt lat="38.3347240" lon="-0.6641710">
        <ele>192.0</ele>
        <time>2018-03-05T14:03:08Z</time>
      </trkpt>
      <trkpt lat="38.3347790" lon="-0.6641770">
        <ele>192.0</ele>
        <time>2018-03-05T14:03:09Z</time>
      </trkpt>
      <trkpt lat="38.3348330" lon="-0.6641860">
        <ele>192.0</ele>
        <time>2018-03-05T14:03:10Z</time>
      </trkpt>
      <trkpt lat="38.3348850" lon="-0.6641980">
        <ele>192.0</ele>
        <time>2018-03-05T14:03:11Z</time>
      </trkpt>
      <trkpt lat="38.3349380" lon="-0.6642060">
        <ele>193.0</ele>
        <time>2018-03-05T14:03:12Z</time>
      </trkpt>
      <trkpt lat="38.3349910" lon="-0.6642120">
        <ele>193.0</ele>
        <time>2018-03-05T14:03:13Z</time>
      </trkpt>
      <trkpt lat="38.3350450" lon="-0.6642160">
        <ele>193.0</ele>
        <time>2018-03-05T14:03:14Z</time>
      </trkpt>
      <trkpt lat="38.3350980" lon="-0.6642210">
        <ele>193.0</ele>
        <time>2018-03-05T14:03:15Z</time>
      </trkpt>
      <trkpt lat="38.3351520" lon="-0.6642240">
        <ele>193.0</ele>
        <time>2018-03-05T14:03:16Z</time>
      </trkpt>
      <trkpt lat="38.3352050" lon="-0.6642280">
        <ele>194.0</ele>
        <time>2018-03-05T14:03:17Z</time>
      </trkpt>
      <trkpt lat="38.3352560" lon="-0.6642340">
        <ele>194.0</ele>
        <time>2018-03-05T14:03:18Z</time>
      </trkpt>
      <trkpt lat="38.3353080" lon="-0.6642400">
        <ele>194.0</ele>
        <time>2018-03-05T14:03:19Z</time>
      </trkpt>
      <trkpt lat="38.3353590" lon="-0.6642440">
        <ele>195.0</ele>
        <time>2018-03-05T14:03:20Z</time>
      </trkpt>
      <trkpt lat="38.3354090" lon="-0.6642490">
        <ele>195.0</ele>
        <time>2018-03-05T14:03:21Z</time>
      </trkpt>
      <trkpt lat="38.3354580" lon="-0.6642540">
        <ele>195.0</ele>
        <time>2018-03-05T14:03:22Z</time>
      </trkpt>
      <trkpt lat="38.3355070" lon="-0.6642570">
        <ele>196.0</ele>
        <time>2018-03-05T14:03:23Z</time>
      </trkpt>
      <trkpt lat="38.3355570" lon="-0.6642610">
        <ele>196.0</ele>
        <time>2018-03-05T14:03:24Z</time>
      </trkpt>
      <trkpt lat="38.3356080" lon="-0.6642660">
        <ele>196.0</ele>
        <time>2018-03-05T14:03:25Z</time>
      </trkpt>
      <trkpt lat="38.3356560" lon="-0.6642680">
        <ele>197.0</ele>
        <time>2018-03-05T14:03:26Z</time>
      </trkpt>
      <trkpt lat="38.3357040" lon="-0.6642710">
        <ele>197.0</ele>
        <time>2018-03-05T14:03:27Z</time>
      </trkpt>
      <trkpt lat="38.3357520" lon="-0.6642730">
        <ele>197.0</ele>
        <time>2018-03-05T14:03:28Z</time>
      </trkpt>
      <trkpt lat="38.3358000" lon="-0.6642760">
        <ele>197.0</ele>
        <time>2018-03-05T14:03:29Z</time>
      </trkpt>
      <trkpt lat="38.3358490" lon="-0.6642830">
        <ele>197.0</ele>
        <time>2018-03-05T14:03:30Z</time>
      </trkpt>
      <trkpt lat="38.3358980" lon="-0.6642920">
        <ele>197.0</ele>
        <time>2018-03-05T14:03:31Z</time>
      </trkpt>
      <trkpt lat="38.3359480" lon="-0.6642970">
        <ele>197.0</ele>
        <time>2018-03-05T14:03:32Z</time>
      </trkpt>
      <trkpt lat="38.3359990" lon="-0.6642980">
        <ele>197.0</ele>
        <time>2018-03-05T14:03:33Z</time>
      </trkpt>
      <trkpt lat="38.3360490" lon="-0.6643000">
        <ele>197.0</ele>
        <time>2018-03-05T14:03:34Z</time>
      </trkpt>
      <trkpt lat="38.3361010" lon="-0.6643040">
        <ele>196.0</ele>
        <time>2018-03-05T14:03:35Z</time>
      </trkpt>
      <trkpt lat="38.3361530" lon="-0.6643090">
        <ele>196.0</ele>
        <time>2018-03-05T14:03:36Z</time>
      </trkpt>
      <trkpt lat="38.3362060" lon="-0.6643120">
        <ele>196.0</ele>
        <time>2018-03-05T14:03:37Z</time>
      </trkpt>
      <trkpt lat="38.3362590" lon="-0.6643160">
        <ele>196.0</ele>
        <time>2018-03-05T14:03:38Z</time>
      </trkpt>
      <trkpt lat="38.3363140" lon="-0.6643200">
        <ele>196.0</ele>
        <time>2018-03-05T14:03:39Z</time>
      </trkpt>
      <trkpt lat="38.3363690" lon="-0.6643220">
        <ele>196.0</ele>
        <time>2018-03-05T14:03:40Z</time>
      </trkpt>
      <trkpt lat="38.3364240" lon="-0.6643250">
        <ele>196.0</ele>
        <time>2018-03-05T14:03:41Z</time>
      </trkpt>
      <trkpt lat="38.3364810" lon="-0.6643270">
        <ele>196.0</ele>
        <time>2018-03-05T14:03:42Z</time>
      </trkpt>
      <trkpt lat="38.3365380" lon="-0.6643310">
        <ele>196.0</ele>
        <time>2018-03-05T14:03:43Z</time>
      </trkpt>
      <trkpt lat="38.3365950" lon="-0.6643370">
        <ele>196.0</ele>
        <time>2018-03-05T14:03:44Z</time>
      </trkpt>
      <trkpt lat="38.3366510" lon="-0.6643460">
        <ele>196.0</ele>
        <time>2018-03-05T14:03:45Z</time>
      </trkpt>
      <trkpt lat="38.3367090" lon="-0.6643550">
        <ele>196.0</ele>
        <time>2018-03-05T14:03:46Z</time>
      </trkpt>
      <trkpt lat="38.3367680" lon="-0.6643640">
        <ele>196.0</ele>
        <time>2018-03-05T14:03:47Z</time>
      </trkpt>
      <trkpt lat="38.3368270" lon="-0.6643750">
        <ele>196.0</ele>
        <time>2018-03-05T14:03:48Z</time>
      </trkpt>
      <trkpt lat="38.3368860" lon="-0.6643880">
        <ele>196.0</ele>
        <time>2018-03-05T14:03:49Z</time>
      </trkpt>
      <trkpt lat="38.3369460" lon="-0.6644030">
        <ele>196.0</ele>
        <time>2018-03-05T14:03:50Z</time>
      </trkpt>
      <trkpt lat="38.3370040" lon="-0.6644180">
        <ele>196.0</ele>
        <time>2018-03-05T14:03:51Z</time>
      </trkpt>
      <trkpt lat="38.3370630" lon="-0.6644330">
        <ele>197.0</ele>
        <time>2018-03-05T14:03:52Z</time>
      </trkpt>
      <trkpt lat="38.3371210" lon="-0.6644470">
        <ele>197.0</ele>
        <time>2018-03-05T14:03:53Z</time>
      </trkpt>
      <trkpt lat="38.3371780" lon="-0.6644600">
        <ele>197.0</ele>
        <time>2018-03-05T14:03:54Z</time>
      </trkpt>
      <trkpt lat="38.3372350" lon="-0.6644710">
        <ele>197.0</ele>
        <time>2018-03-05T14:03:55Z</time>
      </trkpt>
      <trkpt lat="38.3372910" lon="-0.6644840">
        <ele>197.0</ele>
        <time>2018-03-05T14:03:56Z</time>
      </trkpt>
      <trkpt lat="38.3373460" lon="-0.6644990">
        <ele>197.0</ele>
        <time>2018-03-05T14:03:57Z</time>
      </trkpt>
      <trkpt lat="38.3374010" lon="-0.6645150">
        <ele>198.0</ele>
        <time>2018-03-05T14:03:58Z</time>
      </trkpt>
      <trkpt lat="38.3374540" lon="-0.6645290">
        <ele>198.0</ele>
        <time>2018-03-05T14:03:59Z</time>
      </trkpt>
      <trkpt lat="38.3375060" lon="-0.6645420">
        <ele>198.0</ele>
        <time>2018-03-05T14:04:00Z</time>
      </trkpt>
      <trkpt lat="38.3375570" lon="-0.6645570">
        <ele>198.0</ele>
        <time>2018-03-05T14:04:01Z</time>
      </trkpt>
      <trkpt lat="38.3376050" lon="-0.6645760">
        <ele>198.0</ele>
        <time>2018-03-05T14:04:02Z</time>
      </trkpt>
      <trkpt lat="38.3376530" lon="-0.6645950">
        <ele>198.0</ele>
        <time>2018-03-05T14:04:03Z</time>
      </trkpt>
      <trkpt lat="38.3376990" lon="-0.6646150">
        <ele>199.0</ele>
        <time>2018-03-05T14:04:04Z</time>
      </trkpt>
      <trkpt lat="38.3377430" lon="-0.6646370">
        <ele>199.0</ele>
        <time>2018-03-05T14:04:05Z</time>
      </trkpt>
      <trkpt lat="38.3377860" lon="-0.6646570">
        <ele>199.0</ele>
        <time>2018-03-05T14:04:06Z</time>
      </trkpt>
      <trkpt lat="38.3378300" lon="-0.6646750">
        <ele>199.0</ele>
        <time>2018-03-05T14:04:07Z</time>
      </trkpt>
      <trkpt lat="38.3378720" lon="-0.6646940">
        <ele>199.0</ele>
        <time>2018-03-05T14:04:08Z</time>
      </trkpt>
      <trkpt lat="38.3379150" lon="-0.6647140">
        <ele>199.0</ele>
        <time>2018-03-05T14:04:09Z</time>
      </trkpt>
      <trkpt lat="38.3379580" lon="-0.6647340">
        <ele>199.0</ele>
        <time>2018-03-05T14:04:10Z</time>
      </trkpt>
      <trkpt lat="38.3380010" lon="-0.6647540">
        <ele>199.0</ele>
        <time>2018-03-05T14:04:11Z</time>
      </trkpt>
      <trkpt lat="38.3380440" lon="-0.6647780">
        <ele>199.0</ele>
        <time>2018-03-05T14:04:12Z</time>
      </trkpt>
      <trkpt lat="38.3380860" lon="-0.6648070">
        <ele>199.0</ele>
        <time>2018-03-05T14:04:13Z</time>
      </trkpt>
      <trkpt lat="38.3381280" lon="-0.6648370">
        <ele>199.0</ele>
        <time>2018-03-05T14:04:14Z</time>
      </trkpt>
      <trkpt lat="38.3381720" lon="-0.6648640">
        <ele>199.0</ele>
        <time>2018-03-05T14:04:15Z</time>
      </trkpt>
      <trkpt lat="38.3382160" lon="-0.6648900">
        <ele>199.0</ele>
        <time>2018-03-05T14:04:16Z</time>
      </trkpt>
      <trkpt lat="38.3382580" lon="-0.6649180">
        <ele>199.0</ele>
        <time>2018-03-05T14:04:17Z</time>
      </trkpt>
      <trkpt lat="38.3383010" lon="-0.6649450">
        <ele>199.0</ele>
        <time>2018-03-05T14:04:18Z</time>
      </trkpt>
      <trkpt lat="38.3383430" lon="-0.6649690">
        <ele>199.0</ele>
        <time>2018-03-05T14:04:19Z</time>
      </trkpt>
      <trkpt lat="38.3383830" lon="-0.6649990">
        <ele>199.0</ele>
        <time>2018-03-05T14:04:20Z</time>
      </trkpt>
      <trkpt lat="38.3384220" lon="-0.6650310">
        <ele>199.0</ele>
        <time>2018-03-05T14:04:21Z</time>
      </trkpt>
      <trkpt lat="38.3384640" lon="-0.6650610">
        <ele>199.0</ele>
        <time>2018-03-05T14:04:22Z</time>
      </trkpt>
      <trkpt lat="38.3385060" lon="-0.6650890">
        <ele>199.0</ele>
        <time>2018-03-05T14:04:23Z</time>
      </trkpt>
      <trkpt lat="38.3385470" lon="-0.6651190">
        <ele>199.0</ele>
        <time>2018-03-05T14:04:24Z</time>
      </trkpt>
      <trkpt lat="38.3385900" lon="-0.6651490">
        <ele>199.0</ele>
        <time>2018-03-05T14:04:25Z</time>
      </trkpt>
      <trkpt lat="38.3386330" lon="-0.6651800">
        <ele>199.0</ele>
        <time>2018-03-05T14:04:26Z</time>
      </trkpt>
      <trkpt lat="38.3386740" lon="-0.6652130">
        <ele>199.0</ele>
        <time>2018-03-05T14:04:27Z</time>
      </trkpt>
      <trkpt lat="38.3387170" lon="-0.6652450">
        <ele>199.0</ele>
        <time>2018-03-05T14:04:28Z</time>
      </trkpt>
      <trkpt lat="38.3387590" lon="-0.6652750">
        <ele>199.0</ele>
        <time>2018-03-05T14:04:29Z</time>
      </trkpt>
      <trkpt lat="38.3388010" lon="-0.6653020">
        <ele>199.0</ele>
        <time>2018-03-05T14:04:30Z</time>
      </trkpt>
      <trkpt lat="38.3388420" lon="-0.6653320">
        <ele>199.0</ele>
        <time>2018-03-05T14:04:31Z</time>
      </trkpt>
      <trkpt lat="38.3388810" lon="-0.6653650">
        <ele>200.0</ele>
        <time>2018-03-05T14:04:32Z</time>
      </trkpt>
      <trkpt lat="38.3389180" lon="-0.6653990">
        <ele>200.0</ele>
        <time>2018-03-05T14:04:33Z</time>
      </trkpt>
      <trkpt lat="38.3389590" lon="-0.6654310">
        <ele>200.0</ele>
        <time>2018-03-05T14:04:34Z</time>
      </trkpt>
      <trkpt lat="38.3390000" lon="-0.6654610">
        <ele>200.0</ele>
        <time>2018-03-05T14:04:35Z</time>
      </trkpt>
      <trkpt lat="38.3390410" lon="-0.6654910">
        <ele>200.0</ele>
        <time>2018-03-05T14:04:36Z</time>
      </trkpt>
      <trkpt lat="38.3390810" lon="-0.6655220">
        <ele>200.0</ele>
        <time>2018-03-05T14:04:37Z</time>
      </trkpt>
      <trkpt lat="38.3391220" lon="-0.6655520">
        <ele>200.0</ele>
        <time>2018-03-05T14:04:38Z</time>
      </trkpt>
      <trkpt lat="38.3391620" lon="-0.6655820">
        <ele>200.0</ele>
        <time>2018-03-05T14:04:39Z</time>
      </trkpt>
      <trkpt lat="38.3392020" lon="-0.6656110">
        <ele>201.0</ele>
        <time>2018-03-05T14:04:40Z</time>
      </trkpt>
      <trkpt lat="38.3392410" lon="-0.6656430">
        <ele>201.0</ele>
        <time>2018-03-05T14:04:41Z</time>
      </trkpt>
      <trkpt lat="38.3392780" lon="-0.6656750">
        <ele>201.0</ele>
        <time>2018-03-05T14:04:42Z</time>
      </trkpt>
      <trkpt lat="38.3393160" lon="-0.6657070">
        <ele>201.0</ele>
        <time>2018-03-05T14:04:43Z</time>
      </trkpt>
      <trkpt lat="38.3393540" lon="-0.6657380">
        <ele>201.0</ele>
        <time>2018-03-05T14:04:44Z</time>
      </trkpt>
      <trkpt lat="38.3393920" lon="-0.6657660">
        <ele>201.0</ele>
        <time>2018-03-05T14:04:45Z</time>
      </trkpt>
      <trkpt lat="38.3394310" lon="-0.6657930">
        <ele>201.0</ele>
        <time>2018-03-05T14:04:46Z</time>
      </trkpt>
      <trkpt lat="38.3394710" lon="-0.6658210">
        <ele>201.0</ele>
        <time>2018-03-05T14:04:47Z</time>
      </trkpt>
      <trkpt lat="38.3395120" lon="-0.6658470">
        <ele>201.0</ele>
        <time>2018-03-05T14:04:48Z</time>
      </trkpt>
      <trkpt lat="38.3395520" lon="-0.6658740">
        <ele>202.0</ele>
        <time>2018-03-05T14:04:49Z</time>
      </trkpt>
      <trkpt lat="38.3395940" lon="-0.6659010">
        <ele>202.0</ele>
        <time>2018-03-05T14:04:50Z</time>
      </trkpt>
      <trkpt lat="38.3396350" lon="-0.6659250">
        <ele>203.0</ele>
        <time>2018-03-05T14:04:51Z</time>
      </trkpt>
      <trkpt lat="38.3396760" lon="-0.6659480">
        <ele>203.0</ele>
        <time>2018-03-05T14:04:52Z</time>
      </trkpt>
      <trkpt lat="38.3397150" lon="-0.6659710">
        <ele>203.0</ele>
        <time>2018-03-05T14:04:53Z</time>
      </trkpt>
      <trkpt lat="38.3397550" lon="-0.6659910">
        <ele>203.0</ele>
        <time>2018-03-05T14:04:54Z</time>
      </trkpt>
      <trkpt lat="38.3397950" lon="-0.6660110">
        <ele>204.0</ele>
        <time>2018-03-05T14:04:55Z</time>
      </trkpt>
      <trkpt lat="38.3398310" lon="-0.6660330">
        <ele>204.0</ele>
        <time>2018-03-05T14:04:56Z</time>
      </trkpt>
      <trkpt lat="38.3398700" lon="-0.6660540">
        <ele>204.0</ele>
        <time>2018-03-05T14:04:57Z</time>
      </trkpt>
      <trkpt lat="38.3399090" lon="-0.6660750">
        <ele>205.0</ele>
        <time>2018-03-05T14:04:58Z</time>
      </trkpt>
      <trkpt lat="38.3399480" lon="-0.6660950">
        <ele>205.0</ele>
        <time>2018-03-05T14:04:59Z</time>
      </trkpt>
      <trkpt lat="38.3399870" lon="-0.6661180">
        <ele>205.0</ele>
        <time>2018-03-05T14:05:00Z</time>
      </trkpt>
      <trkpt lat="38.3400260" lon="-0.6661410">
        <ele>206.0</ele>
        <time>2018-03-05T14:05:01Z</time>
      </trkpt>
      <trkpt lat="38.3400650" lon="-0.6661610">
        <ele>206.0</ele>
        <time>2018-03-05T14:05:02Z</time>
      </trkpt>
      <trkpt lat="38.3401030" lon="-0.6661790">
        <ele>206.0</ele>
        <time>2018-03-05T14:05:03Z</time>
      </trkpt>
      <trkpt lat="38.3401420" lon="-0.6661970">
        <ele>206.0</ele>
        <time>2018-03-05T14:05:04Z</time>
      </trkpt>
      <trkpt lat="38.3401790" lon="-0.6662150">
        <ele>206.0</ele>
        <time>2018-03-05T14:05:05Z</time>
      </trkpt>
      <trkpt lat="38.3402160" lon="-0.6662330">
        <ele>206.0</ele>
        <time>2018-03-05T14:05:06Z</time>
      </trkpt>
      <trkpt lat="38.3402550" lon="-0.6662500">
        <ele>207.0</ele>
        <time>2018-03-05T14:05:07Z</time>
      </trkpt>
      <trkpt lat="38.3402940" lon="-0.6662630">
        <ele>206.0</ele>
        <time>2018-03-05T14:05:08Z</time>
      </trkpt>
      <trkpt lat="38.3403340" lon="-0.6662760">
        <ele>206.0</ele>
        <time>2018-03-05T14:05:09Z</time>
      </trkpt>
      <trkpt lat="38.3403740" lon="-0.6662880">
        <ele>206.0</ele>
        <time>2018-03-05T14:05:10Z</time>
      </trkpt>
      <trkpt lat="38.3404150" lon="-0.6663000">
        <ele>207.0</ele>
        <time>2018-03-05T14:05:11Z</time>
      </trkpt>
      <trkpt lat="38.3404550" lon="-0.6663150">
        <ele>207.0</ele>
        <time>2018-03-05T14:05:12Z</time>
      </trkpt>
      <trkpt lat="38.3404940" lon="-0.6663290">
        <ele>207.0</ele>
        <time>2018-03-05T14:05:13Z</time>
      </trkpt>
      <trkpt lat="38.3405350" lon="-0.6663400">
        <ele>207.0</ele>
        <time>2018-03-05T14:05:14Z</time>
      </trkpt>
      <trkpt lat="38.3405760" lon="-0.6663500">
        <ele>207.0</ele>
        <time>2018-03-05T14:05:15Z</time>
      </trkpt>
      <trkpt lat="38.3406160" lon="-0.6663620">
        <ele>207.0</ele>
        <time>2018-03-05T14:05:16Z</time>
      </trkpt>
      <trkpt lat="38.3406560" lon="-0.6663730">
        <ele>207.0</ele>
        <time>2018-03-05T14:05:17Z</time>
      </trkpt>
      <trkpt lat="38.3406950" lon="-0.6663820">
        <ele>207.0</ele>
        <time>2018-03-05T14:05:18Z</time>
      </trkpt>
      <trkpt lat="38.3407350" lon="-0.6663930">
        <ele>207.0</ele>
        <time>2018-03-05T14:05:19Z</time>
      </trkpt>
      <trkpt lat="38.3407740" lon="-0.6664050">
        <ele>207.0</ele>
        <time>2018-03-05T14:05:20Z</time>
      </trkpt>
      <trkpt lat="38.3408140" lon="-0.6664130">
        <ele>207.0</ele>
        <time>2018-03-05T14:05:21Z</time>
      </trkpt>
      <trkpt lat="38.3408550" lon="-0.6664230">
        <ele>207.0</ele>
        <time>2018-03-05T14:05:22Z</time>
      </trkpt>
      <trkpt lat="38.3408950" lon="-0.6664330">
        <ele>207.0</ele>
        <time>2018-03-05T14:05:23Z</time>
      </trkpt>
      <trkpt lat="38.3409380" lon="-0.6664410">
        <ele>208.0</ele>
        <time>2018-03-05T14:05:24Z</time>
      </trkpt>
      <trkpt lat="38.3409800" lon="-0.6664470">
        <ele>208.0</ele>
        <time>2018-03-05T14:05:25Z</time>
      </trkpt>
      <trkpt lat="38.3410220" lon="-0.6664520">
        <ele>209.0</ele>
        <time>2018-03-05T14:05:26Z</time>
      </trkpt>
      <trkpt lat="38.3410630" lon="-0.6664590">
        <ele>209.0</ele>
        <time>2018-03-05T14:05:27Z</time>
      </trkpt>
      <trkpt lat="38.3411050" lon="-0.6664640">
        <ele>209.0</ele>
        <time>2018-03-05T14:05:28Z</time>
      </trkpt>
      <trkpt lat="38.3411470" lon="-0.6664680">
        <ele>209.0</ele>
        <time>2018-03-05T14:05:29Z</time>
      </trkpt>
      <trkpt lat="38.3411880" lon="-0.6664720">
        <ele>210.0</ele>
        <time>2018-03-05T14:05:30Z</time>
      </trkpt>
      <trkpt lat="38.3412290" lon="-0.6664800">
        <ele>210.0</ele>
        <time>2018-03-05T14:05:31Z</time>
      </trkpt>
      <trkpt lat="38.3412690" lon="-0.6664860">
        <ele>210.0</ele>
        <time>2018-03-05T14:05:32Z</time>
      </trkpt>
      <trkpt lat="38.3413100" lon="-0.6664860">
        <ele>210.0</ele>
        <time>2018-03-05T14:05:33Z</time>
      </trkpt>
      <trkpt lat="38.3413510" lon="-0.6664870">
        <ele>211.0</ele>
        <time>2018-03-05T14:05:34Z</time>
      </trkpt>
      <trkpt lat="38.3413900" lon="-0.6664880">
        <ele>211.0</ele>
        <time>2018-03-05T14:05:35Z</time>
      </trkpt>
      <trkpt lat="38.3414320" lon="-0.6664900">
        <ele>211.0</ele>
        <time>2018-03-05T14:05:36Z</time>
      </trkpt>
      <trkpt lat="38.3414720" lon="-0.6664900">
        <ele>211.0</ele>
        <time>2018-03-05T14:05:37Z</time>
      </trkpt>
      <trkpt lat="38.3415130" lon="-0.6664850">
        <ele>212.0</ele>
        <time>2018-03-05T14:05:38Z</time>
      </trkpt>
      <trkpt lat="38.3415550" lon="-0.6664780">
        <ele>212.0</ele>
        <time>2018-03-05T14:05:39Z</time>
      </trkpt>
      <trkpt lat="38.3415970" lon="-0.6664750">
        <ele>212.0</ele>
        <time>2018-03-05T14:05:40Z</time>
      </trkpt>
      <trkpt lat="38.3416390" lon="-0.6664740">
        <ele>212.0</ele>
        <time>2018-03-05T14:05:41Z</time>
      </trkpt>
      <trkpt lat="38.3416820" lon="-0.6664710">
        <ele>212.0</ele>
        <time>2018-03-05T14:05:42Z</time>
      </trkpt>
      <trkpt lat="38.3417230" lon="-0.6664670">
        <ele>212.0</ele>
        <time>2018-03-05T14:05:43Z</time>
      </trkpt>
      <trkpt lat="38.3417660" lon="-0.6664630">
        <ele>213.0</ele>
        <time>2018-03-05T14:05:44Z</time>
      </trkpt>
      <trkpt lat="38.3418080" lon="-0.6664620">
        <ele>213.0</ele>
        <time>2018-03-05T14:05:45Z</time>
      </trkpt>
      <trkpt lat="38.3418510" lon="-0.6664590">
        <ele>213.0</ele>
        <time>2018-03-05T14:05:46Z</time>
      </trkpt>
      <trkpt lat="38.3418930" lon="-0.6664550">
        <ele>213.0</ele>
        <time>2018-03-05T14:05:47Z</time>
      </trkpt>
      <trkpt lat="38.3419360" lon="-0.6664500">
        <ele>213.0</ele>
        <time>2018-03-05T14:05:48Z</time>
      </trkpt>
      <trkpt lat="38.3419790" lon="-0.6664440">
        <ele>213.0</ele>
        <time>2018-03-05T14:05:49Z</time>
      </trkpt>
      <trkpt lat="38.3420230" lon="-0.6664380">
        <ele>213.0</ele>
        <time>2018-03-05T14:05:50Z</time>
      </trkpt>
      <trkpt lat="38.3420650" lon="-0.6664330">
        <ele>214.0</ele>
        <time>2018-03-05T14:05:51Z</time>
      </trkpt>
      <trkpt lat="38.3421060" lon="-0.6664270">
        <ele>214.0</ele>
        <time>2018-03-05T14:05:52Z</time>
      </trkpt>
      <trkpt lat="38.3421480" lon="-0.6664220">
        <ele>214.0</ele>
        <time>2018-03-05T14:05:53Z</time>
      </trkpt>
      <trkpt lat="38.3421910" lon="-0.6664160">
        <ele>214.0</ele>
        <time>2018-03-05T14:05:54Z</time>
      </trkpt>
      <trkpt lat="38.3422330" lon="-0.6664110">
        <ele>215.0</ele>
        <time>2018-03-05T14:05:55Z</time>
      </trkpt>
      <trkpt lat="38.3422750" lon="-0.6664050">
        <ele>215.0</ele>
        <time>2018-03-05T14:05:56Z</time>
      </trkpt>
      <trkpt lat="38.3423170" lon="-0.6663980">
        <ele>215.0</ele>
        <time>2018-03-05T14:05:57Z</time>
      </trkpt>
      <trkpt lat="38.3423580" lon="-0.6663890">
        <ele>215.0</ele>
        <time>2018-03-05T14:05:58Z</time>
      </trkpt>
      <trkpt lat="38.3423990" lon="-0.6663830">
        <ele>215.0</ele>
        <time>2018-03-05T14:05:59Z</time>
      </trkpt>
      <trkpt lat="38.3424400" lon="-0.6663750">
        <ele>216.0</ele>
        <time>2018-03-05T14:06:00Z</time>
      </trkpt>
      <trkpt lat="38.3424820" lon="-0.6663690">
        <ele>216.0</ele>
        <time>2018-03-05T14:06:01Z</time>
      </trkpt>
      <trkpt lat="38.3425250" lon="-0.6663670">
        <ele>216.0</ele>
        <time>2018-03-05T14:06:02Z</time>
      </trkpt>
      <trkpt lat="38.3425670" lon="-0.6663640">
        <ele>216.0</ele>
        <time>2018-03-05T14:06:03Z</time>
      </trkpt>
      <trkpt lat="38.3426090" lon="-0.6663650">
        <ele>216.0</ele>
        <time>2018-03-05T14:06:04Z</time>
      </trkpt>
      <trkpt lat="38.3426510" lon="-0.6663610">
        <ele>216.0</ele>
        <time>2018-03-05T14:06:05Z</time>
      </trkpt>
      <trkpt lat="38.3426930" lon="-0.6663590">
        <ele>216.0</ele>
        <time>2018-03-05T14:06:06Z</time>
      </trkpt>
      <trkpt lat="38.3427350" lon="-0.6663630">
        <ele>216.0</ele>
        <time>2018-03-05T14:06:07Z</time>
      </trkpt>
      <trkpt lat="38.3427770" lon="-0.6663710">
        <ele>216.0</ele>
        <time>2018-03-05T14:06:08Z</time>
      </trkpt>
      <trkpt lat="38.3428180" lon="-0.6663830">
        <ele>216.0</ele>
        <time>2018-03-05T14:06:09Z</time>
      </trkpt>
      <trkpt lat="38.3428600" lon="-0.6663950">
        <ele>216.0</ele>
        <time>2018-03-05T14:06:10Z</time>
      </trkpt>
      <trkpt lat="38.3429000" lon="-0.6664100">
        <ele>216.0</ele>
        <time>2018-03-05T14:06:11Z</time>
      </trkpt>
      <trkpt lat="38.3429390" lon="-0.6664300">
        <ele>216.0</ele>
        <time>2018-03-05T14:06:12Z</time>
      </trkpt>
      <trkpt lat="38.3429790" lon="-0.6664460">
        <ele>216.0</ele>
        <time>2018-03-05T14:06:13Z</time>
      </trkpt>
      <trkpt lat="38.3430170" lon="-0.6664620">
        <ele>216.0</ele>
        <time>2018-03-05T14:06:14Z</time>
      </trkpt>
      <trkpt lat="38.3430530" lon="-0.6664790">
        <ele>216.0</ele>
        <time>2018-03-05T14:06:15Z</time>
      </trkpt>
      <trkpt lat="38.3430690" lon="-0.6665160">
        <ele>215.0</ele>
        <time>2018-03-05T14:06:16Z</time>
      </trkpt>
      <trkpt lat="38.3430650" lon="-0.6665590">
        <ele>215.0</ele>
        <time>2018-03-05T14:06:17Z</time>
      </trkpt>
      <trkpt lat="38.3430480" lon="-0.6666020">
        <ele>215.0</ele>
        <time>2018-03-05T14:06:18Z</time>
      </trkpt>
      <trkpt lat="38.3430250" lon="-0.6666240">
        <ele>215.0</ele>
        <time>2018-03-05T14:06:19Z</time>
      </trkpt>
      <trkpt lat="38.3429940" lon="-0.6666120">
        <ele>214.0</ele>
        <time>2018-03-05T14:06:20Z</time>
      </trkpt>
      <trkpt lat="38.3429540" lon="-0.6666010">
        <ele>213.0</ele>
        <time>2018-03-05T14:06:21Z</time>
      </trkpt>
      <trkpt lat="38.3429080" lon="-0.6666040">
        <ele>213.0</ele>
        <time>2018-03-05T14:06:22Z</time>
      </trkpt>
      <trkpt lat="38.3428620" lon="-0.6666160">
        <ele>213.0</ele>
        <time>2018-03-05T14:06:23Z</time>
      </trkpt>
      <trkpt lat="38.3428130" lon="-0.6666290">
        <ele>213.0</ele>
        <time>2018-03-05T14:06:24Z</time>
      </trkpt>
      <trkpt lat="38.3427660" lon="-0.6666470">
        <ele>213.0</ele>
        <time>2018-03-05T14:06:25Z</time>
      </trkpt>
      <trkpt lat="38.3427220" lon="-0.6666710">
        <ele>214.0</ele>
        <time>2018-03-05T14:06:26Z</time>
      </trkpt>
      <trkpt lat="38.3426860" lon="-0.6667030">
        <ele>214.0</ele>
        <time>2018-03-05T14:06:27Z</time>
      </trkpt>
      <trkpt lat="38.3426650" lon="-0.6667440">
        <ele>215.0</ele>
        <time>2018-03-05T14:06:28Z</time>
      </trkpt>
      <trkpt lat="38.3426580" lon="-0.6667820">
        <ele>215.0</ele>
        <time>2018-03-05T14:06:29Z</time>
      </trkpt>
      <trkpt lat="38.3426520" lon="-0.6668210">
        <ele>216.0</ele>
        <time>2018-03-05T14:06:30Z</time>
      </trkpt>
      <trkpt lat="38.3426500" lon="-0.6668580">
        <ele>216.0</ele>
        <time>2018-03-05T14:06:31Z</time>
      </trkpt>
      <trkpt lat="38.3426480" lon="-0.6668990">
        <ele>216.0</ele>
        <time>2018-03-05T14:06:32Z</time>
      </trkpt>
      <trkpt lat="38.3426480" lon="-0.6669380">
        <ele>216.0</ele>
        <time>2018-03-05T14:06:33Z</time>
      </trkpt>
      <trkpt lat="38.3426480" lon="-0.6669800">
        <ele>217.0</ele>
        <time>2018-03-05T14:06:34Z</time>
      </trkpt>
      <trkpt lat="38.3426470" lon="-0.6670230">
        <ele>217.0</ele>
        <time>2018-03-05T14:06:35Z</time>
      </trkpt>
      <trkpt lat="38.3426470" lon="-0.6670640">
        <ele>218.0</ele>
        <time>2018-03-05T14:06:36Z</time>
      </trkpt>
      <trkpt lat="38.3426470" lon="-0.6671050">
        <ele>218.0</ele>
        <time>2018-03-05T14:06:37Z</time>
      </trkpt>
      <trkpt lat="38.3426470" lon="-0.6671460">
        <ele>218.0</ele>
        <time>2018-03-05T14:06:38Z</time>
      </trkpt>
      <trkpt lat="38.3426450" lon="-0.6671890">
        <ele>218.0</ele>
        <time>2018-03-05T14:06:39Z</time>
      </trkpt>
      <trkpt lat="38.3426450" lon="-0.6672290">
        <ele>219.0</ele>
        <time>2018-03-05T14:06:40Z</time>
      </trkpt>
      <trkpt lat="38.3426460" lon="-0.6672730">
        <ele>219.0</ele>
        <time>2018-03-05T14:06:41Z</time>
      </trkpt>
      <trkpt lat="38.3426440" lon="-0.6673160">
        <ele>219.0</ele>
        <time>2018-03-05T14:06:42Z</time>
      </trkpt>
      <trkpt lat="38.3426420" lon="-0.6673540">
        <ele>219.0</ele>
        <time>2018-03-05T14:06:43Z</time>
      </trkpt>
      <trkpt lat="38.3426420" lon="-0.6673920">
        <ele>220.0</ele>
        <time>2018-03-05T14:06:44Z</time>
      </trkpt>
      <trkpt lat="38.3426410" lon="-0.6674300">
        <ele>220.0</ele>
        <time>2018-03-05T14:06:45Z</time>
      </trkpt>
      <trkpt lat="38.3426420" lon="-0.6674690">
        <ele>220.0</ele>
        <time>2018-03-05T14:06:46Z</time>
      </trkpt>
      <trkpt lat="38.3426450" lon="-0.6675060">
        <ele>221.0</ele>
        <time>2018-03-05T14:06:47Z</time>
      </trkpt>
      <trkpt lat="38.3426480" lon="-0.6675440">
        <ele>221.0</ele>
        <time>2018-03-05T14:06:48Z</time>
      </trkpt>
      <trkpt lat="38.3426490" lon="-0.6675820">
        <ele>221.0</ele>
        <time>2018-03-05T14:06:49Z</time>
      </trkpt>
      <trkpt lat="38.3426490" lon="-0.6676220">
        <ele>221.0</ele>
        <time>2018-03-05T14:06:50Z</time>
      </trkpt>
      <trkpt lat="38.3426480" lon="-0.6676610">
        <ele>221.0</ele>
        <time>2018-03-05T14:06:51Z</time>
      </trkpt>
      <trkpt lat="38.3426490" lon="-0.6677010">
        <ele>221.0</ele>
        <time>2018-03-05T14:06:52Z</time>
      </trkpt>
      <trkpt lat="38.3426470" lon="-0.6677410">
        <ele>221.0</ele>
        <time>2018-03-05T14:06:53Z</time>
      </trkpt>
      <trkpt lat="38.3426450" lon="-0.6677790">
        <ele>222.0</ele>
        <time>2018-03-05T14:06:54Z</time>
      </trkpt>
      <trkpt lat="38.3426410" lon="-0.6678160">
        <ele>222.0</ele>
        <time>2018-03-05T14:06:55Z</time>
      </trkpt>
      <trkpt lat="38.3426360" lon="-0.6678530">
        <ele>222.0</ele>
        <time>2018-03-05T14:06:56Z</time>
      </trkpt>
      <trkpt lat="38.3426320" lon="-0.6678910">
        <ele>222.0</ele>
        <time>2018-03-05T14:06:57Z</time>
      </trkpt>
      <trkpt lat="38.3426310" lon="-0.6679300">
        <ele>222.0</ele>
        <time>2018-03-05T14:06:58Z</time>
      </trkpt>
      <trkpt lat="38.3426290" lon="-0.6679700">
        <ele>222.0</ele>
        <time>2018-03-05T14:06:59Z</time>
      </trkpt>
      <trkpt lat="38.3426270" lon="-0.6680120">
        <ele>222.0</ele>
        <time>2018-03-05T14:07:00Z</time>
      </trkpt>
      <trkpt lat="38.3426270" lon="-0.6680530">
        <ele>222.0</ele>
        <time>2018-03-05T14:07:01Z</time>
      </trkpt>
      <trkpt lat="38.3426280" lon="-0.6680930">
        <ele>222.0</ele>
        <time>2018-03-05T14:07:02Z</time>
      </trkpt>
      <trkpt lat="38.3426250" lon="-0.6681320">
        <ele>222.0</ele>
        <time>2018-03-05T14:07:03Z</time>
      </trkpt>
      <trkpt lat="38.3426230" lon="-0.6681730">
        <ele>223.0</ele>
        <time>2018-03-05T14:07:04Z</time>
      </trkpt>
      <trkpt lat="38.3426210" lon="-0.6682120">
        <ele>223.0</ele>
        <time>2018-03-05T14:07:05Z</time>
      </trkpt>
      <trkpt lat="38.3426180" lon="-0.6682480">
        <ele>223.0</ele>
        <time>2018-03-05T14:07:06Z</time>
      </trkpt>
      <trkpt lat="38.3426150" lon="-0.6682830">
        <ele>223.0</ele>
        <time>2018-03-05T14:07:07Z</time>
      </trkpt>
      <trkpt lat="38.3426150" lon="-0.6683190">
        <ele>224.0</ele>
        <time>2018-03-05T14:07:08Z</time>
      </trkpt>
      <trkpt lat="38.3426160" lon="-0.6683580">
        <ele>225.0</ele>
        <time>2018-03-05T14:07:09Z</time>
      </trkpt>
      <trkpt lat="38.3426200" lon="-0.6683960">
        <ele>225.0</ele>
        <time>2018-03-05T14:07:10Z</time>
      </trkpt>
      <trkpt lat="38.3426250" lon="-0.6684330">
        <ele>225.0</ele>
        <time>2018-03-05T14:07:11Z</time>
      </trkpt>
      <trkpt lat="38.3426330" lon="-0.6684720">
        <ele>226.0</ele>
        <time>2018-03-05T14:07:12Z</time>
      </trkpt>
      <trkpt lat="38.3426490" lon="-0.6685100">
        <ele>226.0</ele>
        <time>2018-03-05T14:07:13Z</time>
      </trkpt>
      <trkpt lat="38.3426750" lon="-0.6685430">
        <ele>226.0</ele>
        <time>2018-03-05T14:07:14Z</time>
      </trkpt>
      <trkpt lat="38.3427070" lon="-0.6685710">
        <ele>226.0</ele>
        <time>2018-03-05T14:07:15Z</time>
      </trkpt>
      <trkpt lat="38.3427430" lon="-0.6685940">
        <ele>226.0</ele>
        <time>2018-03-05T14:07:16Z</time>
      </trkpt>
      <trkpt lat="38.3427860" lon="-0.6686110">
        <ele>227.0</ele>
        <time>2018-03-05T14:07:17Z</time>
      </trkpt>
      <trkpt lat="38.3428270" lon="-0.6686200">
        <ele>227.0</ele>
        <time>2018-03-05T14:07:18Z</time>
      </trkpt>
      <trkpt lat="38.3428700" lon="-0.6686300">
        <ele>227.0</ele>
        <time>2018-03-05T14:07:19Z</time>
      </trkpt>
      <trkpt lat="38.3429110" lon="-0.6686450">
        <ele>227.0</ele>
        <time>2018-03-05T14:07:20Z</time>
      </trkpt>
      <trkpt lat="38.3429530" lon="-0.6686630">
        <ele>227.0</ele>
        <time>2018-03-05T14:07:21Z</time>
      </trkpt>
      <trkpt lat="38.3429960" lon="-0.6686800">
        <ele>227.0</ele>
        <time>2018-03-05T14:07:22Z</time>
      </trkpt>
      <trkpt lat="38.3430360" lon="-0.6687000">
        <ele>227.0</ele>
        <time>2018-03-05T14:07:23Z</time>
      </trkpt>
      <trkpt lat="38.3430780" lon="-0.6687200">
        <ele>228.0</ele>
        <time>2018-03-05T14:07:24Z</time>
      </trkpt>
      <trkpt lat="38.3431170" lon="-0.6687380">
        <ele>228.0</ele>
        <time>2018-03-05T14:07:25Z</time>
      </trkpt>
      <trkpt lat="38.3431540" lon="-0.6687560">
        <ele>228.0</ele>
        <time>2018-03-05T14:07:26Z</time>
      </trkpt>
      <trkpt lat="38.3431890" lon="-0.6687730">
        <ele>228.0</ele>
        <time>2018-03-05T14:07:27Z</time>
      </trkpt>
      <trkpt lat="38.3432230" lon="-0.6687880">
        <ele>228.0</ele>
        <time>2018-03-05T14:07:28Z</time>
      </trkpt>
      <trkpt lat="38.3432560" lon="-0.6688020">
        <ele>229.0</ele>
        <time>2018-03-05T14:07:29Z</time>
      </trkpt>
      <trkpt lat="38.3432880" lon="-0.6688180">
        <ele>229.0</ele>
        <time>2018-03-05T14:07:30Z</time>
      </trkpt>
      <trkpt lat="38.3433210" lon="-0.6688310">
        <ele>229.0</ele>
        <time>2018-03-05T14:07:31Z</time>
      </trkpt>
      <trkpt lat="38.3433540" lon="-0.6688430">
        <ele>229.0</ele>
        <time>2018-03-05T14:07:32Z</time>
      </trkpt>
      <trkpt lat="38.3433880" lon="-0.6688560">
        <ele>229.0</ele>
        <time>2018-03-05T14:07:33Z</time>
      </trkpt>
      <trkpt lat="38.3434200" lon="-0.6688690">
        <ele>229.0</ele>
        <time>2018-03-05T14:07:34Z</time>
      </trkpt>
      <trkpt lat="38.3434540" lon="-0.6688820">
        <ele>229.0</ele>
        <time>2018-03-05T14:07:35Z</time>
      </trkpt>
      <trkpt lat="38.3434880" lon="-0.6689000">
        <ele>229.0</ele>
        <time>2018-03-05T14:07:36Z</time>
      </trkpt>
      <trkpt lat="38.3435210" lon="-0.6689210">
        <ele>229.0</ele>
        <time>2018-03-05T14:07:37Z</time>
      </trkpt>
      <trkpt lat="38.3435520" lon="-0.6689460">
        <ele>229.0</ele>
        <time>2018-03-05T14:07:38Z</time>
      </trkpt>
      <trkpt lat="38.3435800" lon="-0.6689720">
        <ele>229.0</ele>
        <time>2018-03-05T14:07:39Z</time>
      </trkpt>
      <trkpt lat="38.3436100" lon="-0.6689930">
        <ele>229.0</ele>
        <time>2018-03-05T14:07:40Z</time>
      </trkpt>
      <trkpt lat="38.3436300" lon="-0.6690210">
        <ele>229.0</ele>
        <time>2018-03-05T14:07:41Z</time>
      </trkpt>
      <trkpt lat="38.3436450" lon="-0.6690490">
        <ele>229.0</ele>
        <time>2018-03-05T14:07:42Z</time>
      </trkpt>
      <trkpt lat="38.3436590" lon="-0.6690830">
        <ele>229.0</ele>
        <time>2018-03-05T14:07:43Z</time>
      </trkpt>
      <trkpt lat="38.3436680" lon="-0.6691190">
        <ele>228.0</ele>
        <time>2018-03-05T14:07:44Z</time>
      </trkpt>
      <trkpt lat="38.3436680" lon="-0.6691580">
        <ele>228.0</ele>
        <time>2018-03-05T14:07:45Z</time>
      </trkpt>
      <trkpt lat="38.3436610" lon="-0.6691920">
        <ele>228.0</ele>
        <time>2018-03-05T14:07:46Z</time>
      </trkpt>
      <trkpt lat="38.3436500" lon="-0.6692280">
        <ele>228.0</ele>
        <time>2018-03-05T14:07:47Z</time>
      </trkpt>
      <trkpt lat="38.3436380" lon="-0.6692680">
        <ele>229.0</ele>
        <time>2018-03-05T14:07:48Z</time>
      </trkpt>
      <trkpt lat="38.3436290" lon="-0.6693080">
        <ele>229.0</ele>
        <time>2018-03-05T14:07:49Z</time>
      </trkpt>
      <trkpt lat="38.3436220" lon="-0.6693470">
        <ele>229.0</ele>
        <time>2018-03-05T14:07:50Z</time>
      </trkpt>
      <trkpt lat="38.3436130" lon="-0.6693920">
        <ele>229.0</ele>
        <time>2018-03-05T14:07:51Z</time>
      </trkpt>
      <trkpt lat="38.3436070" lon="-0.6694350">
        <ele>229.0</ele>
        <time>2018-03-05T14:07:52Z</time>
      </trkpt>
      <trkpt lat="38.3435990" lon="-0.6694780">
        <ele>229.0</ele>
        <time>2018-03-05T14:07:53Z</time>
      </trkpt>
      <trkpt lat="38.3435910" lon="-0.6695210">
        <ele>229.0</ele>
        <time>2018-03-05T14:07:54Z</time>
      </trkpt>
      <trkpt lat="38.3435860" lon="-0.6695630">
        <ele>229.0</ele>
        <time>2018-03-05T14:07:55Z</time>
      </trkpt>
      <trkpt lat="38.3435800" lon="-0.6696040">
        <ele>230.0</ele>
        <time>2018-03-05T14:07:56Z</time>
      </trkpt>
      <trkpt lat="38.3435750" lon="-0.6696440">
        <ele>230.0</ele>
        <time>2018-03-05T14:07:57Z</time>
      </trkpt>
      <trkpt lat="38.3435700" lon="-0.6696830">
        <ele>230.0</ele>
        <time>2018-03-05T14:07:58Z</time>
      </trkpt>
      <trkpt lat="38.3435650" lon="-0.6697220">
        <ele>230.0</ele>
        <time>2018-03-05T14:07:59Z</time>
      </trkpt>
      <trkpt lat="38.3435590" lon="-0.6697610">
        <ele>230.0</ele>
        <time>2018-03-05T14:08:00Z</time>
      </trkpt>
      <trkpt lat="38.3435540" lon="-0.6698010">
        <ele>230.0</ele>
        <time>2018-03-05T14:08:01Z</time>
      </trkpt>
      <trkpt lat="38.3435470" lon="-0.6698420">
        <ele>231.0</ele>
        <time>2018-03-05T14:08:02Z</time>
      </trkpt>
      <trkpt lat="38.3435420" lon="-0.6698830">
        <ele>231.0</ele>
        <time>2018-03-05T14:08:03Z</time>
      </trkpt>
      <trkpt lat="38.3435380" lon="-0.6699230">
        <ele>231.0</ele>
        <time>2018-03-05T14:08:04Z</time>
      </trkpt>
      <trkpt lat="38.3435350" lon="-0.6699640">
        <ele>232.0</ele>
        <time>2018-03-05T14:08:05Z</time>
      </trkpt>
      <trkpt lat="38.3435290" lon="-0.6700010">
        <ele>232.0</ele>
        <time>2018-03-05T14:08:06Z</time>
      </trkpt>
      <trkpt lat="38.3435260" lon="-0.6700360">
        <ele>233.0</ele>
        <time>2018-03-05T14:08:07Z</time>
      </trkpt>
      <trkpt lat="38.3435250" lon="-0.6700710">
        <ele>233.0</ele>
        <time>2018-03-05T14:08:08Z</time>
      </trkpt>
      <trkpt lat="38.3435240" lon="-0.6701070">
        <ele>233.0</ele>
        <time>2018-03-05T14:08:09Z</time>
      </trkpt>
      <trkpt lat="38.3435250" lon="-0.6701450">
        <ele>233.0</ele>
        <time>2018-03-05T14:08:10Z</time>
      </trkpt>
      <trkpt lat="38.3435270" lon="-0.6701850">
        <ele>234.0</ele>
        <time>2018-03-05T14:08:11Z</time>
      </trkpt>
      <trkpt lat="38.3435320" lon="-0.6702250">
        <ele>234.0</ele>
        <time>2018-03-05T14:08:12Z</time>
      </trkpt>
      <trkpt lat="38.3435370" lon="-0.6702660">
        <ele>234.0</ele>
        <time>2018-03-05T14:08:13Z</time>
      </trkpt>
      <trkpt lat="38.3435440" lon="-0.6703060">
        <ele>235.0</ele>
        <time>2018-03-05T14:08:14Z</time>
      </trkpt>
      <trkpt lat="38.3435530" lon="-0.6703460">
        <ele>235.0</ele>
        <time>2018-03-05T14:08:15Z</time>
      </trkpt>
      <trkpt lat="38.3435630" lon="-0.6703870">
        <ele>235.0</ele>
        <time>2018-03-05T14:08:16Z</time>
      </trkpt>
      <trkpt lat="38.3435740" lon="-0.6704260">
        <ele>236.0</ele>
        <time>2018-03-05T14:08:17Z</time>
      </trkpt>
      <trkpt lat="38.3435850" lon="-0.6704660">
        <ele>236.0</ele>
        <time>2018-03-05T14:08:18Z</time>
      </trkpt>
      <trkpt lat="38.3435980" lon="-0.6705060">
        <ele>236.0</ele>
        <time>2018-03-05T14:08:19Z</time>
      </trkpt>
      <trkpt lat="38.3436120" lon="-0.6705460">
        <ele>236.0</ele>
        <time>2018-03-05T14:08:20Z</time>
      </trkpt>
      <trkpt lat="38.3436250" lon="-0.6705850">
        <ele>237.0</ele>
        <time>2018-03-05T14:08:21Z</time>
      </trkpt>
      <trkpt lat="38.3436340" lon="-0.6706270">
        <ele>237.0</ele>
        <time>2018-03-05T14:08:22Z</time>
      </trkpt>
      <trkpt lat="38.3436400" lon="-0.6706690">
        <ele>236.0</ele>
        <time>2018-03-05T14:08:23Z</time>
      </trkpt>
      <trkpt lat="38.3436420" lon="-0.6707130">
        <ele>237.0</ele>
        <time>2018-03-05T14:08:24Z</time>
      </trkpt>
      <trkpt lat="38.3436420" lon="-0.6707580">
        <ele>237.0</ele>
        <time>2018-03-05T14:08:25Z</time>
      </trkpt>
      <trkpt lat="38.3436380" lon="-0.6708020">
        <ele>237.0</ele>
        <time>2018-03-05T14:08:26Z</time>
      </trkpt>
      <trkpt lat="38.3436330" lon="-0.6708460">
        <ele>237.0</ele>
        <time>2018-03-05T14:08:27Z</time>
      </trkpt>
      <trkpt lat="38.3436260" lon="-0.6708910">
        <ele>238.0</ele>
        <time>2018-03-05T14:08:28Z</time>
      </trkpt>
      <trkpt lat="38.3436210" lon="-0.6709350">
        <ele>238.0</ele>
        <time>2018-03-05T14:08:29Z</time>
      </trkpt>
      <trkpt lat="38.3436130" lon="-0.6709790">
        <ele>238.0</ele>
        <time>2018-03-05T14:08:30Z</time>
      </trkpt>
      <trkpt lat="38.3436040" lon="-0.6710210">
        <ele>238.0</ele>
        <time>2018-03-05T14:08:31Z</time>
      </trkpt>
      <trkpt lat="38.3435990" lon="-0.6710630">
        <ele>239.0</ele>
        <time>2018-03-05T14:08:32Z</time>
      </trkpt>
      <trkpt lat="38.3435920" lon="-0.6711050">
        <ele>239.0</ele>
        <time>2018-03-05T14:08:33Z</time>
      </trkpt>
      <trkpt lat="38.3435860" lon="-0.6711480">
        <ele>239.0</ele>
        <time>2018-03-05T14:08:34Z</time>
      </trkpt>
      <trkpt lat="38.3435770" lon="-0.6711900">
        <ele>239.0</ele>
        <time>2018-03-05T14:08:35Z</time>
      </trkpt>
      <trkpt lat="38.3435670" lon="-0.6712320">
        <ele>239.0</ele>
        <time>2018-03-05T14:08:36Z</time>
      </trkpt>
      <trkpt lat="38.3435590" lon="-0.6712740">
        <ele>239.0</ele>
        <time>2018-03-05T14:08:37Z</time>
      </trkpt>
      <trkpt lat="38.3435530" lon="-0.6713150">
        <ele>240.0</ele>
        <time>2018-03-05T14:08:38Z</time>
      </trkpt>
      <trkpt lat="38.3435510" lon="-0.6713540">
        <ele>240.0</ele>
        <time>2018-03-05T14:08:39Z</time>
      </trkpt>
      <trkpt lat="38.3435470" lon="-0.6713890">
        <ele>240.0</ele>
        <time>2018-03-05T14:08:40Z</time>
      </trkpt>
      <trkpt lat="38.3435420" lon="-0.6714220">
        <ele>241.0</ele>
        <time>2018-03-05T14:08:41Z</time>
      </trkpt>
      <trkpt lat="38.3435400" lon="-0.6714550">
        <ele>241.0</ele>
        <time>2018-03-05T14:08:42Z</time>
      </trkpt>
      <trkpt lat="38.3435380" lon="-0.6714900">
        <ele>241.0</ele>
        <time>2018-03-05T14:08:43Z</time>
      </trkpt>
      <trkpt lat="38.3435370" lon="-0.6715250">
        <ele>241.0</ele>
        <time>2018-03-05T14:08:44Z</time>
      </trkpt>
      <trkpt lat="38.3435330" lon="-0.6715600">
        <ele>242.0</ele>
        <time>2018-03-05T14:08:45Z</time>
      </trkpt>
      <trkpt lat="38.3435310" lon="-0.6715970">
        <ele>242.0</ele>
        <time>2018-03-05T14:08:46Z</time>
      </trkpt>
      <trkpt lat="38.3435330" lon="-0.6716340">
        <ele>242.0</ele>
        <time>2018-03-05T14:08:47Z</time>
      </trkpt>
      <trkpt lat="38.3435310" lon="-0.6716700">
        <ele>243.0</ele>
        <time>2018-03-05T14:08:48Z</time>
      </trkpt>
      <trkpt lat="38.3435270" lon="-0.6717050">
        <ele>243.0</ele>
        <time>2018-03-05T14:08:49Z</time>
      </trkpt>
      <trkpt lat="38.3435210" lon="-0.6717380">
        <ele>243.0</ele>
        <time>2018-03-05T14:08:50Z</time>
      </trkpt>
      <trkpt lat="38.3435180" lon="-0.6717720">
        <ele>243.0</ele>
        <time>2018-03-05T14:08:51Z</time>
      </trkpt>
      <trkpt lat="38.3435150" lon="-0.6718050">
        <ele>244.0</ele>
        <time>2018-03-05T14:08:52Z</time>
      </trkpt>
      <trkpt lat="38.3435100" lon="-0.6718350">
        <ele>244.0</ele>
        <time>2018-03-05T14:08:53Z</time>
      </trkpt>
      <trkpt lat="38.3435030" lon="-0.6718630">
        <ele>244.0</ele>
        <time>2018-03-05T14:08:54Z</time>
      </trkpt>
      <trkpt lat="38.3434970" lon="-0.6718920">
        <ele>245.0</ele>
        <time>2018-03-05T14:08:55Z</time>
      </trkpt>
      <trkpt lat="38.3434900" lon="-0.6719230">
        <ele>245.0</ele>
        <time>2018-03-05T14:08:56Z</time>
      </trkpt>
      <trkpt lat="38.3434870" lon="-0.6719550">
        <ele>245.0</ele>
        <time>2018-03-05T14:08:57Z</time>
      </trkpt>
      <trkpt lat="38.3434820" lon="-0.6719850">
        <ele>245.0</ele>
        <time>2018-03-05T14:08:58Z</time>
      </trkpt>
      <trkpt lat="38.3434780" lon="-0.6720190">
        <ele>245.0</ele>
        <time>2018-03-05T14:08:59Z</time>
      </trkpt>
      <trkpt lat="38.3434700" lon="-0.6720590">
        <ele>245.0</ele>
        <time>2018-03-05T14:09:00Z</time>
      </trkpt>
      <trkpt lat="38.3434630" lon="-0.6721010">
        <ele>245.0</ele>
        <time>2018-03-05T14:09:01Z</time>
      </trkpt>
      <trkpt lat="38.3434550" lon="-0.6721440">
        <ele>245.0</ele>
        <time>2018-03-05T14:09:02Z</time>
      </trkpt>
      <trkpt lat="38.3434460" lon="-0.6721860">
        <ele>245.0</ele>
        <time>2018-03-05T14:09:03Z</time>
      </trkpt>
      <trkpt lat="38.3434390" lon="-0.6722260">
        <ele>245.0</ele>
        <time>2018-03-05T14:09:04Z</time>
      </trkpt>
      <trkpt lat="38.3434310" lon="-0.6722640">
        <ele>246.0</ele>
        <time>2018-03-05T14:09:05Z</time>
      </trkpt>
      <trkpt lat="38.3434190" lon="-0.6722960">
        <ele>246.0</ele>
        <time>2018-03-05T14:09:06Z</time>
      </trkpt>
      <trkpt lat="38.3434030" lon="-0.6723250">
        <ele>246.0</ele>
        <time>2018-03-05T14:09:07Z</time>
      </trkpt>
      <trkpt lat="38.3433880" lon="-0.6723520">
        <ele>246.0</ele>
        <time>2018-03-05T14:09:08Z</time>
      </trkpt>
      <trkpt lat="38.3433730" lon="-0.6723780">
        <ele>247.0</ele>
        <time>2018-03-05T14:09:09Z</time>
      </trkpt>
      <trkpt lat="38.3433550" lon="-0.6724040">
        <ele>247.0</ele>
        <time>2018-03-05T14:09:10Z</time>
      </trkpt>
      <trkpt lat="38.3433400" lon="-0.6724390">
        <ele>247.0</ele>
        <time>2018-03-05T14:09:11Z</time>
      </trkpt>
      <trkpt lat="38.3433270" lon="-0.6724740">
        <ele>247.0</ele>
        <time>2018-03-05T14:09:12Z</time>
      </trkpt>
      <trkpt lat="38.3433100" lon="-0.6725100">
        <ele>247.0</ele>
        <time>2018-03-05T14:09:13Z</time>
      </trkpt>
      <trkpt lat="38.3432930" lon="-0.6725410">
        <ele>247.0</ele>
        <time>2018-03-05T14:09:14Z</time>
      </trkpt>
      <trkpt lat="38.3432740" lon="-0.6725700">
        <ele>247.0</ele>
        <time>2018-03-05T14:09:15Z</time>
      </trkpt>
      <trkpt lat="38.3432570" lon="-0.6725980">
        <ele>248.0</ele>
        <time>2018-03-05T14:09:16Z</time>
      </trkpt>
      <trkpt lat="38.3432430" lon="-0.6726250">
        <ele>248.0</ele>
        <time>2018-03-05T14:09:17Z</time>
      </trkpt>
      <trkpt lat="38.3432300" lon="-0.6726530">
        <ele>248.0</ele>
        <time>2018-03-05T14:09:18Z</time>
      </trkpt>
      <trkpt lat="38.3432180" lon="-0.6726810">
        <ele>248.0</ele>
        <time>2018-03-05T14:09:19Z</time>
      </trkpt>
      <trkpt lat="38.3432100" lon="-0.6727100">
        <ele>248.0</ele>
        <time>2018-03-05T14:09:20Z</time>
      </trkpt>
      <trkpt lat="38.3432040" lon="-0.6727440">
        <ele>248.0</ele>
        <time>2018-03-05T14:09:21Z</time>
      </trkpt>
      <trkpt lat="38.3431960" lon="-0.6727760">
        <ele>248.0</ele>
        <time>2018-03-05T14:09:22Z</time>
      </trkpt>
      <trkpt lat="38.3431870" lon="-0.6728080">
        <ele>249.0</ele>
        <time>2018-03-05T14:09:23Z</time>
      </trkpt>
      <trkpt lat="38.3431800" lon="-0.6728410">
        <ele>248.0</ele>
        <time>2018-03-05T14:09:24Z</time>
      </trkpt>
      <trkpt lat="38.3431710" lon="-0.6728740">
        <ele>248.0</ele>
        <time>2018-03-05T14:09:25Z</time>
      </trkpt>
      <trkpt lat="38.3431650" lon="-0.6729060">
        <ele>249.0</ele>
        <time>2018-03-05T14:09:26Z</time>
      </trkpt>
      <trkpt lat="38.3431580" lon="-0.6729420">
        <ele>249.0</ele>
        <time>2018-03-05T14:09:27Z</time>
      </trkpt>
      <trkpt lat="38.3431530" lon="-0.6729800">
        <ele>249.0</ele>
        <time>2018-03-05T14:09:28Z</time>
      </trkpt>
      <trkpt lat="38.3431500" lon="-0.6730230">
        <ele>249.0</ele>
        <time>2018-03-05T14:09:29Z</time>
      </trkpt>
      <trkpt lat="38.3431520" lon="-0.6730610">
        <ele>249.0</ele>
        <time>2018-03-05T14:09:30Z</time>
      </trkpt>
      <trkpt lat="38.3431540" lon="-0.6731040">
        <ele>248.0</ele>
        <time>2018-03-05T14:09:31Z</time>
      </trkpt>
      <trkpt lat="38.3431580" lon="-0.6731460">
        <ele>248.0</ele>
        <time>2018-03-05T14:09:32Z</time>
      </trkpt>
      <trkpt lat="38.3431650" lon="-0.6731890">
        <ele>248.0</ele>
        <time>2018-03-05T14:09:33Z</time>
      </trkpt>
      <trkpt lat="38.3431720" lon="-0.6732320">
        <ele>248.0</ele>
        <time>2018-03-05T14:09:34Z</time>
      </trkpt>
      <trkpt lat="38.3431780" lon="-0.6732750">
        <ele>248.0</ele>
        <time>2018-03-05T14:09:35Z</time>
      </trkpt>
      <trkpt lat="38.3431850" lon="-0.6733180">
        <ele>248.0</ele>
        <time>2018-03-05T14:09:36Z</time>
      </trkpt>
      <trkpt lat="38.3431910" lon="-0.6733600">
        <ele>248.0</ele>
        <time>2018-03-05T14:09:37Z</time>
      </trkpt>
      <trkpt lat="38.3431970" lon="-0.6734030">
        <ele>248.0</ele>
        <time>2018-03-05T14:09:38Z</time>
      </trkpt>
      <trkpt lat="38.3432030" lon="-0.6734440">
        <ele>248.0</ele>
        <time>2018-03-05T14:09:39Z</time>
      </trkpt>
      <trkpt lat="38.3432120" lon="-0.6734890">
        <ele>248.0</ele>
        <time>2018-03-05T14:09:40Z</time>
      </trkpt>
      <trkpt lat="38.3432180" lon="-0.6735360">
        <ele>247.0</ele>
        <time>2018-03-05T14:09:41Z</time>
      </trkpt>
      <trkpt lat="38.3432210" lon="-0.6735840">
        <ele>247.0</ele>
        <time>2018-03-05T14:09:42Z</time>
      </trkpt>
      <trkpt lat="38.3432220" lon="-0.6736320">
        <ele>247.0</ele>
        <time>2018-03-05T14:09:43Z</time>
      </trkpt>
      <trkpt lat="38.3432210" lon="-0.6736810">
        <ele>247.0</ele>
        <time>2018-03-05T14:09:44Z</time>
      </trkpt>
      <trkpt lat="38.3432180" lon="-0.6737270">
        <ele>247.0</ele>
        <time>2018-03-05T14:09:45Z</time>
      </trkpt>
      <trkpt lat="38.3432140" lon="-0.6737720">
        <ele>248.0</ele>
        <time>2018-03-05T14:09:46Z</time>
      </trkpt>
      <trkpt lat="38.3432080" lon="-0.6738160">
        <ele>248.0</ele>
        <time>2018-03-05T14:09:47Z</time>
      </trkpt>
      <trkpt lat="38.3432030" lon="-0.6738550">
        <ele>249.0</ele>
        <time>2018-03-05T14:09:48Z</time>
      </trkpt>
      <trkpt lat="38.3432020" lon="-0.6738920">
        <ele>249.0</ele>
        <time>2018-03-05T14:09:49Z</time>
      </trkpt>
      <trkpt lat="38.3432000" lon="-0.6739250">
        <ele>250.0</ele>
        <time>2018-03-05T14:09:50Z</time>
      </trkpt>
      <trkpt lat="38.3431960" lon="-0.6739580">
        <ele>250.0</ele>
        <time>2018-03-05T14:09:51Z</time>
      </trkpt>
      <trkpt lat="38.3431970" lon="-0.6739920">
        <ele>250.0</ele>
        <time>2018-03-05T14:09:52Z</time>
      </trkpt>
      <trkpt lat="38.3431920" lon="-0.6740250">
        <ele>251.0</ele>
        <time>2018-03-05T14:09:53Z</time>
      </trkpt>
      <trkpt lat="38.3431910" lon="-0.6740590">
        <ele>251.0</ele>
        <time>2018-03-05T14:09:54Z</time>
      </trkpt>
      <trkpt lat="38.3431900" lon="-0.6740930">
        <ele>251.0</ele>
        <time>2018-03-05T14:09:55Z</time>
      </trkpt>
      <trkpt lat="38.3431890" lon="-0.6741280">
        <ele>251.0</ele>
        <time>2018-03-05T14:09:56Z</time>
      </trkpt>
      <trkpt lat="38.3431890" lon="-0.6741610">
        <ele>252.0</ele>
        <time>2018-03-05T14:09:57Z</time>
      </trkpt>
      <trkpt lat="38.3431910" lon="-0.6741970">
        <ele>252.0</ele>
        <time>2018-03-05T14:09:58Z</time>
      </trkpt>
      <trkpt lat="38.3431930" lon="-0.6742360">
        <ele>252.0</ele>
        <time>2018-03-05T14:09:59Z</time>
      </trkpt>
      <trkpt lat="38.3431950" lon="-0.6742700">
        <ele>253.0</ele>
        <time>2018-03-05T14:10:00Z</time>
      </trkpt>
      <trkpt lat="38.3431990" lon="-0.6743010">
        <ele>253.0</ele>
        <time>2018-03-05T14:10:01Z</time>
      </trkpt>
      <trkpt lat="38.3432030" lon="-0.6743370">
        <ele>253.0</ele>
        <time>2018-03-05T14:10:02Z</time>
      </trkpt>
      <trkpt lat="38.3432060" lon="-0.6743750">
        <ele>253.0</ele>
        <time>2018-03-05T14:10:03Z</time>
      </trkpt>
      <trkpt lat="38.3432060" lon="-0.6744200">
        <ele>253.0</ele>
        <time>2018-03-05T14:10:04Z</time>
      </trkpt>
      <trkpt lat="38.3432060" lon="-0.6744670">
        <ele>253.0</ele>
        <time>2018-03-05T14:10:05Z</time>
      </trkpt>
      <trkpt lat="38.3432050" lon="-0.6745190">
        <ele>253.0</ele>
        <time>2018-03-05T14:10:06Z</time>
      </trkpt>
      <trkpt lat="38.3432020" lon="-0.6745710">
        <ele>253.0</ele>
        <time>2018-03-05T14:10:07Z</time>
      </trkpt>
      <trkpt lat="38.3431970" lon="-0.6746230">
        <ele>253.0</ele>
        <time>2018-03-05T14:10:08Z</time>
      </trkpt>
      <trkpt lat="38.3431900" lon="-0.6746740">
        <ele>253.0</ele>
        <time>2018-03-05T14:10:09Z</time>
      </trkpt>
      <trkpt lat="38.3431830" lon="-0.6747210">
        <ele>253.0</ele>
        <time>2018-03-05T14:10:10Z</time>
      </trkpt>
      <trkpt lat="38.3431790" lon="-0.6747680">
        <ele>253.0</ele>
        <time>2018-03-05T14:10:11Z</time>
      </trkpt>
      <trkpt lat="38.3431790" lon="-0.6748130">
        <ele>254.0</ele>
        <time>2018-03-05T14:10:12Z</time>
      </trkpt>
      <trkpt lat="38.3431830" lon="-0.6748530">
        <ele>254.0</ele>
        <time>2018-03-05T14:10:13Z</time>
      </trkpt>
      <trkpt lat="38.3431910" lon="-0.6748870">
        <ele>254.0</ele>
        <time>2018-03-05T14:10:14Z</time>
      </trkpt>
      <trkpt lat="38.3432090" lon="-0.6749160">
        <ele>254.0</ele>
        <time>2018-03-05T14:10:15Z</time>
      </trkpt>
      <trkpt lat="38.3432370" lon="-0.6749430">
        <ele>253.0</ele>
        <time>2018-03-05T14:10:16Z</time>
      </trkpt>
      <trkpt lat="38.3432690" lon="-0.6749680">
        <ele>253.0</ele>
        <time>2018-03-05T14:10:17Z</time>
      </trkpt>
      <trkpt lat="38.3433100" lon="-0.6750000">
        <ele>252.0</ele>
        <time>2018-03-05T14:10:18Z</time>
      </trkpt>
      <trkpt lat="38.3433650" lon="-0.6750400">
        <ele>251.0</ele>
        <time>2018-03-05T14:10:19Z</time>
      </trkpt>
      <trkpt lat="38.3434180" lon="-0.6750760">
        <ele>251.0</ele>
        <time>2018-03-05T14:10:20Z</time>
      </trkpt>
      <trkpt lat="38.3434690" lon="-0.6751150">
        <ele>251.0</ele>
        <time>2018-03-05T14:10:21Z</time>
      </trkpt>
      <trkpt lat="38.3435170" lon="-0.6751550">
        <ele>251.0</ele>
        <time>2018-03-05T14:10:22Z</time>
      </trkpt>
      <trkpt lat="38.3435620" lon="-0.6751920">
        <ele>251.0</ele>
        <time>2018-03-05T14:10:23Z</time>
      </trkpt>
      <trkpt lat="38.3436100" lon="-0.6752300">
        <ele>251.0</ele>
        <time>2018-03-05T14:10:24Z</time>
      </trkpt>
      <trkpt lat="38.3436620" lon="-0.6752650">
        <ele>250.0</ele>
        <time>2018-03-05T14:10:25Z</time>
      </trkpt>
      <trkpt lat="38.3437220" lon="-0.6752950">
        <ele>250.0</ele>
        <time>2018-03-05T14:10:26Z</time>
      </trkpt>
      <trkpt lat="38.3437810" lon="-0.6753220">
        <ele>251.0</ele>
        <time>2018-03-05T14:10:27Z</time>
      </trkpt>
      <trkpt lat="38.3438370" lon="-0.6753510">
        <ele>251.0</ele>
        <time>2018-03-05T14:10:28Z</time>
      </trkpt>
      <trkpt lat="38.3438930" lon="-0.6753800">
        <ele>251.0</ele>
        <time>2018-03-05T14:10:29Z</time>
      </trkpt>
      <trkpt lat="38.3439440" lon="-0.6754090">
        <ele>251.0</ele>
        <time>2018-03-05T14:10:30Z</time>
      </trkpt>
      <trkpt lat="38.3439860" lon="-0.6754430">
        <ele>251.0</ele>
        <time>2018-03-05T14:10:31Z</time>
      </trkpt>
      <trkpt lat="38.3440250" lon="-0.6754710">
        <ele>252.0</ele>
        <time>2018-03-05T14:10:32Z</time>
      </trkpt>
      <trkpt lat="38.3440630" lon="-0.6754920">
        <ele>252.0</ele>
        <time>2018-03-05T14:10:33Z</time>
      </trkpt>
      <trkpt lat="38.3440960" lon="-0.6755120">
        <ele>252.0</ele>
        <time>2018-03-05T14:10:34Z</time>
      </trkpt>
      <trkpt lat="38.3441280" lon="-0.6755220">
        <ele>252.0</ele>
        <time>2018-03-05T14:10:35Z</time>
      </trkpt>
      <trkpt lat="38.3441590" lon="-0.6755380">
        <ele>253.0</ele>
        <time>2018-03-05T14:10:36Z</time>
      </trkpt>
      <trkpt lat="38.3441820" lon="-0.6755590">
        <ele>253.0</ele>
        <time>2018-03-05T14:10:37Z</time>
      </trkpt>
      <trkpt lat="38.3442030" lon="-0.6755780">
        <ele>253.0</ele>
        <time>2018-03-05T14:10:38Z</time>
      </trkpt>
      <trkpt lat="38.3442230" lon="-0.6755960">
        <ele>253.0</ele>
        <time>2018-03-05T14:10:39Z</time>
      </trkpt>
      <trkpt lat="38.3442460" lon="-0.6756130">
        <ele>253.0</ele>
        <time>2018-03-05T14:10:40Z</time>
      </trkpt>
      <trkpt lat="38.3442740" lon="-0.6756330">
        <ele>252.0</ele>
        <time>2018-03-05T14:10:41Z</time>
      </trkpt>
      <trkpt lat="38.3443040" lon="-0.6756570">
        <ele>252.0</ele>
        <time>2018-03-05T14:10:42Z</time>
      </trkpt>
      <trkpt lat="38.3443380" lon="-0.6756830">
        <ele>252.0</ele>
        <time>2018-03-05T14:10:43Z</time>
      </trkpt>
      <trkpt lat="38.3443730" lon="-0.6757170">
        <ele>251.0</ele>
        <time>2018-03-05T14:10:44Z</time>
      </trkpt>
      <trkpt lat="38.3444100" lon="-0.6757510">
        <ele>251.0</ele>
        <time>2018-03-05T14:10:45Z</time>
      </trkpt>
      <trkpt lat="38.3444490" lon="-0.6757880">
        <ele>251.0</ele>
        <time>2018-03-05T14:10:46Z</time>
      </trkpt>
      <trkpt lat="38.3444890" lon="-0.6758270">
        <ele>250.0</ele>
        <time>2018-03-05T14:10:47Z</time>
      </trkpt>
      <trkpt lat="38.3445290" lon="-0.6758750">
        <ele>249.0</ele>
        <time>2018-03-05T14:10:48Z</time>
      </trkpt>
      <trkpt lat="38.3445720" lon="-0.6759290">
        <ele>249.0</ele>
        <time>2018-03-05T14:10:49Z</time>
      </trkpt>
      <trkpt lat="38.3446240" lon="-0.6759790">
        <ele>248.0</ele>
        <time>2018-03-05T14:10:50Z</time>
      </trkpt>
      <trkpt lat="38.3446810" lon="-0.6760210">
        <ele>248.0</ele>
        <time>2018-03-05T14:10:51Z</time>
      </trkpt>
      <trkpt lat="38.3447370" lon="-0.6760530">
        <ele>248.0</ele>
        <time>2018-03-05T14:10:52Z</time>
      </trkpt>
      <trkpt lat="38.3447980" lon="-0.6760770">
        <ele>248.0</ele>
        <time>2018-03-05T14:10:53Z</time>
      </trkpt>
      <trkpt lat="38.3448590" lon="-0.6760950">
        <ele>247.0</ele>
        <time>2018-03-05T14:10:54Z</time>
      </trkpt>
      <trkpt lat="38.3449190" lon="-0.6761060">
        <ele>247.0</ele>
        <time>2018-03-05T14:10:55Z</time>
      </trkpt>
      <trkpt lat="38.3449760" lon="-0.6761160">
        <ele>247.0</ele>
        <time>2018-03-05T14:10:56Z</time>
      </trkpt>
      <trkpt lat="38.3450310" lon="-0.6761240">
        <ele>247.0</ele>
        <time>2018-03-05T14:10:57Z</time>
      </trkpt>
      <trkpt lat="38.3450820" lon="-0.6761320">
        <ele>247.0</ele>
        <time>2018-03-05T14:10:58Z</time>
      </trkpt>
      <trkpt lat="38.3451310" lon="-0.6761420">
        <ele>247.0</ele>
        <time>2018-03-05T14:10:59Z</time>
      </trkpt>
      <trkpt lat="38.3451730" lon="-0.6761530">
        <ele>247.0</ele>
        <time>2018-03-05T14:11:00Z</time>
      </trkpt>
      <trkpt lat="38.3452070" lon="-0.6761790">
        <ele>247.0</ele>
        <time>2018-03-05T14:11:01Z</time>
      </trkpt>
      <trkpt lat="38.3452130" lon="-0.6762160">
        <ele>247.0</ele>
        <time>2018-03-05T14:11:02Z</time>
      </trkpt>
      <trkpt lat="38.3451970" lon="-0.6762460">
        <ele>246.0</ele>
        <time>2018-03-05T14:11:03Z</time>
      </trkpt>
      <trkpt lat="38.3451850" lon="-0.6762820">
        <ele>246.0</ele>
        <time>2018-03-05T14:11:04Z</time>
      </trkpt>
      <trkpt lat="38.3451750" lon="-0.6763230">
        <ele>246.0</ele>
        <time>2018-03-05T14:11:05Z</time>
      </trkpt>
      <trkpt lat="38.3451660" lon="-0.6763640">
        <ele>247.0</ele>
        <time>2018-03-05T14:11:06Z</time>
      </trkpt>
      <trkpt lat="38.3451570" lon="-0.6764060">
        <ele>247.0</ele>
        <time>2018-03-05T14:11:07Z</time>
      </trkpt>
      <trkpt lat="38.3451490" lon="-0.6764490">
        <ele>247.0</ele>
        <time>2018-03-05T14:11:08Z</time>
      </trkpt>
      <trkpt lat="38.3451410" lon="-0.6764910">
        <ele>248.0</ele>
        <time>2018-03-05T14:11:09Z</time>
      </trkpt>
      <trkpt lat="38.3451350" lon="-0.6765320">
        <ele>248.0</ele>
        <time>2018-03-05T14:11:10Z</time>
      </trkpt>
      <trkpt lat="38.3451280" lon="-0.6765710">
        <ele>248.0</ele>
        <time>2018-03-05T14:11:11Z</time>
      </trkpt>
      <trkpt lat="38.3451210" lon="-0.6766110">
        <ele>248.0</ele>
        <time>2018-03-05T14:11:12Z</time>
      </trkpt>
      <trkpt lat="38.3451140" lon="-0.6766520">
        <ele>248.0</ele>
        <time>2018-03-05T14:11:13Z</time>
      </trkpt>
      <trkpt lat="38.3451080" lon="-0.6766950">
        <ele>249.0</ele>
        <time>2018-03-05T14:11:14Z</time>
      </trkpt>
      <trkpt lat="38.3451070" lon="-0.6767380">
        <ele>249.0</ele>
        <time>2018-03-05T14:11:15Z</time>
      </trkpt>
      <trkpt lat="38.3451070" lon="-0.6767790">
        <ele>249.0</ele>
        <time>2018-03-05T14:11:16Z</time>
      </trkpt>
      <trkpt lat="38.3451020" lon="-0.6768130">
        <ele>249.0</ele>
        <time>2018-03-05T14:11:17Z</time>
      </trkpt>
      <trkpt lat="38.3450940" lon="-0.6768480">
        <ele>250.0</ele>
        <time>2018-03-05T14:11:18Z</time>
      </trkpt>
      <trkpt lat="38.3450890" lon="-0.6768840">
        <ele>250.0</ele>
        <time>2018-03-05T14:11:19Z</time>
      </trkpt>
      <trkpt lat="38.3450840" lon="-0.6769200">
        <ele>250.0</ele>
        <time>2018-03-05T14:11:20Z</time>
      </trkpt>
      <trkpt lat="38.3450820" lon="-0.6769560">
        <ele>250.0</ele>
        <time>2018-03-05T14:11:21Z</time>
      </trkpt>
      <trkpt lat="38.3450780" lon="-0.6769910">
        <ele>251.0</ele>
        <time>2018-03-05T14:11:22Z</time>
      </trkpt>
      <trkpt lat="38.3450770" lon="-0.6770300">
        <ele>251.0</ele>
        <time>2018-03-05T14:11:23Z</time>
      </trkpt>
      <trkpt lat="38.3450790" lon="-0.6770700">
        <ele>251.0</ele>
        <time>2018-03-05T14:11:24Z</time>
      </trkpt>
      <trkpt lat="38.3450850" lon="-0.6771040">
        <ele>251.0</ele>
        <time>2018-03-05T14:11:25Z</time>
      </trkpt>
      <trkpt lat="38.3450950" lon="-0.6771360">
        <ele>252.0</ele>
        <time>2018-03-05T14:11:26Z</time>
      </trkpt>
      <trkpt lat="38.3451040" lon="-0.6771650">
        <ele>252.0</ele>
        <time>2018-03-05T14:11:27Z</time>
      </trkpt>
      <trkpt lat="38.3451130" lon="-0.6771930">
        <ele>253.0</ele>
        <time>2018-03-05T14:11:28Z</time>
      </trkpt>
      <trkpt lat="38.3451190" lon="-0.6772240">
        <ele>253.0</ele>
        <time>2018-03-05T14:11:29Z</time>
      </trkpt>
      <trkpt lat="38.3451230" lon="-0.6772560">
        <ele>254.0</ele>
        <time>2018-03-05T14:11:30Z</time>
      </trkpt>
      <trkpt lat="38.3451260" lon="-0.6772890">
        <ele>254.0</ele>
        <time>2018-03-05T14:11:31Z</time>
      </trkpt>
      <trkpt lat="38.3451300" lon="-0.6773260">
        <ele>254.0</ele>
        <time>2018-03-05T14:11:32Z</time>
      </trkpt>
      <trkpt lat="38.3451300" lon="-0.6773630">
        <ele>255.0</ele>
        <time>2018-03-05T14:11:33Z</time>
      </trkpt>
      <trkpt lat="38.3451190" lon="-0.6773960">
        <ele>255.0</ele>
        <time>2018-03-05T14:11:34Z</time>
      </trkpt>
      <trkpt lat="38.3451020" lon="-0.6774190">
        <ele>256.0</ele>
        <time>2018-03-05T14:11:35Z</time>
      </trkpt>
      <trkpt lat="38.3450830" lon="-0.6774170">
        <ele>256.0</ele>
        <time>2018-03-05T14:11:36Z</time>
      </trkpt>
      <trkpt lat="38.3450630" lon="-0.6774190">
        <ele>256.0</ele>
        <time>2018-03-05T14:11:37Z</time>
      </trkpt>
      <trkpt lat="38.3450370" lon="-0.6774230">
        <ele>257.0</ele>
        <time>2018-03-05T14:11:38Z</time>
      </trkpt>
      <trkpt lat="38.3450100" lon="-0.6774280">
        <ele>257.0</ele>
        <time>2018-03-05T14:11:39Z</time>
      </trkpt>
      <trkpt lat="38.3449820" lon="-0.6774300">
        <ele>257.0</ele>
        <time>2018-03-05T14:11:40Z</time>
      </trkpt>
      <trkpt lat="38.3449490" lon="-0.6774280">
        <ele>257.0</ele>
        <time>2018-03-05T14:11:41Z</time>
      </trkpt>
      <trkpt lat="38.3449150" lon="-0.6774260">
        <ele>258.0</ele>
        <time>2018-03-05T14:11:42Z</time>
      </trkpt>
      <trkpt lat="38.3448850" lon="-0.6774350">
        <ele>257.0</ele>
        <time>2018-03-05T14:11:43Z</time>
      </trkpt>
      <trkpt lat="38.3448550" lon="-0.6774500">
        <ele>257.0</ele>
        <time>2018-03-05T14:11:44Z</time>
      </trkpt>
      <trkpt lat="38.3448250" lon="-0.6774600">
        <ele>258.0</ele>
        <time>2018-03-05T14:11:45Z</time>
      </trkpt>
      <trkpt lat="38.3447940" lon="-0.6774560">
        <ele>258.0</ele>
        <time>2018-03-05T14:11:46Z</time>
      </trkpt>
      <trkpt lat="38.3447600" lon="-0.6774530">
        <ele>258.0</ele>
        <time>2018-03-05T14:11:47Z</time>
      </trkpt>
      <trkpt lat="38.3447270" lon="-0.6774510">
        <ele>258.0</ele>
        <time>2018-03-05T14:11:48Z</time>
      </trkpt>
      <trkpt lat="38.3446960" lon="-0.6774500">
        <ele>258.0</ele>
        <time>2018-03-05T14:11:49Z</time>
      </trkpt>
      <trkpt lat="38.3446660" lon="-0.6774510">
        <ele>258.0</ele>
        <time>2018-03-05T14:11:50Z</time>
      </trkpt>
      <trkpt lat="38.3446380" lon="-0.6774600">
        <ele>258.0</ele>
        <time>2018-03-05T14:11:51Z</time>
      </trkpt>
      <trkpt lat="38.3446190" lon="-0.6774700">
        <ele>259.0</ele>
        <time>2018-03-05T14:11:52Z</time>
      </trkpt>
      <trkpt lat="38.3446030" lon="-0.6774830">
        <ele>259.0</ele>
        <time>2018-03-05T14:11:53Z</time>
      </trkpt>
      <trkpt lat="38.3445910" lon="-0.6774960">
        <ele>260.0</ele>
        <time>2018-03-05T14:11:54Z</time>
      </trkpt>
      <trkpt lat="38.3445820" lon="-0.6775120">
        <ele>260.0</ele>
        <time>2018-03-05T14:11:55Z</time>
      </trkpt>
      <trkpt lat="38.3445750" lon="-0.6775290">
        <ele>260.0</ele>
        <time>2018-03-05T14:11:56Z</time>
      </trkpt>
      <trkpt lat="38.3445720" lon="-0.6775520">
        <ele>260.0</ele>
        <time>2018-03-05T14:11:57Z</time>
      </trkpt>
      <trkpt lat="38.3445700" lon="-0.6775720">
        <ele>261.0</ele>
        <time>2018-03-05T14:11:58Z</time>
      </trkpt>
      <trkpt lat="38.3445660" lon="-0.6775930">
        <ele>261.0</ele>
        <time>2018-03-05T14:11:59Z</time>
      </trkpt>
      <trkpt lat="38.3445640" lon="-0.6776150">
        <ele>261.0</ele>
        <time>2018-03-05T14:12:00Z</time>
      </trkpt>
      <trkpt lat="38.3445640" lon="-0.6776350">
        <ele>262.0</ele>
        <time>2018-03-05T14:12:01Z</time>
      </trkpt>
      <trkpt lat="38.3445640" lon="-0.6776560">
        <ele>262.0</ele>
        <time>2018-03-05T14:12:02Z</time>
      </trkpt>
      <trkpt lat="38.3445640" lon="-0.6776750">
        <ele>262.0</ele>
        <time>2018-03-05T14:12:03Z</time>
      </trkpt>
      <trkpt lat="38.3445630" lon="-0.6776950">
        <ele>262.0</ele>
        <time>2018-03-05T14:12:04Z</time>
      </trkpt>
      <trkpt lat="38.3445620" lon="-0.6777160">
        <ele>262.0</ele>
        <time>2018-03-05T14:12:05Z</time>
      </trkpt>
      <trkpt lat="38.3445580" lon="-0.6777370">
        <ele>262.0</ele>
        <time>2018-03-05T14:12:06Z</time>
      </trkpt>
      <trkpt lat="38.3445550" lon="-0.6777580">
        <ele>263.0</ele>
        <time>2018-03-05T14:12:07Z</time>
      </trkpt>
      <trkpt lat="38.3445550" lon="-0.6777790">
        <ele>263.0</ele>
        <time>2018-03-05T14:12:08Z</time>
      </trkpt>
      <trkpt lat="38.3445550" lon="-0.6778000">
        <ele>263.0</ele>
        <time>2018-03-05T14:12:09Z</time>
      </trkpt>
      <trkpt lat="38.3445560" lon="-0.6778210">
        <ele>263.0</ele>
        <time>2018-03-05T14:12:10Z</time>
      </trkpt>
      <trkpt lat="38.3445550" lon="-0.6778420">
        <ele>263.0</ele>
        <time>2018-03-05T14:12:11Z</time>
      </trkpt>
      <trkpt lat="38.3445570" lon="-0.6778640">
        <ele>263.0</ele>
        <time>2018-03-05T14:12:12Z</time>
      </trkpt>
      <trkpt lat="38.3445570" lon="-0.6778850">
        <ele>263.0</ele>
        <time>2018-03-05T14:12:13Z</time>
      </trkpt>
      <trkpt lat="38.3445530" lon="-0.6779100">
        <ele>263.0</ele>
        <time>2018-03-05T14:12:14Z</time>
      </trkpt>
      <trkpt lat="38.3445520" lon="-0.6779350">
        <ele>263.0</ele>
        <time>2018-03-05T14:12:15Z</time>
      </trkpt>
      <trkpt lat="38.3445520" lon="-0.6779600">
        <ele>263.0</ele>
        <time>2018-03-05T14:12:16Z</time>
      </trkpt>
      <trkpt lat="38.3445520" lon="-0.6779860">
        <ele>264.0</ele>
        <time>2018-03-05T14:12:17Z</time>
      </trkpt>
      <trkpt lat="38.3445500" lon="-0.6780110">
        <ele>264.0</ele>
        <time>2018-03-05T14:12:18Z</time>
      </trkpt>
      <trkpt lat="38.3445470" lon="-0.6780340">
        <ele>264.0</ele>
        <time>2018-03-05T14:12:19Z</time>
      </trkpt>
      <trkpt lat="38.3445460" lon="-0.6780590">
        <ele>264.0</ele>
        <time>2018-03-05T14:12:20Z</time>
      </trkpt>
      <trkpt lat="38.3445430" lon="-0.6780810">
        <ele>264.0</ele>
        <time>2018-03-05T14:12:21Z</time>
      </trkpt>
      <trkpt lat="38.3445400" lon="-0.6781030">
        <ele>265.0</ele>
        <time>2018-03-05T14:12:22Z</time>
      </trkpt>
      <trkpt lat="38.3445360" lon="-0.6781270">
        <ele>265.0</ele>
        <time>2018-03-05T14:12:23Z</time>
      </trkpt>
      <trkpt lat="38.3445310" lon="-0.6781510">
        <ele>265.0</ele>
        <time>2018-03-05T14:12:24Z</time>
      </trkpt>
      <trkpt lat="38.3445270" lon="-0.6781730">
        <ele>265.0</ele>
        <time>2018-03-05T14:12:25Z</time>
      </trkpt>
      <trkpt lat="38.3445250" lon="-0.6781950">
        <ele>265.0</ele>
        <time>2018-03-05T14:12:26Z</time>
      </trkpt>
      <trkpt lat="38.3445220" lon="-0.6782180">
        <ele>265.0</ele>
        <time>2018-03-05T14:12:27Z</time>
      </trkpt>
      <trkpt lat="38.3445160" lon="-0.6782400">
        <ele>266.0</ele>
        <time>2018-03-05T14:12:28Z</time>
      </trkpt>
      <trkpt lat="38.3445110" lon="-0.6782640">
        <ele>266.0</ele>
        <time>2018-03-05T14:12:29Z</time>
      </trkpt>
      <trkpt lat="38.3445090" lon="-0.6782840">
        <ele>266.0</ele>
        <time>2018-03-05T14:12:30Z</time>
      </trkpt>
      <trkpt lat="38.3445080" lon="-0.6783070">
        <ele>266.0</ele>
        <time>2018-03-05T14:12:31Z</time>
      </trkpt>
      <trkpt lat="38.3445040" lon="-0.6783290">
        <ele>266.0</ele>
        <time>2018-03-05T14:12:32Z</time>
      </trkpt>
      <trkpt lat="38.3444990" lon="-0.6783540">
        <ele>266.0</ele>
        <time>2018-03-05T14:12:33Z</time>
      </trkpt>
      <trkpt lat="38.3444950" lon="-0.6783800">
        <ele>266.0</ele>
        <time>2018-03-05T14:12:34Z</time>
      </trkpt>
      <trkpt lat="38.3444910" lon="-0.6784060">
        <ele>266.0</ele>
        <time>2018-03-05T14:12:35Z</time>
      </trkpt>
      <trkpt lat="38.3444870" lon="-0.6784290">
        <ele>266.0</ele>
        <time>2018-03-05T14:12:36Z</time>
      </trkpt>
      <trkpt lat="38.3444810" lon="-0.6784550">
        <ele>266.0</ele>
        <time>2018-03-05T14:12:37Z</time>
      </trkpt>
      <trkpt lat="38.3444750" lon="-0.6784810">
        <ele>266.0</ele>
        <time>2018-03-05T14:12:38Z</time>
      </trkpt>
      <trkpt lat="38.3444740" lon="-0.6785050">
        <ele>267.0</ele>
        <time>2018-03-05T14:12:39Z</time>
      </trkpt>
      <trkpt lat="38.3444690" lon="-0.6785290">
        <ele>267.0</ele>
        <time>2018-03-05T14:12:40Z</time>
      </trkpt>
      <trkpt lat="38.3444650" lon="-0.6785560">
        <ele>267.0</ele>
        <time>2018-03-05T14:12:41Z</time>
      </trkpt>
      <trkpt lat="38.3444640" lon="-0.6785860">
        <ele>267.0</ele>
        <time>2018-03-05T14:12:42Z</time>
      </trkpt>
      <trkpt lat="38.3444620" lon="-0.6786140">
        <ele>267.0</ele>
        <time>2018-03-05T14:12:43Z</time>
      </trkpt>
      <trkpt lat="38.3444560" lon="-0.6786410">
        <ele>268.0</ele>
        <time>2018-03-05T14:12:44Z</time>
      </trkpt>
      <trkpt lat="38.3444520" lon="-0.6786660">
        <ele>268.0</ele>
        <time>2018-03-05T14:12:45Z</time>
      </trkpt>
      <trkpt lat="38.3444500" lon="-0.6786920">
        <ele>268.0</ele>
        <time>2018-03-05T14:12:46Z</time>
      </trkpt>
      <trkpt lat="38.3444450" lon="-0.6787190">
        <ele>268.0</ele>
        <time>2018-03-05T14:12:47Z</time>
      </trkpt>
      <trkpt lat="38.3444390" lon="-0.6787460">
        <ele>268.0</ele>
        <time>2018-03-05T14:12:48Z</time>
      </trkpt>
      <trkpt lat="38.3444330" lon="-0.6787750">
        <ele>268.0</ele>
        <time>2018-03-05T14:12:49Z</time>
      </trkpt>
      <trkpt lat="38.3444250" lon="-0.6788040">
        <ele>268.0</ele>
        <time>2018-03-05T14:12:50Z</time>
      </trkpt>
      <trkpt lat="38.3444170" lon="-0.6788330">
        <ele>269.0</ele>
        <time>2018-03-05T14:12:51Z</time>
      </trkpt>
      <trkpt lat="38.3444100" lon="-0.6788630">
        <ele>269.0</ele>
        <time>2018-03-05T14:12:52Z</time>
      </trkpt>
      <trkpt lat="38.3444040" lon="-0.6788910">
        <ele>270.0</ele>
        <time>2018-03-05T14:12:53Z</time>
      </trkpt>
      <trkpt lat="38.3443950" lon="-0.6789190">
        <ele>270.0</ele>
        <time>2018-03-05T14:12:54Z</time>
      </trkpt>
      <trkpt lat="38.3443820" lon="-0.6789440">
        <ele>270.0</ele>
        <time>2018-03-05T14:12:55Z</time>
      </trkpt>
      <trkpt lat="38.3443660" lon="-0.6789690">
        <ele>270.0</ele>
        <time>2018-03-05T14:12:56Z</time>
      </trkpt>
      <trkpt lat="38.3443460" lon="-0.6789910">
        <ele>271.0</ele>
        <time>2018-03-05T14:12:57Z</time>
      </trkpt>
      <trkpt lat="38.3443240" lon="-0.6790120">
        <ele>271.0</ele>
        <time>2018-03-05T14:12:58Z</time>
      </trkpt>
      <trkpt lat="38.3442990" lon="-0.6790340">
        <ele>271.0</ele>
        <time>2018-03-05T14:12:59Z</time>
      </trkpt>
      <trkpt lat="38.3442710" lon="-0.6790530">
        <ele>271.0</ele>
        <time>2018-03-05T14:13:00Z</time>
      </trkpt>
      <trkpt lat="38.3442410" lon="-0.6790680">
        <ele>271.0</ele>
        <time>2018-03-05T14:13:01Z</time>
      </trkpt>
      <trkpt lat="38.3442150" lon="-0.6790690">
        <ele>271.0</ele>
        <time>2018-03-05T14:13:02Z</time>
      </trkpt>
      <trkpt lat="38.3441870" lon="-0.6790660">
        <ele>271.0</ele>
        <time>2018-03-05T14:13:03Z</time>
      </trkpt>
      <trkpt lat="38.3441580" lon="-0.6790430">
        <ele>270.0</ele>
        <time>2018-03-05T14:13:04Z</time>
      </trkpt>
      <trkpt lat="38.3441230" lon="-0.6790320">
        <ele>271.0</ele>
        <time>2018-03-05T14:13:05Z</time>
      </trkpt>
      <trkpt lat="38.3440890" lon="-0.6790200">
        <ele>271.0</ele>
        <time>2018-03-05T14:13:06Z</time>
      </trkpt>
      <trkpt lat="38.3440550" lon="-0.6790110">
        <ele>271.0</ele>
        <time>2018-03-05T14:13:07Z</time>
      </trkpt>
      <trkpt lat="38.3440290" lon="-0.6789830">
        <ele>270.0</ele>
        <time>2018-03-05T14:13:08Z</time>
      </trkpt>
      <trkpt lat="38.3439990" lon="-0.6789570">
        <ele>270.0</ele>
        <time>2018-03-05T14:13:09Z</time>
      </trkpt>
      <trkpt lat="38.3439700" lon="-0.6789250">
        <ele>270.0</ele>
        <time>2018-03-05T14:13:10Z</time>
      </trkpt>
      <trkpt lat="38.3439470" lon="-0.6788940">
        <ele>270.0</ele>
        <time>2018-03-05T14:13:11Z</time>
      </trkpt>
      <trkpt lat="38.3439240" lon="-0.6788580">
        <ele>270.0</ele>
        <time>2018-03-05T14:13:12Z</time>
      </trkpt>
      <trkpt lat="38.3438990" lon="-0.6788210">
        <ele>270.0</ele>
        <time>2018-03-05T14:13:13Z</time>
      </trkpt>
      <trkpt lat="38.3438750" lon="-0.6787880">
        <ele>270.0</ele>
        <time>2018-03-05T14:13:14Z</time>
      </trkpt>
      <trkpt lat="38.3438520" lon="-0.6787550">
        <ele>271.0</ele>
        <time>2018-03-05T14:13:15Z</time>
      </trkpt>
      <trkpt lat="38.3438310" lon="-0.6787230">
        <ele>271.0</ele>
        <time>2018-03-05T14:13:16Z</time>
      </trkpt>
      <trkpt lat="38.3438100" lon="-0.6786930">
        <ele>271.0</ele>
        <time>2018-03-05T14:13:17Z</time>
      </trkpt>
      <trkpt lat="38.3437920" lon="-0.6786670">
        <ele>271.0</ele>
        <time>2018-03-05T14:13:18Z</time>
      </trkpt>
      <trkpt lat="38.3437730" lon="-0.6786370">
        <ele>271.0</ele>
        <time>2018-03-05T14:13:19Z</time>
      </trkpt>
      <trkpt lat="38.3437540" lon="-0.6786060">
        <ele>271.0</ele>
        <time>2018-03-05T14:13:20Z</time>
      </trkpt>
      <trkpt lat="38.3437350" lon="-0.6785720">
        <ele>271.0</ele>
        <time>2018-03-05T14:13:21Z</time>
      </trkpt>
      <trkpt lat="38.3437170" lon="-0.6785370">
        <ele>271.0</ele>
        <time>2018-03-05T14:13:22Z</time>
      </trkpt>
      <trkpt lat="38.3436960" lon="-0.6785020">
        <ele>271.0</ele>
        <time>2018-03-05T14:13:23Z</time>
      </trkpt>
      <trkpt lat="38.3436750" lon="-0.6784680">
        <ele>271.0</ele>
        <time>2018-03-05T14:13:24Z</time>
      </trkpt>
      <trkpt lat="38.3436550" lon="-0.6784360">
        <ele>272.0</ele>
        <time>2018-03-05T14:13:25Z</time>
      </trkpt>
      <trkpt lat="38.3436350" lon="-0.6784060">
        <ele>272.0</ele>
        <time>2018-03-05T14:13:26Z</time>
      </trkpt>
      <trkpt lat="38.3436130" lon="-0.6783780">
        <ele>272.0</ele>
        <time>2018-03-05T14:13:27Z</time>
      </trkpt>
      <trkpt lat="38.3435890" lon="-0.6783510">
        <ele>272.0</ele>
        <time>2018-03-05T14:13:28Z</time>
      </trkpt>
      <trkpt lat="38.3435660" lon="-0.6783210">
        <ele>272.0</ele>
        <time>2018-03-05T14:13:29Z</time>
      </trkpt>
      <trkpt lat="38.3435370" lon="-0.6782890">
        <ele>272.0</ele>
        <time>2018-03-05T14:13:30Z</time>
      </trkpt>
      <trkpt lat="38.3435090" lon="-0.6782600">
        <ele>272.0</ele>
        <time>2018-03-05T14:13:31Z</time>
      </trkpt>
      <trkpt lat="38.3434930" lon="-0.6782530">
        <ele>272.0</ele>
        <time>2018-03-05T14:13:32Z</time>
      </trkpt>
      <trkpt lat="38.3434730" lon="-0.6782550">
        <ele>272.0</ele>
        <time>2018-03-05T14:13:33Z</time>
      </trkpt>
      <trkpt lat="38.3434570" lon="-0.6782580">
        <ele>272.0</ele>
        <time>2018-03-05T14:13:34Z</time>
      </trkpt>
      <trkpt lat="38.3434440" lon="-0.6782780">
        <ele>272.0</ele>
        <time>2018-03-05T14:13:35Z</time>
      </trkpt>
      <trkpt lat="38.3434340" lon="-0.6783010">
        <ele>272.0</ele>
        <time>2018-03-05T14:13:36Z</time>
      </trkpt>
      <trkpt lat="38.3434270" lon="-0.6783260">
        <ele>273.0</ele>
        <time>2018-03-05T14:13:37Z</time>
      </trkpt>
      <trkpt lat="38.3434200" lon="-0.6783530">
        <ele>273.0</ele>
        <time>2018-03-05T14:13:38Z</time>
      </trkpt>
      <trkpt lat="38.3434150" lon="-0.6783840">
        <ele>273.0</ele>
        <time>2018-03-05T14:13:39Z</time>
      </trkpt>
      <trkpt lat="38.3434090" lon="-0.6784160">
        <ele>273.0</ele>
        <time>2018-03-05T14:13:40Z</time>
      </trkpt>
      <trkpt lat="38.3434060" lon="-0.6784450">
        <ele>273.0</ele>
        <time>2018-03-05T14:13:41Z</time>
      </trkpt>
      <trkpt lat="38.3434010" lon="-0.6784710">
        <ele>274.0</ele>
        <time>2018-03-05T14:13:42Z</time>
      </trkpt>
      <trkpt lat="38.3433960" lon="-0.6784960">
        <ele>274.0</ele>
        <time>2018-03-05T14:13:43Z</time>
      </trkpt>
      <trkpt lat="38.3433890" lon="-0.6785200">
        <ele>274.0</ele>
        <time>2018-03-05T14:13:44Z</time>
      </trkpt>
      <trkpt lat="38.3433850" lon="-0.6785450">
        <ele>274.0</ele>
        <time>2018-03-05T14:13:45Z</time>
      </trkpt>
      <trkpt lat="38.3433800" lon="-0.6785700">
        <ele>274.0</ele>
        <time>2018-03-05T14:13:46Z</time>
      </trkpt>
      <trkpt lat="38.3433770" lon="-0.6785950">
        <ele>275.0</ele>
        <time>2018-03-05T14:13:47Z</time>
      </trkpt>
      <trkpt lat="38.3433730" lon="-0.6786200">
        <ele>275.0</ele>
        <time>2018-03-05T14:13:48Z</time>
      </trkpt>
      <trkpt lat="38.3433710" lon="-0.6786460">
        <ele>275.0</ele>
        <time>2018-03-05T14:13:49Z</time>
      </trkpt>
      <trkpt lat="38.3433700" lon="-0.6786740">
        <ele>275.0</ele>
        <time>2018-03-05T14:13:50Z</time>
      </trkpt>
      <trkpt lat="38.3433660" lon="-0.6786990">
        <ele>275.0</ele>
        <time>2018-03-05T14:13:51Z</time>
      </trkpt>
      <trkpt lat="38.3433630" lon="-0.6787250">
        <ele>275.0</ele>
        <time>2018-03-05T14:13:52Z</time>
      </trkpt>
      <trkpt lat="38.3433590" lon="-0.6787490">
        <ele>276.0</ele>
        <time>2018-03-05T14:13:53Z</time>
      </trkpt>
      <trkpt lat="38.3433570" lon="-0.6787730">
        <ele>276.0</ele>
        <time>2018-03-05T14:13:54Z</time>
      </trkpt>
      <trkpt lat="38.3433570" lon="-0.6787970">
        <ele>276.0</ele>
        <time>2018-03-05T14:13:55Z</time>
      </trkpt>
      <trkpt lat="38.3433550" lon="-0.6788230">
        <ele>276.0</ele>
        <time>2018-03-05T14:13:56Z</time>
      </trkpt>
      <trkpt lat="38.3433510" lon="-0.6788490">
        <ele>277.0</ele>
        <time>2018-03-05T14:13:57Z</time>
      </trkpt>
      <trkpt lat="38.3433500" lon="-0.6788740">
        <ele>277.0</ele>
        <time>2018-03-05T14:13:58Z</time>
      </trkpt>
      <trkpt lat="38.3433500" lon="-0.6788980">
        <ele>277.0</ele>
        <time>2018-03-05T14:13:59Z</time>
      </trkpt>
      <trkpt lat="38.3433500" lon="-0.6789210">
        <ele>278.0</ele>
        <time>2018-03-05T14:14:00Z</time>
      </trkpt>
      <trkpt lat="38.3433460" lon="-0.6789470">
        <ele>278.0</ele>
        <time>2018-03-05T14:14:01Z</time>
      </trkpt>
      <trkpt lat="38.3433430" lon="-0.6789710">
        <ele>279.0</ele>
        <time>2018-03-05T14:14:02Z</time>
      </trkpt>
      <trkpt lat="38.3433420" lon="-0.6789960">
        <ele>279.0</ele>
        <time>2018-03-05T14:14:03Z</time>
      </trkpt>
      <trkpt lat="38.3433370" lon="-0.6790180">
        <ele>279.0</ele>
        <time>2018-03-05T14:14:04Z</time>
      </trkpt>
      <trkpt lat="38.3433340" lon="-0.6790400">
        <ele>280.0</ele>
        <time>2018-03-05T14:14:05Z</time>
      </trkpt>
      <trkpt lat="38.3433290" lon="-0.6790610">
        <ele>280.0</ele>
        <time>2018-03-05T14:14:06Z</time>
      </trkpt>
      <trkpt lat="38.3433240" lon="-0.6790820">
        <ele>281.0</ele>
        <time>2018-03-05T14:14:07Z</time>
      </trkpt>
      <trkpt lat="38.3433190" lon="-0.6791020">
        <ele>281.0</ele>
        <time>2018-03-05T14:14:08Z</time>
      </trkpt>
      <trkpt lat="38.3433130" lon="-0.6791230">
        <ele>281.0</ele>
        <time>2018-03-05T14:14:09Z</time>
      </trkpt>
      <trkpt lat="38.3433060" lon="-0.6791430">
        <ele>282.0</ele>
        <time>2018-03-05T14:14:10Z</time>
      </trkpt>
      <trkpt lat="38.3432960" lon="-0.6791630">
        <ele>282.0</ele>
        <time>2018-03-05T14:14:11Z</time>
      </trkpt>
      <trkpt lat="38.3432940" lon="-0.6791800">
        <ele>282.0</ele>
        <time>2018-03-05T14:14:12Z</time>
      </trkpt>
      <trkpt lat="38.3432940" lon="-0.6791920">
        <ele>282.0</ele>
        <time>2018-03-05T14:14:13Z</time>
      </trkpt>
      <trkpt lat="38.3432970" lon="-0.6792070">
        <ele>282.0</ele>
        <time>2018-03-05T14:14:14Z</time>
      </trkpt>
      <trkpt lat="38.3433030" lon="-0.6792250">
        <ele>283.0</ele>
        <time>2018-03-05T14:14:15Z</time>
      </trkpt>
      <trkpt lat="38.3433090" lon="-0.6792400">
        <ele>283.0</ele>
        <time>2018-03-05T14:14:16Z</time>
      </trkpt>
      <trkpt lat="38.3433160" lon="-0.6792580">
        <ele>283.0</ele>
        <time>2018-03-05T14:14:17Z</time>
      </trkpt>
      <trkpt lat="38.3433200" lon="-0.6792750">
        <ele>284.0</ele>
        <time>2018-03-05T14:14:18Z</time>
      </trkpt>
      <trkpt lat="38.3433210" lon="-0.6792940">
        <ele>284.0</ele>
        <time>2018-03-05T14:14:19Z</time>
      </trkpt>
      <trkpt lat="38.3433190" lon="-0.6793200">
        <ele>284.0</ele>
        <time>2018-03-05T14:14:20Z</time>
      </trkpt>
      <trkpt lat="38.3433110" lon="-0.6793400">
        <ele>284.0</ele>
        <time>2018-03-05T14:14:21Z</time>
      </trkpt>
      <trkpt lat="38.3432980" lon="-0.6793570">
        <ele>284.0</ele>
        <time>2018-03-05T14:14:22Z</time>
      </trkpt>
      <trkpt lat="38.3432820" lon="-0.6793720">
        <ele>285.0</ele>
        <time>2018-03-05T14:14:23Z</time>
      </trkpt>
      <trkpt lat="38.3432680" lon="-0.6793850">
        <ele>285.0</ele>
        <time>2018-03-05T14:14:24Z</time>
      </trkpt>
      <trkpt lat="38.3432570" lon="-0.6793880">
        <ele>285.0</ele>
        <time>2018-03-05T14:14:25Z</time>
      </trkpt>
      <trkpt lat="38.3432450" lon="-0.6793940">
        <ele>285.0</ele>
        <time>2018-03-05T14:14:26Z</time>
      </trkpt>
      <trkpt lat="38.3432310" lon="-0.6793950">
        <ele>285.0</ele>
        <time>2018-03-05T14:14:27Z</time>
      </trkpt>
      <trkpt lat="38.3432150" lon="-0.6793960">
        <ele>285.0</ele>
        <time>2018-03-05T14:14:28Z</time>
      </trkpt>
      <trkpt lat="38.3431920" lon="-0.6793960">
        <ele>285.0</ele>
        <time>2018-03-05T14:14:29Z</time>
      </trkpt>
      <trkpt lat="38.3431660" lon="-0.6793950">
        <ele>285.0</ele>
        <time>2018-03-05T14:14:30Z</time>
      </trkpt>
      <trkpt lat="38.3431370" lon="-0.6793920">
        <ele>285.0</ele>
        <time>2018-03-05T14:14:31Z</time>
      </trkpt>
      <trkpt lat="38.3431060" lon="-0.6793880">
        <ele>285.0</ele>
        <time>2018-03-05T14:14:32Z</time>
      </trkpt>
      <trkpt lat="38.3430740" lon="-0.6793790">
        <ele>285.0</ele>
        <time>2018-03-05T14:14:33Z</time>
      </trkpt>
      <trkpt lat="38.3430420" lon="-0.6793670">
        <ele>285.0</ele>
        <time>2018-03-05T14:14:34Z</time>
      </trkpt>
      <trkpt lat="38.3430110" lon="-0.6793500">
        <ele>285.0</ele>
        <time>2018-03-05T14:14:35Z</time>
      </trkpt>
      <trkpt lat="38.3429820" lon="-0.6793280">
        <ele>285.0</ele>
        <time>2018-03-05T14:14:36Z</time>
      </trkpt>
      <trkpt lat="38.3429590" lon="-0.6792970">
        <ele>284.0</ele>
        <time>2018-03-05T14:14:37Z</time>
      </trkpt>
      <trkpt lat="38.3429350" lon="-0.6792680">
        <ele>285.0</ele>
        <time>2018-03-05T14:14:38Z</time>
      </trkpt>
      <trkpt lat="38.3429120" lon="-0.6792350">
        <ele>285.0</ele>
        <time>2018-03-05T14:14:39Z</time>
      </trkpt>
      <trkpt lat="38.3428950" lon="-0.6792010">
        <ele>285.0</ele>
        <time>2018-03-05T14:14:40Z</time>
      </trkpt>
      <trkpt lat="38.3428780" lon="-0.6791720">
        <ele>286.0</ele>
        <time>2018-03-05T14:14:41Z</time>
      </trkpt>
      <trkpt lat="38.3428660" lon="-0.6791470">
        <ele>286.0</ele>
        <time>2018-03-05T14:14:42Z</time>
      </trkpt>
      <trkpt lat="38.3428520" lon="-0.6791220">
        <ele>286.0</ele>
        <time>2018-03-05T14:14:43Z</time>
      </trkpt>
      <trkpt lat="38.3428340" lon="-0.6790980">
        <ele>287.0</ele>
        <time>2018-03-05T14:14:44Z</time>
      </trkpt>
      <trkpt lat="38.3428170" lon="-0.6790750">
        <ele>287.0</ele>
        <time>2018-03-05T14:14:45Z</time>
      </trkpt>
      <trkpt lat="38.3428030" lon="-0.6790530">
        <ele>287.0</ele>
        <time>2018-03-05T14:14:46Z</time>
      </trkpt>
      <trkpt lat="38.3427870" lon="-0.6790350">
        <ele>287.0</ele>
        <time>2018-03-05T14:14:47Z</time>
      </trkpt>
      <trkpt lat="38.3427740" lon="-0.6790270">
        <ele>287.0</ele>
        <time>2018-03-05T14:14:48Z</time>
      </trkpt>
      <trkpt lat="38.3427550" lon="-0.6790170">
        <ele>287.0</ele>
        <time>2018-03-05T14:14:49Z</time>
      </trkpt>
      <trkpt lat="38.3427340" lon="-0.6790100">
        <ele>287.0</ele>
        <time>2018-03-05T14:14:50Z</time>
      </trkpt>
      <trkpt lat="38.3427080" lon="-0.6790010">
        <ele>287.0</ele>
        <time>2018-03-05T14:14:51Z</time>
      </trkpt>
      <trkpt lat="38.3426740" lon="-0.6789920">
        <ele>286.0</ele>
        <time>2018-03-05T14:14:52Z</time>
      </trkpt>
      <trkpt lat="38.3426330" lon="-0.6789840">
        <ele>285.0</ele>
        <time>2018-03-05T14:14:53Z</time>
      </trkpt>
      <trkpt lat="38.3425880" lon="-0.6789710">
        <ele>284.0</ele>
        <time>2018-03-05T14:14:54Z</time>
      </trkpt>
      <trkpt lat="38.3425440" lon="-0.6789590">
        <ele>283.0</ele>
        <time>2018-03-05T14:14:55Z</time>
      </trkpt>
      <trkpt lat="38.3425000" lon="-0.6789370">
        <ele>282.0</ele>
        <time>2018-03-05T14:14:56Z</time>
      </trkpt>
      <trkpt lat="38.3424550" lon="-0.6789120">
        <ele>281.0</ele>
        <time>2018-03-05T14:14:57Z</time>
      </trkpt>
      <trkpt lat="38.3424120" lon="-0.6788970">
        <ele>280.0</ele>
        <time>2018-03-05T14:14:58Z</time>
      </trkpt>
      <trkpt lat="38.3423660" lon="-0.6788860">
        <ele>279.0</ele>
        <time>2018-03-05T14:14:59Z</time>
      </trkpt>
      <trkpt lat="38.3423210" lon="-0.6788820">
        <ele>278.0</ele>
        <time>2018-03-05T14:15:00Z</time>
      </trkpt>
      <trkpt lat="38.3422740" lon="-0.6788710">
        <ele>276.0</ele>
        <time>2018-03-05T14:15:01Z</time>
      </trkpt>
      <trkpt lat="38.3422220" lon="-0.6788680">
        <ele>275.0</ele>
        <time>2018-03-05T14:15:02Z</time>
      </trkpt>
      <trkpt lat="38.3421750" lon="-0.6788730">
        <ele>273.0</ele>
        <time>2018-03-05T14:15:03Z</time>
      </trkpt>
      <trkpt lat="38.3421320" lon="-0.6788830">
        <ele>272.0</ele>
        <time>2018-03-05T14:15:04Z</time>
      </trkpt>
      <trkpt lat="38.3420920" lon="-0.6788800">
        <ele>271.0</ele>
        <time>2018-03-05T14:15:05Z</time>
      </trkpt>
      <trkpt lat="38.3420480" lon="-0.6788720">
        <ele>270.0</ele>
        <time>2018-03-05T14:15:06Z</time>
      </trkpt>
      <trkpt lat="38.3419980" lon="-0.6788700">
        <ele>269.0</ele>
        <time>2018-03-05T14:15:07Z</time>
      </trkpt>
      <trkpt lat="38.3419410" lon="-0.6788670">
        <ele>269.0</ele>
        <time>2018-03-05T14:15:08Z</time>
      </trkpt>
      <trkpt lat="38.3418850" lon="-0.6788600">
        <ele>268.0</ele>
        <time>2018-03-05T14:15:09Z</time>
      </trkpt>
      <trkpt lat="38.3418290" lon="-0.6788450">
        <ele>267.0</ele>
        <time>2018-03-05T14:15:10Z</time>
      </trkpt>
      <trkpt lat="38.3417790" lon="-0.6788260">
        <ele>267.0</ele>
        <time>2018-03-05T14:15:11Z</time>
      </trkpt>
      <trkpt lat="38.3417440" lon="-0.6787990">
        <ele>268.0</ele>
        <time>2018-03-05T14:15:12Z</time>
      </trkpt>
      <trkpt lat="38.3417400" lon="-0.6787890">
        <ele>268.0</ele>
        <time>2018-03-05T14:15:13Z</time>
      </trkpt>
      <trkpt lat="38.3417430" lon="-0.6787960">
        <ele>269.0</ele>
        <time>2018-03-05T14:15:14Z</time>
      </trkpt>
      <trkpt lat="38.3417370" lon="-0.6787980">
        <ele>269.0</ele>
        <time>2018-03-05T14:15:15Z</time>
      </trkpt>
      <trkpt lat="38.3417290" lon="-0.6787940">
        <ele>270.0</ele>
        <time>2018-03-05T14:15:16Z</time>
      </trkpt>
      <trkpt lat="38.3417180" lon="-0.6787870">
        <ele>270.0</ele>
        <time>2018-03-05T14:15:17Z</time>
      </trkpt>
      <trkpt lat="38.3417050" lon="-0.6787810">
        <ele>271.0</ele>
        <time>2018-03-05T14:15:18Z</time>
      </trkpt>
      <trkpt lat="38.3416900" lon="-0.6787760">
        <ele>272.0</ele>
        <time>2018-03-05T14:15:19Z</time>
      </trkpt>
      <trkpt lat="38.3416750" lon="-0.6787700">
        <ele>272.0</ele>
        <time>2018-03-05T14:15:20Z</time>
      </trkpt>
      <trkpt lat="38.3416620" lon="-0.6787640">
        <ele>273.0</ele>
        <time>2018-03-05T14:15:21Z</time>
      </trkpt>
      <trkpt lat="38.3416500" lon="-0.6787600">
        <ele>273.0</ele>
        <time>2018-03-05T14:15:22Z</time>
      </trkpt>
      <trkpt lat="38.3416400" lon="-0.6787560">
        <ele>274.0</ele>
        <time>2018-03-05T14:15:23Z</time>
      </trkpt>
      <trkpt lat="38.3416290" lon="-0.6787520">
        <ele>274.0</ele>
        <time>2018-03-05T14:15:24Z</time>
      </trkpt>
      <trkpt lat="38.3416200" lon="-0.6787470">
        <ele>275.0</ele>
        <time>2018-03-05T14:15:25Z</time>
      </trkpt>
      <trkpt lat="38.3416110" lon="-0.6787410">
        <ele>275.0</ele>
        <time>2018-03-05T14:15:26Z</time>
      </trkpt>
      <trkpt lat="38.3416000" lon="-0.6787360">
        <ele>276.0</ele>
        <time>2018-03-05T14:15:27Z</time>
      </trkpt>
      <trkpt lat="38.3415900" lon="-0.6787310">
        <ele>276.0</ele>
        <time>2018-03-05T14:15:28Z</time>
      </trkpt>
      <trkpt lat="38.3415800" lon="-0.6787310">
        <ele>276.0</ele>
        <time>2018-03-05T14:15:29Z</time>
      </trkpt>
      <trkpt lat="38.3415670" lon="-0.6787320">
        <ele>276.0</ele>
        <time>2018-03-05T14:15:30Z</time>
      </trkpt>
      <trkpt lat="38.3415580" lon="-0.6787360">
        <ele>277.0</ele>
        <time>2018-03-05T14:15:31Z</time>
      </trkpt>
      <trkpt lat="38.3415530" lon="-0.6787380">
        <ele>276.0</ele>
        <time>2018-03-05T14:15:32Z</time>
      </trkpt>
      <trkpt lat="38.3415520" lon="-0.6787380">
        <ele>276.0</ele>
        <time>2018-03-05T14:15:33Z</time>
      </trkpt>
      <trkpt lat="38.3415520" lon="-0.6787390">
        <ele>276.0</ele>
        <time>2018-03-05T14:15:34Z</time>
      </trkpt>
      <trkpt lat="38.3415480" lon="-0.6787460">
        <ele>276.0</ele>
        <time>2018-03-05T14:15:35Z</time>
      </trkpt>
      <trkpt lat="38.3415340" lon="-0.6787520">
        <ele>276.0</ele>
        <time>2018-03-05T14:15:36Z</time>
      </trkpt>
      <trkpt lat="38.3415250" lon="-0.6787620">
        <ele>276.0</ele>
        <time>2018-03-05T14:15:37Z</time>
      </trkpt>
      <trkpt lat="38.3415150" lon="-0.6787780">
        <ele>276.0</ele>
        <time>2018-03-05T14:15:38Z</time>
      </trkpt>
      <trkpt lat="38.3415030" lon="-0.6787980">
        <ele>276.0</ele>
        <time>2018-03-05T14:15:39Z</time>
      </trkpt>
      <trkpt lat="38.3414870" lon="-0.6788260">
        <ele>276.0</ele>
        <time>2018-03-05T14:15:40Z</time>
      </trkpt>
      <trkpt lat="38.3414800" lon="-0.6788500">
        <ele>276.0</ele>
        <time>2018-03-05T14:15:41Z</time>
      </trkpt>
      <trkpt lat="38.3414720" lon="-0.6788750">
        <ele>276.0</ele>
        <time>2018-03-05T14:15:42Z</time>
      </trkpt>
      <trkpt lat="38.3414620" lon="-0.6788990">
        <ele>277.0</ele>
        <time>2018-03-05T14:15:43Z</time>
      </trkpt>
      <trkpt lat="38.3414490" lon="-0.6789190">
        <ele>277.0</ele>
        <time>2018-03-05T14:15:44Z</time>
      </trkpt>
      <trkpt lat="38.3414360" lon="-0.6789370">
        <ele>277.0</ele>
        <time>2018-03-05T14:15:45Z</time>
      </trkpt>
      <trkpt lat="38.3414270" lon="-0.6789580">
        <ele>277.0</ele>
        <time>2018-03-05T14:15:46Z</time>
      </trkpt>
      <trkpt lat="38.3414200" lon="-0.6789790">
        <ele>277.0</ele>
        <time>2018-03-05T14:15:47Z</time>
      </trkpt>
      <trkpt lat="38.3414110" lon="-0.6790030">
        <ele>278.0</ele>
        <time>2018-03-05T14:15:48Z</time>
      </trkpt>
      <trkpt lat="38.3414010" lon="-0.6790240">
        <ele>278.0</ele>
        <time>2018-03-05T14:15:49Z</time>
      </trkpt>
      <trkpt lat="38.3413940" lon="-0.6790550">
        <ele>277.0</ele>
        <time>2018-03-05T14:15:50Z</time>
      </trkpt>
      <trkpt lat="38.3413840" lon="-0.6790900">
        <ele>277.0</ele>
        <time>2018-03-05T14:15:51Z</time>
      </trkpt>
      <trkpt lat="38.3413750" lon="-0.6791310">
        <ele>278.0</ele>
        <time>2018-03-05T14:15:52Z</time>
      </trkpt>
      <trkpt lat="38.3413710" lon="-0.6791720">
        <ele>277.0</ele>
        <time>2018-03-05T14:15:53Z</time>
      </trkpt>
      <trkpt lat="38.3413680" lon="-0.6792150">
        <ele>277.0</ele>
        <time>2018-03-05T14:15:54Z</time>
      </trkpt>
      <trkpt lat="38.3413630" lon="-0.6792610">
        <ele>277.0</ele>
        <time>2018-03-05T14:15:55Z</time>
      </trkpt>
      <trkpt lat="38.3413570" lon="-0.6793080">
        <ele>277.0</ele>
        <time>2018-03-05T14:15:56Z</time>
      </trkpt>
      <trkpt lat="38.3413440" lon="-0.6793500">
        <ele>277.0</ele>
        <time>2018-03-05T14:15:57Z</time>
      </trkpt>
      <trkpt lat="38.3413310" lon="-0.6793950">
        <ele>277.0</ele>
        <time>2018-03-05T14:15:58Z</time>
      </trkpt>
      <trkpt lat="38.3413210" lon="-0.6794390">
        <ele>278.0</ele>
        <time>2018-03-05T14:15:59Z</time>
      </trkpt>
      <trkpt lat="38.3413130" lon="-0.6794860">
        <ele>278.0</ele>
        <time>2018-03-05T14:16:00Z</time>
      </trkpt>
      <trkpt lat="38.3413060" lon="-0.6795310">
        <ele>278.0</ele>
        <time>2018-03-05T14:16:01Z</time>
      </trkpt>
      <trkpt lat="38.3412920" lon="-0.6795750">
        <ele>278.0</ele>
        <time>2018-03-05T14:16:02Z</time>
      </trkpt>
      <trkpt lat="38.3412770" lon="-0.6796170">
        <ele>278.0</ele>
        <time>2018-03-05T14:16:03Z</time>
      </trkpt>
      <trkpt lat="38.3412640" lon="-0.6796590">
        <ele>279.0</ele>
        <time>2018-03-05T14:16:04Z</time>
      </trkpt>
      <trkpt lat="38.3412530" lon="-0.6796990">
        <ele>279.0</ele>
        <time>2018-03-05T14:16:05Z</time>
      </trkpt>
      <trkpt lat="38.3412520" lon="-0.6797460">
        <ele>279.0</ele>
        <time>2018-03-05T14:16:06Z</time>
      </trkpt>
      <trkpt lat="38.3412460" lon="-0.6797820">
        <ele>280.0</ele>
        <time>2018-03-05T14:16:07Z</time>
      </trkpt>
      <trkpt lat="38.3412310" lon="-0.6798120">
        <ele>280.0</ele>
        <time>2018-03-05T14:16:08Z</time>
      </trkpt>
      <trkpt lat="38.3412080" lon="-0.6798370">
        <ele>280.0</ele>
        <time>2018-03-05T14:16:09Z</time>
      </trkpt>
      <trkpt lat="38.3411890" lon="-0.6798630">
        <ele>281.0</ele>
        <time>2018-03-05T14:16:10Z</time>
      </trkpt>
      <trkpt lat="38.3411720" lon="-0.6798830">
        <ele>280.0</ele>
        <time>2018-03-05T14:16:11Z</time>
      </trkpt>
      <trkpt lat="38.3411530" lon="-0.6799070">
        <ele>281.0</ele>
        <time>2018-03-05T14:16:12Z</time>
      </trkpt>
      <trkpt lat="38.3411350" lon="-0.6799290">
        <ele>280.0</ele>
        <time>2018-03-05T14:16:13Z</time>
      </trkpt>
      <trkpt lat="38.3411140" lon="-0.6799470">
        <ele>281.0</ele>
        <time>2018-03-05T14:16:14Z</time>
      </trkpt>
      <trkpt lat="38.3410990" lon="-0.6799680">
        <ele>281.0</ele>
        <time>2018-03-05T14:16:15Z</time>
      </trkpt>
      <trkpt lat="38.3410790" lon="-0.6799880">
        <ele>281.0</ele>
        <time>2018-03-05T14:16:16Z</time>
      </trkpt>
      <trkpt lat="38.3410610" lon="-0.6800070">
        <ele>281.0</ele>
        <time>2018-03-05T14:16:17Z</time>
      </trkpt>
      <trkpt lat="38.3410430" lon="-0.6800300">
        <ele>281.0</ele>
        <time>2018-03-05T14:16:18Z</time>
      </trkpt>
      <trkpt lat="38.3410250" lon="-0.6800520">
        <ele>280.0</ele>
        <time>2018-03-05T14:16:19Z</time>
      </trkpt>
      <trkpt lat="38.3410050" lon="-0.6800710">
        <ele>280.0</ele>
        <time>2018-03-05T14:16:20Z</time>
      </trkpt>
      <trkpt lat="38.3409890" lon="-0.6800890">
        <ele>280.0</ele>
        <time>2018-03-05T14:16:21Z</time>
      </trkpt>
      <trkpt lat="38.3409750" lon="-0.6801130">
        <ele>281.0</ele>
        <time>2018-03-05T14:16:22Z</time>
      </trkpt>
      <trkpt lat="38.3409620" lon="-0.6801260">
        <ele>280.0</ele>
        <time>2018-03-05T14:16:23Z</time>
      </trkpt>
      <trkpt lat="38.3409500" lon="-0.6801430">
        <ele>280.0</ele>
        <time>2018-03-05T14:16:24Z</time>
      </trkpt>
      <trkpt lat="38.3409370" lon="-0.6801650">
        <ele>281.0</ele>
        <time>2018-03-05T14:16:25Z</time>
      </trkpt>
      <trkpt lat="38.3409240" lon="-0.6801900">
        <ele>282.0</ele>
        <time>2018-03-05T14:16:26Z</time>
      </trkpt>
      <trkpt lat="38.3409110" lon="-0.6802120">
        <ele>282.0</ele>
        <time>2018-03-05T14:16:27Z</time>
      </trkpt>
      <trkpt lat="38.3408990" lon="-0.6802350">
        <ele>282.0</ele>
        <time>2018-03-05T14:16:28Z</time>
      </trkpt>
      <trkpt lat="38.3408860" lon="-0.6802560">
        <ele>282.0</ele>
        <time>2018-03-05T14:16:29Z</time>
      </trkpt>
      <trkpt lat="38.3408750" lon="-0.6802800">
        <ele>282.0</ele>
        <time>2018-03-05T14:16:30Z</time>
      </trkpt>
      <trkpt lat="38.3408680" lon="-0.6803030">
        <ele>282.0</ele>
        <time>2018-03-05T14:16:31Z</time>
      </trkpt>
      <trkpt lat="38.3408600" lon="-0.6803270">
        <ele>282.0</ele>
        <time>2018-03-05T14:16:32Z</time>
      </trkpt>
      <trkpt lat="38.3408500" lon="-0.6803470">
        <ele>282.0</ele>
        <time>2018-03-05T14:16:33Z</time>
      </trkpt>
      <trkpt lat="38.3408340" lon="-0.6803840">
        <ele>284.0</ele>
        <time>2018-03-05T14:16:34Z</time>
      </trkpt>
      <trkpt lat="38.3408240" lon="-0.6804070">
        <ele>284.0</ele>
        <time>2018-03-05T14:16:35Z</time>
      </trkpt>
      <trkpt lat="38.3408180" lon="-0.6804320">
        <ele>285.0</ele>
        <time>2018-03-05T14:16:36Z</time>
      </trkpt>
      <trkpt lat="38.3408050" lon="-0.6804650">
        <ele>287.0</ele>
        <time>2018-03-05T14:16:37Z</time>
      </trkpt>
      <trkpt lat="38.3407970" lon="-0.6804950">
        <ele>287.0</ele>
        <time>2018-03-05T14:16:38Z</time>
      </trkpt>
      <trkpt lat="38.3407890" lon="-0.6805210">
        <ele>287.0</ele>
        <time>2018-03-05T14:16:39Z</time>
      </trkpt>
      <trkpt lat="38.3407800" lon="-0.6805480">
        <ele>288.0</ele>
        <time>2018-03-05T14:16:40Z</time>
      </trkpt>
      <trkpt lat="38.3407710" lon="-0.6805730">
        <ele>289.0</ele>
        <time>2018-03-05T14:16:41Z</time>
      </trkpt>
      <trkpt lat="38.3407660" lon="-0.6805980">
        <ele>289.0</ele>
        <time>2018-03-05T14:16:42Z</time>
      </trkpt>
      <trkpt lat="38.3407600" lon="-0.6806230">
        <ele>290.0</ele>
        <time>2018-03-05T14:16:43Z</time>
      </trkpt>
      <trkpt lat="38.3407500" lon="-0.6806510">
        <ele>290.0</ele>
        <time>2018-03-05T14:16:44Z</time>
      </trkpt>
      <trkpt lat="38.3407420" lon="-0.6806850">
        <ele>290.0</ele>
        <time>2018-03-05T14:16:45Z</time>
      </trkpt>
      <trkpt lat="38.3407360" lon="-0.6807250">
        <ele>290.0</ele>
        <time>2018-03-05T14:16:46Z</time>
      </trkpt>
      <trkpt lat="38.3407280" lon="-0.6807690">
        <ele>290.0</ele>
        <time>2018-03-05T14:16:47Z</time>
      </trkpt>
      <trkpt lat="38.3407220" lon="-0.6808180">
        <ele>290.0</ele>
        <time>2018-03-05T14:16:48Z</time>
      </trkpt>
      <trkpt lat="38.3407140" lon="-0.6808630">
        <ele>290.0</ele>
        <time>2018-03-05T14:16:49Z</time>
      </trkpt>
      <trkpt lat="38.3407050" lon="-0.6809050">
        <ele>290.0</ele>
        <time>2018-03-05T14:16:50Z</time>
      </trkpt>
      <trkpt lat="38.3406980" lon="-0.6809430">
        <ele>291.0</ele>
        <time>2018-03-05T14:16:51Z</time>
      </trkpt>
      <trkpt lat="38.3406880" lon="-0.6809740">
        <ele>291.0</ele>
        <time>2018-03-05T14:16:52Z</time>
      </trkpt>
      <trkpt lat="38.3406750" lon="-0.6809930">
        <ele>291.0</ele>
        <time>2018-03-05T14:16:53Z</time>
      </trkpt>
      <trkpt lat="38.3406610" lon="-0.6810140">
        <ele>291.0</ele>
        <time>2018-03-05T14:16:54Z</time>
      </trkpt>
      <trkpt lat="38.3406490" lon="-0.6810340">
        <ele>291.0</ele>
        <time>2018-03-05T14:16:55Z</time>
      </trkpt>
      <trkpt lat="38.3406410" lon="-0.6810540">
        <ele>292.0</ele>
        <time>2018-03-05T14:16:56Z</time>
      </trkpt>
      <trkpt lat="38.3406280" lon="-0.6810690">
        <ele>291.0</ele>
        <time>2018-03-05T14:16:57Z</time>
      </trkpt>
      <trkpt lat="38.3406140" lon="-0.6810880">
        <ele>292.0</ele>
        <time>2018-03-05T14:16:58Z</time>
      </trkpt>
      <trkpt lat="38.3406010" lon="-0.6811000">
        <ele>291.0</ele>
        <time>2018-03-05T14:16:59Z</time>
      </trkpt>
      <trkpt lat="38.3405890" lon="-0.6811150">
        <ele>291.0</ele>
        <time>2018-03-05T14:17:00Z</time>
      </trkpt>
      <trkpt lat="38.3405740" lon="-0.6811340">
        <ele>291.0</ele>
        <time>2018-03-05T14:17:01Z</time>
      </trkpt>
      <trkpt lat="38.3405580" lon="-0.6811530">
        <ele>291.0</ele>
        <time>2018-03-05T14:17:02Z</time>
      </trkpt>
      <trkpt lat="38.3405400" lon="-0.6811720">
        <ele>291.0</ele>
        <time>2018-03-05T14:17:03Z</time>
      </trkpt>
      <trkpt lat="38.3405230" lon="-0.6811930">
        <ele>292.0</ele>
        <time>2018-03-05T14:17:04Z</time>
      </trkpt>
      <trkpt lat="38.3405080" lon="-0.6812100">
        <ele>292.0</ele>
        <time>2018-03-05T14:17:05Z</time>
      </trkpt>
      <trkpt lat="38.3404930" lon="-0.6812290">
        <ele>292.0</ele>
        <time>2018-03-05T14:17:06Z</time>
      </trkpt>
      <trkpt lat="38.3404770" lon="-0.6812400">
        <ele>292.0</ele>
        <time>2018-03-05T14:17:07Z</time>
      </trkpt>
      <trkpt lat="38.3404590" lon="-0.6812600">
        <ele>293.0</ele>
        <time>2018-03-05T14:17:08Z</time>
      </trkpt>
      <trkpt lat="38.3404400" lon="-0.6812710">
        <ele>293.0</ele>
        <time>2018-03-05T14:17:09Z</time>
      </trkpt>
      <trkpt lat="38.3404230" lon="-0.6812830">
        <ele>293.0</ele>
        <time>2018-03-05T14:17:10Z</time>
      </trkpt>
      <trkpt lat="38.3404080" lon="-0.6812980">
        <ele>293.0</ele>
        <time>2018-03-05T14:17:11Z</time>
      </trkpt>
      <trkpt lat="38.3403920" lon="-0.6813140">
        <ele>294.0</ele>
        <time>2018-03-05T14:17:12Z</time>
      </trkpt>
      <trkpt lat="38.3403790" lon="-0.6813330">
        <ele>294.0</ele>
        <time>2018-03-05T14:17:13Z</time>
      </trkpt>
      <trkpt lat="38.3403650" lon="-0.6813490">
        <ele>295.0</ele>
        <time>2018-03-05T14:17:14Z</time>
      </trkpt>
      <trkpt lat="38.3403510" lon="-0.6813740">
        <ele>295.0</ele>
        <time>2018-03-05T14:17:15Z</time>
      </trkpt>
      <trkpt lat="38.3403380" lon="-0.6814050">
        <ele>296.0</ele>
        <time>2018-03-05T14:17:16Z</time>
      </trkpt>
      <trkpt lat="38.3403270" lon="-0.6814340">
        <ele>297.0</ele>
        <time>2018-03-05T14:17:17Z</time>
      </trkpt>
      <trkpt lat="38.3403150" lon="-0.6814580">
        <ele>297.0</ele>
        <time>2018-03-05T14:17:18Z</time>
      </trkpt>
      <trkpt lat="38.3403030" lon="-0.6814810">
        <ele>297.0</ele>
        <time>2018-03-05T14:17:19Z</time>
      </trkpt>
      <trkpt lat="38.3402870" lon="-0.6815080">
        <ele>298.0</ele>
        <time>2018-03-05T14:17:20Z</time>
      </trkpt>
      <trkpt lat="38.3402670" lon="-0.6815280">
        <ele>298.0</ele>
        <time>2018-03-05T14:17:21Z</time>
      </trkpt>
      <trkpt lat="38.3402480" lon="-0.6815500">
        <ele>299.0</ele>
        <time>2018-03-05T14:17:22Z</time>
      </trkpt>
      <trkpt lat="38.3402310" lon="-0.6815680">
        <ele>299.0</ele>
        <time>2018-03-05T14:17:23Z</time>
      </trkpt>
      <trkpt lat="38.3402130" lon="-0.6815810">
        <ele>299.0</ele>
        <time>2018-03-05T14:17:24Z</time>
      </trkpt>
      <trkpt lat="38.3401920" lon="-0.6815980">
        <ele>300.0</ele>
        <time>2018-03-05T14:17:25Z</time>
      </trkpt>
      <trkpt lat="38.3401720" lon="-0.6816150">
        <ele>300.0</ele>
        <time>2018-03-05T14:17:26Z</time>
      </trkpt>
      <trkpt lat="38.3401480" lon="-0.6816330">
        <ele>300.0</ele>
        <time>2018-03-05T14:17:27Z</time>
      </trkpt>
      <trkpt lat="38.3401280" lon="-0.6816490">
        <ele>300.0</ele>
        <time>2018-03-05T14:17:28Z</time>
      </trkpt>
      <trkpt lat="38.3401070" lon="-0.6816630">
        <ele>300.0</ele>
        <time>2018-03-05T14:17:29Z</time>
      </trkpt>
      <trkpt lat="38.3400840" lon="-0.6816790">
        <ele>299.0</ele>
        <time>2018-03-05T14:17:30Z</time>
      </trkpt>
      <trkpt lat="38.3400610" lon="-0.6816910">
        <ele>299.0</ele>
        <time>2018-03-05T14:17:31Z</time>
      </trkpt>
      <trkpt lat="38.3400410" lon="-0.6817100">
        <ele>300.0</ele>
        <time>2018-03-05T14:17:32Z</time>
      </trkpt>
      <trkpt lat="38.3400200" lon="-0.6817220">
        <ele>300.0</ele>
        <time>2018-03-05T14:17:33Z</time>
      </trkpt>
      <trkpt lat="38.3399960" lon="-0.6817360">
        <ele>300.0</ele>
        <time>2018-03-05T14:17:34Z</time>
      </trkpt>
      <trkpt lat="38.3399730" lon="-0.6817530">
        <ele>300.0</ele>
        <time>2018-03-05T14:17:35Z</time>
      </trkpt>
      <trkpt lat="38.3399460" lon="-0.6817760">
        <ele>299.0</ele>
        <time>2018-03-05T14:17:36Z</time>
      </trkpt>
      <trkpt lat="38.3399180" lon="-0.6818080">
        <ele>298.0</ele>
        <time>2018-03-05T14:17:37Z</time>
      </trkpt>
      <trkpt lat="38.3399060" lon="-0.6818500">
        <ele>298.0</ele>
        <time>2018-03-05T14:17:38Z</time>
      </trkpt>
      <trkpt lat="38.3399040" lon="-0.6818890">
        <ele>298.0</ele>
        <time>2018-03-05T14:17:39Z</time>
      </trkpt>
      <trkpt lat="38.3399070" lon="-0.6819420">
        <ele>298.0</ele>
        <time>2018-03-05T14:17:40Z</time>
      </trkpt>
      <trkpt lat="38.3399220" lon="-0.6819830">
        <ele>297.0</ele>
        <time>2018-03-05T14:17:41Z</time>
      </trkpt>
      <trkpt lat="38.3399440" lon="-0.6820360">
        <ele>297.0</ele>
        <time>2018-03-05T14:17:42Z</time>
      </trkpt>
      <trkpt lat="38.3399720" lon="-0.6820950">
        <ele>296.0</ele>
        <time>2018-03-05T14:17:43Z</time>
      </trkpt>
      <trkpt lat="38.3400080" lon="-0.6821580">
        <ele>296.0</ele>
        <time>2018-03-05T14:17:44Z</time>
      </trkpt>
      <trkpt lat="38.3400390" lon="-0.6822180">
        <ele>295.0</ele>
        <time>2018-03-05T14:17:45Z</time>
      </trkpt>
      <trkpt lat="38.3400760" lon="-0.6822740">
        <ele>295.0</ele>
        <time>2018-03-05T14:17:46Z</time>
      </trkpt>
      <trkpt lat="38.3401130" lon="-0.6823190">
        <ele>295.0</ele>
        <time>2018-03-05T14:17:47Z</time>
      </trkpt>
      <trkpt lat="38.3401570" lon="-0.6823020">
        <ele>297.0</ele>
        <time>2018-03-05T14:17:48Z</time>
      </trkpt>
      <trkpt lat="38.3401690" lon="-0.6822540">
        <ele>297.0</ele>
        <time>2018-03-05T14:17:49Z</time>
      </trkpt>
      <trkpt lat="38.3401900" lon="-0.6822320">
        <ele>297.0</ele>
        <time>2018-03-05T14:17:50Z</time>
      </trkpt>
      <trkpt lat="38.3401990" lon="-0.6821950">
        <ele>297.0</ele>
        <time>2018-03-05T14:17:51Z</time>
      </trkpt>
      <trkpt lat="38.3402000" lon="-0.6821650">
        <ele>297.0</ele>
        <time>2018-03-05T14:17:52Z</time>
      </trkpt>
      <trkpt lat="38.3402180" lon="-0.6821340">
        <ele>297.0</ele>
        <time>2018-03-05T14:17:53Z</time>
      </trkpt>
      <trkpt lat="38.3402380" lon="-0.6821060">
        <ele>297.0</ele>
        <time>2018-03-05T14:17:54Z</time>
      </trkpt>
      <trkpt lat="38.3402530" lon="-0.6820730">
        <ele>298.0</ele>
        <time>2018-03-05T14:17:55Z</time>
      </trkpt>
      <trkpt lat="38.3402690" lon="-0.6820380">
        <ele>298.0</ele>
        <time>2018-03-05T14:17:56Z</time>
      </trkpt>
      <trkpt lat="38.3402880" lon="-0.6820110">
        <ele>298.0</ele>
        <time>2018-03-05T14:17:57Z</time>
      </trkpt>
      <trkpt lat="38.3403080" lon="-0.6819850">
        <ele>298.0</ele>
        <time>2018-03-05T14:17:58Z</time>
      </trkpt>
      <trkpt lat="38.3403250" lon="-0.6819610">
        <ele>298.0</ele>
        <time>2018-03-05T14:17:59Z</time>
      </trkpt>
      <trkpt lat="38.3403410" lon="-0.6819400">
        <ele>298.0</ele>
        <time>2018-03-05T14:18:00Z</time>
      </trkpt>
      <trkpt lat="38.3403630" lon="-0.6819180">
        <ele>298.0</ele>
        <time>2018-03-05T14:18:01Z</time>
      </trkpt>
      <trkpt lat="38.3403830" lon="-0.6819020">
        <ele>298.0</ele>
        <time>2018-03-05T14:18:02Z</time>
      </trkpt>
      <trkpt lat="38.3404070" lon="-0.6818930">
        <ele>298.0</ele>
        <time>2018-03-05T14:18:03Z</time>
      </trkpt>
      <trkpt lat="38.3404330" lon="-0.6818900">
        <ele>298.0</ele>
        <time>2018-03-05T14:18:04Z</time>
      </trkpt>
      <trkpt lat="38.3404580" lon="-0.6818880">
        <ele>299.0</ele>
        <time>2018-03-05T14:18:05Z</time>
      </trkpt>
      <trkpt lat="38.3404830" lon="-0.6818860">
        <ele>299.0</ele>
        <time>2018-03-05T14:18:06Z</time>
      </trkpt>
      <trkpt lat="38.3405060" lon="-0.6818860">
        <ele>299.0</ele>
        <time>2018-03-05T14:18:07Z</time>
      </trkpt>
      <trkpt lat="38.3405270" lon="-0.6818880">
        <ele>299.0</ele>
        <time>2018-03-05T14:18:08Z</time>
      </trkpt>
      <trkpt lat="38.3405480" lon="-0.6818920">
        <ele>299.0</ele>
        <time>2018-03-05T14:18:09Z</time>
      </trkpt>
      <trkpt lat="38.3405670" lon="-0.6818980">
        <ele>300.0</ele>
        <time>2018-03-05T14:18:10Z</time>
      </trkpt>
      <trkpt lat="38.3405820" lon="-0.6819070">
        <ele>300.0</ele>
        <time>2018-03-05T14:18:11Z</time>
      </trkpt>
      <trkpt lat="38.3405990" lon="-0.6819160">
        <ele>300.0</ele>
        <time>2018-03-05T14:18:12Z</time>
      </trkpt>
      <trkpt lat="38.3406120" lon="-0.6819260">
        <ele>300.0</ele>
        <time>2018-03-05T14:18:13Z</time>
      </trkpt>
      <trkpt lat="38.3406310" lon="-0.6819350">
        <ele>300.0</ele>
        <time>2018-03-05T14:18:14Z</time>
      </trkpt>
      <trkpt lat="38.3406480" lon="-0.6819420">
        <ele>301.0</ele>
        <time>2018-03-05T14:18:15Z</time>
      </trkpt>
      <trkpt lat="38.3406670" lon="-0.6819510">
        <ele>301.0</ele>
        <time>2018-03-05T14:18:16Z</time>
      </trkpt>
      <trkpt lat="38.3406850" lon="-0.6819530">
        <ele>302.0</ele>
        <time>2018-03-05T14:18:17Z</time>
      </trkpt>
      <trkpt lat="38.3407030" lon="-0.6819570">
        <ele>302.0</ele>
        <time>2018-03-05T14:18:18Z</time>
      </trkpt>
      <trkpt lat="38.3407190" lon="-0.6819660">
        <ele>302.0</ele>
        <time>2018-03-05T14:18:19Z</time>
      </trkpt>
      <trkpt lat="38.3407350" lon="-0.6819650">
        <ele>303.0</ele>
        <time>2018-03-05T14:18:20Z</time>
      </trkpt>
      <trkpt lat="38.3407540" lon="-0.6819710">
        <ele>303.0</ele>
        <time>2018-03-05T14:18:21Z</time>
      </trkpt>
      <trkpt lat="38.3407710" lon="-0.6819810">
        <ele>303.0</ele>
        <time>2018-03-05T14:18:22Z</time>
      </trkpt>
      <trkpt lat="38.3407880" lon="-0.6819930">
        <ele>303.0</ele>
        <time>2018-03-05T14:18:23Z</time>
      </trkpt>
      <trkpt lat="38.3408070" lon="-0.6820070">
        <ele>303.0</ele>
        <time>2018-03-05T14:18:24Z</time>
      </trkpt>
      <trkpt lat="38.3408250" lon="-0.6820220">
        <ele>304.0</ele>
        <time>2018-03-05T14:18:25Z</time>
      </trkpt>
      <trkpt lat="38.3408410" lon="-0.6820390">
        <ele>304.0</ele>
        <time>2018-03-05T14:18:26Z</time>
      </trkpt>
      <trkpt lat="38.3408550" lon="-0.6820550">
        <ele>304.0</ele>
        <time>2018-03-05T14:18:27Z</time>
      </trkpt>
      <trkpt lat="38.3408710" lon="-0.6820750">
        <ele>305.0</ele>
        <time>2018-03-05T14:18:28Z</time>
      </trkpt>
      <trkpt lat="38.3408820" lon="-0.6820950">
        <ele>305.0</ele>
        <time>2018-03-05T14:18:29Z</time>
      </trkpt>
      <trkpt lat="38.3408940" lon="-0.6821160">
        <ele>305.0</ele>
        <time>2018-03-05T14:18:30Z</time>
      </trkpt>
      <trkpt lat="38.3409040" lon="-0.6821400">
        <ele>306.0</ele>
        <time>2018-03-05T14:18:31Z</time>
      </trkpt>
      <trkpt lat="38.3409130" lon="-0.6821670">
        <ele>305.0</ele>
        <time>2018-03-05T14:18:32Z</time>
      </trkpt>
      <trkpt lat="38.3409220" lon="-0.6821950">
        <ele>305.0</ele>
        <time>2018-03-05T14:18:33Z</time>
      </trkpt>
      <trkpt lat="38.3409310" lon="-0.6822290">
        <ele>305.0</ele>
        <time>2018-03-05T14:18:34Z</time>
      </trkpt>
      <trkpt lat="38.3409440" lon="-0.6822690">
        <ele>305.0</ele>
        <time>2018-03-05T14:18:35Z</time>
      </trkpt>
      <trkpt lat="38.3409580" lon="-0.6823140">
        <ele>305.0</ele>
        <time>2018-03-05T14:18:36Z</time>
      </trkpt>
      <trkpt lat="38.3409740" lon="-0.6823610">
        <ele>305.0</ele>
        <time>2018-03-05T14:18:37Z</time>
      </trkpt>
      <trkpt lat="38.3409860" lon="-0.6824060">
        <ele>305.0</ele>
        <time>2018-03-05T14:18:38Z</time>
      </trkpt>
      <trkpt lat="38.3409980" lon="-0.6824450">
        <ele>305.0</ele>
        <time>2018-03-05T14:18:39Z</time>
      </trkpt>
      <trkpt lat="38.3410120" lon="-0.6824830">
        <ele>305.0</ele>
        <time>2018-03-05T14:18:40Z</time>
      </trkpt>
      <trkpt lat="38.3410270" lon="-0.6825250">
        <ele>305.0</ele>
        <time>2018-03-05T14:18:41Z</time>
      </trkpt>
      <trkpt lat="38.3410410" lon="-0.6825700">
        <ele>304.0</ele>
        <time>2018-03-05T14:18:42Z</time>
      </trkpt>
      <trkpt lat="38.3410570" lon="-0.6826180">
        <ele>304.0</ele>
        <time>2018-03-05T14:18:43Z</time>
      </trkpt>
      <trkpt lat="38.3410710" lon="-0.6826690">
        <ele>304.0</ele>
        <time>2018-03-05T14:18:44Z</time>
      </trkpt>
      <trkpt lat="38.3410770" lon="-0.6827160">
        <ele>305.0</ele>
        <time>2018-03-05T14:18:45Z</time>
      </trkpt>
      <trkpt lat="38.3410840" lon="-0.6827610">
        <ele>305.0</ele>
        <time>2018-03-05T14:18:46Z</time>
      </trkpt>
      <trkpt lat="38.3410900" lon="-0.6828030">
        <ele>306.0</ele>
        <time>2018-03-05T14:18:47Z</time>
      </trkpt>
      <trkpt lat="38.3411020" lon="-0.6828430">
        <ele>306.0</ele>
        <time>2018-03-05T14:18:48Z</time>
      </trkpt>
      <trkpt lat="38.3411140" lon="-0.6828870">
        <ele>306.0</ele>
        <time>2018-03-05T14:18:49Z</time>
      </trkpt>
      <trkpt lat="38.3411330" lon="-0.6829310">
        <ele>306.0</ele>
        <time>2018-03-05T14:18:50Z</time>
      </trkpt>
      <trkpt lat="38.3411550" lon="-0.6829660">
        <ele>306.0</ele>
        <time>2018-03-05T14:18:51Z</time>
      </trkpt>
      <trkpt lat="38.3411840" lon="-0.6829850">
        <ele>306.0</ele>
        <time>2018-03-05T14:18:52Z</time>
      </trkpt>
      <trkpt lat="38.3412200" lon="-0.6829990">
        <ele>305.0</ele>
        <time>2018-03-05T14:18:53Z</time>
      </trkpt>
      <trkpt lat="38.3412570" lon="-0.6830020">
        <ele>305.0</ele>
        <time>2018-03-05T14:18:54Z</time>
      </trkpt>
      <trkpt lat="38.3413000" lon="-0.6830140">
        <ele>305.0</ele>
        <time>2018-03-05T14:18:55Z</time>
      </trkpt>
      <trkpt lat="38.3413440" lon="-0.6830170">
        <ele>305.0</ele>
        <time>2018-03-05T14:18:56Z</time>
      </trkpt>
      <trkpt lat="38.3413900" lon="-0.6830170">
        <ele>306.0</ele>
        <time>2018-03-05T14:18:57Z</time>
      </trkpt>
      <trkpt lat="38.3414270" lon="-0.6830140">
        <ele>306.0</ele>
        <time>2018-03-05T14:18:58Z</time>
      </trkpt>
      <trkpt lat="38.3414570" lon="-0.6830080">
        <ele>307.0</ele>
        <time>2018-03-05T14:18:59Z</time>
      </trkpt>
      <trkpt lat="38.3414830" lon="-0.6830040">
        <ele>307.0</ele>
        <time>2018-03-05T14:19:00Z</time>
      </trkpt>
      <trkpt lat="38.3415030" lon="-0.6829980">
        <ele>308.0</ele>
        <time>2018-03-05T14:19:01Z</time>
      </trkpt>
      <trkpt lat="38.3415250" lon="-0.6829900">
        <ele>308.0</ele>
        <time>2018-03-05T14:19:02Z</time>
      </trkpt>
      <trkpt lat="38.3415440" lon="-0.6829850">
        <ele>308.0</ele>
        <time>2018-03-05T14:19:03Z</time>
      </trkpt>
      <trkpt lat="38.3415640" lon="-0.6829790">
        <ele>308.0</ele>
        <time>2018-03-05T14:19:04Z</time>
      </trkpt>
      <trkpt lat="38.3415870" lon="-0.6829710">
        <ele>309.0</ele>
        <time>2018-03-05T14:19:05Z</time>
      </trkpt>
      <trkpt lat="38.3416090" lon="-0.6829660">
        <ele>309.0</ele>
        <time>2018-03-05T14:19:06Z</time>
      </trkpt>
      <trkpt lat="38.3416290" lon="-0.6829590">
        <ele>309.0</ele>
        <time>2018-03-05T14:19:07Z</time>
      </trkpt>
      <trkpt lat="38.3416490" lon="-0.6829510">
        <ele>309.0</ele>
        <time>2018-03-05T14:19:08Z</time>
      </trkpt>
      <trkpt lat="38.3416710" lon="-0.6829430">
        <ele>309.0</ele>
        <time>2018-03-05T14:19:09Z</time>
      </trkpt>
      <trkpt lat="38.3416930" lon="-0.6829350">
        <ele>310.0</ele>
        <time>2018-03-05T14:19:10Z</time>
      </trkpt>
      <trkpt lat="38.3417120" lon="-0.6829230">
        <ele>310.0</ele>
        <time>2018-03-05T14:19:11Z</time>
      </trkpt>
      <trkpt lat="38.3417320" lon="-0.6829120">
        <ele>310.0</ele>
        <time>2018-03-05T14:19:12Z</time>
      </trkpt>
      <trkpt lat="38.3417540" lon="-0.6829030">
        <ele>310.0</ele>
        <time>2018-03-05T14:19:13Z</time>
      </trkpt>
      <trkpt lat="38.3417750" lon="-0.6828930">
        <ele>310.0</ele>
        <time>2018-03-05T14:19:14Z</time>
      </trkpt>
      <trkpt lat="38.3417930" lon="-0.6828770">
        <ele>310.0</ele>
        <time>2018-03-05T14:19:15Z</time>
      </trkpt>
      <trkpt lat="38.3418150" lon="-0.6828630">
        <ele>310.0</ele>
        <time>2018-03-05T14:19:16Z</time>
      </trkpt>
      <trkpt lat="38.3418380" lon="-0.6828500">
        <ele>310.0</ele>
        <time>2018-03-05T14:19:17Z</time>
      </trkpt>
      <trkpt lat="38.3418620" lon="-0.6828350">
        <ele>310.0</ele>
        <time>2018-03-05T14:19:18Z</time>
      </trkpt>
      <trkpt lat="38.3418890" lon="-0.6828160">
        <ele>310.0</ele>
        <time>2018-03-05T14:19:19Z</time>
      </trkpt>
      <trkpt lat="38.3419190" lon="-0.6827950">
        <ele>310.0</ele>
        <time>2018-03-05T14:19:20Z</time>
      </trkpt>
      <trkpt lat="38.3419500" lon="-0.6827750">
        <ele>311.0</ele>
        <time>2018-03-05T14:19:21Z</time>
      </trkpt>
      <trkpt lat="38.3419780" lon="-0.6827530">
        <ele>311.0</ele>
        <time>2018-03-05T14:19:22Z</time>
      </trkpt>
      <trkpt lat="38.3420050" lon="-0.6827390">
        <ele>310.0</ele>
        <time>2018-03-05T14:19:23Z</time>
      </trkpt>
      <trkpt lat="38.3420330" lon="-0.6827270">
        <ele>310.0</ele>
        <time>2018-03-05T14:19:24Z</time>
      </trkpt>
      <trkpt lat="38.3420620" lon="-0.6827110">
        <ele>311.0</ele>
        <time>2018-03-05T14:19:25Z</time>
      </trkpt>
      <trkpt lat="38.3420870" lon="-0.6826930">
        <ele>311.0</ele>
        <time>2018-03-05T14:19:26Z</time>
      </trkpt>
      <trkpt lat="38.3421110" lon="-0.6826790">
        <ele>311.0</ele>
        <time>2018-03-05T14:19:27Z</time>
      </trkpt>
      <trkpt lat="38.3421330" lon="-0.6826700">
        <ele>311.0</ele>
        <time>2018-03-05T14:19:28Z</time>
      </trkpt>
      <trkpt lat="38.3421540" lon="-0.6826660">
        <ele>312.0</ele>
        <time>2018-03-05T14:19:29Z</time>
      </trkpt>
      <trkpt lat="38.3421760" lon="-0.6826630">
        <ele>312.0</ele>
        <time>2018-03-05T14:19:30Z</time>
      </trkpt>
      <trkpt lat="38.3422000" lon="-0.6826640">
        <ele>312.0</ele>
        <time>2018-03-05T14:19:31Z</time>
      </trkpt>
      <trkpt lat="38.3422290" lon="-0.6826560">
        <ele>312.0</ele>
        <time>2018-03-05T14:19:32Z</time>
      </trkpt>
      <trkpt lat="38.3422600" lon="-0.6826460">
        <ele>312.0</ele>
        <time>2018-03-05T14:19:33Z</time>
      </trkpt>
      <trkpt lat="38.3422890" lon="-0.6826360">
        <ele>312.0</ele>
        <time>2018-03-05T14:19:34Z</time>
      </trkpt>
      <trkpt lat="38.3423220" lon="-0.6826320">
        <ele>312.0</ele>
        <time>2018-03-05T14:19:35Z</time>
      </trkpt>
      <trkpt lat="38.3423510" lon="-0.6826290">
        <ele>312.0</ele>
        <time>2018-03-05T14:19:36Z</time>
      </trkpt>
      <trkpt lat="38.3423810" lon="-0.6826300">
        <ele>312.0</ele>
        <time>2018-03-05T14:19:37Z</time>
      </trkpt>
      <trkpt lat="38.3424130" lon="-0.6826340">
        <ele>312.0</ele>
        <time>2018-03-05T14:19:38Z</time>
      </trkpt>
      <trkpt lat="38.3424450" lon="-0.6826390">
        <ele>312.0</ele>
        <time>2018-03-05T14:19:39Z</time>
      </trkpt>
      <trkpt lat="38.3424780" lon="-0.6826400">
        <ele>312.0</ele>
        <time>2018-03-05T14:19:40Z</time>
      </trkpt>
      <trkpt lat="38.3425130" lon="-0.6826420">
        <ele>312.0</ele>
        <time>2018-03-05T14:19:41Z</time>
      </trkpt>
      <trkpt lat="38.3425480" lon="-0.6826440">
        <ele>312.0</ele>
        <time>2018-03-05T14:19:42Z</time>
      </trkpt>
      <trkpt lat="38.3425870" lon="-0.6826470">
        <ele>312.0</ele>
        <time>2018-03-05T14:19:43Z</time>
      </trkpt>
      <trkpt lat="38.3426220" lon="-0.6826490">
        <ele>312.0</ele>
        <time>2018-03-05T14:19:44Z</time>
      </trkpt>
      <trkpt lat="38.3426570" lon="-0.6826480">
        <ele>312.0</ele>
        <time>2018-03-05T14:19:45Z</time>
      </trkpt>
      <trkpt lat="38.3426890" lon="-0.6826430">
        <ele>313.0</ele>
        <time>2018-03-05T14:19:46Z</time>
      </trkpt>
      <trkpt lat="38.3427180" lon="-0.6826430">
        <ele>313.0</ele>
        <time>2018-03-05T14:19:47Z</time>
      </trkpt>
      <trkpt lat="38.3427510" lon="-0.6826460">
        <ele>313.0</ele>
        <time>2018-03-05T14:19:48Z</time>
      </trkpt>
      <trkpt lat="38.3427820" lon="-0.6826450">
        <ele>313.0</ele>
        <time>2018-03-05T14:19:49Z</time>
      </trkpt>
      <trkpt lat="38.3428150" lon="-0.6826440">
        <ele>313.0</ele>
        <time>2018-03-05T14:19:50Z</time>
      </trkpt>
      <trkpt lat="38.3428470" lon="-0.6826460">
        <ele>313.0</ele>
        <time>2018-03-05T14:19:51Z</time>
      </trkpt>
      <trkpt lat="38.3428790" lon="-0.6826500">
        <ele>313.0</ele>
        <time>2018-03-05T14:19:52Z</time>
      </trkpt>
      <trkpt lat="38.3429130" lon="-0.6826600">
        <ele>313.0</ele>
        <time>2018-03-05T14:19:53Z</time>
      </trkpt>
      <trkpt lat="38.3429450" lon="-0.6826860">
        <ele>313.0</ele>
        <time>2018-03-05T14:19:54Z</time>
      </trkpt>
      <trkpt lat="38.3429730" lon="-0.6827160">
        <ele>312.0</ele>
        <time>2018-03-05T14:19:55Z</time>
      </trkpt>
      <trkpt lat="38.3430010" lon="-0.6827560">
        <ele>312.0</ele>
        <time>2018-03-05T14:19:56Z</time>
      </trkpt>
      <trkpt lat="38.3430240" lon="-0.6828040">
        <ele>312.0</ele>
        <time>2018-03-05T14:19:57Z</time>
      </trkpt>
      <trkpt lat="38.3430430" lon="-0.6828590">
        <ele>312.0</ele>
        <time>2018-03-05T14:19:58Z</time>
      </trkpt>
      <trkpt lat="38.3430560" lon="-0.6829170">
        <ele>312.0</ele>
        <time>2018-03-05T14:19:59Z</time>
      </trkpt>
      <trkpt lat="38.3430610" lon="-0.6829760">
        <ele>312.0</ele>
        <time>2018-03-05T14:20:00Z</time>
      </trkpt>
      <trkpt lat="38.3430600" lon="-0.6830360">
        <ele>312.0</ele>
        <time>2018-03-05T14:20:01Z</time>
      </trkpt>
      <trkpt lat="38.3430560" lon="-0.6830950">
        <ele>312.0</ele>
        <time>2018-03-05T14:20:02Z</time>
      </trkpt>
      <trkpt lat="38.3430510" lon="-0.6831510">
        <ele>312.0</ele>
        <time>2018-03-05T14:20:03Z</time>
      </trkpt>
      <trkpt lat="38.3430460" lon="-0.6832040">
        <ele>312.0</ele>
        <time>2018-03-05T14:20:04Z</time>
      </trkpt>
      <trkpt lat="38.3430460" lon="-0.6832520">
        <ele>312.0</ele>
        <time>2018-03-05T14:20:05Z</time>
      </trkpt>
      <trkpt lat="38.3430430" lon="-0.6832950">
        <ele>313.0</ele>
        <time>2018-03-05T14:20:06Z</time>
      </trkpt>
      <trkpt lat="38.3430420" lon="-0.6833360">
        <ele>313.0</ele>
        <time>2018-03-05T14:20:07Z</time>
      </trkpt>
      <trkpt lat="38.3430410" lon="-0.6833730">
        <ele>313.0</ele>
        <time>2018-03-05T14:20:08Z</time>
      </trkpt>
      <trkpt lat="38.3430390" lon="-0.6834020">
        <ele>314.0</ele>
        <time>2018-03-05T14:20:09Z</time>
      </trkpt>
      <trkpt lat="38.3430380" lon="-0.6834290">
        <ele>314.0</ele>
        <time>2018-03-05T14:20:10Z</time>
      </trkpt>
      <trkpt lat="38.3430360" lon="-0.6834610">
        <ele>314.0</ele>
        <time>2018-03-05T14:20:11Z</time>
      </trkpt>
      <trkpt lat="38.3430360" lon="-0.6834960">
        <ele>314.0</ele>
        <time>2018-03-05T14:20:12Z</time>
      </trkpt>
      <trkpt lat="38.3430360" lon="-0.6835350">
        <ele>314.0</ele>
        <time>2018-03-05T14:20:13Z</time>
      </trkpt>
      <trkpt lat="38.3430350" lon="-0.6835760">
        <ele>314.0</ele>
        <time>2018-03-05T14:20:14Z</time>
      </trkpt>
      <trkpt lat="38.3430350" lon="-0.6836180">
        <ele>314.0</ele>
        <time>2018-03-05T14:20:15Z</time>
      </trkpt>
      <trkpt lat="38.3430370" lon="-0.6836640">
        <ele>314.0</ele>
        <time>2018-03-05T14:20:16Z</time>
      </trkpt>
      <trkpt lat="38.3430370" lon="-0.6837120">
        <ele>314.0</ele>
        <time>2018-03-05T14:20:17Z</time>
      </trkpt>
      <trkpt lat="38.3430360" lon="-0.6837600">
        <ele>314.0</ele>
        <time>2018-03-05T14:20:18Z</time>
      </trkpt>
      <trkpt lat="38.3430370" lon="-0.6838070">
        <ele>314.0</ele>
        <time>2018-03-05T14:20:19Z</time>
      </trkpt>
      <trkpt lat="38.3430370" lon="-0.6838550">
        <ele>314.0</ele>
        <time>2018-03-05T14:20:20Z</time>
      </trkpt>
      <trkpt lat="38.3430380" lon="-0.6839040">
        <ele>314.0</ele>
        <time>2018-03-05T14:20:21Z</time>
      </trkpt>
      <trkpt lat="38.3430380" lon="-0.6839540">
        <ele>314.0</ele>
        <time>2018-03-05T14:20:22Z</time>
      </trkpt>
      <trkpt lat="38.3430370" lon="-0.6840070">
        <ele>314.0</ele>
        <time>2018-03-05T14:20:23Z</time>
      </trkpt>
      <trkpt lat="38.3430350" lon="-0.6840600">
        <ele>315.0</ele>
        <time>2018-03-05T14:20:24Z</time>
      </trkpt>
      <trkpt lat="38.3430350" lon="-0.6841090">
        <ele>315.0</ele>
        <time>2018-03-05T14:20:25Z</time>
      </trkpt>
      <trkpt lat="38.3430340" lon="-0.6841550">
        <ele>315.0</ele>
        <time>2018-03-05T14:20:26Z</time>
      </trkpt>
      <trkpt lat="38.3430320" lon="-0.6842000">
        <ele>316.0</ele>
        <time>2018-03-05T14:20:27Z</time>
      </trkpt>
      <trkpt lat="38.3430270" lon="-0.6842400">
        <ele>316.0</ele>
        <time>2018-03-05T14:20:28Z</time>
      </trkpt>
      <trkpt lat="38.3430220" lon="-0.6842800">
        <ele>316.0</ele>
        <time>2018-03-05T14:20:29Z</time>
      </trkpt>
      <trkpt lat="38.3430210" lon="-0.6843220">
        <ele>316.0</ele>
        <time>2018-03-05T14:20:30Z</time>
      </trkpt>
      <trkpt lat="38.3430200" lon="-0.6843650">
        <ele>316.0</ele>
        <time>2018-03-05T14:20:31Z</time>
      </trkpt>
      <trkpt lat="38.3430230" lon="-0.6844080">
        <ele>317.0</ele>
        <time>2018-03-05T14:20:32Z</time>
      </trkpt>
      <trkpt lat="38.3430340" lon="-0.6844470">
        <ele>317.0</ele>
        <time>2018-03-05T14:20:33Z</time>
      </trkpt>
      <trkpt lat="38.3430460" lon="-0.6844800">
        <ele>317.0</ele>
        <time>2018-03-05T14:20:34Z</time>
      </trkpt>
      <trkpt lat="38.3430530" lon="-0.6845070">
        <ele>317.0</ele>
        <time>2018-03-05T14:20:35Z</time>
      </trkpt>
      <trkpt lat="38.3430630" lon="-0.6845330">
        <ele>318.0</ele>
        <time>2018-03-05T14:20:36Z</time>
      </trkpt>
      <trkpt lat="38.3430740" lon="-0.6845490">
        <ele>318.0</ele>
        <time>2018-03-05T14:20:37Z</time>
      </trkpt>
      <trkpt lat="38.3430870" lon="-0.6845690">
        <ele>318.0</ele>
        <time>2018-03-05T14:20:38Z</time>
      </trkpt>
      <trkpt lat="38.3430950" lon="-0.6845880">
        <ele>318.0</ele>
        <time>2018-03-05T14:20:39Z</time>
      </trkpt>
      <trkpt lat="38.3430960" lon="-0.6846120">
        <ele>318.0</ele>
        <time>2018-03-05T14:20:40Z</time>
      </trkpt>
      <trkpt lat="38.3430970" lon="-0.6846420">
        <ele>318.0</ele>
        <time>2018-03-05T14:20:41Z</time>
      </trkpt>
      <trkpt lat="38.3430870" lon="-0.6846670">
        <ele>317.0</ele>
        <time>2018-03-05T14:20:42Z</time>
      </trkpt>
      <trkpt lat="38.3430760" lon="-0.6846950">
        <ele>317.0</ele>
        <time>2018-03-05T14:20:43Z</time>
      </trkpt>
      <trkpt lat="38.3430590" lon="-0.6847110">
        <ele>317.0</ele>
        <time>2018-03-05T14:20:44Z</time>
      </trkpt>
      <trkpt lat="38.3430420" lon="-0.6847150">
        <ele>318.0</ele>
        <time>2018-03-05T14:20:45Z</time>
      </trkpt>
      <trkpt lat="38.3430230" lon="-0.6847160">
        <ele>318.0</ele>
        <time>2018-03-05T14:20:46Z</time>
      </trkpt>
      <trkpt lat="38.3430030" lon="-0.6847150">
        <ele>318.0</ele>
        <time>2018-03-05T14:20:47Z</time>
      </trkpt>
      <trkpt lat="38.3429840" lon="-0.6847100">
        <ele>318.0</ele>
        <time>2018-03-05T14:20:48Z</time>
      </trkpt>
      <trkpt lat="38.3429620" lon="-0.6847030">
        <ele>319.0</ele>
        <time>2018-03-05T14:20:49Z</time>
      </trkpt>
      <trkpt lat="38.3429420" lon="-0.6846970">
        <ele>319.0</ele>
        <time>2018-03-05T14:20:50Z</time>
      </trkpt>
      <trkpt lat="38.3429250" lon="-0.6846960">
        <ele>319.0</ele>
        <time>2018-03-05T14:20:51Z</time>
      </trkpt>
      <trkpt lat="38.3429060" lon="-0.6846950">
        <ele>319.0</ele>
        <time>2018-03-05T14:20:52Z</time>
      </trkpt>
      <trkpt lat="38.3428870" lon="-0.6846930">
        <ele>320.0</ele>
        <time>2018-03-05T14:20:53Z</time>
      </trkpt>
      <trkpt lat="38.3428690" lon="-0.6846910">
        <ele>320.0</ele>
        <time>2018-03-05T14:20:54Z</time>
      </trkpt>
      <trkpt lat="38.3428520" lon="-0.6846920">
        <ele>320.0</ele>
        <time>2018-03-05T14:20:55Z</time>
      </trkpt>
      <trkpt lat="38.3428340" lon="-0.6846900">
        <ele>320.0</ele>
        <time>2018-03-05T14:20:56Z</time>
      </trkpt>
      <trkpt lat="38.3428160" lon="-0.6846900">
        <ele>320.0</ele>
        <time>2018-03-05T14:20:57Z</time>
      </trkpt>
      <trkpt lat="38.3427980" lon="-0.6846880">
        <ele>321.0</ele>
        <time>2018-03-05T14:20:58Z</time>
      </trkpt>
      <trkpt lat="38.3427810" lon="-0.6846900">
        <ele>321.0</ele>
        <time>2018-03-05T14:20:59Z</time>
      </trkpt>
      <trkpt lat="38.3427630" lon="-0.6846940">
        <ele>321.0</ele>
        <time>2018-03-05T14:21:00Z</time>
      </trkpt>
      <trkpt lat="38.3427460" lon="-0.6846910">
        <ele>321.0</ele>
        <time>2018-03-05T14:21:01Z</time>
      </trkpt>
      <trkpt lat="38.3427270" lon="-0.6846890">
        <ele>321.0</ele>
        <time>2018-03-05T14:21:02Z</time>
      </trkpt>
      <trkpt lat="38.3427080" lon="-0.6846880">
        <ele>321.0</ele>
        <time>2018-03-05T14:21:03Z</time>
      </trkpt>
      <trkpt lat="38.3426900" lon="-0.6846880">
        <ele>322.0</ele>
        <time>2018-03-05T14:21:04Z</time>
      </trkpt>
      <trkpt lat="38.3426710" lon="-0.6846880">
        <ele>322.0</ele>
        <time>2018-03-05T14:21:05Z</time>
      </trkpt>
      <trkpt lat="38.3426510" lon="-0.6846860">
        <ele>322.0</ele>
        <time>2018-03-05T14:21:06Z</time>
      </trkpt>
      <trkpt lat="38.3426330" lon="-0.6846860">
        <ele>323.0</ele>
        <time>2018-03-05T14:21:07Z</time>
      </trkpt>
      <trkpt lat="38.3426120" lon="-0.6846900">
        <ele>323.0</ele>
        <time>2018-03-05T14:21:08Z</time>
      </trkpt>
      <trkpt lat="38.3425910" lon="-0.6846910">
        <ele>323.0</ele>
        <time>2018-03-05T14:21:09Z</time>
      </trkpt>
      <trkpt lat="38.3425690" lon="-0.6846900">
        <ele>324.0</ele>
        <time>2018-03-05T14:21:10Z</time>
      </trkpt>
      <trkpt lat="38.3425460" lon="-0.6846920">
        <ele>324.0</ele>
        <time>2018-03-05T14:21:11Z</time>
      </trkpt>
      <trkpt lat="38.3425250" lon="-0.6846900">
        <ele>324.0</ele>
        <time>2018-03-05T14:21:12Z</time>
      </trkpt>
      <trkpt lat="38.3425020" lon="-0.6846900">
        <ele>324.0</ele>
        <time>2018-03-05T14:21:13Z</time>
      </trkpt>
      <trkpt lat="38.3424780" lon="-0.6846900">
        <ele>324.0</ele>
        <time>2018-03-05T14:21:14Z</time>
      </trkpt>
      <trkpt lat="38.3424520" lon="-0.6846880">
        <ele>325.0</ele>
        <time>2018-03-05T14:21:15Z</time>
      </trkpt>
      <trkpt lat="38.3424270" lon="-0.6846890">
        <ele>325.0</ele>
        <time>2018-03-05T14:21:16Z</time>
      </trkpt>
      <trkpt lat="38.3424030" lon="-0.6846870">
        <ele>325.0</ele>
        <time>2018-03-05T14:21:17Z</time>
      </trkpt>
      <trkpt lat="38.3423750" lon="-0.6846870">
        <ele>325.0</ele>
        <time>2018-03-05T14:21:18Z</time>
      </trkpt>
      <trkpt lat="38.3423470" lon="-0.6846950">
        <ele>325.0</ele>
        <time>2018-03-05T14:21:19Z</time>
      </trkpt>
      <trkpt lat="38.3423170" lon="-0.6847060">
        <ele>325.0</ele>
        <time>2018-03-05T14:21:20Z</time>
      </trkpt>
      <trkpt lat="38.3422830" lon="-0.6847190">
        <ele>325.0</ele>
        <time>2018-03-05T14:21:21Z</time>
      </trkpt>
      <trkpt lat="38.3422450" lon="-0.6847400">
        <ele>324.0</ele>
        <time>2018-03-05T14:21:22Z</time>
      </trkpt>
      <trkpt lat="38.3421990" lon="-0.6847720">
        <ele>324.0</ele>
        <time>2018-03-05T14:21:23Z</time>
      </trkpt>
      <trkpt lat="38.3421480" lon="-0.6848110">
        <ele>324.0</ele>
        <time>2018-03-05T14:21:24Z</time>
      </trkpt>
      <trkpt lat="38.3420950" lon="-0.6848450">
        <ele>323.0</ele>
        <time>2018-03-05T14:21:25Z</time>
      </trkpt>
      <trkpt lat="38.3420410" lon="-0.6848840">
        <ele>323.0</ele>
        <time>2018-03-05T14:21:26Z</time>
      </trkpt>
      <trkpt lat="38.3419830" lon="-0.6849230">
        <ele>323.0</ele>
        <time>2018-03-05T14:21:27Z</time>
      </trkpt>
      <trkpt lat="38.3419220" lon="-0.6849610">
        <ele>322.0</ele>
        <time>2018-03-05T14:21:28Z</time>
      </trkpt>
      <trkpt lat="38.3418580" lon="-0.6849940">
        <ele>321.0</ele>
        <time>2018-03-05T14:21:29Z</time>
      </trkpt>
      <trkpt lat="38.3417920" lon="-0.6850370">
        <ele>320.0</ele>
        <time>2018-03-05T14:21:30Z</time>
      </trkpt>
      <trkpt lat="38.3417210" lon="-0.6850820">
        <ele>320.0</ele>
        <time>2018-03-05T14:21:31Z</time>
      </trkpt>
      <trkpt lat="38.3416510" lon="-0.6851320">
        <ele>319.0</ele>
        <time>2018-03-05T14:21:32Z</time>
      </trkpt>
      <trkpt lat="38.3415820" lon="-0.6851870">
        <ele>318.0</ele>
        <time>2018-03-05T14:21:33Z</time>
      </trkpt>
      <trkpt lat="38.3415130" lon="-0.6852390">
        <ele>318.0</ele>
        <time>2018-03-05T14:21:34Z</time>
      </trkpt>
      <trkpt lat="38.3414500" lon="-0.6852840">
        <ele>319.0</ele>
        <time>2018-03-05T14:21:35Z</time>
      </trkpt>
      <trkpt lat="38.3413920" lon="-0.6853300">
        <ele>319.0</ele>
        <time>2018-03-05T14:21:36Z</time>
      </trkpt>
      <trkpt lat="38.3413420" lon="-0.6853710">
        <ele>320.0</ele>
        <time>2018-03-05T14:21:37Z</time>
      </trkpt>
      <trkpt lat="38.3412960" lon="-0.6854090">
        <ele>320.0</ele>
        <time>2018-03-05T14:21:38Z</time>
      </trkpt>
      <trkpt lat="38.3412570" lon="-0.6854420">
        <ele>321.0</ele>
        <time>2018-03-05T14:21:39Z</time>
      </trkpt>
      <trkpt lat="38.3412250" lon="-0.6854680">
        <ele>321.0</ele>
        <time>2018-03-05T14:21:40Z</time>
      </trkpt>
      <trkpt lat="38.3411980" lon="-0.6854930">
        <ele>322.0</ele>
        <time>2018-03-05T14:21:41Z</time>
      </trkpt>
      <trkpt lat="38.3411740" lon="-0.6855150">
        <ele>322.0</ele>
        <time>2018-03-05T14:21:42Z</time>
      </trkpt>
      <trkpt lat="38.3411500" lon="-0.6855350">
        <ele>323.0</ele>
        <time>2018-03-05T14:21:43Z</time>
      </trkpt>
      <trkpt lat="38.3411280" lon="-0.6855540">
        <ele>323.0</ele>
        <time>2018-03-05T14:21:44Z</time>
      </trkpt>
      <trkpt lat="38.3411050" lon="-0.6855730">
        <ele>323.0</ele>
        <time>2018-03-05T14:21:45Z</time>
      </trkpt>
      <trkpt lat="38.3410850" lon="-0.6855900">
        <ele>324.0</ele>
        <time>2018-03-05T14:21:46Z</time>
      </trkpt>
      <trkpt lat="38.3410670" lon="-0.6856060">
        <ele>324.0</ele>
        <time>2018-03-05T14:21:47Z</time>
      </trkpt>
      <trkpt lat="38.3410460" lon="-0.6856200">
        <ele>324.0</ele>
        <time>2018-03-05T14:21:48Z</time>
      </trkpt>
      <trkpt lat="38.3410260" lon="-0.6856340">
        <ele>325.0</ele>
        <time>2018-03-05T14:21:49Z</time>
      </trkpt>
      <trkpt lat="38.3410100" lon="-0.6856430">
        <ele>325.0</ele>
        <time>2018-03-05T14:21:50Z</time>
      </trkpt>
      <trkpt lat="38.3409930" lon="-0.6856540">
        <ele>325.0</ele>
        <time>2018-03-05T14:21:51Z</time>
      </trkpt>
      <trkpt lat="38.3409770" lon="-0.6856650">
        <ele>326.0</ele>
        <time>2018-03-05T14:21:52Z</time>
      </trkpt>
      <trkpt lat="38.3409600" lon="-0.6856760">
        <ele>326.0</ele>
        <time>2018-03-05T14:21:53Z</time>
      </trkpt>
      <trkpt lat="38.3409440" lon="-0.6856900">
        <ele>326.0</ele>
        <time>2018-03-05T14:21:54Z</time>
      </trkpt>
      <trkpt lat="38.3409260" lon="-0.6857030">
        <ele>327.0</ele>
        <time>2018-03-05T14:21:55Z</time>
      </trkpt>
      <trkpt lat="38.3409060" lon="-0.6857150">
        <ele>327.0</ele>
        <time>2018-03-05T14:21:56Z</time>
      </trkpt>
      <trkpt lat="38.3408870" lon="-0.6857270">
        <ele>327.0</ele>
        <time>2018-03-05T14:21:57Z</time>
      </trkpt>
      <trkpt lat="38.3408720" lon="-0.6857410">
        <ele>328.0</ele>
        <time>2018-03-05T14:21:58Z</time>
      </trkpt>
      <trkpt lat="38.3408550" lon="-0.6857540">
        <ele>328.0</ele>
        <time>2018-03-05T14:21:59Z</time>
      </trkpt>
      <trkpt lat="38.3408380" lon="-0.6857690">
        <ele>328.0</ele>
        <time>2018-03-05T14:22:00Z</time>
      </trkpt>
      <trkpt lat="38.3408200" lon="-0.6857810">
        <ele>328.0</ele>
        <time>2018-03-05T14:22:01Z</time>
      </trkpt>
      <trkpt lat="38.3408040" lon="-0.6857930">
        <ele>329.0</ele>
        <time>2018-03-05T14:22:02Z</time>
      </trkpt>
      <trkpt lat="38.3407880" lon="-0.6858070">
        <ele>329.0</ele>
        <time>2018-03-05T14:22:03Z</time>
      </trkpt>
      <trkpt lat="38.3407700" lon="-0.6858180">
        <ele>329.0</ele>
        <time>2018-03-05T14:22:04Z</time>
      </trkpt>
      <trkpt lat="38.3407550" lon="-0.6858280">
        <ele>330.0</ele>
        <time>2018-03-05T14:22:05Z</time>
      </trkpt>
      <trkpt lat="38.3407370" lon="-0.6858380">
        <ele>330.0</ele>
        <time>2018-03-05T14:22:06Z</time>
      </trkpt>
      <trkpt lat="38.3407190" lon="-0.6858500">
        <ele>330.0</ele>
        <time>2018-03-05T14:22:07Z</time>
      </trkpt>
      <trkpt lat="38.3407010" lon="-0.6858600">
        <ele>331.0</ele>
        <time>2018-03-05T14:22:08Z</time>
      </trkpt>
      <trkpt lat="38.3406820" lon="-0.6858670">
        <ele>331.0</ele>
        <time>2018-03-05T14:22:09Z</time>
      </trkpt>
      <trkpt lat="38.3406620" lon="-0.6858740">
        <ele>331.0</ele>
        <time>2018-03-05T14:22:10Z</time>
      </trkpt>
      <trkpt lat="38.3406420" lon="-0.6858830">
        <ele>331.0</ele>
        <time>2018-03-05T14:22:11Z</time>
      </trkpt>
      <trkpt lat="38.3406200" lon="-0.6858930">
        <ele>332.0</ele>
        <time>2018-03-05T14:22:12Z</time>
      </trkpt>
      <trkpt lat="38.3405990" lon="-0.6859050">
        <ele>332.0</ele>
        <time>2018-03-05T14:22:13Z</time>
      </trkpt>
      <trkpt lat="38.3405780" lon="-0.6859150">
        <ele>332.0</ele>
        <time>2018-03-05T14:22:14Z</time>
      </trkpt>
      <trkpt lat="38.3405540" lon="-0.6859230">
        <ele>333.0</ele>
        <time>2018-03-05T14:22:15Z</time>
      </trkpt>
      <trkpt lat="38.3405320" lon="-0.6859280">
        <ele>333.0</ele>
        <time>2018-03-05T14:22:16Z</time>
      </trkpt>
      <trkpt lat="38.3405110" lon="-0.6859350">
        <ele>333.0</ele>
        <time>2018-03-05T14:22:17Z</time>
      </trkpt>
      <trkpt lat="38.3404900" lon="-0.6859450">
        <ele>333.0</ele>
        <time>2018-03-05T14:22:18Z</time>
      </trkpt>
      <trkpt lat="38.3404700" lon="-0.6859530">
        <ele>333.0</ele>
        <time>2018-03-05T14:22:19Z</time>
      </trkpt>
      <trkpt lat="38.3404500" lon="-0.6859640">
        <ele>334.0</ele>
        <time>2018-03-05T14:22:20Z</time>
      </trkpt>
      <trkpt lat="38.3404310" lon="-0.6859700">
        <ele>334.0</ele>
        <time>2018-03-05T14:22:21Z</time>
      </trkpt>
      <trkpt lat="38.3404130" lon="-0.6859790">
        <ele>334.0</ele>
        <time>2018-03-05T14:22:22Z</time>
      </trkpt>
      <trkpt lat="38.3403950" lon="-0.6859910">
        <ele>334.0</ele>
        <time>2018-03-05T14:22:23Z</time>
      </trkpt>
      <trkpt lat="38.3403750" lon="-0.6860040">
        <ele>335.0</ele>
        <time>2018-03-05T14:22:24Z</time>
      </trkpt>
      <trkpt lat="38.3403580" lon="-0.6860180">
        <ele>335.0</ele>
        <time>2018-03-05T14:22:25Z</time>
      </trkpt>
      <trkpt lat="38.3403380" lon="-0.6860340">
        <ele>335.0</ele>
        <time>2018-03-05T14:22:26Z</time>
      </trkpt>
      <trkpt lat="38.3403210" lon="-0.6860490">
        <ele>335.0</ele>
        <time>2018-03-05T14:22:27Z</time>
      </trkpt>
      <trkpt lat="38.3403060" lon="-0.6860640">
        <ele>335.0</ele>
        <time>2018-03-05T14:22:28Z</time>
      </trkpt>
      <trkpt lat="38.3402890" lon="-0.6860850">
        <ele>336.0</ele>
        <time>2018-03-05T14:22:29Z</time>
      </trkpt>
      <trkpt lat="38.3402700" lon="-0.6861060">
        <ele>336.0</ele>
        <time>2018-03-05T14:22:30Z</time>
      </trkpt>
      <trkpt lat="38.3402510" lon="-0.6861280">
        <ele>336.0</ele>
        <time>2018-03-05T14:22:31Z</time>
      </trkpt>
      <trkpt lat="38.3402310" lon="-0.6861490">
        <ele>336.0</ele>
        <time>2018-03-05T14:22:32Z</time>
      </trkpt>
      <trkpt lat="38.3402110" lon="-0.6861710">
        <ele>336.0</ele>
        <time>2018-03-05T14:22:33Z</time>
      </trkpt>
      <trkpt lat="38.3401890" lon="-0.6861940">
        <ele>336.0</ele>
        <time>2018-03-05T14:22:34Z</time>
      </trkpt>
      <trkpt lat="38.3401650" lon="-0.6862170">
        <ele>336.0</ele>
        <time>2018-03-05T14:22:35Z</time>
      </trkpt>
      <trkpt lat="38.3401390" lon="-0.6862420">
        <ele>337.0</ele>
        <time>2018-03-05T14:22:36Z</time>
      </trkpt>
      <trkpt lat="38.3401150" lon="-0.6862670">
        <ele>337.0</ele>
        <time>2018-03-05T14:22:37Z</time>
      </trkpt>
      <trkpt lat="38.3400900" lon="-0.6862920">
        <ele>337.0</ele>
        <time>2018-03-05T14:22:38Z</time>
      </trkpt>
      <trkpt lat="38.3400620" lon="-0.6863200">
        <ele>336.0</ele>
        <time>2018-03-05T14:22:39Z</time>
      </trkpt>
      <trkpt lat="38.3400280" lon="-0.6863560">
        <ele>336.0</ele>
        <time>2018-03-05T14:22:40Z</time>
      </trkpt>
      <trkpt lat="38.3399910" lon="-0.6863940">
        <ele>335.0</ele>
        <time>2018-03-05T14:22:41Z</time>
      </trkpt>
      <trkpt lat="38.3399490" lon="-0.6864450">
        <ele>335.0</ele>
        <time>2018-03-05T14:22:42Z</time>
      </trkpt>
      <trkpt lat="38.3399110" lon="-0.6865010">
        <ele>335.0</ele>
        <time>2018-03-05T14:22:43Z</time>
      </trkpt>
      <trkpt lat="38.3398720" lon="-0.6865580">
        <ele>334.0</ele>
        <time>2018-03-05T14:22:44Z</time>
      </trkpt>
      <trkpt lat="38.3398340" lon="-0.6866180">
        <ele>334.0</ele>
        <time>2018-03-05T14:22:45Z</time>
      </trkpt>
      <trkpt lat="38.3397940" lon="-0.6866840">
        <ele>333.0</ele>
        <time>2018-03-05T14:22:46Z</time>
      </trkpt>
      <trkpt lat="38.3397550" lon="-0.6867520">
        <ele>333.0</ele>
        <time>2018-03-05T14:22:47Z</time>
      </trkpt>
      <trkpt lat="38.3397170" lon="-0.6868250">
        <ele>333.0</ele>
        <time>2018-03-05T14:22:48Z</time>
      </trkpt>
      <trkpt lat="38.3396840" lon="-0.6869010">
        <ele>333.0</ele>
        <time>2018-03-05T14:22:49Z</time>
      </trkpt>
      <trkpt lat="38.3396630" lon="-0.6869760">
        <ele>333.0</ele>
        <time>2018-03-05T14:22:50Z</time>
      </trkpt>
      <trkpt lat="38.3396500" lon="-0.6870470">
        <ele>333.0</ele>
        <time>2018-03-05T14:22:51Z</time>
      </trkpt>
      <trkpt lat="38.3396410" lon="-0.6871160">
        <ele>334.0</ele>
        <time>2018-03-05T14:22:52Z</time>
      </trkpt>
      <trkpt lat="38.3396350" lon="-0.6871850">
        <ele>334.0</ele>
        <time>2018-03-05T14:22:53Z</time>
      </trkpt>
      <trkpt lat="38.3396270" lon="-0.6872500">
        <ele>334.0</ele>
        <time>2018-03-05T14:22:54Z</time>
      </trkpt>
      <trkpt lat="38.3396200" lon="-0.6873110">
        <ele>334.0</ele>
        <time>2018-03-05T14:22:55Z</time>
      </trkpt>
      <trkpt lat="38.3396120" lon="-0.6873680">
        <ele>335.0</ele>
        <time>2018-03-05T14:22:56Z</time>
      </trkpt>
      <trkpt lat="38.3396050" lon="-0.6874270">
        <ele>335.0</ele>
        <time>2018-03-05T14:22:57Z</time>
      </trkpt>
      <trkpt lat="38.3395980" lon="-0.6874930">
        <ele>335.0</ele>
        <time>2018-03-05T14:22:58Z</time>
      </trkpt>
      <trkpt lat="38.3395900" lon="-0.6875610">
        <ele>335.0</ele>
        <time>2018-03-05T14:22:59Z</time>
      </trkpt>
      <trkpt lat="38.3395820" lon="-0.6876310">
        <ele>334.0</ele>
        <time>2018-03-05T14:23:00Z</time>
      </trkpt>
      <trkpt lat="38.3395660" lon="-0.6877040">
        <ele>334.0</ele>
        <time>2018-03-05T14:23:01Z</time>
      </trkpt>
      <trkpt lat="38.3395470" lon="-0.6877840">
        <ele>333.0</ele>
        <time>2018-03-05T14:23:02Z</time>
      </trkpt>
      <trkpt lat="38.3395280" lon="-0.6878680">
        <ele>333.0</ele>
        <time>2018-03-05T14:23:03Z</time>
      </trkpt>
      <trkpt lat="38.3395010" lon="-0.6879470">
        <ele>332.0</ele>
        <time>2018-03-05T14:23:04Z</time>
      </trkpt>
      <trkpt lat="38.3394640" lon="-0.6880220">
        <ele>332.0</ele>
        <time>2018-03-05T14:23:05Z</time>
      </trkpt>
      <trkpt lat="38.3394170" lon="-0.6880890">
        <ele>332.0</ele>
        <time>2018-03-05T14:23:06Z</time>
      </trkpt>
      <trkpt lat="38.3393630" lon="-0.6881480">
        <ele>332.0</ele>
        <time>2018-03-05T14:23:07Z</time>
      </trkpt>
      <trkpt lat="38.3393160" lon="-0.6882130">
        <ele>332.0</ele>
        <time>2018-03-05T14:23:08Z</time>
      </trkpt>
      <trkpt lat="38.3392670" lon="-0.6882670">
        <ele>333.0</ele>
        <time>2018-03-05T14:23:09Z</time>
      </trkpt>
      <trkpt lat="38.3392180" lon="-0.6883160">
        <ele>333.0</ele>
        <time>2018-03-05T14:23:10Z</time>
      </trkpt>
      <trkpt lat="38.3391740" lon="-0.6883600">
        <ele>333.0</ele>
        <time>2018-03-05T14:23:11Z</time>
      </trkpt>
      <trkpt lat="38.3391280" lon="-0.6884010">
        <ele>334.0</ele>
        <time>2018-03-05T14:23:12Z</time>
      </trkpt>
      <trkpt lat="38.3390840" lon="-0.6884410">
        <ele>334.0</ele>
        <time>2018-03-05T14:23:13Z</time>
      </trkpt>
      <trkpt lat="38.3390430" lon="-0.6884800">
        <ele>334.0</ele>
        <time>2018-03-05T14:23:14Z</time>
      </trkpt>
      <trkpt lat="38.3390020" lon="-0.6885160">
        <ele>335.0</ele>
        <time>2018-03-05T14:23:15Z</time>
      </trkpt>
      <trkpt lat="38.3389610" lon="-0.6885520">
        <ele>335.0</ele>
        <time>2018-03-05T14:23:16Z</time>
      </trkpt>
      <trkpt lat="38.3389190" lon="-0.6885870">
        <ele>335.0</ele>
        <time>2018-03-05T14:23:17Z</time>
      </trkpt>
      <trkpt lat="38.3388760" lon="-0.6886180">
        <ele>335.0</ele>
        <time>2018-03-05T14:23:18Z</time>
      </trkpt>
      <trkpt lat="38.3388320" lon="-0.6886460">
        <ele>335.0</ele>
        <time>2018-03-05T14:23:19Z</time>
      </trkpt>
      <trkpt lat="38.3387910" lon="-0.6886720">
        <ele>336.0</ele>
        <time>2018-03-05T14:23:20Z</time>
      </trkpt>
      <trkpt lat="38.3387480" lon="-0.6886970">
        <ele>336.0</ele>
        <time>2018-03-05T14:23:21Z</time>
      </trkpt>
      <trkpt lat="38.3387030" lon="-0.6887180">
        <ele>335.0</ele>
        <time>2018-03-05T14:23:22Z</time>
      </trkpt>
      <trkpt lat="38.3386570" lon="-0.6887370">
        <ele>335.0</ele>
        <time>2018-03-05T14:23:23Z</time>
      </trkpt>
      <trkpt lat="38.3386080" lon="-0.6887550">
        <ele>335.0</ele>
        <time>2018-03-05T14:23:24Z</time>
      </trkpt>
      <trkpt lat="38.3385580" lon="-0.6887700">
        <ele>335.0</ele>
        <time>2018-03-05T14:23:25Z</time>
      </trkpt>
      <trkpt lat="38.3385040" lon="-0.6887850">
        <ele>335.0</ele>
        <time>2018-03-05T14:23:26Z</time>
      </trkpt>
      <trkpt lat="38.3384490" lon="-0.6888010">
        <ele>335.0</ele>
        <time>2018-03-05T14:23:27Z</time>
      </trkpt>
      <trkpt lat="38.3383950" lon="-0.6888230">
        <ele>335.0</ele>
        <time>2018-03-05T14:23:28Z</time>
      </trkpt>
      <trkpt lat="38.3383420" lon="-0.6888410">
        <ele>335.0</ele>
        <time>2018-03-05T14:23:29Z</time>
      </trkpt>
      <trkpt lat="38.3382890" lon="-0.6888630">
        <ele>335.0</ele>
        <time>2018-03-05T14:23:30Z</time>
      </trkpt>
      <trkpt lat="38.3382400" lon="-0.6888860">
        <ele>335.0</ele>
        <time>2018-03-05T14:23:31Z</time>
      </trkpt>
      <trkpt lat="38.3381900" lon="-0.6889160">
        <ele>336.0</ele>
        <time>2018-03-05T14:23:32Z</time>
      </trkpt>
      <trkpt lat="38.3381400" lon="-0.6889480">
        <ele>336.0</ele>
        <time>2018-03-05T14:23:33Z</time>
      </trkpt>
      <trkpt lat="38.3380930" lon="-0.6889760">
        <ele>336.0</ele>
        <time>2018-03-05T14:23:34Z</time>
      </trkpt>
      <trkpt lat="38.3380440" lon="-0.6890070">
        <ele>336.0</ele>
        <time>2018-03-05T14:23:35Z</time>
      </trkpt>
      <trkpt lat="38.3379960" lon="-0.6890420">
        <ele>336.0</ele>
        <time>2018-03-05T14:23:36Z</time>
      </trkpt>
      <trkpt lat="38.3379450" lon="-0.6890710">
        <ele>336.0</ele>
        <time>2018-03-05T14:23:37Z</time>
      </trkpt>
      <trkpt lat="38.3378940" lon="-0.6891010">
        <ele>336.0</ele>
        <time>2018-03-05T14:23:38Z</time>
      </trkpt>
      <trkpt lat="38.3378420" lon="-0.6891260">
        <ele>336.0</ele>
        <time>2018-03-05T14:23:39Z</time>
      </trkpt>
      <trkpt lat="38.3377870" lon="-0.6891500">
        <ele>336.0</ele>
        <time>2018-03-05T14:23:40Z</time>
      </trkpt>
      <trkpt lat="38.3377310" lon="-0.6891740">
        <ele>336.0</ele>
        <time>2018-03-05T14:23:41Z</time>
      </trkpt>
      <trkpt lat="38.3376740" lon="-0.6892000">
        <ele>336.0</ele>
        <time>2018-03-05T14:23:42Z</time>
      </trkpt>
      <trkpt lat="38.3376160" lon="-0.6892280">
        <ele>336.0</ele>
        <time>2018-03-05T14:23:43Z</time>
      </trkpt>
      <trkpt lat="38.3375570" lon="-0.6892570">
        <ele>336.0</ele>
        <time>2018-03-05T14:23:44Z</time>
      </trkpt>
      <trkpt lat="38.3374970" lon="-0.6892830">
        <ele>335.0</ele>
        <time>2018-03-05T14:23:45Z</time>
      </trkpt>
      <trkpt lat="38.3374340" lon="-0.6893070">
        <ele>335.0</ele>
        <time>2018-03-05T14:23:46Z</time>
      </trkpt>
      <trkpt lat="38.3373680" lon="-0.6893280">
        <ele>335.0</ele>
        <time>2018-03-05T14:23:47Z</time>
      </trkpt>
      <trkpt lat="38.3373010" lon="-0.6893570">
        <ele>334.0</ele>
        <time>2018-03-05T14:23:48Z</time>
      </trkpt>
      <trkpt lat="38.3372370" lon="-0.6893930">
        <ele>334.0</ele>
        <time>2018-03-05T14:23:49Z</time>
      </trkpt>
      <trkpt lat="38.3371750" lon="-0.6894270">
        <ele>333.0</ele>
        <time>2018-03-05T14:23:50Z</time>
      </trkpt>
      <trkpt lat="38.3371080" lon="-0.6894700">
        <ele>333.0</ele>
        <time>2018-03-05T14:23:51Z</time>
      </trkpt>
      <trkpt lat="38.3370420" lon="-0.6895130">
        <ele>332.0</ele>
        <time>2018-03-05T14:23:52Z</time>
      </trkpt>
      <trkpt lat="38.3369740" lon="-0.6895630">
        <ele>332.0</ele>
        <time>2018-03-05T14:23:53Z</time>
      </trkpt>
      <trkpt lat="38.3369140" lon="-0.6896190">
        <ele>331.0</ele>
        <time>2018-03-05T14:23:54Z</time>
      </trkpt>
      <trkpt lat="38.3368600" lon="-0.6896840">
        <ele>331.0</ele>
        <time>2018-03-05T14:23:55Z</time>
      </trkpt>
      <trkpt lat="38.3368120" lon="-0.6897560">
        <ele>331.0</ele>
        <time>2018-03-05T14:23:56Z</time>
      </trkpt>
      <trkpt lat="38.3367720" lon="-0.6898420">
        <ele>331.0</ele>
        <time>2018-03-05T14:23:57Z</time>
      </trkpt>
      <trkpt lat="38.3367330" lon="-0.6899250">
        <ele>331.0</ele>
        <time>2018-03-05T14:23:58Z</time>
      </trkpt>
      <trkpt lat="38.3366930" lon="-0.6900090">
        <ele>331.0</ele>
        <time>2018-03-05T14:23:59Z</time>
      </trkpt>
      <trkpt lat="38.3366530" lon="-0.6900920">
        <ele>331.0</ele>
        <time>2018-03-05T14:24:00Z</time>
      </trkpt>
      <trkpt lat="38.3366080" lon="-0.6901710">
        <ele>330.0</ele>
        <time>2018-03-05T14:24:01Z</time>
      </trkpt>
      <trkpt lat="38.3365580" lon="-0.6902460">
        <ele>330.0</ele>
        <time>2018-03-05T14:24:02Z</time>
      </trkpt>
      <trkpt lat="38.3365050" lon="-0.6903180">
        <ele>330.0</ele>
        <time>2018-03-05T14:24:03Z</time>
      </trkpt>
      <trkpt lat="38.3364480" lon="-0.6903800">
        <ele>330.0</ele>
        <time>2018-03-05T14:24:04Z</time>
      </trkpt>
      <trkpt lat="38.3363880" lon="-0.6904180">
        <ele>330.0</ele>
        <time>2018-03-05T14:24:05Z</time>
      </trkpt>
      <trkpt lat="38.3363260" lon="-0.6904470">
        <ele>330.0</ele>
        <time>2018-03-05T14:24:06Z</time>
      </trkpt>
      <trkpt lat="38.3362630" lon="-0.6904570">
        <ele>330.0</ele>
        <time>2018-03-05T14:24:07Z</time>
      </trkpt>
      <trkpt lat="38.3361980" lon="-0.6904530">
        <ele>330.0</ele>
        <time>2018-03-05T14:24:08Z</time>
      </trkpt>
      <trkpt lat="38.3361360" lon="-0.6904190">
        <ele>329.0</ele>
        <time>2018-03-05T14:24:09Z</time>
      </trkpt>
      <trkpt lat="38.3360750" lon="-0.6903710">
        <ele>328.0</ele>
        <time>2018-03-05T14:24:10Z</time>
      </trkpt>
      <trkpt lat="38.3360090" lon="-0.6903120">
        <ele>328.0</ele>
        <time>2018-03-05T14:24:11Z</time>
      </trkpt>
      <trkpt lat="38.3359600" lon="-0.6902410">
        <ele>327.0</ele>
        <time>2018-03-05T14:24:12Z</time>
      </trkpt>
      <trkpt lat="38.3359110" lon="-0.6901730">
        <ele>327.0</ele>
        <time>2018-03-05T14:24:13Z</time>
      </trkpt>
      <trkpt lat="38.3358610" lon="-0.6900950">
        <ele>328.0</ele>
        <time>2018-03-05T14:24:14Z</time>
      </trkpt>
      <trkpt lat="38.3358130" lon="-0.6900290">
        <ele>328.0</ele>
        <time>2018-03-05T14:24:15Z</time>
      </trkpt>
      <trkpt lat="38.3357670" lon="-0.6899880">
        <ele>328.0</ele>
        <time>2018-03-05T14:24:16Z</time>
      </trkpt>
      <trkpt lat="38.3357100" lon="-0.6899580">
        <ele>328.0</ele>
        <time>2018-03-05T14:24:17Z</time>
      </trkpt>
      <trkpt lat="38.3356500" lon="-0.6899410">
        <ele>327.0</ele>
        <time>2018-03-05T14:24:18Z</time>
      </trkpt>
      <trkpt lat="38.3355890" lon="-0.6899230">
        <ele>327.0</ele>
        <time>2018-03-05T14:24:19Z</time>
      </trkpt>
      <trkpt lat="38.3355230" lon="-0.6899070">
        <ele>326.0</ele>
        <time>2018-03-05T14:24:20Z</time>
      </trkpt>
      <trkpt lat="38.3354570" lon="-0.6898940">
        <ele>326.0</ele>
        <time>2018-03-05T14:24:21Z</time>
      </trkpt>
      <trkpt lat="38.3354010" lon="-0.6898770">
        <ele>325.0</ele>
        <time>2018-03-05T14:24:22Z</time>
      </trkpt>
      <trkpt lat="38.3353500" lon="-0.6898630">
        <ele>325.0</ele>
        <time>2018-03-05T14:24:23Z</time>
      </trkpt>
      <trkpt lat="38.3353020" lon="-0.6898430">
        <ele>324.0</ele>
        <time>2018-03-05T14:24:24Z</time>
      </trkpt>
      <trkpt lat="38.3352520" lon="-0.6898320">
        <ele>323.0</ele>
        <time>2018-03-05T14:24:25Z</time>
      </trkpt>
      <trkpt lat="38.3352080" lon="-0.6898320">
        <ele>322.0</ele>
        <time>2018-03-05T14:24:26Z</time>
      </trkpt>
      <trkpt lat="38.3351690" lon="-0.6898260">
        <ele>321.0</ele>
        <time>2018-03-05T14:24:27Z</time>
      </trkpt>
      <trkpt lat="38.3351290" lon="-0.6898210">
        <ele>320.0</ele>
        <time>2018-03-05T14:24:28Z</time>
      </trkpt>
      <trkpt lat="38.3350940" lon="-0.6898130">
        <ele>319.0</ele>
        <time>2018-03-05T14:24:29Z</time>
      </trkpt>
      <trkpt lat="38.3350640" lon="-0.6898020">
        <ele>319.0</ele>
        <time>2018-03-05T14:24:30Z</time>
      </trkpt>
      <trkpt lat="38.3350290" lon="-0.6897870">
        <ele>318.0</ele>
        <time>2018-03-05T14:24:31Z</time>
      </trkpt>
      <trkpt lat="38.3349930" lon="-0.6897800">
        <ele>317.0</ele>
        <time>2018-03-05T14:24:32Z</time>
      </trkpt>
      <trkpt lat="38.3349560" lon="-0.6897770">
        <ele>317.0</ele>
        <time>2018-03-05T14:24:33Z</time>
      </trkpt>
      <trkpt lat="38.3349220" lon="-0.6897590">
        <ele>316.0</ele>
        <time>2018-03-05T14:24:34Z</time>
      </trkpt>
      <trkpt lat="38.3348900" lon="-0.6897240">
        <ele>315.0</ele>
        <time>2018-03-05T14:24:35Z</time>
      </trkpt>
      <trkpt lat="38.3348550" lon="-0.6896840">
        <ele>314.0</ele>
        <time>2018-03-05T14:24:36Z</time>
      </trkpt>
      <trkpt lat="38.3348210" lon="-0.6896380">
        <ele>313.0</ele>
        <time>2018-03-05T14:24:37Z</time>
      </trkpt>
      <trkpt lat="38.3347890" lon="-0.6895740">
        <ele>312.0</ele>
        <time>2018-03-05T14:24:38Z</time>
      </trkpt>
      <trkpt lat="38.3347310" lon="-0.6894840">
        <ele>311.0</ele>
        <time>2018-03-05T14:24:39Z</time>
      </trkpt>
      <trkpt lat="38.3346880" lon="-0.6894100">
        <ele>309.0</ele>
        <time>2018-03-05T14:24:40Z</time>
      </trkpt>
      <trkpt lat="38.3346450" lon="-0.6893380">
        <ele>308.0</ele>
        <time>2018-03-05T14:24:41Z</time>
      </trkpt>
      <trkpt lat="38.3346020" lon="-0.6892760">
        <ele>308.0</ele>
        <time>2018-03-05T14:24:42Z</time>
      </trkpt>
      <trkpt lat="38.3345650" lon="-0.6892270">
        <ele>308.0</ele>
        <time>2018-03-05T14:24:43Z</time>
      </trkpt>
      <trkpt lat="38.3345210" lon="-0.6891950">
        <ele>308.0</ele>
        <time>2018-03-05T14:24:44Z</time>
      </trkpt>
      <trkpt lat="38.3344820" lon="-0.6891760">
        <ele>309.0</ele>
        <time>2018-03-05T14:24:45Z</time>
      </trkpt>
      <trkpt lat="38.3344440" lon="-0.6891740">
        <ele>306.0</ele>
        <time>2018-03-05T14:24:46Z</time>
      </trkpt>
      <trkpt lat="38.3344000" lon="-0.6891730">
        <ele>305.0</ele>
        <time>2018-03-05T14:24:47Z</time>
      </trkpt>
      <trkpt lat="38.3343500" lon="-0.6891780">
        <ele>304.0</ele>
        <time>2018-03-05T14:24:48Z</time>
      </trkpt>
      <trkpt lat="38.3342970" lon="-0.6891840">
        <ele>302.0</ele>
        <time>2018-03-05T14:24:49Z</time>
      </trkpt>
      <trkpt lat="38.3342390" lon="-0.6891860">
        <ele>301.0</ele>
        <time>2018-03-05T14:24:50Z</time>
      </trkpt>
      <trkpt lat="38.3341850" lon="-0.6891760">
        <ele>300.0</ele>
        <time>2018-03-05T14:24:51Z</time>
      </trkpt>
      <trkpt lat="38.3341300" lon="-0.6891510">
        <ele>299.0</ele>
        <time>2018-03-05T14:24:52Z</time>
      </trkpt>
      <trkpt lat="38.3340680" lon="-0.6891260">
        <ele>298.0</ele>
        <time>2018-03-05T14:24:53Z</time>
      </trkpt>
      <trkpt lat="38.3340000" lon="-0.6891080">
        <ele>298.0</ele>
        <time>2018-03-05T14:24:54Z</time>
      </trkpt>
      <trkpt lat="38.3339360" lon="-0.6891000">
        <ele>296.0</ele>
        <time>2018-03-05T14:24:55Z</time>
      </trkpt>
      <trkpt lat="38.3338660" lon="-0.6891000">
        <ele>295.0</ele>
        <time>2018-03-05T14:24:56Z</time>
      </trkpt>
      <trkpt lat="38.3337970" lon="-0.6891080">
        <ele>294.0</ele>
        <time>2018-03-05T14:24:57Z</time>
      </trkpt>
      <trkpt lat="38.3337300" lon="-0.6891190">
        <ele>293.0</ele>
        <time>2018-03-05T14:24:58Z</time>
      </trkpt>
      <trkpt lat="38.3336620" lon="-0.6891390">
        <ele>292.0</ele>
        <time>2018-03-05T14:24:59Z</time>
      </trkpt>
      <trkpt lat="38.3335840" lon="-0.6891510">
        <ele>291.0</ele>
        <time>2018-03-05T14:25:00Z</time>
      </trkpt>
      <trkpt lat="38.3335110" lon="-0.6891450">
        <ele>289.0</ele>
        <time>2018-03-05T14:25:01Z</time>
      </trkpt>
      <trkpt lat="38.3334310" lon="-0.6891310">
        <ele>289.0</ele>
        <time>2018-03-05T14:25:02Z</time>
      </trkpt>
      <trkpt lat="38.3333570" lon="-0.6891030">
        <ele>288.0</ele>
        <time>2018-03-05T14:25:03Z</time>
      </trkpt>
      <trkpt lat="38.3332740" lon="-0.6890610">
        <ele>288.0</ele>
        <time>2018-03-05T14:25:04Z</time>
      </trkpt>
      <trkpt lat="38.3331920" lon="-0.6890150">
        <ele>287.0</ele>
        <time>2018-03-05T14:25:05Z</time>
      </trkpt>
      <trkpt lat="38.3331070" lon="-0.6889720">
        <ele>287.0</ele>
        <time>2018-03-05T14:25:06Z</time>
      </trkpt>
      <trkpt lat="38.3330250" lon="-0.6889320">
        <ele>286.0</ele>
        <time>2018-03-05T14:25:07Z</time>
      </trkpt>
      <trkpt lat="38.3329460" lon="-0.6889030">
        <ele>285.0</ele>
        <time>2018-03-05T14:25:08Z</time>
      </trkpt>
      <trkpt lat="38.3328700" lon="-0.6888850">
        <ele>285.0</ele>
        <time>2018-03-05T14:25:09Z</time>
      </trkpt>
      <trkpt lat="38.3328080" lon="-0.6888750">
        <ele>284.0</ele>
        <time>2018-03-05T14:25:10Z</time>
      </trkpt>
      <trkpt lat="38.3327440" lon="-0.6888770">
        <ele>284.0</ele>
        <time>2018-03-05T14:25:11Z</time>
      </trkpt>
      <trkpt lat="38.3326870" lon="-0.6888570">
        <ele>283.0</ele>
        <time>2018-03-05T14:25:12Z</time>
      </trkpt>
      <trkpt lat="38.3326300" lon="-0.6888310">
        <ele>282.0</ele>
        <time>2018-03-05T14:25:13Z</time>
      </trkpt>
      <trkpt lat="38.3325750" lon="-0.6888130">
        <ele>281.0</ele>
        <time>2018-03-05T14:25:14Z</time>
      </trkpt>
      <trkpt lat="38.3325220" lon="-0.6887970">
        <ele>281.0</ele>
        <time>2018-03-05T14:25:15Z</time>
      </trkpt>
      <trkpt lat="38.3324660" lon="-0.6887870">
        <ele>281.0</ele>
        <time>2018-03-05T14:25:16Z</time>
      </trkpt>
      <trkpt lat="38.3324090" lon="-0.6887810">
        <ele>280.0</ele>
        <time>2018-03-05T14:25:17Z</time>
      </trkpt>
      <trkpt lat="38.3323530" lon="-0.6887840">
        <ele>278.0</ele>
        <time>2018-03-05T14:25:18Z</time>
      </trkpt>
      <trkpt lat="38.3322970" lon="-0.6887840">
        <ele>278.0</ele>
        <time>2018-03-05T14:25:19Z</time>
      </trkpt>
      <trkpt lat="38.3322460" lon="-0.6887810">
        <ele>277.0</ele>
        <time>2018-03-05T14:25:20Z</time>
      </trkpt>
      <trkpt lat="38.3321890" lon="-0.6887840">
        <ele>276.0</ele>
        <time>2018-03-05T14:25:21Z</time>
      </trkpt>
      <trkpt lat="38.3321340" lon="-0.6887870">
        <ele>275.0</ele>
        <time>2018-03-05T14:25:22Z</time>
      </trkpt>
      <trkpt lat="38.3320820" lon="-0.6888010">
        <ele>274.0</ele>
        <time>2018-03-05T14:25:23Z</time>
      </trkpt>
      <trkpt lat="38.3320270" lon="-0.6888090">
        <ele>273.0</ele>
        <time>2018-03-05T14:25:24Z</time>
      </trkpt>
      <trkpt lat="38.3319610" lon="-0.6888190">
        <ele>272.0</ele>
        <time>2018-03-05T14:25:25Z</time>
      </trkpt>
      <trkpt lat="38.3318990" lon="-0.6888250">
        <ele>271.0</ele>
        <time>2018-03-05T14:25:26Z</time>
      </trkpt>
      <trkpt lat="38.3318280" lon="-0.6888280">
        <ele>269.0</ele>
        <time>2018-03-05T14:25:27Z</time>
      </trkpt>
      <trkpt lat="38.3317590" lon="-0.6888340">
        <ele>268.0</ele>
        <time>2018-03-05T14:25:28Z</time>
      </trkpt>
      <trkpt lat="38.3316940" lon="-0.6888390">
        <ele>267.0</ele>
        <time>2018-03-05T14:25:29Z</time>
      </trkpt>
      <trkpt lat="38.3316320" lon="-0.6888440">
        <ele>266.0</ele>
        <time>2018-03-05T14:25:30Z</time>
      </trkpt>
      <trkpt lat="38.3315750" lon="-0.6888480">
        <ele>265.0</ele>
        <time>2018-03-05T14:25:31Z</time>
      </trkpt>
      <trkpt lat="38.3315240" lon="-0.6888510">
        <ele>264.0</ele>
        <time>2018-03-05T14:25:32Z</time>
      </trkpt>
      <trkpt lat="38.3314820" lon="-0.6888530">
        <ele>264.0</ele>
        <time>2018-03-05T14:25:33Z</time>
      </trkpt>
      <trkpt lat="38.3314500" lon="-0.6888600">
        <ele>263.0</ele>
        <time>2018-03-05T14:25:34Z</time>
      </trkpt>
      <trkpt lat="38.3314240" lon="-0.6888780">
        <ele>262.0</ele>
        <time>2018-03-05T14:25:35Z</time>
      </trkpt>
      <trkpt lat="38.3314040" lon="-0.6888970">
        <ele>262.0</ele>
        <time>2018-03-05T14:25:36Z</time>
      </trkpt>
      <trkpt lat="38.3313860" lon="-0.6889220">
        <ele>262.0</ele>
        <time>2018-03-05T14:25:37Z</time>
      </trkpt>
      <trkpt lat="38.3313680" lon="-0.6889600">
        <ele>261.0</ele>
        <time>2018-03-05T14:25:38Z</time>
      </trkpt>
      <trkpt lat="38.3313520" lon="-0.6890130">
        <ele>260.0</ele>
        <time>2018-03-05T14:25:39Z</time>
      </trkpt>
      <trkpt lat="38.3313530" lon="-0.6890670">
        <ele>260.0</ele>
        <time>2018-03-05T14:25:40Z</time>
      </trkpt>
      <trkpt lat="38.3313580" lon="-0.6891150">
        <ele>261.0</ele>
        <time>2018-03-05T14:25:41Z</time>
      </trkpt>
      <trkpt lat="38.3313600" lon="-0.6891570">
        <ele>261.0</ele>
        <time>2018-03-05T14:25:42Z</time>
      </trkpt>
      <trkpt lat="38.3313620" lon="-0.6891970">
        <ele>261.0</ele>
        <time>2018-03-05T14:25:43Z</time>
      </trkpt>
      <trkpt lat="38.3313660" lon="-0.6892440">
        <ele>261.0</ele>
        <time>2018-03-05T14:25:44Z</time>
      </trkpt>
      <trkpt lat="38.3313680" lon="-0.6892960">
        <ele>261.0</ele>
        <time>2018-03-05T14:25:45Z</time>
      </trkpt>
      <trkpt lat="38.3313680" lon="-0.6893490">
        <ele>261.0</ele>
        <time>2018-03-05T14:25:46Z</time>
      </trkpt>
      <trkpt lat="38.3313710" lon="-0.6893960">
        <ele>261.0</ele>
        <time>2018-03-05T14:25:47Z</time>
      </trkpt>
      <trkpt lat="38.3313700" lon="-0.6894400">
        <ele>261.0</ele>
        <time>2018-03-05T14:25:48Z</time>
      </trkpt>
      <trkpt lat="38.3313740" lon="-0.6894810">
        <ele>261.0</ele>
        <time>2018-03-05T14:25:49Z</time>
      </trkpt>
      <trkpt lat="38.3313830" lon="-0.6895230">
        <ele>261.0</ele>
        <time>2018-03-05T14:25:50Z</time>
      </trkpt>
      <trkpt lat="38.3313950" lon="-0.6895690">
        <ele>261.0</ele>
        <time>2018-03-05T14:25:51Z</time>
      </trkpt>
      <trkpt lat="38.3314020" lon="-0.6896200">
        <ele>261.0</ele>
        <time>2018-03-05T14:25:52Z</time>
      </trkpt>
      <trkpt lat="38.3314070" lon="-0.6896740">
        <ele>261.0</ele>
        <time>2018-03-05T14:25:53Z</time>
      </trkpt>
      <trkpt lat="38.3314100" lon="-0.6897290">
        <ele>261.0</ele>
        <time>2018-03-05T14:25:54Z</time>
      </trkpt>
      <trkpt lat="38.3314130" lon="-0.6897720">
        <ele>262.0</ele>
        <time>2018-03-05T14:25:55Z</time>
      </trkpt>
      <trkpt lat="38.3314130" lon="-0.6898090">
        <ele>262.0</ele>
        <time>2018-03-05T14:25:56Z</time>
      </trkpt>
      <trkpt lat="38.3314040" lon="-0.6898380">
        <ele>262.0</ele>
        <time>2018-03-05T14:25:57Z</time>
      </trkpt>
      <trkpt lat="38.3313810" lon="-0.6898520">
        <ele>262.0</ele>
        <time>2018-03-05T14:25:58Z</time>
      </trkpt>
      <trkpt lat="38.3313600" lon="-0.6898610">
        <ele>262.0</ele>
        <time>2018-03-05T14:25:59Z</time>
      </trkpt>
      <trkpt lat="38.3313260" lon="-0.6898560">
        <ele>262.0</ele>
        <time>2018-03-05T14:26:00Z</time>
      </trkpt>
      <trkpt lat="38.3312860" lon="-0.6898510">
        <ele>262.0</ele>
        <time>2018-03-05T14:26:01Z</time>
      </trkpt>
      <trkpt lat="38.3312420" lon="-0.6898430">
        <ele>261.0</ele>
        <time>2018-03-05T14:26:02Z</time>
      </trkpt>
      <trkpt lat="38.3311960" lon="-0.6898340">
        <ele>261.0</ele>
        <time>2018-03-05T14:26:03Z</time>
      </trkpt>
      <trkpt lat="38.3311460" lon="-0.6898220">
        <ele>261.0</ele>
        <time>2018-03-05T14:26:04Z</time>
      </trkpt>
      <trkpt lat="38.3310940" lon="-0.6898170">
        <ele>261.0</ele>
        <time>2018-03-05T14:26:05Z</time>
      </trkpt>
      <trkpt lat="38.3310430" lon="-0.6898250">
        <ele>260.0</ele>
        <time>2018-03-05T14:26:06Z</time>
      </trkpt>
      <trkpt lat="38.3309940" lon="-0.6898480">
        <ele>260.0</ele>
        <time>2018-03-05T14:26:07Z</time>
      </trkpt>
      <trkpt lat="38.3309530" lon="-0.6898840">
        <ele>260.0</ele>
        <time>2018-03-05T14:26:08Z</time>
      </trkpt>
      <trkpt lat="38.3309250" lon="-0.6899410">
        <ele>261.0</ele>
        <time>2018-03-05T14:26:09Z</time>
      </trkpt>
      <trkpt lat="38.3309110" lon="-0.6899970">
        <ele>261.0</ele>
        <time>2018-03-05T14:26:10Z</time>
      </trkpt>
      <trkpt lat="38.3309090" lon="-0.6900560">
        <ele>261.0</ele>
        <time>2018-03-05T14:26:11Z</time>
      </trkpt>
      <trkpt lat="38.3309000" lon="-0.6901130">
        <ele>262.0</ele>
        <time>2018-03-05T14:26:12Z</time>
      </trkpt>
      <trkpt lat="38.3308920" lon="-0.6901690">
        <ele>262.0</ele>
        <time>2018-03-05T14:26:13Z</time>
      </trkpt>
      <trkpt lat="38.3308700" lon="-0.6902130">
        <ele>262.0</ele>
        <time>2018-03-05T14:26:14Z</time>
      </trkpt>
      <trkpt lat="38.3308430" lon="-0.6902460">
        <ele>262.0</ele>
        <time>2018-03-05T14:26:15Z</time>
      </trkpt>
      <trkpt lat="38.3308230" lon="-0.6902810">
        <ele>262.0</ele>
        <time>2018-03-05T14:26:16Z</time>
      </trkpt>
      <trkpt lat="38.3308010" lon="-0.6903140">
        <ele>263.0</ele>
        <time>2018-03-05T14:26:17Z</time>
      </trkpt>
      <trkpt lat="38.3307830" lon="-0.6903510">
        <ele>263.0</ele>
        <time>2018-03-05T14:26:18Z</time>
      </trkpt>
      <trkpt lat="38.3307770" lon="-0.6903860">
        <ele>263.0</ele>
        <time>2018-03-05T14:26:19Z</time>
      </trkpt>
      <trkpt lat="38.3307790" lon="-0.6904240">
        <ele>263.0</ele>
        <time>2018-03-05T14:26:20Z</time>
      </trkpt>
      <trkpt lat="38.3307820" lon="-0.6904680">
        <ele>263.0</ele>
        <time>2018-03-05T14:26:21Z</time>
      </trkpt>
      <trkpt lat="38.3307840" lon="-0.6905130">
        <ele>263.0</ele>
        <time>2018-03-05T14:26:22Z</time>
      </trkpt>
      <trkpt lat="38.3307860" lon="-0.6905590">
        <ele>263.0</ele>
        <time>2018-03-05T14:26:23Z</time>
      </trkpt>
      <trkpt lat="38.3307910" lon="-0.6906030">
        <ele>263.0</ele>
        <time>2018-03-05T14:26:24Z</time>
      </trkpt>
      <trkpt lat="38.3307950" lon="-0.6906470">
        <ele>264.0</ele>
        <time>2018-03-05T14:26:25Z</time>
      </trkpt>
      <trkpt lat="38.3307970" lon="-0.6906920">
        <ele>264.0</ele>
        <time>2018-03-05T14:26:26Z</time>
      </trkpt>
      <trkpt lat="38.3308010" lon="-0.6907380">
        <ele>264.0</ele>
        <time>2018-03-05T14:26:27Z</time>
      </trkpt>
      <trkpt lat="38.3308060" lon="-0.6907830">
        <ele>264.0</ele>
        <time>2018-03-05T14:26:28Z</time>
      </trkpt>
      <trkpt lat="38.3308080" lon="-0.6908280">
        <ele>264.0</ele>
        <time>2018-03-05T14:26:29Z</time>
      </trkpt>
      <trkpt lat="38.3308090" lon="-0.6908740">
        <ele>264.0</ele>
        <time>2018-03-05T14:26:30Z</time>
      </trkpt>
      <trkpt lat="38.3308110" lon="-0.6909200">
        <ele>264.0</ele>
        <time>2018-03-05T14:26:31Z</time>
      </trkpt>
      <trkpt lat="38.3308130" lon="-0.6909660">
        <ele>264.0</ele>
        <time>2018-03-05T14:26:32Z</time>
      </trkpt>
      <trkpt lat="38.3308150" lon="-0.6910120">
        <ele>265.0</ele>
        <time>2018-03-05T14:26:33Z</time>
      </trkpt>
      <trkpt lat="38.3308160" lon="-0.6910570">
        <ele>265.0</ele>
        <time>2018-03-05T14:26:34Z</time>
      </trkpt>
      <trkpt lat="38.3308170" lon="-0.6911020">
        <ele>265.0</ele>
        <time>2018-03-05T14:26:35Z</time>
      </trkpt>
      <trkpt lat="38.3308190" lon="-0.6911460">
        <ele>265.0</ele>
        <time>2018-03-05T14:26:36Z</time>
      </trkpt>
      <trkpt lat="38.3308230" lon="-0.6911890">
        <ele>265.0</ele>
        <time>2018-03-05T14:26:37Z</time>
      </trkpt>
      <trkpt lat="38.3308250" lon="-0.6912320">
        <ele>265.0</ele>
        <time>2018-03-05T14:26:38Z</time>
      </trkpt>
      <trkpt lat="38.3308280" lon="-0.6912730">
        <ele>266.0</ele>
        <time>2018-03-05T14:26:39Z</time>
      </trkpt>
      <trkpt lat="38.3308340" lon="-0.6913150">
        <ele>266.0</ele>
        <time>2018-03-05T14:26:40Z</time>
      </trkpt>
      <trkpt lat="38.3308390" lon="-0.6913560">
        <ele>266.0</ele>
        <time>2018-03-05T14:26:41Z</time>
      </trkpt>
      <trkpt lat="38.3308420" lon="-0.6913990">
        <ele>266.0</ele>
        <time>2018-03-05T14:26:42Z</time>
      </trkpt>
      <trkpt lat="38.3308450" lon="-0.6914410">
        <ele>266.0</ele>
        <time>2018-03-05T14:26:43Z</time>
      </trkpt>
      <trkpt lat="38.3308480" lon="-0.6914840">
        <ele>267.0</ele>
        <time>2018-03-05T14:26:44Z</time>
      </trkpt>
      <trkpt lat="38.3308510" lon="-0.6915260">
        <ele>267.0</ele>
        <time>2018-03-05T14:26:45Z</time>
      </trkpt>
      <trkpt lat="38.3308530" lon="-0.6915680">
        <ele>267.0</ele>
        <time>2018-03-05T14:26:46Z</time>
      </trkpt>
      <trkpt lat="38.3308550" lon="-0.6916100">
        <ele>267.0</ele>
        <time>2018-03-05T14:26:47Z</time>
      </trkpt>
      <trkpt lat="38.3308580" lon="-0.6916530">
        <ele>267.0</ele>
        <time>2018-03-05T14:26:48Z</time>
      </trkpt>
      <trkpt lat="38.3308620" lon="-0.6916960">
        <ele>267.0</ele>
        <time>2018-03-05T14:26:49Z</time>
      </trkpt>
      <trkpt lat="38.3308640" lon="-0.6917390">
        <ele>268.0</ele>
        <time>2018-03-05T14:26:50Z</time>
      </trkpt>
      <trkpt lat="38.3308650" lon="-0.6917810">
        <ele>268.0</ele>
        <time>2018-03-05T14:26:51Z</time>
      </trkpt>
      <trkpt lat="38.3308670" lon="-0.6918230">
        <ele>268.0</ele>
        <time>2018-03-05T14:26:52Z</time>
      </trkpt>
      <trkpt lat="38.3308680" lon="-0.6918640">
        <ele>268.0</ele>
        <time>2018-03-05T14:26:53Z</time>
      </trkpt>
      <trkpt lat="38.3308710" lon="-0.6919040">
        <ele>269.0</ele>
        <time>2018-03-05T14:26:54Z</time>
      </trkpt>
      <trkpt lat="38.3308750" lon="-0.6919430">
        <ele>269.0</ele>
        <time>2018-03-05T14:26:55Z</time>
      </trkpt>
      <trkpt lat="38.3308770" lon="-0.6919820">
        <ele>269.0</ele>
        <time>2018-03-05T14:26:56Z</time>
      </trkpt>
      <trkpt lat="38.3308770" lon="-0.6920200">
        <ele>269.0</ele>
        <time>2018-03-05T14:26:57Z</time>
      </trkpt>
      <trkpt lat="38.3308770" lon="-0.6920590">
        <ele>269.0</ele>
        <time>2018-03-05T14:26:58Z</time>
      </trkpt>
      <trkpt lat="38.3308780" lon="-0.6920960">
        <ele>270.0</ele>
        <time>2018-03-05T14:26:59Z</time>
      </trkpt>
      <trkpt lat="38.3308790" lon="-0.6921330">
        <ele>270.0</ele>
        <time>2018-03-05T14:27:00Z</time>
      </trkpt>
      <trkpt lat="38.3308800" lon="-0.6921690">
        <ele>270.0</ele>
        <time>2018-03-05T14:27:01Z</time>
      </trkpt>
      <trkpt lat="38.3308830" lon="-0.6922030">
        <ele>270.0</ele>
        <time>2018-03-05T14:27:02Z</time>
      </trkpt>
      <trkpt lat="38.3308870" lon="-0.6922360">
        <ele>271.0</ele>
        <time>2018-03-05T14:27:03Z</time>
      </trkpt>
      <trkpt lat="38.3308870" lon="-0.6922620">
        <ele>271.0</ele>
        <time>2018-03-05T14:27:04Z</time>
      </trkpt>
      <trkpt lat="38.3308880" lon="-0.6922890">
        <ele>271.0</ele>
        <time>2018-03-05T14:27:05Z</time>
      </trkpt>
      <trkpt lat="38.3308890" lon="-0.6923180">
        <ele>272.0</ele>
        <time>2018-03-05T14:27:06Z</time>
      </trkpt>
      <trkpt lat="38.3308890" lon="-0.6923480">
        <ele>272.0</ele>
        <time>2018-03-05T14:27:07Z</time>
      </trkpt>
      <trkpt lat="38.3308860" lon="-0.6923750">
        <ele>272.0</ele>
        <time>2018-03-05T14:27:08Z</time>
      </trkpt>
      <trkpt lat="38.3308710" lon="-0.6923950">
        <ele>273.0</ele>
        <time>2018-03-05T14:27:09Z</time>
      </trkpt>
      <trkpt lat="38.3308540" lon="-0.6924090">
        <ele>273.0</ele>
        <time>2018-03-05T14:27:10Z</time>
      </trkpt>
      <trkpt lat="38.3308360" lon="-0.6924180">
        <ele>273.0</ele>
        <time>2018-03-05T14:27:11Z</time>
      </trkpt>
      <trkpt lat="38.3308200" lon="-0.6924180">
        <ele>273.0</ele>
        <time>2018-03-05T14:27:12Z</time>
      </trkpt>
      <trkpt lat="38.3308060" lon="-0.6924060">
        <ele>274.0</ele>
        <time>2018-03-05T14:27:13Z</time>
      </trkpt>
      <trkpt lat="38.3307910" lon="-0.6923940">
        <ele>274.0</ele>
        <time>2018-03-05T14:27:14Z</time>
      </trkpt>
      <trkpt lat="38.3307770" lon="-0.6923780">
        <ele>274.0</ele>
        <time>2018-03-05T14:27:15Z</time>
      </trkpt>
      <trkpt lat="38.3307620" lon="-0.6923640">
        <ele>274.0</ele>
        <time>2018-03-05T14:27:16Z</time>
      </trkpt>
      <trkpt lat="38.3307450" lon="-0.6923520">
        <ele>275.0</ele>
        <time>2018-03-05T14:27:17Z</time>
      </trkpt>
      <trkpt lat="38.3307260" lon="-0.6923380">
        <ele>275.0</ele>
        <time>2018-03-05T14:27:18Z</time>
      </trkpt>
      <trkpt lat="38.3307120" lon="-0.6923210">
        <ele>275.0</ele>
        <time>2018-03-05T14:27:19Z</time>
      </trkpt>
      <trkpt lat="38.3306980" lon="-0.6923020">
        <ele>276.0</ele>
        <time>2018-03-05T14:27:20Z</time>
      </trkpt>
      <trkpt lat="38.3306840" lon="-0.6922810">
        <ele>276.0</ele>
        <time>2018-03-05T14:27:21Z</time>
      </trkpt>
      <trkpt lat="38.3306690" lon="-0.6922620">
        <ele>276.0</ele>
        <time>2018-03-05T14:27:22Z</time>
      </trkpt>
      <trkpt lat="38.3306530" lon="-0.6922420">
        <ele>276.0</ele>
        <time>2018-03-05T14:27:23Z</time>
      </trkpt>
      <trkpt lat="38.3306390" lon="-0.6922220">
        <ele>277.0</ele>
        <time>2018-03-05T14:27:24Z</time>
      </trkpt>
      <trkpt lat="38.3306250" lon="-0.6922010">
        <ele>277.0</ele>
        <time>2018-03-05T14:27:25Z</time>
      </trkpt>
      <trkpt lat="38.3306100" lon="-0.6921800">
        <ele>277.0</ele>
        <time>2018-03-05T14:27:26Z</time>
      </trkpt>
      <trkpt lat="38.3305960" lon="-0.6921600">
        <ele>278.0</ele>
        <time>2018-03-05T14:27:27Z</time>
      </trkpt>
      <trkpt lat="38.3305830" lon="-0.6921390">
        <ele>278.0</ele>
        <time>2018-03-05T14:27:28Z</time>
      </trkpt>
      <trkpt lat="38.3305680" lon="-0.6921180">
        <ele>278.0</ele>
        <time>2018-03-05T14:27:29Z</time>
      </trkpt>
      <trkpt lat="38.3305540" lon="-0.6920970">
        <ele>278.0</ele>
        <time>2018-03-05T14:27:30Z</time>
      </trkpt>
      <trkpt lat="38.3305400" lon="-0.6920770">
        <ele>279.0</ele>
        <time>2018-03-05T14:27:31Z</time>
      </trkpt>
      <trkpt lat="38.3305270" lon="-0.6920540">
        <ele>279.0</ele>
        <time>2018-03-05T14:27:32Z</time>
      </trkpt>
      <trkpt lat="38.3305140" lon="-0.6920290">
        <ele>279.0</ele>
        <time>2018-03-05T14:27:33Z</time>
      </trkpt>
      <trkpt lat="38.3305020" lon="-0.6920070">
        <ele>279.0</ele>
        <time>2018-03-05T14:27:34Z</time>
      </trkpt>
      <trkpt lat="38.3304890" lon="-0.6919860">
        <ele>280.0</ele>
        <time>2018-03-05T14:27:35Z</time>
      </trkpt>
      <trkpt lat="38.3304790" lon="-0.6919630">
        <ele>280.0</ele>
        <time>2018-03-05T14:27:36Z</time>
      </trkpt>
      <trkpt lat="38.3304680" lon="-0.6919390">
        <ele>280.0</ele>
        <time>2018-03-05T14:27:37Z</time>
      </trkpt>
      <trkpt lat="38.3304570" lon="-0.6919160">
        <ele>281.0</ele>
        <time>2018-03-05T14:27:38Z</time>
      </trkpt>
      <trkpt lat="38.3304460" lon="-0.6918950">
        <ele>281.0</ele>
        <time>2018-03-05T14:27:39Z</time>
      </trkpt>
      <trkpt lat="38.3304360" lon="-0.6918730">
        <ele>281.0</ele>
        <time>2018-03-05T14:27:40Z</time>
      </trkpt>
      <trkpt lat="38.3304250" lon="-0.6918500">
        <ele>282.0</ele>
        <time>2018-03-05T14:27:41Z</time>
      </trkpt>
      <trkpt lat="38.3304170" lon="-0.6918280">
        <ele>282.0</ele>
        <time>2018-03-05T14:27:42Z</time>
      </trkpt>
      <trkpt lat="38.3304080" lon="-0.6918070">
        <ele>282.0</ele>
        <time>2018-03-05T14:27:43Z</time>
      </trkpt>
      <trkpt lat="38.3303980" lon="-0.6917860">
        <ele>283.0</ele>
        <time>2018-03-05T14:27:44Z</time>
      </trkpt>
      <trkpt lat="38.3303860" lon="-0.6917650">
        <ele>283.0</ele>
        <time>2018-03-05T14:27:45Z</time>
      </trkpt>
      <trkpt lat="38.3303750" lon="-0.6917460">
        <ele>284.0</ele>
        <time>2018-03-05T14:27:46Z</time>
      </trkpt>
      <trkpt lat="38.3303630" lon="-0.6917260">
        <ele>284.0</ele>
        <time>2018-03-05T14:27:47Z</time>
      </trkpt>
      <trkpt lat="38.3303520" lon="-0.6917070">
        <ele>284.0</ele>
        <time>2018-03-05T14:27:48Z</time>
      </trkpt>
      <trkpt lat="38.3303410" lon="-0.6916880">
        <ele>284.0</ele>
        <time>2018-03-05T14:27:49Z</time>
      </trkpt>
      <trkpt lat="38.3303310" lon="-0.6916690">
        <ele>285.0</ele>
        <time>2018-03-05T14:27:50Z</time>
      </trkpt>
      <trkpt lat="38.3303210" lon="-0.6916490">
        <ele>285.0</ele>
        <time>2018-03-05T14:27:51Z</time>
      </trkpt>
      <trkpt lat="38.3303100" lon="-0.6916290">
        <ele>286.0</ele>
        <time>2018-03-05T14:27:52Z</time>
      </trkpt>
      <trkpt lat="38.3302980" lon="-0.6916100">
        <ele>286.0</ele>
        <time>2018-03-05T14:27:53Z</time>
      </trkpt>
      <trkpt lat="38.3302870" lon="-0.6915920">
        <ele>286.0</ele>
        <time>2018-03-05T14:27:54Z</time>
      </trkpt>
      <trkpt lat="38.3302750" lon="-0.6915740">
        <ele>287.0</ele>
        <time>2018-03-05T14:27:55Z</time>
      </trkpt>
      <trkpt lat="38.3302640" lon="-0.6915550">
        <ele>287.0</ele>
        <time>2018-03-05T14:27:56Z</time>
      </trkpt>
      <trkpt lat="38.3302540" lon="-0.6915360">
        <ele>287.0</ele>
        <time>2018-03-05T14:27:57Z</time>
      </trkpt>
      <trkpt lat="38.3302420" lon="-0.6915150">
        <ele>288.0</ele>
        <time>2018-03-05T14:27:58Z</time>
      </trkpt>
      <trkpt lat="38.3302320" lon="-0.6914950">
        <ele>288.0</ele>
        <time>2018-03-05T14:27:59Z</time>
      </trkpt>
      <trkpt lat="38.3302200" lon="-0.6914780">
        <ele>288.0</ele>
        <time>2018-03-05T14:28:00Z</time>
      </trkpt>
      <trkpt lat="38.3302100" lon="-0.6914590">
        <ele>288.0</ele>
        <time>2018-03-05T14:28:01Z</time>
      </trkpt>
      <trkpt lat="38.3302010" lon="-0.6914390">
        <ele>289.0</ele>
        <time>2018-03-05T14:28:02Z</time>
      </trkpt>
      <trkpt lat="38.3301900" lon="-0.6914210">
        <ele>289.0</ele>
        <time>2018-03-05T14:28:03Z</time>
      </trkpt>
      <trkpt lat="38.3301790" lon="-0.6914010">
        <ele>289.0</ele>
        <time>2018-03-05T14:28:04Z</time>
      </trkpt>
      <trkpt lat="38.3301700" lon="-0.6913810">
        <ele>290.0</ele>
        <time>2018-03-05T14:28:05Z</time>
      </trkpt>
      <trkpt lat="38.3301600" lon="-0.6913620">
        <ele>290.0</ele>
        <time>2018-03-05T14:28:06Z</time>
      </trkpt>
      <trkpt lat="38.3301520" lon="-0.6913410">
        <ele>290.0</ele>
        <time>2018-03-05T14:28:07Z</time>
      </trkpt>
      <trkpt lat="38.3301450" lon="-0.6913190">
        <ele>291.0</ele>
        <time>2018-03-05T14:28:08Z</time>
      </trkpt>
      <trkpt lat="38.3301370" lon="-0.6912980">
        <ele>291.0</ele>
        <time>2018-03-05T14:28:09Z</time>
      </trkpt>
      <trkpt lat="38.3301280" lon="-0.6912760">
        <ele>292.0</ele>
        <time>2018-03-05T14:28:10Z</time>
      </trkpt>
      <trkpt lat="38.3301190" lon="-0.6912550">
        <ele>292.0</ele>
        <time>2018-03-05T14:28:11Z</time>
      </trkpt>
      <trkpt lat="38.3301080" lon="-0.6912330">
        <ele>292.0</ele>
        <time>2018-03-05T14:28:12Z</time>
      </trkpt>
      <trkpt lat="38.3301010" lon="-0.6912130">
        <ele>293.0</ele>
        <time>2018-03-05T14:28:13Z</time>
      </trkpt>
      <trkpt lat="38.3300900" lon="-0.6911930">
        <ele>293.0</ele>
        <time>2018-03-05T14:28:14Z</time>
      </trkpt>
      <trkpt lat="38.3300800" lon="-0.6911730">
        <ele>294.0</ele>
        <time>2018-03-05T14:28:15Z</time>
      </trkpt>
      <trkpt lat="38.3300710" lon="-0.6911530">
        <ele>294.0</ele>
        <time>2018-03-05T14:28:16Z</time>
      </trkpt>
      <trkpt lat="38.3300620" lon="-0.6911320">
        <ele>295.0</ele>
        <time>2018-03-05T14:28:17Z</time>
      </trkpt>
      <trkpt lat="38.3300580" lon="-0.6911110">
        <ele>295.0</ele>
        <time>2018-03-05T14:28:18Z</time>
      </trkpt>
      <trkpt lat="38.3300520" lon="-0.6910910">
        <ele>295.0</ele>
        <time>2018-03-05T14:28:19Z</time>
      </trkpt>
      <trkpt lat="38.3300420" lon="-0.6910710">
        <ele>295.0</ele>
        <time>2018-03-05T14:28:20Z</time>
      </trkpt>
      <trkpt lat="38.3300280" lon="-0.6910520">
        <ele>296.0</ele>
        <time>2018-03-05T14:28:21Z</time>
      </trkpt>
      <trkpt lat="38.3300140" lon="-0.6910370">
        <ele>296.0</ele>
        <time>2018-03-05T14:28:22Z</time>
      </trkpt>
      <trkpt lat="38.3300000" lon="-0.6910230">
        <ele>296.0</ele>
        <time>2018-03-05T14:28:23Z</time>
      </trkpt>
      <trkpt lat="38.3299840" lon="-0.6910140">
        <ele>297.0</ele>
        <time>2018-03-05T14:28:24Z</time>
      </trkpt>
      <trkpt lat="38.3299650" lon="-0.6910040">
        <ele>297.0</ele>
        <time>2018-03-05T14:28:25Z</time>
      </trkpt>
      <trkpt lat="38.3299470" lon="-0.6909980">
        <ele>297.0</ele>
        <time>2018-03-05T14:28:26Z</time>
      </trkpt>
      <trkpt lat="38.3299320" lon="-0.6910000">
        <ele>298.0</ele>
        <time>2018-03-05T14:28:27Z</time>
      </trkpt>
      <trkpt lat="38.3299150" lon="-0.6910070">
        <ele>298.0</ele>
        <time>2018-03-05T14:28:28Z</time>
      </trkpt>
      <trkpt lat="38.3299010" lon="-0.6910170">
        <ele>298.0</ele>
        <time>2018-03-05T14:28:29Z</time>
      </trkpt>
      <trkpt lat="38.3298900" lon="-0.6910280">
        <ele>298.0</ele>
        <time>2018-03-05T14:28:30Z</time>
      </trkpt>
      <trkpt lat="38.3298800" lon="-0.6910380">
        <ele>299.0</ele>
        <time>2018-03-05T14:28:31Z</time>
      </trkpt>
      <trkpt lat="38.3298710" lon="-0.6910540">
        <ele>299.0</ele>
        <time>2018-03-05T14:28:32Z</time>
      </trkpt>
      <trkpt lat="38.3298640" lon="-0.6910730">
        <ele>299.0</ele>
        <time>2018-03-05T14:28:33Z</time>
      </trkpt>
      <trkpt lat="38.3298600" lon="-0.6910950">
        <ele>299.0</ele>
        <time>2018-03-05T14:28:34Z</time>
      </trkpt>
      <trkpt lat="38.3298600" lon="-0.6911150">
        <ele>299.0</ele>
        <time>2018-03-05T14:28:35Z</time>
      </trkpt>
      <trkpt lat="38.3298600" lon="-0.6911350">
        <ele>300.0</ele>
        <time>2018-03-05T14:28:36Z</time>
      </trkpt>
      <trkpt lat="38.3298620" lon="-0.6911550">
        <ele>300.0</ele>
        <time>2018-03-05T14:28:37Z</time>
      </trkpt>
      <trkpt lat="38.3298660" lon="-0.6911750">
        <ele>300.0</ele>
        <time>2018-03-05T14:28:38Z</time>
      </trkpt>
      <trkpt lat="38.3298710" lon="-0.6911930">
        <ele>300.0</ele>
        <time>2018-03-05T14:28:39Z</time>
      </trkpt>
      <trkpt lat="38.3298720" lon="-0.6912130">
        <ele>300.0</ele>
        <time>2018-03-05T14:28:40Z</time>
      </trkpt>
      <trkpt lat="38.3298760" lon="-0.6912340">
        <ele>300.0</ele>
        <time>2018-03-05T14:28:41Z</time>
      </trkpt>
      <trkpt lat="38.3298830" lon="-0.6912540">
        <ele>301.0</ele>
        <time>2018-03-05T14:28:42Z</time>
      </trkpt>
      <trkpt lat="38.3298900" lon="-0.6912740">
        <ele>301.0</ele>
        <time>2018-03-05T14:28:43Z</time>
      </trkpt>
      <trkpt lat="38.3298920" lon="-0.6912950">
        <ele>301.0</ele>
        <time>2018-03-05T14:28:44Z</time>
      </trkpt>
      <trkpt lat="38.3298940" lon="-0.6913150">
        <ele>301.0</ele>
        <time>2018-03-05T14:28:45Z</time>
      </trkpt>
      <trkpt lat="38.3298960" lon="-0.6913350">
        <ele>301.0</ele>
        <time>2018-03-05T14:28:46Z</time>
      </trkpt>
      <trkpt lat="38.3299010" lon="-0.6913540">
        <ele>302.0</ele>
        <time>2018-03-05T14:28:47Z</time>
      </trkpt>
      <trkpt lat="38.3299050" lon="-0.6913740">
        <ele>302.0</ele>
        <time>2018-03-05T14:28:48Z</time>
      </trkpt>
      <trkpt lat="38.3299070" lon="-0.6913950">
        <ele>302.0</ele>
        <time>2018-03-05T14:28:49Z</time>
      </trkpt>
      <trkpt lat="38.3299100" lon="-0.6914160">
        <ele>302.0</ele>
        <time>2018-03-05T14:28:50Z</time>
      </trkpt>
      <trkpt lat="38.3299140" lon="-0.6914390">
        <ele>303.0</ele>
        <time>2018-03-05T14:28:51Z</time>
      </trkpt>
      <trkpt lat="38.3299180" lon="-0.6914620">
        <ele>303.0</ele>
        <time>2018-03-05T14:28:52Z</time>
      </trkpt>
      <trkpt lat="38.3299210" lon="-0.6914860">
        <ele>303.0</ele>
        <time>2018-03-05T14:28:53Z</time>
      </trkpt>
      <trkpt lat="38.3299240" lon="-0.6915100">
        <ele>304.0</ele>
        <time>2018-03-05T14:28:54Z</time>
      </trkpt>
      <trkpt lat="38.3299280" lon="-0.6915330">
        <ele>304.0</ele>
        <time>2018-03-05T14:28:55Z</time>
      </trkpt>
      <trkpt lat="38.3299310" lon="-0.6915560">
        <ele>304.0</ele>
        <time>2018-03-05T14:28:56Z</time>
      </trkpt>
      <trkpt lat="38.3299340" lon="-0.6915780">
        <ele>305.0</ele>
        <time>2018-03-05T14:28:57Z</time>
      </trkpt>
      <trkpt lat="38.3299340" lon="-0.6916020">
        <ele>305.0</ele>
        <time>2018-03-05T14:28:58Z</time>
      </trkpt>
      <trkpt lat="38.3299360" lon="-0.6916250">
        <ele>305.0</ele>
        <time>2018-03-05T14:28:59Z</time>
      </trkpt>
      <trkpt lat="38.3299380" lon="-0.6916470">
        <ele>305.0</ele>
        <time>2018-03-05T14:29:00Z</time>
      </trkpt>
      <trkpt lat="38.3299400" lon="-0.6916710">
        <ele>306.0</ele>
        <time>2018-03-05T14:29:01Z</time>
      </trkpt>
      <trkpt lat="38.3299430" lon="-0.6916940">
        <ele>306.0</ele>
        <time>2018-03-05T14:29:02Z</time>
      </trkpt>
      <trkpt lat="38.3299450" lon="-0.6917170">
        <ele>306.0</ele>
        <time>2018-03-05T14:29:03Z</time>
      </trkpt>
      <trkpt lat="38.3299480" lon="-0.6917410">
        <ele>306.0</ele>
        <time>2018-03-05T14:29:04Z</time>
      </trkpt>
      <trkpt lat="38.3299510" lon="-0.6917640">
        <ele>306.0</ele>
        <time>2018-03-05T14:29:05Z</time>
      </trkpt>
      <trkpt lat="38.3299540" lon="-0.6917870">
        <ele>307.0</ele>
        <time>2018-03-05T14:29:06Z</time>
      </trkpt>
      <trkpt lat="38.3299540" lon="-0.6918100">
        <ele>307.0</ele>
        <time>2018-03-05T14:29:07Z</time>
      </trkpt>
      <trkpt lat="38.3299560" lon="-0.6918330">
        <ele>307.0</ele>
        <time>2018-03-05T14:29:08Z</time>
      </trkpt>
      <trkpt lat="38.3299580" lon="-0.6918570">
        <ele>307.0</ele>
        <time>2018-03-05T14:29:09Z</time>
      </trkpt>
      <trkpt lat="38.3299590" lon="-0.6918830">
        <ele>308.0</ele>
        <time>2018-03-05T14:29:10Z</time>
      </trkpt>
      <trkpt lat="38.3299600" lon="-0.6919080">
        <ele>308.0</ele>
        <time>2018-03-05T14:29:11Z</time>
      </trkpt>
      <trkpt lat="38.3299600" lon="-0.6919340">
        <ele>308.0</ele>
        <time>2018-03-05T14:29:12Z</time>
      </trkpt>
      <trkpt lat="38.3299580" lon="-0.6919580">
        <ele>308.0</ele>
        <time>2018-03-05T14:29:13Z</time>
      </trkpt>
      <trkpt lat="38.3299600" lon="-0.6919850">
        <ele>309.0</ele>
        <time>2018-03-05T14:29:14Z</time>
      </trkpt>
      <trkpt lat="38.3299610" lon="-0.6920100">
        <ele>309.0</ele>
        <time>2018-03-05T14:29:15Z</time>
      </trkpt>
      <trkpt lat="38.3299620" lon="-0.6920320">
        <ele>309.0</ele>
        <time>2018-03-05T14:29:16Z</time>
      </trkpt>
      <trkpt lat="38.3299600" lon="-0.6920500">
        <ele>309.0</ele>
        <time>2018-03-05T14:29:17Z</time>
      </trkpt>
      <trkpt lat="38.3299570" lon="-0.6920700">
        <ele>310.0</ele>
        <time>2018-03-05T14:29:18Z</time>
      </trkpt>
      <trkpt lat="38.3299570" lon="-0.6920930">
        <ele>310.0</ele>
        <time>2018-03-05T14:29:19Z</time>
      </trkpt>
      <trkpt lat="38.3299560" lon="-0.6921160">
        <ele>310.0</ele>
        <time>2018-03-05T14:29:20Z</time>
      </trkpt>
      <trkpt lat="38.3299560" lon="-0.6921390">
        <ele>311.0</ele>
        <time>2018-03-05T14:29:21Z</time>
      </trkpt>
      <trkpt lat="38.3299550" lon="-0.6921600">
        <ele>311.0</ele>
        <time>2018-03-05T14:29:22Z</time>
      </trkpt>
      <trkpt lat="38.3299530" lon="-0.6921820">
        <ele>312.0</ele>
        <time>2018-03-05T14:29:23Z</time>
      </trkpt>
      <trkpt lat="38.3299520" lon="-0.6922060">
        <ele>312.0</ele>
        <time>2018-03-05T14:29:24Z</time>
      </trkpt>
      <trkpt lat="38.3299500" lon="-0.6922280">
        <ele>312.0</ele>
        <time>2018-03-05T14:29:25Z</time>
      </trkpt>
      <trkpt lat="38.3299480" lon="-0.6922520">
        <ele>312.0</ele>
        <time>2018-03-05T14:29:26Z</time>
      </trkpt>
      <trkpt lat="38.3299470" lon="-0.6922770">
        <ele>312.0</ele>
        <time>2018-03-05T14:29:27Z</time>
      </trkpt>
      <trkpt lat="38.3299420" lon="-0.6922990">
        <ele>312.0</ele>
        <time>2018-03-05T14:29:28Z</time>
      </trkpt>
      <trkpt lat="38.3299300" lon="-0.6923140">
        <ele>313.0</ele>
        <time>2018-03-05T14:29:29Z</time>
      </trkpt>
      <trkpt lat="38.3299140" lon="-0.6923250">
        <ele>313.0</ele>
        <time>2018-03-05T14:29:30Z</time>
      </trkpt>
      <trkpt lat="38.3299020" lon="-0.6923230">
        <ele>313.0</ele>
        <time>2018-03-05T14:29:31Z</time>
      </trkpt>
      <trkpt lat="38.3298870" lon="-0.6923230">
        <ele>313.0</ele>
        <time>2018-03-05T14:29:32Z</time>
      </trkpt>
      <trkpt lat="38.3298740" lon="-0.6923140">
        <ele>313.0</ele>
        <time>2018-03-05T14:29:33Z</time>
      </trkpt>
      <trkpt lat="38.3298630" lon="-0.6923000">
        <ele>314.0</ele>
        <time>2018-03-05T14:29:34Z</time>
      </trkpt>
      <trkpt lat="38.3298520" lon="-0.6922840">
        <ele>314.0</ele>
        <time>2018-03-05T14:29:35Z</time>
      </trkpt>
      <trkpt lat="38.3298420" lon="-0.6922670">
        <ele>314.0</ele>
        <time>2018-03-05T14:29:36Z</time>
      </trkpt>
      <trkpt lat="38.3298340" lon="-0.6922480">
        <ele>314.0</ele>
        <time>2018-03-05T14:29:37Z</time>
      </trkpt>
      <trkpt lat="38.3298260" lon="-0.6922290">
        <ele>314.0</ele>
        <time>2018-03-05T14:29:38Z</time>
      </trkpt>
      <trkpt lat="38.3298190" lon="-0.6922120">
        <ele>315.0</ele>
        <time>2018-03-05T14:29:39Z</time>
      </trkpt>
      <trkpt lat="38.3298110" lon="-0.6921960">
        <ele>315.0</ele>
        <time>2018-03-05T14:29:40Z</time>
      </trkpt>
      <trkpt lat="38.3298020" lon="-0.6921770">
        <ele>315.0</ele>
        <time>2018-03-05T14:29:41Z</time>
      </trkpt>
      <trkpt lat="38.3297940" lon="-0.6921580">
        <ele>315.0</ele>
        <time>2018-03-05T14:29:42Z</time>
      </trkpt>
      <trkpt lat="38.3297870" lon="-0.6921370">
        <ele>315.0</ele>
        <time>2018-03-05T14:29:43Z</time>
      </trkpt>
      <trkpt lat="38.3297830" lon="-0.6921160">
        <ele>316.0</ele>
        <time>2018-03-05T14:29:44Z</time>
      </trkpt>
      <trkpt lat="38.3297800" lon="-0.6920960">
        <ele>316.0</ele>
        <time>2018-03-05T14:29:45Z</time>
      </trkpt>
      <trkpt lat="38.3297780" lon="-0.6920780">
        <ele>316.0</ele>
        <time>2018-03-05T14:29:46Z</time>
      </trkpt>
      <trkpt lat="38.3297740" lon="-0.6920610">
        <ele>316.0</ele>
        <time>2018-03-05T14:29:47Z</time>
      </trkpt>
      <trkpt lat="38.3297710" lon="-0.6920420">
        <ele>317.0</ele>
        <time>2018-03-05T14:29:48Z</time>
      </trkpt>
      <trkpt lat="38.3297640" lon="-0.6920220">
        <ele>317.0</ele>
        <time>2018-03-05T14:29:49Z</time>
      </trkpt>
      <trkpt lat="38.3297590" lon="-0.6920010">
        <ele>317.0</ele>
        <time>2018-03-05T14:29:50Z</time>
      </trkpt>
      <trkpt lat="38.3297540" lon="-0.6919810">
        <ele>317.0</ele>
        <time>2018-03-05T14:29:51Z</time>
      </trkpt>
      <trkpt lat="38.3297560" lon="-0.6919620">
        <ele>318.0</ele>
        <time>2018-03-05T14:29:52Z</time>
      </trkpt>
      <trkpt lat="38.3297520" lon="-0.6919410">
        <ele>318.0</ele>
        <time>2018-03-05T14:29:53Z</time>
      </trkpt>
      <trkpt lat="38.3297480" lon="-0.6919190">
        <ele>318.0</ele>
        <time>2018-03-05T14:29:54Z</time>
      </trkpt>
      <trkpt lat="38.3297410" lon="-0.6918990">
        <ele>318.0</ele>
        <time>2018-03-05T14:29:55Z</time>
      </trkpt>
      <trkpt lat="38.3297350" lon="-0.6918790">
        <ele>319.0</ele>
        <time>2018-03-05T14:29:56Z</time>
      </trkpt>
      <trkpt lat="38.3297270" lon="-0.6918570">
        <ele>319.0</ele>
        <time>2018-03-05T14:29:57Z</time>
      </trkpt>
      <trkpt lat="38.3297200" lon="-0.6918340">
        <ele>319.0</ele>
        <time>2018-03-05T14:29:58Z</time>
      </trkpt>
      <trkpt lat="38.3297130" lon="-0.6918120">
        <ele>319.0</ele>
        <time>2018-03-05T14:29:59Z</time>
      </trkpt>
      <trkpt lat="38.3297060" lon="-0.6917890">
        <ele>320.0</ele>
        <time>2018-03-05T14:30:00Z</time>
      </trkpt>
      <trkpt lat="38.3297000" lon="-0.6917660">
        <ele>320.0</ele>
        <time>2018-03-05T14:30:01Z</time>
      </trkpt>
      <trkpt lat="38.3296920" lon="-0.6917440">
        <ele>320.0</ele>
        <time>2018-03-05T14:30:02Z</time>
      </trkpt>
      <trkpt lat="38.3296840" lon="-0.6917210">
        <ele>320.0</ele>
        <time>2018-03-05T14:30:03Z</time>
      </trkpt>
      <trkpt lat="38.3296750" lon="-0.6917000">
        <ele>321.0</ele>
        <time>2018-03-05T14:30:04Z</time>
      </trkpt>
      <trkpt lat="38.3296660" lon="-0.6916790">
        <ele>321.0</ele>
        <time>2018-03-05T14:30:05Z</time>
      </trkpt>
      <trkpt lat="38.3296560" lon="-0.6916550">
        <ele>321.0</ele>
        <time>2018-03-05T14:30:06Z</time>
      </trkpt>
      <trkpt lat="38.3296480" lon="-0.6916320">
        <ele>321.0</ele>
        <time>2018-03-05T14:30:07Z</time>
      </trkpt>
      <trkpt lat="38.3296400" lon="-0.6916090">
        <ele>322.0</ele>
        <time>2018-03-05T14:30:08Z</time>
      </trkpt>
      <trkpt lat="38.3296310" lon="-0.6915880">
        <ele>322.0</ele>
        <time>2018-03-05T14:30:09Z</time>
      </trkpt>
      <trkpt lat="38.3296230" lon="-0.6915670">
        <ele>322.0</ele>
        <time>2018-03-05T14:30:10Z</time>
      </trkpt>
      <trkpt lat="38.3296140" lon="-0.6915450">
        <ele>323.0</ele>
        <time>2018-03-05T14:30:11Z</time>
      </trkpt>
      <trkpt lat="38.3296080" lon="-0.6915250">
        <ele>323.0</ele>
        <time>2018-03-05T14:30:12Z</time>
      </trkpt>
      <trkpt lat="38.3295970" lon="-0.6915060">
        <ele>323.0</ele>
        <time>2018-03-05T14:30:13Z</time>
      </trkpt>
      <trkpt lat="38.3295880" lon="-0.6914860">
        <ele>323.0</ele>
        <time>2018-03-05T14:30:14Z</time>
      </trkpt>
      <trkpt lat="38.3295770" lon="-0.6914670">
        <ele>324.0</ele>
        <time>2018-03-05T14:30:15Z</time>
      </trkpt>
      <trkpt lat="38.3295670" lon="-0.6914480">
        <ele>324.0</ele>
        <time>2018-03-05T14:30:16Z</time>
      </trkpt>
      <trkpt lat="38.3295560" lon="-0.6914290">
        <ele>324.0</ele>
        <time>2018-03-05T14:30:17Z</time>
      </trkpt>
      <trkpt lat="38.3295450" lon="-0.6914110">
        <ele>325.0</ele>
        <time>2018-03-05T14:30:18Z</time>
      </trkpt>
      <trkpt lat="38.3295350" lon="-0.6913920">
        <ele>325.0</ele>
        <time>2018-03-05T14:30:19Z</time>
      </trkpt>
      <trkpt lat="38.3295230" lon="-0.6913770">
        <ele>325.0</ele>
        <time>2018-03-05T14:30:20Z</time>
      </trkpt>
      <trkpt lat="38.3295090" lon="-0.6913630">
        <ele>325.0</ele>
        <time>2018-03-05T14:30:21Z</time>
      </trkpt>
      <trkpt lat="38.3294960" lon="-0.6913500">
        <ele>326.0</ele>
        <time>2018-03-05T14:30:22Z</time>
      </trkpt>
      <trkpt lat="38.3294830" lon="-0.6913380">
        <ele>326.0</ele>
        <time>2018-03-05T14:30:23Z</time>
      </trkpt>
      <trkpt lat="38.3294730" lon="-0.6913240">
        <ele>326.0</ele>
        <time>2018-03-05T14:30:24Z</time>
      </trkpt>
      <trkpt lat="38.3294630" lon="-0.6913090">
        <ele>327.0</ele>
        <time>2018-03-05T14:30:25Z</time>
      </trkpt>
      <trkpt lat="38.3294550" lon="-0.6912950">
        <ele>327.0</ele>
        <time>2018-03-05T14:30:26Z</time>
      </trkpt>
      <trkpt lat="38.3294450" lon="-0.6912840">
        <ele>327.0</ele>
        <time>2018-03-05T14:30:27Z</time>
      </trkpt>
      <trkpt lat="38.3294360" lon="-0.6912710">
        <ele>328.0</ele>
        <time>2018-03-05T14:30:28Z</time>
      </trkpt>
      <trkpt lat="38.3294260" lon="-0.6912600">
        <ele>328.0</ele>
        <time>2018-03-05T14:30:29Z</time>
      </trkpt>
      <trkpt lat="38.3294160" lon="-0.6912510">
        <ele>328.0</ele>
        <time>2018-03-05T14:30:30Z</time>
      </trkpt>
      <trkpt lat="38.3294060" lon="-0.6912390">
        <ele>329.0</ele>
        <time>2018-03-05T14:30:31Z</time>
      </trkpt>
      <trkpt lat="38.3293960" lon="-0.6912290">
        <ele>329.0</ele>
        <time>2018-03-05T14:30:32Z</time>
      </trkpt>
      <trkpt lat="38.3293850" lon="-0.6912200">
        <ele>329.0</ele>
        <time>2018-03-05T14:30:33Z</time>
      </trkpt>
      <trkpt lat="38.3293730" lon="-0.6912120">
        <ele>330.0</ele>
        <time>2018-03-05T14:30:34Z</time>
      </trkpt>
      <trkpt lat="38.3293630" lon="-0.6912010">
        <ele>330.0</ele>
        <time>2018-03-05T14:30:35Z</time>
      </trkpt>
      <trkpt lat="38.3293530" lon="-0.6911920">
        <ele>330.0</ele>
        <time>2018-03-05T14:30:36Z</time>
      </trkpt>
      <trkpt lat="38.3293420" lon="-0.6911830">
        <ele>330.0</ele>
        <time>2018-03-05T14:30:37Z</time>
      </trkpt>
      <trkpt lat="38.3293280" lon="-0.6911760">
        <ele>330.0</ele>
        <time>2018-03-05T14:30:38Z</time>
      </trkpt>
      <trkpt lat="38.3293120" lon="-0.6911720">
        <ele>331.0</ele>
        <time>2018-03-05T14:30:39Z</time>
      </trkpt>
      <trkpt lat="38.3292960" lon="-0.6911650">
        <ele>331.0</ele>
        <time>2018-03-05T14:30:40Z</time>
      </trkpt>
      <trkpt lat="38.3292810" lon="-0.6911550">
        <ele>331.0</ele>
        <time>2018-03-05T14:30:41Z</time>
      </trkpt>
      <trkpt lat="38.3292650" lon="-0.6911460">
        <ele>331.0</ele>
        <time>2018-03-05T14:30:42Z</time>
      </trkpt>
      <trkpt lat="38.3292480" lon="-0.6911500">
        <ele>331.0</ele>
        <time>2018-03-05T14:30:43Z</time>
      </trkpt>
      <trkpt lat="38.3292360" lon="-0.6911680">
        <ele>331.0</ele>
        <time>2018-03-05T14:30:44Z</time>
      </trkpt>
      <trkpt lat="38.3292270" lon="-0.6911920">
        <ele>331.0</ele>
        <time>2018-03-05T14:30:45Z</time>
      </trkpt>
      <trkpt lat="38.3292230" lon="-0.6912110">
        <ele>332.0</ele>
        <time>2018-03-05T14:30:46Z</time>
      </trkpt>
      <trkpt lat="38.3292250" lon="-0.6912290">
        <ele>332.0</ele>
        <time>2018-03-05T14:30:47Z</time>
      </trkpt>
      <trkpt lat="38.3292320" lon="-0.6912470">
        <ele>332.0</ele>
        <time>2018-03-05T14:30:48Z</time>
      </trkpt>
      <trkpt lat="38.3292420" lon="-0.6912630">
        <ele>332.0</ele>
        <time>2018-03-05T14:30:49Z</time>
      </trkpt>
      <trkpt lat="38.3292520" lon="-0.6912820">
        <ele>332.0</ele>
        <time>2018-03-05T14:30:50Z</time>
      </trkpt>
      <trkpt lat="38.3292630" lon="-0.6912990">
        <ele>332.0</ele>
        <time>2018-03-05T14:30:51Z</time>
      </trkpt>
      <trkpt lat="38.3292740" lon="-0.6913180">
        <ele>332.0</ele>
        <time>2018-03-05T14:30:52Z</time>
      </trkpt>
      <trkpt lat="38.3292850" lon="-0.6913350">
        <ele>333.0</ele>
        <time>2018-03-05T14:30:53Z</time>
      </trkpt>
      <trkpt lat="38.3292970" lon="-0.6913480">
        <ele>333.0</ele>
        <time>2018-03-05T14:30:54Z</time>
      </trkpt>
      <trkpt lat="38.3293050" lon="-0.6913630">
        <ele>333.0</ele>
        <time>2018-03-05T14:30:55Z</time>
      </trkpt>
      <trkpt lat="38.3293150" lon="-0.6913790">
        <ele>333.0</ele>
        <time>2018-03-05T14:30:56Z</time>
      </trkpt>
      <trkpt lat="38.3293230" lon="-0.6913960">
        <ele>333.0</ele>
        <time>2018-03-05T14:30:57Z</time>
      </trkpt>
      <trkpt lat="38.3293300" lon="-0.6914130">
        <ele>333.0</ele>
        <time>2018-03-05T14:30:58Z</time>
      </trkpt>
      <trkpt lat="38.3293380" lon="-0.6914270">
        <ele>333.0</ele>
        <time>2018-03-05T14:30:59Z</time>
      </trkpt>
      <trkpt lat="38.3293450" lon="-0.6914430">
        <ele>333.0</ele>
        <time>2018-03-05T14:31:00Z</time>
      </trkpt>
      <trkpt lat="38.3293520" lon="-0.6914600">
        <ele>334.0</ele>
        <time>2018-03-05T14:31:01Z</time>
      </trkpt>
      <trkpt lat="38.3293570" lon="-0.6914780">
        <ele>334.0</ele>
        <time>2018-03-05T14:31:02Z</time>
      </trkpt>
      <trkpt lat="38.3293620" lon="-0.6914960">
        <ele>334.0</ele>
        <time>2018-03-05T14:31:03Z</time>
      </trkpt>
      <trkpt lat="38.3293680" lon="-0.6915150">
        <ele>334.0</ele>
        <time>2018-03-05T14:31:04Z</time>
      </trkpt>
      <trkpt lat="38.3293750" lon="-0.6915330">
        <ele>335.0</ele>
        <time>2018-03-05T14:31:05Z</time>
      </trkpt>
      <trkpt lat="38.3293780" lon="-0.6915520">
        <ele>335.0</ele>
        <time>2018-03-05T14:31:06Z</time>
      </trkpt>
      <trkpt lat="38.3293800" lon="-0.6915720">
        <ele>335.0</ele>
        <time>2018-03-05T14:31:07Z</time>
      </trkpt>
      <trkpt lat="38.3293820" lon="-0.6915940">
        <ele>335.0</ele>
        <time>2018-03-05T14:31:08Z</time>
      </trkpt>
      <trkpt lat="38.3293840" lon="-0.6916160">
        <ele>335.0</ele>
        <time>2018-03-05T14:31:09Z</time>
      </trkpt>
      <trkpt lat="38.3293860" lon="-0.6916360">
        <ele>335.0</ele>
        <time>2018-03-05T14:31:10Z</time>
      </trkpt>
      <trkpt lat="38.3293850" lon="-0.6916540">
        <ele>335.0</ele>
        <time>2018-03-05T14:31:11Z</time>
      </trkpt>
      <trkpt lat="38.3293870" lon="-0.6916720">
        <ele>336.0</ele>
        <time>2018-03-05T14:31:12Z</time>
      </trkpt>
      <trkpt lat="38.3293880" lon="-0.6916910">
        <ele>336.0</ele>
        <time>2018-03-05T14:31:13Z</time>
      </trkpt>
      <trkpt lat="38.3293860" lon="-0.6917110">
        <ele>336.0</ele>
        <time>2018-03-05T14:31:14Z</time>
      </trkpt>
      <trkpt lat="38.3293830" lon="-0.6917320">
        <ele>336.0</ele>
        <time>2018-03-05T14:31:15Z</time>
      </trkpt>
      <trkpt lat="38.3293820" lon="-0.6917540">
        <ele>336.0</ele>
        <time>2018-03-05T14:31:16Z</time>
      </trkpt>
      <trkpt lat="38.3293810" lon="-0.6917740">
        <ele>336.0</ele>
        <time>2018-03-05T14:31:17Z</time>
      </trkpt>
      <trkpt lat="38.3293810" lon="-0.6917950">
        <ele>336.0</ele>
        <time>2018-03-05T14:31:18Z</time>
      </trkpt>
      <trkpt lat="38.3293830" lon="-0.6918160">
        <ele>336.0</ele>
        <time>2018-03-05T14:31:19Z</time>
      </trkpt>
      <trkpt lat="38.3293850" lon="-0.6918380">
        <ele>336.0</ele>
        <time>2018-03-05T14:31:20Z</time>
      </trkpt>
      <trkpt lat="38.3293870" lon="-0.6918560">
        <ele>336.0</ele>
        <time>2018-03-05T14:31:21Z</time>
      </trkpt>
      <trkpt lat="38.3293870" lon="-0.6918750">
        <ele>336.0</ele>
        <time>2018-03-05T14:31:22Z</time>
      </trkpt>
      <trkpt lat="38.3293860" lon="-0.6918950">
        <ele>336.0</ele>
        <time>2018-03-05T14:31:23Z</time>
      </trkpt>
      <trkpt lat="38.3293860" lon="-0.6919200">
        <ele>336.0</ele>
        <time>2018-03-05T14:31:24Z</time>
      </trkpt>
      <trkpt lat="38.3293890" lon="-0.6919440">
        <ele>337.0</ele>
        <time>2018-03-05T14:31:25Z</time>
      </trkpt>
      <trkpt lat="38.3293920" lon="-0.6919690">
        <ele>337.0</ele>
        <time>2018-03-05T14:31:26Z</time>
      </trkpt>
      <trkpt lat="38.3293960" lon="-0.6919930">
        <ele>337.0</ele>
        <time>2018-03-05T14:31:27Z</time>
      </trkpt>
      <trkpt lat="38.3293980" lon="-0.6920180">
        <ele>337.0</ele>
        <time>2018-03-05T14:31:28Z</time>
      </trkpt>
      <trkpt lat="38.3294000" lon="-0.6920410">
        <ele>337.0</ele>
        <time>2018-03-05T14:31:29Z</time>
      </trkpt>
      <trkpt lat="38.3294030" lon="-0.6920630">
        <ele>337.0</ele>
        <time>2018-03-05T14:31:30Z</time>
      </trkpt>
      <trkpt lat="38.3294050" lon="-0.6920810">
        <ele>338.0</ele>
        <time>2018-03-05T14:31:31Z</time>
      </trkpt>
      <trkpt lat="38.3294070" lon="-0.6921020">
        <ele>338.0</ele>
        <time>2018-03-05T14:31:32Z</time>
      </trkpt>
      <trkpt lat="38.3294090" lon="-0.6921240">
        <ele>338.0</ele>
        <time>2018-03-05T14:31:33Z</time>
      </trkpt>
      <trkpt lat="38.3294090" lon="-0.6921450">
        <ele>339.0</ele>
        <time>2018-03-05T14:31:34Z</time>
      </trkpt>
      <trkpt lat="38.3294070" lon="-0.6921640">
        <ele>339.0</ele>
        <time>2018-03-05T14:31:35Z</time>
      </trkpt>
      <trkpt lat="38.3294050" lon="-0.6921860">
        <ele>339.0</ele>
        <time>2018-03-05T14:31:36Z</time>
      </trkpt>
      <trkpt lat="38.3294040" lon="-0.6922060">
        <ele>340.0</ele>
        <time>2018-03-05T14:31:37Z</time>
      </trkpt>
      <trkpt lat="38.3294040" lon="-0.6922240">
        <ele>340.0</ele>
        <time>2018-03-05T14:31:38Z</time>
      </trkpt>
      <trkpt lat="38.3294070" lon="-0.6922440">
        <ele>340.0</ele>
        <time>2018-03-05T14:31:39Z</time>
      </trkpt>
      <trkpt lat="38.3294120" lon="-0.6922630">
        <ele>341.0</ele>
        <time>2018-03-05T14:31:40Z</time>
      </trkpt>
      <trkpt lat="38.3294130" lon="-0.6922850">
        <ele>341.0</ele>
        <time>2018-03-05T14:31:41Z</time>
      </trkpt>
      <trkpt lat="38.3294110" lon="-0.6923090">
        <ele>342.0</ele>
        <time>2018-03-05T14:31:42Z</time>
      </trkpt>
      <trkpt lat="38.3294100" lon="-0.6923300">
        <ele>342.0</ele>
        <time>2018-03-05T14:31:43Z</time>
      </trkpt>
      <trkpt lat="38.3294070" lon="-0.6923500">
        <ele>343.0</ele>
        <time>2018-03-05T14:31:44Z</time>
      </trkpt>
      <trkpt lat="38.3294020" lon="-0.6923720">
        <ele>343.0</ele>
        <time>2018-03-05T14:31:45Z</time>
      </trkpt>
      <trkpt lat="38.3293950" lon="-0.6923980">
        <ele>344.0</ele>
        <time>2018-03-05T14:31:46Z</time>
      </trkpt>
      <trkpt lat="38.3293890" lon="-0.6924180">
        <ele>344.0</ele>
        <time>2018-03-05T14:31:47Z</time>
      </trkpt>
      <trkpt lat="38.3293880" lon="-0.6924360">
        <ele>345.0</ele>
        <time>2018-03-05T14:31:48Z</time>
      </trkpt>
      <trkpt lat="38.3293830" lon="-0.6924570">
        <ele>345.0</ele>
        <time>2018-03-05T14:31:49Z</time>
      </trkpt>
      <trkpt lat="38.3293790" lon="-0.6924760">
        <ele>346.0</ele>
        <time>2018-03-05T14:31:50Z</time>
      </trkpt>
      <trkpt lat="38.3293770" lon="-0.6924950">
        <ele>346.0</ele>
        <time>2018-03-05T14:31:51Z</time>
      </trkpt>
      <trkpt lat="38.3293730" lon="-0.6925140">
        <ele>347.0</ele>
        <time>2018-03-05T14:31:52Z</time>
      </trkpt>
      <trkpt lat="38.3293670" lon="-0.6925320">
        <ele>347.0</ele>
        <time>2018-03-05T14:31:53Z</time>
      </trkpt>
      <trkpt lat="38.3293610" lon="-0.6925540">
        <ele>348.0</ele>
        <time>2018-03-05T14:31:54Z</time>
      </trkpt>
      <trkpt lat="38.3293560" lon="-0.6925730">
        <ele>348.0</ele>
        <time>2018-03-05T14:31:55Z</time>
      </trkpt>
      <trkpt lat="38.3293520" lon="-0.6925910">
        <ele>349.0</ele>
        <time>2018-03-05T14:31:56Z</time>
      </trkpt>
      <trkpt lat="38.3293490" lon="-0.6926130">
        <ele>350.0</ele>
        <time>2018-03-05T14:31:57Z</time>
      </trkpt>
      <trkpt lat="38.3293470" lon="-0.6926380">
        <ele>350.0</ele>
        <time>2018-03-05T14:31:58Z</time>
      </trkpt>
      <trkpt lat="38.3293420" lon="-0.6926550">
        <ele>351.0</ele>
        <time>2018-03-05T14:31:59Z</time>
      </trkpt>
      <trkpt lat="38.3293340" lon="-0.6926700">
        <ele>351.0</ele>
        <time>2018-03-05T14:32:00Z</time>
      </trkpt>
      <trkpt lat="38.3293340" lon="-0.6926810">
        <ele>351.0</ele>
        <time>2018-03-05T14:32:01Z</time>
      </trkpt>
      <trkpt lat="38.3293350" lon="-0.6926940">
        <ele>351.0</ele>
        <time>2018-03-05T14:32:02Z</time>
      </trkpt>
      <trkpt lat="38.3293350" lon="-0.6927110">
        <ele>352.0</ele>
        <time>2018-03-05T14:32:03Z</time>
      </trkpt>
      <trkpt lat="38.3293320" lon="-0.6927240">
        <ele>352.0</ele>
        <time>2018-03-05T14:32:04Z</time>
      </trkpt>
      <trkpt lat="38.3293300" lon="-0.6927380">
        <ele>353.0</ele>
        <time>2018-03-05T14:32:05Z</time>
      </trkpt>
      <trkpt lat="38.3293270" lon="-0.6927540">
        <ele>353.0</ele>
        <time>2018-03-05T14:32:06Z</time>
      </trkpt>
      <trkpt lat="38.3293230" lon="-0.6927690">
        <ele>353.0</ele>
        <time>2018-03-05T14:32:07Z</time>
      </trkpt>
      <trkpt lat="38.3293180" lon="-0.6927820">
        <ele>354.0</ele>
        <time>2018-03-05T14:32:08Z</time>
      </trkpt>
      <trkpt lat="38.3293150" lon="-0.6927960">
        <ele>354.0</ele>
        <time>2018-03-05T14:32:09Z</time>
      </trkpt>
      <trkpt lat="38.3293090" lon="-0.6928120">
        <ele>354.0</ele>
        <time>2018-03-05T14:32:10Z</time>
      </trkpt>
      <trkpt lat="38.3293020" lon="-0.6928210">
        <ele>354.0</ele>
        <time>2018-03-05T14:32:11Z</time>
      </trkpt>
      <trkpt lat="38.3292940" lon="-0.6928320">
        <ele>354.0</ele>
        <time>2018-03-05T14:32:12Z</time>
      </trkpt>
      <trkpt lat="38.3292860" lon="-0.6928450">
        <ele>355.0</ele>
        <time>2018-03-05T14:32:13Z</time>
      </trkpt>
      <trkpt lat="38.3292790" lon="-0.6928560">
        <ele>355.0</ele>
        <time>2018-03-05T14:32:14Z</time>
      </trkpt>
      <trkpt lat="38.3292740" lon="-0.6928680">
        <ele>355.0</ele>
        <time>2018-03-05T14:32:15Z</time>
      </trkpt>
      <trkpt lat="38.3292700" lon="-0.6928810">
        <ele>355.0</ele>
        <time>2018-03-05T14:32:16Z</time>
      </trkpt>
      <trkpt lat="38.3292650" lon="-0.6928960">
        <ele>355.0</ele>
        <time>2018-03-05T14:32:17Z</time>
      </trkpt>
      <trkpt lat="38.3292610" lon="-0.6929130">
        <ele>356.0</ele>
        <time>2018-03-05T14:32:18Z</time>
      </trkpt>
      <trkpt lat="38.3292600" lon="-0.6929260">
        <ele>356.0</ele>
        <time>2018-03-05T14:32:19Z</time>
      </trkpt>
      <trkpt lat="38.3292580" lon="-0.6929340">
        <ele>356.0</ele>
        <time>2018-03-05T14:32:20Z</time>
      </trkpt>
      <trkpt lat="38.3292580" lon="-0.6929450">
        <ele>356.0</ele>
        <time>2018-03-05T14:32:21Z</time>
      </trkpt>
      <trkpt lat="38.3292530" lon="-0.6929550">
        <ele>356.0</ele>
        <time>2018-03-05T14:32:22Z</time>
      </trkpt>
      <trkpt lat="38.3292460" lon="-0.6929690">
        <ele>356.0</ele>
        <time>2018-03-05T14:32:23Z</time>
      </trkpt>
      <trkpt lat="38.3292400" lon="-0.6929890">
        <ele>356.0</ele>
        <time>2018-03-05T14:32:24Z</time>
      </trkpt>
      <trkpt lat="38.3292350" lon="-0.6930100">
        <ele>357.0</ele>
        <time>2018-03-05T14:32:25Z</time>
      </trkpt>
      <trkpt lat="38.3292300" lon="-0.6930320">
        <ele>357.0</ele>
        <time>2018-03-05T14:32:26Z</time>
      </trkpt>
      <trkpt lat="38.3292220" lon="-0.6930540">
        <ele>357.0</ele>
        <time>2018-03-05T14:32:27Z</time>
      </trkpt>
      <trkpt lat="38.3292160" lon="-0.6930760">
        <ele>357.0</ele>
        <time>2018-03-05T14:32:28Z</time>
      </trkpt>
      <trkpt lat="38.3292120" lon="-0.6930960">
        <ele>358.0</ele>
        <time>2018-03-05T14:32:29Z</time>
      </trkpt>
      <trkpt lat="38.3292070" lon="-0.6931150">
        <ele>358.0</ele>
        <time>2018-03-05T14:32:30Z</time>
      </trkpt>
      <trkpt lat="38.3292060" lon="-0.6931350">
        <ele>358.0</ele>
        <time>2018-03-05T14:32:31Z</time>
      </trkpt>
      <trkpt lat="38.3292050" lon="-0.6931540">
        <ele>359.0</ele>
        <time>2018-03-05T14:32:32Z</time>
      </trkpt>
      <trkpt lat="38.3292050" lon="-0.6931710">
        <ele>359.0</ele>
        <time>2018-03-05T14:32:33Z</time>
      </trkpt>
      <trkpt lat="38.3292020" lon="-0.6931850">
        <ele>359.0</ele>
        <time>2018-03-05T14:32:34Z</time>
      </trkpt>
      <trkpt lat="38.3292010" lon="-0.6931980">
        <ele>359.0</ele>
        <time>2018-03-05T14:32:35Z</time>
      </trkpt>
      <trkpt lat="38.3292010" lon="-0.6932150">
        <ele>359.0</ele>
        <time>2018-03-05T14:32:36Z</time>
      </trkpt>
      <trkpt lat="38.3292020" lon="-0.6932340">
        <ele>360.0</ele>
        <time>2018-03-05T14:32:37Z</time>
      </trkpt>
      <trkpt lat="38.3292030" lon="-0.6932540">
        <ele>360.0</ele>
        <time>2018-03-05T14:32:38Z</time>
      </trkpt>
      <trkpt lat="38.3292060" lon="-0.6932740">
        <ele>360.0</ele>
        <time>2018-03-05T14:32:39Z</time>
      </trkpt>
      <trkpt lat="38.3292100" lon="-0.6932930">
        <ele>361.0</ele>
        <time>2018-03-05T14:32:40Z</time>
      </trkpt>
      <trkpt lat="38.3292150" lon="-0.6933130">
        <ele>361.0</ele>
        <time>2018-03-05T14:32:41Z</time>
      </trkpt>
      <trkpt lat="38.3292200" lon="-0.6933320">
        <ele>361.0</ele>
        <time>2018-03-05T14:32:42Z</time>
      </trkpt>
      <trkpt lat="38.3292270" lon="-0.6933520">
        <ele>361.0</ele>
        <time>2018-03-05T14:32:43Z</time>
      </trkpt>
      <trkpt lat="38.3292310" lon="-0.6933720">
        <ele>361.0</ele>
        <time>2018-03-05T14:32:44Z</time>
      </trkpt>
      <trkpt lat="38.3292320" lon="-0.6933950">
        <ele>362.0</ele>
        <time>2018-03-05T14:32:45Z</time>
      </trkpt>
      <trkpt lat="38.3292290" lon="-0.6934110">
        <ele>362.0</ele>
        <time>2018-03-05T14:32:46Z</time>
      </trkpt>
      <trkpt lat="38.3292300" lon="-0.6934270">
        <ele>362.0</ele>
        <time>2018-03-05T14:32:47Z</time>
      </trkpt>
      <trkpt lat="38.3292300" lon="-0.6934450">
        <ele>362.0</ele>
        <time>2018-03-05T14:32:48Z</time>
      </trkpt>
      <trkpt lat="38.3292310" lon="-0.6934620">
        <ele>363.0</ele>
        <time>2018-03-05T14:32:49Z</time>
      </trkpt>
      <trkpt lat="38.3292310" lon="-0.6934790">
        <ele>363.0</ele>
        <time>2018-03-05T14:32:50Z</time>
      </trkpt>
      <trkpt lat="38.3292330" lon="-0.6934940">
        <ele>363.0</ele>
        <time>2018-03-05T14:32:51Z</time>
      </trkpt>
      <trkpt lat="38.3292340" lon="-0.6935080">
        <ele>363.0</ele>
        <time>2018-03-05T14:32:52Z</time>
      </trkpt>
      <trkpt lat="38.3292340" lon="-0.6935240">
        <ele>364.0</ele>
        <time>2018-03-05T14:32:53Z</time>
      </trkpt>
      <trkpt lat="38.3292330" lon="-0.6935390">
        <ele>364.0</ele>
        <time>2018-03-05T14:32:54Z</time>
      </trkpt>
      <trkpt lat="38.3292320" lon="-0.6935550">
        <ele>364.0</ele>
        <time>2018-03-05T14:32:55Z</time>
      </trkpt>
      <trkpt lat="38.3292340" lon="-0.6935700">
        <ele>364.0</ele>
        <time>2018-03-05T14:32:56Z</time>
      </trkpt>
      <trkpt lat="38.3292370" lon="-0.6935840">
        <ele>364.0</ele>
        <time>2018-03-05T14:32:57Z</time>
      </trkpt>
      <trkpt lat="38.3292380" lon="-0.6935990">
        <ele>364.0</ele>
        <time>2018-03-05T14:32:58Z</time>
      </trkpt>
      <trkpt lat="38.3292380" lon="-0.6936140">
        <ele>364.0</ele>
        <time>2018-03-05T14:32:59Z</time>
      </trkpt>
      <trkpt lat="38.3292370" lon="-0.6936310">
        <ele>365.0</ele>
        <time>2018-03-05T14:33:00Z</time>
      </trkpt>
      <trkpt lat="38.3292370" lon="-0.6936460">
        <ele>365.0</ele>
        <time>2018-03-05T14:33:01Z</time>
      </trkpt>
      <trkpt lat="38.3292350" lon="-0.6936580">
        <ele>365.0</ele>
        <time>2018-03-05T14:33:02Z</time>
      </trkpt>
      <trkpt lat="38.3292330" lon="-0.6936730">
        <ele>365.0</ele>
        <time>2018-03-05T14:33:03Z</time>
      </trkpt>
      <trkpt lat="38.3292310" lon="-0.6936870">
        <ele>365.0</ele>
        <time>2018-03-05T14:33:04Z</time>
      </trkpt>
      <trkpt lat="38.3292280" lon="-0.6937040">
        <ele>365.0</ele>
        <time>2018-03-05T14:33:05Z</time>
      </trkpt>
      <trkpt lat="38.3292240" lon="-0.6937200">
        <ele>366.0</ele>
        <time>2018-03-05T14:33:06Z</time>
      </trkpt>
      <trkpt lat="38.3292230" lon="-0.6937370">
        <ele>366.0</ele>
        <time>2018-03-05T14:33:07Z</time>
      </trkpt>
      <trkpt lat="38.3292210" lon="-0.6937540">
        <ele>366.0</ele>
        <time>2018-03-05T14:33:08Z</time>
      </trkpt>
      <trkpt lat="38.3292180" lon="-0.6937700">
        <ele>366.0</ele>
        <time>2018-03-05T14:33:09Z</time>
      </trkpt>
      <trkpt lat="38.3292130" lon="-0.6937870">
        <ele>366.0</ele>
        <time>2018-03-05T14:33:10Z</time>
      </trkpt>
      <trkpt lat="38.3292090" lon="-0.6938060">
        <ele>366.0</ele>
        <time>2018-03-05T14:33:11Z</time>
      </trkpt>
      <trkpt lat="38.3292060" lon="-0.6938230">
        <ele>366.0</ele>
        <time>2018-03-05T14:33:12Z</time>
      </trkpt>
      <trkpt lat="38.3292050" lon="-0.6938410">
        <ele>367.0</ele>
        <time>2018-03-05T14:33:13Z</time>
      </trkpt>
      <trkpt lat="38.3292040" lon="-0.6938600">
        <ele>367.0</ele>
        <time>2018-03-05T14:33:14Z</time>
      </trkpt>
      <trkpt lat="38.3292040" lon="-0.6938790">
        <ele>367.0</ele>
        <time>2018-03-05T14:33:15Z</time>
      </trkpt>
      <trkpt lat="38.3291940" lon="-0.6938950">
        <ele>367.0</ele>
        <time>2018-03-05T14:33:16Z</time>
      </trkpt>
      <trkpt lat="38.3291880" lon="-0.6939150">
        <ele>367.0</ele>
        <time>2018-03-05T14:33:17Z</time>
      </trkpt>
      <trkpt lat="38.3291830" lon="-0.6939360">
        <ele>367.0</ele>
        <time>2018-03-05T14:33:18Z</time>
      </trkpt>
      <trkpt lat="38.3291770" lon="-0.6939600">
        <ele>367.0</ele>
        <time>2018-03-05T14:33:19Z</time>
      </trkpt>
      <trkpt lat="38.3291700" lon="-0.6939810">
        <ele>367.0</ele>
        <time>2018-03-05T14:33:20Z</time>
      </trkpt>
      <trkpt lat="38.3291640" lon="-0.6940040">
        <ele>368.0</ele>
        <time>2018-03-05T14:33:21Z</time>
      </trkpt>
      <trkpt lat="38.3291610" lon="-0.6940240">
        <ele>368.0</ele>
        <time>2018-03-05T14:33:22Z</time>
      </trkpt>
      <trkpt lat="38.3291550" lon="-0.6940430">
        <ele>368.0</ele>
        <time>2018-03-05T14:33:23Z</time>
      </trkpt>
      <trkpt lat="38.3291470" lon="-0.6940630">
        <ele>368.0</ele>
        <time>2018-03-05T14:33:24Z</time>
      </trkpt>
      <trkpt lat="38.3291410" lon="-0.6940820">
        <ele>368.0</ele>
        <time>2018-03-05T14:33:25Z</time>
      </trkpt>
      <trkpt lat="38.3291350" lon="-0.6941040">
        <ele>369.0</ele>
        <time>2018-03-05T14:33:26Z</time>
      </trkpt>
      <trkpt lat="38.3291290" lon="-0.6941280">
        <ele>369.0</ele>
        <time>2018-03-05T14:33:27Z</time>
      </trkpt>
      <trkpt lat="38.3291230" lon="-0.6941500">
        <ele>369.0</ele>
        <time>2018-03-05T14:33:28Z</time>
      </trkpt>
      <trkpt lat="38.3291180" lon="-0.6941710">
        <ele>369.0</ele>
        <time>2018-03-05T14:33:29Z</time>
      </trkpt>
      <trkpt lat="38.3291110" lon="-0.6941920">
        <ele>370.0</ele>
        <time>2018-03-05T14:33:30Z</time>
      </trkpt>
      <trkpt lat="38.3291040" lon="-0.6942130">
        <ele>370.0</ele>
        <time>2018-03-05T14:33:31Z</time>
      </trkpt>
      <trkpt lat="38.3290980" lon="-0.6942360">
        <ele>370.0</ele>
        <time>2018-03-05T14:33:32Z</time>
      </trkpt>
      <trkpt lat="38.3290950" lon="-0.6942540">
        <ele>371.0</ele>
        <time>2018-03-05T14:33:33Z</time>
      </trkpt>
      <trkpt lat="38.3290930" lon="-0.6942720">
        <ele>371.0</ele>
        <time>2018-03-05T14:33:34Z</time>
      </trkpt>
      <trkpt lat="38.3290890" lon="-0.6942900">
        <ele>371.0</ele>
        <time>2018-03-05T14:33:35Z</time>
      </trkpt>
      <trkpt lat="38.3290840" lon="-0.6943110">
        <ele>371.0</ele>
        <time>2018-03-05T14:33:36Z</time>
      </trkpt>
      <trkpt lat="38.3290760" lon="-0.6943380">
        <ele>370.0</ele>
        <time>2018-03-05T14:33:37Z</time>
      </trkpt>
      <trkpt lat="38.3290690" lon="-0.6943650">
        <ele>370.0</ele>
        <time>2018-03-05T14:33:38Z</time>
      </trkpt>
      <trkpt lat="38.3290600" lon="-0.6943920">
        <ele>370.0</ele>
        <time>2018-03-05T14:33:39Z</time>
      </trkpt>
      <trkpt lat="38.3290520" lon="-0.6944250">
        <ele>371.0</ele>
        <time>2018-03-05T14:33:40Z</time>
      </trkpt>
      <trkpt lat="38.3290420" lon="-0.6944610">
        <ele>371.0</ele>
        <time>2018-03-05T14:33:41Z</time>
      </trkpt>
      <trkpt lat="38.3290320" lon="-0.6944930">
        <ele>371.0</ele>
        <time>2018-03-05T14:33:42Z</time>
      </trkpt>
      <trkpt lat="38.3290200" lon="-0.6945270">
        <ele>371.0</ele>
        <time>2018-03-05T14:33:43Z</time>
      </trkpt>
      <trkpt lat="38.3290080" lon="-0.6945630">
        <ele>372.0</ele>
        <time>2018-03-05T14:33:44Z</time>
      </trkpt>
      <trkpt lat="38.3289970" lon="-0.6945970">
        <ele>372.0</ele>
        <time>2018-03-05T14:33:45Z</time>
      </trkpt>
      <trkpt lat="38.3289870" lon="-0.6946330">
        <ele>372.0</ele>
        <time>2018-03-05T14:33:46Z</time>
      </trkpt>
      <trkpt lat="38.3289760" lon="-0.6946690">
        <ele>372.0</ele>
        <time>2018-03-05T14:33:47Z</time>
      </trkpt>
      <trkpt lat="38.3289630" lon="-0.6947080">
        <ele>372.0</ele>
        <time>2018-03-05T14:33:48Z</time>
      </trkpt>
      <trkpt lat="38.3289500" lon="-0.6947540">
        <ele>372.0</ele>
        <time>2018-03-05T14:33:49Z</time>
      </trkpt>
      <trkpt lat="38.3289350" lon="-0.6947990">
        <ele>371.0</ele>
        <time>2018-03-05T14:33:50Z</time>
      </trkpt>
      <trkpt lat="38.3289220" lon="-0.6948540">
        <ele>371.0</ele>
        <time>2018-03-05T14:33:51Z</time>
      </trkpt>
      <trkpt lat="38.3289090" lon="-0.6949080">
        <ele>371.0</ele>
        <time>2018-03-05T14:33:52Z</time>
      </trkpt>
      <trkpt lat="38.3288970" lon="-0.6949620">
        <ele>371.0</ele>
        <time>2018-03-05T14:33:53Z</time>
      </trkpt>
      <trkpt lat="38.3288800" lon="-0.6950210">
        <ele>371.0</ele>
        <time>2018-03-05T14:33:54Z</time>
      </trkpt>
      <trkpt lat="38.3288560" lon="-0.6950800">
        <ele>370.0</ele>
        <time>2018-03-05T14:33:55Z</time>
      </trkpt>
      <trkpt lat="38.3288250" lon="-0.6951460">
        <ele>370.0</ele>
        <time>2018-03-05T14:33:56Z</time>
      </trkpt>
      <trkpt lat="38.3287890" lon="-0.6952040">
        <ele>369.0</ele>
        <time>2018-03-05T14:33:57Z</time>
      </trkpt>
      <trkpt lat="38.3287470" lon="-0.6952640">
        <ele>369.0</ele>
        <time>2018-03-05T14:33:58Z</time>
      </trkpt>
      <trkpt lat="38.3286960" lon="-0.6953310">
        <ele>368.0</ele>
        <time>2018-03-05T14:33:59Z</time>
      </trkpt>
      <trkpt lat="38.3286420" lon="-0.6954130">
        <ele>368.0</ele>
        <time>2018-03-05T14:34:00Z</time>
      </trkpt>
      <trkpt lat="38.3285920" lon="-0.6954880">
        <ele>368.0</ele>
        <time>2018-03-05T14:34:01Z</time>
      </trkpt>
      <trkpt lat="38.3285520" lon="-0.6955640">
        <ele>369.0</ele>
        <time>2018-03-05T14:34:02Z</time>
      </trkpt>
      <trkpt lat="38.3285170" lon="-0.6956360">
        <ele>370.0</ele>
        <time>2018-03-05T14:34:03Z</time>
      </trkpt>
      <trkpt lat="38.3284910" lon="-0.6957020">
        <ele>370.0</ele>
        <time>2018-03-05T14:34:04Z</time>
      </trkpt>
      <trkpt lat="38.3284660" lon="-0.6957630">
        <ele>371.0</ele>
        <time>2018-03-05T14:34:05Z</time>
      </trkpt>
      <trkpt lat="38.3284460" lon="-0.6958130">
        <ele>371.0</ele>
        <time>2018-03-05T14:34:06Z</time>
      </trkpt>
      <trkpt lat="38.3284450" lon="-0.6958310">
        <ele>371.0</ele>
        <time>2018-03-05T14:34:07Z</time>
      </trkpt>
      <trkpt lat="38.3284450" lon="-0.6958430">
        <ele>371.0</ele>
        <time>2018-03-05T14:34:08Z</time>
      </trkpt>
      <trkpt lat="38.3284400" lon="-0.6958610">
        <ele>371.0</ele>
        <time>2018-03-05T14:34:09Z</time>
      </trkpt>
      <trkpt lat="38.3284360" lon="-0.6958770">
        <ele>371.0</ele>
        <time>2018-03-05T14:34:10Z</time>
      </trkpt>
      <trkpt lat="38.3284300" lon="-0.6958950">
        <ele>372.0</ele>
        <time>2018-03-05T14:34:11Z</time>
      </trkpt>
      <trkpt lat="38.3284240" lon="-0.6959160">
        <ele>372.0</ele>
        <time>2018-03-05T14:34:12Z</time>
      </trkpt>
      <trkpt lat="38.3284180" lon="-0.6959350">
        <ele>373.0</ele>
        <time>2018-03-05T14:34:13Z</time>
      </trkpt>
      <trkpt lat="38.3284120" lon="-0.6959560">
        <ele>373.0</ele>
        <time>2018-03-05T14:34:14Z</time>
      </trkpt>
      <trkpt lat="38.3284060" lon="-0.6959770">
        <ele>374.0</ele>
        <time>2018-03-05T14:34:15Z</time>
      </trkpt>
      <trkpt lat="38.3284010" lon="-0.6959940">
        <ele>374.0</ele>
        <time>2018-03-05T14:34:16Z</time>
      </trkpt>
      <trkpt lat="38.3283950" lon="-0.6960100">
        <ele>374.0</ele>
        <time>2018-03-05T14:34:17Z</time>
      </trkpt>
      <trkpt lat="38.3283890" lon="-0.6960280">
        <ele>374.0</ele>
        <time>2018-03-05T14:34:18Z</time>
      </trkpt>
      <trkpt lat="38.3283820" lon="-0.6960480">
        <ele>375.0</ele>
        <time>2018-03-05T14:34:19Z</time>
      </trkpt>
      <trkpt lat="38.3283770" lon="-0.6960730">
        <ele>375.0</ele>
        <time>2018-03-05T14:34:20Z</time>
      </trkpt>
      <trkpt lat="38.3283750" lon="-0.6960940">
        <ele>376.0</ele>
        <time>2018-03-05T14:34:21Z</time>
      </trkpt>
      <trkpt lat="38.3283710" lon="-0.6961150">
        <ele>376.0</ele>
        <time>2018-03-05T14:34:22Z</time>
      </trkpt>
      <trkpt lat="38.3283660" lon="-0.6961370">
        <ele>376.0</ele>
        <time>2018-03-05T14:34:23Z</time>
      </trkpt>
      <trkpt lat="38.3283610" lon="-0.6961570">
        <ele>376.0</ele>
        <time>2018-03-05T14:34:24Z</time>
      </trkpt>
      <trkpt lat="38.3283600" lon="-0.6961770">
        <ele>376.0</ele>
        <time>2018-03-05T14:34:25Z</time>
      </trkpt>
      <trkpt lat="38.3283580" lon="-0.6961990">
        <ele>376.0</ele>
        <time>2018-03-05T14:34:26Z</time>
      </trkpt>
      <trkpt lat="38.3283600" lon="-0.6962200">
        <ele>376.0</ele>
        <time>2018-03-05T14:34:27Z</time>
      </trkpt>
      <trkpt lat="38.3283620" lon="-0.6962390">
        <ele>376.0</ele>
        <time>2018-03-05T14:34:28Z</time>
      </trkpt>
      <trkpt lat="38.3283670" lon="-0.6962580">
        <ele>376.0</ele>
        <time>2018-03-05T14:34:29Z</time>
      </trkpt>
      <trkpt lat="38.3283690" lon="-0.6962790">
        <ele>376.0</ele>
        <time>2018-03-05T14:34:30Z</time>
      </trkpt>
      <trkpt lat="38.3283720" lon="-0.6963020">
        <ele>376.0</ele>
        <time>2018-03-05T14:34:31Z</time>
      </trkpt>
      <trkpt lat="38.3283780" lon="-0.6963270">
        <ele>376.0</ele>
        <time>2018-03-05T14:34:32Z</time>
      </trkpt>
      <trkpt lat="38.3283850" lon="-0.6963520">
        <ele>376.0</ele>
        <time>2018-03-05T14:34:33Z</time>
      </trkpt>
      <trkpt lat="38.3283880" lon="-0.6963780">
        <ele>376.0</ele>
        <time>2018-03-05T14:34:34Z</time>
      </trkpt>
      <trkpt lat="38.3283930" lon="-0.6964060">
        <ele>376.0</ele>
        <time>2018-03-05T14:34:35Z</time>
      </trkpt>
      <trkpt lat="38.3283980" lon="-0.6964370">
        <ele>376.0</ele>
        <time>2018-03-05T14:34:36Z</time>
      </trkpt>
      <trkpt lat="38.3284030" lon="-0.6964720">
        <ele>376.0</ele>
        <time>2018-03-05T14:34:37Z</time>
      </trkpt>
      <trkpt lat="38.3284080" lon="-0.6965130">
        <ele>376.0</ele>
        <time>2018-03-05T14:34:38Z</time>
      </trkpt>
      <trkpt lat="38.3284100" lon="-0.6965580">
        <ele>375.0</ele>
        <time>2018-03-05T14:34:39Z</time>
      </trkpt>
      <trkpt lat="38.3284080" lon="-0.6966050">
        <ele>375.0</ele>
        <time>2018-03-05T14:34:40Z</time>
      </trkpt>
      <trkpt lat="38.3284050" lon="-0.6966540">
        <ele>375.0</ele>
        <time>2018-03-05T14:34:41Z</time>
      </trkpt>
      <trkpt lat="38.3284040" lon="-0.6967100">
        <ele>375.0</ele>
        <time>2018-03-05T14:34:42Z</time>
      </trkpt>
      <trkpt lat="38.3284030" lon="-0.6967700">
        <ele>375.0</ele>
        <time>2018-03-05T14:34:43Z</time>
      </trkpt>
      <trkpt lat="38.3284030" lon="-0.6968340">
        <ele>375.0</ele>
        <time>2018-03-05T14:34:44Z</time>
      </trkpt>
      <trkpt lat="38.3284040" lon="-0.6969020">
        <ele>375.0</ele>
        <time>2018-03-05T14:34:45Z</time>
      </trkpt>
      <trkpt lat="38.3284050" lon="-0.6969740">
        <ele>375.0</ele>
        <time>2018-03-05T14:34:46Z</time>
      </trkpt>
      <trkpt lat="38.3284070" lon="-0.6970550">
        <ele>374.0</ele>
        <time>2018-03-05T14:34:47Z</time>
      </trkpt>
      <trkpt lat="38.3284130" lon="-0.6971390">
        <ele>373.0</ele>
        <time>2018-03-05T14:34:48Z</time>
      </trkpt>
      <trkpt lat="38.3284230" lon="-0.6972200">
        <ele>373.0</ele>
        <time>2018-03-05T14:34:49Z</time>
      </trkpt>
      <trkpt lat="38.3284350" lon="-0.6973020">
        <ele>373.0</ele>
        <time>2018-03-05T14:34:50Z</time>
      </trkpt>
      <trkpt lat="38.3284400" lon="-0.6973830">
        <ele>372.0</ele>
        <time>2018-03-05T14:34:51Z</time>
      </trkpt>
      <trkpt lat="38.3284450" lon="-0.6974620">
        <ele>372.0</ele>
        <time>2018-03-05T14:34:52Z</time>
      </trkpt>
      <trkpt lat="38.3284550" lon="-0.6975350">
        <ele>372.0</ele>
        <time>2018-03-05T14:34:53Z</time>
      </trkpt>
      <trkpt lat="38.3284670" lon="-0.6976060">
        <ele>372.0</ele>
        <time>2018-03-05T14:34:54Z</time>
      </trkpt>
      <trkpt lat="38.3284720" lon="-0.6976750">
        <ele>372.0</ele>
        <time>2018-03-05T14:34:55Z</time>
      </trkpt>
      <trkpt lat="38.3284760" lon="-0.6977320">
        <ele>373.0</ele>
        <time>2018-03-05T14:34:56Z</time>
      </trkpt>
      <trkpt lat="38.3284810" lon="-0.6977730">
        <ele>373.0</ele>
        <time>2018-03-05T14:34:57Z</time>
      </trkpt>
      <trkpt lat="38.3284830" lon="-0.6978030">
        <ele>374.0</ele>
        <time>2018-03-05T14:34:58Z</time>
      </trkpt>
      <trkpt lat="38.3284870" lon="-0.6978270">
        <ele>375.0</ele>
        <time>2018-03-05T14:34:59Z</time>
      </trkpt>
      <trkpt lat="38.3284890" lon="-0.6978500">
        <ele>375.0</ele>
        <time>2018-03-05T14:35:00Z</time>
      </trkpt>
      <trkpt lat="38.3284940" lon="-0.6978720">
        <ele>375.0</ele>
        <time>2018-03-05T14:35:01Z</time>
      </trkpt>
      <trkpt lat="38.3284970" lon="-0.6978940">
        <ele>376.0</ele>
        <time>2018-03-05T14:35:02Z</time>
      </trkpt>
      <trkpt lat="38.3285010" lon="-0.6979180">
        <ele>376.0</ele>
        <time>2018-03-05T14:35:03Z</time>
      </trkpt>
      <trkpt lat="38.3285040" lon="-0.6979380">
        <ele>376.0</ele>
        <time>2018-03-05T14:35:04Z</time>
      </trkpt>
      <trkpt lat="38.3285080" lon="-0.6979590">
        <ele>377.0</ele>
        <time>2018-03-05T14:35:05Z</time>
      </trkpt>
      <trkpt lat="38.3285110" lon="-0.6979810">
        <ele>377.0</ele>
        <time>2018-03-05T14:35:06Z</time>
      </trkpt>
      <trkpt lat="38.3285170" lon="-0.6980000">
        <ele>377.0</ele>
        <time>2018-03-05T14:35:07Z</time>
      </trkpt>
      <trkpt lat="38.3285180" lon="-0.6980190">
        <ele>377.0</ele>
        <time>2018-03-05T14:35:08Z</time>
      </trkpt>
      <trkpt lat="38.3285200" lon="-0.6980370">
        <ele>378.0</ele>
        <time>2018-03-05T14:35:09Z</time>
      </trkpt>
      <trkpt lat="38.3285220" lon="-0.6980560">
        <ele>378.0</ele>
        <time>2018-03-05T14:35:10Z</time>
      </trkpt>
      <trkpt lat="38.3285250" lon="-0.6980770">
        <ele>378.0</ele>
        <time>2018-03-05T14:35:11Z</time>
      </trkpt>
      <trkpt lat="38.3285280" lon="-0.6980970">
        <ele>379.0</ele>
        <time>2018-03-05T14:35:12Z</time>
      </trkpt>
      <trkpt lat="38.3285270" lon="-0.6981190">
        <ele>379.0</ele>
        <time>2018-03-05T14:35:13Z</time>
      </trkpt>
      <trkpt lat="38.3285220" lon="-0.6981380">
        <ele>379.0</ele>
        <time>2018-03-05T14:35:14Z</time>
      </trkpt>
      <trkpt lat="38.3285180" lon="-0.6981580">
        <ele>380.0</ele>
        <time>2018-03-05T14:35:15Z</time>
      </trkpt>
      <trkpt lat="38.3285140" lon="-0.6981770">
        <ele>380.0</ele>
        <time>2018-03-05T14:35:16Z</time>
      </trkpt>
      <trkpt lat="38.3285110" lon="-0.6981930">
        <ele>381.0</ele>
        <time>2018-03-05T14:35:17Z</time>
      </trkpt>
      <trkpt lat="38.3285070" lon="-0.6982130">
        <ele>381.0</ele>
        <time>2018-03-05T14:35:18Z</time>
      </trkpt>
      <trkpt lat="38.3285030" lon="-0.6982340">
        <ele>381.0</ele>
        <time>2018-03-05T14:35:19Z</time>
      </trkpt>
      <trkpt lat="38.3284960" lon="-0.6982550">
        <ele>382.0</ele>
        <time>2018-03-05T14:35:20Z</time>
      </trkpt>
      <trkpt lat="38.3284950" lon="-0.6982670">
        <ele>382.0</ele>
        <time>2018-03-05T14:35:21Z</time>
      </trkpt>
      <trkpt lat="38.3284940" lon="-0.6982840">
        <ele>383.0</ele>
        <time>2018-03-05T14:35:22Z</time>
      </trkpt>
      <trkpt lat="38.3284920" lon="-0.6983020">
        <ele>383.0</ele>
        <time>2018-03-05T14:35:23Z</time>
      </trkpt>
      <trkpt lat="38.3284900" lon="-0.6983180">
        <ele>383.0</ele>
        <time>2018-03-05T14:35:24Z</time>
      </trkpt>
      <trkpt lat="38.3284890" lon="-0.6983360">
        <ele>383.0</ele>
        <time>2018-03-05T14:35:25Z</time>
      </trkpt>
      <trkpt lat="38.3284870" lon="-0.6983490">
        <ele>383.0</ele>
        <time>2018-03-05T14:35:26Z</time>
      </trkpt>
      <trkpt lat="38.3284860" lon="-0.6983650">
        <ele>384.0</ele>
        <time>2018-03-05T14:35:27Z</time>
      </trkpt>
      <trkpt lat="38.3284840" lon="-0.6983820">
        <ele>384.0</ele>
        <time>2018-03-05T14:35:28Z</time>
      </trkpt>
      <trkpt lat="38.3284820" lon="-0.6984010">
        <ele>385.0</ele>
        <time>2018-03-05T14:35:29Z</time>
      </trkpt>
      <trkpt lat="38.3284800" lon="-0.6984220">
        <ele>385.0</ele>
        <time>2018-03-05T14:35:30Z</time>
      </trkpt>
      <trkpt lat="38.3284770" lon="-0.6984430">
        <ele>386.0</ele>
        <time>2018-03-05T14:35:31Z</time>
      </trkpt>
      <trkpt lat="38.3284730" lon="-0.6984630">
        <ele>386.0</ele>
        <time>2018-03-05T14:35:32Z</time>
      </trkpt>
      <trkpt lat="38.3284660" lon="-0.6984830">
        <ele>387.0</ele>
        <time>2018-03-05T14:35:33Z</time>
      </trkpt>
      <trkpt lat="38.3284600" lon="-0.6985010">
        <ele>387.0</ele>
        <time>2018-03-05T14:35:34Z</time>
      </trkpt>
      <trkpt lat="38.3284570" lon="-0.6985150">
        <ele>388.0</ele>
        <time>2018-03-05T14:35:35Z</time>
      </trkpt>
      <trkpt lat="38.3284510" lon="-0.6985300">
        <ele>388.0</ele>
        <time>2018-03-05T14:35:36Z</time>
      </trkpt>
      <trkpt lat="38.3284460" lon="-0.6985470">
        <ele>388.0</ele>
        <time>2018-03-05T14:35:37Z</time>
      </trkpt>
      <trkpt lat="38.3284390" lon="-0.6985590">
        <ele>388.0</ele>
        <time>2018-03-05T14:35:38Z</time>
      </trkpt>
      <trkpt lat="38.3284310" lon="-0.6985730">
        <ele>388.0</ele>
        <time>2018-03-05T14:35:39Z</time>
      </trkpt>
      <trkpt lat="38.3284250" lon="-0.6985890">
        <ele>388.0</ele>
        <time>2018-03-05T14:35:40Z</time>
      </trkpt>
      <trkpt lat="38.3284170" lon="-0.6986040">
        <ele>388.0</ele>
        <time>2018-03-05T14:35:41Z</time>
      </trkpt>
      <trkpt lat="38.3284110" lon="-0.6986200">
        <ele>388.0</ele>
        <time>2018-03-05T14:35:42Z</time>
      </trkpt>
      <trkpt lat="38.3284010" lon="-0.6986370">
        <ele>388.0</ele>
        <time>2018-03-05T14:35:43Z</time>
      </trkpt>
      <trkpt lat="38.3283910" lon="-0.6986530">
        <ele>388.0</ele>
        <time>2018-03-05T14:35:44Z</time>
      </trkpt>
      <trkpt lat="38.3283830" lon="-0.6986690">
        <ele>388.0</ele>
        <time>2018-03-05T14:35:45Z</time>
      </trkpt>
      <trkpt lat="38.3283740" lon="-0.6986870">
        <ele>388.0</ele>
        <time>2018-03-05T14:35:46Z</time>
      </trkpt>
      <trkpt lat="38.3283630" lon="-0.6987070">
        <ele>388.0</ele>
        <time>2018-03-05T14:35:47Z</time>
      </trkpt>
      <trkpt lat="38.3283490" lon="-0.6987300">
        <ele>388.0</ele>
        <time>2018-03-05T14:35:48Z</time>
      </trkpt>
      <trkpt lat="38.3283340" lon="-0.6987520">
        <ele>388.0</ele>
        <time>2018-03-05T14:35:49Z</time>
      </trkpt>
      <trkpt lat="38.3283120" lon="-0.6987650">
        <ele>388.0</ele>
        <time>2018-03-05T14:35:50Z</time>
      </trkpt>
      <trkpt lat="38.3282900" lon="-0.6987630">
        <ele>388.0</ele>
        <time>2018-03-05T14:35:51Z</time>
      </trkpt>
      <trkpt lat="38.3282640" lon="-0.6987550">
        <ele>387.0</ele>
        <time>2018-03-05T14:35:52Z</time>
      </trkpt>
      <trkpt lat="38.3282350" lon="-0.6987470">
        <ele>387.0</ele>
        <time>2018-03-05T14:35:53Z</time>
      </trkpt>
      <trkpt lat="38.3281990" lon="-0.6987390">
        <ele>387.0</ele>
        <time>2018-03-05T14:35:54Z</time>
      </trkpt>
      <trkpt lat="38.3281560" lon="-0.6987210">
        <ele>386.0</ele>
        <time>2018-03-05T14:35:55Z</time>
      </trkpt>
      <trkpt lat="38.3281160" lon="-0.6987020">
        <ele>385.0</ele>
        <time>2018-03-05T14:35:56Z</time>
      </trkpt>
      <trkpt lat="38.3280770" lon="-0.6986800">
        <ele>385.0</ele>
        <time>2018-03-05T14:35:57Z</time>
      </trkpt>
      <trkpt lat="38.3280480" lon="-0.6986600">
        <ele>385.0</ele>
        <time>2018-03-05T14:35:58Z</time>
      </trkpt>
      <trkpt lat="38.3280220" lon="-0.6986550">
        <ele>384.0</ele>
        <time>2018-03-05T14:35:59Z</time>
      </trkpt>
      <trkpt lat="38.3279920" lon="-0.6986570">
        <ele>384.0</ele>
        <time>2018-03-05T14:36:00Z</time>
      </trkpt>
      <trkpt lat="38.3279670" lon="-0.6986740">
        <ele>384.0</ele>
        <time>2018-03-05T14:36:01Z</time>
      </trkpt>
      <trkpt lat="38.3279470" lon="-0.6986920">
        <ele>384.0</ele>
        <time>2018-03-05T14:36:02Z</time>
      </trkpt>
      <trkpt lat="38.3279300" lon="-0.6987170">
        <ele>385.0</ele>
        <time>2018-03-05T14:36:03Z</time>
      </trkpt>
      <trkpt lat="38.3279160" lon="-0.6987390">
        <ele>385.0</ele>
        <time>2018-03-05T14:36:04Z</time>
      </trkpt>
      <trkpt lat="38.3279010" lon="-0.6987620">
        <ele>385.0</ele>
        <time>2018-03-05T14:36:05Z</time>
      </trkpt>
      <trkpt lat="38.3278880" lon="-0.6987870">
        <ele>385.0</ele>
        <time>2018-03-05T14:36:06Z</time>
      </trkpt>
      <trkpt lat="38.3278780" lon="-0.6988140">
        <ele>385.0</ele>
        <time>2018-03-05T14:36:07Z</time>
      </trkpt>
      <trkpt lat="38.3278610" lon="-0.6988370">
        <ele>386.0</ele>
        <time>2018-03-05T14:36:08Z</time>
      </trkpt>
      <trkpt lat="38.3278430" lon="-0.6988610">
        <ele>386.0</ele>
        <time>2018-03-05T14:36:09Z</time>
      </trkpt>
      <trkpt lat="38.3278240" lon="-0.6988870">
        <ele>386.0</ele>
        <time>2018-03-05T14:36:10Z</time>
      </trkpt>
      <trkpt lat="38.3278050" lon="-0.6989120">
        <ele>387.0</ele>
        <time>2018-03-05T14:36:11Z</time>
      </trkpt>
      <trkpt lat="38.3277870" lon="-0.6989350">
        <ele>387.0</ele>
        <time>2018-03-05T14:36:12Z</time>
      </trkpt>
      <trkpt lat="38.3277680" lon="-0.6989560">
        <ele>387.0</ele>
        <time>2018-03-05T14:36:13Z</time>
      </trkpt>
      <trkpt lat="38.3277490" lon="-0.6989790">
        <ele>388.0</ele>
        <time>2018-03-05T14:36:14Z</time>
      </trkpt>
      <trkpt lat="38.3277290" lon="-0.6990050">
        <ele>388.0</ele>
        <time>2018-03-05T14:36:15Z</time>
      </trkpt>
      <trkpt lat="38.3277070" lon="-0.6990290">
        <ele>388.0</ele>
        <time>2018-03-05T14:36:16Z</time>
      </trkpt>
      <trkpt lat="38.3276820" lon="-0.6990520">
        <ele>388.0</ele>
        <time>2018-03-05T14:36:17Z</time>
      </trkpt>
      <trkpt lat="38.3276560" lon="-0.6990730">
        <ele>388.0</ele>
        <time>2018-03-05T14:36:18Z</time>
      </trkpt>
      <trkpt lat="38.3276300" lon="-0.6990960">
        <ele>388.0</ele>
        <time>2018-03-05T14:36:19Z</time>
      </trkpt>
      <trkpt lat="38.3276010" lon="-0.6991130">
        <ele>388.0</ele>
        <time>2018-03-05T14:36:20Z</time>
      </trkpt>
      <trkpt lat="38.3275730" lon="-0.6991260">
        <ele>388.0</ele>
        <time>2018-03-05T14:36:21Z</time>
      </trkpt>
      <trkpt lat="38.3275420" lon="-0.6991360">
        <ele>388.0</ele>
        <time>2018-03-05T14:36:22Z</time>
      </trkpt>
      <trkpt lat="38.3275110" lon="-0.6991430">
        <ele>388.0</ele>
        <time>2018-03-05T14:36:23Z</time>
      </trkpt>
      <trkpt lat="38.3274800" lon="-0.6991460">
        <ele>388.0</ele>
        <time>2018-03-05T14:36:24Z</time>
      </trkpt>
      <trkpt lat="38.3274500" lon="-0.6991510">
        <ele>388.0</ele>
        <time>2018-03-05T14:36:25Z</time>
      </trkpt>
      <trkpt lat="38.3274230" lon="-0.6991560">
        <ele>389.0</ele>
        <time>2018-03-05T14:36:26Z</time>
      </trkpt>
      <trkpt lat="38.3273970" lon="-0.6991590">
        <ele>389.0</ele>
        <time>2018-03-05T14:36:27Z</time>
      </trkpt>
      <trkpt lat="38.3273720" lon="-0.6991620">
        <ele>389.0</ele>
        <time>2018-03-05T14:36:28Z</time>
      </trkpt>
      <trkpt lat="38.3273490" lon="-0.6991630">
        <ele>389.0</ele>
        <time>2018-03-05T14:36:29Z</time>
      </trkpt>
      <trkpt lat="38.3273220" lon="-0.6991640">
        <ele>389.0</ele>
        <time>2018-03-05T14:36:30Z</time>
      </trkpt>
      <trkpt lat="38.3272950" lon="-0.6991640">
        <ele>389.0</ele>
        <time>2018-03-05T14:36:31Z</time>
      </trkpt>
      <trkpt lat="38.3272680" lon="-0.6991670">
        <ele>390.0</ele>
        <time>2018-03-05T14:36:32Z</time>
      </trkpt>
      <trkpt lat="38.3272410" lon="-0.6991680">
        <ele>390.0</ele>
        <time>2018-03-05T14:36:33Z</time>
      </trkpt>
      <trkpt lat="38.3272130" lon="-0.6991740">
        <ele>390.0</ele>
        <time>2018-03-05T14:36:34Z</time>
      </trkpt>
      <trkpt lat="38.3271850" lon="-0.6991770">
        <ele>391.0</ele>
        <time>2018-03-05T14:36:35Z</time>
      </trkpt>
      <trkpt lat="38.3271580" lon="-0.6991810">
        <ele>391.0</ele>
        <time>2018-03-05T14:36:36Z</time>
      </trkpt>
      <trkpt lat="38.3271310" lon="-0.6991840">
        <ele>391.0</ele>
        <time>2018-03-05T14:36:37Z</time>
      </trkpt>
      <trkpt lat="38.3271060" lon="-0.6991860">
        <ele>392.0</ele>
        <time>2018-03-05T14:36:38Z</time>
      </trkpt>
      <trkpt lat="38.3270820" lon="-0.6991910">
        <ele>392.0</ele>
        <time>2018-03-05T14:36:39Z</time>
      </trkpt>
      <trkpt lat="38.3270600" lon="-0.6991940">
        <ele>392.0</ele>
        <time>2018-03-05T14:36:40Z</time>
      </trkpt>
      <trkpt lat="38.3270360" lon="-0.6991970">
        <ele>392.0</ele>
        <time>2018-03-05T14:36:41Z</time>
      </trkpt>
      <trkpt lat="38.3270130" lon="-0.6992000">
        <ele>392.0</ele>
        <time>2018-03-05T14:36:42Z</time>
      </trkpt>
      <trkpt lat="38.3269890" lon="-0.6992030">
        <ele>393.0</ele>
        <time>2018-03-05T14:36:43Z</time>
      </trkpt>
      <trkpt lat="38.3269650" lon="-0.6992050">
        <ele>393.0</ele>
        <time>2018-03-05T14:36:44Z</time>
      </trkpt>
      <trkpt lat="38.3269410" lon="-0.6992080">
        <ele>393.0</ele>
        <time>2018-03-05T14:36:45Z</time>
      </trkpt>
      <trkpt lat="38.3269200" lon="-0.6992110">
        <ele>393.0</ele>
        <time>2018-03-05T14:36:46Z</time>
      </trkpt>
      <trkpt lat="38.3269000" lon="-0.6992160">
        <ele>393.0</ele>
        <time>2018-03-05T14:36:47Z</time>
      </trkpt>
      <trkpt lat="38.3268800" lon="-0.6992220">
        <ele>394.0</ele>
        <time>2018-03-05T14:36:48Z</time>
      </trkpt>
      <trkpt lat="38.3268620" lon="-0.6992320">
        <ele>394.0</ele>
        <time>2018-03-05T14:36:49Z</time>
      </trkpt>
      <trkpt lat="38.3268440" lon="-0.6992430">
        <ele>394.0</ele>
        <time>2018-03-05T14:36:50Z</time>
      </trkpt>
      <trkpt lat="38.3268280" lon="-0.6992580">
        <ele>394.0</ele>
        <time>2018-03-05T14:36:51Z</time>
      </trkpt>
      <trkpt lat="38.3268110" lon="-0.6992700">
        <ele>395.0</ele>
        <time>2018-03-05T14:36:52Z</time>
      </trkpt>
      <trkpt lat="38.3267950" lon="-0.6992860">
        <ele>395.0</ele>
        <time>2018-03-05T14:36:53Z</time>
      </trkpt>
      <trkpt lat="38.3267830" lon="-0.6993050">
        <ele>395.0</ele>
        <time>2018-03-05T14:36:54Z</time>
      </trkpt>
      <trkpt lat="38.3267740" lon="-0.6993240">
        <ele>395.0</ele>
        <time>2018-03-05T14:36:55Z</time>
      </trkpt>
      <trkpt lat="38.3267690" lon="-0.6993440">
        <ele>395.0</ele>
        <time>2018-03-05T14:36:56Z</time>
      </trkpt>
      <trkpt lat="38.3267720" lon="-0.6993610">
        <ele>395.0</ele>
        <time>2018-03-05T14:36:57Z</time>
      </trkpt>
      <trkpt lat="38.3267780" lon="-0.6993810">
        <ele>395.0</ele>
        <time>2018-03-05T14:36:58Z</time>
      </trkpt>
      <trkpt lat="38.3267870" lon="-0.6994010">
        <ele>395.0</ele>
        <time>2018-03-05T14:36:59Z</time>
      </trkpt>
      <trkpt lat="38.3268000" lon="-0.6994170">
        <ele>395.0</ele>
        <time>2018-03-05T14:37:00Z</time>
      </trkpt>
      <trkpt lat="38.3268160" lon="-0.6994340">
        <ele>396.0</ele>
        <time>2018-03-05T14:37:01Z</time>
      </trkpt>
      <trkpt lat="38.3268300" lon="-0.6994490">
        <ele>396.0</ele>
        <time>2018-03-05T14:37:02Z</time>
      </trkpt>
      <trkpt lat="38.3268440" lon="-0.6994650">
        <ele>396.0</ele>
        <time>2018-03-05T14:37:03Z</time>
      </trkpt>
      <trkpt lat="38.3268580" lon="-0.6994790">
        <ele>396.0</ele>
        <time>2018-03-05T14:37:04Z</time>
      </trkpt>
      <trkpt lat="38.3268710" lon="-0.6994900">
        <ele>397.0</ele>
        <time>2018-03-05T14:37:05Z</time>
      </trkpt>
      <trkpt lat="38.3268870" lon="-0.6994980">
        <ele>397.0</ele>
        <time>2018-03-05T14:37:06Z</time>
      </trkpt>
      <trkpt lat="38.3269020" lon="-0.6995060">
        <ele>397.0</ele>
        <time>2018-03-05T14:37:07Z</time>
      </trkpt>
      <trkpt lat="38.3269110" lon="-0.6995180">
        <ele>397.0</ele>
        <time>2018-03-05T14:37:08Z</time>
      </trkpt>
      <trkpt lat="38.3269030" lon="-0.6995270">
        <ele>397.0</ele>
        <time>2018-03-05T14:37:09Z</time>
      </trkpt>
      <trkpt lat="38.3268920" lon="-0.6995310">
        <ele>396.0</ele>
        <time>2018-03-05T14:37:10Z</time>
      </trkpt>
      <trkpt lat="38.3268810" lon="-0.6995190">
        <ele>396.0</ele>
        <time>2018-03-05T14:37:11Z</time>
      </trkpt>
      <trkpt lat="38.3268680" lon="-0.6995050">
        <ele>395.0</ele>
        <time>2018-03-05T14:37:12Z</time>
      </trkpt>
      <trkpt lat="38.3268400" lon="-0.6994730">
        <ele>394.0</ele>
        <time>2018-03-05T14:37:13Z</time>
      </trkpt>
      <trkpt lat="38.3268110" lon="-0.6994310">
        <ele>394.0</ele>
        <time>2018-03-05T14:37:14Z</time>
      </trkpt>
      <trkpt lat="38.3267880" lon="-0.6993780">
        <ele>394.0</ele>
        <time>2018-03-05T14:37:15Z</time>
      </trkpt>
      <trkpt lat="38.3267850" lon="-0.6993300">
        <ele>393.0</ele>
        <time>2018-03-05T14:37:16Z</time>
      </trkpt>
      <trkpt lat="38.3267990" lon="-0.6992920">
        <ele>392.0</ele>
        <time>2018-03-05T14:37:17Z</time>
      </trkpt>
      <trkpt lat="38.3268400" lon="-0.6992500">
        <ele>390.0</ele>
        <time>2018-03-05T14:37:18Z</time>
      </trkpt>
      <trkpt lat="38.3268780" lon="-0.6992090">
        <ele>389.0</ele>
        <time>2018-03-05T14:37:19Z</time>
      </trkpt>
      <trkpt lat="38.3269340" lon="-0.6991920">
        <ele>388.0</ele>
        <time>2018-03-05T14:37:20Z</time>
      </trkpt>
      <trkpt lat="38.3270200" lon="-0.6992020">
        <ele>386.0</ele>
        <time>2018-03-05T14:37:21Z</time>
      </trkpt>
      <trkpt lat="38.3271040" lon="-0.6991980">
        <ele>386.0</ele>
        <time>2018-03-05T14:37:22Z</time>
      </trkpt>
      <trkpt lat="38.3271920" lon="-0.6991900">
        <ele>385.0</ele>
        <time>2018-03-05T14:37:23Z</time>
      </trkpt>
      <trkpt lat="38.3272830" lon="-0.6991820">
        <ele>384.0</ele>
        <time>2018-03-05T14:37:24Z</time>
      </trkpt>
      <trkpt lat="38.3273780" lon="-0.6991720">
        <ele>383.0</ele>
        <time>2018-03-05T14:37:25Z</time>
      </trkpt>
      <trkpt lat="38.3274770" lon="-0.6991470">
        <ele>382.0</ele>
        <time>2018-03-05T14:37:26Z</time>
      </trkpt>
      <trkpt lat="38.3275760" lon="-0.6991080">
        <ele>382.0</ele>
        <time>2018-03-05T14:37:27Z</time>
      </trkpt>
      <trkpt lat="38.3276590" lon="-0.6990510">
        <ele>381.0</ele>
        <time>2018-03-05T14:37:28Z</time>
      </trkpt>
      <trkpt lat="38.3277380" lon="-0.6989840">
        <ele>379.0</ele>
        <time>2018-03-05T14:37:29Z</time>
      </trkpt>
      <trkpt lat="38.3278100" lon="-0.6989050">
        <ele>379.0</ele>
        <time>2018-03-05T14:37:30Z</time>
      </trkpt>
      <trkpt lat="38.3278750" lon="-0.6988200">
        <ele>378.0</ele>
        <time>2018-03-05T14:37:31Z</time>
      </trkpt>
      <trkpt lat="38.3279180" lon="-0.6987430">
        <ele>378.0</ele>
        <time>2018-03-05T14:37:32Z</time>
      </trkpt>
      <trkpt lat="38.3279380" lon="-0.6986780">
        <ele>377.0</ele>
        <time>2018-03-05T14:37:33Z</time>
      </trkpt>
      <trkpt lat="38.3279410" lon="-0.6986170">
        <ele>377.0</ele>
        <time>2018-03-05T14:37:34Z</time>
      </trkpt>
      <trkpt lat="38.3279190" lon="-0.6985560">
        <ele>376.0</ele>
        <time>2018-03-05T14:37:35Z</time>
      </trkpt>
      <trkpt lat="38.3278780" lon="-0.6984910">
        <ele>375.0</ele>
        <time>2018-03-05T14:37:36Z</time>
      </trkpt>
      <trkpt lat="38.3278250" lon="-0.6984150">
        <ele>374.0</ele>
        <time>2018-03-05T14:37:37Z</time>
      </trkpt>
      <trkpt lat="38.3277660" lon="-0.6983350">
        <ele>372.0</ele>
        <time>2018-03-05T14:37:38Z</time>
      </trkpt>
      <trkpt lat="38.3277000" lon="-0.6982430">
        <ele>371.0</ele>
        <time>2018-03-05T14:37:39Z</time>
      </trkpt>
      <trkpt lat="38.3276410" lon="-0.6981580">
        <ele>369.0</ele>
        <time>2018-03-05T14:37:40Z</time>
      </trkpt>
      <trkpt lat="38.3276030" lon="-0.6980950">
        <ele>368.0</ele>
        <time>2018-03-05T14:37:41Z</time>
      </trkpt>
      <trkpt lat="38.3275830" lon="-0.6980580">
        <ele>368.0</ele>
        <time>2018-03-05T14:37:42Z</time>
      </trkpt>
      <trkpt lat="38.3275700" lon="-0.6980210">
        <ele>368.0</ele>
        <time>2018-03-05T14:37:43Z</time>
      </trkpt>
      <trkpt lat="38.3275450" lon="-0.6979770">
        <ele>367.0</ele>
        <time>2018-03-05T14:37:44Z</time>
      </trkpt>
      <trkpt lat="38.3275250" lon="-0.6979360">
        <ele>367.0</ele>
        <time>2018-03-05T14:37:45Z</time>
      </trkpt>
      <trkpt lat="38.3275030" lon="-0.6979110">
        <ele>366.0</ele>
        <time>2018-03-05T14:37:46Z</time>
      </trkpt>
      <trkpt lat="38.3274750" lon="-0.6979040">
        <ele>365.0</ele>
        <time>2018-03-05T14:37:47Z</time>
      </trkpt>
      <trkpt lat="38.3274350" lon="-0.6979060">
        <ele>365.0</ele>
        <time>2018-03-05T14:37:48Z</time>
      </trkpt>
      <trkpt lat="38.3274000" lon="-0.6979160">
        <ele>365.0</ele>
        <time>2018-03-05T14:37:49Z</time>
      </trkpt>
      <trkpt lat="38.3273700" lon="-0.6979410">
        <ele>365.0</ele>
        <time>2018-03-05T14:37:50Z</time>
      </trkpt>
      <trkpt lat="38.3273520" lon="-0.6979710">
        <ele>366.0</ele>
        <time>2018-03-05T14:37:51Z</time>
      </trkpt>
      <trkpt lat="38.3273400" lon="-0.6979980">
        <ele>366.0</ele>
        <time>2018-03-05T14:37:52Z</time>
      </trkpt>
      <trkpt lat="38.3273280" lon="-0.6980240">
        <ele>366.0</ele>
        <time>2018-03-05T14:37:53Z</time>
      </trkpt>
      <trkpt lat="38.3273170" lon="-0.6980530">
        <ele>366.0</ele>
        <time>2018-03-05T14:37:54Z</time>
      </trkpt>
      <trkpt lat="38.3273020" lon="-0.6980850">
        <ele>367.0</ele>
        <time>2018-03-05T14:37:55Z</time>
      </trkpt>
      <trkpt lat="38.3272860" lon="-0.6981230">
        <ele>367.0</ele>
        <time>2018-03-05T14:37:56Z</time>
      </trkpt>
      <trkpt lat="38.3272760" lon="-0.6981690">
        <ele>367.0</ele>
        <time>2018-03-05T14:37:57Z</time>
      </trkpt>
      <trkpt lat="38.3272600" lon="-0.6982160">
        <ele>368.0</ele>
        <time>2018-03-05T14:37:58Z</time>
      </trkpt>
      <trkpt lat="38.3272430" lon="-0.6982600">
        <ele>368.0</ele>
        <time>2018-03-05T14:37:59Z</time>
      </trkpt>
      <trkpt lat="38.3272220" lon="-0.6983000">
        <ele>368.0</ele>
        <time>2018-03-05T14:38:00Z</time>
      </trkpt>
      <trkpt lat="38.3272030" lon="-0.6983400">
        <ele>368.0</ele>
        <time>2018-03-05T14:38:01Z</time>
      </trkpt>
      <trkpt lat="38.3271810" lon="-0.6983750">
        <ele>369.0</ele>
        <time>2018-03-05T14:38:02Z</time>
      </trkpt>
      <trkpt lat="38.3271520" lon="-0.6984040">
        <ele>369.0</ele>
        <time>2018-03-05T14:38:03Z</time>
      </trkpt>
      <trkpt lat="38.3271180" lon="-0.6984270">
        <ele>370.0</ele>
        <time>2018-03-05T14:38:04Z</time>
      </trkpt>
      <trkpt lat="38.3270850" lon="-0.6984440">
        <ele>370.0</ele>
        <time>2018-03-05T14:38:05Z</time>
      </trkpt>
      <trkpt lat="38.3270520" lon="-0.6984600">
        <ele>370.0</ele>
        <time>2018-03-05T14:38:06Z</time>
      </trkpt>
      <trkpt lat="38.3270190" lon="-0.6984710">
        <ele>370.0</ele>
        <time>2018-03-05T14:38:07Z</time>
      </trkpt>
      <trkpt lat="38.3269820" lon="-0.6984860">
        <ele>371.0</ele>
        <time>2018-03-05T14:38:08Z</time>
      </trkpt>
      <trkpt lat="38.3269460" lon="-0.6984990">
        <ele>371.0</ele>
        <time>2018-03-05T14:38:09Z</time>
      </trkpt>
      <trkpt lat="38.3269080" lon="-0.6985090">
        <ele>371.0</ele>
        <time>2018-03-05T14:38:10Z</time>
      </trkpt>
      <trkpt lat="38.3268710" lon="-0.6985140">
        <ele>371.0</ele>
        <time>2018-03-05T14:38:11Z</time>
      </trkpt>
      <trkpt lat="38.3268340" lon="-0.6985270">
        <ele>372.0</ele>
        <time>2018-03-05T14:38:12Z</time>
      </trkpt>
      <trkpt lat="38.3268000" lon="-0.6985420">
        <ele>372.0</ele>
        <time>2018-03-05T14:38:13Z</time>
      </trkpt>
      <trkpt lat="38.3267660" lon="-0.6985600">
        <ele>372.0</ele>
        <time>2018-03-05T14:38:14Z</time>
      </trkpt>
      <trkpt lat="38.3267310" lon="-0.6985820">
        <ele>373.0</ele>
        <time>2018-03-05T14:38:15Z</time>
      </trkpt>
      <trkpt lat="38.3266960" lon="-0.6986000">
        <ele>373.0</ele>
        <time>2018-03-05T14:38:16Z</time>
      </trkpt>
      <trkpt lat="38.3266610" lon="-0.6986180">
        <ele>373.0</ele>
        <time>2018-03-05T14:38:17Z</time>
      </trkpt>
      <trkpt lat="38.3266270" lon="-0.6986400">
        <ele>373.0</ele>
        <time>2018-03-05T14:38:18Z</time>
      </trkpt>
      <trkpt lat="38.3265940" lon="-0.6986610">
        <ele>373.0</ele>
        <time>2018-03-05T14:38:19Z</time>
      </trkpt>
      <trkpt lat="38.3265600" lon="-0.6986820">
        <ele>373.0</ele>
        <time>2018-03-05T14:38:20Z</time>
      </trkpt>
      <trkpt lat="38.3265250" lon="-0.6986980">
        <ele>373.0</ele>
        <time>2018-03-05T14:38:21Z</time>
      </trkpt>
      <trkpt lat="38.3264920" lon="-0.6987130">
        <ele>374.0</ele>
        <time>2018-03-05T14:38:22Z</time>
      </trkpt>
      <trkpt lat="38.3264570" lon="-0.6987220">
        <ele>374.0</ele>
        <time>2018-03-05T14:38:23Z</time>
      </trkpt>
      <trkpt lat="38.3264190" lon="-0.6987240">
        <ele>373.0</ele>
        <time>2018-03-05T14:38:24Z</time>
      </trkpt>
      <trkpt lat="38.3263730" lon="-0.6987250">
        <ele>373.0</ele>
        <time>2018-03-05T14:38:25Z</time>
      </trkpt>
      <trkpt lat="38.3263260" lon="-0.6987150">
        <ele>372.0</ele>
        <time>2018-03-05T14:38:26Z</time>
      </trkpt>
      <trkpt lat="38.3262730" lon="-0.6986940">
        <ele>371.0</ele>
        <time>2018-03-05T14:38:27Z</time>
      </trkpt>
      <trkpt lat="38.3262150" lon="-0.6986670">
        <ele>371.0</ele>
        <time>2018-03-05T14:38:28Z</time>
      </trkpt>
      <trkpt lat="38.3261580" lon="-0.6986350">
        <ele>371.0</ele>
        <time>2018-03-05T14:38:29Z</time>
      </trkpt>
      <trkpt lat="38.3261050" lon="-0.6985920">
        <ele>371.0</ele>
        <time>2018-03-05T14:38:30Z</time>
      </trkpt>
      <trkpt lat="38.3260590" lon="-0.6985390">
        <ele>371.0</ele>
        <time>2018-03-05T14:38:31Z</time>
      </trkpt>
      <trkpt lat="38.3260140" lon="-0.6984900">
        <ele>371.0</ele>
        <time>2018-03-05T14:38:32Z</time>
      </trkpt>
      <trkpt lat="38.3259690" lon="-0.6984420">
        <ele>371.0</ele>
        <time>2018-03-05T14:38:33Z</time>
      </trkpt>
      <trkpt lat="38.3259210" lon="-0.6983820">
        <ele>370.0</ele>
        <time>2018-03-05T14:38:34Z</time>
      </trkpt>
      <trkpt lat="38.3258840" lon="-0.6983090">
        <ele>370.0</ele>
        <time>2018-03-05T14:38:35Z</time>
      </trkpt>
      <trkpt lat="38.3258500" lon="-0.6982310">
        <ele>370.0</ele>
        <time>2018-03-05T14:38:36Z</time>
      </trkpt>
      <trkpt lat="38.3258190" lon="-0.6981500">
        <ele>370.0</ele>
        <time>2018-03-05T14:38:37Z</time>
      </trkpt>
      <trkpt lat="38.3257930" lon="-0.6980680">
        <ele>370.0</ele>
        <time>2018-03-05T14:38:38Z</time>
      </trkpt>
      <trkpt lat="38.3257680" lon="-0.6979860">
        <ele>370.0</ele>
        <time>2018-03-05T14:38:39Z</time>
      </trkpt>
      <trkpt lat="38.3257480" lon="-0.6979130">
        <ele>370.0</ele>
        <time>2018-03-05T14:38:40Z</time>
      </trkpt>
      <trkpt lat="38.3257270" lon="-0.6978510">
        <ele>370.0</ele>
        <time>2018-03-05T14:38:41Z</time>
      </trkpt>
      <trkpt lat="38.3257060" lon="-0.6977900">
        <ele>370.0</ele>
        <time>2018-03-05T14:38:42Z</time>
      </trkpt>
      <trkpt lat="38.3256870" lon="-0.6977330">
        <ele>371.0</ele>
        <time>2018-03-05T14:38:43Z</time>
      </trkpt>
      <trkpt lat="38.3256650" lon="-0.6976810">
        <ele>371.0</ele>
        <time>2018-03-05T14:38:44Z</time>
      </trkpt>
      <trkpt lat="38.3256470" lon="-0.6976280">
        <ele>371.0</ele>
        <time>2018-03-05T14:38:45Z</time>
      </trkpt>
      <trkpt lat="38.3256290" lon="-0.6975760">
        <ele>371.0</ele>
        <time>2018-03-05T14:38:46Z</time>
      </trkpt>
      <trkpt lat="38.3256120" lon="-0.6975240">
        <ele>372.0</ele>
        <time>2018-03-05T14:38:47Z</time>
      </trkpt>
      <trkpt lat="38.3255960" lon="-0.6974740">
        <ele>372.0</ele>
        <time>2018-03-05T14:38:48Z</time>
      </trkpt>
      <trkpt lat="38.3255800" lon="-0.6974250">
        <ele>372.0</ele>
        <time>2018-03-05T14:38:49Z</time>
      </trkpt>
      <trkpt lat="38.3255660" lon="-0.6973790">
        <ele>372.0</ele>
        <time>2018-03-05T14:38:50Z</time>
      </trkpt>
      <trkpt lat="38.3255540" lon="-0.6973380">
        <ele>373.0</ele>
        <time>2018-03-05T14:38:51Z</time>
      </trkpt>
      <trkpt lat="38.3255440" lon="-0.6973010">
        <ele>373.0</ele>
        <time>2018-03-05T14:38:52Z</time>
      </trkpt>
      <trkpt lat="38.3255350" lon="-0.6972680">
        <ele>373.0</ele>
        <time>2018-03-05T14:38:53Z</time>
      </trkpt>
      <trkpt lat="38.3255270" lon="-0.6972310">
        <ele>374.0</ele>
        <time>2018-03-05T14:38:54Z</time>
      </trkpt>
      <trkpt lat="38.3255180" lon="-0.6971950">
        <ele>374.0</ele>
        <time>2018-03-05T14:38:55Z</time>
      </trkpt>
      <trkpt lat="38.3255100" lon="-0.6971580">
        <ele>374.0</ele>
        <time>2018-03-05T14:38:56Z</time>
      </trkpt>
      <trkpt lat="38.3254970" lon="-0.6971210">
        <ele>374.0</ele>
        <time>2018-03-05T14:38:57Z</time>
      </trkpt>
      <trkpt lat="38.3254860" lon="-0.6970790">
        <ele>374.0</ele>
        <time>2018-03-05T14:38:58Z</time>
      </trkpt>
      <trkpt lat="38.3254750" lon="-0.6970380">
        <ele>374.0</ele>
        <time>2018-03-05T14:38:59Z</time>
      </trkpt>
      <trkpt lat="38.3254620" lon="-0.6969950">
        <ele>375.0</ele>
        <time>2018-03-05T14:39:00Z</time>
      </trkpt>
      <trkpt lat="38.3254490" lon="-0.6969520">
        <ele>375.0</ele>
        <time>2018-03-05T14:39:01Z</time>
      </trkpt>
      <trkpt lat="38.3254360" lon="-0.6969110">
        <ele>375.0</ele>
        <time>2018-03-05T14:39:02Z</time>
      </trkpt>
      <trkpt lat="38.3254210" lon="-0.6968680">
        <ele>375.0</ele>
        <time>2018-03-05T14:39:03Z</time>
      </trkpt>
      <trkpt lat="38.3254020" lon="-0.6968270">
        <ele>375.0</ele>
        <time>2018-03-05T14:39:04Z</time>
      </trkpt>
      <trkpt lat="38.3253790" lon="-0.6967900">
        <ele>375.0</ele>
        <time>2018-03-05T14:39:05Z</time>
      </trkpt>
      <trkpt lat="38.3253490" lon="-0.6967570">
        <ele>375.0</ele>
        <time>2018-03-05T14:39:06Z</time>
      </trkpt>
      <trkpt lat="38.3253160" lon="-0.6967240">
        <ele>375.0</ele>
        <time>2018-03-05T14:39:07Z</time>
      </trkpt>
      <trkpt lat="38.3252810" lon="-0.6966900">
        <ele>375.0</ele>
        <time>2018-03-05T14:39:08Z</time>
      </trkpt>
      <trkpt lat="38.3252440" lon="-0.6966570">
        <ele>375.0</ele>
        <time>2018-03-05T14:39:09Z</time>
      </trkpt>
      <trkpt lat="38.3252010" lon="-0.6966320">
        <ele>375.0</ele>
        <time>2018-03-05T14:39:10Z</time>
      </trkpt>
      <trkpt lat="38.3251520" lon="-0.6966130">
        <ele>374.0</ele>
        <time>2018-03-05T14:39:11Z</time>
      </trkpt>
      <trkpt lat="38.3250940" lon="-0.6966000">
        <ele>373.0</ele>
        <time>2018-03-05T14:39:12Z</time>
      </trkpt>
      <trkpt lat="38.3250200" lon="-0.6965900">
        <ele>371.0</ele>
        <time>2018-03-05T14:39:13Z</time>
      </trkpt>
      <trkpt lat="38.3249430" lon="-0.6965800">
        <ele>370.0</ele>
        <time>2018-03-05T14:39:14Z</time>
      </trkpt>
      <trkpt lat="38.3248690" lon="-0.6965760">
        <ele>371.0</ele>
        <time>2018-03-05T14:39:15Z</time>
      </trkpt>
      <trkpt lat="38.3248010" lon="-0.6965630">
        <ele>371.0</ele>
        <time>2018-03-05T14:39:16Z</time>
      </trkpt>
      <trkpt lat="38.3247470" lon="-0.6965540">
        <ele>372.0</ele>
        <time>2018-03-05T14:39:17Z</time>
      </trkpt>
      <trkpt lat="38.3247030" lon="-0.6965490">
        <ele>373.0</ele>
        <time>2018-03-05T14:39:18Z</time>
      </trkpt>
      <trkpt lat="38.3246640" lon="-0.6965340">
        <ele>373.0</ele>
        <time>2018-03-05T14:39:19Z</time>
      </trkpt>
      <trkpt lat="38.3246410" lon="-0.6965230">
        <ele>373.0</ele>
        <time>2018-03-05T14:39:20Z</time>
      </trkpt>
      <trkpt lat="38.3246250" lon="-0.6965200">
        <ele>374.0</ele>
        <time>2018-03-05T14:39:21Z</time>
      </trkpt>
      <trkpt lat="38.3246090" lon="-0.6965160">
        <ele>375.0</ele>
        <time>2018-03-05T14:39:22Z</time>
      </trkpt>
      <trkpt lat="38.3246090" lon="-0.6965160">
        <ele>375.0</ele>
        <time>2018-03-05T14:39:23Z</time>
      </trkpt>
      <trkpt lat="38.3245770" lon="-0.6965080">
        <ele>375.0</ele>
        <time>2018-03-05T14:39:24Z</time>
      </trkpt>
      <trkpt lat="38.3245610" lon="-0.6965050">
        <ele>376.0</ele>
        <time>2018-03-05T14:39:25Z</time>
      </trkpt>
      <trkpt lat="38.3245440" lon="-0.6965020">
        <ele>376.0</ele>
        <time>2018-03-05T14:39:26Z</time>
      </trkpt>
      <trkpt lat="38.3245280" lon="-0.6964990">
        <ele>377.0</ele>
        <time>2018-03-05T14:39:27Z</time>
      </trkpt>
      <trkpt lat="38.3245110" lon="-0.6964950">
        <ele>377.0</ele>
        <time>2018-03-05T14:39:28Z</time>
      </trkpt>
      <trkpt lat="38.3244950" lon="-0.6964900">
        <ele>377.0</ele>
        <time>2018-03-05T14:39:29Z</time>
      </trkpt>
      <trkpt lat="38.3244820" lon="-0.6964850">
        <ele>378.0</ele>
        <time>2018-03-05T14:39:30Z</time>
      </trkpt>
      <trkpt lat="38.3244680" lon="-0.6964810">
        <ele>378.0</ele>
        <time>2018-03-05T14:39:31Z</time>
      </trkpt>
      <trkpt lat="38.3244540" lon="-0.6964780">
        <ele>378.0</ele>
        <time>2018-03-05T14:39:32Z</time>
      </trkpt>
      <trkpt lat="38.3244390" lon="-0.6964730">
        <ele>378.0</ele>
        <time>2018-03-05T14:39:33Z</time>
      </trkpt>
      <trkpt lat="38.3244250" lon="-0.6964690">
        <ele>379.0</ele>
        <time>2018-03-05T14:39:34Z</time>
      </trkpt>
      <trkpt lat="38.3244120" lon="-0.6964660">
        <ele>379.0</ele>
        <time>2018-03-05T14:39:35Z</time>
      </trkpt>
      <trkpt lat="38.3243970" lon="-0.6964620">
        <ele>379.0</ele>
        <time>2018-03-05T14:39:36Z</time>
      </trkpt>
      <trkpt lat="38.3243840" lon="-0.6964560">
        <ele>379.0</ele>
        <time>2018-03-05T14:39:37Z</time>
      </trkpt>
      <trkpt lat="38.3243720" lon="-0.6964510">
        <ele>380.0</ele>
        <time>2018-03-05T14:39:38Z</time>
      </trkpt>
      <trkpt lat="38.3243590" lon="-0.6964450">
        <ele>380.0</ele>
        <time>2018-03-05T14:39:39Z</time>
      </trkpt>
      <trkpt lat="38.3243480" lon="-0.6964400">
        <ele>380.0</ele>
        <time>2018-03-05T14:39:40Z</time>
      </trkpt>
      <trkpt lat="38.3243370" lon="-0.6964350">
        <ele>381.0</ele>
        <time>2018-03-05T14:39:41Z</time>
      </trkpt>
      <trkpt lat="38.3243250" lon="-0.6964280">
        <ele>381.0</ele>
        <time>2018-03-05T14:39:42Z</time>
      </trkpt>
      <trkpt lat="38.3243140" lon="-0.6964220">
        <ele>381.0</ele>
        <time>2018-03-05T14:39:43Z</time>
      </trkpt>
      <trkpt lat="38.3243020" lon="-0.6964160">
        <ele>381.0</ele>
        <time>2018-03-05T14:39:44Z</time>
      </trkpt>
      <trkpt lat="38.3242870" lon="-0.6964120">
        <ele>382.0</ele>
        <time>2018-03-05T14:39:45Z</time>
      </trkpt>
      <trkpt lat="38.3242750" lon="-0.6964110">
        <ele>382.0</ele>
        <time>2018-03-05T14:39:46Z</time>
      </trkpt>
      <trkpt lat="38.3242630" lon="-0.6964080">
        <ele>382.0</ele>
        <time>2018-03-05T14:39:47Z</time>
      </trkpt>
      <trkpt lat="38.3242510" lon="-0.6964050">
        <ele>382.0</ele>
        <time>2018-03-05T14:39:48Z</time>
      </trkpt>
      <trkpt lat="38.3242380" lon="-0.6964020">
        <ele>382.0</ele>
        <time>2018-03-05T14:39:49Z</time>
      </trkpt>
      <trkpt lat="38.3242270" lon="-0.6963990">
        <ele>382.0</ele>
        <time>2018-03-05T14:39:50Z</time>
      </trkpt>
      <trkpt lat="38.3242150" lon="-0.6963990">
        <ele>383.0</ele>
        <time>2018-03-05T14:39:51Z</time>
      </trkpt>
      <trkpt lat="38.3242020" lon="-0.6963990">
        <ele>383.0</ele>
        <time>2018-03-05T14:39:52Z</time>
      </trkpt>
      <trkpt lat="38.3241900" lon="-0.6963970">
        <ele>383.0</ele>
        <time>2018-03-05T14:39:53Z</time>
      </trkpt>
      <trkpt lat="38.3241800" lon="-0.6963920">
        <ele>383.0</ele>
        <time>2018-03-05T14:39:54Z</time>
      </trkpt>
      <trkpt lat="38.3241690" lon="-0.6963880">
        <ele>384.0</ele>
        <time>2018-03-05T14:39:55Z</time>
      </trkpt>
      <trkpt lat="38.3241590" lon="-0.6963810">
        <ele>384.0</ele>
        <time>2018-03-05T14:39:56Z</time>
      </trkpt>
      <trkpt lat="38.3241500" lon="-0.6963700">
        <ele>384.0</ele>
        <time>2018-03-05T14:39:57Z</time>
      </trkpt>
      <trkpt lat="38.3241430" lon="-0.6963600">
        <ele>384.0</ele>
        <time>2018-03-05T14:39:58Z</time>
      </trkpt>
      <trkpt lat="38.3241350" lon="-0.6963460">
        <ele>385.0</ele>
        <time>2018-03-05T14:39:59Z</time>
      </trkpt>
      <trkpt lat="38.3241310" lon="-0.6963300">
        <ele>385.0</ele>
        <time>2018-03-05T14:40:00Z</time>
      </trkpt>
      <trkpt lat="38.3241280" lon="-0.6963090">
        <ele>385.0</ele>
        <time>2018-03-05T14:40:01Z</time>
      </trkpt>
      <trkpt lat="38.3241250" lon="-0.6962890">
        <ele>384.0</ele>
        <time>2018-03-05T14:40:02Z</time>
      </trkpt>
      <trkpt lat="38.3241260" lon="-0.6962630">
        <ele>384.0</ele>
        <time>2018-03-05T14:40:03Z</time>
      </trkpt>
      <trkpt lat="38.3241260" lon="-0.6962360">
        <ele>383.0</ele>
        <time>2018-03-05T14:40:04Z</time>
      </trkpt>
      <trkpt lat="38.3241180" lon="-0.6962140">
        <ele>383.0</ele>
        <time>2018-03-05T14:40:05Z</time>
      </trkpt>
      <trkpt lat="38.3241100" lon="-0.6961880">
        <ele>382.0</ele>
        <time>2018-03-05T14:40:06Z</time>
      </trkpt>
      <trkpt lat="38.3241060" lon="-0.6961510">
        <ele>383.0</ele>
        <time>2018-03-05T14:40:07Z</time>
      </trkpt>
      <trkpt lat="38.3240990" lon="-0.6961220">
        <ele>383.0</ele>
        <time>2018-03-05T14:40:08Z</time>
      </trkpt>
      <trkpt lat="38.3240870" lon="-0.6961010">
        <ele>383.0</ele>
        <time>2018-03-05T14:40:09Z</time>
      </trkpt>
      <trkpt lat="38.3240740" lon="-0.6960860">
        <ele>382.0</ele>
        <time>2018-03-05T14:40:10Z</time>
      </trkpt>
      <trkpt lat="38.3240390" lon="-0.6960500">
        <ele>382.0</ele>
        <time>2018-03-05T14:40:11Z</time>
      </trkpt>
      <trkpt lat="38.3239990" lon="-0.6960170">
        <ele>379.0</ele>
        <time>2018-03-05T14:40:12Z</time>
      </trkpt>
      <trkpt lat="38.3239940" lon="-0.6960130">
        <ele>379.0</ele>
        <time>2018-03-05T14:40:13Z</time>
      </trkpt>
      <trkpt lat="38.3239860" lon="-0.6960010">
        <ele>378.0</ele>
        <time>2018-03-05T14:40:14Z</time>
      </trkpt>
      <trkpt lat="38.3239800" lon="-0.6959890">
        <ele>378.0</ele>
        <time>2018-03-05T14:40:15Z</time>
      </trkpt>
      <trkpt lat="38.3239710" lon="-0.6959760">
        <ele>377.0</ele>
        <time>2018-03-05T14:40:16Z</time>
      </trkpt>
      <trkpt lat="38.3239670" lon="-0.6959650">
        <ele>377.0</ele>
        <time>2018-03-05T14:40:17Z</time>
      </trkpt>
      <trkpt lat="38.3239610" lon="-0.6959550">
        <ele>376.0</ele>
        <time>2018-03-05T14:40:18Z</time>
      </trkpt>
      <trkpt lat="38.3239560" lon="-0.6959450">
        <ele>376.0</ele>
        <time>2018-03-05T14:40:19Z</time>
      </trkpt>
      <trkpt lat="38.3239520" lon="-0.6959310">
        <ele>376.0</ele>
        <time>2018-03-05T14:40:20Z</time>
      </trkpt>
      <trkpt lat="38.3239470" lon="-0.6959180">
        <ele>375.0</ele>
        <time>2018-03-05T14:40:21Z</time>
      </trkpt>
      <trkpt lat="38.3239450" lon="-0.6959070">
        <ele>375.0</ele>
        <time>2018-03-05T14:40:22Z</time>
      </trkpt>
      <trkpt lat="38.3239460" lon="-0.6959000">
        <ele>375.0</ele>
        <time>2018-03-05T14:40:23Z</time>
      </trkpt>
      <trkpt lat="38.3239450" lon="-0.6958980">
        <ele>375.0</ele>
        <time>2018-03-05T14:40:24Z</time>
      </trkpt>
      <trkpt lat="38.3239420" lon="-0.6958880">
        <ele>375.0</ele>
        <time>2018-03-05T14:40:25Z</time>
      </trkpt>
      <trkpt lat="38.3239380" lon="-0.6958730">
        <ele>374.0</ele>
        <time>2018-03-05T14:40:26Z</time>
      </trkpt>
      <trkpt lat="38.3239320" lon="-0.6958600">
        <ele>375.0</ele>
        <time>2018-03-05T14:40:27Z</time>
      </trkpt>
      <trkpt lat="38.3239190" lon="-0.6958470">
        <ele>375.0</ele>
        <time>2018-03-05T14:40:28Z</time>
      </trkpt>
      <trkpt lat="38.3238870" lon="-0.6958100">
        <ele>374.0</ele>
        <time>2018-03-05T14:40:29Z</time>
      </trkpt>
      <trkpt lat="38.3238540" lon="-0.6957650">
        <ele>373.0</ele>
        <time>2018-03-05T14:40:30Z</time>
      </trkpt>
      <trkpt lat="38.3238280" lon="-0.6957280">
        <ele>373.0</ele>
        <time>2018-03-05T14:40:31Z</time>
      </trkpt>
      <trkpt lat="38.3238030" lon="-0.6956940">
        <ele>373.0</ele>
        <time>2018-03-05T14:40:32Z</time>
      </trkpt>
      <trkpt lat="38.3237800" lon="-0.6956660">
        <ele>372.0</ele>
        <time>2018-03-05T14:40:33Z</time>
      </trkpt>
      <trkpt lat="38.3237610" lon="-0.6956350">
        <ele>372.0</ele>
        <time>2018-03-05T14:40:34Z</time>
      </trkpt>
      <trkpt lat="38.3237450" lon="-0.6956090">
        <ele>372.0</ele>
        <time>2018-03-05T14:40:35Z</time>
      </trkpt>
      <trkpt lat="38.3237220" lon="-0.6955820">
        <ele>372.0</ele>
        <time>2018-03-05T14:40:36Z</time>
      </trkpt>
      <trkpt lat="38.3237000" lon="-0.6955570">
        <ele>372.0</ele>
        <time>2018-03-05T14:40:37Z</time>
      </trkpt>
      <trkpt lat="38.3236760" lon="-0.6955320">
        <ele>372.0</ele>
        <time>2018-03-05T14:40:38Z</time>
      </trkpt>
      <trkpt lat="38.3236590" lon="-0.6955030">
        <ele>373.0</ele>
        <time>2018-03-05T14:40:39Z</time>
      </trkpt>
      <trkpt lat="38.3236400" lon="-0.6954720">
        <ele>373.0</ele>
        <time>2018-03-05T14:40:40Z</time>
      </trkpt>
      <trkpt lat="38.3236200" lon="-0.6954500">
        <ele>373.0</ele>
        <time>2018-03-05T14:40:41Z</time>
      </trkpt>
      <trkpt lat="38.3236010" lon="-0.6954280">
        <ele>374.0</ele>
        <time>2018-03-05T14:40:42Z</time>
      </trkpt>
      <trkpt lat="38.3235850" lon="-0.6954020">
        <ele>374.0</ele>
        <time>2018-03-05T14:40:43Z</time>
      </trkpt>
      <trkpt lat="38.3235660" lon="-0.6953770">
        <ele>374.0</ele>
        <time>2018-03-05T14:40:44Z</time>
      </trkpt>
      <trkpt lat="38.3235480" lon="-0.6953600">
        <ele>375.0</ele>
        <time>2018-03-05T14:40:45Z</time>
      </trkpt>
      <trkpt lat="38.3235300" lon="-0.6953420">
        <ele>375.0</ele>
        <time>2018-03-05T14:40:46Z</time>
      </trkpt>
      <trkpt lat="38.3235110" lon="-0.6953190">
        <ele>376.0</ele>
        <time>2018-03-05T14:40:47Z</time>
      </trkpt>
      <trkpt lat="38.3234970" lon="-0.6952970">
        <ele>376.0</ele>
        <time>2018-03-05T14:40:48Z</time>
      </trkpt>
      <trkpt lat="38.3234900" lon="-0.6952840">
        <ele>377.0</ele>
        <time>2018-03-05T14:40:49Z</time>
      </trkpt>
      <trkpt lat="38.3234760" lon="-0.6952690">
        <ele>377.0</ele>
        <time>2018-03-05T14:40:50Z</time>
      </trkpt>
      <trkpt lat="38.3234630" lon="-0.6952540">
        <ele>377.0</ele>
        <time>2018-03-05T14:40:51Z</time>
      </trkpt>
      <trkpt lat="38.3234510" lon="-0.6952420">
        <ele>377.0</ele>
        <time>2018-03-05T14:40:52Z</time>
      </trkpt>
      <trkpt lat="38.3234390" lon="-0.6952230">
        <ele>377.0</ele>
        <time>2018-03-05T14:40:53Z</time>
      </trkpt>
      <trkpt lat="38.3234260" lon="-0.6951960">
        <ele>377.0</ele>
        <time>2018-03-05T14:40:54Z</time>
      </trkpt>
      <trkpt lat="38.3234170" lon="-0.6951690">
        <ele>377.0</ele>
        <time>2018-03-05T14:40:55Z</time>
      </trkpt>
      <trkpt lat="38.3234120" lon="-0.6951450">
        <ele>377.0</ele>
        <time>2018-03-05T14:40:56Z</time>
      </trkpt>
      <trkpt lat="38.3234100" lon="-0.6951230">
        <ele>377.0</ele>
        <time>2018-03-05T14:40:57Z</time>
      </trkpt>
      <trkpt lat="38.3234100" lon="-0.6951010">
        <ele>377.0</ele>
        <time>2018-03-05T14:40:58Z</time>
      </trkpt>
      <trkpt lat="38.3234060" lon="-0.6950790">
        <ele>377.0</ele>
        <time>2018-03-05T14:40:59Z</time>
      </trkpt>
      <trkpt lat="38.3233990" lon="-0.6950580">
        <ele>377.0</ele>
        <time>2018-03-05T14:41:00Z</time>
      </trkpt>
      <trkpt lat="38.3233880" lon="-0.6950440">
        <ele>377.0</ele>
        <time>2018-03-05T14:41:01Z</time>
      </trkpt>
      <trkpt lat="38.3233830" lon="-0.6950360">
        <ele>377.0</ele>
        <time>2018-03-05T14:41:02Z</time>
      </trkpt>
      <trkpt lat="38.3233900" lon="-0.6950530">
        <ele>377.0</ele>
        <time>2018-03-05T14:41:03Z</time>
      </trkpt>
      <trkpt lat="38.3233910" lon="-0.6950530">
        <ele>377.0</ele>
        <time>2018-03-05T14:41:04Z</time>
      </trkpt>
      <trkpt lat="38.3233920" lon="-0.6950640">
        <ele>378.0</ele>
        <time>2018-03-05T14:41:05Z</time>
      </trkpt>
      <trkpt lat="38.3233950" lon="-0.6950840">
        <ele>378.0</ele>
        <time>2018-03-05T14:41:06Z</time>
      </trkpt>
      <trkpt lat="38.3233960" lon="-0.6951140">
        <ele>378.0</ele>
        <time>2018-03-05T14:41:07Z</time>
      </trkpt>
      <trkpt lat="38.3233940" lon="-0.6951540">
        <ele>378.0</ele>
        <time>2018-03-05T14:41:08Z</time>
      </trkpt>
      <trkpt lat="38.3233930" lon="-0.6952030">
        <ele>377.0</ele>
        <time>2018-03-05T14:41:09Z</time>
      </trkpt>
      <trkpt lat="38.3233960" lon="-0.6952570">
        <ele>376.0</ele>
        <time>2018-03-05T14:41:10Z</time>
      </trkpt>
      <trkpt lat="38.3233980" lon="-0.6953120">
        <ele>376.0</ele>
        <time>2018-03-05T14:41:11Z</time>
      </trkpt>
      <trkpt lat="38.3233980" lon="-0.6953610">
        <ele>375.0</ele>
        <time>2018-03-05T14:41:12Z</time>
      </trkpt>
      <trkpt lat="38.3233980" lon="-0.6954050">
        <ele>375.0</ele>
        <time>2018-03-05T14:41:13Z</time>
      </trkpt>
      <trkpt lat="38.3234060" lon="-0.6954420">
        <ele>374.0</ele>
        <time>2018-03-05T14:41:14Z</time>
      </trkpt>
      <trkpt lat="38.3234200" lon="-0.6954690">
        <ele>374.0</ele>
        <time>2018-03-05T14:41:15Z</time>
      </trkpt>
      <trkpt lat="38.3234230" lon="-0.6955030">
        <ele>373.0</ele>
        <time>2018-03-05T14:41:16Z</time>
      </trkpt>
      <trkpt lat="38.3234200" lon="-0.6955630">
        <ele>373.0</ele>
        <time>2018-03-05T14:41:17Z</time>
      </trkpt>
      <trkpt lat="38.3234300" lon="-0.6956120">
        <ele>372.0</ele>
        <time>2018-03-05T14:41:18Z</time>
      </trkpt>
      <trkpt lat="38.3234460" lon="-0.6956560">
        <ele>371.0</ele>
        <time>2018-03-05T14:41:19Z</time>
      </trkpt>
      <trkpt lat="38.3234590" lon="-0.6957040">
        <ele>370.0</ele>
        <time>2018-03-05T14:41:20Z</time>
      </trkpt>
      <trkpt lat="38.3234490" lon="-0.6957440">
        <ele>369.0</ele>
        <time>2018-03-05T14:41:21Z</time>
      </trkpt>
      <trkpt lat="38.3234380" lon="-0.6957950">
        <ele>368.0</ele>
        <time>2018-03-05T14:41:22Z</time>
      </trkpt>
      <trkpt lat="38.3234340" lon="-0.6958500">
        <ele>367.0</ele>
        <time>2018-03-05T14:41:23Z</time>
      </trkpt>
      <trkpt lat="38.3234410" lon="-0.6958980">
        <ele>366.0</ele>
        <time>2018-03-05T14:41:24Z</time>
      </trkpt>
      <trkpt lat="38.3234480" lon="-0.6959450">
        <ele>365.0</ele>
        <time>2018-03-05T14:41:25Z</time>
      </trkpt>
      <trkpt lat="38.3234510" lon="-0.6959940">
        <ele>364.0</ele>
        <time>2018-03-05T14:41:26Z</time>
      </trkpt>
      <trkpt lat="38.3234480" lon="-0.6960400">
        <ele>364.0</ele>
        <time>2018-03-05T14:41:27Z</time>
      </trkpt>
      <trkpt lat="38.3234400" lon="-0.6960950">
        <ele>364.0</ele>
        <time>2018-03-05T14:41:28Z</time>
      </trkpt>
      <trkpt lat="38.3234480" lon="-0.6961450">
        <ele>365.0</ele>
        <time>2018-03-05T14:41:29Z</time>
      </trkpt>
      <trkpt lat="38.3234520" lon="-0.6961940">
        <ele>365.0</ele>
        <time>2018-03-05T14:41:30Z</time>
      </trkpt>
      <trkpt lat="38.3234540" lon="-0.6962440">
        <ele>365.0</ele>
        <time>2018-03-05T14:41:31Z</time>
      </trkpt>
      <trkpt lat="38.3234440" lon="-0.6962910">
        <ele>363.0</ele>
        <time>2018-03-05T14:41:32Z</time>
      </trkpt>
      <trkpt lat="38.3234370" lon="-0.6963430">
        <ele>363.0</ele>
        <time>2018-03-05T14:41:33Z</time>
      </trkpt>
      <trkpt lat="38.3234370" lon="-0.6963830">
        <ele>363.0</ele>
        <time>2018-03-05T14:41:34Z</time>
      </trkpt>
      <trkpt lat="38.3234380" lon="-0.6964210">
        <ele>362.0</ele>
        <time>2018-03-05T14:41:35Z</time>
      </trkpt>
      <trkpt lat="38.3234410" lon="-0.6964570">
        <ele>362.0</ele>
        <time>2018-03-05T14:41:36Z</time>
      </trkpt>
      <trkpt lat="38.3234420" lon="-0.6964930">
        <ele>361.0</ele>
        <time>2018-03-05T14:41:37Z</time>
      </trkpt>
      <trkpt lat="38.3234460" lon="-0.6965330">
        <ele>361.0</ele>
        <time>2018-03-05T14:41:38Z</time>
      </trkpt>
      <trkpt lat="38.3234500" lon="-0.6965780">
        <ele>361.0</ele>
        <time>2018-03-05T14:41:39Z</time>
      </trkpt>
      <trkpt lat="38.3234600" lon="-0.6966300">
        <ele>361.0</ele>
        <time>2018-03-05T14:41:40Z</time>
      </trkpt>
      <trkpt lat="38.3234620" lon="-0.6966870">
        <ele>360.0</ele>
        <time>2018-03-05T14:41:41Z</time>
      </trkpt>
      <trkpt lat="38.3234670" lon="-0.6967310">
        <ele>360.0</ele>
        <time>2018-03-05T14:41:42Z</time>
      </trkpt>
      <trkpt lat="38.3234720" lon="-0.6967720">
        <ele>359.0</ele>
        <time>2018-03-05T14:41:43Z</time>
      </trkpt>
      <trkpt lat="38.3234760" lon="-0.6968100">
        <ele>359.0</ele>
        <time>2018-03-05T14:41:44Z</time>
      </trkpt>
      <trkpt lat="38.3234860" lon="-0.6968350">
        <ele>357.0</ele>
        <time>2018-03-05T14:41:45Z</time>
      </trkpt>
      <trkpt lat="38.3234970" lon="-0.6968660">
        <ele>357.0</ele>
        <time>2018-03-05T14:41:46Z</time>
      </trkpt>
      <trkpt lat="38.3235080" lon="-0.6968900">
        <ele>356.0</ele>
        <time>2018-03-05T14:41:47Z</time>
      </trkpt>
      <trkpt lat="38.3235130" lon="-0.6969160">
        <ele>356.0</ele>
        <time>2018-03-05T14:41:48Z</time>
      </trkpt>
      <trkpt lat="38.3235190" lon="-0.6969450">
        <ele>355.0</ele>
        <time>2018-03-05T14:41:49Z</time>
      </trkpt>
      <trkpt lat="38.3235150" lon="-0.6969660">
        <ele>354.0</ele>
        <time>2018-03-05T14:41:50Z</time>
      </trkpt>
      <trkpt lat="38.3235080" lon="-0.6969830">
        <ele>354.0</ele>
        <time>2018-03-05T14:41:51Z</time>
      </trkpt>
      <trkpt lat="38.3235010" lon="-0.6970010">
        <ele>353.0</ele>
        <time>2018-03-05T14:41:52Z</time>
      </trkpt>
      <trkpt lat="38.3234920" lon="-0.6970190">
        <ele>353.0</ele>
        <time>2018-03-05T14:41:53Z</time>
      </trkpt>
      <trkpt lat="38.3234900" lon="-0.6970220">
        <ele>353.0</ele>
        <time>2018-03-05T14:41:54Z</time>
      </trkpt>
      <trkpt lat="38.3234900" lon="-0.6970340">
        <ele>353.0</ele>
        <time>2018-03-05T14:41:55Z</time>
      </trkpt>
      <trkpt lat="38.3234900" lon="-0.6970460">
        <ele>352.0</ele>
        <time>2018-03-05T14:41:56Z</time>
      </trkpt>
      <trkpt lat="38.3234900" lon="-0.6970630">
        <ele>352.0</ele>
        <time>2018-03-05T14:41:57Z</time>
      </trkpt>
      <trkpt lat="38.3234900" lon="-0.6970870">
        <ele>352.0</ele>
        <time>2018-03-05T14:41:58Z</time>
      </trkpt>
      <trkpt lat="38.3234920" lon="-0.6971140">
        <ele>352.0</ele>
        <time>2018-03-05T14:41:59Z</time>
      </trkpt>
      <trkpt lat="38.3234950" lon="-0.6971430">
        <ele>351.0</ele>
        <time>2018-03-05T14:42:00Z</time>
      </trkpt>
      <trkpt lat="38.3234980" lon="-0.6971820">
        <ele>351.0</ele>
        <time>2018-03-05T14:42:01Z</time>
      </trkpt>
      <trkpt lat="38.3235060" lon="-0.6972340">
        <ele>350.0</ele>
        <time>2018-03-05T14:42:02Z</time>
      </trkpt>
      <trkpt lat="38.3235150" lon="-0.6972890">
        <ele>350.0</ele>
        <time>2018-03-05T14:42:03Z</time>
      </trkpt>
      <trkpt lat="38.3235170" lon="-0.6973430">
        <ele>349.0</ele>
        <time>2018-03-05T14:42:04Z</time>
      </trkpt>
      <trkpt lat="38.3235250" lon="-0.6973830">
        <ele>348.0</ele>
        <time>2018-03-05T14:42:05Z</time>
      </trkpt>
      <trkpt lat="38.3235330" lon="-0.6974250">
        <ele>347.0</ele>
        <time>2018-03-05T14:42:06Z</time>
      </trkpt>
      <trkpt lat="38.3235460" lon="-0.6974660">
        <ele>346.0</ele>
        <time>2018-03-05T14:42:07Z</time>
      </trkpt>
      <trkpt lat="38.3235600" lon="-0.6975080">
        <ele>346.0</ele>
        <time>2018-03-05T14:42:08Z</time>
      </trkpt>
      <trkpt lat="38.3235730" lon="-0.6975570">
        <ele>344.0</ele>
        <time>2018-03-05T14:42:09Z</time>
      </trkpt>
      <trkpt lat="38.3235850" lon="-0.6976050">
        <ele>343.0</ele>
        <time>2018-03-05T14:42:10Z</time>
      </trkpt>
      <trkpt lat="38.3236120" lon="-0.6976530">
        <ele>343.0</ele>
        <time>2018-03-05T14:42:11Z</time>
      </trkpt>
      <trkpt lat="38.3236320" lon="-0.6976910">
        <ele>342.0</ele>
        <time>2018-03-05T14:42:12Z</time>
      </trkpt>
      <trkpt lat="38.3236530" lon="-0.6977390">
        <ele>341.0</ele>
        <time>2018-03-05T14:42:13Z</time>
      </trkpt>
      <trkpt lat="38.3236700" lon="-0.6977840">
        <ele>340.0</ele>
        <time>2018-03-05T14:42:14Z</time>
      </trkpt>
      <trkpt lat="38.3236840" lon="-0.6978300">
        <ele>339.0</ele>
        <time>2018-03-05T14:42:15Z</time>
      </trkpt>
      <trkpt lat="38.3237020" lon="-0.6978690">
        <ele>339.0</ele>
        <time>2018-03-05T14:42:16Z</time>
      </trkpt>
      <trkpt lat="38.3237230" lon="-0.6979090">
        <ele>338.0</ele>
        <time>2018-03-05T14:42:17Z</time>
      </trkpt>
      <trkpt lat="38.3237420" lon="-0.6979360">
        <ele>338.0</ele>
        <time>2018-03-05T14:42:18Z</time>
      </trkpt>
      <trkpt lat="38.3237630" lon="-0.6979620">
        <ele>337.0</ele>
        <time>2018-03-05T14:42:19Z</time>
      </trkpt>
      <trkpt lat="38.3237810" lon="-0.6979780">
        <ele>336.0</ele>
        <time>2018-03-05T14:42:20Z</time>
      </trkpt>
      <trkpt lat="38.3238040" lon="-0.6979960">
        <ele>336.0</ele>
        <time>2018-03-05T14:42:21Z</time>
      </trkpt>
      <trkpt lat="38.3238170" lon="-0.6980180">
        <ele>334.0</ele>
        <time>2018-03-05T14:42:22Z</time>
      </trkpt>
      <trkpt lat="38.3238220" lon="-0.6980400">
        <ele>333.0</ele>
        <time>2018-03-05T14:42:23Z</time>
      </trkpt>
      <trkpt lat="38.3238250" lon="-0.6980740">
        <ele>332.0</ele>
        <time>2018-03-05T14:42:24Z</time>
      </trkpt>
      <trkpt lat="38.3238340" lon="-0.6981250">
        <ele>332.0</ele>
        <time>2018-03-05T14:42:25Z</time>
      </trkpt>
      <trkpt lat="38.3238460" lon="-0.6981600">
        <ele>332.0</ele>
        <time>2018-03-05T14:42:26Z</time>
      </trkpt>
      <trkpt lat="38.3238480" lon="-0.6981560">
        <ele>332.0</ele>
        <time>2018-03-05T14:42:27Z</time>
      </trkpt>
      <trkpt lat="38.3238540" lon="-0.6981650">
        <ele>333.0</ele>
        <time>2018-03-05T14:42:28Z</time>
      </trkpt>
      <trkpt lat="38.3238540" lon="-0.6981790">
        <ele>333.0</ele>
        <time>2018-03-05T14:42:29Z</time>
      </trkpt>
      <trkpt lat="38.3238550" lon="-0.6981890">
        <ele>334.0</ele>
        <time>2018-03-05T14:42:30Z</time>
      </trkpt>
      <trkpt lat="38.3238550" lon="-0.6981960">
        <ele>334.0</ele>
        <time>2018-03-05T14:42:31Z</time>
      </trkpt>
      <trkpt lat="38.3238540" lon="-0.6982050">
        <ele>335.0</ele>
        <time>2018-03-05T14:42:32Z</time>
      </trkpt>
      <trkpt lat="38.3238560" lon="-0.6982100">
        <ele>335.0</ele>
        <time>2018-03-05T14:42:33Z</time>
      </trkpt>
      <trkpt lat="38.3238550" lon="-0.6982140">
        <ele>335.0</ele>
        <time>2018-03-05T14:42:34Z</time>
      </trkpt>
      <trkpt lat="38.3238560" lon="-0.6982220">
        <ele>335.0</ele>
        <time>2018-03-05T14:42:35Z</time>
      </trkpt>
      <trkpt lat="38.3238570" lon="-0.6982280">
        <ele>335.0</ele>
        <time>2018-03-05T14:42:36Z</time>
      </trkpt>
      <trkpt lat="38.3238580" lon="-0.6982330">
        <ele>336.0</ele>
        <time>2018-03-05T14:42:37Z</time>
      </trkpt>
      <trkpt lat="38.3238580" lon="-0.6982400">
        <ele>336.0</ele>
        <time>2018-03-05T14:42:38Z</time>
      </trkpt>
      <trkpt lat="38.3238590" lon="-0.6982520">
        <ele>336.0</ele>
        <time>2018-03-05T14:42:39Z</time>
      </trkpt>
      <trkpt lat="38.3238610" lon="-0.6982670">
        <ele>336.0</ele>
        <time>2018-03-05T14:42:40Z</time>
      </trkpt>
      <trkpt lat="38.3238620" lon="-0.6982830">
        <ele>337.0</ele>
        <time>2018-03-05T14:42:41Z</time>
      </trkpt>
      <trkpt lat="38.3238600" lon="-0.6982990">
        <ele>336.0</ele>
        <time>2018-03-05T14:42:42Z</time>
      </trkpt>
      <trkpt lat="38.3238550" lon="-0.6983150">
        <ele>336.0</ele>
        <time>2018-03-05T14:42:43Z</time>
      </trkpt>
      <trkpt lat="38.3238470" lon="-0.6983340">
        <ele>336.0</ele>
        <time>2018-03-05T14:42:44Z</time>
      </trkpt>
      <trkpt lat="38.3238420" lon="-0.6983580">
        <ele>336.0</ele>
        <time>2018-03-05T14:42:45Z</time>
      </trkpt>
      <trkpt lat="38.3238420" lon="-0.6983780">
        <ele>336.0</ele>
        <time>2018-03-05T14:42:46Z</time>
      </trkpt>
      <trkpt lat="38.3238400" lon="-0.6983940">
        <ele>336.0</ele>
        <time>2018-03-05T14:42:47Z</time>
      </trkpt>
      <trkpt lat="38.3238360" lon="-0.6984110">
        <ele>336.0</ele>
        <time>2018-03-05T14:42:48Z</time>
      </trkpt>
      <trkpt lat="38.3238320" lon="-0.6984270">
        <ele>336.0</ele>
        <time>2018-03-05T14:42:49Z</time>
      </trkpt>
      <trkpt lat="38.3238230" lon="-0.6984410">
        <ele>335.0</ele>
        <time>2018-03-05T14:42:50Z</time>
      </trkpt>
      <trkpt lat="38.3238110" lon="-0.6984500">
        <ele>335.0</ele>
        <time>2018-03-05T14:42:51Z</time>
      </trkpt>
      <trkpt lat="38.3238040" lon="-0.6984580">
        <ele>335.0</ele>
        <time>2018-03-05T14:42:52Z</time>
      </trkpt>
      <trkpt lat="38.3237980" lon="-0.6984680">
        <ele>335.0</ele>
        <time>2018-03-05T14:42:53Z</time>
      </trkpt>
      <trkpt lat="38.3237840" lon="-0.6984880">
        <ele>335.0</ele>
        <time>2018-03-05T14:42:54Z</time>
      </trkpt>
      <trkpt lat="38.3237780" lon="-0.6985090">
        <ele>335.0</ele>
        <time>2018-03-05T14:42:55Z</time>
      </trkpt>
      <trkpt lat="38.3237700" lon="-0.6985300">
        <ele>334.0</ele>
        <time>2018-03-05T14:42:56Z</time>
      </trkpt>
      <trkpt lat="38.3237580" lon="-0.6985610">
        <ele>334.0</ele>
        <time>2018-03-05T14:42:57Z</time>
      </trkpt>
      <trkpt lat="38.3237460" lon="-0.6986010">
        <ele>334.0</ele>
        <time>2018-03-05T14:42:58Z</time>
      </trkpt>
      <trkpt lat="38.3237320" lon="-0.6986380">
        <ele>334.0</ele>
        <time>2018-03-05T14:42:59Z</time>
      </trkpt>
      <trkpt lat="38.3237260" lon="-0.6986750">
        <ele>334.0</ele>
        <time>2018-03-05T14:43:00Z</time>
      </trkpt>
      <trkpt lat="38.3237170" lon="-0.6987120">
        <ele>334.0</ele>
        <time>2018-03-05T14:43:01Z</time>
      </trkpt>
      <trkpt lat="38.3237210" lon="-0.6987500">
        <ele>335.0</ele>
        <time>2018-03-05T14:43:02Z</time>
      </trkpt>
      <trkpt lat="38.3237180" lon="-0.6987790">
        <ele>335.0</ele>
        <time>2018-03-05T14:43:03Z</time>
      </trkpt>
      <trkpt lat="38.3237140" lon="-0.6988110">
        <ele>336.0</ele>
        <time>2018-03-05T14:43:04Z</time>
      </trkpt>
      <trkpt lat="38.3237070" lon="-0.6988440">
        <ele>335.0</ele>
        <time>2018-03-05T14:43:05Z</time>
      </trkpt>
      <trkpt lat="38.3237040" lon="-0.6988900">
        <ele>336.0</ele>
        <time>2018-03-05T14:43:06Z</time>
      </trkpt>
      <trkpt lat="38.3237020" lon="-0.6989290">
        <ele>336.0</ele>
        <time>2018-03-05T14:43:07Z</time>
      </trkpt>
      <trkpt lat="38.3236890" lon="-0.6989610">
        <ele>335.0</ele>
        <time>2018-03-05T14:43:08Z</time>
      </trkpt>
      <trkpt lat="38.3236740" lon="-0.6989790">
        <ele>335.0</ele>
        <time>2018-03-05T14:43:09Z</time>
      </trkpt>
      <trkpt lat="38.3236640" lon="-0.6990000">
        <ele>336.0</ele>
        <time>2018-03-05T14:43:10Z</time>
      </trkpt>
      <trkpt lat="38.3236550" lon="-0.6990320">
        <ele>336.0</ele>
        <time>2018-03-05T14:43:11Z</time>
      </trkpt>
      <trkpt lat="38.3236430" lon="-0.6990700">
        <ele>335.0</ele>
        <time>2018-03-05T14:43:12Z</time>
      </trkpt>
      <trkpt lat="38.3236170" lon="-0.6991020">
        <ele>335.0</ele>
        <time>2018-03-05T14:43:13Z</time>
      </trkpt>
      <trkpt lat="38.3235980" lon="-0.6991430">
        <ele>335.0</ele>
        <time>2018-03-05T14:43:14Z</time>
      </trkpt>
      <trkpt lat="38.3235720" lon="-0.6991820">
        <ele>335.0</ele>
        <time>2018-03-05T14:43:15Z</time>
      </trkpt>
      <trkpt lat="38.3235500" lon="-0.6992370">
        <ele>334.0</ele>
        <time>2018-03-05T14:43:16Z</time>
      </trkpt>
      <trkpt lat="38.3235250" lon="-0.6992840">
        <ele>334.0</ele>
        <time>2018-03-05T14:43:17Z</time>
      </trkpt>
      <trkpt lat="38.3234920" lon="-0.6993250">
        <ele>334.0</ele>
        <time>2018-03-05T14:43:18Z</time>
      </trkpt>
      <trkpt lat="38.3234610" lon="-0.6993340">
        <ele>334.0</ele>
        <time>2018-03-05T14:43:19Z</time>
      </trkpt>
      <trkpt lat="38.3234350" lon="-0.6993550">
        <ele>334.0</ele>
        <time>2018-03-05T14:43:20Z</time>
      </trkpt>
      <trkpt lat="38.3234090" lon="-0.6993740">
        <ele>335.0</ele>
        <time>2018-03-05T14:43:21Z</time>
      </trkpt>
      <trkpt lat="38.3233920" lon="-0.6993950">
        <ele>336.0</ele>
        <time>2018-03-05T14:43:22Z</time>
      </trkpt>
      <trkpt lat="38.3233720" lon="-0.6994180">
        <ele>337.0</ele>
        <time>2018-03-05T14:43:23Z</time>
      </trkpt>
      <trkpt lat="38.3233510" lon="-0.6994430">
        <ele>337.0</ele>
        <time>2018-03-05T14:43:24Z</time>
      </trkpt>
      <trkpt lat="38.3233330" lon="-0.6994640">
        <ele>336.0</ele>
        <time>2018-03-05T14:43:25Z</time>
      </trkpt>
      <trkpt lat="38.3233170" lon="-0.6994850">
        <ele>337.0</ele>
        <time>2018-03-05T14:43:26Z</time>
      </trkpt>
      <trkpt lat="38.3233000" lon="-0.6995080">
        <ele>337.0</ele>
        <time>2018-03-05T14:43:27Z</time>
      </trkpt>
      <trkpt lat="38.3232770" lon="-0.6995320">
        <ele>337.0</ele>
        <time>2018-03-05T14:43:28Z</time>
      </trkpt>
      <trkpt lat="38.3232520" lon="-0.6995540">
        <ele>337.0</ele>
        <time>2018-03-05T14:43:29Z</time>
      </trkpt>
      <trkpt lat="38.3232320" lon="-0.6995820">
        <ele>337.0</ele>
        <time>2018-03-05T14:43:30Z</time>
      </trkpt>
      <trkpt lat="38.3232170" lon="-0.6996150">
        <ele>337.0</ele>
        <time>2018-03-05T14:43:31Z</time>
      </trkpt>
      <trkpt lat="38.3231990" lon="-0.6996430">
        <ele>337.0</ele>
        <time>2018-03-05T14:43:32Z</time>
      </trkpt>
      <trkpt lat="38.3231830" lon="-0.6996760">
        <ele>337.0</ele>
        <time>2018-03-05T14:43:33Z</time>
      </trkpt>
      <trkpt lat="38.3231650" lon="-0.6997080">
        <ele>336.0</ele>
        <time>2018-03-05T14:43:34Z</time>
      </trkpt>
      <trkpt lat="38.3231380" lon="-0.6997330">
        <ele>336.0</ele>
        <time>2018-03-05T14:43:35Z</time>
      </trkpt>
      <trkpt lat="38.3231140" lon="-0.6997550">
        <ele>337.0</ele>
        <time>2018-03-05T14:43:36Z</time>
      </trkpt>
      <trkpt lat="38.3230970" lon="-0.6997780">
        <ele>336.0</ele>
        <time>2018-03-05T14:43:37Z</time>
      </trkpt>
      <trkpt lat="38.3230880" lon="-0.6998060">
        <ele>337.0</ele>
        <time>2018-03-05T14:43:38Z</time>
      </trkpt>
      <trkpt lat="38.3230810" lon="-0.6998520">
        <ele>339.0</ele>
        <time>2018-03-05T14:43:39Z</time>
      </trkpt>
      <trkpt lat="38.3230780" lon="-0.6998920">
        <ele>339.0</ele>
        <time>2018-03-05T14:43:40Z</time>
      </trkpt>
      <trkpt lat="38.3230740" lon="-0.6999340">
        <ele>340.0</ele>
        <time>2018-03-05T14:43:41Z</time>
      </trkpt>
      <trkpt lat="38.3230680" lon="-0.6999780">
        <ele>340.0</ele>
        <time>2018-03-05T14:43:42Z</time>
      </trkpt>
      <trkpt lat="38.3230640" lon="-0.7000290">
        <ele>339.0</ele>
        <time>2018-03-05T14:43:43Z</time>
      </trkpt>
      <trkpt lat="38.3230550" lon="-0.7000800">
        <ele>339.0</ele>
        <time>2018-03-05T14:43:44Z</time>
      </trkpt>
      <trkpt lat="38.3230510" lon="-0.7001380">
        <ele>339.0</ele>
        <time>2018-03-05T14:43:45Z</time>
      </trkpt>
      <trkpt lat="38.3230580" lon="-0.7002000">
        <ele>338.0</ele>
        <time>2018-03-05T14:43:46Z</time>
      </trkpt>
      <trkpt lat="38.3230580" lon="-0.7002660">
        <ele>337.0</ele>
        <time>2018-03-05T14:43:47Z</time>
      </trkpt>
      <trkpt lat="38.3230580" lon="-0.7003310">
        <ele>337.0</ele>
        <time>2018-03-05T14:43:48Z</time>
      </trkpt>
      <trkpt lat="38.3230610" lon="-0.7003830">
        <ele>336.0</ele>
        <time>2018-03-05T14:43:49Z</time>
      </trkpt>
      <trkpt lat="38.3230680" lon="-0.7004370">
        <ele>335.0</ele>
        <time>2018-03-05T14:43:50Z</time>
      </trkpt>
      <trkpt lat="38.3230870" lon="-0.7004950">
        <ele>335.0</ele>
        <time>2018-03-05T14:43:51Z</time>
      </trkpt>
      <trkpt lat="38.3231030" lon="-0.7005600">
        <ele>333.0</ele>
        <time>2018-03-05T14:43:52Z</time>
      </trkpt>
      <trkpt lat="38.3231140" lon="-0.7006410">
        <ele>333.0</ele>
        <time>2018-03-05T14:43:53Z</time>
      </trkpt>
      <trkpt lat="38.3231230" lon="-0.7007240">
        <ele>333.0</ele>
        <time>2018-03-05T14:43:54Z</time>
      </trkpt>
      <trkpt lat="38.3231400" lon="-0.7008060">
        <ele>333.0</ele>
        <time>2018-03-05T14:43:55Z</time>
      </trkpt>
      <trkpt lat="38.3231550" lon="-0.7008850">
        <ele>333.0</ele>
        <time>2018-03-05T14:43:56Z</time>
      </trkpt>
      <trkpt lat="38.3231710" lon="-0.7009640">
        <ele>332.0</ele>
        <time>2018-03-05T14:43:57Z</time>
      </trkpt>
      <trkpt lat="38.3231880" lon="-0.7010410">
        <ele>333.0</ele>
        <time>2018-03-05T14:43:58Z</time>
      </trkpt>
      <trkpt lat="38.3232050" lon="-0.7011140">
        <ele>333.0</ele>
        <time>2018-03-05T14:43:59Z</time>
      </trkpt>
      <trkpt lat="38.3232180" lon="-0.7011850">
        <ele>333.0</ele>
        <time>2018-03-05T14:44:00Z</time>
      </trkpt>
      <trkpt lat="38.3232320" lon="-0.7012560">
        <ele>333.0</ele>
        <time>2018-03-05T14:44:01Z</time>
      </trkpt>
      <trkpt lat="38.3232440" lon="-0.7013280">
        <ele>334.0</ele>
        <time>2018-03-05T14:44:02Z</time>
      </trkpt>
      <trkpt lat="38.3232530" lon="-0.7013980">
        <ele>334.0</ele>
        <time>2018-03-05T14:44:03Z</time>
      </trkpt>
      <trkpt lat="38.3232670" lon="-0.7014660">
        <ele>334.0</ele>
        <time>2018-03-05T14:44:04Z</time>
      </trkpt>
      <trkpt lat="38.3232810" lon="-0.7015350">
        <ele>333.0</ele>
        <time>2018-03-05T14:44:05Z</time>
      </trkpt>
      <trkpt lat="38.3233000" lon="-0.7016080">
        <ele>334.0</ele>
        <time>2018-03-05T14:44:06Z</time>
      </trkpt>
      <trkpt lat="38.3233140" lon="-0.7016780">
        <ele>334.0</ele>
        <time>2018-03-05T14:44:07Z</time>
      </trkpt>
      <trkpt lat="38.3233270" lon="-0.7017450">
        <ele>334.0</ele>
        <time>2018-03-05T14:44:08Z</time>
      </trkpt>
      <trkpt lat="38.3233420" lon="-0.7018130">
        <ele>334.0</ele>
        <time>2018-03-05T14:44:09Z</time>
      </trkpt>
      <trkpt lat="38.3233590" lon="-0.7018800">
        <ele>334.0</ele>
        <time>2018-03-05T14:44:10Z</time>
      </trkpt>
      <trkpt lat="38.3233770" lon="-0.7019470">
        <ele>334.0</ele>
        <time>2018-03-05T14:44:11Z</time>
      </trkpt>
      <trkpt lat="38.3233910" lon="-0.7020180">
        <ele>334.0</ele>
        <time>2018-03-05T14:44:12Z</time>
      </trkpt>
      <trkpt lat="38.3234110" lon="-0.7020830">
        <ele>334.0</ele>
        <time>2018-03-05T14:44:13Z</time>
      </trkpt>
      <trkpt lat="38.3234310" lon="-0.7021500">
        <ele>333.0</ele>
        <time>2018-03-05T14:44:14Z</time>
      </trkpt>
      <trkpt lat="38.3234510" lon="-0.7022230">
        <ele>333.0</ele>
        <time>2018-03-05T14:44:15Z</time>
      </trkpt>
      <trkpt lat="38.3234700" lon="-0.7022940">
        <ele>333.0</ele>
        <time>2018-03-05T14:44:16Z</time>
      </trkpt>
      <trkpt lat="38.3234900" lon="-0.7023640">
        <ele>333.0</ele>
        <time>2018-03-05T14:44:17Z</time>
      </trkpt>
      <trkpt lat="38.3235120" lon="-0.7024280">
        <ele>333.0</ele>
        <time>2018-03-05T14:44:18Z</time>
      </trkpt>
      <trkpt lat="38.3235360" lon="-0.7024840">
        <ele>334.0</ele>
        <time>2018-03-05T14:44:19Z</time>
      </trkpt>
      <trkpt lat="38.3235650" lon="-0.7025270">
        <ele>334.0</ele>
        <time>2018-03-05T14:44:20Z</time>
      </trkpt>
      <trkpt lat="38.3235870" lon="-0.7025530">
        <ele>334.0</ele>
        <time>2018-03-05T14:44:21Z</time>
      </trkpt>
      <trkpt lat="38.3236030" lon="-0.7025660">
        <ele>334.0</ele>
        <time>2018-03-05T14:44:22Z</time>
      </trkpt>
      <trkpt lat="38.3236200" lon="-0.7025820">
        <ele>334.0</ele>
        <time>2018-03-05T14:44:23Z</time>
      </trkpt>
      <trkpt lat="38.3236480" lon="-0.7026020">
        <ele>334.0</ele>
        <time>2018-03-05T14:44:24Z</time>
      </trkpt>
      <trkpt lat="38.3236720" lon="-0.7026220">
        <ele>334.0</ele>
        <time>2018-03-05T14:44:25Z</time>
      </trkpt>
      <trkpt lat="38.3236970" lon="-0.7026400">
        <ele>334.0</ele>
        <time>2018-03-05T14:44:26Z</time>
      </trkpt>
      <trkpt lat="38.3237250" lon="-0.7026570">
        <ele>335.0</ele>
        <time>2018-03-05T14:44:27Z</time>
      </trkpt>
      <trkpt lat="38.3237500" lon="-0.7026730">
        <ele>335.0</ele>
        <time>2018-03-05T14:44:28Z</time>
      </trkpt>
      <trkpt lat="38.3237760" lon="-0.7026900">
        <ele>335.0</ele>
        <time>2018-03-05T14:44:29Z</time>
      </trkpt>
      <trkpt lat="38.3238010" lon="-0.7027070">
        <ele>335.0</ele>
        <time>2018-03-05T14:44:30Z</time>
      </trkpt>
      <trkpt lat="38.3238270" lon="-0.7027150">
        <ele>336.0</ele>
        <time>2018-03-05T14:44:31Z</time>
      </trkpt>
      <trkpt lat="38.3238520" lon="-0.7027230">
        <ele>336.0</ele>
        <time>2018-03-05T14:44:32Z</time>
      </trkpt>
      <trkpt lat="38.3238780" lon="-0.7027280">
        <ele>336.0</ele>
        <time>2018-03-05T14:44:33Z</time>
      </trkpt>
      <trkpt lat="38.3239020" lon="-0.7027310">
        <ele>336.0</ele>
        <time>2018-03-05T14:44:34Z</time>
      </trkpt>
      <trkpt lat="38.3239300" lon="-0.7027320">
        <ele>337.0</ele>
        <time>2018-03-05T14:44:35Z</time>
      </trkpt>
      <trkpt lat="38.3239540" lon="-0.7027310">
        <ele>337.0</ele>
        <time>2018-03-05T14:44:36Z</time>
      </trkpt>
      <trkpt lat="38.3239800" lon="-0.7027340">
        <ele>337.0</ele>
        <time>2018-03-05T14:44:37Z</time>
      </trkpt>
      <trkpt lat="38.3240080" lon="-0.7027400">
        <ele>337.0</ele>
        <time>2018-03-05T14:44:38Z</time>
      </trkpt>
      <trkpt lat="38.3240350" lon="-0.7027430">
        <ele>338.0</ele>
        <time>2018-03-05T14:44:39Z</time>
      </trkpt>
      <trkpt lat="38.3240610" lon="-0.7027450">
        <ele>338.0</ele>
        <time>2018-03-05T14:44:40Z</time>
      </trkpt>
      <trkpt lat="38.3240880" lon="-0.7027500">
        <ele>338.0</ele>
        <time>2018-03-05T14:44:41Z</time>
      </trkpt>
      <trkpt lat="38.3241140" lon="-0.7027530">
        <ele>338.0</ele>
        <time>2018-03-05T14:44:42Z</time>
      </trkpt>
      <trkpt lat="38.3241420" lon="-0.7027570">
        <ele>338.0</ele>
        <time>2018-03-05T14:44:43Z</time>
      </trkpt>
      <trkpt lat="38.3241690" lon="-0.7027600">
        <ele>338.0</ele>
        <time>2018-03-05T14:44:44Z</time>
      </trkpt>
      <trkpt lat="38.3241980" lon="-0.7027620">
        <ele>338.0</ele>
        <time>2018-03-05T14:44:45Z</time>
      </trkpt>
      <trkpt lat="38.3242260" lon="-0.7027630">
        <ele>338.0</ele>
        <time>2018-03-05T14:44:46Z</time>
      </trkpt>
      <trkpt lat="38.3242550" lon="-0.7027630">
        <ele>339.0</ele>
        <time>2018-03-05T14:44:47Z</time>
      </trkpt>
      <trkpt lat="38.3242830" lon="-0.7027560">
        <ele>338.0</ele>
        <time>2018-03-05T14:44:48Z</time>
      </trkpt>
      <trkpt lat="38.3243130" lon="-0.7027480">
        <ele>338.0</ele>
        <time>2018-03-05T14:44:49Z</time>
      </trkpt>
      <trkpt lat="38.3243420" lon="-0.7027380">
        <ele>339.0</ele>
        <time>2018-03-05T14:44:50Z</time>
      </trkpt>
      <trkpt lat="38.3243680" lon="-0.7027230">
        <ele>339.0</ele>
        <time>2018-03-05T14:44:51Z</time>
      </trkpt>
      <trkpt lat="38.3243960" lon="-0.7027080">
        <ele>339.0</ele>
        <time>2018-03-05T14:44:52Z</time>
      </trkpt>
      <trkpt lat="38.3244220" lon="-0.7026950">
        <ele>339.0</ele>
        <time>2018-03-05T14:44:53Z</time>
      </trkpt>
      <trkpt lat="38.3244460" lon="-0.7026800">
        <ele>340.0</ele>
        <time>2018-03-05T14:44:54Z</time>
      </trkpt>
      <trkpt lat="38.3244700" lon="-0.7026650">
        <ele>340.0</ele>
        <time>2018-03-05T14:44:55Z</time>
      </trkpt>
      <trkpt lat="38.3244950" lon="-0.7026500">
        <ele>340.0</ele>
        <time>2018-03-05T14:44:56Z</time>
      </trkpt>
      <trkpt lat="38.3245210" lon="-0.7026370">
        <ele>340.0</ele>
        <time>2018-03-05T14:44:57Z</time>
      </trkpt>
      <trkpt lat="38.3245470" lon="-0.7026250">
        <ele>340.0</ele>
        <time>2018-03-05T14:44:58Z</time>
      </trkpt>
      <trkpt lat="38.3245730" lon="-0.7026160">
        <ele>341.0</ele>
        <time>2018-03-05T14:44:59Z</time>
      </trkpt>
      <trkpt lat="38.3246010" lon="-0.7026080">
        <ele>341.0</ele>
        <time>2018-03-05T14:45:00Z</time>
      </trkpt>
      <trkpt lat="38.3246280" lon="-0.7026000">
        <ele>341.0</ele>
        <time>2018-03-05T14:45:01Z</time>
      </trkpt>
      <trkpt lat="38.3246560" lon="-0.7025940">
        <ele>341.0</ele>
        <time>2018-03-05T14:45:02Z</time>
      </trkpt>
      <trkpt lat="38.3246840" lon="-0.7025890">
        <ele>341.0</ele>
        <time>2018-03-05T14:45:03Z</time>
      </trkpt>
      <trkpt lat="38.3247100" lon="-0.7025830">
        <ele>342.0</ele>
        <time>2018-03-05T14:45:04Z</time>
      </trkpt>
      <trkpt lat="38.3247380" lon="-0.7025800">
        <ele>342.0</ele>
        <time>2018-03-05T14:45:05Z</time>
      </trkpt>
      <trkpt lat="38.3247680" lon="-0.7025840">
        <ele>342.0</ele>
        <time>2018-03-05T14:45:06Z</time>
      </trkpt>
      <trkpt lat="38.3247940" lon="-0.7025820">
        <ele>342.0</ele>
        <time>2018-03-05T14:45:07Z</time>
      </trkpt>
      <trkpt lat="38.3248190" lon="-0.7025830">
        <ele>342.0</ele>
        <time>2018-03-05T14:45:08Z</time>
      </trkpt>
      <trkpt lat="38.3248410" lon="-0.7025850">
        <ele>342.0</ele>
        <time>2018-03-05T14:45:09Z</time>
      </trkpt>
      <trkpt lat="38.3248650" lon="-0.7025870">
        <ele>343.0</ele>
        <time>2018-03-05T14:45:10Z</time>
      </trkpt>
      <trkpt lat="38.3248870" lon="-0.7025920">
        <ele>343.0</ele>
        <time>2018-03-05T14:45:11Z</time>
      </trkpt>
      <trkpt lat="38.3249100" lon="-0.7025930">
        <ele>343.0</ele>
        <time>2018-03-05T14:45:12Z</time>
      </trkpt>
      <trkpt lat="38.3249340" lon="-0.7025950">
        <ele>343.0</ele>
        <time>2018-03-05T14:45:13Z</time>
      </trkpt>
      <trkpt lat="38.3249580" lon="-0.7025970">
        <ele>343.0</ele>
        <time>2018-03-05T14:45:14Z</time>
      </trkpt>
      <trkpt lat="38.3249820" lon="-0.7025970">
        <ele>344.0</ele>
        <time>2018-03-05T14:45:15Z</time>
      </trkpt>
      <trkpt lat="38.3250050" lon="-0.7025990">
        <ele>344.0</ele>
        <time>2018-03-05T14:45:16Z</time>
      </trkpt>
      <trkpt lat="38.3250300" lon="-0.7026040">
        <ele>344.0</ele>
        <time>2018-03-05T14:45:17Z</time>
      </trkpt>
      <trkpt lat="38.3250550" lon="-0.7026090">
        <ele>344.0</ele>
        <time>2018-03-05T14:45:18Z</time>
      </trkpt>
      <trkpt lat="38.3250810" lon="-0.7026130">
        <ele>344.0</ele>
        <time>2018-03-05T14:45:19Z</time>
      </trkpt>
      <trkpt lat="38.3251050" lon="-0.7026170">
        <ele>345.0</ele>
        <time>2018-03-05T14:45:20Z</time>
      </trkpt>
      <trkpt lat="38.3251280" lon="-0.7026220">
        <ele>345.0</ele>
        <time>2018-03-05T14:45:21Z</time>
      </trkpt>
      <trkpt lat="38.3251520" lon="-0.7026280">
        <ele>345.0</ele>
        <time>2018-03-05T14:45:22Z</time>
      </trkpt>
      <trkpt lat="38.3251740" lon="-0.7026330">
        <ele>345.0</ele>
        <time>2018-03-05T14:45:23Z</time>
      </trkpt>
      <trkpt lat="38.3251960" lon="-0.7026390">
        <ele>346.0</ele>
        <time>2018-03-05T14:45:24Z</time>
      </trkpt>
      <trkpt lat="38.3252180" lon="-0.7026420">
        <ele>346.0</ele>
        <time>2018-03-05T14:45:25Z</time>
      </trkpt>
      <trkpt lat="38.3252410" lon="-0.7026440">
        <ele>346.0</ele>
        <time>2018-03-05T14:45:26Z</time>
      </trkpt>
      <trkpt lat="38.3252640" lon="-0.7026470">
        <ele>346.0</ele>
        <time>2018-03-05T14:45:27Z</time>
      </trkpt>
      <trkpt lat="38.3252880" lon="-0.7026540">
        <ele>346.0</ele>
        <time>2018-03-05T14:45:28Z</time>
      </trkpt>
      <trkpt lat="38.3253140" lon="-0.7026590">
        <ele>346.0</ele>
        <time>2018-03-05T14:45:29Z</time>
      </trkpt>
      <trkpt lat="38.3253370" lon="-0.7026580">
        <ele>346.0</ele>
        <time>2018-03-05T14:45:30Z</time>
      </trkpt>
      <trkpt lat="38.3253590" lon="-0.7026560">
        <ele>347.0</ele>
        <time>2018-03-05T14:45:31Z</time>
      </trkpt>
      <trkpt lat="38.3253810" lon="-0.7026560">
        <ele>347.0</ele>
        <time>2018-03-05T14:45:32Z</time>
      </trkpt>
      <trkpt lat="38.3254030" lon="-0.7026540">
        <ele>347.0</ele>
        <time>2018-03-05T14:45:33Z</time>
      </trkpt>
      <trkpt lat="38.3254220" lon="-0.7026490">
        <ele>347.0</ele>
        <time>2018-03-05T14:45:34Z</time>
      </trkpt>
      <trkpt lat="38.3254420" lon="-0.7026420">
        <ele>347.0</ele>
        <time>2018-03-05T14:45:35Z</time>
      </trkpt>
      <trkpt lat="38.3254620" lon="-0.7026390">
        <ele>347.0</ele>
        <time>2018-03-05T14:45:36Z</time>
      </trkpt>
      <trkpt lat="38.3254840" lon="-0.7026340">
        <ele>348.0</ele>
        <time>2018-03-05T14:45:37Z</time>
      </trkpt>
      <trkpt lat="38.3255050" lon="-0.7026290">
        <ele>348.0</ele>
        <time>2018-03-05T14:45:38Z</time>
      </trkpt>
      <trkpt lat="38.3255250" lon="-0.7026210">
        <ele>348.0</ele>
        <time>2018-03-05T14:45:39Z</time>
      </trkpt>
      <trkpt lat="38.3255500" lon="-0.7026140">
        <ele>348.0</ele>
        <time>2018-03-05T14:45:40Z</time>
      </trkpt>
      <trkpt lat="38.3255740" lon="-0.7026010">
        <ele>348.0</ele>
        <time>2018-03-05T14:45:41Z</time>
      </trkpt>
      <trkpt lat="38.3256020" lon="-0.7025870">
        <ele>348.0</ele>
        <time>2018-03-05T14:45:42Z</time>
      </trkpt>
      <trkpt lat="38.3256320" lon="-0.7025760">
        <ele>349.0</ele>
        <time>2018-03-05T14:45:43Z</time>
      </trkpt>
      <trkpt lat="38.3256620" lon="-0.7025650">
        <ele>349.0</ele>
        <time>2018-03-05T14:45:44Z</time>
      </trkpt>
      <trkpt lat="38.3256930" lon="-0.7025530">
        <ele>349.0</ele>
        <time>2018-03-05T14:45:45Z</time>
      </trkpt>
      <trkpt lat="38.3257220" lon="-0.7025430">
        <ele>349.0</ele>
        <time>2018-03-05T14:45:46Z</time>
      </trkpt>
      <trkpt lat="38.3257530" lon="-0.7025350">
        <ele>349.0</ele>
        <time>2018-03-05T14:45:47Z</time>
      </trkpt>
      <trkpt lat="38.3257830" lon="-0.7025260">
        <ele>349.0</ele>
        <time>2018-03-05T14:45:48Z</time>
      </trkpt>
      <trkpt lat="38.3258110" lon="-0.7025180">
        <ele>350.0</ele>
        <time>2018-03-05T14:45:49Z</time>
      </trkpt>
      <trkpt lat="38.3258400" lon="-0.7025130">
        <ele>350.0</ele>
        <time>2018-03-05T14:45:50Z</time>
      </trkpt>
      <trkpt lat="38.3258660" lon="-0.7025070">
        <ele>350.0</ele>
        <time>2018-03-05T14:45:51Z</time>
      </trkpt>
      <trkpt lat="38.3258910" lon="-0.7025020">
        <ele>350.0</ele>
        <time>2018-03-05T14:45:52Z</time>
      </trkpt>
      <trkpt lat="38.3259100" lon="-0.7024940">
        <ele>350.0</ele>
        <time>2018-03-05T14:45:53Z</time>
      </trkpt>
      <trkpt lat="38.3259300" lon="-0.7024870">
        <ele>351.0</ele>
        <time>2018-03-05T14:45:54Z</time>
      </trkpt>
      <trkpt lat="38.3259510" lon="-0.7024790">
        <ele>351.0</ele>
        <time>2018-03-05T14:45:55Z</time>
      </trkpt>
      <trkpt lat="38.3259790" lon="-0.7024710">
        <ele>351.0</ele>
        <time>2018-03-05T14:45:56Z</time>
      </trkpt>
      <trkpt lat="38.3260070" lon="-0.7024650">
        <ele>351.0</ele>
        <time>2018-03-05T14:45:57Z</time>
      </trkpt>
      <trkpt lat="38.3260340" lon="-0.7024600">
        <ele>351.0</ele>
        <time>2018-03-05T14:45:58Z</time>
      </trkpt>
      <trkpt lat="38.3260590" lon="-0.7024570">
        <ele>352.0</ele>
        <time>2018-03-05T14:45:59Z</time>
      </trkpt>
      <trkpt lat="38.3260800" lon="-0.7024510">
        <ele>352.0</ele>
        <time>2018-03-05T14:46:00Z</time>
      </trkpt>
      <trkpt lat="38.3261050" lon="-0.7024420">
        <ele>352.0</ele>
        <time>2018-03-05T14:46:01Z</time>
      </trkpt>
      <trkpt lat="38.3261300" lon="-0.7024330">
        <ele>352.0</ele>
        <time>2018-03-05T14:46:02Z</time>
      </trkpt>
      <trkpt lat="38.3261600" lon="-0.7024260">
        <ele>352.0</ele>
        <time>2018-03-05T14:46:03Z</time>
      </trkpt>
      <trkpt lat="38.3261870" lon="-0.7024180">
        <ele>353.0</ele>
        <time>2018-03-05T14:46:04Z</time>
      </trkpt>
      <trkpt lat="38.3262140" lon="-0.7024090">
        <ele>353.0</ele>
        <time>2018-03-05T14:46:05Z</time>
      </trkpt>
      <trkpt lat="38.3262400" lon="-0.7024010">
        <ele>353.0</ele>
        <time>2018-03-05T14:46:06Z</time>
      </trkpt>
      <trkpt lat="38.3262660" lon="-0.7023950">
        <ele>354.0</ele>
        <time>2018-03-05T14:46:07Z</time>
      </trkpt>
      <trkpt lat="38.3262900" lon="-0.7023880">
        <ele>354.0</ele>
        <time>2018-03-05T14:46:08Z</time>
      </trkpt>
      <trkpt lat="38.3263110" lon="-0.7023810">
        <ele>354.0</ele>
        <time>2018-03-05T14:46:09Z</time>
      </trkpt>
      <trkpt lat="38.3263250" lon="-0.7023710">
        <ele>354.0</ele>
        <time>2018-03-05T14:46:10Z</time>
      </trkpt>
      <trkpt lat="38.3263440" lon="-0.7023640">
        <ele>355.0</ele>
        <time>2018-03-05T14:46:11Z</time>
      </trkpt>
      <trkpt lat="38.3263590" lon="-0.7023610">
        <ele>355.0</ele>
        <time>2018-03-05T14:46:12Z</time>
      </trkpt>
      <trkpt lat="38.3263780" lon="-0.7023540">
        <ele>355.0</ele>
        <time>2018-03-05T14:46:13Z</time>
      </trkpt>
      <trkpt lat="38.3263980" lon="-0.7023450">
        <ele>355.0</ele>
        <time>2018-03-05T14:46:14Z</time>
      </trkpt>
      <trkpt lat="38.3264190" lon="-0.7023380">
        <ele>355.0</ele>
        <time>2018-03-05T14:46:15Z</time>
      </trkpt>
      <trkpt lat="38.3264400" lon="-0.7023300">
        <ele>356.0</ele>
        <time>2018-03-05T14:46:16Z</time>
      </trkpt>
      <trkpt lat="38.3264600" lon="-0.7023200">
        <ele>356.0</ele>
        <time>2018-03-05T14:46:17Z</time>
      </trkpt>
      <trkpt lat="38.3264810" lon="-0.7023110">
        <ele>356.0</ele>
        <time>2018-03-05T14:46:18Z</time>
      </trkpt>
      <trkpt lat="38.3265040" lon="-0.7023010">
        <ele>356.0</ele>
        <time>2018-03-05T14:46:19Z</time>
      </trkpt>
      <trkpt lat="38.3265270" lon="-0.7022880">
        <ele>356.0</ele>
        <time>2018-03-05T14:46:20Z</time>
      </trkpt>
      <trkpt lat="38.3265490" lon="-0.7022720">
        <ele>356.0</ele>
        <time>2018-03-05T14:46:21Z</time>
      </trkpt>
      <trkpt lat="38.3265720" lon="-0.7022510">
        <ele>356.0</ele>
        <time>2018-03-05T14:46:22Z</time>
      </trkpt>
      <trkpt lat="38.3265950" lon="-0.7022280">
        <ele>356.0</ele>
        <time>2018-03-05T14:46:23Z</time>
      </trkpt>
      <trkpt lat="38.3266160" lon="-0.7022000">
        <ele>356.0</ele>
        <time>2018-03-05T14:46:24Z</time>
      </trkpt>
      <trkpt lat="38.3266290" lon="-0.7021680">
        <ele>356.0</ele>
        <time>2018-03-05T14:46:25Z</time>
      </trkpt>
      <trkpt lat="38.3266420" lon="-0.7021290">
        <ele>356.0</ele>
        <time>2018-03-05T14:46:26Z</time>
      </trkpt>
      <trkpt lat="38.3266460" lon="-0.7020860">
        <ele>356.0</ele>
        <time>2018-03-05T14:46:27Z</time>
      </trkpt>
      <trkpt lat="38.3266430" lon="-0.7020480">
        <ele>356.0</ele>
        <time>2018-03-05T14:46:28Z</time>
      </trkpt>
      <trkpt lat="38.3266380" lon="-0.7020070">
        <ele>356.0</ele>
        <time>2018-03-05T14:46:29Z</time>
      </trkpt>
      <trkpt lat="38.3266340" lon="-0.7019650">
        <ele>356.0</ele>
        <time>2018-03-05T14:46:30Z</time>
      </trkpt>
      <trkpt lat="38.3266300" lon="-0.7019200">
        <ele>356.0</ele>
        <time>2018-03-05T14:46:31Z</time>
      </trkpt>
      <trkpt lat="38.3266250" lon="-0.7018780">
        <ele>356.0</ele>
        <time>2018-03-05T14:46:32Z</time>
      </trkpt>
      <trkpt lat="38.3266200" lon="-0.7018380">
        <ele>356.0</ele>
        <time>2018-03-05T14:46:33Z</time>
      </trkpt>
      <trkpt lat="38.3266120" lon="-0.7018020">
        <ele>357.0</ele>
        <time>2018-03-05T14:46:34Z</time>
      </trkpt>
      <trkpt lat="38.3266020" lon="-0.7017680">
        <ele>357.0</ele>
        <time>2018-03-05T14:46:35Z</time>
      </trkpt>
      <trkpt lat="38.3265930" lon="-0.7017370">
        <ele>358.0</ele>
        <time>2018-03-05T14:46:36Z</time>
      </trkpt>
      <trkpt lat="38.3265890" lon="-0.7017040">
        <ele>358.0</ele>
        <time>2018-03-05T14:46:37Z</time>
      </trkpt>
      <trkpt lat="38.3265840" lon="-0.7016720">
        <ele>359.0</ele>
        <time>2018-03-05T14:46:38Z</time>
      </trkpt>
      <trkpt lat="38.3265770" lon="-0.7016390">
        <ele>359.0</ele>
        <time>2018-03-05T14:46:39Z</time>
      </trkpt>
      <trkpt lat="38.3265730" lon="-0.7016060">
        <ele>360.0</ele>
        <time>2018-03-05T14:46:40Z</time>
      </trkpt>
      <trkpt lat="38.3265670" lon="-0.7015730">
        <ele>360.0</ele>
        <time>2018-03-05T14:46:41Z</time>
      </trkpt>
      <trkpt lat="38.3265610" lon="-0.7015410">
        <ele>361.0</ele>
        <time>2018-03-05T14:46:42Z</time>
      </trkpt>
      <trkpt lat="38.3265560" lon="-0.7015110">
        <ele>361.0</ele>
        <time>2018-03-05T14:46:43Z</time>
      </trkpt>
      <trkpt lat="38.3265510" lon="-0.7014820">
        <ele>361.0</ele>
        <time>2018-03-05T14:46:44Z</time>
      </trkpt>
      <trkpt lat="38.3265470" lon="-0.7014500">
        <ele>361.0</ele>
        <time>2018-03-05T14:46:45Z</time>
      </trkpt>
      <trkpt lat="38.3265420" lon="-0.7014150">
        <ele>361.0</ele>
        <time>2018-03-05T14:46:46Z</time>
      </trkpt>
      <trkpt lat="38.3265380" lon="-0.7013780">
        <ele>361.0</ele>
        <time>2018-03-05T14:46:47Z</time>
      </trkpt>
      <trkpt lat="38.3265330" lon="-0.7013390">
        <ele>362.0</ele>
        <time>2018-03-05T14:46:48Z</time>
      </trkpt>
      <trkpt lat="38.3265280" lon="-0.7013010">
        <ele>362.0</ele>
        <time>2018-03-05T14:46:49Z</time>
      </trkpt>
      <trkpt lat="38.3265240" lon="-0.7012670">
        <ele>362.0</ele>
        <time>2018-03-05T14:46:50Z</time>
      </trkpt>
      <trkpt lat="38.3265220" lon="-0.7012300">
        <ele>362.0</ele>
        <time>2018-03-05T14:46:51Z</time>
      </trkpt>
      <trkpt lat="38.3265210" lon="-0.7011890">
        <ele>362.0</ele>
        <time>2018-03-05T14:46:52Z</time>
      </trkpt>
      <trkpt lat="38.3265190" lon="-0.7011440">
        <ele>362.0</ele>
        <time>2018-03-05T14:46:53Z</time>
      </trkpt>
      <trkpt lat="38.3265180" lon="-0.7010970">
        <ele>362.0</ele>
        <time>2018-03-05T14:46:54Z</time>
      </trkpt>
      <trkpt lat="38.3265170" lon="-0.7010470">
        <ele>362.0</ele>
        <time>2018-03-05T14:46:55Z</time>
      </trkpt>
      <trkpt lat="38.3265140" lon="-0.7009960">
        <ele>362.0</ele>
        <time>2018-03-05T14:46:56Z</time>
      </trkpt>
      <trkpt lat="38.3265060" lon="-0.7009390">
        <ele>362.0</ele>
        <time>2018-03-05T14:46:57Z</time>
      </trkpt>
      <trkpt lat="38.3265000" lon="-0.7008830">
        <ele>362.0</ele>
        <time>2018-03-05T14:46:58Z</time>
      </trkpt>
      <trkpt lat="38.3264990" lon="-0.7008290">
        <ele>362.0</ele>
        <time>2018-03-05T14:46:59Z</time>
      </trkpt>
      <trkpt lat="38.3264990" lon="-0.7007790">
        <ele>362.0</ele>
        <time>2018-03-05T14:47:00Z</time>
      </trkpt>
      <trkpt lat="38.3264990" lon="-0.7007340">
        <ele>363.0</ele>
        <time>2018-03-05T14:47:01Z</time>
      </trkpt>
      <trkpt lat="38.3264980" lon="-0.7006940">
        <ele>363.0</ele>
        <time>2018-03-05T14:47:02Z</time>
      </trkpt>
      <trkpt lat="38.3264980" lon="-0.7006590">
        <ele>363.0</ele>
        <time>2018-03-05T14:47:03Z</time>
      </trkpt>
      <trkpt lat="38.3264960" lon="-0.7006230">
        <ele>364.0</ele>
        <time>2018-03-05T14:47:04Z</time>
      </trkpt>
      <trkpt lat="38.3264920" lon="-0.7005860">
        <ele>364.0</ele>
        <time>2018-03-05T14:47:05Z</time>
      </trkpt>
      <trkpt lat="38.3264890" lon="-0.7005500">
        <ele>365.0</ele>
        <time>2018-03-05T14:47:06Z</time>
      </trkpt>
      <trkpt lat="38.3264850" lon="-0.7005160">
        <ele>366.0</ele>
        <time>2018-03-05T14:47:07Z</time>
      </trkpt>
      <trkpt lat="38.3264810" lon="-0.7004810">
        <ele>366.0</ele>
        <time>2018-03-05T14:47:08Z</time>
      </trkpt>
      <trkpt lat="38.3264760" lon="-0.7004470">
        <ele>366.0</ele>
        <time>2018-03-05T14:47:09Z</time>
      </trkpt>
      <trkpt lat="38.3264640" lon="-0.7004110">
        <ele>367.0</ele>
        <time>2018-03-05T14:47:10Z</time>
      </trkpt>
      <trkpt lat="38.3264470" lon="-0.7003740">
        <ele>367.0</ele>
        <time>2018-03-05T14:47:11Z</time>
      </trkpt>
      <trkpt lat="38.3264240" lon="-0.7003390">
        <ele>367.0</ele>
        <time>2018-03-05T14:47:12Z</time>
      </trkpt>
      <trkpt lat="38.3264000" lon="-0.7003050">
        <ele>367.0</ele>
        <time>2018-03-05T14:47:13Z</time>
      </trkpt>
      <trkpt lat="38.3263750" lon="-0.7002710">
        <ele>367.0</ele>
        <time>2018-03-05T14:47:14Z</time>
      </trkpt>
      <trkpt lat="38.3263490" lon="-0.7002390">
        <ele>368.0</ele>
        <time>2018-03-05T14:47:15Z</time>
      </trkpt>
      <trkpt lat="38.3263220" lon="-0.7002120">
        <ele>368.0</ele>
        <time>2018-03-05T14:47:16Z</time>
      </trkpt>
      <trkpt lat="38.3262970" lon="-0.7001910">
        <ele>368.0</ele>
        <time>2018-03-05T14:47:17Z</time>
      </trkpt>
      <trkpt lat="38.3262680" lon="-0.7001760">
        <ele>368.0</ele>
        <time>2018-03-05T14:47:18Z</time>
      </trkpt>
      <trkpt lat="38.3262410" lon="-0.7001590">
        <ele>368.0</ele>
        <time>2018-03-05T14:47:19Z</time>
      </trkpt>
      <trkpt lat="38.3262180" lon="-0.7001360">
        <ele>369.0</ele>
        <time>2018-03-05T14:47:20Z</time>
      </trkpt>
      <trkpt lat="38.3261950" lon="-0.7001110">
        <ele>369.0</ele>
        <time>2018-03-05T14:47:21Z</time>
      </trkpt>
      <trkpt lat="38.3261770" lon="-0.7000870">
        <ele>369.0</ele>
        <time>2018-03-05T14:47:22Z</time>
      </trkpt>
      <trkpt lat="38.3261630" lon="-0.7000590">
        <ele>369.0</ele>
        <time>2018-03-05T14:47:23Z</time>
      </trkpt>
      <trkpt lat="38.3261460" lon="-0.7000350">
        <ele>369.0</ele>
        <time>2018-03-05T14:47:24Z</time>
      </trkpt>
      <trkpt lat="38.3261320" lon="-0.7000040">
        <ele>370.0</ele>
        <time>2018-03-05T14:47:25Z</time>
      </trkpt>
      <trkpt lat="38.3261200" lon="-0.6999700">
        <ele>370.0</ele>
        <time>2018-03-05T14:47:26Z</time>
      </trkpt>
      <trkpt lat="38.3261130" lon="-0.6999330">
        <ele>370.0</ele>
        <time>2018-03-05T14:47:27Z</time>
      </trkpt>
      <trkpt lat="38.3261040" lon="-0.6998950">
        <ele>370.0</ele>
        <time>2018-03-05T14:47:28Z</time>
      </trkpt>
      <trkpt lat="38.3260950" lon="-0.6998560">
        <ele>370.0</ele>
        <time>2018-03-05T14:47:29Z</time>
      </trkpt>
      <trkpt lat="38.3260890" lon="-0.6998180">
        <ele>370.0</ele>
        <time>2018-03-05T14:47:30Z</time>
      </trkpt>
      <trkpt lat="38.3260830" lon="-0.6997810">
        <ele>370.0</ele>
        <time>2018-03-05T14:47:31Z</time>
      </trkpt>
      <trkpt lat="38.3260800" lon="-0.6997520">
        <ele>370.0</ele>
        <time>2018-03-05T14:47:32Z</time>
      </trkpt>
      <trkpt lat="38.3260720" lon="-0.6997210">
        <ele>371.0</ele>
        <time>2018-03-05T14:47:33Z</time>
      </trkpt>
      <trkpt lat="38.3260660" lon="-0.6996900">
        <ele>371.0</ele>
        <time>2018-03-05T14:47:34Z</time>
      </trkpt>
      <trkpt lat="38.3260610" lon="-0.6996590">
        <ele>371.0</ele>
        <time>2018-03-05T14:47:35Z</time>
      </trkpt>
      <trkpt lat="38.3260580" lon="-0.6996250">
        <ele>371.0</ele>
        <time>2018-03-05T14:47:36Z</time>
      </trkpt>
      <trkpt lat="38.3260560" lon="-0.6995910">
        <ele>372.0</ele>
        <time>2018-03-05T14:47:37Z</time>
      </trkpt>
      <trkpt lat="38.3260580" lon="-0.6995600">
        <ele>372.0</ele>
        <time>2018-03-05T14:47:38Z</time>
      </trkpt>
      <trkpt lat="38.3260620" lon="-0.6995270">
        <ele>372.0</ele>
        <time>2018-03-05T14:47:39Z</time>
      </trkpt>
      <trkpt lat="38.3260660" lon="-0.6994950">
        <ele>372.0</ele>
        <time>2018-03-05T14:47:40Z</time>
      </trkpt>
      <trkpt lat="38.3260680" lon="-0.6994640">
        <ele>372.0</ele>
        <time>2018-03-05T14:47:41Z</time>
      </trkpt>
      <trkpt lat="38.3260720" lon="-0.6994320">
        <ele>372.0</ele>
        <time>2018-03-05T14:47:42Z</time>
      </trkpt>
      <trkpt lat="38.3260790" lon="-0.6994010">
        <ele>372.0</ele>
        <time>2018-03-05T14:47:43Z</time>
      </trkpt>
      <trkpt lat="38.3260840" lon="-0.6993700">
        <ele>373.0</ele>
        <time>2018-03-05T14:47:44Z</time>
      </trkpt>
      <trkpt lat="38.3260890" lon="-0.6993340">
        <ele>373.0</ele>
        <time>2018-03-05T14:47:45Z</time>
      </trkpt>
      <trkpt lat="38.3260950" lon="-0.6993020">
        <ele>373.0</ele>
        <time>2018-03-05T14:47:46Z</time>
      </trkpt>
      <trkpt lat="38.3261010" lon="-0.6992690">
        <ele>373.0</ele>
        <time>2018-03-05T14:47:47Z</time>
      </trkpt>
      <trkpt lat="38.3261070" lon="-0.6992370">
        <ele>374.0</ele>
        <time>2018-03-05T14:47:48Z</time>
      </trkpt>
      <trkpt lat="38.3261150" lon="-0.6992040">
        <ele>374.0</ele>
        <time>2018-03-05T14:47:49Z</time>
      </trkpt>
      <trkpt lat="38.3261250" lon="-0.6991700">
        <ele>374.0</ele>
        <time>2018-03-05T14:47:50Z</time>
      </trkpt>
      <trkpt lat="38.3261380" lon="-0.6991370">
        <ele>374.0</ele>
        <time>2018-03-05T14:47:51Z</time>
      </trkpt>
      <trkpt lat="38.3261540" lon="-0.6991050">
        <ele>374.0</ele>
        <time>2018-03-05T14:47:52Z</time>
      </trkpt>
      <trkpt lat="38.3261740" lon="-0.6990730">
        <ele>374.0</ele>
        <time>2018-03-05T14:47:53Z</time>
      </trkpt>
      <trkpt lat="38.3261910" lon="-0.6990390">
        <ele>375.0</ele>
        <time>2018-03-05T14:47:54Z</time>
      </trkpt>
      <trkpt lat="38.3262070" lon="-0.6990060">
        <ele>375.0</ele>
        <time>2018-03-05T14:47:55Z</time>
      </trkpt>
      <trkpt lat="38.3262320" lon="-0.6989760">
        <ele>375.0</ele>
        <time>2018-03-05T14:47:56Z</time>
      </trkpt>
      <trkpt lat="38.3262610" lon="-0.6989450">
        <ele>375.0</ele>
        <time>2018-03-05T14:47:57Z</time>
      </trkpt>
      <trkpt lat="38.3262940" lon="-0.6989120">
        <ele>374.0</ele>
        <time>2018-03-05T14:47:58Z</time>
      </trkpt>
      <trkpt lat="38.3263300" lon="-0.6988770">
        <ele>374.0</ele>
        <time>2018-03-05T14:47:59Z</time>
      </trkpt>
      <trkpt lat="38.3263740" lon="-0.6988410">
        <ele>374.0</ele>
        <time>2018-03-05T14:48:00Z</time>
      </trkpt>
      <trkpt lat="38.3264200" lon="-0.6988030">
        <ele>374.0</ele>
        <time>2018-03-05T14:48:01Z</time>
      </trkpt>
      <trkpt lat="38.3264710" lon="-0.6987640">
        <ele>374.0</ele>
        <time>2018-03-05T14:48:02Z</time>
      </trkpt>
      <trkpt lat="38.3265250" lon="-0.6987290">
        <ele>374.0</ele>
        <time>2018-03-05T14:48:03Z</time>
      </trkpt>
      <trkpt lat="38.3265810" lon="-0.6986930">
        <ele>373.0</ele>
        <time>2018-03-05T14:48:04Z</time>
      </trkpt>
      <trkpt lat="38.3266380" lon="-0.6986550">
        <ele>373.0</ele>
        <time>2018-03-05T14:48:05Z</time>
      </trkpt>
      <trkpt lat="38.3266960" lon="-0.6986170">
        <ele>373.0</ele>
        <time>2018-03-05T14:48:06Z</time>
      </trkpt>
      <trkpt lat="38.3267550" lon="-0.6985820">
        <ele>373.0</ele>
        <time>2018-03-05T14:48:07Z</time>
      </trkpt>
      <trkpt lat="38.3268170" lon="-0.6985530">
        <ele>373.0</ele>
        <time>2018-03-05T14:48:08Z</time>
      </trkpt>
      <trkpt lat="38.3268830" lon="-0.6985260">
        <ele>373.0</ele>
        <time>2018-03-05T14:48:09Z</time>
      </trkpt>
      <trkpt lat="38.3269480" lon="-0.6985040">
        <ele>373.0</ele>
        <time>2018-03-05T14:48:10Z</time>
      </trkpt>
      <trkpt lat="38.3270140" lon="-0.6984850">
        <ele>372.0</ele>
        <time>2018-03-05T14:48:11Z</time>
      </trkpt>
      <trkpt lat="38.3270770" lon="-0.6984590">
        <ele>372.0</ele>
        <time>2018-03-05T14:48:12Z</time>
      </trkpt>
      <trkpt lat="38.3271400" lon="-0.6984290">
        <ele>371.0</ele>
        <time>2018-03-05T14:48:13Z</time>
      </trkpt>
      <trkpt lat="38.3271940" lon="-0.6983520">
        <ele>371.0</ele>
        <time>2018-03-05T14:48:14Z</time>
      </trkpt>
      <trkpt lat="38.3272340" lon="-0.6982720">
        <ele>370.0</ele>
        <time>2018-03-05T14:48:15Z</time>
      </trkpt>
      <trkpt lat="38.3272770" lon="-0.6982060">
        <ele>370.0</ele>
        <time>2018-03-05T14:48:16Z</time>
      </trkpt>
      <trkpt lat="38.3273280" lon="-0.6981550">
        <ele>370.0</ele>
        <time>2018-03-05T14:48:17Z</time>
      </trkpt>
      <trkpt lat="38.3273730" lon="-0.6981150">
        <ele>370.0</ele>
        <time>2018-03-05T14:48:18Z</time>
      </trkpt>
      <trkpt lat="38.3274180" lon="-0.6980850">
        <ele>370.0</ele>
        <time>2018-03-05T14:48:19Z</time>
      </trkpt>
      <trkpt lat="38.3274530" lon="-0.6980790">
        <ele>370.0</ele>
        <time>2018-03-05T14:48:20Z</time>
      </trkpt>
      <trkpt lat="38.3274870" lon="-0.6980700">
        <ele>370.0</ele>
        <time>2018-03-05T14:48:21Z</time>
      </trkpt>
      <trkpt lat="38.3275180" lon="-0.6980660">
        <ele>371.0</ele>
        <time>2018-03-05T14:48:22Z</time>
      </trkpt>
      <trkpt lat="38.3275410" lon="-0.6980660">
        <ele>371.0</ele>
        <time>2018-03-05T14:48:23Z</time>
      </trkpt>
      <trkpt lat="38.3275650" lon="-0.6980680">
        <ele>372.0</ele>
        <time>2018-03-05T14:48:24Z</time>
      </trkpt>
      <trkpt lat="38.3275740" lon="-0.6980750">
        <ele>372.0</ele>
        <time>2018-03-05T14:48:25Z</time>
      </trkpt>
      <trkpt lat="38.3275830" lon="-0.6980900">
        <ele>372.0</ele>
        <time>2018-03-05T14:48:26Z</time>
      </trkpt>
      <trkpt lat="38.3275930" lon="-0.6981050">
        <ele>372.0</ele>
        <time>2018-03-05T14:48:27Z</time>
      </trkpt>
      <trkpt lat="38.3276030" lon="-0.6981220">
        <ele>373.0</ele>
        <time>2018-03-05T14:48:28Z</time>
      </trkpt>
      <trkpt lat="38.3276140" lon="-0.6981420">
        <ele>373.0</ele>
        <time>2018-03-05T14:48:29Z</time>
      </trkpt>
      <trkpt lat="38.3276250" lon="-0.6981590">
        <ele>373.0</ele>
        <time>2018-03-05T14:48:30Z</time>
      </trkpt>
      <trkpt lat="38.3276380" lon="-0.6981760">
        <ele>374.0</ele>
        <time>2018-03-05T14:48:31Z</time>
      </trkpt>
      <trkpt lat="38.3276500" lon="-0.6981950">
        <ele>374.0</ele>
        <time>2018-03-05T14:48:32Z</time>
      </trkpt>
      <trkpt lat="38.3276620" lon="-0.6982120">
        <ele>374.0</ele>
        <time>2018-03-05T14:48:33Z</time>
      </trkpt>
      <trkpt lat="38.3276720" lon="-0.6982250">
        <ele>374.0</ele>
        <time>2018-03-05T14:48:34Z</time>
      </trkpt>
      <trkpt lat="38.3276820" lon="-0.6982380">
        <ele>375.0</ele>
        <time>2018-03-05T14:48:35Z</time>
      </trkpt>
      <trkpt lat="38.3276930" lon="-0.6982520">
        <ele>375.0</ele>
        <time>2018-03-05T14:48:36Z</time>
      </trkpt>
      <trkpt lat="38.3277010" lon="-0.6982660">
        <ele>375.0</ele>
        <time>2018-03-05T14:48:37Z</time>
      </trkpt>
      <trkpt lat="38.3277090" lon="-0.6982800">
        <ele>375.0</ele>
        <time>2018-03-05T14:48:38Z</time>
      </trkpt>
      <trkpt lat="38.3277180" lon="-0.6982910">
        <ele>376.0</ele>
        <time>2018-03-05T14:48:39Z</time>
      </trkpt>
      <trkpt lat="38.3277290" lon="-0.6983020">
        <ele>376.0</ele>
        <time>2018-03-05T14:48:40Z</time>
      </trkpt>
      <trkpt lat="38.3277390" lon="-0.6983130">
        <ele>376.0</ele>
        <time>2018-03-05T14:48:41Z</time>
      </trkpt>
      <trkpt lat="38.3277490" lon="-0.6983230">
        <ele>376.0</ele>
        <time>2018-03-05T14:48:42Z</time>
      </trkpt>
      <trkpt lat="38.3277580" lon="-0.6983330">
        <ele>377.0</ele>
        <time>2018-03-05T14:48:43Z</time>
      </trkpt>
      <trkpt lat="38.3277670" lon="-0.6983460">
        <ele>377.0</ele>
        <time>2018-03-05T14:48:44Z</time>
      </trkpt>
      <trkpt lat="38.3277760" lon="-0.6983600">
        <ele>377.0</ele>
        <time>2018-03-05T14:48:45Z</time>
      </trkpt>
      <trkpt lat="38.3277840" lon="-0.6983740">
        <ele>377.0</ele>
        <time>2018-03-05T14:48:46Z</time>
      </trkpt>
      <trkpt lat="38.3277920" lon="-0.6983860">
        <ele>378.0</ele>
        <time>2018-03-05T14:48:47Z</time>
      </trkpt>
      <trkpt lat="38.3278000" lon="-0.6983980">
        <ele>378.0</ele>
        <time>2018-03-05T14:48:48Z</time>
      </trkpt>
      <trkpt lat="38.3278080" lon="-0.6984090">
        <ele>378.0</ele>
        <time>2018-03-05T14:48:49Z</time>
      </trkpt>
      <trkpt lat="38.3278170" lon="-0.6984210">
        <ele>378.0</ele>
        <time>2018-03-05T14:48:50Z</time>
      </trkpt>
      <trkpt lat="38.3278270" lon="-0.6984340">
        <ele>379.0</ele>
        <time>2018-03-05T14:48:51Z</time>
      </trkpt>
      <trkpt lat="38.3278360" lon="-0.6984480">
        <ele>379.0</ele>
        <time>2018-03-05T14:48:52Z</time>
      </trkpt>
      <trkpt lat="38.3278460" lon="-0.6984610">
        <ele>379.0</ele>
        <time>2018-03-05T14:48:53Z</time>
      </trkpt>
      <trkpt lat="38.3278570" lon="-0.6984730">
        <ele>380.0</ele>
        <time>2018-03-05T14:48:54Z</time>
      </trkpt>
      <trkpt lat="38.3278650" lon="-0.6984860">
        <ele>380.0</ele>
        <time>2018-03-05T14:48:55Z</time>
      </trkpt>
      <trkpt lat="38.3278740" lon="-0.6985010">
        <ele>380.0</ele>
        <time>2018-03-05T14:48:56Z</time>
      </trkpt>
      <trkpt lat="38.3278820" lon="-0.6985160">
        <ele>380.0</ele>
        <time>2018-03-05T14:48:57Z</time>
      </trkpt>
      <trkpt lat="38.3278900" lon="-0.6985280">
        <ele>380.0</ele>
        <time>2018-03-05T14:48:58Z</time>
      </trkpt>
      <trkpt lat="38.3279010" lon="-0.6985420">
        <ele>381.0</ele>
        <time>2018-03-05T14:48:59Z</time>
      </trkpt>
      <trkpt lat="38.3279100" lon="-0.6985560">
        <ele>381.0</ele>
        <time>2018-03-05T14:49:00Z</time>
      </trkpt>
      <trkpt lat="38.3279190" lon="-0.6985710">
        <ele>381.0</ele>
        <time>2018-03-05T14:49:01Z</time>
      </trkpt>
      <trkpt lat="38.3279280" lon="-0.6985840">
        <ele>381.0</ele>
        <time>2018-03-05T14:49:02Z</time>
      </trkpt>
      <trkpt lat="38.3279370" lon="-0.6985990">
        <ele>382.0</ele>
        <time>2018-03-05T14:49:03Z</time>
      </trkpt>
      <trkpt lat="38.3279420" lon="-0.6986160">
        <ele>382.0</ele>
        <time>2018-03-05T14:49:04Z</time>
      </trkpt>
      <trkpt lat="38.3279400" lon="-0.6986330">
        <ele>382.0</ele>
        <time>2018-03-05T14:49:05Z</time>
      </trkpt>
      <trkpt lat="38.3279380" lon="-0.6986510">
        <ele>383.0</ele>
        <time>2018-03-05T14:49:06Z</time>
      </trkpt>
      <trkpt lat="38.3279370" lon="-0.6986690">
        <ele>383.0</ele>
        <time>2018-03-05T14:49:07Z</time>
      </trkpt>
      <trkpt lat="38.3279330" lon="-0.6986870">
        <ele>383.0</ele>
        <time>2018-03-05T14:49:08Z</time>
      </trkpt>
      <trkpt lat="38.3279280" lon="-0.6987050">
        <ele>383.0</ele>
        <time>2018-03-05T14:49:09Z</time>
      </trkpt>
      <trkpt lat="38.3279210" lon="-0.6987230">
        <ele>384.0</ele>
        <time>2018-03-05T14:49:10Z</time>
      </trkpt>
      <trkpt lat="38.3279100" lon="-0.6987400">
        <ele>384.0</ele>
        <time>2018-03-05T14:49:11Z</time>
      </trkpt>
      <trkpt lat="38.3278970" lon="-0.6987630">
        <ele>384.0</ele>
        <time>2018-03-05T14:49:12Z</time>
      </trkpt>
      <trkpt lat="38.3278820" lon="-0.6987880">
        <ele>385.0</ele>
        <time>2018-03-05T14:49:13Z</time>
      </trkpt>
      <trkpt lat="38.3278700" lon="-0.6988070">
        <ele>385.0</ele>
        <time>2018-03-05T14:49:14Z</time>
      </trkpt>
      <trkpt lat="38.3278590" lon="-0.6988230">
        <ele>385.0</ele>
        <time>2018-03-05T14:49:15Z</time>
      </trkpt>
      <trkpt lat="38.3278460" lon="-0.6988400">
        <ele>385.0</ele>
        <time>2018-03-05T14:49:16Z</time>
      </trkpt>
      <trkpt lat="38.3278340" lon="-0.6988580">
        <ele>385.0</ele>
        <time>2018-03-05T14:49:17Z</time>
      </trkpt>
      <trkpt lat="38.3278240" lon="-0.6988780">
        <ele>386.0</ele>
        <time>2018-03-05T14:49:18Z</time>
      </trkpt>
      <trkpt lat="38.3278130" lon="-0.6988980">
        <ele>386.0</ele>
        <time>2018-03-05T14:49:19Z</time>
      </trkpt>
      <trkpt lat="38.3278000" lon="-0.6989170">
        <ele>386.0</ele>
        <time>2018-03-05T14:49:20Z</time>
      </trkpt>
      <trkpt lat="38.3277850" lon="-0.6989350">
        <ele>386.0</ele>
        <time>2018-03-05T14:49:21Z</time>
      </trkpt>
      <trkpt lat="38.3277720" lon="-0.6989540">
        <ele>386.0</ele>
        <time>2018-03-05T14:49:22Z</time>
      </trkpt>
      <trkpt lat="38.3277570" lon="-0.6989720">
        <ele>387.0</ele>
        <time>2018-03-05T14:49:23Z</time>
      </trkpt>
      <trkpt lat="38.3277420" lon="-0.6989900">
        <ele>387.0</ele>
        <time>2018-03-05T14:49:24Z</time>
      </trkpt>
      <trkpt lat="38.3277260" lon="-0.6990090">
        <ele>387.0</ele>
        <time>2018-03-05T14:49:25Z</time>
      </trkpt>
      <trkpt lat="38.3277100" lon="-0.6990290">
        <ele>387.0</ele>
        <time>2018-03-05T14:49:26Z</time>
      </trkpt>
      <trkpt lat="38.3276960" lon="-0.6990480">
        <ele>387.0</ele>
        <time>2018-03-05T14:49:27Z</time>
      </trkpt>
      <trkpt lat="38.3276800" lon="-0.6990690">
        <ele>387.0</ele>
        <time>2018-03-05T14:49:28Z</time>
      </trkpt>
      <trkpt lat="38.3276580" lon="-0.6990820">
        <ele>387.0</ele>
        <time>2018-03-05T14:49:29Z</time>
      </trkpt>
      <trkpt lat="38.3276350" lon="-0.6990980">
        <ele>387.0</ele>
        <time>2018-03-05T14:49:30Z</time>
      </trkpt>
      <trkpt lat="38.3276100" lon="-0.6991130">
        <ele>387.0</ele>
        <time>2018-03-05T14:49:31Z</time>
      </trkpt>
      <trkpt lat="38.3275840" lon="-0.6991250">
        <ele>388.0</ele>
        <time>2018-03-05T14:49:32Z</time>
      </trkpt>
      <trkpt lat="38.3275580" lon="-0.6991360">
        <ele>388.0</ele>
        <time>2018-03-05T14:49:33Z</time>
      </trkpt>
      <trkpt lat="38.3275310" lon="-0.6991440">
        <ele>388.0</ele>
        <time>2018-03-05T14:49:34Z</time>
      </trkpt>
      <trkpt lat="38.3275060" lon="-0.6991520">
        <ele>388.0</ele>
        <time>2018-03-05T14:49:35Z</time>
      </trkpt>
      <trkpt lat="38.3274820" lon="-0.6991560">
        <ele>388.0</ele>
        <time>2018-03-05T14:49:36Z</time>
      </trkpt>
      <trkpt lat="38.3274580" lon="-0.6991630">
        <ele>388.0</ele>
        <time>2018-03-05T14:49:37Z</time>
      </trkpt>
      <trkpt lat="38.3274330" lon="-0.6991670">
        <ele>388.0</ele>
        <time>2018-03-05T14:49:38Z</time>
      </trkpt>
      <trkpt lat="38.3274110" lon="-0.6991650">
        <ele>388.0</ele>
        <time>2018-03-05T14:49:39Z</time>
      </trkpt>
      <trkpt lat="38.3273880" lon="-0.6991670">
        <ele>388.0</ele>
        <time>2018-03-05T14:49:40Z</time>
      </trkpt>
      <trkpt lat="38.3273650" lon="-0.6991680">
        <ele>389.0</ele>
        <time>2018-03-05T14:49:41Z</time>
      </trkpt>
      <trkpt lat="38.3273430" lon="-0.6991700">
        <ele>389.0</ele>
        <time>2018-03-05T14:49:42Z</time>
      </trkpt>
      <trkpt lat="38.3273220" lon="-0.6991690">
        <ele>389.0</ele>
        <time>2018-03-05T14:49:43Z</time>
      </trkpt>
      <trkpt lat="38.3273010" lon="-0.6991730">
        <ele>390.0</ele>
        <time>2018-03-05T14:49:44Z</time>
      </trkpt>
      <trkpt lat="38.3272800" lon="-0.6991730">
        <ele>390.0</ele>
        <time>2018-03-05T14:49:45Z</time>
      </trkpt>
      <trkpt lat="38.3272590" lon="-0.6991760">
        <ele>390.0</ele>
        <time>2018-03-05T14:49:46Z</time>
      </trkpt>
      <trkpt lat="38.3272380" lon="-0.6991790">
        <ele>390.0</ele>
        <time>2018-03-05T14:49:47Z</time>
      </trkpt>
      <trkpt lat="38.3272170" lon="-0.6991820">
        <ele>390.0</ele>
        <time>2018-03-05T14:49:48Z</time>
      </trkpt>
      <trkpt lat="38.3271960" lon="-0.6991840">
        <ele>391.0</ele>
        <time>2018-03-05T14:49:49Z</time>
      </trkpt>
      <trkpt lat="38.3271730" lon="-0.6991850">
        <ele>391.0</ele>
        <time>2018-03-05T14:49:50Z</time>
      </trkpt>
      <trkpt lat="38.3271510" lon="-0.6991840">
        <ele>391.0</ele>
        <time>2018-03-05T14:49:51Z</time>
      </trkpt>
      <trkpt lat="38.3271300" lon="-0.6991860">
        <ele>392.0</ele>
        <time>2018-03-05T14:49:52Z</time>
      </trkpt>
      <trkpt lat="38.3271090" lon="-0.6991880">
        <ele>392.0</ele>
        <time>2018-03-05T14:49:53Z</time>
      </trkpt>
      <trkpt lat="38.3270870" lon="-0.6991930">
        <ele>392.0</ele>
        <time>2018-03-05T14:49:54Z</time>
      </trkpt>
      <trkpt lat="38.3270680" lon="-0.6991960">
        <ele>393.0</ele>
        <time>2018-03-05T14:49:55Z</time>
      </trkpt>
      <trkpt lat="38.3270470" lon="-0.6991970">
        <ele>393.0</ele>
        <time>2018-03-05T14:49:56Z</time>
      </trkpt>
      <trkpt lat="38.3270270" lon="-0.6991980">
        <ele>393.0</ele>
        <time>2018-03-05T14:49:57Z</time>
      </trkpt>
      <trkpt lat="38.3270080" lon="-0.6992000">
        <ele>393.0</ele>
        <time>2018-03-05T14:49:58Z</time>
      </trkpt>
      <trkpt lat="38.3269870" lon="-0.6992040">
        <ele>393.0</ele>
        <time>2018-03-05T14:49:59Z</time>
      </trkpt>
      <trkpt lat="38.3269670" lon="-0.6992050">
        <ele>394.0</ele>
        <time>2018-03-05T14:50:00Z</time>
      </trkpt>
      <trkpt lat="38.3269460" lon="-0.6992090">
        <ele>394.0</ele>
        <time>2018-03-05T14:50:01Z</time>
      </trkpt>
      <trkpt lat="38.3269270" lon="-0.6992110">
        <ele>394.0</ele>
        <time>2018-03-05T14:50:02Z</time>
      </trkpt>
      <trkpt lat="38.3269070" lon="-0.6992160">
        <ele>394.0</ele>
        <time>2018-03-05T14:50:03Z</time>
      </trkpt>
      <trkpt lat="38.3268870" lon="-0.6992220">
        <ele>394.0</ele>
        <time>2018-03-05T14:50:04Z</time>
      </trkpt>
      <trkpt lat="38.3268690" lon="-0.6992290">
        <ele>394.0</ele>
        <time>2018-03-05T14:50:05Z</time>
      </trkpt>
      <trkpt lat="38.3268510" lon="-0.6992400">
        <ele>394.0</ele>
        <time>2018-03-05T14:50:06Z</time>
      </trkpt>
      <trkpt lat="38.3268350" lon="-0.6992490">
        <ele>394.0</ele>
        <time>2018-03-05T14:50:07Z</time>
      </trkpt>
      <trkpt lat="38.3268180" lon="-0.6992580">
        <ele>394.0</ele>
        <time>2018-03-05T14:50:08Z</time>
      </trkpt>
      <trkpt lat="38.3268060" lon="-0.6992680">
        <ele>395.0</ele>
        <time>2018-03-05T14:50:09Z</time>
      </trkpt>
      <trkpt lat="38.3267940" lon="-0.6992790">
        <ele>395.0</ele>
        <time>2018-03-05T14:50:10Z</time>
      </trkpt>
      <trkpt lat="38.3267820" lon="-0.6992900">
        <ele>395.0</ele>
        <time>2018-03-05T14:50:11Z</time>
      </trkpt>
      <trkpt lat="38.3267700" lon="-0.6993060">
        <ele>396.0</ele>
        <time>2018-03-05T14:50:12Z</time>
      </trkpt>
      <trkpt lat="38.3267640" lon="-0.6993220">
        <ele>396.0</ele>
        <time>2018-03-05T14:50:13Z</time>
      </trkpt>
      <trkpt lat="38.3267670" lon="-0.6993440">
        <ele>397.0</ele>
        <time>2018-03-05T14:50:14Z</time>
      </trkpt>
      <trkpt lat="38.3267690" lon="-0.6993650">
        <ele>397.0</ele>
        <time>2018-03-05T14:50:15Z</time>
      </trkpt>
      <trkpt lat="38.3267740" lon="-0.6993880">
        <ele>397.0</ele>
        <time>2018-03-05T14:50:16Z</time>
      </trkpt>
      <trkpt lat="38.3267830" lon="-0.6994070">
        <ele>398.0</ele>
        <time>2018-03-05T14:50:17Z</time>
      </trkpt>
      <trkpt lat="38.3267920" lon="-0.6994260">
        <ele>398.0</ele>
        <time>2018-03-05T14:50:18Z</time>
      </trkpt>
      <trkpt lat="38.3268030" lon="-0.6994420">
        <ele>398.0</ele>
        <time>2018-03-05T14:50:19Z</time>
      </trkpt>
      <trkpt lat="38.3268150" lon="-0.6994580">
        <ele>398.0</ele>
        <time>2018-03-05T14:50:20Z</time>
      </trkpt>
      <trkpt lat="38.3268280" lon="-0.6994690">
        <ele>399.0</ele>
        <time>2018-03-05T14:50:21Z</time>
      </trkpt>
      <trkpt lat="38.3268410" lon="-0.6994780">
        <ele>399.0</ele>
        <time>2018-03-05T14:50:22Z</time>
      </trkpt>
      <trkpt lat="38.3268530" lon="-0.6994880">
        <ele>399.0</ele>
        <time>2018-03-05T14:50:23Z</time>
      </trkpt>
      <trkpt lat="38.3268640" lon="-0.6994980">
        <ele>400.0</ele>
        <time>2018-03-05T14:50:24Z</time>
      </trkpt>
      <trkpt lat="38.3268760" lon="-0.6995090">
        <ele>400.0</ele>
        <time>2018-03-05T14:50:25Z</time>
      </trkpt>
      <trkpt lat="38.3268880" lon="-0.6995150">
        <ele>400.0</ele>
        <time>2018-03-05T14:50:26Z</time>
      </trkpt>
      <trkpt lat="38.3269000" lon="-0.6995240">
        <ele>400.0</ele>
        <time>2018-03-05T14:50:27Z</time>
      </trkpt>
      <trkpt lat="38.3269060" lon="-0.6995390">
        <ele>400.0</ele>
        <time>2018-03-05T14:50:28Z</time>
      </trkpt>
      <trkpt lat="38.3268850" lon="-0.6995420">
        <ele>399.0</ele>
        <time>2018-03-05T14:50:29Z</time>
      </trkpt>
      <trkpt lat="38.3268740" lon="-0.6995370">
        <ele>399.0</ele>
        <time>2018-03-05T14:50:30Z</time>
      </trkpt>
      <trkpt lat="38.3268680" lon="-0.6995190">
        <ele>399.0</ele>
        <time>2018-03-05T14:50:31Z</time>
      </trkpt>
      <trkpt lat="38.3268490" lon="-0.6994980">
        <ele>398.0</ele>
        <time>2018-03-05T14:50:32Z</time>
      </trkpt>
      <trkpt lat="38.3268110" lon="-0.6994580">
        <ele>397.0</ele>
        <time>2018-03-05T14:50:33Z</time>
      </trkpt>
      <trkpt lat="38.3267780" lon="-0.6994120">
        <ele>397.0</ele>
        <time>2018-03-05T14:50:34Z</time>
      </trkpt>
      <trkpt lat="38.3267640" lon="-0.6993580">
        <ele>396.0</ele>
        <time>2018-03-05T14:50:35Z</time>
      </trkpt>
      <trkpt lat="38.3267630" lon="-0.6993070">
        <ele>395.0</ele>
        <time>2018-03-05T14:50:36Z</time>
      </trkpt>
      <trkpt lat="38.3267830" lon="-0.6992730">
        <ele>393.0</ele>
        <time>2018-03-05T14:50:37Z</time>
      </trkpt>
      <trkpt lat="38.3268210" lon="-0.6992320">
        <ele>391.0</ele>
        <time>2018-03-05T14:50:38Z</time>
      </trkpt>
      <trkpt lat="38.3268770" lon="-0.6991980">
        <ele>391.0</ele>
        <time>2018-03-05T14:50:39Z</time>
      </trkpt>
      <trkpt lat="38.3269340" lon="-0.6991830">
        <ele>389.0</ele>
        <time>2018-03-05T14:50:40Z</time>
      </trkpt>
      <trkpt lat="38.3269970" lon="-0.6991680">
        <ele>388.0</ele>
        <time>2018-03-05T14:50:41Z</time>
      </trkpt>
      <trkpt lat="38.3270710" lon="-0.6991580">
        <ele>386.0</ele>
        <time>2018-03-05T14:50:42Z</time>
      </trkpt>
      <trkpt lat="38.3271670" lon="-0.6991560">
        <ele>385.0</ele>
        <time>2018-03-05T14:50:43Z</time>
      </trkpt>
      <trkpt lat="38.3272630" lon="-0.6991590">
        <ele>383.0</ele>
        <time>2018-03-05T14:50:44Z</time>
      </trkpt>
      <trkpt lat="38.3273570" lon="-0.6991500">
        <ele>382.0</ele>
        <time>2018-03-05T14:50:45Z</time>
      </trkpt>
      <trkpt lat="38.3274660" lon="-0.6991250">
        <ele>382.0</ele>
        <time>2018-03-05T14:50:46Z</time>
      </trkpt>
      <trkpt lat="38.3275690" lon="-0.6990890">
        <ele>381.0</ele>
        <time>2018-03-05T14:50:47Z</time>
      </trkpt>
      <trkpt lat="38.3276580" lon="-0.6990220">
        <ele>382.0</ele>
        <time>2018-03-05T14:50:48Z</time>
      </trkpt>
      <trkpt lat="38.3277290" lon="-0.6989450">
        <ele>380.0</ele>
        <time>2018-03-05T14:50:49Z</time>
      </trkpt>
      <trkpt lat="38.3277940" lon="-0.6988690">
        <ele>379.0</ele>
        <time>2018-03-05T14:50:50Z</time>
      </trkpt>
      <trkpt lat="38.3278450" lon="-0.6988000">
        <ele>379.0</ele>
        <time>2018-03-05T14:50:51Z</time>
      </trkpt>
      <trkpt lat="38.3278840" lon="-0.6987350">
        <ele>378.0</ele>
        <time>2018-03-05T14:50:52Z</time>
      </trkpt>
      <trkpt lat="38.3279020" lon="-0.6986740">
        <ele>378.0</ele>
        <time>2018-03-05T14:50:53Z</time>
      </trkpt>
      <trkpt lat="38.3278940" lon="-0.6986090">
        <ele>377.0</ele>
        <time>2018-03-05T14:50:54Z</time>
      </trkpt>
      <trkpt lat="38.3278660" lon="-0.6985500">
        <ele>376.0</ele>
        <time>2018-03-05T14:50:55Z</time>
      </trkpt>
      <trkpt lat="38.3278240" lon="-0.6984800">
        <ele>375.0</ele>
        <time>2018-03-05T14:50:56Z</time>
      </trkpt>
      <trkpt lat="38.3277790" lon="-0.6984100">
        <ele>375.0</ele>
        <time>2018-03-05T14:50:57Z</time>
      </trkpt>
      <trkpt lat="38.3277160" lon="-0.6983240">
        <ele>373.0</ele>
        <time>2018-03-05T14:50:58Z</time>
      </trkpt>
      <trkpt lat="38.3276430" lon="-0.6982240">
        <ele>372.0</ele>
        <time>2018-03-05T14:50:59Z</time>
      </trkpt>
      <trkpt lat="38.3275770" lon="-0.6981130">
        <ele>371.0</ele>
        <time>2018-03-05T14:51:00Z</time>
      </trkpt>
      <trkpt lat="38.3275250" lon="-0.6980100">
        <ele>369.0</ele>
        <time>2018-03-05T14:51:01Z</time>
      </trkpt>
      <trkpt lat="38.3274830" lon="-0.6979130">
        <ele>368.0</ele>
        <time>2018-03-05T14:51:02Z</time>
      </trkpt>
      <trkpt lat="38.3274530" lon="-0.6978140">
        <ele>367.0</ele>
        <time>2018-03-05T14:51:03Z</time>
      </trkpt>
      <trkpt lat="38.3274360" lon="-0.6977160">
        <ele>366.0</ele>
        <time>2018-03-05T14:51:04Z</time>
      </trkpt>
      <trkpt lat="38.3274290" lon="-0.6976120">
        <ele>364.0</ele>
        <time>2018-03-05T14:51:05Z</time>
      </trkpt>
      <trkpt lat="38.3274230" lon="-0.6975060">
        <ele>363.0</ele>
        <time>2018-03-05T14:51:06Z</time>
      </trkpt>
      <trkpt lat="38.3274250" lon="-0.6974080">
        <ele>361.0</ele>
        <time>2018-03-05T14:51:07Z</time>
      </trkpt>
      <trkpt lat="38.3274310" lon="-0.6973250">
        <ele>360.0</ele>
        <time>2018-03-05T14:51:08Z</time>
      </trkpt>
      <trkpt lat="38.3274400" lon="-0.6972460">
        <ele>359.0</ele>
        <time>2018-03-05T14:51:09Z</time>
      </trkpt>
      <trkpt lat="38.3274470" lon="-0.6971740">
        <ele>358.0</ele>
        <time>2018-03-05T14:51:10Z</time>
      </trkpt>
      <trkpt lat="38.3274590" lon="-0.6970960">
        <ele>357.0</ele>
        <time>2018-03-05T14:51:11Z</time>
      </trkpt>
      <trkpt lat="38.3274730" lon="-0.6970060">
        <ele>355.0</ele>
        <time>2018-03-05T14:51:12Z</time>
      </trkpt>
      <trkpt lat="38.3274850" lon="-0.6969090">
        <ele>355.0</ele>
        <time>2018-03-05T14:51:13Z</time>
      </trkpt>
      <trkpt lat="38.3274930" lon="-0.6968010">
        <ele>355.0</ele>
        <time>2018-03-05T14:51:14Z</time>
      </trkpt>
      <trkpt lat="38.3274870" lon="-0.6966990">
        <ele>354.0</ele>
        <time>2018-03-05T14:51:15Z</time>
      </trkpt>
      <trkpt lat="38.3274650" lon="-0.6966030">
        <ele>353.0</ele>
        <time>2018-03-05T14:51:16Z</time>
      </trkpt>
      <trkpt lat="38.3274210" lon="-0.6965080">
        <ele>353.0</ele>
        <time>2018-03-05T14:51:17Z</time>
      </trkpt>
      <trkpt lat="38.3273790" lon="-0.6964040">
        <ele>353.0</ele>
        <time>2018-03-05T14:51:18Z</time>
      </trkpt>
      <trkpt lat="38.3273480" lon="-0.6962990">
        <ele>352.0</ele>
        <time>2018-03-05T14:51:19Z</time>
      </trkpt>
      <trkpt lat="38.3273180" lon="-0.6961870">
        <ele>352.0</ele>
        <time>2018-03-05T14:51:20Z</time>
      </trkpt>
      <trkpt lat="38.3272910" lon="-0.6960710">
        <ele>352.0</ele>
        <time>2018-03-05T14:51:21Z</time>
      </trkpt>
      <trkpt lat="38.3272740" lon="-0.6959500">
        <ele>351.0</ele>
        <time>2018-03-05T14:51:22Z</time>
      </trkpt>
      <trkpt lat="38.3272580" lon="-0.6958240">
        <ele>351.0</ele>
        <time>2018-03-05T14:51:23Z</time>
      </trkpt>
      <trkpt lat="38.3272400" lon="-0.6956950">
        <ele>350.0</ele>
        <time>2018-03-05T14:51:24Z</time>
      </trkpt>
      <trkpt lat="38.3272210" lon="-0.6955670">
        <ele>350.0</ele>
        <time>2018-03-05T14:51:25Z</time>
      </trkpt>
      <trkpt lat="38.3272010" lon="-0.6954410">
        <ele>350.0</ele>
        <time>2018-03-05T14:51:26Z</time>
      </trkpt>
      <trkpt lat="38.3271820" lon="-0.6953150">
        <ele>349.0</ele>
        <time>2018-03-05T14:51:27Z</time>
      </trkpt>
      <trkpt lat="38.3271630" lon="-0.6951890">
        <ele>349.0</ele>
        <time>2018-03-05T14:51:28Z</time>
      </trkpt>
      <trkpt lat="38.3271440" lon="-0.6950640">
        <ele>349.0</ele>
        <time>2018-03-05T14:51:29Z</time>
      </trkpt>
      <trkpt lat="38.3271280" lon="-0.6949420">
        <ele>348.0</ele>
        <time>2018-03-05T14:51:30Z</time>
      </trkpt>
      <trkpt lat="38.3271240" lon="-0.6948210">
        <ele>348.0</ele>
        <time>2018-03-05T14:51:31Z</time>
      </trkpt>
      <trkpt lat="38.3271310" lon="-0.6946980">
        <ele>348.0</ele>
        <time>2018-03-05T14:51:32Z</time>
      </trkpt>
      <trkpt lat="38.3271480" lon="-0.6945770">
        <ele>347.0</ele>
        <time>2018-03-05T14:51:33Z</time>
      </trkpt>
      <trkpt lat="38.3271780" lon="-0.6944600">
        <ele>347.0</ele>
        <time>2018-03-05T14:51:34Z</time>
      </trkpt>
      <trkpt lat="38.3272190" lon="-0.6943470">
        <ele>347.0</ele>
        <time>2018-03-05T14:51:35Z</time>
      </trkpt>
      <trkpt lat="38.3272690" lon="-0.6942350">
        <ele>346.0</ele>
        <time>2018-03-05T14:51:36Z</time>
      </trkpt>
      <trkpt lat="38.3273270" lon="-0.6941350">
        <ele>344.0</ele>
        <time>2018-03-05T14:51:37Z</time>
      </trkpt>
      <trkpt lat="38.3273960" lon="-0.6940450">
        <ele>343.0</ele>
        <time>2018-03-05T14:51:38Z</time>
      </trkpt>
      <trkpt lat="38.3274650" lon="-0.6939820">
        <ele>342.0</ele>
        <time>2018-03-05T14:51:39Z</time>
      </trkpt>
      <trkpt lat="38.3275130" lon="-0.6939110">
        <ele>341.0</ele>
        <time>2018-03-05T14:51:40Z</time>
      </trkpt>
      <trkpt lat="38.3275370" lon="-0.6938470">
        <ele>341.0</ele>
        <time>2018-03-05T14:51:41Z</time>
      </trkpt>
      <trkpt lat="38.3275390" lon="-0.6937850">
        <ele>341.0</ele>
        <time>2018-03-05T14:51:42Z</time>
      </trkpt>
      <trkpt lat="38.3275140" lon="-0.6937320">
        <ele>342.0</ele>
        <time>2018-03-05T14:51:43Z</time>
      </trkpt>
      <trkpt lat="38.3274870" lon="-0.6936720">
        <ele>342.0</ele>
        <time>2018-03-05T14:51:44Z</time>
      </trkpt>
      <trkpt lat="38.3274690" lon="-0.6936060">
        <ele>341.0</ele>
        <time>2018-03-05T14:51:45Z</time>
      </trkpt>
      <trkpt lat="38.3274740" lon="-0.6935350">
        <ele>342.0</ele>
        <time>2018-03-05T14:51:46Z</time>
      </trkpt>
      <trkpt lat="38.3274880" lon="-0.6934640">
        <ele>342.0</ele>
        <time>2018-03-05T14:51:47Z</time>
      </trkpt>
      <trkpt lat="38.3275060" lon="-0.6933920">
        <ele>342.0</ele>
        <time>2018-03-05T14:51:48Z</time>
      </trkpt>
      <trkpt lat="38.3275240" lon="-0.6933200">
        <ele>342.0</ele>
        <time>2018-03-05T14:51:49Z</time>
      </trkpt>
      <trkpt lat="38.3275430" lon="-0.6932500">
        <ele>342.0</ele>
        <time>2018-03-05T14:51:50Z</time>
      </trkpt>
      <trkpt lat="38.3275620" lon="-0.6931820">
        <ele>343.0</ele>
        <time>2018-03-05T14:51:51Z</time>
      </trkpt>
      <trkpt lat="38.3275790" lon="-0.6931180">
        <ele>343.0</ele>
        <time>2018-03-05T14:51:52Z</time>
      </trkpt>
      <trkpt lat="38.3275950" lon="-0.6930570">
        <ele>344.0</ele>
        <time>2018-03-05T14:51:53Z</time>
      </trkpt>
      <trkpt lat="38.3276120" lon="-0.6930000">
        <ele>344.0</ele>
        <time>2018-03-05T14:51:54Z</time>
      </trkpt>
      <trkpt lat="38.3276280" lon="-0.6929430">
        <ele>344.0</ele>
        <time>2018-03-05T14:51:55Z</time>
      </trkpt>
      <trkpt lat="38.3276420" lon="-0.6928840">
        <ele>344.0</ele>
        <time>2018-03-05T14:51:56Z</time>
      </trkpt>
      <trkpt lat="38.3276570" lon="-0.6928170">
        <ele>343.0</ele>
        <time>2018-03-05T14:51:57Z</time>
      </trkpt>
      <trkpt lat="38.3276680" lon="-0.6927380">
        <ele>342.0</ele>
        <time>2018-03-05T14:51:58Z</time>
      </trkpt>
      <trkpt lat="38.3276720" lon="-0.6926430">
        <ele>341.0</ele>
        <time>2018-03-05T14:51:59Z</time>
      </trkpt>
      <trkpt lat="38.3276730" lon="-0.6925390">
        <ele>340.0</ele>
        <time>2018-03-05T14:52:00Z</time>
      </trkpt>
      <trkpt lat="38.3276670" lon="-0.6924280">
        <ele>339.0</ele>
        <time>2018-03-05T14:52:01Z</time>
      </trkpt>
      <trkpt lat="38.3276560" lon="-0.6923130">
        <ele>338.0</ele>
        <time>2018-03-05T14:52:02Z</time>
      </trkpt>
      <trkpt lat="38.3276330" lon="-0.6921880">
        <ele>337.0</ele>
        <time>2018-03-05T14:52:03Z</time>
      </trkpt>
      <trkpt lat="38.3276050" lon="-0.6920620">
        <ele>335.0</ele>
        <time>2018-03-05T14:52:04Z</time>
      </trkpt>
      <trkpt lat="38.3275750" lon="-0.6919320">
        <ele>334.0</ele>
        <time>2018-03-05T14:52:05Z</time>
      </trkpt>
      <trkpt lat="38.3275460" lon="-0.6918050">
        <ele>333.0</ele>
        <time>2018-03-05T14:52:06Z</time>
      </trkpt>
      <trkpt lat="38.3275190" lon="-0.6916860">
        <ele>331.0</ele>
        <time>2018-03-05T14:52:07Z</time>
      </trkpt>
      <trkpt lat="38.3275020" lon="-0.6915820">
        <ele>330.0</ele>
        <time>2018-03-05T14:52:08Z</time>
      </trkpt>
      <trkpt lat="38.3274890" lon="-0.6914840">
        <ele>329.0</ele>
        <time>2018-03-05T14:52:09Z</time>
      </trkpt>
      <trkpt lat="38.3274810" lon="-0.6913990">
        <ele>328.0</ele>
        <time>2018-03-05T14:52:10Z</time>
      </trkpt>
      <trkpt lat="38.3274760" lon="-0.6913260">
        <ele>327.0</ele>
        <time>2018-03-05T14:52:11Z</time>
      </trkpt>
      <trkpt lat="38.3274850" lon="-0.6912480">
        <ele>326.0</ele>
        <time>2018-03-05T14:52:12Z</time>
      </trkpt>
      <trkpt lat="38.3275210" lon="-0.6911780">
        <ele>325.0</ele>
        <time>2018-03-05T14:52:13Z</time>
      </trkpt>
      <trkpt lat="38.3276060" lon="-0.6911420">
        <ele>325.0</ele>
        <time>2018-03-05T14:52:14Z</time>
      </trkpt>
      <trkpt lat="38.3276700" lon="-0.6910900">
        <ele>325.0</ele>
        <time>2018-03-05T14:52:15Z</time>
      </trkpt>
      <trkpt lat="38.3277430" lon="-0.6910460">
        <ele>324.0</ele>
        <time>2018-03-05T14:52:16Z</time>
      </trkpt>
      <trkpt lat="38.3278220" lon="-0.6910150">
        <ele>325.0</ele>
        <time>2018-03-05T14:52:17Z</time>
      </trkpt>
      <trkpt lat="38.3279000" lon="-0.6910010">
        <ele>325.0</ele>
        <time>2018-03-05T14:52:18Z</time>
      </trkpt>
      <trkpt lat="38.3279750" lon="-0.6910020">
        <ele>326.0</ele>
        <time>2018-03-05T14:52:19Z</time>
      </trkpt>
      <trkpt lat="38.3280500" lon="-0.6910150">
        <ele>325.0</ele>
        <time>2018-03-05T14:52:20Z</time>
      </trkpt>
      <trkpt lat="38.3281240" lon="-0.6910280">
        <ele>326.0</ele>
        <time>2018-03-05T14:52:21Z</time>
      </trkpt>
      <trkpt lat="38.3281980" lon="-0.6910410">
        <ele>326.0</ele>
        <time>2018-03-05T14:52:22Z</time>
      </trkpt>
      <trkpt lat="38.3282670" lon="-0.6910450">
        <ele>326.0</ele>
        <time>2018-03-05T14:52:23Z</time>
      </trkpt>
      <trkpt lat="38.3283370" lon="-0.6910510">
        <ele>327.0</ele>
        <time>2018-03-05T14:52:24Z</time>
      </trkpt>
      <trkpt lat="38.3284040" lon="-0.6910570">
        <ele>327.0</ele>
        <time>2018-03-05T14:52:25Z</time>
      </trkpt>
      <trkpt lat="38.3284690" lon="-0.6910660">
        <ele>328.0</ele>
        <time>2018-03-05T14:52:26Z</time>
      </trkpt>
      <trkpt lat="38.3285310" lon="-0.6910710">
        <ele>328.0</ele>
        <time>2018-03-05T14:52:27Z</time>
      </trkpt>
      <trkpt lat="38.3285880" lon="-0.6910770">
        <ele>328.0</ele>
        <time>2018-03-05T14:52:28Z</time>
      </trkpt>
      <trkpt lat="38.3286440" lon="-0.6910820">
        <ele>329.0</ele>
        <time>2018-03-05T14:52:29Z</time>
      </trkpt>
      <trkpt lat="38.3287020" lon="-0.6910890">
        <ele>329.0</ele>
        <time>2018-03-05T14:52:30Z</time>
      </trkpt>
      <trkpt lat="38.3287600" lon="-0.6910960">
        <ele>329.0</ele>
        <time>2018-03-05T14:52:31Z</time>
      </trkpt>
      <trkpt lat="38.3288210" lon="-0.6910990">
        <ele>329.0</ele>
        <time>2018-03-05T14:52:32Z</time>
      </trkpt>
      <trkpt lat="38.3288810" lon="-0.6911020">
        <ele>330.0</ele>
        <time>2018-03-05T14:52:33Z</time>
      </trkpt>
      <trkpt lat="38.3289410" lon="-0.6911040">
        <ele>330.0</ele>
        <time>2018-03-05T14:52:34Z</time>
      </trkpt>
      <trkpt lat="38.3290020" lon="-0.6911100">
        <ele>330.0</ele>
        <time>2018-03-05T14:52:35Z</time>
      </trkpt>
      <trkpt lat="38.3290550" lon="-0.6911240">
        <ele>331.0</ele>
        <time>2018-03-05T14:52:36Z</time>
      </trkpt>
      <trkpt lat="38.3291090" lon="-0.6911360">
        <ele>332.0</ele>
        <time>2018-03-05T14:52:37Z</time>
      </trkpt>
      <trkpt lat="38.3291590" lon="-0.6911460">
        <ele>332.0</ele>
        <time>2018-03-05T14:52:38Z</time>
      </trkpt>
      <trkpt lat="38.3292050" lon="-0.6911590">
        <ele>332.0</ele>
        <time>2018-03-05T14:52:39Z</time>
      </trkpt>
      <trkpt lat="38.3292530" lon="-0.6911730">
        <ele>332.0</ele>
        <time>2018-03-05T14:52:40Z</time>
      </trkpt>
      <trkpt lat="38.3293010" lon="-0.6911950">
        <ele>331.0</ele>
        <time>2018-03-05T14:52:41Z</time>
      </trkpt>
      <trkpt lat="38.3293540" lon="-0.6912290">
        <ele>330.0</ele>
        <time>2018-03-05T14:52:42Z</time>
      </trkpt>
      <trkpt lat="38.3294030" lon="-0.6912770">
        <ele>329.0</ele>
        <time>2018-03-05T14:52:43Z</time>
      </trkpt>
      <trkpt lat="38.3294570" lon="-0.6913490">
        <ele>328.0</ele>
        <time>2018-03-05T14:52:44Z</time>
      </trkpt>
      <trkpt lat="38.3295130" lon="-0.6914420">
        <ele>327.0</ele>
        <time>2018-03-05T14:52:45Z</time>
      </trkpt>
      <trkpt lat="38.3295660" lon="-0.6915470">
        <ele>326.0</ele>
        <time>2018-03-05T14:52:46Z</time>
      </trkpt>
      <trkpt lat="38.3296200" lon="-0.6916640">
        <ele>325.0</ele>
        <time>2018-03-05T14:52:47Z</time>
      </trkpt>
      <trkpt lat="38.3296700" lon="-0.6917860">
        <ele>324.0</ele>
        <time>2018-03-05T14:52:48Z</time>
      </trkpt>
      <trkpt lat="38.3297040" lon="-0.6919240">
        <ele>322.0</ele>
        <time>2018-03-05T14:52:49Z</time>
      </trkpt>
      <trkpt lat="38.3297470" lon="-0.6920570">
        <ele>321.0</ele>
        <time>2018-03-05T14:52:50Z</time>
      </trkpt>
      <trkpt lat="38.3297800" lon="-0.6921720">
        <ele>320.0</ele>
        <time>2018-03-05T14:52:51Z</time>
      </trkpt>
      <trkpt lat="38.3297920" lon="-0.6922520">
        <ele>318.0</ele>
        <time>2018-03-05T14:52:52Z</time>
      </trkpt>
      <trkpt lat="38.3298150" lon="-0.6923060">
        <ele>316.0</ele>
        <time>2018-03-05T14:52:53Z</time>
      </trkpt>
      <trkpt lat="38.3298450" lon="-0.6923340">
        <ele>315.0</ele>
        <time>2018-03-05T14:52:54Z</time>
      </trkpt>
      <trkpt lat="38.3298780" lon="-0.6923320">
        <ele>314.0</ele>
        <time>2018-03-05T14:52:55Z</time>
      </trkpt>
      <trkpt lat="38.3299120" lon="-0.6923040">
        <ele>313.0</ele>
        <time>2018-03-05T14:52:56Z</time>
      </trkpt>
      <trkpt lat="38.3299240" lon="-0.6922530">
        <ele>312.0</ele>
        <time>2018-03-05T14:52:57Z</time>
      </trkpt>
      <trkpt lat="38.3299310" lon="-0.6922000">
        <ele>311.0</ele>
        <time>2018-03-05T14:52:58Z</time>
      </trkpt>
      <trkpt lat="38.3299340" lon="-0.6921270">
        <ele>310.0</ele>
        <time>2018-03-05T14:52:59Z</time>
      </trkpt>
      <trkpt lat="38.3299360" lon="-0.6920400">
        <ele>309.0</ele>
        <time>2018-03-05T14:53:00Z</time>
      </trkpt>
      <trkpt lat="38.3299360" lon="-0.6919440">
        <ele>308.0</ele>
        <time>2018-03-05T14:53:01Z</time>
      </trkpt>
      <trkpt lat="38.3299320" lon="-0.6918400">
        <ele>307.0</ele>
        <time>2018-03-05T14:53:02Z</time>
      </trkpt>
      <trkpt lat="38.3299230" lon="-0.6917250">
        <ele>306.0</ele>
        <time>2018-03-05T14:53:03Z</time>
      </trkpt>
      <trkpt lat="38.3299090" lon="-0.6915990">
        <ele>305.0</ele>
        <time>2018-03-05T14:53:04Z</time>
      </trkpt>
      <trkpt lat="38.3298920" lon="-0.6914690">
        <ele>304.0</ele>
        <time>2018-03-05T14:53:05Z</time>
      </trkpt>
      <trkpt lat="38.3298730" lon="-0.6913420">
        <ele>303.0</ele>
        <time>2018-03-05T14:53:06Z</time>
      </trkpt>
      <trkpt lat="38.3298650" lon="-0.6912390">
        <ele>302.0</ele>
        <time>2018-03-05T14:53:07Z</time>
      </trkpt>
      <trkpt lat="38.3298610" lon="-0.6911510">
        <ele>301.0</ele>
        <time>2018-03-05T14:53:08Z</time>
      </trkpt>
      <trkpt lat="38.3298670" lon="-0.6910850">
        <ele>301.0</ele>
        <time>2018-03-05T14:53:09Z</time>
      </trkpt>
      <trkpt lat="38.3298830" lon="-0.6910400">
        <ele>301.0</ele>
        <time>2018-03-05T14:53:10Z</time>
      </trkpt>
      <trkpt lat="38.3299140" lon="-0.6910540">
        <ele>297.0</ele>
        <time>2018-03-05T14:53:11Z</time>
      </trkpt>
      <trkpt lat="38.3299270" lon="-0.6910610">
        <ele>295.0</ele>
        <time>2018-03-05T14:53:12Z</time>
      </trkpt>
      <trkpt lat="38.3299520" lon="-0.6910840">
        <ele>293.0</ele>
        <time>2018-03-05T14:53:13Z</time>
      </trkpt>
      <trkpt lat="38.3299760" lon="-0.6911350">
        <ele>292.0</ele>
        <time>2018-03-05T14:53:14Z</time>
      </trkpt>
      <trkpt lat="38.3300190" lon="-0.6912070">
        <ele>293.0</ele>
        <time>2018-03-05T14:53:15Z</time>
      </trkpt>
      <trkpt lat="38.3300530" lon="-0.6912860">
        <ele>292.0</ele>
        <time>2018-03-05T14:53:16Z</time>
      </trkpt>
      <trkpt lat="38.3300950" lon="-0.6913690">
        <ele>291.0</ele>
        <time>2018-03-05T14:53:17Z</time>
      </trkpt>
      <trkpt lat="38.3301430" lon="-0.6914580">
        <ele>290.0</ele>
        <time>2018-03-05T14:53:18Z</time>
      </trkpt>
      <trkpt lat="38.3301940" lon="-0.6915510">
        <ele>288.0</ele>
        <time>2018-03-05T14:53:19Z</time>
      </trkpt>
      <trkpt lat="38.3302620" lon="-0.6916600">
        <ele>287.0</ele>
        <time>2018-03-05T14:53:20Z</time>
      </trkpt>
      <trkpt lat="38.3303320" lon="-0.6917790">
        <ele>286.0</ele>
        <time>2018-03-05T14:53:21Z</time>
      </trkpt>
      <trkpt lat="38.3303930" lon="-0.6919070">
        <ele>284.0</ele>
        <time>2018-03-05T14:53:22Z</time>
      </trkpt>
      <trkpt lat="38.3304670" lon="-0.6920350">
        <ele>283.0</ele>
        <time>2018-03-05T14:53:23Z</time>
      </trkpt>
      <trkpt lat="38.3305490" lon="-0.6921590">
        <ele>282.0</ele>
        <time>2018-03-05T14:53:24Z</time>
      </trkpt>
      <trkpt lat="38.3306390" lon="-0.6922820">
        <ele>280.0</ele>
        <time>2018-03-05T14:53:25Z</time>
      </trkpt>
      <trkpt lat="38.3307220" lon="-0.6923870">
        <ele>279.0</ele>
        <time>2018-03-05T14:53:26Z</time>
      </trkpt>
      <trkpt lat="38.3308000" lon="-0.6924750">
        <ele>278.0</ele>
        <time>2018-03-05T14:53:27Z</time>
      </trkpt>
      <trkpt lat="38.3308640" lon="-0.6925450">
        <ele>277.0</ele>
        <time>2018-03-05T14:53:28Z</time>
      </trkpt>
      <trkpt lat="38.3309160" lon="-0.6926000">
        <ele>277.0</ele>
        <time>2018-03-05T14:53:29Z</time>
      </trkpt>
      <trkpt lat="38.3309560" lon="-0.6926350">
        <ele>276.0</ele>
        <time>2018-03-05T14:53:30Z</time>
      </trkpt>
      <trkpt lat="38.3309810" lon="-0.6926530">
        <ele>277.0</ele>
        <time>2018-03-05T14:53:31Z</time>
      </trkpt>
      <trkpt lat="38.3310050" lon="-0.6926780">
        <ele>276.0</ele>
        <time>2018-03-05T14:53:32Z</time>
      </trkpt>
      <trkpt lat="38.3310230" lon="-0.6927120">
        <ele>277.0</ele>
        <time>2018-03-05T14:53:33Z</time>
      </trkpt>
      <trkpt lat="38.3310370" lon="-0.6927470">
        <ele>277.0</ele>
        <time>2018-03-05T14:53:34Z</time>
      </trkpt>
      <trkpt lat="38.3310360" lon="-0.6927750">
        <ele>277.0</ele>
        <time>2018-03-05T14:53:35Z</time>
      </trkpt>
      <trkpt lat="38.3310300" lon="-0.6928040">
        <ele>277.0</ele>
        <time>2018-03-05T14:53:36Z</time>
      </trkpt>
      <trkpt lat="38.3310300" lon="-0.6928390">
        <ele>277.0</ele>
        <time>2018-03-05T14:53:37Z</time>
      </trkpt>
      <trkpt lat="38.3310430" lon="-0.6928670">
        <ele>277.0</ele>
        <time>2018-03-05T14:53:38Z</time>
      </trkpt>
      <trkpt lat="38.3310640" lon="-0.6928930">
        <ele>277.0</ele>
        <time>2018-03-05T14:53:39Z</time>
      </trkpt>
      <trkpt lat="38.3310880" lon="-0.6929140">
        <ele>277.0</ele>
        <time>2018-03-05T14:53:40Z</time>
      </trkpt>
      <trkpt lat="38.3311160" lon="-0.6929370">
        <ele>277.0</ele>
        <time>2018-03-05T14:53:41Z</time>
      </trkpt>
      <trkpt lat="38.3311480" lon="-0.6929660">
        <ele>276.0</ele>
        <time>2018-03-05T14:53:42Z</time>
      </trkpt>
      <trkpt lat="38.3311880" lon="-0.6930010">
        <ele>276.0</ele>
        <time>2018-03-05T14:53:43Z</time>
      </trkpt>
      <trkpt lat="38.3312300" lon="-0.6930330">
        <ele>276.0</ele>
        <time>2018-03-05T14:53:44Z</time>
      </trkpt>
      <trkpt lat="38.3312750" lon="-0.6930610">
        <ele>275.0</ele>
        <time>2018-03-05T14:53:45Z</time>
      </trkpt>
      <trkpt lat="38.3313320" lon="-0.6930760">
        <ele>275.0</ele>
        <time>2018-03-05T14:53:46Z</time>
      </trkpt>
      <trkpt lat="38.3313930" lon="-0.6930910">
        <ele>275.0</ele>
        <time>2018-03-05T14:53:47Z</time>
      </trkpt>
      <trkpt lat="38.3314520" lon="-0.6930980">
        <ele>275.0</ele>
        <time>2018-03-05T14:53:48Z</time>
      </trkpt>
      <trkpt lat="38.3315130" lon="-0.6931050">
        <ele>275.0</ele>
        <time>2018-03-05T14:53:49Z</time>
      </trkpt>
      <trkpt lat="38.3315710" lon="-0.6931160">
        <ele>275.0</ele>
        <time>2018-03-05T14:53:50Z</time>
      </trkpt>
      <trkpt lat="38.3316280" lon="-0.6931280">
        <ele>276.0</ele>
        <time>2018-03-05T14:53:51Z</time>
      </trkpt>
      <trkpt lat="38.3316770" lon="-0.6931470">
        <ele>276.0</ele>
        <time>2018-03-05T14:53:52Z</time>
      </trkpt>
      <trkpt lat="38.3317140" lon="-0.6931850">
        <ele>277.0</ele>
        <time>2018-03-05T14:53:53Z</time>
      </trkpt>
      <trkpt lat="38.3317420" lon="-0.6932290">
        <ele>277.0</ele>
        <time>2018-03-05T14:53:54Z</time>
      </trkpt>
      <trkpt lat="38.3317360" lon="-0.6932700">
        <ele>277.0</ele>
        <time>2018-03-05T14:53:55Z</time>
      </trkpt>
      <trkpt lat="38.3317320" lon="-0.6933170">
        <ele>276.0</ele>
        <time>2018-03-05T14:53:56Z</time>
      </trkpt>
      <trkpt lat="38.3317540" lon="-0.6933510">
        <ele>276.0</ele>
        <time>2018-03-05T14:53:57Z</time>
      </trkpt>
      <trkpt lat="38.3317910" lon="-0.6933730">
        <ele>276.0</ele>
        <time>2018-03-05T14:53:58Z</time>
      </trkpt>
      <trkpt lat="38.3318340" lon="-0.6933950">
        <ele>276.0</ele>
        <time>2018-03-05T14:53:59Z</time>
      </trkpt>
      <trkpt lat="38.3318770" lon="-0.6934110">
        <ele>276.0</ele>
        <time>2018-03-05T14:54:00Z</time>
      </trkpt>
      <trkpt lat="38.3319160" lon="-0.6934280">
        <ele>277.0</ele>
        <time>2018-03-05T14:54:01Z</time>
      </trkpt>
      <trkpt lat="38.3319490" lon="-0.6934390">
        <ele>278.0</ele>
        <time>2018-03-05T14:54:02Z</time>
      </trkpt>
      <trkpt lat="38.3319780" lon="-0.6934450">
        <ele>279.0</ele>
        <time>2018-03-05T14:54:03Z</time>
      </trkpt>
      <trkpt lat="38.3320050" lon="-0.6934530">
        <ele>279.0</ele>
        <time>2018-03-05T14:54:04Z</time>
      </trkpt>
      <trkpt lat="38.3320320" lon="-0.6934580">
        <ele>280.0</ele>
        <time>2018-03-05T14:54:05Z</time>
      </trkpt>
      <trkpt lat="38.3320620" lon="-0.6934610">
        <ele>280.0</ele>
        <time>2018-03-05T14:54:06Z</time>
      </trkpt>
      <trkpt lat="38.3320900" lon="-0.6934650">
        <ele>280.0</ele>
        <time>2018-03-05T14:54:07Z</time>
      </trkpt>
      <trkpt lat="38.3321220" lon="-0.6934710">
        <ele>281.0</ele>
        <time>2018-03-05T14:54:08Z</time>
      </trkpt>
      <trkpt lat="38.3321540" lon="-0.6934760">
        <ele>281.0</ele>
        <time>2018-03-05T14:54:09Z</time>
      </trkpt>
      <trkpt lat="38.3321850" lon="-0.6934850">
        <ele>281.0</ele>
        <time>2018-03-05T14:54:10Z</time>
      </trkpt>
      <trkpt lat="38.3322160" lon="-0.6934930">
        <ele>282.0</ele>
        <time>2018-03-05T14:54:11Z</time>
      </trkpt>
      <trkpt lat="38.3322480" lon="-0.6934990">
        <ele>282.0</ele>
        <time>2018-03-05T14:54:12Z</time>
      </trkpt>
      <trkpt lat="38.3322770" lon="-0.6935070">
        <ele>282.0</ele>
        <time>2018-03-05T14:54:13Z</time>
      </trkpt>
      <trkpt lat="38.3323060" lon="-0.6935160">
        <ele>283.0</ele>
        <time>2018-03-05T14:54:14Z</time>
      </trkpt>
      <trkpt lat="38.3323320" lon="-0.6935230">
        <ele>283.0</ele>
        <time>2018-03-05T14:54:15Z</time>
      </trkpt>
      <trkpt lat="38.3323580" lon="-0.6935300">
        <ele>283.0</ele>
        <time>2018-03-05T14:54:16Z</time>
      </trkpt>
      <trkpt lat="38.3323830" lon="-0.6935380">
        <ele>283.0</ele>
        <time>2018-03-05T14:54:17Z</time>
      </trkpt>
      <trkpt lat="38.3324060" lon="-0.6935460">
        <ele>284.0</ele>
        <time>2018-03-05T14:54:18Z</time>
      </trkpt>
      <trkpt lat="38.3324300" lon="-0.6935540">
        <ele>284.0</ele>
        <time>2018-03-05T14:54:19Z</time>
      </trkpt>
      <trkpt lat="38.3324540" lon="-0.6935590">
        <ele>284.0</ele>
        <time>2018-03-05T14:54:20Z</time>
      </trkpt>
      <trkpt lat="38.3324770" lon="-0.6935650">
        <ele>284.0</ele>
        <time>2018-03-05T14:54:21Z</time>
      </trkpt>
      <trkpt lat="38.3325000" lon="-0.6935710">
        <ele>285.0</ele>
        <time>2018-03-05T14:54:22Z</time>
      </trkpt>
      <trkpt lat="38.3325230" lon="-0.6935770">
        <ele>285.0</ele>
        <time>2018-03-05T14:54:23Z</time>
      </trkpt>
      <trkpt lat="38.3325460" lon="-0.6935820">
        <ele>285.0</ele>
        <time>2018-03-05T14:54:24Z</time>
      </trkpt>
      <trkpt lat="38.3325690" lon="-0.6935870">
        <ele>285.0</ele>
        <time>2018-03-05T14:54:25Z</time>
      </trkpt>
      <trkpt lat="38.3325930" lon="-0.6935910">
        <ele>285.0</ele>
        <time>2018-03-05T14:54:26Z</time>
      </trkpt>
      <trkpt lat="38.3326170" lon="-0.6935950">
        <ele>286.0</ele>
        <time>2018-03-05T14:54:27Z</time>
      </trkpt>
      <trkpt lat="38.3326410" lon="-0.6936000">
        <ele>286.0</ele>
        <time>2018-03-05T14:54:28Z</time>
      </trkpt>
      <trkpt lat="38.3326650" lon="-0.6936040">
        <ele>286.0</ele>
        <time>2018-03-05T14:54:29Z</time>
      </trkpt>
      <trkpt lat="38.3326900" lon="-0.6936050">
        <ele>286.0</ele>
        <time>2018-03-05T14:54:30Z</time>
      </trkpt>
      <trkpt lat="38.3327130" lon="-0.6936060">
        <ele>286.0</ele>
        <time>2018-03-05T14:54:31Z</time>
      </trkpt>
      <trkpt lat="38.3327380" lon="-0.6936070">
        <ele>286.0</ele>
        <time>2018-03-05T14:54:32Z</time>
      </trkpt>
      <trkpt lat="38.3327640" lon="-0.6936090">
        <ele>287.0</ele>
        <time>2018-03-05T14:54:33Z</time>
      </trkpt>
      <trkpt lat="38.3327890" lon="-0.6936120">
        <ele>287.0</ele>
        <time>2018-03-05T14:54:34Z</time>
      </trkpt>
      <trkpt lat="38.3328150" lon="-0.6936090">
        <ele>287.0</ele>
        <time>2018-03-05T14:54:35Z</time>
      </trkpt>
      <trkpt lat="38.3328420" lon="-0.6936080">
        <ele>288.0</ele>
        <time>2018-03-05T14:54:36Z</time>
      </trkpt>
      <trkpt lat="38.3328670" lon="-0.6936050">
        <ele>288.0</ele>
        <time>2018-03-05T14:54:37Z</time>
      </trkpt>
      <trkpt lat="38.3328930" lon="-0.6936030">
        <ele>289.0</ele>
        <time>2018-03-05T14:54:38Z</time>
      </trkpt>
      <trkpt lat="38.3329190" lon="-0.6936040">
        <ele>289.0</ele>
        <time>2018-03-05T14:54:39Z</time>
      </trkpt>
      <trkpt lat="38.3329440" lon="-0.6936050">
        <ele>289.0</ele>
        <time>2018-03-05T14:54:40Z</time>
      </trkpt>
      <trkpt lat="38.3329710" lon="-0.6936060">
        <ele>289.0</ele>
        <time>2018-03-05T14:54:41Z</time>
      </trkpt>
      <trkpt lat="38.3329990" lon="-0.6935980">
        <ele>289.0</ele>
        <time>2018-03-05T14:54:42Z</time>
      </trkpt>
      <trkpt lat="38.3330280" lon="-0.6935930">
        <ele>289.0</ele>
        <time>2018-03-05T14:54:43Z</time>
      </trkpt>
      <trkpt lat="38.3330560" lon="-0.6935930">
        <ele>290.0</ele>
        <time>2018-03-05T14:54:44Z</time>
      </trkpt>
      <trkpt lat="38.3330850" lon="-0.6935910">
        <ele>290.0</ele>
        <time>2018-03-05T14:54:45Z</time>
      </trkpt>
      <trkpt lat="38.3331140" lon="-0.6935920">
        <ele>290.0</ele>
        <time>2018-03-05T14:54:46Z</time>
      </trkpt>
      <trkpt lat="38.3331440" lon="-0.6935910">
        <ele>290.0</ele>
        <time>2018-03-05T14:54:47Z</time>
      </trkpt>
      <trkpt lat="38.3331740" lon="-0.6935900">
        <ele>290.0</ele>
        <time>2018-03-05T14:54:48Z</time>
      </trkpt>
      <trkpt lat="38.3332030" lon="-0.6935880">
        <ele>290.0</ele>
        <time>2018-03-05T14:54:49Z</time>
      </trkpt>
      <trkpt lat="38.3332320" lon="-0.6935860">
        <ele>290.0</ele>
        <time>2018-03-05T14:54:50Z</time>
      </trkpt>
      <trkpt lat="38.3332600" lon="-0.6935840">
        <ele>290.0</ele>
        <time>2018-03-05T14:54:51Z</time>
      </trkpt>
      <trkpt lat="38.3332890" lon="-0.6935810">
        <ele>291.0</ele>
        <time>2018-03-05T14:54:52Z</time>
      </trkpt>
      <trkpt lat="38.3333150" lon="-0.6935780">
        <ele>291.0</ele>
        <time>2018-03-05T14:54:53Z</time>
      </trkpt>
      <trkpt lat="38.3333390" lon="-0.6935830">
        <ele>291.0</ele>
        <time>2018-03-05T14:54:54Z</time>
      </trkpt>
      <trkpt lat="38.3333640" lon="-0.6935900">
        <ele>292.0</ele>
        <time>2018-03-05T14:54:55Z</time>
      </trkpt>
      <trkpt lat="38.3333890" lon="-0.6935930">
        <ele>291.0</ele>
        <time>2018-03-05T14:54:56Z</time>
      </trkpt>
      <trkpt lat="38.3334140" lon="-0.6935970">
        <ele>291.0</ele>
        <time>2018-03-05T14:54:57Z</time>
      </trkpt>
      <trkpt lat="38.3334400" lon="-0.6936050">
        <ele>291.0</ele>
        <time>2018-03-05T14:54:58Z</time>
      </trkpt>
      <trkpt lat="38.3334660" lon="-0.6936210">
        <ele>292.0</ele>
        <time>2018-03-05T14:54:59Z</time>
      </trkpt>
      <trkpt lat="38.3334910" lon="-0.6936260">
        <ele>292.0</ele>
        <time>2018-03-05T14:55:00Z</time>
      </trkpt>
      <trkpt lat="38.3335150" lon="-0.6936360">
        <ele>292.0</ele>
        <time>2018-03-05T14:55:01Z</time>
      </trkpt>
      <trkpt lat="38.3335390" lon="-0.6936430">
        <ele>292.0</ele>
        <time>2018-03-05T14:55:02Z</time>
      </trkpt>
      <trkpt lat="38.3335590" lon="-0.6936500">
        <ele>292.0</ele>
        <time>2018-03-05T14:55:03Z</time>
      </trkpt>
      <trkpt lat="38.3335800" lon="-0.6936560">
        <ele>292.0</ele>
        <time>2018-03-05T14:55:04Z</time>
      </trkpt>
      <trkpt lat="38.3336010" lon="-0.6936620">
        <ele>292.0</ele>
        <time>2018-03-05T14:55:05Z</time>
      </trkpt>
      <trkpt lat="38.3336220" lon="-0.6936670">
        <ele>293.0</ele>
        <time>2018-03-05T14:55:06Z</time>
      </trkpt>
      <trkpt lat="38.3336420" lon="-0.6936730">
        <ele>293.0</ele>
        <time>2018-03-05T14:55:07Z</time>
      </trkpt>
      <trkpt lat="38.3336620" lon="-0.6936800">
        <ele>293.0</ele>
        <time>2018-03-05T14:55:08Z</time>
      </trkpt>
      <trkpt lat="38.3336820" lon="-0.6936890">
        <ele>293.0</ele>
        <time>2018-03-05T14:55:09Z</time>
      </trkpt>
      <trkpt lat="38.3337030" lon="-0.6936950">
        <ele>293.0</ele>
        <time>2018-03-05T14:55:10Z</time>
      </trkpt>
      <trkpt lat="38.3337250" lon="-0.6936980">
        <ele>294.0</ele>
        <time>2018-03-05T14:55:11Z</time>
      </trkpt>
      <trkpt lat="38.3337470" lon="-0.6936990">
        <ele>294.0</ele>
        <time>2018-03-05T14:55:12Z</time>
      </trkpt>
      <trkpt lat="38.3337690" lon="-0.6937030">
        <ele>294.0</ele>
        <time>2018-03-05T14:55:13Z</time>
      </trkpt>
      <trkpt lat="38.3337950" lon="-0.6937080">
        <ele>295.0</ele>
        <time>2018-03-05T14:55:14Z</time>
      </trkpt>
      <trkpt lat="38.3338180" lon="-0.6937120">
        <ele>296.0</ele>
        <time>2018-03-05T14:55:15Z</time>
      </trkpt>
      <trkpt lat="38.3338420" lon="-0.6937140">
        <ele>297.0</ele>
        <time>2018-03-05T14:55:16Z</time>
      </trkpt>
      <trkpt lat="38.3338650" lon="-0.6937170">
        <ele>297.0</ele>
        <time>2018-03-05T14:55:17Z</time>
      </trkpt>
      <trkpt lat="38.3338870" lon="-0.6937180">
        <ele>297.0</ele>
        <time>2018-03-05T14:55:18Z</time>
      </trkpt>
      <trkpt lat="38.3339070" lon="-0.6937150">
        <ele>298.0</ele>
        <time>2018-03-05T14:55:19Z</time>
      </trkpt>
      <trkpt lat="38.3339270" lon="-0.6937200">
        <ele>298.0</ele>
        <time>2018-03-05T14:55:20Z</time>
      </trkpt>
      <trkpt lat="38.3339490" lon="-0.6937200">
        <ele>298.0</ele>
        <time>2018-03-05T14:55:21Z</time>
      </trkpt>
      <trkpt lat="38.3339720" lon="-0.6937220">
        <ele>298.0</ele>
        <time>2018-03-05T14:55:22Z</time>
      </trkpt>
      <trkpt lat="38.3339960" lon="-0.6937230">
        <ele>298.0</ele>
        <time>2018-03-05T14:55:23Z</time>
      </trkpt>
      <trkpt lat="38.3340210" lon="-0.6937250">
        <ele>299.0</ele>
        <time>2018-03-05T14:55:24Z</time>
      </trkpt>
      <trkpt lat="38.3340450" lon="-0.6937250">
        <ele>299.0</ele>
        <time>2018-03-05T14:55:25Z</time>
      </trkpt>
      <trkpt lat="38.3340700" lon="-0.6937240">
        <ele>299.0</ele>
        <time>2018-03-05T14:55:26Z</time>
      </trkpt>
      <trkpt lat="38.3340960" lon="-0.6937220">
        <ele>299.0</ele>
        <time>2018-03-05T14:55:27Z</time>
      </trkpt>
      <trkpt lat="38.3341210" lon="-0.6937230">
        <ele>300.0</ele>
        <time>2018-03-05T14:55:28Z</time>
      </trkpt>
      <trkpt lat="38.3341480" lon="-0.6937230">
        <ele>300.0</ele>
        <time>2018-03-05T14:55:29Z</time>
      </trkpt>
      <trkpt lat="38.3341740" lon="-0.6937220">
        <ele>300.0</ele>
        <time>2018-03-05T14:55:30Z</time>
      </trkpt>
      <trkpt lat="38.3342000" lon="-0.6937220">
        <ele>300.0</ele>
        <time>2018-03-05T14:55:31Z</time>
      </trkpt>
      <trkpt lat="38.3342250" lon="-0.6937160">
        <ele>300.0</ele>
        <time>2018-03-05T14:55:32Z</time>
      </trkpt>
      <trkpt lat="38.3342520" lon="-0.6937140">
        <ele>300.0</ele>
        <time>2018-03-05T14:55:33Z</time>
      </trkpt>
      <trkpt lat="38.3342800" lon="-0.6937160">
        <ele>301.0</ele>
        <time>2018-03-05T14:55:34Z</time>
      </trkpt>
      <trkpt lat="38.3343080" lon="-0.6937110">
        <ele>301.0</ele>
        <time>2018-03-05T14:55:35Z</time>
      </trkpt>
      <trkpt lat="38.3343370" lon="-0.6937100">
        <ele>301.0</ele>
        <time>2018-03-05T14:55:36Z</time>
      </trkpt>
      <trkpt lat="38.3343680" lon="-0.6937070">
        <ele>300.0</ele>
        <time>2018-03-05T14:55:37Z</time>
      </trkpt>
      <trkpt lat="38.3343990" lon="-0.6937030">
        <ele>300.0</ele>
        <time>2018-03-05T14:55:38Z</time>
      </trkpt>
      <trkpt lat="38.3344310" lon="-0.6936980">
        <ele>300.0</ele>
        <time>2018-03-05T14:55:39Z</time>
      </trkpt>
      <trkpt lat="38.3344650" lon="-0.6936930">
        <ele>300.0</ele>
        <time>2018-03-05T14:55:40Z</time>
      </trkpt>
      <trkpt lat="38.3344990" lon="-0.6936880">
        <ele>300.0</ele>
        <time>2018-03-05T14:55:41Z</time>
      </trkpt>
      <trkpt lat="38.3345320" lon="-0.6936840">
        <ele>300.0</ele>
        <time>2018-03-05T14:55:42Z</time>
      </trkpt>
      <trkpt lat="38.3345640" lon="-0.6936750">
        <ele>300.0</ele>
        <time>2018-03-05T14:55:43Z</time>
      </trkpt>
      <trkpt lat="38.3345960" lon="-0.6936650">
        <ele>300.0</ele>
        <time>2018-03-05T14:55:44Z</time>
      </trkpt>
      <trkpt lat="38.3346310" lon="-0.6936610">
        <ele>300.0</ele>
        <time>2018-03-05T14:55:45Z</time>
      </trkpt>
      <trkpt lat="38.3346650" lon="-0.6936600">
        <ele>300.0</ele>
        <time>2018-03-05T14:55:46Z</time>
      </trkpt>
      <trkpt lat="38.3347010" lon="-0.6936580">
        <ele>300.0</ele>
        <time>2018-03-05T14:55:47Z</time>
      </trkpt>
      <trkpt lat="38.3347390" lon="-0.6936600">
        <ele>300.0</ele>
        <time>2018-03-05T14:55:48Z</time>
      </trkpt>
      <trkpt lat="38.3347770" lon="-0.6936660">
        <ele>300.0</ele>
        <time>2018-03-05T14:55:49Z</time>
      </trkpt>
      <trkpt lat="38.3348150" lon="-0.6936710">
        <ele>301.0</ele>
        <time>2018-03-05T14:55:50Z</time>
      </trkpt>
      <trkpt lat="38.3348540" lon="-0.6936720">
        <ele>301.0</ele>
        <time>2018-03-05T14:55:51Z</time>
      </trkpt>
      <trkpt lat="38.3348950" lon="-0.6936750">
        <ele>301.0</ele>
        <time>2018-03-05T14:55:52Z</time>
      </trkpt>
      <trkpt lat="38.3349340" lon="-0.6936760">
        <ele>301.0</ele>
        <time>2018-03-05T14:55:53Z</time>
      </trkpt>
      <trkpt lat="38.3349730" lon="-0.6936790">
        <ele>301.0</ele>
        <time>2018-03-05T14:55:54Z</time>
      </trkpt>
      <trkpt lat="38.3350120" lon="-0.6936910">
        <ele>302.0</ele>
        <time>2018-03-05T14:55:55Z</time>
      </trkpt>
      <trkpt lat="38.3350540" lon="-0.6936970">
        <ele>302.0</ele>
        <time>2018-03-05T14:55:56Z</time>
      </trkpt>
      <trkpt lat="38.3350950" lon="-0.6936990">
        <ele>302.0</ele>
        <time>2018-03-05T14:55:57Z</time>
      </trkpt>
      <trkpt lat="38.3351360" lon="-0.6937010">
        <ele>302.0</ele>
        <time>2018-03-05T14:55:58Z</time>
      </trkpt>
      <trkpt lat="38.3351790" lon="-0.6937060">
        <ele>302.0</ele>
        <time>2018-03-05T14:55:59Z</time>
      </trkpt>
      <trkpt lat="38.3352230" lon="-0.6937070">
        <ele>303.0</ele>
        <time>2018-03-05T14:56:00Z</time>
      </trkpt>
      <trkpt lat="38.3352660" lon="-0.6937020">
        <ele>303.0</ele>
        <time>2018-03-05T14:56:01Z</time>
      </trkpt>
      <trkpt lat="38.3353110" lon="-0.6936870">
        <ele>303.0</ele>
        <time>2018-03-05T14:56:02Z</time>
      </trkpt>
      <trkpt lat="38.3353550" lon="-0.6936770">
        <ele>303.0</ele>
        <time>2018-03-05T14:56:03Z</time>
      </trkpt>
      <trkpt lat="38.3353970" lon="-0.6936700">
        <ele>303.0</ele>
        <time>2018-03-05T14:56:04Z</time>
      </trkpt>
      <trkpt lat="38.3354420" lon="-0.6936610">
        <ele>303.0</ele>
        <time>2018-03-05T14:56:05Z</time>
      </trkpt>
      <trkpt lat="38.3354890" lon="-0.6936560">
        <ele>303.0</ele>
        <time>2018-03-05T14:56:06Z</time>
      </trkpt>
      <trkpt lat="38.3355400" lon="-0.6936540">
        <ele>302.0</ele>
        <time>2018-03-05T14:56:07Z</time>
      </trkpt>
      <trkpt lat="38.3356020" lon="-0.6936630">
        <ele>301.0</ele>
        <time>2018-03-05T14:56:08Z</time>
      </trkpt>
      <trkpt lat="38.3356540" lon="-0.6936700">
        <ele>301.0</ele>
        <time>2018-03-05T14:56:09Z</time>
      </trkpt>
      <trkpt lat="38.3357070" lon="-0.6936810">
        <ele>300.0</ele>
        <time>2018-03-05T14:56:10Z</time>
      </trkpt>
      <trkpt lat="38.3357640" lon="-0.6937080">
        <ele>300.0</ele>
        <time>2018-03-05T14:56:11Z</time>
      </trkpt>
      <trkpt lat="38.3358130" lon="-0.6937340">
        <ele>301.0</ele>
        <time>2018-03-05T14:56:12Z</time>
      </trkpt>
      <trkpt lat="38.3358660" lon="-0.6937550">
        <ele>300.0</ele>
        <time>2018-03-05T14:56:13Z</time>
      </trkpt>
      <trkpt lat="38.3359170" lon="-0.6937800">
        <ele>301.0</ele>
        <time>2018-03-05T14:56:14Z</time>
      </trkpt>
      <trkpt lat="38.3359690" lon="-0.6938030">
        <ele>300.0</ele>
        <time>2018-03-05T14:56:15Z</time>
      </trkpt>
      <trkpt lat="38.3360200" lon="-0.6938230">
        <ele>300.0</ele>
        <time>2018-03-05T14:56:16Z</time>
      </trkpt>
      <trkpt lat="38.3360710" lon="-0.6938440">
        <ele>300.0</ele>
        <time>2018-03-05T14:56:17Z</time>
      </trkpt>
      <trkpt lat="38.3361200" lon="-0.6938710">
        <ele>301.0</ele>
        <time>2018-03-05T14:56:18Z</time>
      </trkpt>
      <trkpt lat="38.3361690" lon="-0.6938990">
        <ele>301.0</ele>
        <time>2018-03-05T14:56:19Z</time>
      </trkpt>
      <trkpt lat="38.3362180" lon="-0.6939290">
        <ele>301.0</ele>
        <time>2018-03-05T14:56:20Z</time>
      </trkpt>
      <trkpt lat="38.3362660" lon="-0.6939590">
        <ele>301.0</ele>
        <time>2018-03-05T14:56:21Z</time>
      </trkpt>
      <trkpt lat="38.3363110" lon="-0.6939890">
        <ele>301.0</ele>
        <time>2018-03-05T14:56:22Z</time>
      </trkpt>
      <trkpt lat="38.3363540" lon="-0.6940240">
        <ele>301.0</ele>
        <time>2018-03-05T14:56:23Z</time>
      </trkpt>
      <trkpt lat="38.3364000" lon="-0.6940540">
        <ele>302.0</ele>
        <time>2018-03-05T14:56:24Z</time>
      </trkpt>
      <trkpt lat="38.3364460" lon="-0.6940850">
        <ele>302.0</ele>
        <time>2018-03-05T14:56:25Z</time>
      </trkpt>
      <trkpt lat="38.3364920" lon="-0.6941200">
        <ele>301.0</ele>
        <time>2018-03-05T14:56:26Z</time>
      </trkpt>
      <trkpt lat="38.3365420" lon="-0.6941580">
        <ele>301.0</ele>
        <time>2018-03-05T14:56:27Z</time>
      </trkpt>
      <trkpt lat="38.3365980" lon="-0.6941990">
        <ele>301.0</ele>
        <time>2018-03-05T14:56:28Z</time>
      </trkpt>
      <trkpt lat="38.3366590" lon="-0.6942440">
        <ele>300.0</ele>
        <time>2018-03-05T14:56:29Z</time>
      </trkpt>
      <trkpt lat="38.3367230" lon="-0.6942900">
        <ele>300.0</ele>
        <time>2018-03-05T14:56:30Z</time>
      </trkpt>
      <trkpt lat="38.3367870" lon="-0.6943470">
        <ele>299.0</ele>
        <time>2018-03-05T14:56:31Z</time>
      </trkpt>
      <trkpt lat="38.3368450" lon="-0.6944130">
        <ele>298.0</ele>
        <time>2018-03-05T14:56:32Z</time>
      </trkpt>
      <trkpt lat="38.3368910" lon="-0.6944840">
        <ele>297.0</ele>
        <time>2018-03-05T14:56:33Z</time>
      </trkpt>
      <trkpt lat="38.3369260" lon="-0.6945300">
        <ele>297.0</ele>
        <time>2018-03-05T14:56:34Z</time>
      </trkpt>
      <trkpt lat="38.3369680" lon="-0.6945560">
        <ele>296.0</ele>
        <time>2018-03-05T14:56:35Z</time>
      </trkpt>
      <trkpt lat="38.3370120" lon="-0.6945670">
        <ele>295.0</ele>
        <time>2018-03-05T14:56:36Z</time>
      </trkpt>
      <trkpt lat="38.3370640" lon="-0.6945570">
        <ele>296.0</ele>
        <time>2018-03-05T14:56:37Z</time>
      </trkpt>
      <trkpt lat="38.3371130" lon="-0.6945240">
        <ele>296.0</ele>
        <time>2018-03-05T14:56:38Z</time>
      </trkpt>
      <trkpt lat="38.3371670" lon="-0.6944570">
        <ele>295.0</ele>
        <time>2018-03-05T14:56:39Z</time>
      </trkpt>
      <trkpt lat="38.3372180" lon="-0.6943880">
        <ele>294.0</ele>
        <time>2018-03-05T14:56:40Z</time>
      </trkpt>
      <trkpt lat="38.3372600" lon="-0.6943200">
        <ele>294.0</ele>
        <time>2018-03-05T14:56:41Z</time>
      </trkpt>
      <trkpt lat="38.3372980" lon="-0.6942540">
        <ele>294.0</ele>
        <time>2018-03-05T14:56:42Z</time>
      </trkpt>
      <trkpt lat="38.3373300" lon="-0.6941970">
        <ele>295.0</ele>
        <time>2018-03-05T14:56:43Z</time>
      </trkpt>
      <trkpt lat="38.3373760" lon="-0.6941570">
        <ele>295.0</ele>
        <time>2018-03-05T14:56:44Z</time>
      </trkpt>
      <trkpt lat="38.3374060" lon="-0.6941820">
        <ele>295.0</ele>
        <time>2018-03-05T14:56:45Z</time>
      </trkpt>
      <trkpt lat="38.3374410" lon="-0.6941990">
        <ele>294.0</ele>
        <time>2018-03-05T14:56:46Z</time>
      </trkpt>
      <trkpt lat="38.3374760" lon="-0.6942280">
        <ele>293.0</ele>
        <time>2018-03-05T14:56:47Z</time>
      </trkpt>
      <trkpt lat="38.3375150" lon="-0.6942690">
        <ele>292.0</ele>
        <time>2018-03-05T14:56:48Z</time>
      </trkpt>
      <trkpt lat="38.3375660" lon="-0.6943020">
        <ele>290.0</ele>
        <time>2018-03-05T14:56:49Z</time>
      </trkpt>
      <trkpt lat="38.3376240" lon="-0.6943130">
        <ele>290.0</ele>
        <time>2018-03-05T14:56:50Z</time>
      </trkpt>
      <trkpt lat="38.3377010" lon="-0.6943060">
        <ele>290.0</ele>
        <time>2018-03-05T14:56:51Z</time>
      </trkpt>
      <trkpt lat="38.3377800" lon="-0.6942870">
        <ele>290.0</ele>
        <time>2018-03-05T14:56:52Z</time>
      </trkpt>
      <trkpt lat="38.3378630" lon="-0.6942550">
        <ele>290.0</ele>
        <time>2018-03-05T14:56:53Z</time>
      </trkpt>
      <trkpt lat="38.3379430" lon="-0.6942110">
        <ele>290.0</ele>
        <time>2018-03-05T14:56:54Z</time>
      </trkpt>
      <trkpt lat="38.3380230" lon="-0.6941650">
        <ele>290.0</ele>
        <time>2018-03-05T14:56:55Z</time>
      </trkpt>
      <trkpt lat="38.3381050" lon="-0.6941240">
        <ele>290.0</ele>
        <time>2018-03-05T14:56:56Z</time>
      </trkpt>
      <trkpt lat="38.3381870" lon="-0.6940810">
        <ele>290.0</ele>
        <time>2018-03-05T14:56:57Z</time>
      </trkpt>
      <trkpt lat="38.3382650" lon="-0.6940340">
        <ele>290.0</ele>
        <time>2018-03-05T14:56:58Z</time>
      </trkpt>
      <trkpt lat="38.3383460" lon="-0.6939840">
        <ele>290.0</ele>
        <time>2018-03-05T14:56:59Z</time>
      </trkpt>
      <trkpt lat="38.3384300" lon="-0.6939370">
        <ele>289.0</ele>
        <time>2018-03-05T14:57:00Z</time>
      </trkpt>
      <trkpt lat="38.3385150" lon="-0.6938900">
        <ele>289.0</ele>
        <time>2018-03-05T14:57:01Z</time>
      </trkpt>
      <trkpt lat="38.3385990" lon="-0.6938390">
        <ele>289.0</ele>
        <time>2018-03-05T14:57:02Z</time>
      </trkpt>
      <trkpt lat="38.3386750" lon="-0.6937750">
        <ele>290.0</ele>
        <time>2018-03-05T14:57:03Z</time>
      </trkpt>
      <trkpt lat="38.3387210" lon="-0.6937000">
        <ele>290.0</ele>
        <time>2018-03-05T14:57:04Z</time>
      </trkpt>
      <trkpt lat="38.3387570" lon="-0.6936140">
        <ele>290.0</ele>
        <time>2018-03-05T14:57:05Z</time>
      </trkpt>
      <trkpt lat="38.3387840" lon="-0.6935270">
        <ele>290.0</ele>
        <time>2018-03-05T14:57:06Z</time>
      </trkpt>
      <trkpt lat="38.3388120" lon="-0.6934340">
        <ele>290.0</ele>
        <time>2018-03-05T14:57:07Z</time>
      </trkpt>
      <trkpt lat="38.3388430" lon="-0.6933460">
        <ele>290.0</ele>
        <time>2018-03-05T14:57:08Z</time>
      </trkpt>
      <trkpt lat="38.3388750" lon="-0.6932680">
        <ele>290.0</ele>
        <time>2018-03-05T14:57:09Z</time>
      </trkpt>
      <trkpt lat="38.3389170" lon="-0.6932240">
        <ele>290.0</ele>
        <time>2018-03-05T14:57:10Z</time>
      </trkpt>
      <trkpt lat="38.3389690" lon="-0.6931820">
        <ele>290.0</ele>
        <time>2018-03-05T14:57:11Z</time>
      </trkpt>
      <trkpt lat="38.3390130" lon="-0.6931240">
        <ele>290.0</ele>
        <time>2018-03-05T14:57:12Z</time>
      </trkpt>
      <trkpt lat="38.3390500" lon="-0.6930640">
        <ele>289.0</ele>
        <time>2018-03-05T14:57:13Z</time>
      </trkpt>
      <trkpt lat="38.3390930" lon="-0.6930040">
        <ele>290.0</ele>
        <time>2018-03-05T14:57:14Z</time>
      </trkpt>
      <trkpt lat="38.3391630" lon="-0.6929350">
        <ele>290.0</ele>
        <time>2018-03-05T14:57:15Z</time>
      </trkpt>
      <trkpt lat="38.3392220" lon="-0.6928700">
        <ele>290.0</ele>
        <time>2018-03-05T14:57:16Z</time>
      </trkpt>
      <trkpt lat="38.3392810" lon="-0.6928140">
        <ele>290.0</ele>
        <time>2018-03-05T14:57:17Z</time>
      </trkpt>
      <trkpt lat="38.3393540" lon="-0.6927720">
        <ele>288.0</ele>
        <time>2018-03-05T14:57:18Z</time>
      </trkpt>
      <trkpt lat="38.3394290" lon="-0.6927270">
        <ele>288.0</ele>
        <time>2018-03-05T14:57:19Z</time>
      </trkpt>
      <trkpt lat="38.3394990" lon="-0.6926680">
        <ele>288.0</ele>
        <time>2018-03-05T14:57:20Z</time>
      </trkpt>
      <trkpt lat="38.3395640" lon="-0.6926040">
        <ele>288.0</ele>
        <time>2018-03-05T14:57:21Z</time>
      </trkpt>
      <trkpt lat="38.3396240" lon="-0.6925400">
        <ele>288.0</ele>
        <time>2018-03-05T14:57:22Z</time>
      </trkpt>
      <trkpt lat="38.3396820" lon="-0.6924770">
        <ele>288.0</ele>
        <time>2018-03-05T14:57:23Z</time>
      </trkpt>
      <trkpt lat="38.3397410" lon="-0.6924130">
        <ele>288.0</ele>
        <time>2018-03-05T14:57:24Z</time>
      </trkpt>
      <trkpt lat="38.3398020" lon="-0.6923500">
        <ele>287.0</ele>
        <time>2018-03-05T14:57:25Z</time>
      </trkpt>
      <trkpt lat="38.3398630" lon="-0.6922860">
        <ele>288.0</ele>
        <time>2018-03-05T14:57:26Z</time>
      </trkpt>
      <trkpt lat="38.3399250" lon="-0.6922250">
        <ele>288.0</ele>
        <time>2018-03-05T14:57:27Z</time>
      </trkpt>
      <trkpt lat="38.3399930" lon="-0.6921730">
        <ele>288.0</ele>
        <time>2018-03-05T14:57:28Z</time>
      </trkpt>
      <trkpt lat="38.3400630" lon="-0.6921300">
        <ele>288.0</ele>
        <time>2018-03-05T14:57:29Z</time>
      </trkpt>
      <trkpt lat="38.3401370" lon="-0.6920900">
        <ele>288.0</ele>
        <time>2018-03-05T14:57:30Z</time>
      </trkpt>
      <trkpt lat="38.3402160" lon="-0.6920610">
        <ele>288.0</ele>
        <time>2018-03-05T14:57:31Z</time>
      </trkpt>
      <trkpt lat="38.3402980" lon="-0.6920310">
        <ele>287.0</ele>
        <time>2018-03-05T14:57:32Z</time>
      </trkpt>
      <trkpt lat="38.3403800" lon="-0.6919980">
        <ele>287.0</ele>
        <time>2018-03-05T14:57:33Z</time>
      </trkpt>
      <trkpt lat="38.3404650" lon="-0.6919610">
        <ele>287.0</ele>
        <time>2018-03-05T14:57:34Z</time>
      </trkpt>
      <trkpt lat="38.3405510" lon="-0.6919350">
        <ele>286.0</ele>
        <time>2018-03-05T14:57:35Z</time>
      </trkpt>
      <trkpt lat="38.3406390" lon="-0.6919350">
        <ele>286.0</ele>
        <time>2018-03-05T14:57:36Z</time>
      </trkpt>
      <trkpt lat="38.3407280" lon="-0.6919280">
        <ele>285.0</ele>
        <time>2018-03-05T14:57:37Z</time>
      </trkpt>
      <trkpt lat="38.3408160" lon="-0.6919370">
        <ele>286.0</ele>
        <time>2018-03-05T14:57:38Z</time>
      </trkpt>
      <trkpt lat="38.3408990" lon="-0.6919400">
        <ele>286.0</ele>
        <time>2018-03-05T14:57:39Z</time>
      </trkpt>
      <trkpt lat="38.3409810" lon="-0.6919480">
        <ele>286.0</ele>
        <time>2018-03-05T14:57:40Z</time>
      </trkpt>
      <trkpt lat="38.3410620" lon="-0.6919530">
        <ele>286.0</ele>
        <time>2018-03-05T14:57:41Z</time>
      </trkpt>
      <trkpt lat="38.3411480" lon="-0.6919520">
        <ele>286.0</ele>
        <time>2018-03-05T14:57:42Z</time>
      </trkpt>
      <trkpt lat="38.3412350" lon="-0.6919420">
        <ele>286.0</ele>
        <time>2018-03-05T14:57:43Z</time>
      </trkpt>
      <trkpt lat="38.3413110" lon="-0.6919190">
        <ele>287.0</ele>
        <time>2018-03-05T14:57:44Z</time>
      </trkpt>
      <trkpt lat="38.3413840" lon="-0.6918940">
        <ele>287.0</ele>
        <time>2018-03-05T14:57:45Z</time>
      </trkpt>
      <trkpt lat="38.3414580" lon="-0.6918680">
        <ele>287.0</ele>
        <time>2018-03-05T14:57:46Z</time>
      </trkpt>
      <trkpt lat="38.3415320" lon="-0.6918420">
        <ele>287.0</ele>
        <time>2018-03-05T14:57:47Z</time>
      </trkpt>
      <trkpt lat="38.3416090" lon="-0.6918200">
        <ele>287.0</ele>
        <time>2018-03-05T14:57:48Z</time>
      </trkpt>
      <trkpt lat="38.3416870" lon="-0.6918000">
        <ele>287.0</ele>
        <time>2018-03-05T14:57:49Z</time>
      </trkpt>
      <trkpt lat="38.3417640" lon="-0.6917780">
        <ele>287.0</ele>
        <time>2018-03-05T14:57:50Z</time>
      </trkpt>
      <trkpt lat="38.3418410" lon="-0.6917610">
        <ele>287.0</ele>
        <time>2018-03-05T14:57:51Z</time>
      </trkpt>
      <trkpt lat="38.3419150" lon="-0.6917470">
        <ele>287.0</ele>
        <time>2018-03-05T14:57:52Z</time>
      </trkpt>
      <trkpt lat="38.3419870" lon="-0.6917300">
        <ele>287.0</ele>
        <time>2018-03-05T14:57:53Z</time>
      </trkpt>
      <trkpt lat="38.3420570" lon="-0.6917130">
        <ele>287.0</ele>
        <time>2018-03-05T14:57:54Z</time>
      </trkpt>
      <trkpt lat="38.3421280" lon="-0.6916850">
        <ele>287.0</ele>
        <time>2018-03-05T14:57:55Z</time>
      </trkpt>
      <trkpt lat="38.3421760" lon="-0.6916490">
        <ele>286.0</ele>
        <time>2018-03-05T14:57:56Z</time>
      </trkpt>
      <trkpt lat="38.3422240" lon="-0.6916190">
        <ele>286.0</ele>
        <time>2018-03-05T14:57:57Z</time>
      </trkpt>
      <trkpt lat="38.3422480" lon="-0.6915660">
        <ele>286.0</ele>
        <time>2018-03-05T14:57:58Z</time>
      </trkpt>
      <trkpt lat="38.3422800" lon="-0.6915290">
        <ele>286.0</ele>
        <time>2018-03-05T14:57:59Z</time>
      </trkpt>
      <trkpt lat="38.3423090" lon="-0.6914910">
        <ele>285.0</ele>
        <time>2018-03-05T14:58:00Z</time>
      </trkpt>
      <trkpt lat="38.3423390" lon="-0.6914620">
        <ele>284.0</ele>
        <time>2018-03-05T14:58:01Z</time>
      </trkpt>
      <trkpt lat="38.3423680" lon="-0.6914490">
        <ele>283.0</ele>
        <time>2018-03-05T14:58:02Z</time>
      </trkpt>
      <trkpt lat="38.3423870" lon="-0.6914290">
        <ele>282.0</ele>
        <time>2018-03-05T14:58:03Z</time>
      </trkpt>
      <trkpt lat="38.3423860" lon="-0.6913950">
        <ele>283.0</ele>
        <time>2018-03-05T14:58:04Z</time>
      </trkpt>
      <trkpt lat="38.3423620" lon="-0.6913840">
        <ele>282.0</ele>
        <time>2018-03-05T14:58:05Z</time>
      </trkpt>
      <trkpt lat="38.3423550" lon="-0.6913620">
        <ele>282.0</ele>
        <time>2018-03-05T14:58:06Z</time>
      </trkpt>
      <trkpt lat="38.3423370" lon="-0.6913590">
        <ele>282.0</ele>
        <time>2018-03-05T14:58:07Z</time>
      </trkpt>
      <trkpt lat="38.3423210" lon="-0.6913420">
        <ele>282.0</ele>
        <time>2018-03-05T14:58:08Z</time>
      </trkpt>
      <trkpt lat="38.3423110" lon="-0.6913220">
        <ele>281.0</ele>
        <time>2018-03-05T14:58:09Z</time>
      </trkpt>
      <trkpt lat="38.3423070" lon="-0.6912850">
        <ele>279.0</ele>
        <time>2018-03-05T14:58:10Z</time>
      </trkpt>
      <trkpt lat="38.3423080" lon="-0.6912480">
        <ele>278.0</ele>
        <time>2018-03-05T14:58:11Z</time>
      </trkpt>
      <trkpt lat="38.3423200" lon="-0.6912100">
        <ele>278.0</ele>
        <time>2018-03-05T14:58:12Z</time>
      </trkpt>
      <trkpt lat="38.3423230" lon="-0.6911720">
        <ele>277.0</ele>
        <time>2018-03-05T14:58:13Z</time>
      </trkpt>
      <trkpt lat="38.3423330" lon="-0.6911230">
        <ele>277.0</ele>
        <time>2018-03-05T14:58:14Z</time>
      </trkpt>
      <trkpt lat="38.3423410" lon="-0.6910730">
        <ele>277.0</ele>
        <time>2018-03-05T14:58:15Z</time>
      </trkpt>
      <trkpt lat="38.3423660" lon="-0.6910300">
        <ele>278.0</ele>
        <time>2018-03-05T14:58:16Z</time>
      </trkpt>
      <trkpt lat="38.3423780" lon="-0.6909640">
        <ele>278.0</ele>
        <time>2018-03-05T14:58:17Z</time>
      </trkpt>
      <trkpt lat="38.3423860" lon="-0.6909060">
        <ele>279.0</ele>
        <time>2018-03-05T14:58:18Z</time>
      </trkpt>
      <trkpt lat="38.3423890" lon="-0.6908570">
        <ele>279.0</ele>
        <time>2018-03-05T14:58:19Z</time>
      </trkpt>
      <trkpt lat="38.3423870" lon="-0.6908060">
        <ele>280.0</ele>
        <time>2018-03-05T14:58:20Z</time>
      </trkpt>
      <trkpt lat="38.3423870" lon="-0.6907600">
        <ele>280.0</ele>
        <time>2018-03-05T14:58:21Z</time>
      </trkpt>
      <trkpt lat="38.3423820" lon="-0.6907170">
        <ele>280.0</ele>
        <time>2018-03-05T14:58:22Z</time>
      </trkpt>
      <trkpt lat="38.3423750" lon="-0.6906830">
        <ele>280.0</ele>
        <time>2018-03-05T14:58:23Z</time>
      </trkpt>
      <trkpt lat="38.3423600" lon="-0.6906380">
        <ele>280.0</ele>
        <time>2018-03-05T14:58:24Z</time>
      </trkpt>
      <trkpt lat="38.3423480" lon="-0.6905970">
        <ele>279.0</ele>
        <time>2018-03-05T14:58:25Z</time>
      </trkpt>
      <trkpt lat="38.3423340" lon="-0.6905510">
        <ele>280.0</ele>
        <time>2018-03-05T14:58:26Z</time>
      </trkpt>
      <trkpt lat="38.3423220" lon="-0.6905070">
        <ele>280.0</ele>
        <time>2018-03-05T14:58:27Z</time>
      </trkpt>
      <trkpt lat="38.3423080" lon="-0.6904610">
        <ele>280.0</ele>
        <time>2018-03-05T14:58:28Z</time>
      </trkpt>
      <trkpt lat="38.3423120" lon="-0.6904120">
        <ele>279.0</ele>
        <time>2018-03-05T14:58:29Z</time>
      </trkpt>
      <trkpt lat="38.3423220" lon="-0.6903620">
        <ele>280.0</ele>
        <time>2018-03-05T14:58:30Z</time>
      </trkpt>
      <trkpt lat="38.3423260" lon="-0.6903190">
        <ele>281.0</ele>
        <time>2018-03-05T14:58:31Z</time>
      </trkpt>
      <trkpt lat="38.3423300" lon="-0.6902850">
        <ele>281.0</ele>
        <time>2018-03-05T14:58:32Z</time>
      </trkpt>
      <trkpt lat="38.3423310" lon="-0.6902600">
        <ele>281.0</ele>
        <time>2018-03-05T14:58:33Z</time>
      </trkpt>
      <trkpt lat="38.3423280" lon="-0.6902320">
        <ele>282.0</ele>
        <time>2018-03-05T14:58:34Z</time>
      </trkpt>
      <trkpt lat="38.3423270" lon="-0.6902020">
        <ele>282.0</ele>
        <time>2018-03-05T14:58:35Z</time>
      </trkpt>
      <trkpt lat="38.3423220" lon="-0.6901670">
        <ele>283.0</ele>
        <time>2018-03-05T14:58:36Z</time>
      </trkpt>
      <trkpt lat="38.3423180" lon="-0.6901330">
        <ele>283.0</ele>
        <time>2018-03-05T14:58:37Z</time>
      </trkpt>
      <trkpt lat="38.3423110" lon="-0.6900970">
        <ele>283.0</ele>
        <time>2018-03-05T14:58:38Z</time>
      </trkpt>
      <trkpt lat="38.3423020" lon="-0.6900600">
        <ele>284.0</ele>
        <time>2018-03-05T14:58:39Z</time>
      </trkpt>
      <trkpt lat="38.3422900" lon="-0.6900230">
        <ele>284.0</ele>
        <time>2018-03-05T14:58:40Z</time>
      </trkpt>
      <trkpt lat="38.3422780" lon="-0.6899830">
        <ele>284.0</ele>
        <time>2018-03-05T14:58:41Z</time>
      </trkpt>
      <trkpt lat="38.3422630" lon="-0.6899400">
        <ele>284.0</ele>
        <time>2018-03-05T14:58:42Z</time>
      </trkpt>
      <trkpt lat="38.3422460" lon="-0.6898980">
        <ele>284.0</ele>
        <time>2018-03-05T14:58:43Z</time>
      </trkpt>
      <trkpt lat="38.3422300" lon="-0.6898580">
        <ele>284.0</ele>
        <time>2018-03-05T14:58:44Z</time>
      </trkpt>
      <trkpt lat="38.3422130" lon="-0.6898160">
        <ele>284.0</ele>
        <time>2018-03-05T14:58:45Z</time>
      </trkpt>
      <trkpt lat="38.3421940" lon="-0.6897750">
        <ele>284.0</ele>
        <time>2018-03-05T14:58:46Z</time>
      </trkpt>
      <trkpt lat="38.3421720" lon="-0.6897370">
        <ele>285.0</ele>
        <time>2018-03-05T14:58:47Z</time>
      </trkpt>
      <trkpt lat="38.3421530" lon="-0.6897060">
        <ele>285.0</ele>
        <time>2018-03-05T14:58:48Z</time>
      </trkpt>
      <trkpt lat="38.3421340" lon="-0.6896780">
        <ele>285.0</ele>
        <time>2018-03-05T14:58:49Z</time>
      </trkpt>
      <trkpt lat="38.3421100" lon="-0.6896530">
        <ele>286.0</ele>
        <time>2018-03-05T14:58:50Z</time>
      </trkpt>
      <trkpt lat="38.3420850" lon="-0.6896250">
        <ele>286.0</ele>
        <time>2018-03-05T14:58:51Z</time>
      </trkpt>
      <trkpt lat="38.3420630" lon="-0.6895950">
        <ele>286.0</ele>
        <time>2018-03-05T14:58:52Z</time>
      </trkpt>
      <trkpt lat="38.3420450" lon="-0.6895640">
        <ele>287.0</ele>
        <time>2018-03-05T14:58:53Z</time>
      </trkpt>
      <trkpt lat="38.3420270" lon="-0.6895320">
        <ele>287.0</ele>
        <time>2018-03-05T14:58:54Z</time>
      </trkpt>
      <trkpt lat="38.3420110" lon="-0.6894960">
        <ele>287.0</ele>
        <time>2018-03-05T14:58:55Z</time>
      </trkpt>
      <trkpt lat="38.3419960" lon="-0.6894660">
        <ele>288.0</ele>
        <time>2018-03-05T14:58:56Z</time>
      </trkpt>
      <trkpt lat="38.3419830" lon="-0.6894410">
        <ele>288.0</ele>
        <time>2018-03-05T14:58:57Z</time>
      </trkpt>
      <trkpt lat="38.3419690" lon="-0.6894150">
        <ele>288.0</ele>
        <time>2018-03-05T14:58:58Z</time>
      </trkpt>
      <trkpt lat="38.3419570" lon="-0.6893860">
        <ele>288.0</ele>
        <time>2018-03-05T14:58:59Z</time>
      </trkpt>
      <trkpt lat="38.3419400" lon="-0.6893570">
        <ele>288.0</ele>
        <time>2018-03-05T14:59:00Z</time>
      </trkpt>
      <trkpt lat="38.3419280" lon="-0.6893260">
        <ele>288.0</ele>
        <time>2018-03-05T14:59:01Z</time>
      </trkpt>
      <trkpt lat="38.3419130" lon="-0.6892920">
        <ele>289.0</ele>
        <time>2018-03-05T14:59:02Z</time>
      </trkpt>
      <trkpt lat="38.3418950" lon="-0.6892590">
        <ele>289.0</ele>
        <time>2018-03-05T14:59:03Z</time>
      </trkpt>
      <trkpt lat="38.3418780" lon="-0.6892240">
        <ele>289.0</ele>
        <time>2018-03-05T14:59:04Z</time>
      </trkpt>
      <trkpt lat="38.3418630" lon="-0.6891890">
        <ele>289.0</ele>
        <time>2018-03-05T14:59:05Z</time>
      </trkpt>
      <trkpt lat="38.3418480" lon="-0.6891570">
        <ele>290.0</ele>
        <time>2018-03-05T14:59:06Z</time>
      </trkpt>
      <trkpt lat="38.3418380" lon="-0.6891260">
        <ele>290.0</ele>
        <time>2018-03-05T14:59:07Z</time>
      </trkpt>
      <trkpt lat="38.3418260" lon="-0.6890960">
        <ele>290.0</ele>
        <time>2018-03-05T14:59:08Z</time>
      </trkpt>
      <trkpt lat="38.3418150" lon="-0.6890700">
        <ele>291.0</ele>
        <time>2018-03-05T14:59:09Z</time>
      </trkpt>
      <trkpt lat="38.3418040" lon="-0.6890410">
        <ele>291.0</ele>
        <time>2018-03-05T14:59:10Z</time>
      </trkpt>
      <trkpt lat="38.3417970" lon="-0.6890140">
        <ele>291.0</ele>
        <time>2018-03-05T14:59:11Z</time>
      </trkpt>
      <trkpt lat="38.3417900" lon="-0.6889890">
        <ele>291.0</ele>
        <time>2018-03-05T14:59:12Z</time>
      </trkpt>
      <trkpt lat="38.3417840" lon="-0.6889630">
        <ele>292.0</ele>
        <time>2018-03-05T14:59:13Z</time>
      </trkpt>
      <trkpt lat="38.3417770" lon="-0.6889350">
        <ele>292.0</ele>
        <time>2018-03-05T14:59:14Z</time>
      </trkpt>
      <trkpt lat="38.3417710" lon="-0.6889050">
        <ele>292.0</ele>
        <time>2018-03-05T14:59:15Z</time>
      </trkpt>
      <trkpt lat="38.3417640" lon="-0.6888750">
        <ele>292.0</ele>
        <time>2018-03-05T14:59:16Z</time>
      </trkpt>
      <trkpt lat="38.3417570" lon="-0.6888440">
        <ele>292.0</ele>
        <time>2018-03-05T14:59:17Z</time>
      </trkpt>
      <trkpt lat="38.3417520" lon="-0.6888130">
        <ele>292.0</ele>
        <time>2018-03-05T14:59:18Z</time>
      </trkpt>
      <trkpt lat="38.3417480" lon="-0.6887800">
        <ele>292.0</ele>
        <time>2018-03-05T14:59:19Z</time>
      </trkpt>
      <trkpt lat="38.3417450" lon="-0.6887450">
        <ele>293.0</ele>
        <time>2018-03-05T14:59:20Z</time>
      </trkpt>
      <trkpt lat="38.3417430" lon="-0.6887110">
        <ele>293.0</ele>
        <time>2018-03-05T14:59:21Z</time>
      </trkpt>
      <trkpt lat="38.3417420" lon="-0.6886740">
        <ele>293.0</ele>
        <time>2018-03-05T14:59:22Z</time>
      </trkpt>
      <trkpt lat="38.3417410" lon="-0.6886340">
        <ele>293.0</ele>
        <time>2018-03-05T14:59:23Z</time>
      </trkpt>
      <trkpt lat="38.3417400" lon="-0.6885990">
        <ele>294.0</ele>
        <time>2018-03-05T14:59:24Z</time>
      </trkpt>
      <trkpt lat="38.3417390" lon="-0.6885630">
        <ele>294.0</ele>
        <time>2018-03-05T14:59:25Z</time>
      </trkpt>
      <trkpt lat="38.3417390" lon="-0.6885310">
        <ele>294.0</ele>
        <time>2018-03-05T14:59:26Z</time>
      </trkpt>
      <trkpt lat="38.3417400" lon="-0.6884960">
        <ele>295.0</ele>
        <time>2018-03-05T14:59:27Z</time>
      </trkpt>
      <trkpt lat="38.3417410" lon="-0.6884590">
        <ele>295.0</ele>
        <time>2018-03-05T14:59:28Z</time>
      </trkpt>
      <trkpt lat="38.3417460" lon="-0.6884240">
        <ele>295.0</ele>
        <time>2018-03-05T14:59:29Z</time>
      </trkpt>
      <trkpt lat="38.3417510" lon="-0.6883900">
        <ele>296.0</ele>
        <time>2018-03-05T14:59:30Z</time>
      </trkpt>
      <trkpt lat="38.3417540" lon="-0.6883580">
        <ele>296.0</ele>
        <time>2018-03-05T14:59:31Z</time>
      </trkpt>
      <trkpt lat="38.3417560" lon="-0.6883270">
        <ele>296.0</ele>
        <time>2018-03-05T14:59:32Z</time>
      </trkpt>
      <trkpt lat="38.3417570" lon="-0.6882950">
        <ele>296.0</ele>
        <time>2018-03-05T14:59:33Z</time>
      </trkpt>
      <trkpt lat="38.3417570" lon="-0.6882660">
        <ele>296.0</ele>
        <time>2018-03-05T14:59:34Z</time>
      </trkpt>
      <trkpt lat="38.3417590" lon="-0.6882350">
        <ele>296.0</ele>
        <time>2018-03-05T14:59:35Z</time>
      </trkpt>
      <trkpt lat="38.3417610" lon="-0.6882060">
        <ele>296.0</ele>
        <time>2018-03-05T14:59:36Z</time>
      </trkpt>
      <trkpt lat="38.3417620" lon="-0.6881760">
        <ele>296.0</ele>
        <time>2018-03-05T14:59:37Z</time>
      </trkpt>
      <trkpt lat="38.3417670" lon="-0.6881470">
        <ele>296.0</ele>
        <time>2018-03-05T14:59:38Z</time>
      </trkpt>
      <trkpt lat="38.3417720" lon="-0.6881190">
        <ele>297.0</ele>
        <time>2018-03-05T14:59:39Z</time>
      </trkpt>
      <trkpt lat="38.3417760" lon="-0.6880900">
        <ele>297.0</ele>
        <time>2018-03-05T14:59:40Z</time>
      </trkpt>
      <trkpt lat="38.3417830" lon="-0.6880650">
        <ele>298.0</ele>
        <time>2018-03-05T14:59:41Z</time>
      </trkpt>
      <trkpt lat="38.3417910" lon="-0.6880420">
        <ele>298.0</ele>
        <time>2018-03-05T14:59:42Z</time>
      </trkpt>
      <trkpt lat="38.3417990" lon="-0.6880170">
        <ele>298.0</ele>
        <time>2018-03-05T14:59:43Z</time>
      </trkpt>
      <trkpt lat="38.3418060" lon="-0.6879920">
        <ele>298.0</ele>
        <time>2018-03-05T14:59:44Z</time>
      </trkpt>
      <trkpt lat="38.3418160" lon="-0.6879670">
        <ele>298.0</ele>
        <time>2018-03-05T14:59:45Z</time>
      </trkpt>
      <trkpt lat="38.3418290" lon="-0.6879400">
        <ele>298.0</ele>
        <time>2018-03-05T14:59:46Z</time>
      </trkpt>
      <trkpt lat="38.3418400" lon="-0.6879160">
        <ele>298.0</ele>
        <time>2018-03-05T14:59:47Z</time>
      </trkpt>
      <trkpt lat="38.3418560" lon="-0.6878970">
        <ele>298.0</ele>
        <time>2018-03-05T14:59:48Z</time>
      </trkpt>
      <trkpt lat="38.3418700" lon="-0.6878840">
        <ele>299.0</ele>
        <time>2018-03-05T14:59:49Z</time>
      </trkpt>
      <trkpt lat="38.3418850" lon="-0.6878730">
        <ele>299.0</ele>
        <time>2018-03-05T14:59:50Z</time>
      </trkpt>
      <trkpt lat="38.3419000" lon="-0.6878640">
        <ele>299.0</ele>
        <time>2018-03-05T14:59:51Z</time>
      </trkpt>
      <trkpt lat="38.3419150" lon="-0.6878500">
        <ele>299.0</ele>
        <time>2018-03-05T14:59:52Z</time>
      </trkpt>
      <trkpt lat="38.3419300" lon="-0.6878310">
        <ele>299.0</ele>
        <time>2018-03-05T14:59:53Z</time>
      </trkpt>
      <trkpt lat="38.3419440" lon="-0.6878100">
        <ele>299.0</ele>
        <time>2018-03-05T14:59:54Z</time>
      </trkpt>
      <trkpt lat="38.3419540" lon="-0.6877830">
        <ele>300.0</ele>
        <time>2018-03-05T14:59:55Z</time>
      </trkpt>
      <trkpt lat="38.3419630" lon="-0.6877560">
        <ele>299.0</ele>
        <time>2018-03-05T14:59:56Z</time>
      </trkpt>
      <trkpt lat="38.3419690" lon="-0.6877280">
        <ele>299.0</ele>
        <time>2018-03-05T14:59:57Z</time>
      </trkpt>
      <trkpt lat="38.3419710" lon="-0.6876940">
        <ele>299.0</ele>
        <time>2018-03-05T14:59:58Z</time>
      </trkpt>
      <trkpt lat="38.3419700" lon="-0.6876570">
        <ele>300.0</ele>
        <time>2018-03-05T14:59:59Z</time>
      </trkpt>
      <trkpt lat="38.3419650" lon="-0.6876220">
        <ele>299.0</ele>
        <time>2018-03-05T15:00:00Z</time>
      </trkpt>
      <trkpt lat="38.3419570" lon="-0.6875880">
        <ele>299.0</ele>
        <time>2018-03-05T15:00:01Z</time>
      </trkpt>
      <trkpt lat="38.3419450" lon="-0.6875510">
        <ele>300.0</ele>
        <time>2018-03-05T15:00:02Z</time>
      </trkpt>
      <trkpt lat="38.3419340" lon="-0.6875140">
        <ele>300.0</ele>
        <time>2018-03-05T15:00:03Z</time>
      </trkpt>
      <trkpt lat="38.3419240" lon="-0.6874770">
        <ele>300.0</ele>
        <time>2018-03-05T15:00:04Z</time>
      </trkpt>
      <trkpt lat="38.3419120" lon="-0.6874420">
        <ele>300.0</ele>
        <time>2018-03-05T15:00:05Z</time>
      </trkpt>
      <trkpt lat="38.3419030" lon="-0.6874070">
        <ele>300.0</ele>
        <time>2018-03-05T15:00:06Z</time>
      </trkpt>
      <trkpt lat="38.3418990" lon="-0.6873780">
        <ele>301.0</ele>
        <time>2018-03-05T15:00:07Z</time>
      </trkpt>
      <trkpt lat="38.3418960" lon="-0.6873480">
        <ele>301.0</ele>
        <time>2018-03-05T15:00:08Z</time>
      </trkpt>
      <trkpt lat="38.3418910" lon="-0.6873160">
        <ele>301.0</ele>
        <time>2018-03-05T15:00:09Z</time>
      </trkpt>
      <trkpt lat="38.3418880" lon="-0.6872840">
        <ele>301.0</ele>
        <time>2018-03-05T15:00:10Z</time>
      </trkpt>
      <trkpt lat="38.3418860" lon="-0.6872520">
        <ele>301.0</ele>
        <time>2018-03-05T15:00:11Z</time>
      </trkpt>
      <trkpt lat="38.3418840" lon="-0.6872180">
        <ele>302.0</ele>
        <time>2018-03-05T15:00:12Z</time>
      </trkpt>
      <trkpt lat="38.3418830" lon="-0.6871860">
        <ele>302.0</ele>
        <time>2018-03-05T15:00:13Z</time>
      </trkpt>
      <trkpt lat="38.3418830" lon="-0.6871580">
        <ele>302.0</ele>
        <time>2018-03-05T15:00:14Z</time>
      </trkpt>
      <trkpt lat="38.3418840" lon="-0.6871320">
        <ele>302.0</ele>
        <time>2018-03-05T15:00:15Z</time>
      </trkpt>
      <trkpt lat="38.3418860" lon="-0.6871060">
        <ele>303.0</ele>
        <time>2018-03-05T15:00:16Z</time>
      </trkpt>
      <trkpt lat="38.3418870" lon="-0.6870800">
        <ele>303.0</ele>
        <time>2018-03-05T15:00:17Z</time>
      </trkpt>
      <trkpt lat="38.3418870" lon="-0.6870510">
        <ele>303.0</ele>
        <time>2018-03-05T15:00:18Z</time>
      </trkpt>
      <trkpt lat="38.3418830" lon="-0.6870250">
        <ele>303.0</ele>
        <time>2018-03-05T15:00:19Z</time>
      </trkpt>
      <trkpt lat="38.3418790" lon="-0.6869970">
        <ele>303.0</ele>
        <time>2018-03-05T15:00:20Z</time>
      </trkpt>
      <trkpt lat="38.3418780" lon="-0.6869650">
        <ele>303.0</ele>
        <time>2018-03-05T15:00:21Z</time>
      </trkpt>
      <trkpt lat="38.3418770" lon="-0.6869340">
        <ele>304.0</ele>
        <time>2018-03-05T15:00:22Z</time>
      </trkpt>
      <trkpt lat="38.3418750" lon="-0.6869030">
        <ele>304.0</ele>
        <time>2018-03-05T15:00:23Z</time>
      </trkpt>
      <trkpt lat="38.3418730" lon="-0.6868730">
        <ele>304.0</ele>
        <time>2018-03-05T15:00:24Z</time>
      </trkpt>
      <trkpt lat="38.3418740" lon="-0.6868450">
        <ele>304.0</ele>
        <time>2018-03-05T15:00:25Z</time>
      </trkpt>
      <trkpt lat="38.3418740" lon="-0.6868160">
        <ele>304.0</ele>
        <time>2018-03-05T15:00:26Z</time>
      </trkpt>
      <trkpt lat="38.3418740" lon="-0.6867850">
        <ele>304.0</ele>
        <time>2018-03-05T15:00:27Z</time>
      </trkpt>
      <trkpt lat="38.3418790" lon="-0.6867510">
        <ele>304.0</ele>
        <time>2018-03-05T15:00:28Z</time>
      </trkpt>
      <trkpt lat="38.3418810" lon="-0.6867180">
        <ele>305.0</ele>
        <time>2018-03-05T15:00:29Z</time>
      </trkpt>
      <trkpt lat="38.3418810" lon="-0.6866910">
        <ele>305.0</ele>
        <time>2018-03-05T15:00:30Z</time>
      </trkpt>
      <trkpt lat="38.3418830" lon="-0.6866640">
        <ele>305.0</ele>
        <time>2018-03-05T15:00:31Z</time>
      </trkpt>
      <trkpt lat="38.3418830" lon="-0.6866370">
        <ele>305.0</ele>
        <time>2018-03-05T15:00:32Z</time>
      </trkpt>
      <trkpt lat="38.3418840" lon="-0.6866070">
        <ele>305.0</ele>
        <time>2018-03-05T15:00:33Z</time>
      </trkpt>
      <trkpt lat="38.3418840" lon="-0.6865760">
        <ele>306.0</ele>
        <time>2018-03-05T15:00:34Z</time>
      </trkpt>
      <trkpt lat="38.3418870" lon="-0.6865480">
        <ele>306.0</ele>
        <time>2018-03-05T15:00:35Z</time>
      </trkpt>
      <trkpt lat="38.3418870" lon="-0.6865210">
        <ele>306.0</ele>
        <time>2018-03-05T15:00:36Z</time>
      </trkpt>
      <trkpt lat="38.3418870" lon="-0.6864910">
        <ele>306.0</ele>
        <time>2018-03-05T15:00:37Z</time>
      </trkpt>
      <trkpt lat="38.3418880" lon="-0.6864630">
        <ele>306.0</ele>
        <time>2018-03-05T15:00:38Z</time>
      </trkpt>
      <trkpt lat="38.3418890" lon="-0.6864330">
        <ele>307.0</ele>
        <time>2018-03-05T15:00:39Z</time>
      </trkpt>
      <trkpt lat="38.3418890" lon="-0.6864030">
        <ele>307.0</ele>
        <time>2018-03-05T15:00:40Z</time>
      </trkpt>
      <trkpt lat="38.3418890" lon="-0.6863730">
        <ele>307.0</ele>
        <time>2018-03-05T15:00:41Z</time>
      </trkpt>
      <trkpt lat="38.3418910" lon="-0.6863440">
        <ele>307.0</ele>
        <time>2018-03-05T15:00:42Z</time>
      </trkpt>
      <trkpt lat="38.3418920" lon="-0.6863150">
        <ele>308.0</ele>
        <time>2018-03-05T15:00:43Z</time>
      </trkpt>
      <trkpt lat="38.3418940" lon="-0.6862850">
        <ele>308.0</ele>
        <time>2018-03-05T15:00:44Z</time>
      </trkpt>
      <trkpt lat="38.3418970" lon="-0.6862550">
        <ele>308.0</ele>
        <time>2018-03-05T15:00:45Z</time>
      </trkpt>
      <trkpt lat="38.3419010" lon="-0.6862310">
        <ele>308.0</ele>
        <time>2018-03-05T15:00:46Z</time>
      </trkpt>
      <trkpt lat="38.3419020" lon="-0.6862070">
        <ele>309.0</ele>
        <time>2018-03-05T15:00:47Z</time>
      </trkpt>
      <trkpt lat="38.3419010" lon="-0.6861830">
        <ele>309.0</ele>
        <time>2018-03-05T15:00:48Z</time>
      </trkpt>
      <trkpt lat="38.3418980" lon="-0.6861580">
        <ele>309.0</ele>
        <time>2018-03-05T15:00:49Z</time>
      </trkpt>
      <trkpt lat="38.3419000" lon="-0.6861320">
        <ele>309.0</ele>
        <time>2018-03-05T15:00:50Z</time>
      </trkpt>
      <trkpt lat="38.3419050" lon="-0.6861080">
        <ele>309.0</ele>
        <time>2018-03-05T15:00:51Z</time>
      </trkpt>
      <trkpt lat="38.3419080" lon="-0.6860860">
        <ele>310.0</ele>
        <time>2018-03-05T15:00:52Z</time>
      </trkpt>
      <trkpt lat="38.3419150" lon="-0.6860640">
        <ele>310.0</ele>
        <time>2018-03-05T15:00:53Z</time>
      </trkpt>
      <trkpt lat="38.3419200" lon="-0.6860400">
        <ele>310.0</ele>
        <time>2018-03-05T15:00:54Z</time>
      </trkpt>
      <trkpt lat="38.3419250" lon="-0.6860160">
        <ele>310.0</ele>
        <time>2018-03-05T15:00:55Z</time>
      </trkpt>
      <trkpt lat="38.3419320" lon="-0.6859920">
        <ele>311.0</ele>
        <time>2018-03-05T15:00:56Z</time>
      </trkpt>
      <trkpt lat="38.3419380" lon="-0.6859690">
        <ele>311.0</ele>
        <time>2018-03-05T15:00:57Z</time>
      </trkpt>
      <trkpt lat="38.3419460" lon="-0.6859480">
        <ele>311.0</ele>
        <time>2018-03-05T15:00:58Z</time>
      </trkpt>
      <trkpt lat="38.3419560" lon="-0.6859280">
        <ele>311.0</ele>
        <time>2018-03-05T15:00:59Z</time>
      </trkpt>
      <trkpt lat="38.3419640" lon="-0.6859070">
        <ele>311.0</ele>
        <time>2018-03-05T15:01:00Z</time>
      </trkpt>
      <trkpt lat="38.3419730" lon="-0.6858840">
        <ele>312.0</ele>
        <time>2018-03-05T15:01:01Z</time>
      </trkpt>
      <trkpt lat="38.3419820" lon="-0.6858610">
        <ele>312.0</ele>
        <time>2018-03-05T15:01:02Z</time>
      </trkpt>
      <trkpt lat="38.3419920" lon="-0.6858390">
        <ele>313.0</ele>
        <time>2018-03-05T15:01:03Z</time>
      </trkpt>
      <trkpt lat="38.3420000" lon="-0.6858170">
        <ele>313.0</ele>
        <time>2018-03-05T15:01:04Z</time>
      </trkpt>
      <trkpt lat="38.3420100" lon="-0.6858000">
        <ele>313.0</ele>
        <time>2018-03-05T15:01:05Z</time>
      </trkpt>
      <trkpt lat="38.3420140" lon="-0.6857820">
        <ele>313.0</ele>
        <time>2018-03-05T15:01:06Z</time>
      </trkpt>
      <trkpt lat="38.3420210" lon="-0.6857660">
        <ele>314.0</ele>
        <time>2018-03-05T15:01:07Z</time>
      </trkpt>
      <trkpt lat="38.3420290" lon="-0.6857520">
        <ele>314.0</ele>
        <time>2018-03-05T15:01:08Z</time>
      </trkpt>
      <trkpt lat="38.3420350" lon="-0.6857320">
        <ele>314.0</ele>
        <time>2018-03-05T15:01:09Z</time>
      </trkpt>
      <trkpt lat="38.3420420" lon="-0.6857120">
        <ele>314.0</ele>
        <time>2018-03-05T15:01:10Z</time>
      </trkpt>
      <trkpt lat="38.3420510" lon="-0.6856960">
        <ele>314.0</ele>
        <time>2018-03-05T15:01:11Z</time>
      </trkpt>
      <trkpt lat="38.3420610" lon="-0.6856800">
        <ele>314.0</ele>
        <time>2018-03-05T15:01:12Z</time>
      </trkpt>
      <trkpt lat="38.3420670" lon="-0.6856620">
        <ele>314.0</ele>
        <time>2018-03-05T15:01:13Z</time>
      </trkpt>
      <trkpt lat="38.3420770" lon="-0.6856440">
        <ele>315.0</ele>
        <time>2018-03-05T15:01:14Z</time>
      </trkpt>
      <trkpt lat="38.3420840" lon="-0.6856260">
        <ele>315.0</ele>
        <time>2018-03-05T15:01:15Z</time>
      </trkpt>
      <trkpt lat="38.3420910" lon="-0.6856090">
        <ele>315.0</ele>
        <time>2018-03-05T15:01:16Z</time>
      </trkpt>
      <trkpt lat="38.3420980" lon="-0.6855900">
        <ele>315.0</ele>
        <time>2018-03-05T15:01:17Z</time>
      </trkpt>
      <trkpt lat="38.3421010" lon="-0.6855700">
        <ele>315.0</ele>
        <time>2018-03-05T15:01:18Z</time>
      </trkpt>
      <trkpt lat="38.3420990" lon="-0.6855460">
        <ele>315.0</ele>
        <time>2018-03-05T15:01:19Z</time>
      </trkpt>
      <trkpt lat="38.3420950" lon="-0.6855210">
        <ele>315.0</ele>
        <time>2018-03-05T15:01:20Z</time>
      </trkpt>
      <trkpt lat="38.3420860" lon="-0.6854960">
        <ele>316.0</ele>
        <time>2018-03-05T15:01:21Z</time>
      </trkpt>
      <trkpt lat="38.3420740" lon="-0.6854720">
        <ele>316.0</ele>
        <time>2018-03-05T15:01:22Z</time>
      </trkpt>
      <trkpt lat="38.3420580" lon="-0.6854560">
        <ele>316.0</ele>
        <time>2018-03-05T15:01:23Z</time>
      </trkpt>
      <trkpt lat="38.3420410" lon="-0.6854410">
        <ele>317.0</ele>
        <time>2018-03-05T15:01:24Z</time>
      </trkpt>
      <trkpt lat="38.3420250" lon="-0.6854270">
        <ele>317.0</ele>
        <time>2018-03-05T15:01:25Z</time>
      </trkpt>
      <trkpt lat="38.3420080" lon="-0.6854100">
        <ele>317.0</ele>
        <time>2018-03-05T15:01:26Z</time>
      </trkpt>
      <trkpt lat="38.3419940" lon="-0.6853960">
        <ele>318.0</ele>
        <time>2018-03-05T15:01:27Z</time>
      </trkpt>
      <trkpt lat="38.3419790" lon="-0.6853860">
        <ele>318.0</ele>
        <time>2018-03-05T15:01:28Z</time>
      </trkpt>
      <trkpt lat="38.3419640" lon="-0.6853800">
        <ele>318.0</ele>
        <time>2018-03-05T15:01:29Z</time>
      </trkpt>
      <trkpt lat="38.3419490" lon="-0.6853740">
        <ele>318.0</ele>
        <time>2018-03-05T15:01:30Z</time>
      </trkpt>
      <trkpt lat="38.3419340" lon="-0.6853680">
        <ele>318.0</ele>
        <time>2018-03-05T15:01:31Z</time>
      </trkpt>
      <trkpt lat="38.3419150" lon="-0.6853620">
        <ele>319.0</ele>
        <time>2018-03-05T15:01:32Z</time>
      </trkpt>
      <trkpt lat="38.3419000" lon="-0.6853560">
        <ele>319.0</ele>
        <time>2018-03-05T15:01:33Z</time>
      </trkpt>
      <trkpt lat="38.3418840" lon="-0.6853520">
        <ele>319.0</ele>
        <time>2018-03-05T15:01:34Z</time>
      </trkpt>
      <trkpt lat="38.3418700" lon="-0.6853450">
        <ele>319.0</ele>
        <time>2018-03-05T15:01:35Z</time>
      </trkpt>
      <trkpt lat="38.3418550" lon="-0.6853390">
        <ele>319.0</ele>
        <time>2018-03-05T15:01:36Z</time>
      </trkpt>
      <trkpt lat="38.3418420" lon="-0.6853320">
        <ele>320.0</ele>
        <time>2018-03-05T15:01:37Z</time>
      </trkpt>
      <trkpt lat="38.3418280" lon="-0.6853230">
        <ele>320.0</ele>
        <time>2018-03-05T15:01:38Z</time>
      </trkpt>
      <trkpt lat="38.3418160" lon="-0.6853160">
        <ele>321.0</ele>
        <time>2018-03-05T15:01:39Z</time>
      </trkpt>
      <trkpt lat="38.3418040" lon="-0.6853090">
        <ele>321.0</ele>
        <time>2018-03-05T15:01:40Z</time>
      </trkpt>
      <trkpt lat="38.3417910" lon="-0.6853000">
        <ele>321.0</ele>
        <time>2018-03-05T15:01:41Z</time>
      </trkpt>
      <trkpt lat="38.3417770" lon="-0.6852920">
        <ele>321.0</ele>
        <time>2018-03-05T15:01:42Z</time>
      </trkpt>
      <trkpt lat="38.3417630" lon="-0.6852830">
        <ele>322.0</ele>
        <time>2018-03-05T15:01:43Z</time>
      </trkpt>
      <trkpt lat="38.3417470" lon="-0.6852730">
        <ele>322.0</ele>
        <time>2018-03-05T15:01:44Z</time>
      </trkpt>
      <trkpt lat="38.3417290" lon="-0.6852640">
        <ele>322.0</ele>
        <time>2018-03-05T15:01:45Z</time>
      </trkpt>
      <trkpt lat="38.3417110" lon="-0.6852500">
        <ele>323.0</ele>
        <time>2018-03-05T15:01:46Z</time>
      </trkpt>
      <trkpt lat="38.3416970" lon="-0.6852380">
        <ele>323.0</ele>
        <time>2018-03-05T15:01:47Z</time>
      </trkpt>
      <trkpt lat="38.3416860" lon="-0.6852280">
        <ele>323.0</ele>
        <time>2018-03-05T15:01:48Z</time>
      </trkpt>
      <trkpt lat="38.3416750" lon="-0.6852200">
        <ele>323.0</ele>
        <time>2018-03-05T15:01:49Z</time>
      </trkpt>
      <trkpt lat="38.3416640" lon="-0.6852120">
        <ele>323.0</ele>
        <time>2018-03-05T15:01:50Z</time>
      </trkpt>
      <trkpt lat="38.3416540" lon="-0.6852020">
        <ele>324.0</ele>
        <time>2018-03-05T15:01:51Z</time>
      </trkpt>
      <trkpt lat="38.3416440" lon="-0.6851910">
        <ele>324.0</ele>
        <time>2018-03-05T15:01:52Z</time>
      </trkpt>
      <trkpt lat="38.3416350" lon="-0.6851820">
        <ele>324.0</ele>
        <time>2018-03-05T15:01:53Z</time>
      </trkpt>
      <trkpt lat="38.3416270" lon="-0.6851710">
        <ele>324.0</ele>
        <time>2018-03-05T15:01:54Z</time>
      </trkpt>
      <trkpt lat="38.3416170" lon="-0.6851610">
        <ele>324.0</ele>
        <time>2018-03-05T15:01:55Z</time>
      </trkpt>
      <trkpt lat="38.3416040" lon="-0.6851470">
        <ele>324.0</ele>
        <time>2018-03-05T15:01:56Z</time>
      </trkpt>
      <trkpt lat="38.3415860" lon="-0.6851300">
        <ele>324.0</ele>
        <time>2018-03-05T15:01:57Z</time>
      </trkpt>
      <trkpt lat="38.3415660" lon="-0.6851080">
        <ele>323.0</ele>
        <time>2018-03-05T15:01:58Z</time>
      </trkpt>
      <trkpt lat="38.3415450" lon="-0.6850780">
        <ele>323.0</ele>
        <time>2018-03-05T15:01:59Z</time>
      </trkpt>
      <trkpt lat="38.3415250" lon="-0.6850440">
        <ele>323.0</ele>
        <time>2018-03-05T15:02:00Z</time>
      </trkpt>
      <trkpt lat="38.3415110" lon="-0.6850080">
        <ele>322.0</ele>
        <time>2018-03-05T15:02:01Z</time>
      </trkpt>
      <trkpt lat="38.3414990" lon="-0.6849740">
        <ele>322.0</ele>
        <time>2018-03-05T15:02:02Z</time>
      </trkpt>
      <trkpt lat="38.3414830" lon="-0.6849360">
        <ele>321.0</ele>
        <time>2018-03-05T15:02:03Z</time>
      </trkpt>
      <trkpt lat="38.3414630" lon="-0.6848940">
        <ele>320.0</ele>
        <time>2018-03-05T15:02:04Z</time>
      </trkpt>
      <trkpt lat="38.3414440" lon="-0.6848550">
        <ele>319.0</ele>
        <time>2018-03-05T15:02:05Z</time>
      </trkpt>
      <trkpt lat="38.3414240" lon="-0.6848170">
        <ele>318.0</ele>
        <time>2018-03-05T15:02:06Z</time>
      </trkpt>
      <trkpt lat="38.3414040" lon="-0.6847720">
        <ele>316.0</ele>
        <time>2018-03-05T15:02:07Z</time>
      </trkpt>
      <trkpt lat="38.3413830" lon="-0.6847150">
        <ele>315.0</ele>
        <time>2018-03-05T15:02:08Z</time>
      </trkpt>
      <trkpt lat="38.3413620" lon="-0.6846580">
        <ele>313.0</ele>
        <time>2018-03-05T15:02:09Z</time>
      </trkpt>
      <trkpt lat="38.3413470" lon="-0.6846050">
        <ele>312.0</ele>
        <time>2018-03-05T15:02:10Z</time>
      </trkpt>
      <trkpt lat="38.3413350" lon="-0.6845530">
        <ele>312.0</ele>
        <time>2018-03-05T15:02:11Z</time>
      </trkpt>
      <trkpt lat="38.3413210" lon="-0.6845080">
        <ele>311.0</ele>
        <time>2018-03-05T15:02:12Z</time>
      </trkpt>
      <trkpt lat="38.3413120" lon="-0.6844720">
        <ele>310.0</ele>
        <time>2018-03-05T15:02:13Z</time>
      </trkpt>
      <trkpt lat="38.3413080" lon="-0.6844360">
        <ele>309.0</ele>
        <time>2018-03-05T15:02:14Z</time>
      </trkpt>
      <trkpt lat="38.3413040" lon="-0.6843990">
        <ele>308.0</ele>
        <time>2018-03-05T15:02:15Z</time>
      </trkpt>
      <trkpt lat="38.3413040" lon="-0.6843650">
        <ele>308.0</ele>
        <time>2018-03-05T15:02:16Z</time>
      </trkpt>
      <trkpt lat="38.3413090" lon="-0.6843280">
        <ele>307.0</ele>
        <time>2018-03-05T15:02:17Z</time>
      </trkpt>
      <trkpt lat="38.3413130" lon="-0.6842830">
        <ele>306.0</ele>
        <time>2018-03-05T15:02:18Z</time>
      </trkpt>
      <trkpt lat="38.3413170" lon="-0.6842160">
        <ele>306.0</ele>
        <time>2018-03-05T15:02:19Z</time>
      </trkpt>
      <trkpt lat="38.3413180" lon="-0.6841640">
        <ele>305.0</ele>
        <time>2018-03-05T15:02:20Z</time>
      </trkpt>
      <trkpt lat="38.3413170" lon="-0.6841160">
        <ele>304.0</ele>
        <time>2018-03-05T15:02:21Z</time>
      </trkpt>
      <trkpt lat="38.3413150" lon="-0.6840640">
        <ele>303.0</ele>
        <time>2018-03-05T15:02:22Z</time>
      </trkpt>
      <trkpt lat="38.3413130" lon="-0.6840110">
        <ele>303.0</ele>
        <time>2018-03-05T15:02:23Z</time>
      </trkpt>
      <trkpt lat="38.3413060" lon="-0.6839630">
        <ele>302.0</ele>
        <time>2018-03-05T15:02:24Z</time>
      </trkpt>
      <trkpt lat="38.3412920" lon="-0.6839240">
        <ele>301.0</ele>
        <time>2018-03-05T15:02:25Z</time>
      </trkpt>
      <trkpt lat="38.3412730" lon="-0.6838900">
        <ele>301.0</ele>
        <time>2018-03-05T15:02:26Z</time>
      </trkpt>
      <trkpt lat="38.3412470" lon="-0.6838640">
        <ele>301.0</ele>
        <time>2018-03-05T15:02:27Z</time>
      </trkpt>
      <trkpt lat="38.3412180" lon="-0.6838450">
        <ele>300.0</ele>
        <time>2018-03-05T15:02:28Z</time>
      </trkpt>
      <trkpt lat="38.3411760" lon="-0.6838380">
        <ele>300.0</ele>
        <time>2018-03-05T15:02:29Z</time>
      </trkpt>
      <trkpt lat="38.3411350" lon="-0.6838370">
        <ele>300.0</ele>
        <time>2018-03-05T15:02:30Z</time>
      </trkpt>
      <trkpt lat="38.3410950" lon="-0.6838390">
        <ele>300.0</ele>
        <time>2018-03-05T15:02:31Z</time>
      </trkpt>
      <trkpt lat="38.3410520" lon="-0.6838480">
        <ele>300.0</ele>
        <time>2018-03-05T15:02:32Z</time>
      </trkpt>
      <trkpt lat="38.3410110" lon="-0.6838640">
        <ele>300.0</ele>
        <time>2018-03-05T15:02:33Z</time>
      </trkpt>
      <trkpt lat="38.3409690" lon="-0.6838680">
        <ele>299.0</ele>
        <time>2018-03-05T15:02:34Z</time>
      </trkpt>
      <trkpt lat="38.3409200" lon="-0.6838440">
        <ele>299.0</ele>
        <time>2018-03-05T15:02:35Z</time>
      </trkpt>
      <trkpt lat="38.3408840" lon="-0.6838130">
        <ele>300.0</ele>
        <time>2018-03-05T15:02:36Z</time>
      </trkpt>
      <trkpt lat="38.3408470" lon="-0.6837830">
        <ele>299.0</ele>
        <time>2018-03-05T15:02:37Z</time>
      </trkpt>
      <trkpt lat="38.3408140" lon="-0.6837520">
        <ele>300.0</ele>
        <time>2018-03-05T15:02:38Z</time>
      </trkpt>
      <trkpt lat="38.3407810" lon="-0.6837280">
        <ele>300.0</ele>
        <time>2018-03-05T15:02:39Z</time>
      </trkpt>
      <trkpt lat="38.3407480" lon="-0.6837140">
        <ele>299.0</ele>
        <time>2018-03-05T15:02:40Z</time>
      </trkpt>
      <trkpt lat="38.3407110" lon="-0.6837070">
        <ele>299.0</ele>
        <time>2018-03-05T15:02:41Z</time>
      </trkpt>
      <trkpt lat="38.3406640" lon="-0.6837100">
        <ele>298.0</ele>
        <time>2018-03-05T15:02:42Z</time>
      </trkpt>
      <trkpt lat="38.3406080" lon="-0.6837110">
        <ele>297.0</ele>
        <time>2018-03-05T15:02:43Z</time>
      </trkpt>
      <trkpt lat="38.3405470" lon="-0.6837150">
        <ele>296.0</ele>
        <time>2018-03-05T15:02:44Z</time>
      </trkpt>
      <trkpt lat="38.3404830" lon="-0.6837160">
        <ele>295.0</ele>
        <time>2018-03-05T15:02:45Z</time>
      </trkpt>
      <trkpt lat="38.3404140" lon="-0.6837110">
        <ele>294.0</ele>
        <time>2018-03-05T15:02:46Z</time>
      </trkpt>
      <trkpt lat="38.3403430" lon="-0.6837040">
        <ele>294.0</ele>
        <time>2018-03-05T15:02:47Z</time>
      </trkpt>
      <trkpt lat="38.3402720" lon="-0.6837000">
        <ele>294.0</ele>
        <time>2018-03-05T15:02:48Z</time>
      </trkpt>
      <trkpt lat="38.3402080" lon="-0.6836920">
        <ele>294.0</ele>
        <time>2018-03-05T15:02:49Z</time>
      </trkpt>
      <trkpt lat="38.3401680" lon="-0.6836870">
        <ele>294.0</ele>
        <time>2018-03-05T15:02:50Z</time>
      </trkpt>
      <trkpt lat="38.3401380" lon="-0.6836670">
        <ele>294.0</ele>
        <time>2018-03-05T15:02:51Z</time>
      </trkpt>
      <trkpt lat="38.3401210" lon="-0.6836370">
        <ele>294.0</ele>
        <time>2018-03-05T15:02:52Z</time>
      </trkpt>
      <trkpt lat="38.3401250" lon="-0.6835970">
        <ele>294.0</ele>
        <time>2018-03-05T15:02:53Z</time>
      </trkpt>
      <trkpt lat="38.3401360" lon="-0.6835510">
        <ele>293.0</ele>
        <time>2018-03-05T15:02:54Z</time>
      </trkpt>
      <trkpt lat="38.3401490" lon="-0.6835000">
        <ele>293.0</ele>
        <time>2018-03-05T15:02:55Z</time>
      </trkpt>
      <trkpt lat="38.3401620" lon="-0.6834420">
        <ele>293.0</ele>
        <time>2018-03-05T15:02:56Z</time>
      </trkpt>
      <trkpt lat="38.3401640" lon="-0.6833770">
        <ele>293.0</ele>
        <time>2018-03-05T15:02:57Z</time>
      </trkpt>
      <trkpt lat="38.3401620" lon="-0.6833080">
        <ele>293.0</ele>
        <time>2018-03-05T15:02:58Z</time>
      </trkpt>
      <trkpt lat="38.3401610" lon="-0.6832400">
        <ele>293.0</ele>
        <time>2018-03-05T15:02:59Z</time>
      </trkpt>
      <trkpt lat="38.3401670" lon="-0.6831720">
        <ele>293.0</ele>
        <time>2018-03-05T15:03:00Z</time>
      </trkpt>
      <trkpt lat="38.3401830" lon="-0.6831060">
        <ele>293.0</ele>
        <time>2018-03-05T15:03:01Z</time>
      </trkpt>
      <trkpt lat="38.3402020" lon="-0.6830400">
        <ele>293.0</ele>
        <time>2018-03-05T15:03:02Z</time>
      </trkpt>
      <trkpt lat="38.3402130" lon="-0.6829720">
        <ele>293.0</ele>
        <time>2018-03-05T15:03:03Z</time>
      </trkpt>
      <trkpt lat="38.3402140" lon="-0.6829060">
        <ele>292.0</ele>
        <time>2018-03-05T15:03:04Z</time>
      </trkpt>
      <trkpt lat="38.3402010" lon="-0.6828370">
        <ele>292.0</ele>
        <time>2018-03-05T15:03:05Z</time>
      </trkpt>
      <trkpt lat="38.3401860" lon="-0.6827680">
        <ele>292.0</ele>
        <time>2018-03-05T15:03:06Z</time>
      </trkpt>
      <trkpt lat="38.3401760" lon="-0.6826960">
        <ele>292.0</ele>
        <time>2018-03-05T15:03:07Z</time>
      </trkpt>
      <trkpt lat="38.3401760" lon="-0.6826250">
        <ele>293.0</ele>
        <time>2018-03-05T15:03:08Z</time>
      </trkpt>
      <trkpt lat="38.3401850" lon="-0.6825560">
        <ele>293.0</ele>
        <time>2018-03-05T15:03:09Z</time>
      </trkpt>
      <trkpt lat="38.3402000" lon="-0.6824830">
        <ele>292.0</ele>
        <time>2018-03-05T15:03:10Z</time>
      </trkpt>
      <trkpt lat="38.3402110" lon="-0.6824130">
        <ele>292.0</ele>
        <time>2018-03-05T15:03:11Z</time>
      </trkpt>
      <trkpt lat="38.3402130" lon="-0.6823460">
        <ele>292.0</ele>
        <time>2018-03-05T15:03:12Z</time>
      </trkpt>
      <trkpt lat="38.3401940" lon="-0.6823040">
        <ele>291.0</ele>
        <time>2018-03-05T15:03:13Z</time>
      </trkpt>
      <trkpt lat="38.3401770" lon="-0.6822770">
        <ele>289.0</ele>
        <time>2018-03-05T15:03:14Z</time>
      </trkpt>
      <trkpt lat="38.3401450" lon="-0.6822370">
        <ele>288.0</ele>
        <time>2018-03-05T15:03:15Z</time>
      </trkpt>
      <trkpt lat="38.3401130" lon="-0.6821860">
        <ele>288.0</ele>
        <time>2018-03-05T15:03:16Z</time>
      </trkpt>
      <trkpt lat="38.3400800" lon="-0.6821400">
        <ele>288.0</ele>
        <time>2018-03-05T15:03:17Z</time>
      </trkpt>
      <trkpt lat="38.3400500" lon="-0.6820910">
        <ele>289.0</ele>
        <time>2018-03-05T15:03:18Z</time>
      </trkpt>
      <trkpt lat="38.3400230" lon="-0.6820410">
        <ele>290.0</ele>
        <time>2018-03-05T15:03:19Z</time>
      </trkpt>
      <trkpt lat="38.3399970" lon="-0.6819960">
        <ele>291.0</ele>
        <time>2018-03-05T15:03:20Z</time>
      </trkpt>
      <trkpt lat="38.3399720" lon="-0.6819560">
        <ele>292.0</ele>
        <time>2018-03-05T15:03:21Z</time>
      </trkpt>
      <trkpt lat="38.3399440" lon="-0.6819250">
        <ele>292.0</ele>
        <time>2018-03-05T15:03:22Z</time>
      </trkpt>
      <trkpt lat="38.3399060" lon="-0.6818980">
        <ele>293.0</ele>
        <time>2018-03-05T15:03:23Z</time>
      </trkpt>
      <trkpt lat="38.3398640" lon="-0.6818820">
        <ele>294.0</ele>
        <time>2018-03-05T15:03:24Z</time>
      </trkpt>
      <trkpt lat="38.3398270" lon="-0.6818600">
        <ele>294.0</ele>
        <time>2018-03-05T15:03:25Z</time>
      </trkpt>
      <trkpt lat="38.3397960" lon="-0.6818400">
        <ele>295.0</ele>
        <time>2018-03-05T15:03:26Z</time>
      </trkpt>
      <trkpt lat="38.3397640" lon="-0.6818130">
        <ele>295.0</ele>
        <time>2018-03-05T15:03:27Z</time>
      </trkpt>
      <trkpt lat="38.3397340" lon="-0.6817930">
        <ele>296.0</ele>
        <time>2018-03-05T15:03:28Z</time>
      </trkpt>
      <trkpt lat="38.3397010" lon="-0.6817690">
        <ele>296.0</ele>
        <time>2018-03-05T15:03:29Z</time>
      </trkpt>
      <trkpt lat="38.3396640" lon="-0.6817470">
        <ele>296.0</ele>
        <time>2018-03-05T15:03:30Z</time>
      </trkpt>
      <trkpt lat="38.3396240" lon="-0.6817200">
        <ele>295.0</ele>
        <time>2018-03-05T15:03:31Z</time>
      </trkpt>
      <trkpt lat="38.3395750" lon="-0.6816960">
        <ele>294.0</ele>
        <time>2018-03-05T15:03:32Z</time>
      </trkpt>
      <trkpt lat="38.3395170" lon="-0.6816850">
        <ele>293.0</ele>
        <time>2018-03-05T15:03:33Z</time>
      </trkpt>
      <trkpt lat="38.3394520" lon="-0.6816930">
        <ele>292.0</ele>
        <time>2018-03-05T15:03:34Z</time>
      </trkpt>
      <trkpt lat="38.3393910" lon="-0.6817170">
        <ele>290.0</ele>
        <time>2018-03-05T15:03:35Z</time>
      </trkpt>
      <trkpt lat="38.3393290" lon="-0.6817470">
        <ele>289.0</ele>
        <time>2018-03-05T15:03:36Z</time>
      </trkpt>
      <trkpt lat="38.3392590" lon="-0.6817640">
        <ele>289.0</ele>
        <time>2018-03-05T15:03:37Z</time>
      </trkpt>
      <trkpt lat="38.3392010" lon="-0.6817440">
        <ele>288.0</ele>
        <time>2018-03-05T15:03:38Z</time>
      </trkpt>
      <trkpt lat="38.3391470" lon="-0.6817130">
        <ele>287.0</ele>
        <time>2018-03-05T15:03:39Z</time>
      </trkpt>
      <trkpt lat="38.3390980" lon="-0.6816700">
        <ele>287.0</ele>
        <time>2018-03-05T15:03:40Z</time>
      </trkpt>
      <trkpt lat="38.3390570" lon="-0.6816240">
        <ele>287.0</ele>
        <time>2018-03-05T15:03:41Z</time>
      </trkpt>
      <trkpt lat="38.3390120" lon="-0.6815800">
        <ele>287.0</ele>
        <time>2018-03-05T15:03:42Z</time>
      </trkpt>
      <trkpt lat="38.3389630" lon="-0.6815410">
        <ele>288.0</ele>
        <time>2018-03-05T15:03:43Z</time>
      </trkpt>
      <trkpt lat="38.3389150" lon="-0.6815070">
        <ele>288.0</ele>
        <time>2018-03-05T15:03:44Z</time>
      </trkpt>
      <trkpt lat="38.3388660" lon="-0.6814860">
        <ele>287.0</ele>
        <time>2018-03-05T15:03:45Z</time>
      </trkpt>
      <trkpt lat="38.3388100" lon="-0.6814810">
        <ele>287.0</ele>
        <time>2018-03-05T15:03:46Z</time>
      </trkpt>
      <trkpt lat="38.3387540" lon="-0.6814770">
        <ele>287.0</ele>
        <time>2018-03-05T15:03:47Z</time>
      </trkpt>
      <trkpt lat="38.3386950" lon="-0.6814800">
        <ele>287.0</ele>
        <time>2018-03-05T15:03:48Z</time>
      </trkpt>
      <trkpt lat="38.3386380" lon="-0.6814850">
        <ele>287.0</ele>
        <time>2018-03-05T15:03:49Z</time>
      </trkpt>
      <trkpt lat="38.3385810" lon="-0.6814990">
        <ele>287.0</ele>
        <time>2018-03-05T15:03:50Z</time>
      </trkpt>
      <trkpt lat="38.3385220" lon="-0.6815120">
        <ele>288.0</ele>
        <time>2018-03-05T15:03:51Z</time>
      </trkpt>
      <trkpt lat="38.3384690" lon="-0.6815370">
        <ele>288.0</ele>
        <time>2018-03-05T15:03:52Z</time>
      </trkpt>
      <trkpt lat="38.3384390" lon="-0.6815740">
        <ele>285.0</ele>
        <time>2018-03-05T15:03:53Z</time>
      </trkpt>
      <trkpt lat="38.3384050" lon="-0.6816190">
        <ele>285.0</ele>
        <time>2018-03-05T15:03:54Z</time>
      </trkpt>
      <trkpt lat="38.3384100" lon="-0.6816640">
        <ele>286.0</ele>
        <time>2018-03-05T15:03:55Z</time>
      </trkpt>
      <trkpt lat="38.3383960" lon="-0.6817160">
        <ele>285.0</ele>
        <time>2018-03-05T15:03:56Z</time>
      </trkpt>
      <trkpt lat="38.3383900" lon="-0.6817760">
        <ele>284.0</ele>
        <time>2018-03-05T15:03:57Z</time>
      </trkpt>
      <trkpt lat="38.3383740" lon="-0.6818680">
        <ele>284.0</ele>
        <time>2018-03-05T15:03:58Z</time>
      </trkpt>
      <trkpt lat="38.3383680" lon="-0.6819500">
        <ele>284.0</ele>
        <time>2018-03-05T15:03:59Z</time>
      </trkpt>
      <trkpt lat="38.3383710" lon="-0.6820300">
        <ele>283.0</ele>
        <time>2018-03-05T15:04:00Z</time>
      </trkpt>
      <trkpt lat="38.3383770" lon="-0.6821120">
        <ele>283.0</ele>
        <time>2018-03-05T15:04:01Z</time>
      </trkpt>
      <trkpt lat="38.3383720" lon="-0.6821930">
        <ele>283.0</ele>
        <time>2018-03-05T15:04:02Z</time>
      </trkpt>
      <trkpt lat="38.3383400" lon="-0.6822630">
        <ele>283.0</ele>
        <time>2018-03-05T15:04:03Z</time>
      </trkpt>
      <trkpt lat="38.3383010" lon="-0.6823330">
        <ele>282.0</ele>
        <time>2018-03-05T15:04:04Z</time>
      </trkpt>
      <trkpt lat="38.3382800" lon="-0.6824100">
        <ele>281.0</ele>
        <time>2018-03-05T15:04:05Z</time>
      </trkpt>
      <trkpt lat="38.3382730" lon="-0.6824910">
        <ele>281.0</ele>
        <time>2018-03-05T15:04:06Z</time>
      </trkpt>
      <trkpt lat="38.3382770" lon="-0.6825610">
        <ele>280.0</ele>
        <time>2018-03-05T15:04:07Z</time>
      </trkpt>
      <trkpt lat="38.3383090" lon="-0.6826500">
        <ele>281.0</ele>
        <time>2018-03-05T15:04:08Z</time>
      </trkpt>
      <trkpt lat="38.3383270" lon="-0.6827280">
        <ele>279.0</ele>
        <time>2018-03-05T15:04:09Z</time>
      </trkpt>
      <trkpt lat="38.3383360" lon="-0.6828050">
        <ele>278.0</ele>
        <time>2018-03-05T15:04:10Z</time>
      </trkpt>
      <trkpt lat="38.3382680" lon="-0.6828630">
        <ele>274.0</ele>
        <time>2018-03-05T15:04:11Z</time>
      </trkpt>
      <trkpt lat="38.3382420" lon="-0.6829310">
        <ele>276.0</ele>
        <time>2018-03-05T15:04:12Z</time>
      </trkpt>
      <trkpt lat="38.3382010" lon="-0.6829900">
        <ele>277.0</ele>
        <time>2018-03-05T15:04:13Z</time>
      </trkpt>
      <trkpt lat="38.3381550" lon="-0.6830480">
        <ele>276.0</ele>
        <time>2018-03-05T15:04:14Z</time>
      </trkpt>
      <trkpt lat="38.3381010" lon="-0.6831110">
        <ele>275.0</ele>
        <time>2018-03-05T15:04:15Z</time>
      </trkpt>
      <trkpt lat="38.3380400" lon="-0.6831760">
        <ele>275.0</ele>
        <time>2018-03-05T15:04:16Z</time>
      </trkpt>
      <trkpt lat="38.3379650" lon="-0.6832030">
        <ele>274.0</ele>
        <time>2018-03-05T15:04:17Z</time>
      </trkpt>
      <trkpt lat="38.3378940" lon="-0.6832150">
        <ele>273.0</ele>
        <time>2018-03-05T15:04:18Z</time>
      </trkpt>
      <trkpt lat="38.3378290" lon="-0.6832430">
        <ele>273.0</ele>
        <time>2018-03-05T15:04:19Z</time>
      </trkpt>
      <trkpt lat="38.3377680" lon="-0.6832790">
        <ele>273.0</ele>
        <time>2018-03-05T15:04:20Z</time>
      </trkpt>
      <trkpt lat="38.3377060" lon="-0.6833180">
        <ele>272.0</ele>
        <time>2018-03-05T15:04:21Z</time>
      </trkpt>
      <trkpt lat="38.3376510" lon="-0.6833590">
        <ele>272.0</ele>
        <time>2018-03-05T15:04:22Z</time>
      </trkpt>
      <trkpt lat="38.3375880" lon="-0.6834050">
        <ele>272.0</ele>
        <time>2018-03-05T15:04:23Z</time>
      </trkpt>
      <trkpt lat="38.3375290" lon="-0.6834200">
        <ele>269.0</ele>
        <time>2018-03-05T15:04:24Z</time>
      </trkpt>
      <trkpt lat="38.3374680" lon="-0.6834310">
        <ele>269.0</ele>
        <time>2018-03-05T15:04:25Z</time>
      </trkpt>
      <trkpt lat="38.3373900" lon="-0.6834220">
        <ele>270.0</ele>
        <time>2018-03-05T15:04:26Z</time>
      </trkpt>
      <trkpt lat="38.3373170" lon="-0.6834300">
        <ele>271.0</ele>
        <time>2018-03-05T15:04:27Z</time>
      </trkpt>
      <trkpt lat="38.3372480" lon="-0.6834340">
        <ele>271.0</ele>
        <time>2018-03-05T15:04:28Z</time>
      </trkpt>
      <trkpt lat="38.3371760" lon="-0.6834340">
        <ele>270.0</ele>
        <time>2018-03-05T15:04:29Z</time>
      </trkpt>
      <trkpt lat="38.3371030" lon="-0.6834380">
        <ele>270.0</ele>
        <time>2018-03-05T15:04:30Z</time>
      </trkpt>
      <trkpt lat="38.3370320" lon="-0.6834510">
        <ele>270.0</ele>
        <time>2018-03-05T15:04:31Z</time>
      </trkpt>
      <trkpt lat="38.3369610" lon="-0.6834710">
        <ele>269.0</ele>
        <time>2018-03-05T15:04:32Z</time>
      </trkpt>
      <trkpt lat="38.3368940" lon="-0.6835060">
        <ele>268.0</ele>
        <time>2018-03-05T15:04:33Z</time>
      </trkpt>
      <trkpt lat="38.3368260" lon="-0.6835460">
        <ele>268.0</ele>
        <time>2018-03-05T15:04:34Z</time>
      </trkpt>
      <trkpt lat="38.3367690" lon="-0.6836040">
        <ele>268.0</ele>
        <time>2018-03-05T15:04:35Z</time>
      </trkpt>
      <trkpt lat="38.3367140" lon="-0.6836660">
        <ele>267.0</ele>
        <time>2018-03-05T15:04:36Z</time>
      </trkpt>
      <trkpt lat="38.3366510" lon="-0.6837370">
        <ele>268.0</ele>
        <time>2018-03-05T15:04:37Z</time>
      </trkpt>
      <trkpt lat="38.3365880" lon="-0.6838020">
        <ele>268.0</ele>
        <time>2018-03-05T15:04:38Z</time>
      </trkpt>
      <trkpt lat="38.3365210" lon="-0.6838510">
        <ele>267.0</ele>
        <time>2018-03-05T15:04:39Z</time>
      </trkpt>
      <trkpt lat="38.3364500" lon="-0.6838730">
        <ele>268.0</ele>
        <time>2018-03-05T15:04:40Z</time>
      </trkpt>
      <trkpt lat="38.3363810" lon="-0.6839020">
        <ele>268.0</ele>
        <time>2018-03-05T15:04:41Z</time>
      </trkpt>
      <trkpt lat="38.3363150" lon="-0.6838970">
        <ele>267.0</ele>
        <time>2018-03-05T15:04:42Z</time>
      </trkpt>
      <trkpt lat="38.3362510" lon="-0.6838680">
        <ele>267.0</ele>
        <time>2018-03-05T15:04:43Z</time>
      </trkpt>
      <trkpt lat="38.3361930" lon="-0.6838220">
        <ele>266.0</ele>
        <time>2018-03-05T15:04:44Z</time>
      </trkpt>
      <trkpt lat="38.3361510" lon="-0.6837560">
        <ele>265.0</ele>
        <time>2018-03-05T15:04:45Z</time>
      </trkpt>
      <trkpt lat="38.3361300" lon="-0.6836960">
        <ele>266.0</ele>
        <time>2018-03-05T15:04:46Z</time>
      </trkpt>
      <trkpt lat="38.3361060" lon="-0.6836300">
        <ele>267.0</ele>
        <time>2018-03-05T15:04:47Z</time>
      </trkpt>
      <trkpt lat="38.3360760" lon="-0.6835720">
        <ele>268.0</ele>
        <time>2018-03-05T15:04:48Z</time>
      </trkpt>
      <trkpt lat="38.3360410" lon="-0.6835300">
        <ele>268.0</ele>
        <time>2018-03-05T15:04:49Z</time>
      </trkpt>
      <trkpt lat="38.3359990" lon="-0.6835070">
        <ele>267.0</ele>
        <time>2018-03-05T15:04:50Z</time>
      </trkpt>
      <trkpt lat="38.3359570" lon="-0.6834910">
        <ele>266.0</ele>
        <time>2018-03-05T15:04:51Z</time>
      </trkpt>
      <trkpt lat="38.3359070" lon="-0.6835040">
        <ele>267.0</ele>
        <time>2018-03-05T15:04:52Z</time>
      </trkpt>
      <trkpt lat="38.3358620" lon="-0.6835250">
        <ele>266.0</ele>
        <time>2018-03-05T15:04:53Z</time>
      </trkpt>
      <trkpt lat="38.3358160" lon="-0.6835500">
        <ele>265.0</ele>
        <time>2018-03-05T15:04:54Z</time>
      </trkpt>
      <trkpt lat="38.3357610" lon="-0.6835810">
        <ele>264.0</ele>
        <time>2018-03-05T15:04:55Z</time>
      </trkpt>
      <trkpt lat="38.3357090" lon="-0.6835980">
        <ele>263.0</ele>
        <time>2018-03-05T15:04:56Z</time>
      </trkpt>
      <trkpt lat="38.3356470" lon="-0.6836080">
        <ele>264.0</ele>
        <time>2018-03-05T15:04:57Z</time>
      </trkpt>
      <trkpt lat="38.3355920" lon="-0.6836240">
        <ele>263.0</ele>
        <time>2018-03-05T15:04:58Z</time>
      </trkpt>
      <trkpt lat="38.3355380" lon="-0.6836460">
        <ele>263.0</ele>
        <time>2018-03-05T15:04:59Z</time>
      </trkpt>
      <trkpt lat="38.3354820" lon="-0.6836650">
        <ele>263.0</ele>
        <time>2018-03-05T15:05:00Z</time>
      </trkpt>
      <trkpt lat="38.3354260" lon="-0.6836900">
        <ele>263.0</ele>
        <time>2018-03-05T15:05:01Z</time>
      </trkpt>
      <trkpt lat="38.3353800" lon="-0.6837320">
        <ele>264.0</ele>
        <time>2018-03-05T15:05:02Z</time>
      </trkpt>
      <trkpt lat="38.3353380" lon="-0.6837740">
        <ele>263.0</ele>
        <time>2018-03-05T15:05:03Z</time>
      </trkpt>
      <trkpt lat="38.3352820" lon="-0.6838300">
        <ele>263.0</ele>
        <time>2018-03-05T15:05:04Z</time>
      </trkpt>
      <trkpt lat="38.3352250" lon="-0.6838760">
        <ele>262.0</ele>
        <time>2018-03-05T15:05:05Z</time>
      </trkpt>
      <trkpt lat="38.3351740" lon="-0.6839500">
        <ele>261.0</ele>
        <time>2018-03-05T15:05:06Z</time>
      </trkpt>
      <trkpt lat="38.3351240" lon="-0.6840400">
        <ele>261.0</ele>
        <time>2018-03-05T15:05:07Z</time>
      </trkpt>
      <trkpt lat="38.3350910" lon="-0.6841190">
        <ele>259.0</ele>
        <time>2018-03-05T15:05:08Z</time>
      </trkpt>
      <trkpt lat="38.3350740" lon="-0.6842360">
        <ele>261.0</ele>
        <time>2018-03-05T15:05:09Z</time>
      </trkpt>
      <trkpt lat="38.3350530" lon="-0.6843560">
        <ele>262.0</ele>
        <time>2018-03-05T15:05:10Z</time>
      </trkpt>
      <trkpt lat="38.3350410" lon="-0.6844600">
        <ele>263.0</ele>
        <time>2018-03-05T15:05:11Z</time>
      </trkpt>
      <trkpt lat="38.3350260" lon="-0.6845620">
        <ele>263.0</ele>
        <time>2018-03-05T15:05:12Z</time>
      </trkpt>
      <trkpt lat="38.3350130" lon="-0.6846540">
        <ele>263.0</ele>
        <time>2018-03-05T15:05:13Z</time>
      </trkpt>
      <trkpt lat="38.3349810" lon="-0.6847000">
        <ele>265.0</ele>
        <time>2018-03-05T15:05:14Z</time>
      </trkpt>
      <trkpt lat="38.3349440" lon="-0.6847130">
        <ele>266.0</ele>
        <time>2018-03-05T15:05:15Z</time>
      </trkpt>
      <trkpt lat="38.3349210" lon="-0.6847080">
        <ele>265.0</ele>
        <time>2018-03-05T15:05:16Z</time>
      </trkpt>
      <trkpt lat="38.3348910" lon="-0.6847040">
        <ele>265.0</ele>
        <time>2018-03-05T15:05:17Z</time>
      </trkpt>
      <trkpt lat="38.3348540" lon="-0.6847010">
        <ele>265.0</ele>
        <time>2018-03-05T15:05:18Z</time>
      </trkpt>
      <trkpt lat="38.3348080" lon="-0.6846990">
        <ele>265.0</ele>
        <time>2018-03-05T15:05:19Z</time>
      </trkpt>
      <trkpt lat="38.3347680" lon="-0.6846870">
        <ele>265.0</ele>
        <time>2018-03-05T15:05:20Z</time>
      </trkpt>
      <trkpt lat="38.3347160" lon="-0.6846820">
        <ele>264.0</ele>
        <time>2018-03-05T15:05:21Z</time>
      </trkpt>
      <trkpt lat="38.3346650" lon="-0.6846780">
        <ele>263.0</ele>
        <time>2018-03-05T15:05:22Z</time>
      </trkpt>
      <trkpt lat="38.3346040" lon="-0.6846680">
        <ele>263.0</ele>
        <time>2018-03-05T15:05:23Z</time>
      </trkpt>
      <trkpt lat="38.3345500" lon="-0.6846500">
        <ele>263.0</ele>
        <time>2018-03-05T15:05:24Z</time>
      </trkpt>
      <trkpt lat="38.3345040" lon="-0.6846240">
        <ele>263.0</ele>
        <time>2018-03-05T15:05:25Z</time>
      </trkpt>
      <trkpt lat="38.3344590" lon="-0.6845960">
        <ele>263.0</ele>
        <time>2018-03-05T15:05:26Z</time>
      </trkpt>
      <trkpt lat="38.3344170" lon="-0.6845630">
        <ele>263.0</ele>
        <time>2018-03-05T15:05:27Z</time>
      </trkpt>
      <trkpt lat="38.3343880" lon="-0.6845140">
        <ele>263.0</ele>
        <time>2018-03-05T15:05:28Z</time>
      </trkpt>
      <trkpt lat="38.3343610" lon="-0.6844580">
        <ele>263.0</ele>
        <time>2018-03-05T15:05:29Z</time>
      </trkpt>
      <trkpt lat="38.3343720" lon="-0.6843990">
        <ele>261.0</ele>
        <time>2018-03-05T15:05:30Z</time>
      </trkpt>
      <trkpt lat="38.3343860" lon="-0.6843340">
        <ele>260.0</ele>
        <time>2018-03-05T15:05:31Z</time>
      </trkpt>
      <trkpt lat="38.3343870" lon="-0.6842630">
        <ele>260.0</ele>
        <time>2018-03-05T15:05:32Z</time>
      </trkpt>
      <trkpt lat="38.3343900" lon="-0.6842000">
        <ele>260.0</ele>
        <time>2018-03-05T15:05:33Z</time>
      </trkpt>
      <trkpt lat="38.3343920" lon="-0.6841370">
        <ele>260.0</ele>
        <time>2018-03-05T15:05:34Z</time>
      </trkpt>
      <trkpt lat="38.3343990" lon="-0.6840830">
        <ele>260.0</ele>
        <time>2018-03-05T15:05:35Z</time>
      </trkpt>
      <trkpt lat="38.3344420" lon="-0.6840760">
        <ele>260.0</ele>
        <time>2018-03-05T15:05:36Z</time>
      </trkpt>
      <trkpt lat="38.3344580" lon="-0.6840490">
        <ele>261.0</ele>
        <time>2018-03-05T15:05:37Z</time>
      </trkpt>
      <trkpt lat="38.3344650" lon="-0.6840330">
        <ele>261.0</ele>
        <time>2018-03-05T15:05:38Z</time>
      </trkpt>
      <trkpt lat="38.3344640" lon="-0.6840260">
        <ele>262.0</ele>
        <time>2018-03-05T15:05:39Z</time>
      </trkpt>
      <trkpt lat="38.3344700" lon="-0.6840190">
        <ele>262.0</ele>
        <time>2018-03-05T15:05:40Z</time>
      </trkpt>
      <trkpt lat="38.3344810" lon="-0.6840140">
        <ele>263.0</ele>
        <time>2018-03-05T15:05:41Z</time>
      </trkpt>
      <trkpt lat="38.3344910" lon="-0.6840110">
        <ele>263.0</ele>
        <time>2018-03-05T15:05:42Z</time>
      </trkpt>
      <trkpt lat="38.3344990" lon="-0.6840100">
        <ele>263.0</ele>
        <time>2018-03-05T15:05:43Z</time>
      </trkpt>
      <trkpt lat="38.3345080" lon="-0.6840010">
        <ele>264.0</ele>
        <time>2018-03-05T15:05:44Z</time>
      </trkpt>
      <trkpt lat="38.3345160" lon="-0.6839920">
        <ele>264.0</ele>
        <time>2018-03-05T15:05:45Z</time>
      </trkpt>
      <trkpt lat="38.3345260" lon="-0.6839780">
        <ele>265.0</ele>
        <time>2018-03-05T15:05:46Z</time>
      </trkpt>
      <trkpt lat="38.3345340" lon="-0.6839650">
        <ele>265.0</ele>
        <time>2018-03-05T15:05:47Z</time>
      </trkpt>
      <trkpt lat="38.3345430" lon="-0.6839530">
        <ele>266.0</ele>
        <time>2018-03-05T15:05:48Z</time>
      </trkpt>
      <trkpt lat="38.3345520" lon="-0.6839420">
        <ele>266.0</ele>
        <time>2018-03-05T15:05:49Z</time>
      </trkpt>
      <trkpt lat="38.3345620" lon="-0.6839330">
        <ele>267.0</ele>
        <time>2018-03-05T15:05:50Z</time>
      </trkpt>
      <trkpt lat="38.3345710" lon="-0.6839260">
        <ele>267.0</ele>
        <time>2018-03-05T15:05:51Z</time>
      </trkpt>
      <trkpt lat="38.3345790" lon="-0.6839190">
        <ele>268.0</ele>
        <time>2018-03-05T15:05:52Z</time>
      </trkpt>
      <trkpt lat="38.3345880" lon="-0.6839110">
        <ele>268.0</ele>
        <time>2018-03-05T15:05:53Z</time>
      </trkpt>
      <trkpt lat="38.3345970" lon="-0.6839040">
        <ele>268.0</ele>
        <time>2018-03-05T15:05:54Z</time>
      </trkpt>
      <trkpt lat="38.3346070" lon="-0.6838960">
        <ele>269.0</ele>
        <time>2018-03-05T15:05:55Z</time>
      </trkpt>
      <trkpt lat="38.3346160" lon="-0.6838870">
        <ele>269.0</ele>
        <time>2018-03-05T15:05:56Z</time>
      </trkpt>
      <trkpt lat="38.3346250" lon="-0.6838790">
        <ele>270.0</ele>
        <time>2018-03-05T15:05:57Z</time>
      </trkpt>
      <trkpt lat="38.3346340" lon="-0.6838740">
        <ele>270.0</ele>
        <time>2018-03-05T15:05:58Z</time>
      </trkpt>
      <trkpt lat="38.3346430" lon="-0.6838640">
        <ele>270.0</ele>
        <time>2018-03-05T15:05:59Z</time>
      </trkpt>
      <trkpt lat="38.3346540" lon="-0.6838560">
        <ele>271.0</ele>
        <time>2018-03-05T15:06:00Z</time>
      </trkpt>
      <trkpt lat="38.3346640" lon="-0.6838480">
        <ele>271.0</ele>
        <time>2018-03-05T15:06:01Z</time>
      </trkpt>
      <trkpt lat="38.3346730" lon="-0.6838410">
        <ele>271.0</ele>
        <time>2018-03-05T15:06:02Z</time>
      </trkpt>
      <trkpt lat="38.3346840" lon="-0.6838350">
        <ele>272.0</ele>
        <time>2018-03-05T15:06:03Z</time>
      </trkpt>
      <trkpt lat="38.3346950" lon="-0.6838260">
        <ele>272.0</ele>
        <time>2018-03-05T15:06:04Z</time>
      </trkpt>
      <trkpt lat="38.3347030" lon="-0.6838130">
        <ele>273.0</ele>
        <time>2018-03-05T15:06:05Z</time>
      </trkpt>
      <trkpt lat="38.3347140" lon="-0.6838070">
        <ele>273.0</ele>
        <time>2018-03-05T15:06:06Z</time>
      </trkpt>
      <trkpt lat="38.3347240" lon="-0.6838070">
        <ele>273.0</ele>
        <time>2018-03-05T15:06:07Z</time>
      </trkpt>
      <trkpt lat="38.3347350" lon="-0.6838020">
        <ele>273.0</ele>
        <time>2018-03-05T15:06:08Z</time>
      </trkpt>
      <trkpt lat="38.3347430" lon="-0.6837960">
        <ele>274.0</ele>
        <time>2018-03-05T15:06:09Z</time>
      </trkpt>
      <trkpt lat="38.3347520" lon="-0.6837870">
        <ele>274.0</ele>
        <time>2018-03-05T15:06:10Z</time>
      </trkpt>
      <trkpt lat="38.3347630" lon="-0.6837780">
        <ele>275.0</ele>
        <time>2018-03-05T15:06:11Z</time>
      </trkpt>
      <trkpt lat="38.3347700" lon="-0.6837690">
        <ele>275.0</ele>
        <time>2018-03-05T15:06:12Z</time>
      </trkpt>
      <trkpt lat="38.3347790" lon="-0.6837590">
        <ele>275.0</ele>
        <time>2018-03-05T15:06:13Z</time>
      </trkpt>
      <trkpt lat="38.3347860" lon="-0.6837500">
        <ele>276.0</ele>
        <time>2018-03-05T15:06:14Z</time>
      </trkpt>
      <trkpt lat="38.3347930" lon="-0.6837420">
        <ele>276.0</ele>
        <time>2018-03-05T15:06:15Z</time>
      </trkpt>
      <trkpt lat="38.3347980" lon="-0.6837340">
        <ele>276.0</ele>
        <time>2018-03-05T15:06:16Z</time>
      </trkpt>
      <trkpt lat="38.3348060" lon="-0.6837240">
        <ele>276.0</ele>
        <time>2018-03-05T15:06:17Z</time>
      </trkpt>
      <trkpt lat="38.3348120" lon="-0.6837150">
        <ele>277.0</ele>
        <time>2018-03-05T15:06:18Z</time>
      </trkpt>
      <trkpt lat="38.3348160" lon="-0.6837070">
        <ele>277.0</ele>
        <time>2018-03-05T15:06:19Z</time>
      </trkpt>
      <trkpt lat="38.3348230" lon="-0.6836940">
        <ele>277.0</ele>
        <time>2018-03-05T15:06:20Z</time>
      </trkpt>
      <trkpt lat="38.3348300" lon="-0.6836810">
        <ele>277.0</ele>
        <time>2018-03-05T15:06:21Z</time>
      </trkpt>
      <trkpt lat="38.3348360" lon="-0.6836710">
        <ele>277.0</ele>
        <time>2018-03-05T15:06:22Z</time>
      </trkpt>
      <trkpt lat="38.3348430" lon="-0.6836610">
        <ele>278.0</ele>
        <time>2018-03-05T15:06:23Z</time>
      </trkpt>
      <trkpt lat="38.3348510" lon="-0.6836550">
        <ele>278.0</ele>
        <time>2018-03-05T15:06:24Z</time>
      </trkpt>
      <trkpt lat="38.3348560" lon="-0.6836500">
        <ele>278.0</ele>
        <time>2018-03-05T15:06:25Z</time>
      </trkpt>
      <trkpt lat="38.3348600" lon="-0.6836430">
        <ele>278.0</ele>
        <time>2018-03-05T15:06:26Z</time>
      </trkpt>
      <trkpt lat="38.3348660" lon="-0.6836330">
        <ele>279.0</ele>
        <time>2018-03-05T15:06:27Z</time>
      </trkpt>
      <trkpt lat="38.3348690" lon="-0.6836240">
        <ele>279.0</ele>
        <time>2018-03-05T15:06:28Z</time>
      </trkpt>
      <trkpt lat="38.3348740" lon="-0.6836160">
        <ele>279.0</ele>
        <time>2018-03-05T15:06:29Z</time>
      </trkpt>
      <trkpt lat="38.3348760" lon="-0.6836060">
        <ele>279.0</ele>
        <time>2018-03-05T15:06:30Z</time>
      </trkpt>
      <trkpt lat="38.3348810" lon="-0.6835960">
        <ele>279.0</ele>
        <time>2018-03-05T15:06:31Z</time>
      </trkpt>
      <trkpt lat="38.3348860" lon="-0.6835880">
        <ele>280.0</ele>
        <time>2018-03-05T15:06:32Z</time>
      </trkpt>
      <trkpt lat="38.3348900" lon="-0.6835830">
        <ele>280.0</ele>
        <time>2018-03-05T15:06:33Z</time>
      </trkpt>
      <trkpt lat="38.3348950" lon="-0.6835740">
        <ele>280.0</ele>
        <time>2018-03-05T15:06:34Z</time>
      </trkpt>
      <trkpt lat="38.3349020" lon="-0.6835680">
        <ele>280.0</ele>
        <time>2018-03-05T15:06:35Z</time>
      </trkpt>
      <trkpt lat="38.3349090" lon="-0.6835610">
        <ele>281.0</ele>
        <time>2018-03-05T15:06:36Z</time>
      </trkpt>
      <trkpt lat="38.3349140" lon="-0.6835510">
        <ele>281.0</ele>
        <time>2018-03-05T15:06:37Z</time>
      </trkpt>
      <trkpt lat="38.3349190" lon="-0.6835390">
        <ele>281.0</ele>
        <time>2018-03-05T15:06:38Z</time>
      </trkpt>
      <trkpt lat="38.3349240" lon="-0.6835310">
        <ele>281.0</ele>
        <time>2018-03-05T15:06:39Z</time>
      </trkpt>
      <trkpt lat="38.3349270" lon="-0.6835230">
        <ele>282.0</ele>
        <time>2018-03-05T15:06:40Z</time>
      </trkpt>
      <trkpt lat="38.3349320" lon="-0.6835130">
        <ele>282.0</ele>
        <time>2018-03-05T15:06:41Z</time>
      </trkpt>
      <trkpt lat="38.3349370" lon="-0.6835020">
        <ele>282.0</ele>
        <time>2018-03-05T15:06:42Z</time>
      </trkpt>
      <trkpt lat="38.3349420" lon="-0.6834930">
        <ele>282.0</ele>
        <time>2018-03-05T15:06:43Z</time>
      </trkpt>
      <trkpt lat="38.3349460" lon="-0.6834840">
        <ele>283.0</ele>
        <time>2018-03-05T15:06:44Z</time>
      </trkpt>
      <trkpt lat="38.3349510" lon="-0.6834720">
        <ele>283.0</ele>
        <time>2018-03-05T15:06:45Z</time>
      </trkpt>
      <trkpt lat="38.3349580" lon="-0.6834610">
        <ele>283.0</ele>
        <time>2018-03-05T15:06:46Z</time>
      </trkpt>
      <trkpt lat="38.3349640" lon="-0.6834510">
        <ele>283.0</ele>
        <time>2018-03-05T15:06:47Z</time>
      </trkpt>
      <trkpt lat="38.3349700" lon="-0.6834420">
        <ele>283.0</ele>
        <time>2018-03-05T15:06:48Z</time>
      </trkpt>
      <trkpt lat="38.3349760" lon="-0.6834330">
        <ele>283.0</ele>
        <time>2018-03-05T15:06:49Z</time>
      </trkpt>
      <trkpt lat="38.3349810" lon="-0.6834220">
        <ele>284.0</ele>
        <time>2018-03-05T15:06:50Z</time>
      </trkpt>
      <trkpt lat="38.3349850" lon="-0.6834120">
        <ele>284.0</ele>
        <time>2018-03-05T15:06:51Z</time>
      </trkpt>
      <trkpt lat="38.3349910" lon="-0.6834010">
        <ele>284.0</ele>
        <time>2018-03-05T15:06:52Z</time>
      </trkpt>
      <trkpt lat="38.3349970" lon="-0.6833930">
        <ele>284.0</ele>
        <time>2018-03-05T15:06:53Z</time>
      </trkpt>
      <trkpt lat="38.3350040" lon="-0.6833840">
        <ele>285.0</ele>
        <time>2018-03-05T15:06:54Z</time>
      </trkpt>
      <trkpt lat="38.3350080" lon="-0.6833760">
        <ele>285.0</ele>
        <time>2018-03-05T15:06:55Z</time>
      </trkpt>
      <trkpt lat="38.3350110" lon="-0.6833710">
        <ele>285.0</ele>
        <time>2018-03-05T15:06:56Z</time>
      </trkpt>
      <trkpt lat="38.3350150" lon="-0.6833630">
        <ele>285.0</ele>
        <time>2018-03-05T15:06:57Z</time>
      </trkpt>
      <trkpt lat="38.3350180" lon="-0.6833530">
        <ele>286.0</ele>
        <time>2018-03-05T15:06:58Z</time>
      </trkpt>
      <trkpt lat="38.3350230" lon="-0.6833460">
        <ele>286.0</ele>
        <time>2018-03-05T15:06:59Z</time>
      </trkpt>
      <trkpt lat="38.3350290" lon="-0.6833400">
        <ele>286.0</ele>
        <time>2018-03-05T15:07:00Z</time>
      </trkpt>
      <trkpt lat="38.3350330" lon="-0.6833300">
        <ele>286.0</ele>
        <time>2018-03-05T15:07:01Z</time>
      </trkpt>
      <trkpt lat="38.3350380" lon="-0.6833170">
        <ele>286.0</ele>
        <time>2018-03-05T15:07:02Z</time>
      </trkpt>
      <trkpt lat="38.3350410" lon="-0.6833080">
        <ele>286.0</ele>
        <time>2018-03-05T15:07:03Z</time>
      </trkpt>
      <trkpt lat="38.3350450" lon="-0.6833010">
        <ele>286.0</ele>
        <time>2018-03-05T15:07:04Z</time>
      </trkpt>
      <trkpt lat="38.3350490" lon="-0.6832900">
        <ele>287.0</ele>
        <time>2018-03-05T15:07:05Z</time>
      </trkpt>
      <trkpt lat="38.3350520" lon="-0.6832810">
        <ele>287.0</ele>
        <time>2018-03-05T15:07:06Z</time>
      </trkpt>
      <trkpt lat="38.3350550" lon="-0.6832710">
        <ele>287.0</ele>
        <time>2018-03-05T15:07:07Z</time>
      </trkpt>
      <trkpt lat="38.3350600" lon="-0.6832600">
        <ele>287.0</ele>
        <time>2018-03-05T15:07:08Z</time>
      </trkpt>
      <trkpt lat="38.3350620" lon="-0.6832480">
        <ele>288.0</ele>
        <time>2018-03-05T15:07:09Z</time>
      </trkpt>
      <trkpt lat="38.3350650" lon="-0.6832380">
        <ele>288.0</ele>
        <time>2018-03-05T15:07:10Z</time>
      </trkpt>
      <trkpt lat="38.3350690" lon="-0.6832270">
        <ele>288.0</ele>
        <time>2018-03-05T15:07:11Z</time>
      </trkpt>
      <trkpt lat="38.3350740" lon="-0.6832160">
        <ele>288.0</ele>
        <time>2018-03-05T15:07:12Z</time>
      </trkpt>
      <trkpt lat="38.3350800" lon="-0.6832060">
        <ele>288.0</ele>
        <time>2018-03-05T15:07:13Z</time>
      </trkpt>
      <trkpt lat="38.3350870" lon="-0.6831950">
        <ele>289.0</ele>
        <time>2018-03-05T15:07:14Z</time>
      </trkpt>
      <trkpt lat="38.3350910" lon="-0.6831840">
        <ele>289.0</ele>
        <time>2018-03-05T15:07:15Z</time>
      </trkpt>
      <trkpt lat="38.3350950" lon="-0.6831730">
        <ele>289.0</ele>
        <time>2018-03-05T15:07:16Z</time>
      </trkpt>
      <trkpt lat="38.3350980" lon="-0.6831600">
        <ele>289.0</ele>
        <time>2018-03-05T15:07:17Z</time>
      </trkpt>
      <trkpt lat="38.3351020" lon="-0.6831480">
        <ele>290.0</ele>
        <time>2018-03-05T15:07:18Z</time>
      </trkpt>
      <trkpt lat="38.3351070" lon="-0.6831380">
        <ele>290.0</ele>
        <time>2018-03-05T15:07:19Z</time>
      </trkpt>
      <trkpt lat="38.3351110" lon="-0.6831280">
        <ele>291.0</ele>
        <time>2018-03-05T15:07:20Z</time>
      </trkpt>
      <trkpt lat="38.3351120" lon="-0.6831250">
        <ele>291.0</ele>
        <time>2018-03-05T15:07:21Z</time>
      </trkpt>
      <trkpt lat="38.3351100" lon="-0.6831240">
        <ele>291.0</ele>
        <time>2018-03-05T15:07:22Z</time>
      </trkpt>
      <trkpt lat="38.3351100" lon="-0.6831240">
        <ele>291.0</ele>
        <time>2018-03-05T15:07:23Z</time>
      </trkpt>
      <trkpt lat="38.3351090" lon="-0.6831240">
        <ele>291.0</ele>
        <time>2018-03-05T15:07:24Z</time>
      </trkpt>
      <trkpt lat="38.3351110" lon="-0.6831190">
        <ele>291.0</ele>
        <time>2018-03-05T15:07:25Z</time>
      </trkpt>
      <trkpt lat="38.3351140" lon="-0.6831140">
        <ele>292.0</ele>
        <time>2018-03-05T15:07:26Z</time>
      </trkpt>
      <trkpt lat="38.3351180" lon="-0.6831020">
        <ele>292.0</ele>
        <time>2018-03-05T15:07:27Z</time>
      </trkpt>
      <trkpt lat="38.3351230" lon="-0.6830820">
        <ele>292.0</ele>
        <time>2018-03-05T15:07:28Z</time>
      </trkpt>
      <trkpt lat="38.3351310" lon="-0.6830690">
        <ele>292.0</ele>
        <time>2018-03-05T15:07:29Z</time>
      </trkpt>
      <trkpt lat="38.3351350" lon="-0.6830530">
        <ele>292.0</ele>
        <time>2018-03-05T15:07:30Z</time>
      </trkpt>
      <trkpt lat="38.3351450" lon="-0.6830360">
        <ele>292.0</ele>
        <time>2018-03-05T15:07:31Z</time>
      </trkpt>
      <trkpt lat="38.3351560" lon="-0.6830150">
        <ele>292.0</ele>
        <time>2018-03-05T15:07:32Z</time>
      </trkpt>
      <trkpt lat="38.3351660" lon="-0.6829920">
        <ele>292.0</ele>
        <time>2018-03-05T15:07:33Z</time>
      </trkpt>
      <trkpt lat="38.3351740" lon="-0.6829690">
        <ele>293.0</ele>
        <time>2018-03-05T15:07:34Z</time>
      </trkpt>
      <trkpt lat="38.3351820" lon="-0.6829460">
        <ele>293.0</ele>
        <time>2018-03-05T15:07:35Z</time>
      </trkpt>
      <trkpt lat="38.3351910" lon="-0.6829230">
        <ele>293.0</ele>
        <time>2018-03-05T15:07:36Z</time>
      </trkpt>
      <trkpt lat="38.3351990" lon="-0.6828980">
        <ele>293.0</ele>
        <time>2018-03-05T15:07:37Z</time>
      </trkpt>
      <trkpt lat="38.3352070" lon="-0.6828700">
        <ele>293.0</ele>
        <time>2018-03-05T15:07:38Z</time>
      </trkpt>
      <trkpt lat="38.3352160" lon="-0.6828380">
        <ele>293.0</ele>
        <time>2018-03-05T15:07:39Z</time>
      </trkpt>
      <trkpt lat="38.3352280" lon="-0.6828080">
        <ele>293.0</ele>
        <time>2018-03-05T15:07:40Z</time>
      </trkpt>
      <trkpt lat="38.3352390" lon="-0.6827780">
        <ele>293.0</ele>
        <time>2018-03-05T15:07:41Z</time>
      </trkpt>
      <trkpt lat="38.3352490" lon="-0.6827510">
        <ele>294.0</ele>
        <time>2018-03-05T15:07:42Z</time>
      </trkpt>
      <trkpt lat="38.3352550" lon="-0.6827240">
        <ele>294.0</ele>
        <time>2018-03-05T15:07:43Z</time>
      </trkpt>
      <trkpt lat="38.3352650" lon="-0.6827020">
        <ele>294.0</ele>
        <time>2018-03-05T15:07:44Z</time>
      </trkpt>
      <trkpt lat="38.3352760" lon="-0.6826790">
        <ele>294.0</ele>
        <time>2018-03-05T15:07:45Z</time>
      </trkpt>
      <trkpt lat="38.3352880" lon="-0.6826560">
        <ele>294.0</ele>
        <time>2018-03-05T15:07:46Z</time>
      </trkpt>
      <trkpt lat="38.3353020" lon="-0.6826290">
        <ele>294.0</ele>
        <time>2018-03-05T15:07:47Z</time>
      </trkpt>
      <trkpt lat="38.3353150" lon="-0.6826040">
        <ele>294.0</ele>
        <time>2018-03-05T15:07:48Z</time>
      </trkpt>
      <trkpt lat="38.3353290" lon="-0.6825750">
        <ele>294.0</ele>
        <time>2018-03-05T15:07:49Z</time>
      </trkpt>
      <trkpt lat="38.3353460" lon="-0.6825510">
        <ele>295.0</ele>
        <time>2018-03-05T15:07:50Z</time>
      </trkpt>
      <trkpt lat="38.3353610" lon="-0.6825240">
        <ele>295.0</ele>
        <time>2018-03-05T15:07:51Z</time>
      </trkpt>
      <trkpt lat="38.3353760" lon="-0.6825000">
        <ele>295.0</ele>
        <time>2018-03-05T15:07:52Z</time>
      </trkpt>
      <trkpt lat="38.3353900" lon="-0.6824750">
        <ele>295.0</ele>
        <time>2018-03-05T15:07:53Z</time>
      </trkpt>
      <trkpt lat="38.3354050" lon="-0.6824530">
        <ele>295.0</ele>
        <time>2018-03-05T15:07:54Z</time>
      </trkpt>
      <trkpt lat="38.3354200" lon="-0.6824330">
        <ele>295.0</ele>
        <time>2018-03-05T15:07:55Z</time>
      </trkpt>
      <trkpt lat="38.3354380" lon="-0.6824140">
        <ele>296.0</ele>
        <time>2018-03-05T15:07:56Z</time>
      </trkpt>
      <trkpt lat="38.3354570" lon="-0.6823980">
        <ele>296.0</ele>
        <time>2018-03-05T15:07:57Z</time>
      </trkpt>
      <trkpt lat="38.3354710" lon="-0.6823880">
        <ele>296.0</ele>
        <time>2018-03-05T15:07:58Z</time>
      </trkpt>
      <trkpt lat="38.3354770" lon="-0.6823750">
        <ele>296.0</ele>
        <time>2018-03-05T15:07:59Z</time>
      </trkpt>
      <trkpt lat="38.3354960" lon="-0.6823640">
        <ele>297.0</ele>
        <time>2018-03-05T15:08:00Z</time>
      </trkpt>
      <trkpt lat="38.3355090" lon="-0.6823530">
        <ele>297.0</ele>
        <time>2018-03-05T15:08:01Z</time>
      </trkpt>
      <trkpt lat="38.3355200" lon="-0.6823410">
        <ele>298.0</ele>
        <time>2018-03-05T15:08:02Z</time>
      </trkpt>
      <trkpt lat="38.3355320" lon="-0.6823310">
        <ele>298.0</ele>
        <time>2018-03-05T15:08:03Z</time>
      </trkpt>
      <trkpt lat="38.3355430" lon="-0.6823200">
        <ele>298.0</ele>
        <time>2018-03-05T15:08:04Z</time>
      </trkpt>
      <trkpt lat="38.3355540" lon="-0.6823080">
        <ele>298.0</ele>
        <time>2018-03-05T15:08:05Z</time>
      </trkpt>
      <trkpt lat="38.3355670" lon="-0.6822980">
        <ele>299.0</ele>
        <time>2018-03-05T15:08:06Z</time>
      </trkpt>
      <trkpt lat="38.3355770" lon="-0.6822890">
        <ele>299.0</ele>
        <time>2018-03-05T15:08:07Z</time>
      </trkpt>
      <trkpt lat="38.3355870" lon="-0.6822800">
        <ele>299.0</ele>
        <time>2018-03-05T15:08:08Z</time>
      </trkpt>
      <trkpt lat="38.3355980" lon="-0.6822720">
        <ele>300.0</ele>
        <time>2018-03-05T15:08:09Z</time>
      </trkpt>
      <trkpt lat="38.3356090" lon="-0.6822640">
        <ele>300.0</ele>
        <time>2018-03-05T15:08:10Z</time>
      </trkpt>
      <trkpt lat="38.3356210" lon="-0.6822570">
        <ele>300.0</ele>
        <time>2018-03-05T15:08:11Z</time>
      </trkpt>
      <trkpt lat="38.3356340" lon="-0.6822460">
        <ele>301.0</ele>
        <time>2018-03-05T15:08:12Z</time>
      </trkpt>
      <trkpt lat="38.3356450" lon="-0.6822390">
        <ele>301.0</ele>
        <time>2018-03-05T15:08:13Z</time>
      </trkpt>
      <trkpt lat="38.3356560" lon="-0.6822290">
        <ele>301.0</ele>
        <time>2018-03-05T15:08:14Z</time>
      </trkpt>
      <trkpt lat="38.3356650" lon="-0.6822170">
        <ele>302.0</ele>
        <time>2018-03-05T15:08:15Z</time>
      </trkpt>
      <trkpt lat="38.3356760" lon="-0.6822060">
        <ele>302.0</ele>
        <time>2018-03-05T15:08:16Z</time>
      </trkpt>
      <trkpt lat="38.3356840" lon="-0.6821950">
        <ele>302.0</ele>
        <time>2018-03-05T15:08:17Z</time>
      </trkpt>
      <trkpt lat="38.3356930" lon="-0.6821890">
        <ele>303.0</ele>
        <time>2018-03-05T15:08:18Z</time>
      </trkpt>
      <trkpt lat="38.3357030" lon="-0.6821790">
        <ele>303.0</ele>
        <time>2018-03-05T15:08:19Z</time>
      </trkpt>
      <trkpt lat="38.3357160" lon="-0.6821720">
        <ele>303.0</ele>
        <time>2018-03-05T15:08:20Z</time>
      </trkpt>
      <trkpt lat="38.3357240" lon="-0.6821600">
        <ele>303.0</ele>
        <time>2018-03-05T15:08:21Z</time>
      </trkpt>
      <trkpt lat="38.3357340" lon="-0.6821460">
        <ele>304.0</ele>
        <time>2018-03-05T15:08:22Z</time>
      </trkpt>
      <trkpt lat="38.3357440" lon="-0.6821330">
        <ele>304.0</ele>
        <time>2018-03-05T15:08:23Z</time>
      </trkpt>
      <trkpt lat="38.3357570" lon="-0.6821260">
        <ele>304.0</ele>
        <time>2018-03-05T15:08:24Z</time>
      </trkpt>
      <trkpt lat="38.3357690" lon="-0.6821180">
        <ele>304.0</ele>
        <time>2018-03-05T15:08:25Z</time>
      </trkpt>
      <trkpt lat="38.3357810" lon="-0.6821070">
        <ele>305.0</ele>
        <time>2018-03-05T15:08:26Z</time>
      </trkpt>
      <trkpt lat="38.3357930" lon="-0.6820960">
        <ele>305.0</ele>
        <time>2018-03-05T15:08:27Z</time>
      </trkpt>
      <trkpt lat="38.3358030" lon="-0.6820850">
        <ele>305.0</ele>
        <time>2018-03-05T15:08:28Z</time>
      </trkpt>
      <trkpt lat="38.3358140" lon="-0.6820750">
        <ele>305.0</ele>
        <time>2018-03-05T15:08:29Z</time>
      </trkpt>
      <trkpt lat="38.3358240" lon="-0.6820630">
        <ele>305.0</ele>
        <time>2018-03-05T15:08:30Z</time>
      </trkpt>
      <trkpt lat="38.3358340" lon="-0.6820530">
        <ele>305.0</ele>
        <time>2018-03-05T15:08:31Z</time>
      </trkpt>
      <trkpt lat="38.3358450" lon="-0.6820440">
        <ele>305.0</ele>
        <time>2018-03-05T15:08:32Z</time>
      </trkpt>
      <trkpt lat="38.3358560" lon="-0.6820330">
        <ele>306.0</ele>
        <time>2018-03-05T15:08:33Z</time>
      </trkpt>
      <trkpt lat="38.3358680" lon="-0.6820210">
        <ele>306.0</ele>
        <time>2018-03-05T15:08:34Z</time>
      </trkpt>
      <trkpt lat="38.3358790" lon="-0.6820080">
        <ele>306.0</ele>
        <time>2018-03-05T15:08:35Z</time>
      </trkpt>
      <trkpt lat="38.3358910" lon="-0.6819930">
        <ele>307.0</ele>
        <time>2018-03-05T15:08:36Z</time>
      </trkpt>
      <trkpt lat="38.3359030" lon="-0.6819810">
        <ele>307.0</ele>
        <time>2018-03-05T15:08:37Z</time>
      </trkpt>
      <trkpt lat="38.3359130" lon="-0.6819710">
        <ele>307.0</ele>
        <time>2018-03-05T15:08:38Z</time>
      </trkpt>
      <trkpt lat="38.3359140" lon="-0.6819640">
        <ele>307.0</ele>
        <time>2018-03-05T15:08:39Z</time>
      </trkpt>
      <trkpt lat="38.3359200" lon="-0.6819550">
        <ele>307.0</ele>
        <time>2018-03-05T15:08:40Z</time>
      </trkpt>
      <trkpt lat="38.3359280" lon="-0.6819470">
        <ele>307.0</ele>
        <time>2018-03-05T15:08:41Z</time>
      </trkpt>
      <trkpt lat="38.3359370" lon="-0.6819350">
        <ele>308.0</ele>
        <time>2018-03-05T15:08:42Z</time>
      </trkpt>
      <trkpt lat="38.3359450" lon="-0.6819230">
        <ele>308.0</ele>
        <time>2018-03-05T15:08:43Z</time>
      </trkpt>
      <trkpt lat="38.3359520" lon="-0.6819120">
        <ele>308.0</ele>
        <time>2018-03-05T15:08:44Z</time>
      </trkpt>
      <trkpt lat="38.3359570" lon="-0.6819020">
        <ele>308.0</ele>
        <time>2018-03-05T15:08:45Z</time>
      </trkpt>
      <trkpt lat="38.3359640" lon="-0.6818910">
        <ele>308.0</ele>
        <time>2018-03-05T15:08:46Z</time>
      </trkpt>
      <trkpt lat="38.3359700" lon="-0.6818800">
        <ele>309.0</ele>
        <time>2018-03-05T15:08:47Z</time>
      </trkpt>
      <trkpt lat="38.3359770" lon="-0.6818710">
        <ele>309.0</ele>
        <time>2018-03-05T15:08:48Z</time>
      </trkpt>
      <trkpt lat="38.3359830" lon="-0.6818610">
        <ele>309.0</ele>
        <time>2018-03-05T15:08:49Z</time>
      </trkpt>
      <trkpt lat="38.3359890" lon="-0.6818520">
        <ele>310.0</ele>
        <time>2018-03-05T15:08:50Z</time>
      </trkpt>
      <trkpt lat="38.3359940" lon="-0.6818420">
        <ele>310.0</ele>
        <time>2018-03-05T15:08:51Z</time>
      </trkpt>
      <trkpt lat="38.3359990" lon="-0.6818330">
        <ele>310.0</ele>
        <time>2018-03-05T15:08:52Z</time>
      </trkpt>
      <trkpt lat="38.3360050" lon="-0.6818240">
        <ele>310.0</ele>
        <time>2018-03-05T15:08:53Z</time>
      </trkpt>
      <trkpt lat="38.3360110" lon="-0.6818150">
        <ele>311.0</ele>
        <time>2018-03-05T15:08:54Z</time>
      </trkpt>
      <trkpt lat="38.3360170" lon="-0.6818070">
        <ele>311.0</ele>
        <time>2018-03-05T15:08:55Z</time>
      </trkpt>
      <trkpt lat="38.3360220" lon="-0.6817970">
        <ele>311.0</ele>
        <time>2018-03-05T15:08:56Z</time>
      </trkpt>
      <trkpt lat="38.3360270" lon="-0.6817900">
        <ele>312.0</ele>
        <time>2018-03-05T15:08:57Z</time>
      </trkpt>
      <trkpt lat="38.3360300" lon="-0.6817830">
        <ele>312.0</ele>
        <time>2018-03-05T15:08:58Z</time>
      </trkpt>
      <trkpt lat="38.3360350" lon="-0.6817760">
        <ele>313.0</ele>
        <time>2018-03-05T15:08:59Z</time>
      </trkpt>
      <trkpt lat="38.3360390" lon="-0.6817700">
        <ele>313.0</ele>
        <time>2018-03-05T15:09:00Z</time>
      </trkpt>
      <trkpt lat="38.3360440" lon="-0.6817650">
        <ele>313.0</ele>
        <time>2018-03-05T15:09:01Z</time>
      </trkpt>
      <trkpt lat="38.3360490" lon="-0.6817580">
        <ele>314.0</ele>
        <time>2018-03-05T15:09:02Z</time>
      </trkpt>
      <trkpt lat="38.3360550" lon="-0.6817490">
        <ele>314.0</ele>
        <time>2018-03-05T15:09:03Z</time>
      </trkpt>
      <trkpt lat="38.3360580" lon="-0.6817410">
        <ele>314.0</ele>
        <time>2018-03-05T15:09:04Z</time>
      </trkpt>
      <trkpt lat="38.3360640" lon="-0.6817310">
        <ele>314.0</ele>
        <time>2018-03-05T15:09:05Z</time>
      </trkpt>
      <trkpt lat="38.3360680" lon="-0.6817210">
        <ele>314.0</ele>
        <time>2018-03-05T15:09:06Z</time>
      </trkpt>
      <trkpt lat="38.3360730" lon="-0.6817130">
        <ele>314.0</ele>
        <time>2018-03-05T15:09:07Z</time>
      </trkpt>
      <trkpt lat="38.3360790" lon="-0.6817080">
        <ele>314.0</ele>
        <time>2018-03-05T15:09:08Z</time>
      </trkpt>
      <trkpt lat="38.3360830" lon="-0.6817020">
        <ele>315.0</ele>
        <time>2018-03-05T15:09:09Z</time>
      </trkpt>
      <trkpt lat="38.3360870" lon="-0.6816940">
        <ele>315.0</ele>
        <time>2018-03-05T15:09:10Z</time>
      </trkpt>
      <trkpt lat="38.3360920" lon="-0.6816870">
        <ele>315.0</ele>
        <time>2018-03-05T15:09:11Z</time>
      </trkpt>
      <trkpt lat="38.3360970" lon="-0.6816790">
        <ele>315.0</ele>
        <time>2018-03-05T15:09:12Z</time>
      </trkpt>
      <trkpt lat="38.3361020" lon="-0.6816690">
        <ele>316.0</ele>
        <time>2018-03-05T15:09:13Z</time>
      </trkpt>
      <trkpt lat="38.3361050" lon="-0.6816600">
        <ele>316.0</ele>
        <time>2018-03-05T15:09:14Z</time>
      </trkpt>
      <trkpt lat="38.3361100" lon="-0.6816500">
        <ele>316.0</ele>
        <time>2018-03-05T15:09:15Z</time>
      </trkpt>
      <trkpt lat="38.3361170" lon="-0.6816410">
        <ele>316.0</ele>
        <time>2018-03-05T15:09:16Z</time>
      </trkpt>
      <trkpt lat="38.3361230" lon="-0.6816320">
        <ele>316.0</ele>
        <time>2018-03-05T15:09:17Z</time>
      </trkpt>
      <trkpt lat="38.3361280" lon="-0.6816230">
        <ele>316.0</ele>
        <time>2018-03-05T15:09:18Z</time>
      </trkpt>
      <trkpt lat="38.3361340" lon="-0.6816130">
        <ele>316.0</ele>
        <time>2018-03-05T15:09:19Z</time>
      </trkpt>
      <trkpt lat="38.3361380" lon="-0.6816010">
        <ele>316.0</ele>
        <time>2018-03-05T15:09:20Z</time>
      </trkpt>
      <trkpt lat="38.3361460" lon="-0.6815870">
        <ele>316.0</ele>
        <time>2018-03-05T15:09:21Z</time>
      </trkpt>
      <trkpt lat="38.3361530" lon="-0.6815750">
        <ele>317.0</ele>
        <time>2018-03-05T15:09:22Z</time>
      </trkpt>
      <trkpt lat="38.3361600" lon="-0.6815650">
        <ele>316.0</ele>
        <time>2018-03-05T15:09:23Z</time>
      </trkpt>
      <trkpt lat="38.3361660" lon="-0.6815530">
        <ele>316.0</ele>
        <time>2018-03-05T15:09:24Z</time>
      </trkpt>
      <trkpt lat="38.3361710" lon="-0.6815400">
        <ele>317.0</ele>
        <time>2018-03-05T15:09:25Z</time>
      </trkpt>
      <trkpt lat="38.3361760" lon="-0.6815290">
        <ele>317.0</ele>
        <time>2018-03-05T15:09:26Z</time>
      </trkpt>
      <trkpt lat="38.3361840" lon="-0.6815220">
        <ele>317.0</ele>
        <time>2018-03-05T15:09:27Z</time>
      </trkpt>
      <trkpt lat="38.3361860" lon="-0.6815120">
        <ele>317.0</ele>
        <time>2018-03-05T15:09:28Z</time>
      </trkpt>
      <trkpt lat="38.3361910" lon="-0.6814970">
        <ele>317.0</ele>
        <time>2018-03-05T15:09:29Z</time>
      </trkpt>
      <trkpt lat="38.3361950" lon="-0.6814860">
        <ele>317.0</ele>
        <time>2018-03-05T15:09:30Z</time>
      </trkpt>
      <trkpt lat="38.3362000" lon="-0.6814750">
        <ele>318.0</ele>
        <time>2018-03-05T15:09:31Z</time>
      </trkpt>
      <trkpt lat="38.3362050" lon="-0.6814650">
        <ele>318.0</ele>
        <time>2018-03-05T15:09:32Z</time>
      </trkpt>
      <trkpt lat="38.3362090" lon="-0.6814570">
        <ele>318.0</ele>
        <time>2018-03-05T15:09:33Z</time>
      </trkpt>
      <trkpt lat="38.3362130" lon="-0.6814500">
        <ele>318.0</ele>
        <time>2018-03-05T15:09:34Z</time>
      </trkpt>
      <trkpt lat="38.3362170" lon="-0.6814390">
        <ele>318.0</ele>
        <time>2018-03-05T15:09:35Z</time>
      </trkpt>
      <trkpt lat="38.3362220" lon="-0.6814290">
        <ele>319.0</ele>
        <time>2018-03-05T15:09:36Z</time>
      </trkpt>
      <trkpt lat="38.3362280" lon="-0.6814210">
        <ele>319.0</ele>
        <time>2018-03-05T15:09:37Z</time>
      </trkpt>
      <trkpt lat="38.3362340" lon="-0.6814110">
        <ele>319.0</ele>
        <time>2018-03-05T15:09:38Z</time>
      </trkpt>
      <trkpt lat="38.3362380" lon="-0.6814000">
        <ele>319.0</ele>
        <time>2018-03-05T15:09:39Z</time>
      </trkpt>
      <trkpt lat="38.3362420" lon="-0.6813890">
        <ele>320.0</ele>
        <time>2018-03-05T15:09:40Z</time>
      </trkpt>
      <trkpt lat="38.3362450" lon="-0.6813820">
        <ele>320.0</ele>
        <time>2018-03-05T15:09:41Z</time>
      </trkpt>
      <trkpt lat="38.3362480" lon="-0.6813720">
        <ele>320.0</ele>
        <time>2018-03-05T15:09:42Z</time>
      </trkpt>
      <trkpt lat="38.3362510" lon="-0.6813590">
        <ele>320.0</ele>
        <time>2018-03-05T15:09:43Z</time>
      </trkpt>
      <trkpt lat="38.3362540" lon="-0.6813470">
        <ele>320.0</ele>
        <time>2018-03-05T15:09:44Z</time>
      </trkpt>
      <trkpt lat="38.3362570" lon="-0.6813340">
        <ele>320.0</ele>
        <time>2018-03-05T15:09:45Z</time>
      </trkpt>
      <trkpt lat="38.3362610" lon="-0.6813240">
        <ele>320.0</ele>
        <time>2018-03-05T15:09:46Z</time>
      </trkpt>
      <trkpt lat="38.3362640" lon="-0.6813070">
        <ele>321.0</ele>
        <time>2018-03-05T15:09:47Z</time>
      </trkpt>
      <trkpt lat="38.3362670" lon="-0.6812930">
        <ele>321.0</ele>
        <time>2018-03-05T15:09:48Z</time>
      </trkpt>
      <trkpt lat="38.3362720" lon="-0.6812800">
        <ele>322.0</ele>
        <time>2018-03-05T15:09:49Z</time>
      </trkpt>
      <trkpt lat="38.3362770" lon="-0.6812660">
        <ele>322.0</ele>
        <time>2018-03-05T15:09:50Z</time>
      </trkpt>
      <trkpt lat="38.3362830" lon="-0.6812540">
        <ele>322.0</ele>
        <time>2018-03-05T15:09:51Z</time>
      </trkpt>
      <trkpt lat="38.3362860" lon="-0.6812420">
        <ele>322.0</ele>
        <time>2018-03-05T15:09:52Z</time>
      </trkpt>
      <trkpt lat="38.3362900" lon="-0.6812290">
        <ele>322.0</ele>
        <time>2018-03-05T15:09:53Z</time>
      </trkpt>
      <trkpt lat="38.3362940" lon="-0.6812160">
        <ele>322.0</ele>
        <time>2018-03-05T15:09:54Z</time>
      </trkpt>
      <trkpt lat="38.3362990" lon="-0.6812020">
        <ele>322.0</ele>
        <time>2018-03-05T15:09:55Z</time>
      </trkpt>
      <trkpt lat="38.3363050" lon="-0.6811900">
        <ele>323.0</ele>
        <time>2018-03-05T15:09:56Z</time>
      </trkpt>
      <trkpt lat="38.3363080" lon="-0.6811770">
        <ele>323.0</ele>
        <time>2018-03-05T15:09:57Z</time>
      </trkpt>
      <trkpt lat="38.3363090" lon="-0.6811680">
        <ele>323.0</ele>
        <time>2018-03-05T15:09:58Z</time>
      </trkpt>
      <trkpt lat="38.3363120" lon="-0.6811590">
        <ele>323.0</ele>
        <time>2018-03-05T15:09:59Z</time>
      </trkpt>
      <trkpt lat="38.3363170" lon="-0.6811490">
        <ele>323.0</ele>
        <time>2018-03-05T15:10:00Z</time>
      </trkpt>
      <trkpt lat="38.3363190" lon="-0.6811370">
        <ele>323.0</ele>
        <time>2018-03-05T15:10:01Z</time>
      </trkpt>
      <trkpt lat="38.3363230" lon="-0.6811240">
        <ele>324.0</ele>
        <time>2018-03-05T15:10:02Z</time>
      </trkpt>
      <trkpt lat="38.3363280" lon="-0.6811120">
        <ele>324.0</ele>
        <time>2018-03-05T15:10:03Z</time>
      </trkpt>
      <trkpt lat="38.3363310" lon="-0.6811010">
        <ele>324.0</ele>
        <time>2018-03-05T15:10:04Z</time>
      </trkpt>
      <trkpt lat="38.3363340" lon="-0.6810890">
        <ele>324.0</ele>
        <time>2018-03-05T15:10:05Z</time>
      </trkpt>
      <trkpt lat="38.3363380" lon="-0.6810750">
        <ele>324.0</ele>
        <time>2018-03-05T15:10:06Z</time>
      </trkpt>
      <trkpt lat="38.3363450" lon="-0.6810620">
        <ele>325.0</ele>
        <time>2018-03-05T15:10:07Z</time>
      </trkpt>
      <trkpt lat="38.3363470" lon="-0.6810460">
        <ele>325.0</ele>
        <time>2018-03-05T15:10:08Z</time>
      </trkpt>
      <trkpt lat="38.3363490" lon="-0.6810340">
        <ele>325.0</ele>
        <time>2018-03-05T15:10:09Z</time>
      </trkpt>
      <trkpt lat="38.3363520" lon="-0.6810200">
        <ele>325.0</ele>
        <time>2018-03-05T15:10:10Z</time>
      </trkpt>
      <trkpt lat="38.3363580" lon="-0.6810070">
        <ele>325.0</ele>
        <time>2018-03-05T15:10:11Z</time>
      </trkpt>
      <trkpt lat="38.3363620" lon="-0.6809940">
        <ele>325.0</ele>
        <time>2018-03-05T15:10:12Z</time>
      </trkpt>
      <trkpt lat="38.3363650" lon="-0.6809830">
        <ele>325.0</ele>
        <time>2018-03-05T15:10:13Z</time>
      </trkpt>
      <trkpt lat="38.3363690" lon="-0.6809720">
        <ele>326.0</ele>
        <time>2018-03-05T15:10:14Z</time>
      </trkpt>
      <trkpt lat="38.3363740" lon="-0.6809610">
        <ele>326.0</ele>
        <time>2018-03-05T15:10:15Z</time>
      </trkpt>
      <trkpt lat="38.3363790" lon="-0.6809510">
        <ele>326.0</ele>
        <time>2018-03-05T15:10:16Z</time>
      </trkpt>
      <trkpt lat="38.3363840" lon="-0.6809430">
        <ele>326.0</ele>
        <time>2018-03-05T15:10:17Z</time>
      </trkpt>
      <trkpt lat="38.3363880" lon="-0.6809330">
        <ele>326.0</ele>
        <time>2018-03-05T15:10:18Z</time>
      </trkpt>
      <trkpt lat="38.3363920" lon="-0.6809250">
        <ele>327.0</ele>
        <time>2018-03-05T15:10:19Z</time>
      </trkpt>
      <trkpt lat="38.3363970" lon="-0.6809150">
        <ele>327.0</ele>
        <time>2018-03-05T15:10:20Z</time>
      </trkpt>
      <trkpt lat="38.3363990" lon="-0.6809030">
        <ele>327.0</ele>
        <time>2018-03-05T15:10:21Z</time>
      </trkpt>
      <trkpt lat="38.3364030" lon="-0.6808920">
        <ele>327.0</ele>
        <time>2018-03-05T15:10:22Z</time>
      </trkpt>
      <trkpt lat="38.3364060" lon="-0.6808810">
        <ele>327.0</ele>
        <time>2018-03-05T15:10:23Z</time>
      </trkpt>
      <trkpt lat="38.3364080" lon="-0.6808680">
        <ele>327.0</ele>
        <time>2018-03-05T15:10:24Z</time>
      </trkpt>
      <trkpt lat="38.3364100" lon="-0.6808550">
        <ele>328.0</ele>
        <time>2018-03-05T15:10:25Z</time>
      </trkpt>
      <trkpt lat="38.3364130" lon="-0.6808460">
        <ele>328.0</ele>
        <time>2018-03-05T15:10:26Z</time>
      </trkpt>
      <trkpt lat="38.3364150" lon="-0.6808360">
        <ele>328.0</ele>
        <time>2018-03-05T15:10:27Z</time>
      </trkpt>
      <trkpt lat="38.3364180" lon="-0.6808220">
        <ele>328.0</ele>
        <time>2018-03-05T15:10:28Z</time>
      </trkpt>
      <trkpt lat="38.3364210" lon="-0.6808110">
        <ele>328.0</ele>
        <time>2018-03-05T15:10:29Z</time>
      </trkpt>
      <trkpt lat="38.3364230" lon="-0.6808010">
        <ele>329.0</ele>
        <time>2018-03-05T15:10:30Z</time>
      </trkpt>
      <trkpt lat="38.3364250" lon="-0.6807900">
        <ele>329.0</ele>
        <time>2018-03-05T15:10:31Z</time>
      </trkpt>
      <trkpt lat="38.3364270" lon="-0.6807790">
        <ele>329.0</ele>
        <time>2018-03-05T15:10:32Z</time>
      </trkpt>
      <trkpt lat="38.3364290" lon="-0.6807650">
        <ele>329.0</ele>
        <time>2018-03-05T15:10:33Z</time>
      </trkpt>
      <trkpt lat="38.3364300" lon="-0.6807530">
        <ele>330.0</ele>
        <time>2018-03-05T15:10:34Z</time>
      </trkpt>
      <trkpt lat="38.3364350" lon="-0.6807430">
        <ele>329.0</ele>
        <time>2018-03-05T15:10:35Z</time>
      </trkpt>
      <trkpt lat="38.3364370" lon="-0.6807350">
        <ele>329.0</ele>
        <time>2018-03-05T15:10:36Z</time>
      </trkpt>
      <trkpt lat="38.3364420" lon="-0.6807250">
        <ele>329.0</ele>
        <time>2018-03-05T15:10:37Z</time>
      </trkpt>
      <trkpt lat="38.3364460" lon="-0.6807130">
        <ele>329.0</ele>
        <time>2018-03-05T15:10:38Z</time>
      </trkpt>
      <trkpt lat="38.3364490" lon="-0.6807010">
        <ele>329.0</ele>
        <time>2018-03-05T15:10:39Z</time>
      </trkpt>
      <trkpt lat="38.3364520" lon="-0.6806900">
        <ele>329.0</ele>
        <time>2018-03-05T15:10:40Z</time>
      </trkpt>
      <trkpt lat="38.3364560" lon="-0.6806760">
        <ele>330.0</ele>
        <time>2018-03-05T15:10:41Z</time>
      </trkpt>
      <trkpt lat="38.3364630" lon="-0.6806680">
        <ele>330.0</ele>
        <time>2018-03-05T15:10:42Z</time>
      </trkpt>
      <trkpt lat="38.3364700" lon="-0.6806550">
        <ele>330.0</ele>
        <time>2018-03-05T15:10:43Z</time>
      </trkpt>
      <trkpt lat="38.3364750" lon="-0.6806410">
        <ele>330.0</ele>
        <time>2018-03-05T15:10:44Z</time>
      </trkpt>
      <trkpt lat="38.3364790" lon="-0.6806290">
        <ele>330.0</ele>
        <time>2018-03-05T15:10:45Z</time>
      </trkpt>
      <trkpt lat="38.3364820" lon="-0.6806180">
        <ele>331.0</ele>
        <time>2018-03-05T15:10:46Z</time>
      </trkpt>
      <trkpt lat="38.3364840" lon="-0.6806080">
        <ele>331.0</ele>
        <time>2018-03-05T15:10:47Z</time>
      </trkpt>
      <trkpt lat="38.3364860" lon="-0.6806000">
        <ele>331.0</ele>
        <time>2018-03-05T15:10:48Z</time>
      </trkpt>
      <trkpt lat="38.3364900" lon="-0.6805910">
        <ele>331.0</ele>
        <time>2018-03-05T15:10:49Z</time>
      </trkpt>
      <trkpt lat="38.3364940" lon="-0.6805790">
        <ele>331.0</ele>
        <time>2018-03-05T15:10:50Z</time>
      </trkpt>
      <trkpt lat="38.3364970" lon="-0.6805670">
        <ele>331.0</ele>
        <time>2018-03-05T15:10:51Z</time>
      </trkpt>
      <trkpt lat="38.3364980" lon="-0.6805520">
        <ele>332.0</ele>
        <time>2018-03-05T15:10:52Z</time>
      </trkpt>
      <trkpt lat="38.3364990" lon="-0.6805420">
        <ele>332.0</ele>
        <time>2018-03-05T15:10:53Z</time>
      </trkpt>
      <trkpt lat="38.3365010" lon="-0.6805320">
        <ele>332.0</ele>
        <time>2018-03-05T15:10:54Z</time>
      </trkpt>
      <trkpt lat="38.3365040" lon="-0.6805210">
        <ele>332.0</ele>
        <time>2018-03-05T15:10:55Z</time>
      </trkpt>
      <trkpt lat="38.3365070" lon="-0.6805080">
        <ele>332.0</ele>
        <time>2018-03-05T15:10:56Z</time>
      </trkpt>
      <trkpt lat="38.3365110" lon="-0.6804960">
        <ele>333.0</ele>
        <time>2018-03-05T15:10:57Z</time>
      </trkpt>
      <trkpt lat="38.3365130" lon="-0.6804870">
        <ele>333.0</ele>
        <time>2018-03-05T15:10:58Z</time>
      </trkpt>
      <trkpt lat="38.3365170" lon="-0.6804770">
        <ele>333.0</ele>
        <time>2018-03-05T15:10:59Z</time>
      </trkpt>
      <trkpt lat="38.3365200" lon="-0.6804710">
        <ele>333.0</ele>
        <time>2018-03-05T15:11:00Z</time>
      </trkpt>
      <trkpt lat="38.3365220" lon="-0.6804600">
        <ele>333.0</ele>
        <time>2018-03-05T15:11:01Z</time>
      </trkpt>
      <trkpt lat="38.3365250" lon="-0.6804500">
        <ele>334.0</ele>
        <time>2018-03-05T15:11:02Z</time>
      </trkpt>
      <trkpt lat="38.3365290" lon="-0.6804390">
        <ele>334.0</ele>
        <time>2018-03-05T15:11:03Z</time>
      </trkpt>
      <trkpt lat="38.3365310" lon="-0.6804290">
        <ele>334.0</ele>
        <time>2018-03-05T15:11:04Z</time>
      </trkpt>
      <trkpt lat="38.3365330" lon="-0.6804170">
        <ele>334.0</ele>
        <time>2018-03-05T15:11:05Z</time>
      </trkpt>
      <trkpt lat="38.3365370" lon="-0.6804060">
        <ele>335.0</ele>
        <time>2018-03-05T15:11:06Z</time>
      </trkpt>
      <trkpt lat="38.3365410" lon="-0.6803970">
        <ele>335.0</ele>
        <time>2018-03-05T15:11:07Z</time>
      </trkpt>
      <trkpt lat="38.3365450" lon="-0.6803850">
        <ele>335.0</ele>
        <time>2018-03-05T15:11:08Z</time>
      </trkpt>
      <trkpt lat="38.3365480" lon="-0.6803730">
        <ele>335.0</ele>
        <time>2018-03-05T15:11:09Z</time>
      </trkpt>
      <trkpt lat="38.3365520" lon="-0.6803620">
        <ele>336.0</ele>
        <time>2018-03-05T15:11:10Z</time>
      </trkpt>
      <trkpt lat="38.3365560" lon="-0.6803540">
        <ele>336.0</ele>
        <time>2018-03-05T15:11:11Z</time>
      </trkpt>
      <trkpt lat="38.3365600" lon="-0.6803450">
        <ele>336.0</ele>
        <time>2018-03-05T15:11:12Z</time>
      </trkpt>
      <trkpt lat="38.3365620" lon="-0.6803350">
        <ele>336.0</ele>
        <time>2018-03-05T15:11:13Z</time>
      </trkpt>
      <trkpt lat="38.3365650" lon="-0.6803250">
        <ele>336.0</ele>
        <time>2018-03-05T15:11:14Z</time>
      </trkpt>
      <trkpt lat="38.3365700" lon="-0.6803120">
        <ele>337.0</ele>
        <time>2018-03-05T15:11:15Z</time>
      </trkpt>
      <trkpt lat="38.3365740" lon="-0.6803030">
        <ele>337.0</ele>
        <time>2018-03-05T15:11:16Z</time>
      </trkpt>
      <trkpt lat="38.3365770" lon="-0.6802920">
        <ele>337.0</ele>
        <time>2018-03-05T15:11:17Z</time>
      </trkpt>
      <trkpt lat="38.3365820" lon="-0.6802820">
        <ele>337.0</ele>
        <time>2018-03-05T15:11:18Z</time>
      </trkpt>
      <trkpt lat="38.3365860" lon="-0.6802730">
        <ele>338.0</ele>
        <time>2018-03-05T15:11:19Z</time>
      </trkpt>
      <trkpt lat="38.3365880" lon="-0.6802630">
        <ele>338.0</ele>
        <time>2018-03-05T15:11:20Z</time>
      </trkpt>
      <trkpt lat="38.3365920" lon="-0.6802550">
        <ele>338.0</ele>
        <time>2018-03-05T15:11:21Z</time>
      </trkpt>
      <trkpt lat="38.3365970" lon="-0.6802460">
        <ele>338.0</ele>
        <time>2018-03-05T15:11:22Z</time>
      </trkpt>
      <trkpt lat="38.3366020" lon="-0.6802400">
        <ele>338.0</ele>
        <time>2018-03-05T15:11:23Z</time>
      </trkpt>
      <trkpt lat="38.3366080" lon="-0.6802330">
        <ele>339.0</ele>
        <time>2018-03-05T15:11:24Z</time>
      </trkpt>
      <trkpt lat="38.3366130" lon="-0.6802280">
        <ele>339.0</ele>
        <time>2018-03-05T15:11:25Z</time>
      </trkpt>
      <trkpt lat="38.3366200" lon="-0.6802220">
        <ele>339.0</ele>
        <time>2018-03-05T15:11:26Z</time>
      </trkpt>
      <trkpt lat="38.3366250" lon="-0.6802150">
        <ele>339.0</ele>
        <time>2018-03-05T15:11:27Z</time>
      </trkpt>
      <trkpt lat="38.3366320" lon="-0.6802070">
        <ele>339.0</ele>
        <time>2018-03-05T15:11:28Z</time>
      </trkpt>
      <trkpt lat="38.3366360" lon="-0.6801960">
        <ele>340.0</ele>
        <time>2018-03-05T15:11:29Z</time>
      </trkpt>
      <trkpt lat="38.3366390" lon="-0.6801850">
        <ele>340.0</ele>
        <time>2018-03-05T15:11:30Z</time>
      </trkpt>
      <trkpt lat="38.3366440" lon="-0.6801780">
        <ele>340.0</ele>
        <time>2018-03-05T15:11:31Z</time>
      </trkpt>
      <trkpt lat="38.3366530" lon="-0.6801730">
        <ele>340.0</ele>
        <time>2018-03-05T15:11:32Z</time>
      </trkpt>
      <trkpt lat="38.3366600" lon="-0.6801660">
        <ele>340.0</ele>
        <time>2018-03-05T15:11:33Z</time>
      </trkpt>
      <trkpt lat="38.3366700" lon="-0.6801610">
        <ele>340.0</ele>
        <time>2018-03-05T15:11:34Z</time>
      </trkpt>
      <trkpt lat="38.3366780" lon="-0.6801600">
        <ele>340.0</ele>
        <time>2018-03-05T15:11:35Z</time>
      </trkpt>
      <trkpt lat="38.3366850" lon="-0.6801600">
        <ele>341.0</ele>
        <time>2018-03-05T15:11:36Z</time>
      </trkpt>
      <trkpt lat="38.3366950" lon="-0.6801590">
        <ele>341.0</ele>
        <time>2018-03-05T15:11:37Z</time>
      </trkpt>
      <trkpt lat="38.3367040" lon="-0.6801580">
        <ele>341.0</ele>
        <time>2018-03-05T15:11:38Z</time>
      </trkpt>
      <trkpt lat="38.3367150" lon="-0.6801540">
        <ele>341.0</ele>
        <time>2018-03-05T15:11:39Z</time>
      </trkpt>
      <trkpt lat="38.3367230" lon="-0.6801510">
        <ele>341.0</ele>
        <time>2018-03-05T15:11:40Z</time>
      </trkpt>
      <trkpt lat="38.3367310" lon="-0.6801480">
        <ele>341.0</ele>
        <time>2018-03-05T15:11:41Z</time>
      </trkpt>
      <trkpt lat="38.3367390" lon="-0.6801450">
        <ele>341.0</ele>
        <time>2018-03-05T15:11:42Z</time>
      </trkpt>
      <trkpt lat="38.3367470" lon="-0.6801430">
        <ele>342.0</ele>
        <time>2018-03-05T15:11:43Z</time>
      </trkpt>
      <trkpt lat="38.3367540" lon="-0.6801380">
        <ele>342.0</ele>
        <time>2018-03-05T15:11:44Z</time>
      </trkpt>
      <trkpt lat="38.3367610" lon="-0.6801320">
        <ele>342.0</ele>
        <time>2018-03-05T15:11:45Z</time>
      </trkpt>
      <trkpt lat="38.3367680" lon="-0.6801270">
        <ele>342.0</ele>
        <time>2018-03-05T15:11:46Z</time>
      </trkpt>
      <trkpt lat="38.3367750" lon="-0.6801250">
        <ele>342.0</ele>
        <time>2018-03-05T15:11:47Z</time>
      </trkpt>
      <trkpt lat="38.3367810" lon="-0.6801240">
        <ele>343.0</ele>
        <time>2018-03-05T15:11:48Z</time>
      </trkpt>
      <trkpt lat="38.3367880" lon="-0.6801230">
        <ele>343.0</ele>
        <time>2018-03-05T15:11:49Z</time>
      </trkpt>
      <trkpt lat="38.3367960" lon="-0.6801230">
        <ele>343.0</ele>
        <time>2018-03-05T15:11:50Z</time>
      </trkpt>
      <trkpt lat="38.3368050" lon="-0.6801220">
        <ele>343.0</ele>
        <time>2018-03-05T15:11:51Z</time>
      </trkpt>
      <trkpt lat="38.3368130" lon="-0.6801200">
        <ele>343.0</ele>
        <time>2018-03-05T15:11:52Z</time>
      </trkpt>
      <trkpt lat="38.3368200" lon="-0.6801190">
        <ele>343.0</ele>
        <time>2018-03-05T15:11:53Z</time>
      </trkpt>
      <trkpt lat="38.3368270" lon="-0.6801140">
        <ele>343.0</ele>
        <time>2018-03-05T15:11:54Z</time>
      </trkpt>
      <trkpt lat="38.3368350" lon="-0.6801060">
        <ele>343.0</ele>
        <time>2018-03-05T15:11:55Z</time>
      </trkpt>
      <trkpt lat="38.3368440" lon="-0.6800990">
        <ele>344.0</ele>
        <time>2018-03-05T15:11:56Z</time>
      </trkpt>
      <trkpt lat="38.3368510" lon="-0.6800900">
        <ele>343.0</ele>
        <time>2018-03-05T15:11:57Z</time>
      </trkpt>
      <trkpt lat="38.3368580" lon="-0.6800790">
        <ele>343.0</ele>
        <time>2018-03-05T15:11:58Z</time>
      </trkpt>
      <trkpt lat="38.3368650" lon="-0.6800680">
        <ele>343.0</ele>
        <time>2018-03-05T15:11:59Z</time>
      </trkpt>
      <trkpt lat="38.3368700" lon="-0.6800560">
        <ele>343.0</ele>
        <time>2018-03-05T15:12:00Z</time>
      </trkpt>
      <trkpt lat="38.3368750" lon="-0.6800430">
        <ele>343.0</ele>
        <time>2018-03-05T15:12:01Z</time>
      </trkpt>
      <trkpt lat="38.3368720" lon="-0.6800290">
        <ele>344.0</ele>
        <time>2018-03-05T15:12:02Z</time>
      </trkpt>
      <trkpt lat="38.3368670" lon="-0.6800170">
        <ele>344.0</ele>
        <time>2018-03-05T15:12:03Z</time>
      </trkpt>
      <trkpt lat="38.3368610" lon="-0.6800020">
        <ele>344.0</ele>
        <time>2018-03-05T15:12:04Z</time>
      </trkpt>
      <trkpt lat="38.3368570" lon="-0.6799900">
        <ele>344.0</ele>
        <time>2018-03-05T15:12:05Z</time>
      </trkpt>
      <trkpt lat="38.3368540" lon="-0.6799780">
        <ele>344.0</ele>
        <time>2018-03-05T15:12:06Z</time>
      </trkpt>
      <trkpt lat="38.3368530" lon="-0.6799660">
        <ele>344.0</ele>
        <time>2018-03-05T15:12:07Z</time>
      </trkpt>
      <trkpt lat="38.3368510" lon="-0.6799520">
        <ele>344.0</ele>
        <time>2018-03-05T15:12:08Z</time>
      </trkpt>
      <trkpt lat="38.3368500" lon="-0.6799380">
        <ele>344.0</ele>
        <time>2018-03-05T15:12:09Z</time>
      </trkpt>
      <trkpt lat="38.3368450" lon="-0.6799230">
        <ele>344.0</ele>
        <time>2018-03-05T15:12:10Z</time>
      </trkpt>
      <trkpt lat="38.3368410" lon="-0.6799170">
        <ele>344.0</ele>
        <time>2018-03-05T15:12:11Z</time>
      </trkpt>
      <trkpt lat="38.3368360" lon="-0.6799060">
        <ele>344.0</ele>
        <time>2018-03-05T15:12:12Z</time>
      </trkpt>
      <trkpt lat="38.3368300" lon="-0.6798940">
        <ele>345.0</ele>
        <time>2018-03-05T15:12:13Z</time>
      </trkpt>
      <trkpt lat="38.3368270" lon="-0.6798830">
        <ele>345.0</ele>
        <time>2018-03-05T15:12:14Z</time>
      </trkpt>
      <trkpt lat="38.3368240" lon="-0.6798770">
        <ele>345.0</ele>
        <time>2018-03-05T15:12:15Z</time>
      </trkpt>
      <trkpt lat="38.3368240" lon="-0.6798770">
        <ele>345.0</ele>
        <time>2018-03-05T15:12:16Z</time>
      </trkpt>
      <trkpt lat="38.3368230" lon="-0.6798780">
        <ele>345.0</ele>
        <time>2018-03-05T15:12:17Z</time>
      </trkpt>
      <trkpt lat="38.3368170" lon="-0.6798700">
        <ele>344.0</ele>
        <time>2018-03-05T15:12:18Z</time>
      </trkpt>
      <trkpt lat="38.3368110" lon="-0.6798570">
        <ele>344.0</ele>
        <time>2018-03-05T15:12:19Z</time>
      </trkpt>
      <trkpt lat="38.3368060" lon="-0.6798410">
        <ele>344.0</ele>
        <time>2018-03-05T15:12:20Z</time>
      </trkpt>
      <trkpt lat="38.3367970" lon="-0.6798240">
        <ele>345.0</ele>
        <time>2018-03-05T15:12:21Z</time>
      </trkpt>
      <trkpt lat="38.3367890" lon="-0.6798050">
        <ele>345.0</ele>
        <time>2018-03-05T15:12:22Z</time>
      </trkpt>
      <trkpt lat="38.3367790" lon="-0.6797830">
        <ele>345.0</ele>
        <time>2018-03-05T15:12:23Z</time>
      </trkpt>
      <trkpt lat="38.3367670" lon="-0.6797660">
        <ele>345.0</ele>
        <time>2018-03-05T15:12:24Z</time>
      </trkpt>
      <trkpt lat="38.3367560" lon="-0.6797500">
        <ele>346.0</ele>
        <time>2018-03-05T15:12:25Z</time>
      </trkpt>
      <trkpt lat="38.3367440" lon="-0.6797330">
        <ele>346.0</ele>
        <time>2018-03-05T15:12:26Z</time>
      </trkpt>
      <trkpt lat="38.3367320" lon="-0.6797190">
        <ele>346.0</ele>
        <time>2018-03-05T15:12:27Z</time>
      </trkpt>
      <trkpt lat="38.3367210" lon="-0.6797020">
        <ele>346.0</ele>
        <time>2018-03-05T15:12:28Z</time>
      </trkpt>
      <trkpt lat="38.3367100" lon="-0.6796860">
        <ele>346.0</ele>
        <time>2018-03-05T15:12:29Z</time>
      </trkpt>
      <trkpt lat="38.3366970" lon="-0.6796680">
        <ele>347.0</ele>
        <time>2018-03-05T15:12:30Z</time>
      </trkpt>
      <trkpt lat="38.3366850" lon="-0.6796520">
        <ele>347.0</ele>
        <time>2018-03-05T15:12:31Z</time>
      </trkpt>
      <trkpt lat="38.3366750" lon="-0.6796380">
        <ele>347.0</ele>
        <time>2018-03-05T15:12:32Z</time>
      </trkpt>
      <trkpt lat="38.3366640" lon="-0.6796240">
        <ele>347.0</ele>
        <time>2018-03-05T15:12:33Z</time>
      </trkpt>
      <trkpt lat="38.3366540" lon="-0.6796080">
        <ele>347.0</ele>
        <time>2018-03-05T15:12:34Z</time>
      </trkpt>
      <trkpt lat="38.3366440" lon="-0.6795900">
        <ele>348.0</ele>
        <time>2018-03-05T15:12:35Z</time>
      </trkpt>
      <trkpt lat="38.3366340" lon="-0.6795740">
        <ele>348.0</ele>
        <time>2018-03-05T15:12:36Z</time>
      </trkpt>
      <trkpt lat="38.3366260" lon="-0.6795550">
        <ele>348.0</ele>
        <time>2018-03-05T15:12:37Z</time>
      </trkpt>
      <trkpt lat="38.3366160" lon="-0.6795330">
        <ele>348.0</ele>
        <time>2018-03-05T15:12:38Z</time>
      </trkpt>
      <trkpt lat="38.3366110" lon="-0.6795080">
        <ele>348.0</ele>
        <time>2018-03-05T15:12:39Z</time>
      </trkpt>
      <trkpt lat="38.3366020" lon="-0.6794840">
        <ele>349.0</ele>
        <time>2018-03-05T15:12:40Z</time>
      </trkpt>
      <trkpt lat="38.3365930" lon="-0.6794590">
        <ele>349.0</ele>
        <time>2018-03-05T15:12:41Z</time>
      </trkpt>
      <trkpt lat="38.3365850" lon="-0.6794370">
        <ele>349.0</ele>
        <time>2018-03-05T15:12:42Z</time>
      </trkpt>
      <trkpt lat="38.3365810" lon="-0.6794130">
        <ele>349.0</ele>
        <time>2018-03-05T15:12:43Z</time>
      </trkpt>
      <trkpt lat="38.3365770" lon="-0.6793880">
        <ele>349.0</ele>
        <time>2018-03-05T15:12:44Z</time>
      </trkpt>
      <trkpt lat="38.3365730" lon="-0.6793620">
        <ele>349.0</ele>
        <time>2018-03-05T15:12:45Z</time>
      </trkpt>
      <trkpt lat="38.3365690" lon="-0.6793350">
        <ele>350.0</ele>
        <time>2018-03-05T15:12:46Z</time>
      </trkpt>
      <trkpt lat="38.3365670" lon="-0.6793080">
        <ele>350.0</ele>
        <time>2018-03-05T15:12:47Z</time>
      </trkpt>
      <trkpt lat="38.3365650" lon="-0.6792790">
        <ele>350.0</ele>
        <time>2018-03-05T15:12:48Z</time>
      </trkpt>
      <trkpt lat="38.3365630" lon="-0.6792480">
        <ele>350.0</ele>
        <time>2018-03-05T15:12:49Z</time>
      </trkpt>
      <trkpt lat="38.3365620" lon="-0.6792180">
        <ele>350.0</ele>
        <time>2018-03-05T15:12:50Z</time>
      </trkpt>
      <trkpt lat="38.3365610" lon="-0.6791890">
        <ele>350.0</ele>
        <time>2018-03-05T15:12:51Z</time>
      </trkpt>
      <trkpt lat="38.3365580" lon="-0.6791610">
        <ele>350.0</ele>
        <time>2018-03-05T15:12:52Z</time>
      </trkpt>
      <trkpt lat="38.3365560" lon="-0.6791270">
        <ele>351.0</ele>
        <time>2018-03-05T15:12:53Z</time>
      </trkpt>
      <trkpt lat="38.3365520" lon="-0.6790940">
        <ele>351.0</ele>
        <time>2018-03-05T15:12:54Z</time>
      </trkpt>
      <trkpt lat="38.3365490" lon="-0.6790650">
        <ele>351.0</ele>
        <time>2018-03-05T15:12:55Z</time>
      </trkpt>
      <trkpt lat="38.3365480" lon="-0.6790350">
        <ele>351.0</ele>
        <time>2018-03-05T15:12:56Z</time>
      </trkpt>
      <trkpt lat="38.3365480" lon="-0.6790070">
        <ele>351.0</ele>
        <time>2018-03-05T15:12:57Z</time>
      </trkpt>
      <trkpt lat="38.3365400" lon="-0.6789820">
        <ele>351.0</ele>
        <time>2018-03-05T15:12:58Z</time>
      </trkpt>
      <trkpt lat="38.3365290" lon="-0.6789690">
        <ele>351.0</ele>
        <time>2018-03-05T15:12:59Z</time>
      </trkpt>
      <trkpt lat="38.3365150" lon="-0.6789640">
        <ele>351.0</ele>
        <time>2018-03-05T15:13:00Z</time>
      </trkpt>
      <trkpt lat="38.3364990" lon="-0.6789680">
        <ele>351.0</ele>
        <time>2018-03-05T15:13:01Z</time>
      </trkpt>
      <trkpt lat="38.3364820" lon="-0.6789820">
        <ele>350.0</ele>
        <time>2018-03-05T15:13:02Z</time>
      </trkpt>
      <trkpt lat="38.3364590" lon="-0.6790010">
        <ele>350.0</ele>
        <time>2018-03-05T15:13:03Z</time>
      </trkpt>
      <trkpt lat="38.3364300" lon="-0.6790180">
        <ele>350.0</ele>
        <time>2018-03-05T15:13:04Z</time>
      </trkpt>
      <trkpt lat="38.3363990" lon="-0.6790310">
        <ele>349.0</ele>
        <time>2018-03-05T15:13:05Z</time>
      </trkpt>
      <trkpt lat="38.3363630" lon="-0.6790370">
        <ele>349.0</ele>
        <time>2018-03-05T15:13:06Z</time>
      </trkpt>
      <trkpt lat="38.3363230" lon="-0.6790420">
        <ele>349.0</ele>
        <time>2018-03-05T15:13:07Z</time>
      </trkpt>
      <trkpt lat="38.3362750" lon="-0.6790470">
        <ele>348.0</ele>
        <time>2018-03-05T15:13:08Z</time>
      </trkpt>
      <trkpt lat="38.3362210" lon="-0.6790580">
        <ele>347.0</ele>
        <time>2018-03-05T15:13:09Z</time>
      </trkpt>
      <trkpt lat="38.3361650" lon="-0.6790710">
        <ele>347.0</ele>
        <time>2018-03-05T15:13:10Z</time>
      </trkpt>
      <trkpt lat="38.3361050" lon="-0.6790880">
        <ele>346.0</ele>
        <time>2018-03-05T15:13:11Z</time>
      </trkpt>
      <trkpt lat="38.3360360" lon="-0.6791140">
        <ele>345.0</ele>
        <time>2018-03-05T15:13:12Z</time>
      </trkpt>
      <trkpt lat="38.3359660" lon="-0.6791430">
        <ele>344.0</ele>
        <time>2018-03-05T15:13:13Z</time>
      </trkpt>
      <trkpt lat="38.3358940" lon="-0.6791670">
        <ele>343.0</ele>
        <time>2018-03-05T15:13:14Z</time>
      </trkpt>
      <trkpt lat="38.3358170" lon="-0.6791830">
        <ele>344.0</ele>
        <time>2018-03-05T15:13:15Z</time>
      </trkpt>
      <trkpt lat="38.3357460" lon="-0.6791850">
        <ele>344.0</ele>
        <time>2018-03-05T15:13:16Z</time>
      </trkpt>
      <trkpt lat="38.3356770" lon="-0.6791800">
        <ele>343.0</ele>
        <time>2018-03-05T15:13:17Z</time>
      </trkpt>
      <trkpt lat="38.3356090" lon="-0.6791690">
        <ele>342.0</ele>
        <time>2018-03-05T15:13:18Z</time>
      </trkpt>
      <trkpt lat="38.3355400" lon="-0.6791600">
        <ele>341.0</ele>
        <time>2018-03-05T15:13:19Z</time>
      </trkpt>
      <trkpt lat="38.3354750" lon="-0.6791510">
        <ele>340.0</ele>
        <time>2018-03-05T15:13:20Z</time>
      </trkpt>
      <trkpt lat="38.3354100" lon="-0.6791340">
        <ele>339.0</ele>
        <time>2018-03-05T15:13:21Z</time>
      </trkpt>
      <trkpt lat="38.3353450" lon="-0.6791140">
        <ele>338.0</ele>
        <time>2018-03-05T15:13:22Z</time>
      </trkpt>
      <trkpt lat="38.3352820" lon="-0.6790930">
        <ele>337.0</ele>
        <time>2018-03-05T15:13:23Z</time>
      </trkpt>
      <trkpt lat="38.3352210" lon="-0.6790760">
        <ele>336.0</ele>
        <time>2018-03-05T15:13:24Z</time>
      </trkpt>
      <trkpt lat="38.3351720" lon="-0.6790650">
        <ele>335.0</ele>
        <time>2018-03-05T15:13:25Z</time>
      </trkpt>
      <trkpt lat="38.3351300" lon="-0.6790670">
        <ele>335.0</ele>
        <time>2018-03-05T15:13:26Z</time>
      </trkpt>
      <trkpt lat="38.3351030" lon="-0.6790830">
        <ele>334.0</ele>
        <time>2018-03-05T15:13:27Z</time>
      </trkpt>
      <trkpt lat="38.3350690" lon="-0.6791110">
        <ele>333.0</ele>
        <time>2018-03-05T15:13:28Z</time>
      </trkpt>
      <trkpt lat="38.3350270" lon="-0.6791410">
        <ele>332.0</ele>
        <time>2018-03-05T15:13:29Z</time>
      </trkpt>
      <trkpt lat="38.3349810" lon="-0.6791810">
        <ele>331.0</ele>
        <time>2018-03-05T15:13:30Z</time>
      </trkpt>
      <trkpt lat="38.3349280" lon="-0.6792300">
        <ele>330.0</ele>
        <time>2018-03-05T15:13:31Z</time>
      </trkpt>
      <trkpt lat="38.3348700" lon="-0.6792840">
        <ele>329.0</ele>
        <time>2018-03-05T15:13:32Z</time>
      </trkpt>
      <trkpt lat="38.3348150" lon="-0.6793370">
        <ele>328.0</ele>
        <time>2018-03-05T15:13:33Z</time>
      </trkpt>
      <trkpt lat="38.3347680" lon="-0.6793840">
        <ele>327.0</ele>
        <time>2018-03-05T15:13:34Z</time>
      </trkpt>
      <trkpt lat="38.3347270" lon="-0.6794270">
        <ele>326.0</ele>
        <time>2018-03-05T15:13:35Z</time>
      </trkpt>
      <trkpt lat="38.3346890" lon="-0.6794680">
        <ele>325.0</ele>
        <time>2018-03-05T15:13:36Z</time>
      </trkpt>
      <trkpt lat="38.3346560" lon="-0.6795040">
        <ele>324.0</ele>
        <time>2018-03-05T15:13:37Z</time>
      </trkpt>
      <trkpt lat="38.3346270" lon="-0.6795360">
        <ele>323.0</ele>
        <time>2018-03-05T15:13:38Z</time>
      </trkpt>
      <trkpt lat="38.3346020" lon="-0.6795690">
        <ele>322.0</ele>
        <time>2018-03-05T15:13:39Z</time>
      </trkpt>
      <trkpt lat="38.3345820" lon="-0.6795980">
        <ele>321.0</ele>
        <time>2018-03-05T15:13:40Z</time>
      </trkpt>
      <trkpt lat="38.3345630" lon="-0.6796230">
        <ele>321.0</ele>
        <time>2018-03-05T15:13:41Z</time>
      </trkpt>
      <trkpt lat="38.3345440" lon="-0.6796530">
        <ele>320.0</ele>
        <time>2018-03-05T15:13:42Z</time>
      </trkpt>
      <trkpt lat="38.3345210" lon="-0.6796930">
        <ele>319.0</ele>
        <time>2018-03-05T15:13:43Z</time>
      </trkpt>
      <trkpt lat="38.3345020" lon="-0.6797360">
        <ele>318.0</ele>
        <time>2018-03-05T15:13:44Z</time>
      </trkpt>
      <trkpt lat="38.3344860" lon="-0.6797840">
        <ele>317.0</ele>
        <time>2018-03-05T15:13:45Z</time>
      </trkpt>
      <trkpt lat="38.3344660" lon="-0.6798370">
        <ele>315.0</ele>
        <time>2018-03-05T15:13:46Z</time>
      </trkpt>
      <trkpt lat="38.3344410" lon="-0.6798900">
        <ele>314.0</ele>
        <time>2018-03-05T15:13:47Z</time>
      </trkpt>
      <trkpt lat="38.3344140" lon="-0.6799470">
        <ele>313.0</ele>
        <time>2018-03-05T15:13:48Z</time>
      </trkpt>
      <trkpt lat="38.3343750" lon="-0.6800100">
        <ele>312.0</ele>
        <time>2018-03-05T15:13:49Z</time>
      </trkpt>
      <trkpt lat="38.3343380" lon="-0.6800690">
        <ele>311.0</ele>
        <time>2018-03-05T15:13:50Z</time>
      </trkpt>
      <trkpt lat="38.3343050" lon="-0.6801190">
        <ele>311.0</ele>
        <time>2018-03-05T15:13:51Z</time>
      </trkpt>
      <trkpt lat="38.3342760" lon="-0.6801670">
        <ele>310.0</ele>
        <time>2018-03-05T15:13:52Z</time>
      </trkpt>
      <trkpt lat="38.3342500" lon="-0.6802130">
        <ele>308.0</ele>
        <time>2018-03-05T15:13:53Z</time>
      </trkpt>
      <trkpt lat="38.3342270" lon="-0.6802620">
        <ele>307.0</ele>
        <time>2018-03-05T15:13:54Z</time>
      </trkpt>
      <trkpt lat="38.3342110" lon="-0.6803050">
        <ele>306.0</ele>
        <time>2018-03-05T15:13:55Z</time>
      </trkpt>
      <trkpt lat="38.3341990" lon="-0.6803520">
        <ele>305.0</ele>
        <time>2018-03-05T15:13:56Z</time>
      </trkpt>
      <trkpt lat="38.3341810" lon="-0.6804150">
        <ele>303.0</ele>
        <time>2018-03-05T15:13:57Z</time>
      </trkpt>
      <trkpt lat="38.3341770" lon="-0.6804760">
        <ele>303.0</ele>
        <time>2018-03-05T15:13:58Z</time>
      </trkpt>
      <trkpt lat="38.3341720" lon="-0.6805280">
        <ele>302.0</ele>
        <time>2018-03-05T15:13:59Z</time>
      </trkpt>
      <trkpt lat="38.3341710" lon="-0.6805860">
        <ele>301.0</ele>
        <time>2018-03-05T15:14:00Z</time>
      </trkpt>
      <trkpt lat="38.3341620" lon="-0.6806480">
        <ele>300.0</ele>
        <time>2018-03-05T15:14:01Z</time>
      </trkpt>
      <trkpt lat="38.3341510" lon="-0.6807200">
        <ele>299.0</ele>
        <time>2018-03-05T15:14:02Z</time>
      </trkpt>
      <trkpt lat="38.3341410" lon="-0.6807830">
        <ele>298.0</ele>
        <time>2018-03-05T15:14:03Z</time>
      </trkpt>
      <trkpt lat="38.3341350" lon="-0.6808410">
        <ele>297.0</ele>
        <time>2018-03-05T15:14:04Z</time>
      </trkpt>
      <trkpt lat="38.3341280" lon="-0.6808920">
        <ele>297.0</ele>
        <time>2018-03-05T15:14:05Z</time>
      </trkpt>
      <trkpt lat="38.3341180" lon="-0.6809370">
        <ele>296.0</ele>
        <time>2018-03-05T15:14:06Z</time>
      </trkpt>
      <trkpt lat="38.3341100" lon="-0.6809790">
        <ele>296.0</ele>
        <time>2018-03-05T15:14:07Z</time>
      </trkpt>
      <trkpt lat="38.3341030" lon="-0.6810200">
        <ele>295.0</ele>
        <time>2018-03-05T15:14:08Z</time>
      </trkpt>
      <trkpt lat="38.3340940" lon="-0.6810740">
        <ele>294.0</ele>
        <time>2018-03-05T15:14:09Z</time>
      </trkpt>
      <trkpt lat="38.3340830" lon="-0.6811440">
        <ele>294.0</ele>
        <time>2018-03-05T15:14:10Z</time>
      </trkpt>
      <trkpt lat="38.3340710" lon="-0.6812030">
        <ele>293.0</ele>
        <time>2018-03-05T15:14:11Z</time>
      </trkpt>
      <trkpt lat="38.3340620" lon="-0.6812590">
        <ele>293.0</ele>
        <time>2018-03-05T15:14:12Z</time>
      </trkpt>
      <trkpt lat="38.3340520" lon="-0.6813090">
        <ele>292.0</ele>
        <time>2018-03-05T15:14:13Z</time>
      </trkpt>
      <trkpt lat="38.3340380" lon="-0.6813550">
        <ele>292.0</ele>
        <time>2018-03-05T15:14:14Z</time>
      </trkpt>
      <trkpt lat="38.3340230" lon="-0.6813990">
        <ele>291.0</ele>
        <time>2018-03-05T15:14:15Z</time>
      </trkpt>
      <trkpt lat="38.3340060" lon="-0.6814480">
        <ele>291.0</ele>
        <time>2018-03-05T15:14:16Z</time>
      </trkpt>
      <trkpt lat="38.3339820" lon="-0.6815080">
        <ele>289.0</ele>
        <time>2018-03-05T15:14:17Z</time>
      </trkpt>
      <trkpt lat="38.3339570" lon="-0.6815690">
        <ele>289.0</ele>
        <time>2018-03-05T15:14:18Z</time>
      </trkpt>
      <trkpt lat="38.3339380" lon="-0.6816160">
        <ele>288.0</ele>
        <time>2018-03-05T15:14:19Z</time>
      </trkpt>
      <trkpt lat="38.3339200" lon="-0.6816520">
        <ele>288.0</ele>
        <time>2018-03-05T15:14:20Z</time>
      </trkpt>
      <trkpt lat="38.3339010" lon="-0.6816890">
        <ele>287.0</ele>
        <time>2018-03-05T15:14:21Z</time>
      </trkpt>
      <trkpt lat="38.3338810" lon="-0.6817270">
        <ele>286.0</ele>
        <time>2018-03-05T15:14:22Z</time>
      </trkpt>
      <trkpt lat="38.3338590" lon="-0.6817720">
        <ele>285.0</ele>
        <time>2018-03-05T15:14:23Z</time>
      </trkpt>
      <trkpt lat="38.3338330" lon="-0.6818230">
        <ele>285.0</ele>
        <time>2018-03-05T15:14:24Z</time>
      </trkpt>
      <trkpt lat="38.3338010" lon="-0.6818810">
        <ele>284.0</ele>
        <time>2018-03-05T15:14:25Z</time>
      </trkpt>
      <trkpt lat="38.3337720" lon="-0.6819320">
        <ele>283.0</ele>
        <time>2018-03-05T15:14:26Z</time>
      </trkpt>
      <trkpt lat="38.3337440" lon="-0.6819680">
        <ele>282.0</ele>
        <time>2018-03-05T15:14:27Z</time>
      </trkpt>
      <trkpt lat="38.3337160" lon="-0.6820110">
        <ele>282.0</ele>
        <time>2018-03-05T15:14:28Z</time>
      </trkpt>
      <trkpt lat="38.3336900" lon="-0.6820540">
        <ele>281.0</ele>
        <time>2018-03-05T15:14:29Z</time>
      </trkpt>
      <trkpt lat="38.3336650" lon="-0.6820960">
        <ele>280.0</ele>
        <time>2018-03-05T15:14:30Z</time>
      </trkpt>
      <trkpt lat="38.3336440" lon="-0.6821290">
        <ele>279.0</ele>
        <time>2018-03-05T15:14:31Z</time>
      </trkpt>
      <trkpt lat="38.3336230" lon="-0.6821610">
        <ele>279.0</ele>
        <time>2018-03-05T15:14:32Z</time>
      </trkpt>
      <trkpt lat="38.3335970" lon="-0.6822030">
        <ele>278.0</ele>
        <time>2018-03-05T15:14:33Z</time>
      </trkpt>
      <trkpt lat="38.3335710" lon="-0.6822410">
        <ele>277.0</ele>
        <time>2018-03-05T15:14:34Z</time>
      </trkpt>
      <trkpt lat="38.3335460" lon="-0.6822680">
        <ele>277.0</ele>
        <time>2018-03-05T15:14:35Z</time>
      </trkpt>
      <trkpt lat="38.3335270" lon="-0.6822920">
        <ele>276.0</ele>
        <time>2018-03-05T15:14:36Z</time>
      </trkpt>
      <trkpt lat="38.3335090" lon="-0.6823140">
        <ele>275.0</ele>
        <time>2018-03-05T15:14:37Z</time>
      </trkpt>
      <trkpt lat="38.3334920" lon="-0.6823360">
        <ele>275.0</ele>
        <time>2018-03-05T15:14:38Z</time>
      </trkpt>
      <trkpt lat="38.3334780" lon="-0.6823530">
        <ele>274.0</ele>
        <time>2018-03-05T15:14:39Z</time>
      </trkpt>
      <trkpt lat="38.3334630" lon="-0.6823680">
        <ele>274.0</ele>
        <time>2018-03-05T15:14:40Z</time>
      </trkpt>
      <trkpt lat="38.3334470" lon="-0.6823860">
        <ele>273.0</ele>
        <time>2018-03-05T15:14:41Z</time>
      </trkpt>
      <trkpt lat="38.3334330" lon="-0.6823990">
        <ele>273.0</ele>
        <time>2018-03-05T15:14:42Z</time>
      </trkpt>
      <trkpt lat="38.3334290" lon="-0.6824040">
        <ele>273.0</ele>
        <time>2018-03-05T15:14:43Z</time>
      </trkpt>
      <trkpt lat="38.3334260" lon="-0.6824090">
        <ele>273.0</ele>
        <time>2018-03-05T15:14:44Z</time>
      </trkpt>
      <trkpt lat="38.3334250" lon="-0.6824110">
        <ele>273.0</ele>
        <time>2018-03-05T15:14:45Z</time>
      </trkpt>
      <trkpt lat="38.3334250" lon="-0.6824150">
        <ele>272.0</ele>
        <time>2018-03-05T15:14:46Z</time>
      </trkpt>
      <trkpt lat="38.3334180" lon="-0.6824250">
        <ele>272.0</ele>
        <time>2018-03-05T15:14:47Z</time>
      </trkpt>
      <trkpt lat="38.3334090" lon="-0.6824370">
        <ele>272.0</ele>
        <time>2018-03-05T15:14:48Z</time>
      </trkpt>
      <trkpt lat="38.3333970" lon="-0.6824510">
        <ele>271.0</ele>
        <time>2018-03-05T15:14:49Z</time>
      </trkpt>
      <trkpt lat="38.3333840" lon="-0.6824630">
        <ele>271.0</ele>
        <time>2018-03-05T15:14:50Z</time>
      </trkpt>
      <trkpt lat="38.3333710" lon="-0.6824780">
        <ele>272.0</ele>
        <time>2018-03-05T15:14:51Z</time>
      </trkpt>
      <trkpt lat="38.3333590" lon="-0.6824920">
        <ele>271.0</ele>
        <time>2018-03-05T15:14:52Z</time>
      </trkpt>
      <trkpt lat="38.3333470" lon="-0.6825030">
        <ele>271.0</ele>
        <time>2018-03-05T15:14:53Z</time>
      </trkpt>
      <trkpt lat="38.3333380" lon="-0.6825140">
        <ele>271.0</ele>
        <time>2018-03-05T15:14:54Z</time>
      </trkpt>
      <trkpt lat="38.3333280" lon="-0.6825250">
        <ele>271.0</ele>
        <time>2018-03-05T15:14:55Z</time>
      </trkpt>
      <trkpt lat="38.3333200" lon="-0.6825350">
        <ele>271.0</ele>
        <time>2018-03-05T15:14:56Z</time>
      </trkpt>
      <trkpt lat="38.3333120" lon="-0.6825440">
        <ele>271.0</ele>
        <time>2018-03-05T15:14:57Z</time>
      </trkpt>
      <trkpt lat="38.3333050" lon="-0.6825520">
        <ele>270.0</ele>
        <time>2018-03-05T15:14:58Z</time>
      </trkpt>
      <trkpt lat="38.3332980" lon="-0.6825650">
        <ele>270.0</ele>
        <time>2018-03-05T15:14:59Z</time>
      </trkpt>
      <trkpt lat="38.3332910" lon="-0.6825770">
        <ele>270.0</ele>
        <time>2018-03-05T15:15:00Z</time>
      </trkpt>
      <trkpt lat="38.3332860" lon="-0.6825850">
        <ele>270.0</ele>
        <time>2018-03-05T15:15:01Z</time>
      </trkpt>
      <trkpt lat="38.3332840" lon="-0.6825860">
        <ele>269.0</ele>
        <time>2018-03-05T15:15:02Z</time>
      </trkpt>
      <trkpt lat="38.3332820" lon="-0.6825900">
        <ele>269.0</ele>
        <time>2018-03-05T15:15:03Z</time>
      </trkpt>
      <trkpt lat="38.3332800" lon="-0.6826000">
        <ele>269.0</ele>
        <time>2018-03-05T15:15:04Z</time>
      </trkpt>
      <trkpt lat="38.3332650" lon="-0.6826190">
        <ele>269.0</ele>
        <time>2018-03-05T15:15:05Z</time>
      </trkpt>
      <trkpt lat="38.3332450" lon="-0.6826460">
        <ele>268.0</ele>
        <time>2018-03-05T15:15:06Z</time>
      </trkpt>
      <trkpt lat="38.3332200" lon="-0.6826800">
        <ele>267.0</ele>
        <time>2018-03-05T15:15:07Z</time>
      </trkpt>
      <trkpt lat="38.3331940" lon="-0.6827170">
        <ele>266.0</ele>
        <time>2018-03-05T15:15:08Z</time>
      </trkpt>
      <trkpt lat="38.3331720" lon="-0.6827560">
        <ele>265.0</ele>
        <time>2018-03-05T15:15:09Z</time>
      </trkpt>
      <trkpt lat="38.3331470" lon="-0.6827880">
        <ele>264.0</ele>
        <time>2018-03-05T15:15:10Z</time>
      </trkpt>
      <trkpt lat="38.3331170" lon="-0.6828120">
        <ele>264.0</ele>
        <time>2018-03-05T15:15:11Z</time>
      </trkpt>
      <trkpt lat="38.3330860" lon="-0.6828430">
        <ele>263.0</ele>
        <time>2018-03-05T15:15:12Z</time>
      </trkpt>
      <trkpt lat="38.3330520" lon="-0.6828820">
        <ele>263.0</ele>
        <time>2018-03-05T15:15:13Z</time>
      </trkpt>
      <trkpt lat="38.3330170" lon="-0.6829260">
        <ele>262.0</ele>
        <time>2018-03-05T15:15:14Z</time>
      </trkpt>
      <trkpt lat="38.3329870" lon="-0.6829770">
        <ele>261.0</ele>
        <time>2018-03-05T15:15:15Z</time>
      </trkpt>
      <trkpt lat="38.3329590" lon="-0.6830320">
        <ele>260.0</ele>
        <time>2018-03-05T15:15:16Z</time>
      </trkpt>
      <trkpt lat="38.3329420" lon="-0.6830900">
        <ele>260.0</ele>
        <time>2018-03-05T15:15:17Z</time>
      </trkpt>
      <trkpt lat="38.3329290" lon="-0.6831510">
        <ele>260.0</ele>
        <time>2018-03-05T15:15:18Z</time>
      </trkpt>
      <trkpt lat="38.3329100" lon="-0.6831960">
        <ele>260.0</ele>
        <time>2018-03-05T15:15:19Z</time>
      </trkpt>
      <trkpt lat="38.3328870" lon="-0.6832400">
        <ele>259.0</ele>
        <time>2018-03-05T15:15:20Z</time>
      </trkpt>
      <trkpt lat="38.3328600" lon="-0.6832810">
        <ele>259.0</ele>
        <time>2018-03-05T15:15:21Z</time>
      </trkpt>
      <trkpt lat="38.3328350" lon="-0.6833260">
        <ele>259.0</ele>
        <time>2018-03-05T15:15:22Z</time>
      </trkpt>
      <trkpt lat="38.3328060" lon="-0.6833780">
        <ele>259.0</ele>
        <time>2018-03-05T15:15:23Z</time>
      </trkpt>
      <trkpt lat="38.3327810" lon="-0.6834290">
        <ele>259.0</ele>
        <time>2018-03-05T15:15:24Z</time>
      </trkpt>
      <trkpt lat="38.3327630" lon="-0.6834840">
        <ele>258.0</ele>
        <time>2018-03-05T15:15:25Z</time>
      </trkpt>
      <trkpt lat="38.3327360" lon="-0.6835380">
        <ele>257.0</ele>
        <time>2018-03-05T15:15:26Z</time>
      </trkpt>
      <trkpt lat="38.3326890" lon="-0.6835650">
        <ele>258.0</ele>
        <time>2018-03-05T15:15:27Z</time>
      </trkpt>
      <trkpt lat="38.3326390" lon="-0.6835900">
        <ele>257.0</ele>
        <time>2018-03-05T15:15:28Z</time>
      </trkpt>
      <trkpt lat="38.3325850" lon="-0.6836130">
        <ele>257.0</ele>
        <time>2018-03-05T15:15:29Z</time>
      </trkpt>
      <trkpt lat="38.3325460" lon="-0.6836340">
        <ele>257.0</ele>
        <time>2018-03-05T15:15:30Z</time>
      </trkpt>
      <trkpt lat="38.3325030" lon="-0.6836460">
        <ele>257.0</ele>
        <time>2018-03-05T15:15:31Z</time>
      </trkpt>
      <trkpt lat="38.3324600" lon="-0.6836590">
        <ele>256.0</ele>
        <time>2018-03-05T15:15:32Z</time>
      </trkpt>
      <trkpt lat="38.3324230" lon="-0.6836790">
        <ele>255.0</ele>
        <time>2018-03-05T15:15:33Z</time>
      </trkpt>
      <trkpt lat="38.3323970" lon="-0.6837220">
        <ele>254.0</ele>
        <time>2018-03-05T15:15:34Z</time>
      </trkpt>
      <trkpt lat="38.3323650" lon="-0.6837610">
        <ele>253.0</ele>
        <time>2018-03-05T15:15:35Z</time>
      </trkpt>
      <trkpt lat="38.3323450" lon="-0.6838130">
        <ele>252.0</ele>
        <time>2018-03-05T15:15:36Z</time>
      </trkpt>
      <trkpt lat="38.3323420" lon="-0.6838840">
        <ele>254.0</ele>
        <time>2018-03-05T15:15:37Z</time>
      </trkpt>
      <trkpt lat="38.3323380" lon="-0.6839450">
        <ele>255.0</ele>
        <time>2018-03-05T15:15:38Z</time>
      </trkpt>
      <trkpt lat="38.3323310" lon="-0.6839980">
        <ele>256.0</ele>
        <time>2018-03-05T15:15:39Z</time>
      </trkpt>
      <trkpt lat="38.3323210" lon="-0.6840490">
        <ele>256.0</ele>
        <time>2018-03-05T15:15:40Z</time>
      </trkpt>
      <trkpt lat="38.3323100" lon="-0.6840700">
        <ele>256.0</ele>
        <time>2018-03-05T15:15:41Z</time>
      </trkpt>
      <trkpt lat="38.3323040" lon="-0.6840950">
        <ele>256.0</ele>
        <time>2018-03-05T15:15:42Z</time>
      </trkpt>
      <trkpt lat="38.3322960" lon="-0.6841250">
        <ele>256.0</ele>
        <time>2018-03-05T15:15:43Z</time>
      </trkpt>
      <trkpt lat="38.3322870" lon="-0.6841550">
        <ele>257.0</ele>
        <time>2018-03-05T15:15:44Z</time>
      </trkpt>
      <trkpt lat="38.3322780" lon="-0.6841840">
        <ele>258.0</ele>
        <time>2018-03-05T15:15:45Z</time>
      </trkpt>
      <trkpt lat="38.3322740" lon="-0.6842090">
        <ele>259.0</ele>
        <time>2018-03-05T15:15:46Z</time>
      </trkpt>
      <trkpt lat="38.3322690" lon="-0.6842310">
        <ele>260.0</ele>
        <time>2018-03-05T15:15:47Z</time>
      </trkpt>
      <trkpt lat="38.3322660" lon="-0.6842500">
        <ele>260.0</ele>
        <time>2018-03-05T15:15:48Z</time>
      </trkpt>
      <trkpt lat="38.3322530" lon="-0.6842660">
        <ele>260.0</ele>
        <time>2018-03-05T15:15:49Z</time>
      </trkpt>
      <trkpt lat="38.3322420" lon="-0.6842620">
        <ele>259.0</ele>
        <time>2018-03-05T15:15:50Z</time>
      </trkpt>
      <trkpt lat="38.3322180" lon="-0.6842620">
        <ele>260.0</ele>
        <time>2018-03-05T15:15:51Z</time>
      </trkpt>
      <trkpt lat="38.3321980" lon="-0.6842640">
        <ele>260.0</ele>
        <time>2018-03-05T15:15:52Z</time>
      </trkpt>
      <trkpt lat="38.3321770" lon="-0.6842690">
        <ele>261.0</ele>
        <time>2018-03-05T15:15:53Z</time>
      </trkpt>
      <trkpt lat="38.3321530" lon="-0.6842720">
        <ele>261.0</ele>
        <time>2018-03-05T15:15:54Z</time>
      </trkpt>
      <trkpt lat="38.3321260" lon="-0.6842760">
        <ele>261.0</ele>
        <time>2018-03-05T15:15:55Z</time>
      </trkpt>
      <trkpt lat="38.3321000" lon="-0.6842760">
        <ele>261.0</ele>
        <time>2018-03-05T15:15:56Z</time>
      </trkpt>
      <trkpt lat="38.3320730" lon="-0.6842810">
        <ele>262.0</ele>
        <time>2018-03-05T15:15:57Z</time>
      </trkpt>
      <trkpt lat="38.3320460" lon="-0.6842830">
        <ele>262.0</ele>
        <time>2018-03-05T15:15:58Z</time>
      </trkpt>
      <trkpt lat="38.3320180" lon="-0.6842840">
        <ele>262.0</ele>
        <time>2018-03-05T15:15:59Z</time>
      </trkpt>
      <trkpt lat="38.3319890" lon="-0.6842830">
        <ele>262.0</ele>
        <time>2018-03-05T15:16:00Z</time>
      </trkpt>
      <trkpt lat="38.3319600" lon="-0.6842830">
        <ele>262.0</ele>
        <time>2018-03-05T15:16:01Z</time>
      </trkpt>
      <trkpt lat="38.3319280" lon="-0.6842880">
        <ele>262.0</ele>
        <time>2018-03-05T15:16:02Z</time>
      </trkpt>
      <trkpt lat="38.3318900" lon="-0.6842940">
        <ele>262.0</ele>
        <time>2018-03-05T15:16:03Z</time>
      </trkpt>
      <trkpt lat="38.3318510" lon="-0.6842970">
        <ele>262.0</ele>
        <time>2018-03-05T15:16:04Z</time>
      </trkpt>
      <trkpt lat="38.3318110" lon="-0.6843020">
        <ele>262.0</ele>
        <time>2018-03-05T15:16:05Z</time>
      </trkpt>
      <trkpt lat="38.3317710" lon="-0.6843070">
        <ele>262.0</ele>
        <time>2018-03-05T15:16:06Z</time>
      </trkpt>
      <trkpt lat="38.3317310" lon="-0.6843100">
        <ele>262.0</ele>
        <time>2018-03-05T15:16:07Z</time>
      </trkpt>
      <trkpt lat="38.3316910" lon="-0.6843140">
        <ele>262.0</ele>
        <time>2018-03-05T15:16:08Z</time>
      </trkpt>
      <trkpt lat="38.3316470" lon="-0.6843270">
        <ele>262.0</ele>
        <time>2018-03-05T15:16:09Z</time>
      </trkpt>
      <trkpt lat="38.3316030" lon="-0.6843320">
        <ele>262.0</ele>
        <time>2018-03-05T15:16:10Z</time>
      </trkpt>
      <trkpt lat="38.3315590" lon="-0.6843320">
        <ele>262.0</ele>
        <time>2018-03-05T15:16:11Z</time>
      </trkpt>
      <trkpt lat="38.3315150" lon="-0.6843300">
        <ele>262.0</ele>
        <time>2018-03-05T15:16:12Z</time>
      </trkpt>
      <trkpt lat="38.3314720" lon="-0.6843250">
        <ele>262.0</ele>
        <time>2018-03-05T15:16:13Z</time>
      </trkpt>
      <trkpt lat="38.3314280" lon="-0.6843140">
        <ele>262.0</ele>
        <time>2018-03-05T15:16:14Z</time>
      </trkpt>
      <trkpt lat="38.3313850" lon="-0.6842960">
        <ele>262.0</ele>
        <time>2018-03-05T15:16:15Z</time>
      </trkpt>
      <trkpt lat="38.3313410" lon="-0.6842750">
        <ele>262.0</ele>
        <time>2018-03-05T15:16:16Z</time>
      </trkpt>
      <trkpt lat="38.3312980" lon="-0.6842500">
        <ele>262.0</ele>
        <time>2018-03-05T15:16:17Z</time>
      </trkpt>
      <trkpt lat="38.3312560" lon="-0.6842210">
        <ele>262.0</ele>
        <time>2018-03-05T15:16:18Z</time>
      </trkpt>
      <trkpt lat="38.3312180" lon="-0.6841890">
        <ele>262.0</ele>
        <time>2018-03-05T15:16:19Z</time>
      </trkpt>
      <trkpt lat="38.3311780" lon="-0.6841550">
        <ele>262.0</ele>
        <time>2018-03-05T15:16:20Z</time>
      </trkpt>
      <trkpt lat="38.3311370" lon="-0.6841290">
        <ele>262.0</ele>
        <time>2018-03-05T15:16:21Z</time>
      </trkpt>
      <trkpt lat="38.3310980" lon="-0.6841080">
        <ele>262.0</ele>
        <time>2018-03-05T15:16:22Z</time>
      </trkpt>
      <trkpt lat="38.3310530" lon="-0.6840930">
        <ele>262.0</ele>
        <time>2018-03-05T15:16:23Z</time>
      </trkpt>
      <trkpt lat="38.3310130" lon="-0.6840880">
        <ele>261.0</ele>
        <time>2018-03-05T15:16:24Z</time>
      </trkpt>
      <trkpt lat="38.3309760" lon="-0.6840890">
        <ele>260.0</ele>
        <time>2018-03-05T15:16:25Z</time>
      </trkpt>
      <trkpt lat="38.3309490" lon="-0.6841050">
        <ele>260.0</ele>
        <time>2018-03-05T15:16:26Z</time>
      </trkpt>
      <trkpt lat="38.3309250" lon="-0.6841320">
        <ele>259.0</ele>
        <time>2018-03-05T15:16:27Z</time>
      </trkpt>
      <trkpt lat="38.3309200" lon="-0.6841700">
        <ele>259.0</ele>
        <time>2018-03-05T15:16:28Z</time>
      </trkpt>
      <trkpt lat="38.3309230" lon="-0.6842150">
        <ele>259.0</ele>
        <time>2018-03-05T15:16:29Z</time>
      </trkpt>
      <trkpt lat="38.3309300" lon="-0.6842610">
        <ele>259.0</ele>
        <time>2018-03-05T15:16:30Z</time>
      </trkpt>
      <trkpt lat="38.3309390" lon="-0.6843110">
        <ele>258.0</ele>
        <time>2018-03-05T15:16:31Z</time>
      </trkpt>
      <trkpt lat="38.3309460" lon="-0.6843640">
        <ele>258.0</ele>
        <time>2018-03-05T15:16:32Z</time>
      </trkpt>
      <trkpt lat="38.3309530" lon="-0.6844200">
        <ele>258.0</ele>
        <time>2018-03-05T15:16:33Z</time>
      </trkpt>
      <trkpt lat="38.3309560" lon="-0.6844740">
        <ele>259.0</ele>
        <time>2018-03-05T15:16:34Z</time>
      </trkpt>
      <trkpt lat="38.3309570" lon="-0.6845270">
        <ele>258.0</ele>
        <time>2018-03-05T15:16:35Z</time>
      </trkpt>
      <trkpt lat="38.3309550" lon="-0.6845830">
        <ele>258.0</ele>
        <time>2018-03-05T15:16:36Z</time>
      </trkpt>
      <trkpt lat="38.3309550" lon="-0.6846430">
        <ele>258.0</ele>
        <time>2018-03-05T15:16:37Z</time>
      </trkpt>
      <trkpt lat="38.3309590" lon="-0.6847010">
        <ele>258.0</ele>
        <time>2018-03-05T15:16:38Z</time>
      </trkpt>
      <trkpt lat="38.3309610" lon="-0.6847590">
        <ele>259.0</ele>
        <time>2018-03-05T15:16:39Z</time>
      </trkpt>
      <trkpt lat="38.3309660" lon="-0.6848180">
        <ele>259.0</ele>
        <time>2018-03-05T15:16:40Z</time>
      </trkpt>
      <trkpt lat="38.3309610" lon="-0.6848760">
        <ele>258.0</ele>
        <time>2018-03-05T15:16:41Z</time>
      </trkpt>
      <trkpt lat="38.3309360" lon="-0.6849200">
        <ele>258.0</ele>
        <time>2018-03-05T15:16:42Z</time>
      </trkpt>
      <trkpt lat="38.3309150" lon="-0.6849670">
        <ele>257.0</ele>
        <time>2018-03-05T15:16:43Z</time>
      </trkpt>
      <trkpt lat="38.3309070" lon="-0.6850180">
        <ele>258.0</ele>
        <time>2018-03-05T15:16:44Z</time>
      </trkpt>
      <trkpt lat="38.3309130" lon="-0.6850620">
        <ele>258.0</ele>
        <time>2018-03-05T15:16:45Z</time>
      </trkpt>
      <trkpt lat="38.3309160" lon="-0.6851180">
        <ele>257.0</ele>
        <time>2018-03-05T15:16:46Z</time>
      </trkpt>
      <trkpt lat="38.3309170" lon="-0.6851760">
        <ele>256.0</ele>
        <time>2018-03-05T15:16:47Z</time>
      </trkpt>
      <trkpt lat="38.3309170" lon="-0.6852400">
        <ele>256.0</ele>
        <time>2018-03-05T15:16:48Z</time>
      </trkpt>
      <trkpt lat="38.3309240" lon="-0.6853040">
        <ele>257.0</ele>
        <time>2018-03-05T15:16:49Z</time>
      </trkpt>
      <trkpt lat="38.3309300" lon="-0.6853670">
        <ele>257.0</ele>
        <time>2018-03-05T15:16:50Z</time>
      </trkpt>
      <trkpt lat="38.3309320" lon="-0.6854300">
        <ele>256.0</ele>
        <time>2018-03-05T15:16:51Z</time>
      </trkpt>
      <trkpt lat="38.3309280" lon="-0.6854950">
        <ele>255.0</ele>
        <time>2018-03-05T15:16:52Z</time>
      </trkpt>
      <trkpt lat="38.3309270" lon="-0.6855630">
        <ele>256.0</ele>
        <time>2018-03-05T15:16:53Z</time>
      </trkpt>
      <trkpt lat="38.3309320" lon="-0.6856260">
        <ele>256.0</ele>
        <time>2018-03-05T15:16:54Z</time>
      </trkpt>
      <trkpt lat="38.3309390" lon="-0.6856870">
        <ele>255.0</ele>
        <time>2018-03-05T15:16:55Z</time>
      </trkpt>
      <trkpt lat="38.3309430" lon="-0.6857550">
        <ele>254.0</ele>
        <time>2018-03-05T15:16:56Z</time>
      </trkpt>
      <trkpt lat="38.3309350" lon="-0.6858260">
        <ele>253.0</ele>
        <time>2018-03-05T15:16:57Z</time>
      </trkpt>
      <trkpt lat="38.3309290" lon="-0.6859130">
        <ele>253.0</ele>
        <time>2018-03-05T15:16:58Z</time>
      </trkpt>
      <trkpt lat="38.3309250" lon="-0.6859790">
        <ele>253.0</ele>
        <time>2018-03-05T15:16:59Z</time>
      </trkpt>
      <trkpt lat="38.3309300" lon="-0.6860250">
        <ele>253.0</ele>
        <time>2018-03-05T15:17:00Z</time>
      </trkpt>
      <trkpt lat="38.3309340" lon="-0.6860600">
        <ele>254.0</ele>
        <time>2018-03-05T15:17:01Z</time>
      </trkpt>
      <trkpt lat="38.3309340" lon="-0.6861040">
        <ele>253.0</ele>
        <time>2018-03-05T15:17:02Z</time>
      </trkpt>
      <trkpt lat="38.3309350" lon="-0.6861600">
        <ele>253.0</ele>
        <time>2018-03-05T15:17:03Z</time>
      </trkpt>
      <trkpt lat="38.3309370" lon="-0.6862200">
        <ele>253.0</ele>
        <time>2018-03-05T15:17:04Z</time>
      </trkpt>
      <trkpt lat="38.3309370" lon="-0.6862730">
        <ele>253.0</ele>
        <time>2018-03-05T15:17:05Z</time>
      </trkpt>
      <trkpt lat="38.3309380" lon="-0.6863130">
        <ele>253.0</ele>
        <time>2018-03-05T15:17:06Z</time>
      </trkpt>
      <trkpt lat="38.3309300" lon="-0.6863520">
        <ele>255.0</ele>
        <time>2018-03-05T15:17:07Z</time>
      </trkpt>
      <trkpt lat="38.3309260" lon="-0.6863830">
        <ele>256.0</ele>
        <time>2018-03-05T15:17:08Z</time>
      </trkpt>
      <trkpt lat="38.3309250" lon="-0.6864070">
        <ele>257.0</ele>
        <time>2018-03-05T15:17:09Z</time>
      </trkpt>
      <trkpt lat="38.3309210" lon="-0.6864310">
        <ele>258.0</ele>
        <time>2018-03-05T15:17:10Z</time>
      </trkpt>
      <trkpt lat="38.3309200" lon="-0.6864530">
        <ele>259.0</ele>
        <time>2018-03-05T15:17:11Z</time>
      </trkpt>
      <trkpt lat="38.3309200" lon="-0.6864750">
        <ele>259.0</ele>
        <time>2018-03-05T15:17:12Z</time>
      </trkpt>
      <trkpt lat="38.3309200" lon="-0.6864990">
        <ele>260.0</ele>
        <time>2018-03-05T15:17:13Z</time>
      </trkpt>
      <trkpt lat="38.3309210" lon="-0.6865240">
        <ele>260.0</ele>
        <time>2018-03-05T15:17:14Z</time>
      </trkpt>
      <trkpt lat="38.3309220" lon="-0.6865470">
        <ele>261.0</ele>
        <time>2018-03-05T15:17:15Z</time>
      </trkpt>
      <trkpt lat="38.3309240" lon="-0.6865680">
        <ele>261.0</ele>
        <time>2018-03-05T15:17:16Z</time>
      </trkpt>
      <trkpt lat="38.3309240" lon="-0.6865910">
        <ele>262.0</ele>
        <time>2018-03-05T15:17:17Z</time>
      </trkpt>
      <trkpt lat="38.3309240" lon="-0.6866110">
        <ele>262.0</ele>
        <time>2018-03-05T15:17:18Z</time>
      </trkpt>
      <trkpt lat="38.3309240" lon="-0.6866290">
        <ele>262.0</ele>
        <time>2018-03-05T15:17:19Z</time>
      </trkpt>
      <trkpt lat="38.3309240" lon="-0.6866460">
        <ele>263.0</ele>
        <time>2018-03-05T15:17:20Z</time>
      </trkpt>
      <trkpt lat="38.3309270" lon="-0.6866630">
        <ele>263.0</ele>
        <time>2018-03-05T15:17:21Z</time>
      </trkpt>
      <trkpt lat="38.3309290" lon="-0.6866850">
        <ele>263.0</ele>
        <time>2018-03-05T15:17:22Z</time>
      </trkpt>
      <trkpt lat="38.3309290" lon="-0.6867060">
        <ele>263.0</ele>
        <time>2018-03-05T15:17:23Z</time>
      </trkpt>
      <trkpt lat="38.3309300" lon="-0.6867290">
        <ele>263.0</ele>
        <time>2018-03-05T15:17:24Z</time>
      </trkpt>
      <trkpt lat="38.3309310" lon="-0.6867540">
        <ele>263.0</ele>
        <time>2018-03-05T15:17:25Z</time>
      </trkpt>
      <trkpt lat="38.3309320" lon="-0.6867760">
        <ele>263.0</ele>
        <time>2018-03-05T15:17:26Z</time>
      </trkpt>
      <trkpt lat="38.3309330" lon="-0.6867990">
        <ele>263.0</ele>
        <time>2018-03-05T15:17:27Z</time>
      </trkpt>
      <trkpt lat="38.3309340" lon="-0.6868220">
        <ele>263.0</ele>
        <time>2018-03-05T15:17:28Z</time>
      </trkpt>
      <trkpt lat="38.3309340" lon="-0.6868470">
        <ele>263.0</ele>
        <time>2018-03-05T15:17:29Z</time>
      </trkpt>
      <trkpt lat="38.3309350" lon="-0.6868770">
        <ele>263.0</ele>
        <time>2018-03-05T15:17:30Z</time>
      </trkpt>
      <trkpt lat="38.3309360" lon="-0.6869080">
        <ele>263.0</ele>
        <time>2018-03-05T15:17:31Z</time>
      </trkpt>
      <trkpt lat="38.3309320" lon="-0.6869400">
        <ele>263.0</ele>
        <time>2018-03-05T15:17:32Z</time>
      </trkpt>
      <trkpt lat="38.3309330" lon="-0.6869770">
        <ele>263.0</ele>
        <time>2018-03-05T15:17:33Z</time>
      </trkpt>
      <trkpt lat="38.3309330" lon="-0.6870190">
        <ele>263.0</ele>
        <time>2018-03-05T15:17:34Z</time>
      </trkpt>
      <trkpt lat="38.3309330" lon="-0.6870670">
        <ele>262.0</ele>
        <time>2018-03-05T15:17:35Z</time>
      </trkpt>
      <trkpt lat="38.3309330" lon="-0.6871250">
        <ele>262.0</ele>
        <time>2018-03-05T15:17:36Z</time>
      </trkpt>
      <trkpt lat="38.3309240" lon="-0.6871820">
        <ele>261.0</ele>
        <time>2018-03-05T15:17:37Z</time>
      </trkpt>
      <trkpt lat="38.3309280" lon="-0.6872500">
        <ele>260.0</ele>
        <time>2018-03-05T15:17:38Z</time>
      </trkpt>
      <trkpt lat="38.3309330" lon="-0.6873230">
        <ele>259.0</ele>
        <time>2018-03-05T15:17:39Z</time>
      </trkpt>
      <trkpt lat="38.3309250" lon="-0.6873970">
        <ele>258.0</ele>
        <time>2018-03-05T15:17:40Z</time>
      </trkpt>
      <trkpt lat="38.3309190" lon="-0.6874690">
        <ele>258.0</ele>
        <time>2018-03-05T15:17:41Z</time>
      </trkpt>
      <trkpt lat="38.3309180" lon="-0.6875320">
        <ele>258.0</ele>
        <time>2018-03-05T15:17:42Z</time>
      </trkpt>
      <trkpt lat="38.3309160" lon="-0.6875920">
        <ele>258.0</ele>
        <time>2018-03-05T15:17:43Z</time>
      </trkpt>
      <trkpt lat="38.3309190" lon="-0.6876450">
        <ele>259.0</ele>
        <time>2018-03-05T15:17:44Z</time>
      </trkpt>
      <trkpt lat="38.3309240" lon="-0.6876920">
        <ele>259.0</ele>
        <time>2018-03-05T15:17:45Z</time>
      </trkpt>
      <trkpt lat="38.3309270" lon="-0.6877390">
        <ele>259.0</ele>
        <time>2018-03-05T15:17:46Z</time>
      </trkpt>
      <trkpt lat="38.3309300" lon="-0.6877840">
        <ele>260.0</ele>
        <time>2018-03-05T15:17:47Z</time>
      </trkpt>
      <trkpt lat="38.3309320" lon="-0.6878310">
        <ele>260.0</ele>
        <time>2018-03-05T15:17:48Z</time>
      </trkpt>
      <trkpt lat="38.3309380" lon="-0.6878780">
        <ele>260.0</ele>
        <time>2018-03-05T15:17:49Z</time>
      </trkpt>
      <trkpt lat="38.3309380" lon="-0.6879290">
        <ele>259.0</ele>
        <time>2018-03-05T15:17:50Z</time>
      </trkpt>
      <trkpt lat="38.3309400" lon="-0.6879900">
        <ele>258.0</ele>
        <time>2018-03-05T15:17:51Z</time>
      </trkpt>
      <trkpt lat="38.3309460" lon="-0.6880560">
        <ele>258.0</ele>
        <time>2018-03-05T15:17:52Z</time>
      </trkpt>
      <trkpt lat="38.3309490" lon="-0.6881190">
        <ele>258.0</ele>
        <time>2018-03-05T15:17:53Z</time>
      </trkpt>
      <trkpt lat="38.3309500" lon="-0.6881780">
        <ele>259.0</ele>
        <time>2018-03-05T15:17:54Z</time>
      </trkpt>
      <trkpt lat="38.3309530" lon="-0.6882300">
        <ele>259.0</ele>
        <time>2018-03-05T15:17:55Z</time>
      </trkpt>
      <trkpt lat="38.3309560" lon="-0.6882770">
        <ele>259.0</ele>
        <time>2018-03-05T15:17:56Z</time>
      </trkpt>
      <trkpt lat="38.3309560" lon="-0.6883210">
        <ele>259.0</ele>
        <time>2018-03-05T15:17:57Z</time>
      </trkpt>
      <trkpt lat="38.3309580" lon="-0.6883580">
        <ele>260.0</ele>
        <time>2018-03-05T15:17:58Z</time>
      </trkpt>
      <trkpt lat="38.3309590" lon="-0.6883900">
        <ele>260.0</ele>
        <time>2018-03-05T15:17:59Z</time>
      </trkpt>
      <trkpt lat="38.3309610" lon="-0.6884220">
        <ele>261.0</ele>
        <time>2018-03-05T15:18:00Z</time>
      </trkpt>
      <trkpt lat="38.3309610" lon="-0.6884560">
        <ele>261.0</ele>
        <time>2018-03-05T15:18:01Z</time>
      </trkpt>
      <trkpt lat="38.3309620" lon="-0.6884920">
        <ele>261.0</ele>
        <time>2018-03-05T15:18:02Z</time>
      </trkpt>
      <trkpt lat="38.3309620" lon="-0.6885290">
        <ele>262.0</ele>
        <time>2018-03-05T15:18:03Z</time>
      </trkpt>
      <trkpt lat="38.3309620" lon="-0.6885660">
        <ele>262.0</ele>
        <time>2018-03-05T15:18:04Z</time>
      </trkpt>
      <trkpt lat="38.3309610" lon="-0.6886040">
        <ele>262.0</ele>
        <time>2018-03-05T15:18:05Z</time>
      </trkpt>
      <trkpt lat="38.3309610" lon="-0.6886400">
        <ele>262.0</ele>
        <time>2018-03-05T15:18:06Z</time>
      </trkpt>
      <trkpt lat="38.3309640" lon="-0.6886780">
        <ele>262.0</ele>
        <time>2018-03-05T15:18:07Z</time>
      </trkpt>
      <trkpt lat="38.3309660" lon="-0.6887170">
        <ele>262.0</ele>
        <time>2018-03-05T15:18:08Z</time>
      </trkpt>
      <trkpt lat="38.3309680" lon="-0.6887550">
        <ele>262.0</ele>
        <time>2018-03-05T15:18:09Z</time>
      </trkpt>
      <trkpt lat="38.3309670" lon="-0.6887970">
        <ele>262.0</ele>
        <time>2018-03-05T15:18:10Z</time>
      </trkpt>
      <trkpt lat="38.3309640" lon="-0.6888390">
        <ele>262.0</ele>
        <time>2018-03-05T15:18:11Z</time>
      </trkpt>
      <trkpt lat="38.3309430" lon="-0.6888680">
        <ele>262.0</ele>
        <time>2018-03-05T15:18:12Z</time>
      </trkpt>
      <trkpt lat="38.3309170" lon="-0.6888950">
        <ele>262.0</ele>
        <time>2018-03-05T15:18:13Z</time>
      </trkpt>
      <trkpt lat="38.3308860" lon="-0.6889190">
        <ele>262.0</ele>
        <time>2018-03-05T15:18:14Z</time>
      </trkpt>
      <trkpt lat="38.3308470" lon="-0.6889340">
        <ele>261.0</ele>
        <time>2018-03-05T15:18:15Z</time>
      </trkpt>
      <trkpt lat="38.3307980" lon="-0.6889450">
        <ele>261.0</ele>
        <time>2018-03-05T15:18:16Z</time>
      </trkpt>
      <trkpt lat="38.3307540" lon="-0.6889600">
        <ele>261.0</ele>
        <time>2018-03-05T15:18:17Z</time>
      </trkpt>
      <trkpt lat="38.3307180" lon="-0.6889740">
        <ele>262.0</ele>
        <time>2018-03-05T15:18:18Z</time>
      </trkpt>
      <trkpt lat="38.3306880" lon="-0.6889820">
        <ele>262.0</ele>
        <time>2018-03-05T15:18:19Z</time>
      </trkpt>
      <trkpt lat="38.3306630" lon="-0.6889890">
        <ele>262.0</ele>
        <time>2018-03-05T15:18:20Z</time>
      </trkpt>
      <trkpt lat="38.3306410" lon="-0.6889990">
        <ele>262.0</ele>
        <time>2018-03-05T15:18:21Z</time>
      </trkpt>
      <trkpt lat="38.3306180" lon="-0.6890070">
        <ele>263.0</ele>
        <time>2018-03-05T15:18:22Z</time>
      </trkpt>
      <trkpt lat="38.3305950" lon="-0.6890140">
        <ele>263.0</ele>
        <time>2018-03-05T15:18:23Z</time>
      </trkpt>
      <trkpt lat="38.3305740" lon="-0.6890160">
        <ele>263.0</ele>
        <time>2018-03-05T15:18:24Z</time>
      </trkpt>
      <trkpt lat="38.3305550" lon="-0.6890100">
        <ele>263.0</ele>
        <time>2018-03-05T15:18:25Z</time>
      </trkpt>
      <trkpt lat="38.3305340" lon="-0.6890060">
        <ele>264.0</ele>
        <time>2018-03-05T15:18:26Z</time>
      </trkpt>
      <trkpt lat="38.3305140" lon="-0.6890020">
        <ele>264.0</ele>
        <time>2018-03-05T15:18:27Z</time>
      </trkpt>
      <trkpt lat="38.3304960" lon="-0.6889970">
        <ele>264.0</ele>
        <time>2018-03-05T15:18:28Z</time>
      </trkpt>
      <trkpt lat="38.3304770" lon="-0.6889950">
        <ele>264.0</ele>
        <time>2018-03-05T15:18:29Z</time>
      </trkpt>
      <trkpt lat="38.3304640" lon="-0.6889990">
        <ele>264.0</ele>
        <time>2018-03-05T15:18:30Z</time>
      </trkpt>
      <trkpt lat="38.3304520" lon="-0.6890150">
        <ele>264.0</ele>
        <time>2018-03-05T15:18:31Z</time>
      </trkpt>
      <trkpt lat="38.3304550" lon="-0.6890380">
        <ele>264.0</ele>
        <time>2018-03-05T15:18:32Z</time>
      </trkpt>
      <trkpt lat="38.3304660" lon="-0.6890610">
        <ele>264.0</ele>
        <time>2018-03-05T15:18:33Z</time>
      </trkpt>
      <trkpt lat="38.3304800" lon="-0.6890860">
        <ele>264.0</ele>
        <time>2018-03-05T15:18:34Z</time>
      </trkpt>
      <trkpt lat="38.3304930" lon="-0.6891130">
        <ele>265.0</ele>
        <time>2018-03-05T15:18:35Z</time>
      </trkpt>
      <trkpt lat="38.3305000" lon="-0.6891440">
        <ele>265.0</ele>
        <time>2018-03-05T15:18:36Z</time>
      </trkpt>
      <trkpt lat="38.3305090" lon="-0.6891740">
        <ele>265.0</ele>
        <time>2018-03-05T15:18:37Z</time>
      </trkpt>
      <trkpt lat="38.3305090" lon="-0.6892040">
        <ele>265.0</ele>
        <time>2018-03-05T15:18:38Z</time>
      </trkpt>
      <trkpt lat="38.3305030" lon="-0.6892300">
        <ele>264.0</ele>
        <time>2018-03-05T15:18:39Z</time>
      </trkpt>
      <trkpt lat="38.3305390" lon="-0.6892010">
        <ele>266.0</ele>
        <time>2018-03-05T15:18:40Z</time>
      </trkpt>
      <trkpt lat="38.3305180" lon="-0.6891730">
        <ele>266.0</ele>
        <time>2018-03-05T15:18:41Z</time>
      </trkpt>
      <trkpt lat="38.3305000" lon="-0.6891390">
        <ele>266.0</ele>
        <time>2018-03-05T15:18:42Z</time>
      </trkpt>
      <trkpt lat="38.3304820" lon="-0.6890910">
        <ele>266.0</ele>
        <time>2018-03-05T15:18:43Z</time>
      </trkpt>
      <trkpt lat="38.3304610" lon="-0.6890390">
        <ele>266.0</ele>
        <time>2018-03-05T15:18:44Z</time>
      </trkpt>
      <trkpt lat="38.3304350" lon="-0.6889880">
        <ele>266.0</ele>
        <time>2018-03-05T15:18:45Z</time>
      </trkpt>
      <trkpt lat="38.3304050" lon="-0.6889400">
        <ele>266.0</ele>
        <time>2018-03-05T15:18:46Z</time>
      </trkpt>
      <trkpt lat="38.3303740" lon="-0.6888900">
        <ele>266.0</ele>
        <time>2018-03-05T15:18:47Z</time>
      </trkpt>
      <trkpt lat="38.3303420" lon="-0.6888400">
        <ele>265.0</ele>
        <time>2018-03-05T15:18:48Z</time>
      </trkpt>
      <trkpt lat="38.3303070" lon="-0.6887880">
        <ele>265.0</ele>
        <time>2018-03-05T15:18:49Z</time>
      </trkpt>
      <trkpt lat="38.3302710" lon="-0.6887340">
        <ele>265.0</ele>
        <time>2018-03-05T15:18:50Z</time>
      </trkpt>
      <trkpt lat="38.3302370" lon="-0.6886790">
        <ele>265.0</ele>
        <time>2018-03-05T15:18:51Z</time>
      </trkpt>
      <trkpt lat="38.3302020" lon="-0.6886240">
        <ele>265.0</ele>
        <time>2018-03-05T15:18:52Z</time>
      </trkpt>
      <trkpt lat="38.3301650" lon="-0.6885680">
        <ele>264.0</ele>
        <time>2018-03-05T15:18:53Z</time>
      </trkpt>
      <trkpt lat="38.3301290" lon="-0.6885110">
        <ele>264.0</ele>
        <time>2018-03-05T15:18:54Z</time>
      </trkpt>
      <trkpt lat="38.3300900" lon="-0.6884560">
        <ele>264.0</ele>
        <time>2018-03-05T15:18:55Z</time>
      </trkpt>
      <trkpt lat="38.3300500" lon="-0.6884010">
        <ele>264.0</ele>
        <time>2018-03-05T15:18:56Z</time>
      </trkpt>
      <trkpt lat="38.3300080" lon="-0.6883470">
        <ele>263.0</ele>
        <time>2018-03-05T15:18:57Z</time>
      </trkpt>
      <trkpt lat="38.3299650" lon="-0.6882930">
        <ele>263.0</ele>
        <time>2018-03-05T15:18:58Z</time>
      </trkpt>
      <trkpt lat="38.3299200" lon="-0.6882420">
        <ele>263.0</ele>
        <time>2018-03-05T15:18:59Z</time>
      </trkpt>
      <trkpt lat="38.3298720" lon="-0.6881890">
        <ele>263.0</ele>
        <time>2018-03-05T15:19:00Z</time>
      </trkpt>
      <trkpt lat="38.3298220" lon="-0.6881400">
        <ele>263.0</ele>
        <time>2018-03-05T15:19:01Z</time>
      </trkpt>
      <trkpt lat="38.3297710" lon="-0.6880950">
        <ele>263.0</ele>
        <time>2018-03-05T15:19:02Z</time>
      </trkpt>
      <trkpt lat="38.3297190" lon="-0.6880530">
        <ele>263.0</ele>
        <time>2018-03-05T15:19:03Z</time>
      </trkpt>
      <trkpt lat="38.3296650" lon="-0.6880110">
        <ele>263.0</ele>
        <time>2018-03-05T15:19:04Z</time>
      </trkpt>
      <trkpt lat="38.3296120" lon="-0.6879700">
        <ele>262.0</ele>
        <time>2018-03-05T15:19:05Z</time>
      </trkpt>
      <trkpt lat="38.3295560" lon="-0.6879290">
        <ele>262.0</ele>
        <time>2018-03-05T15:19:06Z</time>
      </trkpt>
      <trkpt lat="38.3295000" lon="-0.6878860">
        <ele>262.0</ele>
        <time>2018-03-05T15:19:07Z</time>
      </trkpt>
      <trkpt lat="38.3294430" lon="-0.6878410">
        <ele>262.0</ele>
        <time>2018-03-05T15:19:08Z</time>
      </trkpt>
      <trkpt lat="38.3293860" lon="-0.6877940">
        <ele>261.0</ele>
        <time>2018-03-05T15:19:09Z</time>
      </trkpt>
      <trkpt lat="38.3293240" lon="-0.6877450">
        <ele>260.0</ele>
        <time>2018-03-05T15:19:10Z</time>
      </trkpt>
      <trkpt lat="38.3292590" lon="-0.6876950">
        <ele>260.0</ele>
        <time>2018-03-05T15:19:11Z</time>
      </trkpt>
      <trkpt lat="38.3291940" lon="-0.6876440">
        <ele>259.0</ele>
        <time>2018-03-05T15:19:12Z</time>
      </trkpt>
      <trkpt lat="38.3291250" lon="-0.6875940">
        <ele>259.0</ele>
        <time>2018-03-05T15:19:13Z</time>
      </trkpt>
      <trkpt lat="38.3290540" lon="-0.6875430">
        <ele>258.0</ele>
        <time>2018-03-05T15:19:14Z</time>
      </trkpt>
      <trkpt lat="38.3289810" lon="-0.6874910">
        <ele>258.0</ele>
        <time>2018-03-05T15:19:15Z</time>
      </trkpt>
      <trkpt lat="38.3289070" lon="-0.6874370">
        <ele>257.0</ele>
        <time>2018-03-05T15:19:16Z</time>
      </trkpt>
      <trkpt lat="38.3288330" lon="-0.6873820">
        <ele>257.0</ele>
        <time>2018-03-05T15:19:17Z</time>
      </trkpt>
      <trkpt lat="38.3287610" lon="-0.6873250">
        <ele>256.0</ele>
        <time>2018-03-05T15:19:18Z</time>
      </trkpt>
      <trkpt lat="38.3286890" lon="-0.6872710">
        <ele>256.0</ele>
        <time>2018-03-05T15:19:19Z</time>
      </trkpt>
      <trkpt lat="38.3286180" lon="-0.6872170">
        <ele>256.0</ele>
        <time>2018-03-05T15:19:20Z</time>
      </trkpt>
      <trkpt lat="38.3285480" lon="-0.6871640">
        <ele>256.0</ele>
        <time>2018-03-05T15:19:21Z</time>
      </trkpt>
      <trkpt lat="38.3284800" lon="-0.6871110">
        <ele>256.0</ele>
        <time>2018-03-05T15:19:22Z</time>
      </trkpt>
      <trkpt lat="38.3284140" lon="-0.6870580">
        <ele>256.0</ele>
        <time>2018-03-05T15:19:23Z</time>
      </trkpt>
      <trkpt lat="38.3283490" lon="-0.6870040">
        <ele>256.0</ele>
        <time>2018-03-05T15:19:24Z</time>
      </trkpt>
      <trkpt lat="38.3282840" lon="-0.6869520">
        <ele>255.0</ele>
        <time>2018-03-05T15:19:25Z</time>
      </trkpt>
      <trkpt lat="38.3282180" lon="-0.6868990">
        <ele>255.0</ele>
        <time>2018-03-05T15:19:26Z</time>
      </trkpt>
      <trkpt lat="38.3281510" lon="-0.6868460">
        <ele>255.0</ele>
        <time>2018-03-05T15:19:27Z</time>
      </trkpt>
      <trkpt lat="38.3280820" lon="-0.6867920">
        <ele>254.0</ele>
        <time>2018-03-05T15:19:28Z</time>
      </trkpt>
      <trkpt lat="38.3280110" lon="-0.6867380">
        <ele>254.0</ele>
        <time>2018-03-05T15:19:29Z</time>
      </trkpt>
      <trkpt lat="38.3279380" lon="-0.6866830">
        <ele>253.0</ele>
        <time>2018-03-05T15:19:30Z</time>
      </trkpt>
      <trkpt lat="38.3278620" lon="-0.6866260">
        <ele>252.0</ele>
        <time>2018-03-05T15:19:31Z</time>
      </trkpt>
      <trkpt lat="38.3277860" lon="-0.6865680">
        <ele>252.0</ele>
        <time>2018-03-05T15:19:32Z</time>
      </trkpt>
      <trkpt lat="38.3277090" lon="-0.6865080">
        <ele>252.0</ele>
        <time>2018-03-05T15:19:33Z</time>
      </trkpt>
      <trkpt lat="38.3276320" lon="-0.6864490">
        <ele>251.0</ele>
        <time>2018-03-05T15:19:34Z</time>
      </trkpt>
      <trkpt lat="38.3275550" lon="-0.6863900">
        <ele>251.0</ele>
        <time>2018-03-05T15:19:35Z</time>
      </trkpt>
      <trkpt lat="38.3274780" lon="-0.6863300">
        <ele>250.0</ele>
        <time>2018-03-05T15:19:36Z</time>
      </trkpt>
      <trkpt lat="38.3274010" lon="-0.6862730">
        <ele>250.0</ele>
        <time>2018-03-05T15:19:37Z</time>
      </trkpt>
      <trkpt lat="38.3273230" lon="-0.6862170">
        <ele>249.0</ele>
        <time>2018-03-05T15:19:38Z</time>
      </trkpt>
      <trkpt lat="38.3272440" lon="-0.6861610">
        <ele>249.0</ele>
        <time>2018-03-05T15:19:39Z</time>
      </trkpt>
      <trkpt lat="38.3271660" lon="-0.6861030">
        <ele>248.0</ele>
        <time>2018-03-05T15:19:40Z</time>
      </trkpt>
      <trkpt lat="38.3270880" lon="-0.6860440">
        <ele>248.0</ele>
        <time>2018-03-05T15:19:41Z</time>
      </trkpt>
      <trkpt lat="38.3270090" lon="-0.6859830">
        <ele>247.0</ele>
        <time>2018-03-05T15:19:42Z</time>
      </trkpt>
      <trkpt lat="38.3269280" lon="-0.6859210">
        <ele>247.0</ele>
        <time>2018-03-05T15:19:43Z</time>
      </trkpt>
      <trkpt lat="38.3268470" lon="-0.6858590">
        <ele>246.0</ele>
        <time>2018-03-05T15:19:44Z</time>
      </trkpt>
      <trkpt lat="38.3267650" lon="-0.6857930">
        <ele>246.0</ele>
        <time>2018-03-05T15:19:45Z</time>
      </trkpt>
      <trkpt lat="38.3266830" lon="-0.6857280">
        <ele>245.0</ele>
        <time>2018-03-05T15:19:46Z</time>
      </trkpt>
      <trkpt lat="38.3265990" lon="-0.6856640">
        <ele>244.0</ele>
        <time>2018-03-05T15:19:47Z</time>
      </trkpt>
      <trkpt lat="38.3265150" lon="-0.6855990">
        <ele>244.0</ele>
        <time>2018-03-05T15:19:48Z</time>
      </trkpt>
      <trkpt lat="38.3264290" lon="-0.6855340">
        <ele>243.0</ele>
        <time>2018-03-05T15:19:49Z</time>
      </trkpt>
      <trkpt lat="38.3263410" lon="-0.6854680">
        <ele>242.0</ele>
        <time>2018-03-05T15:19:50Z</time>
      </trkpt>
      <trkpt lat="38.3262530" lon="-0.6854010">
        <ele>241.0</ele>
        <time>2018-03-05T15:19:51Z</time>
      </trkpt>
      <trkpt lat="38.3261610" lon="-0.6853350">
        <ele>241.0</ele>
        <time>2018-03-05T15:19:52Z</time>
      </trkpt>
      <trkpt lat="38.3260690" lon="-0.6852670">
        <ele>240.0</ele>
        <time>2018-03-05T15:19:53Z</time>
      </trkpt>
      <trkpt lat="38.3259780" lon="-0.6851990">
        <ele>239.0</ele>
        <time>2018-03-05T15:19:54Z</time>
      </trkpt>
      <trkpt lat="38.3258860" lon="-0.6851290">
        <ele>239.0</ele>
        <time>2018-03-05T15:19:55Z</time>
      </trkpt>
      <trkpt lat="38.3257940" lon="-0.6850590">
        <ele>238.0</ele>
        <time>2018-03-05T15:19:56Z</time>
      </trkpt>
      <trkpt lat="38.3257030" lon="-0.6849890">
        <ele>237.0</ele>
        <time>2018-03-05T15:19:57Z</time>
      </trkpt>
      <trkpt lat="38.3256110" lon="-0.6849180">
        <ele>237.0</ele>
        <time>2018-03-05T15:19:58Z</time>
      </trkpt>
      <trkpt lat="38.3255230" lon="-0.6848450">
        <ele>237.0</ele>
        <time>2018-03-05T15:19:59Z</time>
      </trkpt>
      <trkpt lat="38.3254350" lon="-0.6847760">
        <ele>236.0</ele>
        <time>2018-03-05T15:20:00Z</time>
      </trkpt>
      <trkpt lat="38.3253480" lon="-0.6847080">
        <ele>236.0</ele>
        <time>2018-03-05T15:20:01Z</time>
      </trkpt>
      <trkpt lat="38.3252630" lon="-0.6846440">
        <ele>235.0</ele>
        <time>2018-03-05T15:20:02Z</time>
      </trkpt>
      <trkpt lat="38.3251800" lon="-0.6845830">
        <ele>235.0</ele>
        <time>2018-03-05T15:20:03Z</time>
      </trkpt>
      <trkpt lat="38.3251000" lon="-0.6845200">
        <ele>235.0</ele>
        <time>2018-03-05T15:20:04Z</time>
      </trkpt>
      <trkpt lat="38.3250200" lon="-0.6844570">
        <ele>234.0</ele>
        <time>2018-03-05T15:20:05Z</time>
      </trkpt>
      <trkpt lat="38.3249390" lon="-0.6843960">
        <ele>233.0</ele>
        <time>2018-03-05T15:20:06Z</time>
      </trkpt>
      <trkpt lat="38.3248580" lon="-0.6843340">
        <ele>233.0</ele>
        <time>2018-03-05T15:20:07Z</time>
      </trkpt>
      <trkpt lat="38.3247760" lon="-0.6842720">
        <ele>232.0</ele>
        <time>2018-03-05T15:20:08Z</time>
      </trkpt>
      <trkpt lat="38.3246950" lon="-0.6842100">
        <ele>232.0</ele>
        <time>2018-03-05T15:20:09Z</time>
      </trkpt>
      <trkpt lat="38.3246110" lon="-0.6841480">
        <ele>231.0</ele>
        <time>2018-03-05T15:20:10Z</time>
      </trkpt>
      <trkpt lat="38.3245270" lon="-0.6840830">
        <ele>230.0</ele>
        <time>2018-03-05T15:20:11Z</time>
      </trkpt>
      <trkpt lat="38.3244450" lon="-0.6840110">
        <ele>230.0</ele>
        <time>2018-03-05T15:20:12Z</time>
      </trkpt>
      <trkpt lat="38.3243650" lon="-0.6839370">
        <ele>229.0</ele>
        <time>2018-03-05T15:20:13Z</time>
      </trkpt>
      <trkpt lat="38.3242830" lon="-0.6838660">
        <ele>229.0</ele>
        <time>2018-03-05T15:20:14Z</time>
      </trkpt>
      <trkpt lat="38.3241990" lon="-0.6837990">
        <ele>228.0</ele>
        <time>2018-03-05T15:20:15Z</time>
      </trkpt>
      <trkpt lat="38.3241130" lon="-0.6837350">
        <ele>227.0</ele>
        <time>2018-03-05T15:20:16Z</time>
      </trkpt>
      <trkpt lat="38.3240260" lon="-0.6836700">
        <ele>226.0</ele>
        <time>2018-03-05T15:20:17Z</time>
      </trkpt>
      <trkpt lat="38.3239380" lon="-0.6836050">
        <ele>226.0</ele>
        <time>2018-03-05T15:20:18Z</time>
      </trkpt>
      <trkpt lat="38.3238500" lon="-0.6835400">
        <ele>225.0</ele>
        <time>2018-03-05T15:20:19Z</time>
      </trkpt>
      <trkpt lat="38.3237610" lon="-0.6834730">
        <ele>224.0</ele>
        <time>2018-03-05T15:20:20Z</time>
      </trkpt>
      <trkpt lat="38.3236710" lon="-0.6834060">
        <ele>224.0</ele>
        <time>2018-03-05T15:20:21Z</time>
      </trkpt>
      <trkpt lat="38.3235820" lon="-0.6833380">
        <ele>223.0</ele>
        <time>2018-03-05T15:20:22Z</time>
      </trkpt>
      <trkpt lat="38.3234930" lon="-0.6832700">
        <ele>222.0</ele>
        <time>2018-03-05T15:20:23Z</time>
      </trkpt>
      <trkpt lat="38.3234040" lon="-0.6832040">
        <ele>222.0</ele>
        <time>2018-03-05T15:20:24Z</time>
      </trkpt>
      <trkpt lat="38.3233160" lon="-0.6831370">
        <ele>221.0</ele>
        <time>2018-03-05T15:20:25Z</time>
      </trkpt>
      <trkpt lat="38.3232280" lon="-0.6830700">
        <ele>221.0</ele>
        <time>2018-03-05T15:20:26Z</time>
      </trkpt>
      <trkpt lat="38.3231410" lon="-0.6830030">
        <ele>220.0</ele>
        <time>2018-03-05T15:20:27Z</time>
      </trkpt>
      <trkpt lat="38.3230550" lon="-0.6829350">
        <ele>220.0</ele>
        <time>2018-03-05T15:20:28Z</time>
      </trkpt>
      <trkpt lat="38.3229710" lon="-0.6828660">
        <ele>220.0</ele>
        <time>2018-03-05T15:20:29Z</time>
      </trkpt>
      <trkpt lat="38.3228880" lon="-0.6828020">
        <ele>220.0</ele>
        <time>2018-03-05T15:20:30Z</time>
      </trkpt>
      <trkpt lat="38.3228060" lon="-0.6827410">
        <ele>220.0</ele>
        <time>2018-03-05T15:20:31Z</time>
      </trkpt>
      <trkpt lat="38.3227270" lon="-0.6826820">
        <ele>220.0</ele>
        <time>2018-03-05T15:20:32Z</time>
      </trkpt>
      <trkpt lat="38.3226510" lon="-0.6826270">
        <ele>220.0</ele>
        <time>2018-03-05T15:20:33Z</time>
      </trkpt>
      <trkpt lat="38.3225820" lon="-0.6825770">
        <ele>221.0</ele>
        <time>2018-03-05T15:20:34Z</time>
      </trkpt>
      <trkpt lat="38.3225150" lon="-0.6825320">
        <ele>221.0</ele>
        <time>2018-03-05T15:20:35Z</time>
      </trkpt>
      <trkpt lat="38.3224530" lon="-0.6824900">
        <ele>221.0</ele>
        <time>2018-03-05T15:20:36Z</time>
      </trkpt>
      <trkpt lat="38.3223950" lon="-0.6824510">
        <ele>221.0</ele>
        <time>2018-03-05T15:20:37Z</time>
      </trkpt>
      <trkpt lat="38.3223390" lon="-0.6824170">
        <ele>221.0</ele>
        <time>2018-03-05T15:20:38Z</time>
      </trkpt>
      <trkpt lat="38.3222820" lon="-0.6823870">
        <ele>221.0</ele>
        <time>2018-03-05T15:20:39Z</time>
      </trkpt>
      <trkpt lat="38.3222260" lon="-0.6823580">
        <ele>221.0</ele>
        <time>2018-03-05T15:20:40Z</time>
      </trkpt>
      <trkpt lat="38.3221700" lon="-0.6823290">
        <ele>221.0</ele>
        <time>2018-03-05T15:20:41Z</time>
      </trkpt>
      <trkpt lat="38.3221130" lon="-0.6823010">
        <ele>221.0</ele>
        <time>2018-03-05T15:20:42Z</time>
      </trkpt>
      <trkpt lat="38.3220530" lon="-0.6822730">
        <ele>220.0</ele>
        <time>2018-03-05T15:20:43Z</time>
      </trkpt>
      <trkpt lat="38.3219910" lon="-0.6822420">
        <ele>220.0</ele>
        <time>2018-03-05T15:20:44Z</time>
      </trkpt>
      <trkpt lat="38.3219250" lon="-0.6822080">
        <ele>219.0</ele>
        <time>2018-03-05T15:20:45Z</time>
      </trkpt>
      <trkpt lat="38.3218540" lon="-0.6821740">
        <ele>218.0</ele>
        <time>2018-03-05T15:20:46Z</time>
      </trkpt>
      <trkpt lat="38.3217810" lon="-0.6821380">
        <ele>217.0</ele>
        <time>2018-03-05T15:20:47Z</time>
      </trkpt>
      <trkpt lat="38.3217050" lon="-0.6821020">
        <ele>217.0</ele>
        <time>2018-03-05T15:20:48Z</time>
      </trkpt>
      <trkpt lat="38.3216260" lon="-0.6820650">
        <ele>216.0</ele>
        <time>2018-03-05T15:20:49Z</time>
      </trkpt>
      <trkpt lat="38.3215470" lon="-0.6820250">
        <ele>215.0</ele>
        <time>2018-03-05T15:20:50Z</time>
      </trkpt>
      <trkpt lat="38.3214670" lon="-0.6819830">
        <ele>215.0</ele>
        <time>2018-03-05T15:20:51Z</time>
      </trkpt>
      <trkpt lat="38.3213860" lon="-0.6819530">
        <ele>215.0</ele>
        <time>2018-03-05T15:20:52Z</time>
      </trkpt>
      <trkpt lat="38.3213020" lon="-0.6819530">
        <ele>214.0</ele>
        <time>2018-03-05T15:20:53Z</time>
      </trkpt>
      <trkpt lat="38.3212280" lon="-0.6819870">
        <ele>213.0</ele>
        <time>2018-03-05T15:20:54Z</time>
      </trkpt>
      <trkpt lat="38.3211670" lon="-0.6820500">
        <ele>213.0</ele>
        <time>2018-03-05T15:20:55Z</time>
      </trkpt>
      <trkpt lat="38.3211220" lon="-0.6821320">
        <ele>212.0</ele>
        <time>2018-03-05T15:20:56Z</time>
      </trkpt>
      <trkpt lat="38.3210820" lon="-0.6822180">
        <ele>212.0</ele>
        <time>2018-03-05T15:20:57Z</time>
      </trkpt>
      <trkpt lat="38.3210430" lon="-0.6823050">
        <ele>212.0</ele>
        <time>2018-03-05T15:20:58Z</time>
      </trkpt>
      <trkpt lat="38.3210020" lon="-0.6823930">
        <ele>212.0</ele>
        <time>2018-03-05T15:20:59Z</time>
      </trkpt>
      <trkpt lat="38.3209620" lon="-0.6824780">
        <ele>212.0</ele>
        <time>2018-03-05T15:21:00Z</time>
      </trkpt>
      <trkpt lat="38.3209200" lon="-0.6825570">
        <ele>212.0</ele>
        <time>2018-03-05T15:21:01Z</time>
      </trkpt>
      <trkpt lat="38.3208790" lon="-0.6826360">
        <ele>212.0</ele>
        <time>2018-03-05T15:21:02Z</time>
      </trkpt>
      <trkpt lat="38.3208400" lon="-0.6827110">
        <ele>212.0</ele>
        <time>2018-03-05T15:21:03Z</time>
      </trkpt>
      <trkpt lat="38.3208020" lon="-0.6827830">
        <ele>212.0</ele>
        <time>2018-03-05T15:21:04Z</time>
      </trkpt>
      <trkpt lat="38.3207670" lon="-0.6828540">
        <ele>212.0</ele>
        <time>2018-03-05T15:21:05Z</time>
      </trkpt>
      <trkpt lat="38.3207350" lon="-0.6829200">
        <ele>213.0</ele>
        <time>2018-03-05T15:21:06Z</time>
      </trkpt>
      <trkpt lat="38.3207030" lon="-0.6829820">
        <ele>213.0</ele>
        <time>2018-03-05T15:21:07Z</time>
      </trkpt>
      <trkpt lat="38.3206700" lon="-0.6830410">
        <ele>213.0</ele>
        <time>2018-03-05T15:21:08Z</time>
      </trkpt>
      <trkpt lat="38.3206420" lon="-0.6831010">
        <ele>214.0</ele>
        <time>2018-03-05T15:21:09Z</time>
      </trkpt>
      <trkpt lat="38.3206190" lon="-0.6831620">
        <ele>214.0</ele>
        <time>2018-03-05T15:21:10Z</time>
      </trkpt>
      <trkpt lat="38.3206010" lon="-0.6832240">
        <ele>215.0</ele>
        <time>2018-03-05T15:21:11Z</time>
      </trkpt>
      <trkpt lat="38.3205860" lon="-0.6832830">
        <ele>215.0</ele>
        <time>2018-03-05T15:21:12Z</time>
      </trkpt>
      <trkpt lat="38.3205740" lon="-0.6833430">
        <ele>216.0</ele>
        <time>2018-03-05T15:21:13Z</time>
      </trkpt>
      <trkpt lat="38.3205660" lon="-0.6834040">
        <ele>216.0</ele>
        <time>2018-03-05T15:21:14Z</time>
      </trkpt>
      <trkpt lat="38.3205600" lon="-0.6834640">
        <ele>216.0</ele>
        <time>2018-03-05T15:21:15Z</time>
      </trkpt>
      <trkpt lat="38.3205560" lon="-0.6835280">
        <ele>216.0</ele>
        <time>2018-03-05T15:21:16Z</time>
      </trkpt>
      <trkpt lat="38.3205530" lon="-0.6835910">
        <ele>217.0</ele>
        <time>2018-03-05T15:21:17Z</time>
      </trkpt>
      <trkpt lat="38.3205500" lon="-0.6836540">
        <ele>217.0</ele>
        <time>2018-03-05T15:21:18Z</time>
      </trkpt>
      <trkpt lat="38.3205410" lon="-0.6837180">
        <ele>217.0</ele>
        <time>2018-03-05T15:21:19Z</time>
      </trkpt>
      <trkpt lat="38.3205300" lon="-0.6837810">
        <ele>217.0</ele>
        <time>2018-03-05T15:21:20Z</time>
      </trkpt>
      <trkpt lat="38.3205210" lon="-0.6838460">
        <ele>217.0</ele>
        <time>2018-03-05T15:21:21Z</time>
      </trkpt>
      <trkpt lat="38.3205110" lon="-0.6839120">
        <ele>217.0</ele>
        <time>2018-03-05T15:21:22Z</time>
      </trkpt>
      <trkpt lat="38.3205020" lon="-0.6839770">
        <ele>217.0</ele>
        <time>2018-03-05T15:21:23Z</time>
      </trkpt>
      <trkpt lat="38.3204930" lon="-0.6840440">
        <ele>217.0</ele>
        <time>2018-03-05T15:21:24Z</time>
      </trkpt>
      <trkpt lat="38.3204840" lon="-0.6841100">
        <ele>217.0</ele>
        <time>2018-03-05T15:21:25Z</time>
      </trkpt>
      <trkpt lat="38.3204760" lon="-0.6841760">
        <ele>218.0</ele>
        <time>2018-03-05T15:21:26Z</time>
      </trkpt>
      <trkpt lat="38.3204700" lon="-0.6842440">
        <ele>218.0</ele>
        <time>2018-03-05T15:21:27Z</time>
      </trkpt>
      <trkpt lat="38.3204620" lon="-0.6843130">
        <ele>218.0</ele>
        <time>2018-03-05T15:21:28Z</time>
      </trkpt>
      <trkpt lat="38.3204570" lon="-0.6843810">
        <ele>218.0</ele>
        <time>2018-03-05T15:21:29Z</time>
      </trkpt>
      <trkpt lat="38.3204520" lon="-0.6844490">
        <ele>218.0</ele>
        <time>2018-03-05T15:21:30Z</time>
      </trkpt>
      <trkpt lat="38.3204450" lon="-0.6845150">
        <ele>219.0</ele>
        <time>2018-03-05T15:21:31Z</time>
      </trkpt>
      <trkpt lat="38.3204390" lon="-0.6845810">
        <ele>219.0</ele>
        <time>2018-03-05T15:21:32Z</time>
      </trkpt>
      <trkpt lat="38.3204330" lon="-0.6846480">
        <ele>219.0</ele>
        <time>2018-03-05T15:21:33Z</time>
      </trkpt>
      <trkpt lat="38.3204270" lon="-0.6847150">
        <ele>219.0</ele>
        <time>2018-03-05T15:21:34Z</time>
      </trkpt>
      <trkpt lat="38.3204200" lon="-0.6847810">
        <ele>220.0</ele>
        <time>2018-03-05T15:21:35Z</time>
      </trkpt>
      <trkpt lat="38.3204110" lon="-0.6848450">
        <ele>220.0</ele>
        <time>2018-03-05T15:21:36Z</time>
      </trkpt>
      <trkpt lat="38.3204020" lon="-0.6849070">
        <ele>220.0</ele>
        <time>2018-03-05T15:21:37Z</time>
      </trkpt>
      <trkpt lat="38.3203930" lon="-0.6849690">
        <ele>221.0</ele>
        <time>2018-03-05T15:21:38Z</time>
      </trkpt>
      <trkpt lat="38.3203850" lon="-0.6850240">
        <ele>222.0</ele>
        <time>2018-03-05T15:21:39Z</time>
      </trkpt>
      <trkpt lat="38.3203750" lon="-0.6850770">
        <ele>222.0</ele>
        <time>2018-03-05T15:21:40Z</time>
      </trkpt>
      <trkpt lat="38.3203650" lon="-0.6851270">
        <ele>222.0</ele>
        <time>2018-03-05T15:21:41Z</time>
      </trkpt>
      <trkpt lat="38.3203540" lon="-0.6851760">
        <ele>223.0</ele>
        <time>2018-03-05T15:21:42Z</time>
      </trkpt>
      <trkpt lat="38.3203460" lon="-0.6852250">
        <ele>223.0</ele>
        <time>2018-03-05T15:21:43Z</time>
      </trkpt>
      <trkpt lat="38.3203390" lon="-0.6852730">
        <ele>223.0</ele>
        <time>2018-03-05T15:21:44Z</time>
      </trkpt>
      <trkpt lat="38.3203340" lon="-0.6853220">
        <ele>223.0</ele>
        <time>2018-03-05T15:21:45Z</time>
      </trkpt>
      <trkpt lat="38.3203260" lon="-0.6853700">
        <ele>224.0</ele>
        <time>2018-03-05T15:21:46Z</time>
      </trkpt>
      <trkpt lat="38.3203170" lon="-0.6854180">
        <ele>224.0</ele>
        <time>2018-03-05T15:21:47Z</time>
      </trkpt>
      <trkpt lat="38.3203070" lon="-0.6854640">
        <ele>224.0</ele>
        <time>2018-03-05T15:21:48Z</time>
      </trkpt>
      <trkpt lat="38.3202990" lon="-0.6855110">
        <ele>224.0</ele>
        <time>2018-03-05T15:21:49Z</time>
      </trkpt>
      <trkpt lat="38.3202920" lon="-0.6855590">
        <ele>225.0</ele>
        <time>2018-03-05T15:21:50Z</time>
      </trkpt>
      <trkpt lat="38.3202840" lon="-0.6856080">
        <ele>225.0</ele>
        <time>2018-03-05T15:21:51Z</time>
      </trkpt>
      <trkpt lat="38.3202770" lon="-0.6856570">
        <ele>225.0</ele>
        <time>2018-03-05T15:21:52Z</time>
      </trkpt>
      <trkpt lat="38.3202690" lon="-0.6857050">
        <ele>225.0</ele>
        <time>2018-03-05T15:21:53Z</time>
      </trkpt>
      <trkpt lat="38.3202600" lon="-0.6857530">
        <ele>226.0</ele>
        <time>2018-03-05T15:21:54Z</time>
      </trkpt>
      <trkpt lat="38.3202490" lon="-0.6857990">
        <ele>226.0</ele>
        <time>2018-03-05T15:21:55Z</time>
      </trkpt>
      <trkpt lat="38.3202400" lon="-0.6858460">
        <ele>226.0</ele>
        <time>2018-03-05T15:21:56Z</time>
      </trkpt>
      <trkpt lat="38.3202350" lon="-0.6858930">
        <ele>226.0</ele>
        <time>2018-03-05T15:21:57Z</time>
      </trkpt>
      <trkpt lat="38.3202290" lon="-0.6859400">
        <ele>226.0</ele>
        <time>2018-03-05T15:21:58Z</time>
      </trkpt>
      <trkpt lat="38.3202220" lon="-0.6859860">
        <ele>226.0</ele>
        <time>2018-03-05T15:21:59Z</time>
      </trkpt>
      <trkpt lat="38.3202110" lon="-0.6860310">
        <ele>226.0</ele>
        <time>2018-03-05T15:22:00Z</time>
      </trkpt>
      <trkpt lat="38.3201990" lon="-0.6860760">
        <ele>227.0</ele>
        <time>2018-03-05T15:22:01Z</time>
      </trkpt>
      <trkpt lat="38.3201880" lon="-0.6861200">
        <ele>227.0</ele>
        <time>2018-03-05T15:22:02Z</time>
      </trkpt>
      <trkpt lat="38.3201770" lon="-0.6861650">
        <ele>227.0</ele>
        <time>2018-03-05T15:22:03Z</time>
      </trkpt>
      <trkpt lat="38.3201650" lon="-0.6862090">
        <ele>227.0</ele>
        <time>2018-03-05T15:22:04Z</time>
      </trkpt>
      <trkpt lat="38.3201530" lon="-0.6862550">
        <ele>227.0</ele>
        <time>2018-03-05T15:22:05Z</time>
      </trkpt>
      <trkpt lat="38.3201420" lon="-0.6863010">
        <ele>227.0</ele>
        <time>2018-03-05T15:22:06Z</time>
      </trkpt>
      <trkpt lat="38.3201330" lon="-0.6863490">
        <ele>228.0</ele>
        <time>2018-03-05T15:22:07Z</time>
      </trkpt>
      <trkpt lat="38.3201250" lon="-0.6863970">
        <ele>228.0</ele>
        <time>2018-03-05T15:22:08Z</time>
      </trkpt>
      <trkpt lat="38.3201140" lon="-0.6864430">
        <ele>228.0</ele>
        <time>2018-03-05T15:22:09Z</time>
      </trkpt>
      <trkpt lat="38.3201020" lon="-0.6864890">
        <ele>228.0</ele>
        <time>2018-03-05T15:22:10Z</time>
      </trkpt>
      <trkpt lat="38.3200920" lon="-0.6865380">
        <ele>228.0</ele>
        <time>2018-03-05T15:22:11Z</time>
      </trkpt>
      <trkpt lat="38.3200830" lon="-0.6865880">
        <ele>228.0</ele>
        <time>2018-03-05T15:22:12Z</time>
      </trkpt>
      <trkpt lat="38.3200730" lon="-0.6866380">
        <ele>228.0</ele>
        <time>2018-03-05T15:22:13Z</time>
      </trkpt>
      <trkpt lat="38.3200630" lon="-0.6866880">
        <ele>228.0</ele>
        <time>2018-03-05T15:22:14Z</time>
      </trkpt>
      <trkpt lat="38.3200560" lon="-0.6867380">
        <ele>228.0</ele>
        <time>2018-03-05T15:22:15Z</time>
      </trkpt>
      <trkpt lat="38.3200480" lon="-0.6867890">
        <ele>228.0</ele>
        <time>2018-03-05T15:22:16Z</time>
      </trkpt>
      <trkpt lat="38.3200440" lon="-0.6868420">
        <ele>229.0</ele>
        <time>2018-03-05T15:22:17Z</time>
      </trkpt>
      <trkpt lat="38.3200410" lon="-0.6868930">
        <ele>229.0</ele>
        <time>2018-03-05T15:22:18Z</time>
      </trkpt>
      <trkpt lat="38.3200380" lon="-0.6869450">
        <ele>229.0</ele>
        <time>2018-03-05T15:22:19Z</time>
      </trkpt>
      <trkpt lat="38.3200330" lon="-0.6869980">
        <ele>229.0</ele>
        <time>2018-03-05T15:22:20Z</time>
      </trkpt>
      <trkpt lat="38.3200290" lon="-0.6870510">
        <ele>229.0</ele>
        <time>2018-03-05T15:22:21Z</time>
      </trkpt>
      <trkpt lat="38.3200240" lon="-0.6871050">
        <ele>229.0</ele>
        <time>2018-03-05T15:22:22Z</time>
      </trkpt>
      <trkpt lat="38.3200200" lon="-0.6871600">
        <ele>229.0</ele>
        <time>2018-03-05T15:22:23Z</time>
      </trkpt>
      <trkpt lat="38.3200150" lon="-0.6872140">
        <ele>230.0</ele>
        <time>2018-03-05T15:22:24Z</time>
      </trkpt>
      <trkpt lat="38.3200090" lon="-0.6872700">
        <ele>230.0</ele>
        <time>2018-03-05T15:22:25Z</time>
      </trkpt>
      <trkpt lat="38.3200040" lon="-0.6873240">
        <ele>230.0</ele>
        <time>2018-03-05T15:22:26Z</time>
      </trkpt>
      <trkpt lat="38.3200000" lon="-0.6873790">
        <ele>230.0</ele>
        <time>2018-03-05T15:22:27Z</time>
      </trkpt>
      <trkpt lat="38.3199950" lon="-0.6874340">
        <ele>230.0</ele>
        <time>2018-03-05T15:22:28Z</time>
      </trkpt>
      <trkpt lat="38.3199910" lon="-0.6874890">
        <ele>230.0</ele>
        <time>2018-03-05T15:22:29Z</time>
      </trkpt>
      <trkpt lat="38.3199850" lon="-0.6875450">
        <ele>230.0</ele>
        <time>2018-03-05T15:22:30Z</time>
      </trkpt>
      <trkpt lat="38.3199800" lon="-0.6876020">
        <ele>230.0</ele>
        <time>2018-03-05T15:22:31Z</time>
      </trkpt>
      <trkpt lat="38.3199760" lon="-0.6876600">
        <ele>230.0</ele>
        <time>2018-03-05T15:22:32Z</time>
      </trkpt>
      <trkpt lat="38.3199720" lon="-0.6877200">
        <ele>230.0</ele>
        <time>2018-03-05T15:22:33Z</time>
      </trkpt>
      <trkpt lat="38.3199690" lon="-0.6877790">
        <ele>230.0</ele>
        <time>2018-03-05T15:22:34Z</time>
      </trkpt>
      <trkpt lat="38.3199660" lon="-0.6878410">
        <ele>230.0</ele>
        <time>2018-03-05T15:22:35Z</time>
      </trkpt>
      <trkpt lat="38.3199650" lon="-0.6879030">
        <ele>230.0</ele>
        <time>2018-03-05T15:22:36Z</time>
      </trkpt>
      <trkpt lat="38.3199660" lon="-0.6879670">
        <ele>230.0</ele>
        <time>2018-03-05T15:22:37Z</time>
      </trkpt>
      <trkpt lat="38.3199690" lon="-0.6880300">
        <ele>230.0</ele>
        <time>2018-03-05T15:22:38Z</time>
      </trkpt>
      <trkpt lat="38.3199760" lon="-0.6880960">
        <ele>230.0</ele>
        <time>2018-03-05T15:22:39Z</time>
      </trkpt>
      <trkpt lat="38.3199840" lon="-0.6881630">
        <ele>230.0</ele>
        <time>2018-03-05T15:22:40Z</time>
      </trkpt>
      <trkpt lat="38.3199900" lon="-0.6882320">
        <ele>230.0</ele>
        <time>2018-03-05T15:22:41Z</time>
      </trkpt>
      <trkpt lat="38.3199930" lon="-0.6882980">
        <ele>230.0</ele>
        <time>2018-03-05T15:22:42Z</time>
      </trkpt>
      <trkpt lat="38.3199950" lon="-0.6883650">
        <ele>231.0</ele>
        <time>2018-03-05T15:22:43Z</time>
      </trkpt>
      <trkpt lat="38.3199960" lon="-0.6884330">
        <ele>231.0</ele>
        <time>2018-03-05T15:22:44Z</time>
      </trkpt>
      <trkpt lat="38.3199950" lon="-0.6885010">
        <ele>231.0</ele>
        <time>2018-03-05T15:22:45Z</time>
      </trkpt>
      <trkpt lat="38.3199900" lon="-0.6885690">
        <ele>231.0</ele>
        <time>2018-03-05T15:22:46Z</time>
      </trkpt>
      <trkpt lat="38.3199830" lon="-0.6886360">
        <ele>231.0</ele>
        <time>2018-03-05T15:22:47Z</time>
      </trkpt>
      <trkpt lat="38.3199760" lon="-0.6887030">
        <ele>231.0</ele>
        <time>2018-03-05T15:22:48Z</time>
      </trkpt>
      <trkpt lat="38.3199710" lon="-0.6887710">
        <ele>231.0</ele>
        <time>2018-03-05T15:22:49Z</time>
      </trkpt>
      <trkpt lat="38.3199660" lon="-0.6888390">
        <ele>231.0</ele>
        <time>2018-03-05T15:22:50Z</time>
      </trkpt>
      <trkpt lat="38.3199620" lon="-0.6889070">
        <ele>231.0</ele>
        <time>2018-03-05T15:22:51Z</time>
      </trkpt>
      <trkpt lat="38.3199590" lon="-0.6889750">
        <ele>231.0</ele>
        <time>2018-03-05T15:22:52Z</time>
      </trkpt>
      <trkpt lat="38.3199540" lon="-0.6890430">
        <ele>231.0</ele>
        <time>2018-03-05T15:22:53Z</time>
      </trkpt>
      <trkpt lat="38.3199490" lon="-0.6891120">
        <ele>231.0</ele>
        <time>2018-03-05T15:22:54Z</time>
      </trkpt>
      <trkpt lat="38.3199460" lon="-0.6891820">
        <ele>231.0</ele>
        <time>2018-03-05T15:22:55Z</time>
      </trkpt>
      <trkpt lat="38.3199420" lon="-0.6892540">
        <ele>231.0</ele>
        <time>2018-03-05T15:22:56Z</time>
      </trkpt>
      <trkpt lat="38.3199390" lon="-0.6893260">
        <ele>231.0</ele>
        <time>2018-03-05T15:22:57Z</time>
      </trkpt>
      <trkpt lat="38.3199360" lon="-0.6893990">
        <ele>231.0</ele>
        <time>2018-03-05T15:22:58Z</time>
      </trkpt>
      <trkpt lat="38.3199330" lon="-0.6894730">
        <ele>231.0</ele>
        <time>2018-03-05T15:22:59Z</time>
      </trkpt>
      <trkpt lat="38.3199300" lon="-0.6895450">
        <ele>231.0</ele>
        <time>2018-03-05T15:23:00Z</time>
      </trkpt>
      <trkpt lat="38.3199230" lon="-0.6896160">
        <ele>232.0</ele>
        <time>2018-03-05T15:23:01Z</time>
      </trkpt>
      <trkpt lat="38.3199180" lon="-0.6896870">
        <ele>232.0</ele>
        <time>2018-03-05T15:23:02Z</time>
      </trkpt>
      <trkpt lat="38.3199130" lon="-0.6897570">
        <ele>232.0</ele>
        <time>2018-03-05T15:23:03Z</time>
      </trkpt>
      <trkpt lat="38.3199100" lon="-0.6898270">
        <ele>232.0</ele>
        <time>2018-03-05T15:23:04Z</time>
      </trkpt>
      <trkpt lat="38.3199060" lon="-0.6898970">
        <ele>232.0</ele>
        <time>2018-03-05T15:23:05Z</time>
      </trkpt>
      <trkpt lat="38.3198980" lon="-0.6899670">
        <ele>233.0</ele>
        <time>2018-03-05T15:23:06Z</time>
      </trkpt>
      <trkpt lat="38.3198930" lon="-0.6900360">
        <ele>233.0</ele>
        <time>2018-03-05T15:23:07Z</time>
      </trkpt>
      <trkpt lat="38.3198880" lon="-0.6901040">
        <ele>233.0</ele>
        <time>2018-03-05T15:23:08Z</time>
      </trkpt>
      <trkpt lat="38.3198820" lon="-0.6901700">
        <ele>233.0</ele>
        <time>2018-03-05T15:23:09Z</time>
      </trkpt>
      <trkpt lat="38.3198750" lon="-0.6902370">
        <ele>234.0</ele>
        <time>2018-03-05T15:23:10Z</time>
      </trkpt>
      <trkpt lat="38.3198680" lon="-0.6903020">
        <ele>234.0</ele>
        <time>2018-03-05T15:23:11Z</time>
      </trkpt>
      <trkpt lat="38.3198600" lon="-0.6903660">
        <ele>234.0</ele>
        <time>2018-03-05T15:23:12Z</time>
      </trkpt>
      <trkpt lat="38.3198510" lon="-0.6904270">
        <ele>234.0</ele>
        <time>2018-03-05T15:23:13Z</time>
      </trkpt>
      <trkpt lat="38.3198420" lon="-0.6904910">
        <ele>234.0</ele>
        <time>2018-03-05T15:23:14Z</time>
      </trkpt>
      <trkpt lat="38.3198330" lon="-0.6905560">
        <ele>235.0</ele>
        <time>2018-03-05T15:23:15Z</time>
      </trkpt>
      <trkpt lat="38.3198230" lon="-0.6906190">
        <ele>235.0</ele>
        <time>2018-03-05T15:23:16Z</time>
      </trkpt>
      <trkpt lat="38.3198130" lon="-0.6906830">
        <ele>235.0</ele>
        <time>2018-03-05T15:23:17Z</time>
      </trkpt>
      <trkpt lat="38.3198030" lon="-0.6907490">
        <ele>235.0</ele>
        <time>2018-03-05T15:23:18Z</time>
      </trkpt>
      <trkpt lat="38.3197930" lon="-0.6908150">
        <ele>235.0</ele>
        <time>2018-03-05T15:23:19Z</time>
      </trkpt>
      <trkpt lat="38.3197830" lon="-0.6908810">
        <ele>235.0</ele>
        <time>2018-03-05T15:23:20Z</time>
      </trkpt>
      <trkpt lat="38.3197730" lon="-0.6909490">
        <ele>235.0</ele>
        <time>2018-03-05T15:23:21Z</time>
      </trkpt>
      <trkpt lat="38.3197630" lon="-0.6910160">
        <ele>236.0</ele>
        <time>2018-03-05T15:23:22Z</time>
      </trkpt>
      <trkpt lat="38.3197530" lon="-0.6910820">
        <ele>236.0</ele>
        <time>2018-03-05T15:23:23Z</time>
      </trkpt>
      <trkpt lat="38.3197420" lon="-0.6911490">
        <ele>236.0</ele>
        <time>2018-03-05T15:23:24Z</time>
      </trkpt>
      <trkpt lat="38.3197330" lon="-0.6912150">
        <ele>236.0</ele>
        <time>2018-03-05T15:23:25Z</time>
      </trkpt>
      <trkpt lat="38.3197200" lon="-0.6912800">
        <ele>236.0</ele>
        <time>2018-03-05T15:23:26Z</time>
      </trkpt>
      <trkpt lat="38.3197070" lon="-0.6913430">
        <ele>237.0</ele>
        <time>2018-03-05T15:23:27Z</time>
      </trkpt>
      <trkpt lat="38.3196950" lon="-0.6914040">
        <ele>237.0</ele>
        <time>2018-03-05T15:23:28Z</time>
      </trkpt>
      <trkpt lat="38.3196830" lon="-0.6914630">
        <ele>237.0</ele>
        <time>2018-03-05T15:23:29Z</time>
      </trkpt>
      <trkpt lat="38.3196720" lon="-0.6915200">
        <ele>237.0</ele>
        <time>2018-03-05T15:23:30Z</time>
      </trkpt>
      <trkpt lat="38.3196600" lon="-0.6915780">
        <ele>237.0</ele>
        <time>2018-03-05T15:23:31Z</time>
      </trkpt>
      <trkpt lat="38.3196490" lon="-0.6916350">
        <ele>238.0</ele>
        <time>2018-03-05T15:23:32Z</time>
      </trkpt>
      <trkpt lat="38.3196370" lon="-0.6916920">
        <ele>238.0</ele>
        <time>2018-03-05T15:23:33Z</time>
      </trkpt>
      <trkpt lat="38.3196230" lon="-0.6917490">
        <ele>238.0</ele>
        <time>2018-03-05T15:23:34Z</time>
      </trkpt>
      <trkpt lat="38.3196090" lon="-0.6918070">
        <ele>238.0</ele>
        <time>2018-03-05T15:23:35Z</time>
      </trkpt>
      <trkpt lat="38.3195960" lon="-0.6918650">
        <ele>238.0</ele>
        <time>2018-03-05T15:23:36Z</time>
      </trkpt>
      <trkpt lat="38.3195800" lon="-0.6919210">
        <ele>238.0</ele>
        <time>2018-03-05T15:23:37Z</time>
      </trkpt>
      <trkpt lat="38.3195560" lon="-0.6919720">
        <ele>239.0</ele>
        <time>2018-03-05T15:23:38Z</time>
      </trkpt>
      <trkpt lat="38.3195320" lon="-0.6920250">
        <ele>239.0</ele>
        <time>2018-03-05T15:23:39Z</time>
      </trkpt>
      <trkpt lat="38.3195060" lon="-0.6920780">
        <ele>239.0</ele>
        <time>2018-03-05T15:23:40Z</time>
      </trkpt>
      <trkpt lat="38.3194800" lon="-0.6921330">
        <ele>239.0</ele>
        <time>2018-03-05T15:23:41Z</time>
      </trkpt>
      <trkpt lat="38.3194560" lon="-0.6921880">
        <ele>240.0</ele>
        <time>2018-03-05T15:23:42Z</time>
      </trkpt>
      <trkpt lat="38.3194380" lon="-0.6922450">
        <ele>239.0</ele>
        <time>2018-03-05T15:23:43Z</time>
      </trkpt>
      <trkpt lat="38.3194220" lon="-0.6923000">
        <ele>239.0</ele>
        <time>2018-03-05T15:23:44Z</time>
      </trkpt>
      <trkpt lat="38.3194120" lon="-0.6923530">
        <ele>239.0</ele>
        <time>2018-03-05T15:23:45Z</time>
      </trkpt>
      <trkpt lat="38.3194100" lon="-0.6924010">
        <ele>239.0</ele>
        <time>2018-03-05T15:23:46Z</time>
      </trkpt>
      <trkpt lat="38.3194440" lon="-0.6922410">
        <ele>237.0</ele>
        <time>2018-03-05T15:23:47Z</time>
      </trkpt>
      <trkpt lat="38.3194780" lon="-0.6920810">
        <ele>237.0</ele>
        <time>2018-03-05T15:23:48Z</time>
      </trkpt>
      <trkpt lat="38.3194710" lon="-0.6921070">
        <ele>237.0</ele>
        <time>2018-03-05T15:23:49Z</time>
      </trkpt>
      <trkpt lat="38.3194620" lon="-0.6921360">
        <ele>237.0</ele>
        <time>2018-03-05T15:23:50Z</time>
      </trkpt>
      <trkpt lat="38.3194530" lon="-0.6921740">
        <ele>237.0</ele>
        <time>2018-03-05T15:23:51Z</time>
      </trkpt>
      <trkpt lat="38.3194470" lon="-0.6922180">
        <ele>237.0</ele>
        <time>2018-03-05T15:23:52Z</time>
      </trkpt>
      <trkpt lat="38.3194310" lon="-0.6923180">
        <ele>238.0</ele>
        <time>2018-03-05T15:23:53Z</time>
      </trkpt>
      <trkpt lat="38.3194280" lon="-0.6923760">
        <ele>238.0</ele>
        <time>2018-03-05T15:23:54Z</time>
      </trkpt>
      <trkpt lat="38.3194250" lon="-0.6924350">
        <ele>238.0</ele>
        <time>2018-03-05T15:23:55Z</time>
      </trkpt>
      <trkpt lat="38.3194200" lon="-0.6924940">
        <ele>238.0</ele>
        <time>2018-03-05T15:23:56Z</time>
      </trkpt>
      <trkpt lat="38.3194120" lon="-0.6925670">
        <ele>237.0</ele>
        <time>2018-03-05T15:23:57Z</time>
      </trkpt>
      <trkpt lat="38.3194070" lon="-0.6926380">
        <ele>237.0</ele>
        <time>2018-03-05T15:23:58Z</time>
      </trkpt>
      <trkpt lat="38.3194000" lon="-0.6927070">
        <ele>237.0</ele>
        <time>2018-03-05T15:23:59Z</time>
      </trkpt>
      <trkpt lat="38.3193930" lon="-0.6927780">
        <ele>236.0</ele>
        <time>2018-03-05T15:24:00Z</time>
      </trkpt>
      <trkpt lat="38.3193860" lon="-0.6928470">
        <ele>236.0</ele>
        <time>2018-03-05T15:24:01Z</time>
      </trkpt>
      <trkpt lat="38.3193790" lon="-0.6929130">
        <ele>236.0</ele>
        <time>2018-03-05T15:24:02Z</time>
      </trkpt>
      <trkpt lat="38.3193730" lon="-0.6929770">
        <ele>236.0</ele>
        <time>2018-03-05T15:24:03Z</time>
      </trkpt>
      <trkpt lat="38.3193660" lon="-0.6930400">
        <ele>236.0</ele>
        <time>2018-03-05T15:24:04Z</time>
      </trkpt>
      <trkpt lat="38.3193620" lon="-0.6930720">
        <ele>236.0</ele>
        <time>2018-03-05T15:24:05Z</time>
      </trkpt>
      <trkpt lat="38.3193570" lon="-0.6931030">
        <ele>236.0</ele>
        <time>2018-03-05T15:24:06Z</time>
      </trkpt>
      <trkpt lat="38.3193310" lon="-0.6932250">
        <ele>236.0</ele>
        <time>2018-03-05T15:24:07Z</time>
      </trkpt>
      <trkpt lat="38.3193230" lon="-0.6932530">
        <ele>236.0</ele>
        <time>2018-03-05T15:24:08Z</time>
      </trkpt>
      <trkpt lat="38.3193140" lon="-0.6932810">
        <ele>237.0</ele>
        <time>2018-03-05T15:24:09Z</time>
      </trkpt>
      <trkpt lat="38.3192970" lon="-0.6933340">
        <ele>238.0</ele>
        <time>2018-03-05T15:24:10Z</time>
      </trkpt>
      <trkpt lat="38.3192770" lon="-0.6933850">
        <ele>239.0</ele>
        <time>2018-03-05T15:24:11Z</time>
      </trkpt>
      <trkpt lat="38.3192560" lon="-0.6934330">
        <ele>239.0</ele>
        <time>2018-03-05T15:24:12Z</time>
      </trkpt>
      <trkpt lat="38.3192290" lon="-0.6934720">
        <ele>239.0</ele>
        <time>2018-03-05T15:24:13Z</time>
      </trkpt>
      <trkpt lat="38.3191950" lon="-0.6935000">
        <ele>239.0</ele>
        <time>2018-03-05T15:24:14Z</time>
      </trkpt>
      <trkpt lat="38.3191580" lon="-0.6935230">
        <ele>239.0</ele>
        <time>2018-03-05T15:24:15Z</time>
      </trkpt>
      <trkpt lat="38.3191180" lon="-0.6935400">
        <ele>239.0</ele>
        <time>2018-03-05T15:24:16Z</time>
      </trkpt>
      <trkpt lat="38.3190750" lon="-0.6935540">
        <ele>239.0</ele>
        <time>2018-03-05T15:24:17Z</time>
      </trkpt>
      <trkpt lat="38.3190300" lon="-0.6935630">
        <ele>240.0</ele>
        <time>2018-03-05T15:24:18Z</time>
      </trkpt>
      <trkpt lat="38.3189840" lon="-0.6935720">
        <ele>240.0</ele>
        <time>2018-03-05T15:24:19Z</time>
      </trkpt>
      <trkpt lat="38.3189370" lon="-0.6935750">
        <ele>240.0</ele>
        <time>2018-03-05T15:24:20Z</time>
      </trkpt>
      <trkpt lat="38.3188880" lon="-0.6935760">
        <ele>241.0</ele>
        <time>2018-03-05T15:24:21Z</time>
      </trkpt>
      <trkpt lat="38.3188390" lon="-0.6935770">
        <ele>241.0</ele>
        <time>2018-03-05T15:24:22Z</time>
      </trkpt>
      <trkpt lat="38.3187910" lon="-0.6935760">
        <ele>240.0</ele>
        <time>2018-03-05T15:24:23Z</time>
      </trkpt>
      <trkpt lat="38.3187410" lon="-0.6935760">
        <ele>240.0</ele>
        <time>2018-03-05T15:24:24Z</time>
      </trkpt>
      <trkpt lat="38.3186910" lon="-0.6935750">
        <ele>241.0</ele>
        <time>2018-03-05T15:24:25Z</time>
      </trkpt>
      <trkpt lat="38.3186420" lon="-0.6935720">
        <ele>241.0</ele>
        <time>2018-03-05T15:24:26Z</time>
      </trkpt>
      <trkpt lat="38.3185930" lon="-0.6935680">
        <ele>240.0</ele>
        <time>2018-03-05T15:24:27Z</time>
      </trkpt>
      <trkpt lat="38.3185420" lon="-0.6935680">
        <ele>240.0</ele>
        <time>2018-03-05T15:24:28Z</time>
      </trkpt>
      <trkpt lat="38.3184920" lon="-0.6935720">
        <ele>241.0</ele>
        <time>2018-03-05T15:24:29Z</time>
      </trkpt>
      <trkpt lat="38.3184400" lon="-0.6935780">
        <ele>241.0</ele>
        <time>2018-03-05T15:24:30Z</time>
      </trkpt>
      <trkpt lat="38.3183880" lon="-0.6935850">
        <ele>241.0</ele>
        <time>2018-03-05T15:24:31Z</time>
      </trkpt>
      <trkpt lat="38.3183360" lon="-0.6935910">
        <ele>241.0</ele>
        <time>2018-03-05T15:24:32Z</time>
      </trkpt>
      <trkpt lat="38.3182840" lon="-0.6935970">
        <ele>241.0</ele>
        <time>2018-03-05T15:24:33Z</time>
      </trkpt>
      <trkpt lat="38.3182310" lon="-0.6936020">
        <ele>241.0</ele>
        <time>2018-03-05T15:24:34Z</time>
      </trkpt>
      <trkpt lat="38.3181790" lon="-0.6936030">
        <ele>241.0</ele>
        <time>2018-03-05T15:24:35Z</time>
      </trkpt>
      <trkpt lat="38.3181270" lon="-0.6935990">
        <ele>241.0</ele>
        <time>2018-03-05T15:24:36Z</time>
      </trkpt>
      <trkpt lat="38.3180760" lon="-0.6935970">
        <ele>241.0</ele>
        <time>2018-03-05T15:24:37Z</time>
      </trkpt>
      <trkpt lat="38.3180240" lon="-0.6935990">
        <ele>241.0</ele>
        <time>2018-03-05T15:24:38Z</time>
      </trkpt>
      <trkpt lat="38.3179750" lon="-0.6936060">
        <ele>241.0</ele>
        <time>2018-03-05T15:24:39Z</time>
      </trkpt>
      <trkpt lat="38.3179260" lon="-0.6936260">
        <ele>241.0</ele>
        <time>2018-03-05T15:24:40Z</time>
      </trkpt>
      <trkpt lat="38.3178810" lon="-0.6936510">
        <ele>241.0</ele>
        <time>2018-03-05T15:24:41Z</time>
      </trkpt>
      <trkpt lat="38.3178400" lon="-0.6936770">
        <ele>241.0</ele>
        <time>2018-03-05T15:24:42Z</time>
      </trkpt>
      <trkpt lat="38.3178020" lon="-0.6937010">
        <ele>241.0</ele>
        <time>2018-03-05T15:24:43Z</time>
      </trkpt>
      <trkpt lat="38.3177650" lon="-0.6937230">
        <ele>240.0</ele>
        <time>2018-03-05T15:24:44Z</time>
      </trkpt>
      <trkpt lat="38.3177290" lon="-0.6937440">
        <ele>241.0</ele>
        <time>2018-03-05T15:24:45Z</time>
      </trkpt>
      <trkpt lat="38.3176960" lon="-0.6937650">
        <ele>241.0</ele>
        <time>2018-03-05T15:24:46Z</time>
      </trkpt>
      <trkpt lat="38.3176640" lon="-0.6937870">
        <ele>241.0</ele>
        <time>2018-03-05T15:24:47Z</time>
      </trkpt>
      <trkpt lat="38.3176320" lon="-0.6938070">
        <ele>241.0</ele>
        <time>2018-03-05T15:24:48Z</time>
      </trkpt>
      <trkpt lat="38.3176020" lon="-0.6938260">
        <ele>241.0</ele>
        <time>2018-03-05T15:24:49Z</time>
      </trkpt>
      <trkpt lat="38.3175700" lon="-0.6938460">
        <ele>241.0</ele>
        <time>2018-03-05T15:24:50Z</time>
      </trkpt>
      <trkpt lat="38.3175400" lon="-0.6938650">
        <ele>242.0</ele>
        <time>2018-03-05T15:24:51Z</time>
      </trkpt>
      <trkpt lat="38.3175090" lon="-0.6938810">
        <ele>242.0</ele>
        <time>2018-03-05T15:24:52Z</time>
      </trkpt>
      <trkpt lat="38.3174750" lon="-0.6939000">
        <ele>243.0</ele>
        <time>2018-03-05T15:24:53Z</time>
      </trkpt>
      <trkpt lat="38.3174420" lon="-0.6939190">
        <ele>243.0</ele>
        <time>2018-03-05T15:24:54Z</time>
      </trkpt>
      <trkpt lat="38.3174100" lon="-0.6939380">
        <ele>244.0</ele>
        <time>2018-03-05T15:24:55Z</time>
      </trkpt>
      <trkpt lat="38.3173780" lon="-0.6939530">
        <ele>244.0</ele>
        <time>2018-03-05T15:24:56Z</time>
      </trkpt>
      <trkpt lat="38.3173470" lon="-0.6939650">
        <ele>245.0</ele>
        <time>2018-03-05T15:24:57Z</time>
      </trkpt>
      <trkpt lat="38.3173160" lon="-0.6939790">
        <ele>245.0</ele>
        <time>2018-03-05T15:24:58Z</time>
      </trkpt>
      <trkpt lat="38.3172870" lon="-0.6939940">
        <ele>245.0</ele>
        <time>2018-03-05T15:24:59Z</time>
      </trkpt>
      <trkpt lat="38.3172560" lon="-0.6940070">
        <ele>245.0</ele>
        <time>2018-03-05T15:25:00Z</time>
      </trkpt>
      <trkpt lat="38.3172230" lon="-0.6940170">
        <ele>245.0</ele>
        <time>2018-03-05T15:25:01Z</time>
      </trkpt>
      <trkpt lat="38.3171890" lon="-0.6940260">
        <ele>245.0</ele>
        <time>2018-03-05T15:25:02Z</time>
      </trkpt>
      <trkpt lat="38.3171540" lon="-0.6940330">
        <ele>245.0</ele>
        <time>2018-03-05T15:25:03Z</time>
      </trkpt>
      <trkpt lat="38.3171200" lon="-0.6940380">
        <ele>245.0</ele>
        <time>2018-03-05T15:25:04Z</time>
      </trkpt>
      <trkpt lat="38.3170450" lon="-0.6940450">
        <ele>245.0</ele>
        <time>2018-03-05T15:25:05Z</time>
      </trkpt>
      <trkpt lat="38.3170250" lon="-0.6940470">
        <ele>245.0</ele>
        <time>2018-03-05T15:25:06Z</time>
      </trkpt>
      <trkpt lat="38.3170060" lon="-0.6940480">
        <ele>245.0</ele>
        <time>2018-03-05T15:25:07Z</time>
      </trkpt>
      <trkpt lat="38.3169660" lon="-0.6940430">
        <ele>245.0</ele>
        <time>2018-03-05T15:25:08Z</time>
      </trkpt>
      <trkpt lat="38.3169250" lon="-0.6940340">
        <ele>245.0</ele>
        <time>2018-03-05T15:25:09Z</time>
      </trkpt>
      <trkpt lat="38.3168840" lon="-0.6940220">
        <ele>245.0</ele>
        <time>2018-03-05T15:25:10Z</time>
      </trkpt>
      <trkpt lat="38.3168410" lon="-0.6940070">
        <ele>244.0</ele>
        <time>2018-03-05T15:25:11Z</time>
      </trkpt>
      <trkpt lat="38.3167960" lon="-0.6939900">
        <ele>244.0</ele>
        <time>2018-03-05T15:25:12Z</time>
      </trkpt>
      <trkpt lat="38.3167490" lon="-0.6939690">
        <ele>244.0</ele>
        <time>2018-03-05T15:25:13Z</time>
      </trkpt>
      <trkpt lat="38.3167020" lon="-0.6939460">
        <ele>244.0</ele>
        <time>2018-03-05T15:25:14Z</time>
      </trkpt>
      <trkpt lat="38.3166520" lon="-0.6939200">
        <ele>244.0</ele>
        <time>2018-03-05T15:25:15Z</time>
      </trkpt>
      <trkpt lat="38.3166010" lon="-0.6938940">
        <ele>244.0</ele>
        <time>2018-03-05T15:25:16Z</time>
      </trkpt>
      <trkpt lat="38.3165500" lon="-0.6938670">
        <ele>244.0</ele>
        <time>2018-03-05T15:25:17Z</time>
      </trkpt>
      <trkpt lat="38.3164900" lon="-0.6938400">
        <ele>243.0</ele>
        <time>2018-03-05T15:25:18Z</time>
      </trkpt>
      <trkpt lat="38.3164300" lon="-0.6938100">
        <ele>242.0</ele>
        <time>2018-03-05T15:25:19Z</time>
      </trkpt>
      <trkpt lat="38.3163680" lon="-0.6937750">
        <ele>241.0</ele>
        <time>2018-03-05T15:25:20Z</time>
      </trkpt>
      <trkpt lat="38.3162990" lon="-0.6937430">
        <ele>241.0</ele>
        <time>2018-03-05T15:25:21Z</time>
      </trkpt>
      <trkpt lat="38.3162270" lon="-0.6937110">
        <ele>240.0</ele>
        <time>2018-03-05T15:25:22Z</time>
      </trkpt>
      <trkpt lat="38.3161550" lon="-0.6936780">
        <ele>240.0</ele>
        <time>2018-03-05T15:25:23Z</time>
      </trkpt>
      <trkpt lat="38.3160790" lon="-0.6936450">
        <ele>239.0</ele>
        <time>2018-03-05T15:25:24Z</time>
      </trkpt>
      <trkpt lat="38.3160040" lon="-0.6936110">
        <ele>239.0</ele>
        <time>2018-03-05T15:25:25Z</time>
      </trkpt>
      <trkpt lat="38.3159290" lon="-0.6935780">
        <ele>238.0</ele>
        <time>2018-03-05T15:25:26Z</time>
      </trkpt>
      <trkpt lat="38.3158490" lon="-0.6935480">
        <ele>238.0</ele>
        <time>2018-03-05T15:25:27Z</time>
      </trkpt>
      <trkpt lat="38.3157710" lon="-0.6935170">
        <ele>238.0</ele>
        <time>2018-03-05T15:25:28Z</time>
      </trkpt>
      <trkpt lat="38.3156920" lon="-0.6934890">
        <ele>237.0</ele>
        <time>2018-03-05T15:25:29Z</time>
      </trkpt>
      <trkpt lat="38.3156110" lon="-0.6934620">
        <ele>237.0</ele>
        <time>2018-03-05T15:25:30Z</time>
      </trkpt>
      <trkpt lat="38.3154340" lon="-0.6934330">
        <ele>236.0</ele>
        <time>2018-03-05T15:25:31Z</time>
      </trkpt>
      <trkpt lat="38.3153400" lon="-0.6934640">
        <ele>236.0</ele>
        <time>2018-03-05T15:25:32Z</time>
      </trkpt>
      <trkpt lat="38.3152440" lon="-0.6935020">
        <ele>235.0</ele>
        <time>2018-03-05T15:25:33Z</time>
      </trkpt>
      <trkpt lat="38.3151490" lon="-0.6935290">
        <ele>234.0</ele>
        <time>2018-03-05T15:25:34Z</time>
      </trkpt>
      <trkpt lat="38.3151000" lon="-0.6935380">
        <ele>234.0</ele>
        <time>2018-03-05T15:25:35Z</time>
      </trkpt>
      <trkpt lat="38.3150510" lon="-0.6935460">
        <ele>234.0</ele>
        <time>2018-03-05T15:25:36Z</time>
      </trkpt>
      <trkpt lat="38.3149550" lon="-0.6935550">
        <ele>233.0</ele>
        <time>2018-03-05T15:25:37Z</time>
      </trkpt>
      <trkpt lat="38.3148590" lon="-0.6935600">
        <ele>232.0</ele>
        <time>2018-03-05T15:25:38Z</time>
      </trkpt>
      <trkpt lat="38.3147610" lon="-0.6935660">
        <ele>232.0</ele>
        <time>2018-03-05T15:25:39Z</time>
      </trkpt>
      <trkpt lat="38.3146650" lon="-0.6935730">
        <ele>232.0</ele>
        <time>2018-03-05T15:25:40Z</time>
      </trkpt>
      <trkpt lat="38.3144770" lon="-0.6935870">
        <ele>231.0</ele>
        <time>2018-03-05T15:25:41Z</time>
      </trkpt>
      <trkpt lat="38.3143820" lon="-0.6935870">
        <ele>231.0</ele>
        <time>2018-03-05T15:25:42Z</time>
      </trkpt>
      <trkpt lat="38.3142860" lon="-0.6935810">
        <ele>230.0</ele>
        <time>2018-03-05T15:25:43Z</time>
      </trkpt>
      <trkpt lat="38.3142370" lon="-0.6935700">
        <ele>230.0</ele>
        <time>2018-03-05T15:25:44Z</time>
      </trkpt>
      <trkpt lat="38.3141880" lon="-0.6935600">
        <ele>228.0</ele>
        <time>2018-03-05T15:25:45Z</time>
      </trkpt>
      <trkpt lat="38.3140900" lon="-0.6935400">
        <ele>228.0</ele>
        <time>2018-03-05T15:25:46Z</time>
      </trkpt>
      <trkpt lat="38.3139920" lon="-0.6935040">
        <ele>228.0</ele>
        <time>2018-03-05T15:25:47Z</time>
      </trkpt>
      <trkpt lat="38.3138930" lon="-0.6934690">
        <ele>227.0</ele>
        <time>2018-03-05T15:25:48Z</time>
      </trkpt>
      <trkpt lat="38.3137940" lon="-0.6934280">
        <ele>226.0</ele>
        <time>2018-03-05T15:25:49Z</time>
      </trkpt>
      <trkpt lat="38.3137040" lon="-0.6933850">
        <ele>226.0</ele>
        <time>2018-03-05T15:25:50Z</time>
      </trkpt>
      <trkpt lat="38.3135190" lon="-0.6933270">
        <ele>225.0</ele>
        <time>2018-03-05T15:25:51Z</time>
      </trkpt>
      <trkpt lat="38.3134230" lon="-0.6933340">
        <ele>224.0</ele>
        <time>2018-03-05T15:25:52Z</time>
      </trkpt>
      <trkpt lat="38.3133780" lon="-0.6933400">
        <ele>224.0</ele>
        <time>2018-03-05T15:25:53Z</time>
      </trkpt>
      <trkpt lat="38.3133320" lon="-0.6933450">
        <ele>224.0</ele>
        <time>2018-03-05T15:25:54Z</time>
      </trkpt>
      <trkpt lat="38.3132430" lon="-0.6933820">
        <ele>224.0</ele>
        <time>2018-03-05T15:25:55Z</time>
      </trkpt>
      <trkpt lat="38.3130970" lon="-0.6935140">
        <ele>222.0</ele>
        <time>2018-03-05T15:25:56Z</time>
      </trkpt>
      <trkpt lat="38.3130720" lon="-0.6935540">
        <ele>222.0</ele>
        <time>2018-03-05T15:25:57Z</time>
      </trkpt>
      <trkpt lat="38.3130470" lon="-0.6935930">
        <ele>221.0</ele>
        <time>2018-03-05T15:25:58Z</time>
      </trkpt>
      <trkpt lat="38.3129970" lon="-0.6936710">
        <ele>221.0</ele>
        <time>2018-03-05T15:25:59Z</time>
      </trkpt>
      <trkpt lat="38.3129470" lon="-0.6937040">
        <ele>219.0</ele>
        <time>2018-03-05T15:26:00Z</time>
      </trkpt>
      <trkpt lat="38.3128950" lon="-0.6936880">
        <ele>219.0</ele>
        <time>2018-03-05T15:26:01Z</time>
      </trkpt>
      <trkpt lat="38.3128420" lon="-0.6936650">
        <ele>219.0</ele>
        <time>2018-03-05T15:26:02Z</time>
      </trkpt>
      <trkpt lat="38.3127340" lon="-0.6936000">
        <ele>218.0</ele>
        <time>2018-03-05T15:26:03Z</time>
      </trkpt>
      <trkpt lat="38.3126850" lon="-0.6935750">
        <ele>218.0</ele>
        <time>2018-03-05T15:26:04Z</time>
      </trkpt>
      <trkpt lat="38.3126350" lon="-0.6935510">
        <ele>217.0</ele>
        <time>2018-03-05T15:26:05Z</time>
      </trkpt>
      <trkpt lat="38.3125350" lon="-0.6935030">
        <ele>216.0</ele>
        <time>2018-03-05T15:26:06Z</time>
      </trkpt>
      <trkpt lat="38.3124690" lon="-0.6935030">
        <ele>214.0</ele>
        <time>2018-03-05T15:26:07Z</time>
      </trkpt>
      <trkpt lat="38.3124450" lon="-0.6935200">
        <ele>214.0</ele>
        <time>2018-03-05T15:26:08Z</time>
      </trkpt>
      <trkpt lat="38.3124210" lon="-0.6935370">
        <ele>213.0</ele>
        <time>2018-03-05T15:26:09Z</time>
      </trkpt>
      <trkpt lat="38.3123720" lon="-0.6935700">
        <ele>213.0</ele>
        <time>2018-03-05T15:26:10Z</time>
      </trkpt>
      <trkpt lat="38.3123420" lon="-0.6936330">
        <ele>212.0</ele>
        <time>2018-03-05T15:26:11Z</time>
      </trkpt>
      <trkpt lat="38.3123350" lon="-0.6937030">
        <ele>213.0</ele>
        <time>2018-03-05T15:26:12Z</time>
      </trkpt>
      <trkpt lat="38.3123130" lon="-0.6937750">
        <ele>212.0</ele>
        <time>2018-03-05T15:26:13Z</time>
      </trkpt>
      <trkpt lat="38.3122110" lon="-0.6938430">
        <ele>210.0</ele>
        <time>2018-03-05T15:26:14Z</time>
      </trkpt>
      <trkpt lat="38.3121800" lon="-0.6938480">
        <ele>210.0</ele>
        <time>2018-03-05T15:26:15Z</time>
      </trkpt>
      <trkpt lat="38.3121490" lon="-0.6938530">
        <ele>209.0</ele>
        <time>2018-03-05T15:26:16Z</time>
      </trkpt>
      <trkpt lat="38.3120810" lon="-0.6938300">
        <ele>210.0</ele>
        <time>2018-03-05T15:26:17Z</time>
      </trkpt>
      <trkpt lat="38.3119610" lon="-0.6937470">
        <ele>206.0</ele>
        <time>2018-03-05T15:26:18Z</time>
      </trkpt>
      <trkpt lat="38.3118960" lon="-0.6937030">
        <ele>205.0</ele>
        <time>2018-03-05T15:26:19Z</time>
      </trkpt>
      <trkpt lat="38.3118380" lon="-0.6936480">
        <ele>205.0</ele>
        <time>2018-03-05T15:26:20Z</time>
      </trkpt>
      <trkpt lat="38.3117750" lon="-0.6935910">
        <ele>204.0</ele>
        <time>2018-03-05T15:26:21Z</time>
      </trkpt>
      <trkpt lat="38.3117130" lon="-0.6935360">
        <ele>204.0</ele>
        <time>2018-03-05T15:26:22Z</time>
      </trkpt>
      <trkpt lat="38.3116510" lon="-0.6934810">
        <ele>203.0</ele>
        <time>2018-03-05T15:26:23Z</time>
      </trkpt>
      <trkpt lat="38.3116200" lon="-0.6934490">
        <ele>203.0</ele>
        <time>2018-03-05T15:26:24Z</time>
      </trkpt>
      <trkpt lat="38.3115890" lon="-0.6934170">
        <ele>202.0</ele>
        <time>2018-03-05T15:26:25Z</time>
      </trkpt>
      <trkpt lat="38.3115270" lon="-0.6933540">
        <ele>202.0</ele>
        <time>2018-03-05T15:26:26Z</time>
      </trkpt>
      <trkpt lat="38.3114780" lon="-0.6932730">
        <ele>202.0</ele>
        <time>2018-03-05T15:26:27Z</time>
      </trkpt>
      <trkpt lat="38.3114280" lon="-0.6931930">
        <ele>202.0</ele>
        <time>2018-03-05T15:26:28Z</time>
      </trkpt>
      <trkpt lat="38.3113710" lon="-0.6931210">
        <ele>202.0</ele>
        <time>2018-03-05T15:26:29Z</time>
      </trkpt>
      <trkpt lat="38.3113140" lon="-0.6930490">
        <ele>202.0</ele>
        <time>2018-03-05T15:26:30Z</time>
      </trkpt>
      <trkpt lat="38.3112080" lon="-0.6929610">
        <ele>200.0</ele>
        <time>2018-03-05T15:26:31Z</time>
      </trkpt>
      <trkpt lat="38.3111020" lon="-0.6928730">
        <ele>200.0</ele>
        <time>2018-03-05T15:26:32Z</time>
      </trkpt>
      <trkpt lat="38.3110210" lon="-0.6928330">
        <ele>198.0</ele>
        <time>2018-03-05T15:26:33Z</time>
      </trkpt>
      <trkpt lat="38.3109270" lon="-0.6928020">
        <ele>197.0</ele>
        <time>2018-03-05T15:26:34Z</time>
      </trkpt>
      <trkpt lat="38.3108780" lon="-0.6927990">
        <ele>197.0</ele>
        <time>2018-03-05T15:26:35Z</time>
      </trkpt>
      <trkpt lat="38.3108290" lon="-0.6927960">
        <ele>202.0</ele>
        <time>2018-03-05T15:26:36Z</time>
      </trkpt>
      <trkpt lat="38.3107300" lon="-0.6927910">
        <ele>202.0</ele>
        <time>2018-03-05T15:26:37Z</time>
      </trkpt>
      <trkpt lat="38.3106420" lon="-0.6928050">
        <ele>203.0</ele>
        <time>2018-03-05T15:26:38Z</time>
      </trkpt>
      <trkpt lat="38.3105610" lon="-0.6927990">
        <ele>204.0</ele>
        <time>2018-03-05T15:26:39Z</time>
      </trkpt>
      <trkpt lat="38.3104880" lon="-0.6927670">
        <ele>203.0</ele>
        <time>2018-03-05T15:26:40Z</time>
      </trkpt>
      <trkpt lat="38.3104500" lon="-0.6927130">
        <ele>203.0</ele>
        <time>2018-03-05T15:26:41Z</time>
      </trkpt>
      <trkpt lat="38.3104250" lon="-0.6926470">
        <ele>203.0</ele>
        <time>2018-03-05T15:26:42Z</time>
      </trkpt>
      <trkpt lat="38.3103980" lon="-0.6924980">
        <ele>202.0</ele>
        <time>2018-03-05T15:26:43Z</time>
      </trkpt>
      <trkpt lat="38.3103930" lon="-0.6924470">
        <ele>202.0</ele>
        <time>2018-03-05T15:26:44Z</time>
      </trkpt>
      <trkpt lat="38.3103880" lon="-0.6923960">
        <ele>201.0</ele>
        <time>2018-03-05T15:26:45Z</time>
      </trkpt>
      <trkpt lat="38.3103560" lon="-0.6923150">
        <ele>200.0</ele>
        <time>2018-03-05T15:26:46Z</time>
      </trkpt>
      <trkpt lat="38.3103170" lon="-0.6922320">
        <ele>200.0</ele>
        <time>2018-03-05T15:26:47Z</time>
      </trkpt>
      <trkpt lat="38.3102670" lon="-0.6921680">
        <ele>199.0</ele>
        <time>2018-03-05T15:26:48Z</time>
      </trkpt>
      <trkpt lat="38.3102140" lon="-0.6921300">
        <ele>199.0</ele>
        <time>2018-03-05T15:26:49Z</time>
      </trkpt>
      <trkpt lat="38.3101510" lon="-0.6920830">
        <ele>199.0</ele>
        <time>2018-03-05T15:26:50Z</time>
      </trkpt>
      <trkpt lat="38.3100770" lon="-0.6920320">
        <ele>199.0</ele>
        <time>2018-03-05T15:26:51Z</time>
      </trkpt>
      <trkpt lat="38.3100060" lon="-0.6919760">
        <ele>199.0</ele>
        <time>2018-03-05T15:26:52Z</time>
      </trkpt>
      <trkpt lat="38.3099450" lon="-0.6919060">
        <ele>199.0</ele>
        <time>2018-03-05T15:26:53Z</time>
      </trkpt>
      <trkpt lat="38.3098850" lon="-0.6918330">
        <ele>198.0</ele>
        <time>2018-03-05T15:26:54Z</time>
      </trkpt>
      <trkpt lat="38.3098240" lon="-0.6917640">
        <ele>199.0</ele>
        <time>2018-03-05T15:26:55Z</time>
      </trkpt>
      <trkpt lat="38.3097580" lon="-0.6917050">
        <ele>199.0</ele>
        <time>2018-03-05T15:26:56Z</time>
      </trkpt>
      <trkpt lat="38.3096880" lon="-0.6916580">
        <ele>199.0</ele>
        <time>2018-03-05T15:26:57Z</time>
      </trkpt>
      <trkpt lat="38.3096190" lon="-0.6916340">
        <ele>199.0</ele>
        <time>2018-03-05T15:26:58Z</time>
      </trkpt>
      <trkpt lat="38.3095470" lon="-0.6916110">
        <ele>199.0</ele>
        <time>2018-03-05T15:26:59Z</time>
      </trkpt>
      <trkpt lat="38.3094760" lon="-0.6915870">
        <ele>199.0</ele>
        <time>2018-03-05T15:27:00Z</time>
      </trkpt>
      <trkpt lat="38.3093960" lon="-0.6915730">
        <ele>198.0</ele>
        <time>2018-03-05T15:27:01Z</time>
      </trkpt>
      <trkpt lat="38.3093140" lon="-0.6915720">
        <ele>198.0</ele>
        <time>2018-03-05T15:27:02Z</time>
      </trkpt>
      <trkpt lat="38.3092330" lon="-0.6915840">
        <ele>197.0</ele>
        <time>2018-03-05T15:27:03Z</time>
      </trkpt>
      <trkpt lat="38.3091530" lon="-0.6916050">
        <ele>197.0</ele>
        <time>2018-03-05T15:27:04Z</time>
      </trkpt>
      <trkpt lat="38.3090720" lon="-0.6916310">
        <ele>196.0</ele>
        <time>2018-03-05T15:27:05Z</time>
      </trkpt>
      <trkpt lat="38.3089910" lon="-0.6916540">
        <ele>196.0</ele>
        <time>2018-03-05T15:27:06Z</time>
      </trkpt>
      <trkpt lat="38.3089100" lon="-0.6916740">
        <ele>196.0</ele>
        <time>2018-03-05T15:27:07Z</time>
      </trkpt>
      <trkpt lat="38.3088300" lon="-0.6916860">
        <ele>196.0</ele>
        <time>2018-03-05T15:27:08Z</time>
      </trkpt>
      <trkpt lat="38.3087530" lon="-0.6916800">
        <ele>196.0</ele>
        <time>2018-03-05T15:27:09Z</time>
      </trkpt>
      <trkpt lat="38.3086780" lon="-0.6916670">
        <ele>195.0</ele>
        <time>2018-03-05T15:27:10Z</time>
      </trkpt>
      <trkpt lat="38.3086020" lon="-0.6916460">
        <ele>194.0</ele>
        <time>2018-03-05T15:27:11Z</time>
      </trkpt>
      <trkpt lat="38.3085240" lon="-0.6916100">
        <ele>193.0</ele>
        <time>2018-03-05T15:27:12Z</time>
      </trkpt>
      <trkpt lat="38.3084460" lon="-0.6915770">
        <ele>192.0</ele>
        <time>2018-03-05T15:27:13Z</time>
      </trkpt>
      <trkpt lat="38.3083660" lon="-0.6915620">
        <ele>191.0</ele>
        <time>2018-03-05T15:27:14Z</time>
      </trkpt>
      <trkpt lat="38.3082810" lon="-0.6915780">
        <ele>190.0</ele>
        <time>2018-03-05T15:27:15Z</time>
      </trkpt>
      <trkpt lat="38.3081980" lon="-0.6915930">
        <ele>189.0</ele>
        <time>2018-03-05T15:27:16Z</time>
      </trkpt>
      <trkpt lat="38.3081210" lon="-0.6915860">
        <ele>189.0</ele>
        <time>2018-03-05T15:27:17Z</time>
      </trkpt>
      <trkpt lat="38.3080610" lon="-0.6915530">
        <ele>188.0</ele>
        <time>2018-03-05T15:27:18Z</time>
      </trkpt>
      <trkpt lat="38.3080060" lon="-0.6915100">
        <ele>187.0</ele>
        <time>2018-03-05T15:27:19Z</time>
      </trkpt>
      <trkpt lat="38.3079530" lon="-0.6914580">
        <ele>187.0</ele>
        <time>2018-03-05T15:27:20Z</time>
      </trkpt>
      <trkpt lat="38.3079000" lon="-0.6914020">
        <ele>187.0</ele>
        <time>2018-03-05T15:27:21Z</time>
      </trkpt>
      <trkpt lat="38.3078490" lon="-0.6913400">
        <ele>186.0</ele>
        <time>2018-03-05T15:27:22Z</time>
      </trkpt>
      <trkpt lat="38.3078040" lon="-0.6912650">
        <ele>186.0</ele>
        <time>2018-03-05T15:27:23Z</time>
      </trkpt>
      <trkpt lat="38.3077550" lon="-0.6911940">
        <ele>185.0</ele>
        <time>2018-03-05T15:27:24Z</time>
      </trkpt>
      <trkpt lat="38.3077030" lon="-0.6911270">
        <ele>185.0</ele>
        <time>2018-03-05T15:27:25Z</time>
      </trkpt>
      <trkpt lat="38.3076480" lon="-0.6910670">
        <ele>184.0</ele>
        <time>2018-03-05T15:27:26Z</time>
      </trkpt>
      <trkpt lat="38.3075850" lon="-0.6910170">
        <ele>183.0</ele>
        <time>2018-03-05T15:27:27Z</time>
      </trkpt>
      <trkpt lat="38.3075180" lon="-0.6909830">
        <ele>183.0</ele>
        <time>2018-03-05T15:27:28Z</time>
      </trkpt>
      <trkpt lat="38.3074550" lon="-0.6909410">
        <ele>182.0</ele>
        <time>2018-03-05T15:27:29Z</time>
      </trkpt>
      <trkpt lat="38.3074150" lon="-0.6908770">
        <ele>182.0</ele>
        <time>2018-03-05T15:27:30Z</time>
      </trkpt>
      <trkpt lat="38.3073770" lon="-0.6908040">
        <ele>181.0</ele>
        <time>2018-03-05T15:27:31Z</time>
      </trkpt>
      <trkpt lat="38.3073350" lon="-0.6907240">
        <ele>181.0</ele>
        <time>2018-03-05T15:27:32Z</time>
      </trkpt>
      <trkpt lat="38.3072900" lon="-0.6906540">
        <ele>180.0</ele>
        <time>2018-03-05T15:27:33Z</time>
      </trkpt>
      <trkpt lat="38.3072460" lon="-0.6906180">
        <ele>179.0</ele>
        <time>2018-03-05T15:27:34Z</time>
      </trkpt>
      <trkpt lat="38.3071900" lon="-0.6906090">
        <ele>181.0</ele>
        <time>2018-03-05T15:27:35Z</time>
      </trkpt>
      <trkpt lat="38.3071360" lon="-0.6906200">
        <ele>182.0</ele>
        <time>2018-03-05T15:27:36Z</time>
      </trkpt>
      <trkpt lat="38.3070860" lon="-0.6906400">
        <ele>182.0</ele>
        <time>2018-03-05T15:27:37Z</time>
      </trkpt>
      <trkpt lat="38.3070400" lon="-0.6906530">
        <ele>182.0</ele>
        <time>2018-03-05T15:27:38Z</time>
      </trkpt>
      <trkpt lat="38.3069990" lon="-0.6906470">
        <ele>182.0</ele>
        <time>2018-03-05T15:27:39Z</time>
      </trkpt>
      <trkpt lat="38.3069650" lon="-0.6906270">
        <ele>182.0</ele>
        <time>2018-03-05T15:27:40Z</time>
      </trkpt>
      <trkpt lat="38.3069300" lon="-0.6906070">
        <ele>182.0</ele>
        <time>2018-03-05T15:27:41Z</time>
      </trkpt>
      <trkpt lat="38.3068940" lon="-0.6905850">
        <ele>183.0</ele>
        <time>2018-03-05T15:27:42Z</time>
      </trkpt>
      <trkpt lat="38.3068560" lon="-0.6905710">
        <ele>183.0</ele>
        <time>2018-03-05T15:27:43Z</time>
      </trkpt>
      <trkpt lat="38.3068170" lon="-0.6905750">
        <ele>183.0</ele>
        <time>2018-03-05T15:27:44Z</time>
      </trkpt>
      <trkpt lat="38.3067850" lon="-0.6905930">
        <ele>183.0</ele>
        <time>2018-03-05T15:27:45Z</time>
      </trkpt>
      <trkpt lat="38.3067660" lon="-0.6906190">
        <ele>183.0</ele>
        <time>2018-03-05T15:27:46Z</time>
      </trkpt>
      <trkpt lat="38.3067600" lon="-0.6906520">
        <ele>184.0</ele>
        <time>2018-03-05T15:27:47Z</time>
      </trkpt>
      <trkpt lat="38.3067620" lon="-0.6906920">
        <ele>184.0</ele>
        <time>2018-03-05T15:27:48Z</time>
      </trkpt>
      <trkpt lat="38.3067640" lon="-0.6907300">
        <ele>185.0</ele>
        <time>2018-03-05T15:27:49Z</time>
      </trkpt>
      <trkpt lat="38.3067610" lon="-0.6907660">
        <ele>186.0</ele>
        <time>2018-03-05T15:27:50Z</time>
      </trkpt>
      <trkpt lat="38.3067580" lon="-0.6908090">
        <ele>185.0</ele>
        <time>2018-03-05T15:27:51Z</time>
      </trkpt>
      <trkpt lat="38.3067560" lon="-0.6908540">
        <ele>186.0</ele>
        <time>2018-03-05T15:27:52Z</time>
      </trkpt>
      <trkpt lat="38.3067540" lon="-0.6909010">
        <ele>186.0</ele>
        <time>2018-03-05T15:27:53Z</time>
      </trkpt>
      <trkpt lat="38.3067530" lon="-0.6909450">
        <ele>186.0</ele>
        <time>2018-03-05T15:27:54Z</time>
      </trkpt>
      <trkpt lat="38.3067480" lon="-0.6909890">
        <ele>187.0</ele>
        <time>2018-03-05T15:27:55Z</time>
      </trkpt>
      <trkpt lat="38.3067450" lon="-0.6910310">
        <ele>187.0</ele>
        <time>2018-03-05T15:27:56Z</time>
      </trkpt>
      <trkpt lat="38.3067440" lon="-0.6910750">
        <ele>188.0</ele>
        <time>2018-03-05T15:27:57Z</time>
      </trkpt>
      <trkpt lat="38.3067420" lon="-0.6911180">
        <ele>188.0</ele>
        <time>2018-03-05T15:27:58Z</time>
      </trkpt>
      <trkpt lat="38.3067380" lon="-0.6911640">
        <ele>188.0</ele>
        <time>2018-03-05T15:27:59Z</time>
      </trkpt>
      <trkpt lat="38.3067350" lon="-0.6912080">
        <ele>188.0</ele>
        <time>2018-03-05T15:28:00Z</time>
      </trkpt>
      <trkpt lat="38.3067320" lon="-0.6912490">
        <ele>188.0</ele>
        <time>2018-03-05T15:28:01Z</time>
      </trkpt>
      <trkpt lat="38.3067260" lon="-0.6912900">
        <ele>189.0</ele>
        <time>2018-03-05T15:28:02Z</time>
      </trkpt>
      <trkpt lat="38.3067200" lon="-0.6913220">
        <ele>189.0</ele>
        <time>2018-03-05T15:28:03Z</time>
      </trkpt>
      <trkpt lat="38.3067190" lon="-0.6913620">
        <ele>189.0</ele>
        <time>2018-03-05T15:28:04Z</time>
      </trkpt>
      <trkpt lat="38.3067140" lon="-0.6914080">
        <ele>189.0</ele>
        <time>2018-03-05T15:28:05Z</time>
      </trkpt>
      <trkpt lat="38.3067080" lon="-0.6914580">
        <ele>188.0</ele>
        <time>2018-03-05T15:28:06Z</time>
      </trkpt>
      <trkpt lat="38.3067020" lon="-0.6915080">
        <ele>188.0</ele>
        <time>2018-03-05T15:28:07Z</time>
      </trkpt>
      <trkpt lat="38.3067010" lon="-0.6915620">
        <ele>188.0</ele>
        <time>2018-03-05T15:28:08Z</time>
      </trkpt>
      <trkpt lat="38.3066970" lon="-0.6916170">
        <ele>188.0</ele>
        <time>2018-03-05T15:28:09Z</time>
      </trkpt>
      <trkpt lat="38.3066910" lon="-0.6916770">
        <ele>187.0</ele>
        <time>2018-03-05T15:28:10Z</time>
      </trkpt>
      <trkpt lat="38.3066820" lon="-0.6917430">
        <ele>187.0</ele>
        <time>2018-03-05T15:28:11Z</time>
      </trkpt>
      <trkpt lat="38.3066700" lon="-0.6918130">
        <ele>187.0</ele>
        <time>2018-03-05T15:28:12Z</time>
      </trkpt>
      <trkpt lat="38.3066550" lon="-0.6918880">
        <ele>186.0</ele>
        <time>2018-03-05T15:28:13Z</time>
      </trkpt>
      <trkpt lat="38.3066400" lon="-0.6919680">
        <ele>185.0</ele>
        <time>2018-03-05T15:28:14Z</time>
      </trkpt>
      <trkpt lat="38.3066220" lon="-0.6920490">
        <ele>184.0</ele>
        <time>2018-03-05T15:28:15Z</time>
      </trkpt>
      <trkpt lat="38.3066090" lon="-0.6921350">
        <ele>183.0</ele>
        <time>2018-03-05T15:28:16Z</time>
      </trkpt>
      <trkpt lat="38.3065960" lon="-0.6922350">
        <ele>183.0</ele>
        <time>2018-03-05T15:28:17Z</time>
      </trkpt>
      <trkpt lat="38.3065760" lon="-0.6923320">
        <ele>182.0</ele>
        <time>2018-03-05T15:28:18Z</time>
      </trkpt>
      <trkpt lat="38.3065520" lon="-0.6923890">
        <ele>183.0</ele>
        <time>2018-03-05T15:28:19Z</time>
      </trkpt>
      <trkpt lat="38.3065240" lon="-0.6924170">
        <ele>183.0</ele>
        <time>2018-03-05T15:28:20Z</time>
      </trkpt>
      <trkpt lat="38.3064930" lon="-0.6924120">
        <ele>183.0</ele>
        <time>2018-03-05T15:28:21Z</time>
      </trkpt>
      <trkpt lat="38.3064720" lon="-0.6924060">
        <ele>183.0</ele>
        <time>2018-03-05T15:28:22Z</time>
      </trkpt>
      <trkpt lat="38.3064540" lon="-0.6923890">
        <ele>183.0</ele>
        <time>2018-03-05T15:28:23Z</time>
      </trkpt>
      <trkpt lat="38.3064270" lon="-0.6923670">
        <ele>183.0</ele>
        <time>2018-03-05T15:28:24Z</time>
      </trkpt>
      <trkpt lat="38.3063950" lon="-0.6923450">
        <ele>183.0</ele>
        <time>2018-03-05T15:28:25Z</time>
      </trkpt>
      <trkpt lat="38.3063590" lon="-0.6923220">
        <ele>183.0</ele>
        <time>2018-03-05T15:28:26Z</time>
      </trkpt>
      <trkpt lat="38.3063210" lon="-0.6922970">
        <ele>183.0</ele>
        <time>2018-03-05T15:28:27Z</time>
      </trkpt>
      <trkpt lat="38.3062750" lon="-0.6922730">
        <ele>182.0</ele>
        <time>2018-03-05T15:28:28Z</time>
      </trkpt>
      <trkpt lat="38.3062210" lon="-0.6922570">
        <ele>181.0</ele>
        <time>2018-03-05T15:28:29Z</time>
      </trkpt>
      <trkpt lat="38.3061650" lon="-0.6922410">
        <ele>181.0</ele>
        <time>2018-03-05T15:28:30Z</time>
      </trkpt>
      <trkpt lat="38.3061090" lon="-0.6922340">
        <ele>180.0</ele>
        <time>2018-03-05T15:28:31Z</time>
      </trkpt>
      <trkpt lat="38.3060580" lon="-0.6922410">
        <ele>180.0</ele>
        <time>2018-03-05T15:28:32Z</time>
      </trkpt>
      <trkpt lat="38.3060050" lon="-0.6922430">
        <ele>180.0</ele>
        <time>2018-03-05T15:28:33Z</time>
      </trkpt>
      <trkpt lat="38.3059500" lon="-0.6922400">
        <ele>180.0</ele>
        <time>2018-03-05T15:28:34Z</time>
      </trkpt>
      <trkpt lat="38.3058990" lon="-0.6922250">
        <ele>180.0</ele>
        <time>2018-03-05T15:28:35Z</time>
      </trkpt>
      <trkpt lat="38.3058480" lon="-0.6922070">
        <ele>179.0</ele>
        <time>2018-03-05T15:28:36Z</time>
      </trkpt>
      <trkpt lat="38.3057950" lon="-0.6921950">
        <ele>179.0</ele>
        <time>2018-03-05T15:28:37Z</time>
      </trkpt>
      <trkpt lat="38.3057430" lon="-0.6921840">
        <ele>178.0</ele>
        <time>2018-03-05T15:28:38Z</time>
      </trkpt>
      <trkpt lat="38.3056900" lon="-0.6921750">
        <ele>178.0</ele>
        <time>2018-03-05T15:28:39Z</time>
      </trkpt>
      <trkpt lat="38.3056340" lon="-0.6921720">
        <ele>178.0</ele>
        <time>2018-03-05T15:28:40Z</time>
      </trkpt>
      <trkpt lat="38.3055780" lon="-0.6921770">
        <ele>178.0</ele>
        <time>2018-03-05T15:28:41Z</time>
      </trkpt>
      <trkpt lat="38.3055230" lon="-0.6921910">
        <ele>178.0</ele>
        <time>2018-03-05T15:28:42Z</time>
      </trkpt>
      <trkpt lat="38.3054680" lon="-0.6921940">
        <ele>177.0</ele>
        <time>2018-03-05T15:28:43Z</time>
      </trkpt>
      <trkpt lat="38.3054140" lon="-0.6921940">
        <ele>177.0</ele>
        <time>2018-03-05T15:28:44Z</time>
      </trkpt>
      <trkpt lat="38.3053610" lon="-0.6921850">
        <ele>177.0</ele>
        <time>2018-03-05T15:28:45Z</time>
      </trkpt>
      <trkpt lat="38.3053060" lon="-0.6921780">
        <ele>177.0</ele>
        <time>2018-03-05T15:28:46Z</time>
      </trkpt>
      <trkpt lat="38.3052510" lon="-0.6921740">
        <ele>177.0</ele>
        <time>2018-03-05T15:28:47Z</time>
      </trkpt>
      <trkpt lat="38.3051960" lon="-0.6921690">
        <ele>176.0</ele>
        <time>2018-03-05T15:28:48Z</time>
      </trkpt>
      <trkpt lat="38.3051400" lon="-0.6921620">
        <ele>176.0</ele>
        <time>2018-03-05T15:28:49Z</time>
      </trkpt>
      <trkpt lat="38.3050910" lon="-0.6921630">
        <ele>177.0</ele>
        <time>2018-03-05T15:28:50Z</time>
      </trkpt>
      <trkpt lat="38.3050590" lon="-0.6921520">
        <ele>176.0</ele>
        <time>2018-03-05T15:28:51Z</time>
      </trkpt>
      <trkpt lat="38.3050640" lon="-0.6921270">
        <ele>176.0</ele>
        <time>2018-03-05T15:28:52Z</time>
      </trkpt>
      <trkpt lat="38.3050620" lon="-0.6921040">
        <ele>176.0</ele>
        <time>2018-03-05T15:28:53Z</time>
      </trkpt>
      <trkpt lat="38.3050710" lon="-0.6920710">
        <ele>175.0</ele>
        <time>2018-03-05T15:28:54Z</time>
      </trkpt>
      <trkpt lat="38.3050800" lon="-0.6920390">
        <ele>175.0</ele>
        <time>2018-03-05T15:28:55Z</time>
      </trkpt>
      <trkpt lat="38.3050880" lon="-0.6920220">
        <ele>174.0</ele>
        <time>2018-03-05T15:28:56Z</time>
      </trkpt>
      <trkpt lat="38.3050860" lon="-0.6920180">
        <ele>174.0</ele>
        <time>2018-03-05T15:28:57Z</time>
      </trkpt>
      <trkpt lat="38.3050880" lon="-0.6920190">
        <ele>174.0</ele>
        <time>2018-03-05T15:28:58Z</time>
      </trkpt>
      <trkpt lat="38.3050880" lon="-0.6920140">
        <ele>174.0</ele>
        <time>2018-03-05T15:28:59Z</time>
      </trkpt>
      <trkpt lat="38.3050910" lon="-0.6919960">
        <ele>173.0</ele>
        <time>2018-03-05T15:29:00Z</time>
      </trkpt>
      <trkpt lat="38.3050950" lon="-0.6919770">
        <ele>172.0</ele>
        <time>2018-03-05T15:29:01Z</time>
      </trkpt>
      <trkpt lat="38.3051000" lon="-0.6919570">
        <ele>172.0</ele>
        <time>2018-03-05T15:29:02Z</time>
      </trkpt>
      <trkpt lat="38.3051050" lon="-0.6919500">
        <ele>171.0</ele>
        <time>2018-03-05T15:29:03Z</time>
      </trkpt>
      <trkpt lat="38.3051110" lon="-0.6919360">
        <ele>171.0</ele>
        <time>2018-03-05T15:29:04Z</time>
      </trkpt>
      <trkpt lat="38.3051180" lon="-0.6919190">
        <ele>171.0</ele>
        <time>2018-03-05T15:29:05Z</time>
      </trkpt>
      <trkpt lat="38.3051230" lon="-0.6919020">
        <ele>170.0</ele>
        <time>2018-03-05T15:29:06Z</time>
      </trkpt>
      <trkpt lat="38.3051330" lon="-0.6918890">
        <ele>170.0</ele>
        <time>2018-03-05T15:29:07Z</time>
      </trkpt>
      <trkpt lat="38.3051520" lon="-0.6918720">
        <ele>171.0</ele>
        <time>2018-03-05T15:29:08Z</time>
      </trkpt>
      <trkpt lat="38.3051640" lon="-0.6918520">
        <ele>171.0</ele>
        <time>2018-03-05T15:29:09Z</time>
      </trkpt>
      <trkpt lat="38.3051710" lon="-0.6918360">
        <ele>171.0</ele>
        <time>2018-03-05T15:29:10Z</time>
      </trkpt>
      <trkpt lat="38.3051730" lon="-0.6918280">
        <ele>172.0</ele>
        <time>2018-03-05T15:29:11Z</time>
      </trkpt>
      <trkpt lat="38.3051780" lon="-0.6918150">
        <ele>172.0</ele>
        <time>2018-03-05T15:29:12Z</time>
      </trkpt>
      <trkpt lat="38.3051760" lon="-0.6917900">
        <ele>173.0</ele>
        <time>2018-03-05T15:29:13Z</time>
      </trkpt>
      <trkpt lat="38.3051760" lon="-0.6917880">
        <ele>173.0</ele>
        <time>2018-03-05T15:29:14Z</time>
      </trkpt>
      <trkpt lat="38.3051760" lon="-0.6917830">
        <ele>174.0</ele>
        <time>2018-03-05T15:29:15Z</time>
      </trkpt>
      <trkpt lat="38.3051820" lon="-0.6917710">
        <ele>174.0</ele>
        <time>2018-03-05T15:29:16Z</time>
      </trkpt>
      <trkpt lat="38.3051900" lon="-0.6917510">
        <ele>174.0</ele>
        <time>2018-03-05T15:29:17Z</time>
      </trkpt>
      <trkpt lat="38.3051980" lon="-0.6917300">
        <ele>175.0</ele>
        <time>2018-03-05T15:29:18Z</time>
      </trkpt>
      <trkpt lat="38.3052080" lon="-0.6917070">
        <ele>176.0</ele>
        <time>2018-03-05T15:29:19Z</time>
      </trkpt>
      <trkpt lat="38.3052150" lon="-0.6916820">
        <ele>176.0</ele>
        <time>2018-03-05T15:29:20Z</time>
      </trkpt>
      <trkpt lat="38.3052200" lon="-0.6916540">
        <ele>176.0</ele>
        <time>2018-03-05T15:29:21Z</time>
      </trkpt>
      <trkpt lat="38.3052230" lon="-0.6916230">
        <ele>177.0</ele>
        <time>2018-03-05T15:29:22Z</time>
      </trkpt>
      <trkpt lat="38.3052260" lon="-0.6916010">
        <ele>177.0</ele>
        <time>2018-03-05T15:29:23Z</time>
      </trkpt>
      <trkpt lat="38.3052240" lon="-0.6915770">
        <ele>177.0</ele>
        <time>2018-03-05T15:29:24Z</time>
      </trkpt>
      <trkpt lat="38.3052220" lon="-0.6915530">
        <ele>177.0</ele>
        <time>2018-03-05T15:29:25Z</time>
      </trkpt>
      <trkpt lat="38.3052210" lon="-0.6915250">
        <ele>177.0</ele>
        <time>2018-03-05T15:29:26Z</time>
      </trkpt>
      <trkpt lat="38.3052210" lon="-0.6914990">
        <ele>177.0</ele>
        <time>2018-03-05T15:29:27Z</time>
      </trkpt>
      <trkpt lat="38.3052240" lon="-0.6914710">
        <ele>177.0</ele>
        <time>2018-03-05T15:29:28Z</time>
      </trkpt>
      <trkpt lat="38.3052280" lon="-0.6914460">
        <ele>177.0</ele>
        <time>2018-03-05T15:29:29Z</time>
      </trkpt>
      <trkpt lat="38.3052300" lon="-0.6914210">
        <ele>177.0</ele>
        <time>2018-03-05T15:29:30Z</time>
      </trkpt>
      <trkpt lat="38.3052370" lon="-0.6913960">
        <ele>177.0</ele>
        <time>2018-03-05T15:29:31Z</time>
      </trkpt>
      <trkpt lat="38.3052450" lon="-0.6913760">
        <ele>177.0</ele>
        <time>2018-03-05T15:29:32Z</time>
      </trkpt>
      <trkpt lat="38.3052550" lon="-0.6913500">
        <ele>177.0</ele>
        <time>2018-03-05T15:29:33Z</time>
      </trkpt>
      <trkpt lat="38.3052620" lon="-0.6913220">
        <ele>177.0</ele>
        <time>2018-03-05T15:29:34Z</time>
      </trkpt>
      <trkpt lat="38.3052650" lon="-0.6912960">
        <ele>177.0</ele>
        <time>2018-03-05T15:29:35Z</time>
      </trkpt>
      <trkpt lat="38.3052690" lon="-0.6912690">
        <ele>177.0</ele>
        <time>2018-03-05T15:29:36Z</time>
      </trkpt>
      <trkpt lat="38.3052710" lon="-0.6912470">
        <ele>177.0</ele>
        <time>2018-03-05T15:29:37Z</time>
      </trkpt>
      <trkpt lat="38.3052740" lon="-0.6912180">
        <ele>177.0</ele>
        <time>2018-03-05T15:29:38Z</time>
      </trkpt>
      <trkpt lat="38.3052770" lon="-0.6911760">
        <ele>177.0</ele>
        <time>2018-03-05T15:29:39Z</time>
      </trkpt>
      <trkpt lat="38.3052810" lon="-0.6911350">
        <ele>177.0</ele>
        <time>2018-03-05T15:29:40Z</time>
      </trkpt>
      <trkpt lat="38.3052830" lon="-0.6910990">
        <ele>177.0</ele>
        <time>2018-03-05T15:29:41Z</time>
      </trkpt>
      <trkpt lat="38.3052770" lon="-0.6910640">
        <ele>178.0</ele>
        <time>2018-03-05T15:29:42Z</time>
      </trkpt>
      <trkpt lat="38.3052710" lon="-0.6910250">
        <ele>177.0</ele>
        <time>2018-03-05T15:29:43Z</time>
      </trkpt>
      <trkpt lat="38.3052630" lon="-0.6909800">
        <ele>177.0</ele>
        <time>2018-03-05T15:29:44Z</time>
      </trkpt>
      <trkpt lat="38.3052560" lon="-0.6909300">
        <ele>177.0</ele>
        <time>2018-03-05T15:29:45Z</time>
      </trkpt>
      <trkpt lat="38.3052510" lon="-0.6908770">
        <ele>177.0</ele>
        <time>2018-03-05T15:29:46Z</time>
      </trkpt>
      <trkpt lat="38.3052400" lon="-0.6908220">
        <ele>177.0</ele>
        <time>2018-03-05T15:29:47Z</time>
      </trkpt>
      <trkpt lat="38.3052250" lon="-0.6907650">
        <ele>177.0</ele>
        <time>2018-03-05T15:29:48Z</time>
      </trkpt>
      <trkpt lat="38.3052040" lon="-0.6907010">
        <ele>176.0</ele>
        <time>2018-03-05T15:29:49Z</time>
      </trkpt>
      <trkpt lat="38.3051820" lon="-0.6906310">
        <ele>175.0</ele>
        <time>2018-03-05T15:29:50Z</time>
      </trkpt>
      <trkpt lat="38.3051670" lon="-0.6905630">
        <ele>174.0</ele>
        <time>2018-03-05T15:29:51Z</time>
      </trkpt>
      <trkpt lat="38.3051460" lon="-0.6905130">
        <ele>173.0</ele>
        <time>2018-03-05T15:29:52Z</time>
      </trkpt>
      <trkpt lat="38.3051210" lon="-0.6904700">
        <ele>173.0</ele>
        <time>2018-03-05T15:29:53Z</time>
      </trkpt>
      <trkpt lat="38.3050920" lon="-0.6904490">
        <ele>173.0</ele>
        <time>2018-03-05T15:29:54Z</time>
      </trkpt>
      <trkpt lat="38.3050580" lon="-0.6904320">
        <ele>172.0</ele>
        <time>2018-03-05T15:29:55Z</time>
      </trkpt>
      <trkpt lat="38.3050190" lon="-0.6904200">
        <ele>172.0</ele>
        <time>2018-03-05T15:29:56Z</time>
      </trkpt>
      <trkpt lat="38.3049790" lon="-0.6904130">
        <ele>173.0</ele>
        <time>2018-03-05T15:29:57Z</time>
      </trkpt>
      <trkpt lat="38.3049390" lon="-0.6904170">
        <ele>173.0</ele>
        <time>2018-03-05T15:29:58Z</time>
      </trkpt>
      <trkpt lat="38.3048990" lon="-0.6904260">
        <ele>173.0</ele>
        <time>2018-03-05T15:29:59Z</time>
      </trkpt>
      <trkpt lat="38.3048570" lon="-0.6904280">
        <ele>173.0</ele>
        <time>2018-03-05T15:30:00Z</time>
      </trkpt>
      <trkpt lat="38.3048120" lon="-0.6904260">
        <ele>173.0</ele>
        <time>2018-03-05T15:30:01Z</time>
      </trkpt>
      <trkpt lat="38.3047660" lon="-0.6904260">
        <ele>173.0</ele>
        <time>2018-03-05T15:30:02Z</time>
      </trkpt>
      <trkpt lat="38.3047190" lon="-0.6904260">
        <ele>173.0</ele>
        <time>2018-03-05T15:30:03Z</time>
      </trkpt>
      <trkpt lat="38.3046710" lon="-0.6904230">
        <ele>172.0</ele>
        <time>2018-03-05T15:30:04Z</time>
      </trkpt>
      <trkpt lat="38.3046180" lon="-0.6904200">
        <ele>172.0</ele>
        <time>2018-03-05T15:30:05Z</time>
      </trkpt>
      <trkpt lat="38.3045630" lon="-0.6904140">
        <ele>172.0</ele>
        <time>2018-03-05T15:30:06Z</time>
      </trkpt>
      <trkpt lat="38.3045070" lon="-0.6904100">
        <ele>172.0</ele>
        <time>2018-03-05T15:30:07Z</time>
      </trkpt>
      <trkpt lat="38.3044500" lon="-0.6904030">
        <ele>172.0</ele>
        <time>2018-03-05T15:30:08Z</time>
      </trkpt>
      <trkpt lat="38.3043940" lon="-0.6903940">
        <ele>172.0</ele>
        <time>2018-03-05T15:30:09Z</time>
      </trkpt>
      <trkpt lat="38.3043360" lon="-0.6903850">
        <ele>172.0</ele>
        <time>2018-03-05T15:30:10Z</time>
      </trkpt>
      <trkpt lat="38.3042770" lon="-0.6903740">
        <ele>172.0</ele>
        <time>2018-03-05T15:30:11Z</time>
      </trkpt>
      <trkpt lat="38.3042170" lon="-0.6903630">
        <ele>171.0</ele>
        <time>2018-03-05T15:30:12Z</time>
      </trkpt>
      <trkpt lat="38.3041560" lon="-0.6903530">
        <ele>171.0</ele>
        <time>2018-03-05T15:30:13Z</time>
      </trkpt>
      <trkpt lat="38.3040900" lon="-0.6903470">
        <ele>170.0</ele>
        <time>2018-03-05T15:30:14Z</time>
      </trkpt>
      <trkpt lat="38.3040220" lon="-0.6903400">
        <ele>170.0</ele>
        <time>2018-03-05T15:30:15Z</time>
      </trkpt>
      <trkpt lat="38.3039520" lon="-0.6903360">
        <ele>169.0</ele>
        <time>2018-03-05T15:30:16Z</time>
      </trkpt>
      <trkpt lat="38.3038790" lon="-0.6903360">
        <ele>169.0</ele>
        <time>2018-03-05T15:30:17Z</time>
      </trkpt>
      <trkpt lat="38.3038060" lon="-0.6903350">
        <ele>169.0</ele>
        <time>2018-03-05T15:30:18Z</time>
      </trkpt>
      <trkpt lat="38.3037330" lon="-0.6903380">
        <ele>169.0</ele>
        <time>2018-03-05T15:30:19Z</time>
      </trkpt>
      <trkpt lat="38.3036600" lon="-0.6903460">
        <ele>168.0</ele>
        <time>2018-03-05T15:30:20Z</time>
      </trkpt>
      <trkpt lat="38.3035870" lon="-0.6903620">
        <ele>168.0</ele>
        <time>2018-03-05T15:30:21Z</time>
      </trkpt>
      <trkpt lat="38.3035130" lon="-0.6903760">
        <ele>167.0</ele>
        <time>2018-03-05T15:30:22Z</time>
      </trkpt>
      <trkpt lat="38.3034340" lon="-0.6903850">
        <ele>166.0</ele>
        <time>2018-03-05T15:30:23Z</time>
      </trkpt>
      <trkpt lat="38.3033530" lon="-0.6903890">
        <ele>165.0</ele>
        <time>2018-03-05T15:30:24Z</time>
      </trkpt>
      <trkpt lat="38.3032700" lon="-0.6903890">
        <ele>164.0</ele>
        <time>2018-03-05T15:30:25Z</time>
      </trkpt>
      <trkpt lat="38.3031830" lon="-0.6903880">
        <ele>163.0</ele>
        <time>2018-03-05T15:30:26Z</time>
      </trkpt>
      <trkpt lat="38.3030900" lon="-0.6903820">
        <ele>161.0</ele>
        <time>2018-03-05T15:30:27Z</time>
      </trkpt>
      <trkpt lat="38.3029950" lon="-0.6903730">
        <ele>160.0</ele>
        <time>2018-03-05T15:30:28Z</time>
      </trkpt>
      <trkpt lat="38.3028950" lon="-0.6903670">
        <ele>160.0</ele>
        <time>2018-03-05T15:30:29Z</time>
      </trkpt>
      <trkpt lat="38.3027930" lon="-0.6903660">
        <ele>161.0</ele>
        <time>2018-03-05T15:30:30Z</time>
      </trkpt>
      <trkpt lat="38.3026970" lon="-0.6903680">
        <ele>161.0</ele>
        <time>2018-03-05T15:30:31Z</time>
      </trkpt>
      <trkpt lat="38.3026050" lon="-0.6903780">
        <ele>161.0</ele>
        <time>2018-03-05T15:30:32Z</time>
      </trkpt>
      <trkpt lat="38.3025210" lon="-0.6903880">
        <ele>161.0</ele>
        <time>2018-03-05T15:30:33Z</time>
      </trkpt>
      <trkpt lat="38.3024440" lon="-0.6903950">
        <ele>161.0</ele>
        <time>2018-03-05T15:30:34Z</time>
      </trkpt>
      <trkpt lat="38.3023680" lon="-0.6904020">
        <ele>161.0</ele>
        <time>2018-03-05T15:30:35Z</time>
      </trkpt>
      <trkpt lat="38.3022910" lon="-0.6904080">
        <ele>160.0</ele>
        <time>2018-03-05T15:30:36Z</time>
      </trkpt>
      <trkpt lat="38.3022110" lon="-0.6904100">
        <ele>160.0</ele>
        <time>2018-03-05T15:30:37Z</time>
      </trkpt>
      <trkpt lat="38.3021290" lon="-0.6904100">
        <ele>159.0</ele>
        <time>2018-03-05T15:30:38Z</time>
      </trkpt>
      <trkpt lat="38.3020450" lon="-0.6904110">
        <ele>159.0</ele>
        <time>2018-03-05T15:30:39Z</time>
      </trkpt>
      <trkpt lat="38.3019590" lon="-0.6904080">
        <ele>158.0</ele>
        <time>2018-03-05T15:30:40Z</time>
      </trkpt>
      <trkpt lat="38.3018750" lon="-0.6903990">
        <ele>158.0</ele>
        <time>2018-03-05T15:30:41Z</time>
      </trkpt>
      <trkpt lat="38.3017910" lon="-0.6903850">
        <ele>157.0</ele>
        <time>2018-03-05T15:30:42Z</time>
      </trkpt>
      <trkpt lat="38.3017070" lon="-0.6903750">
        <ele>157.0</ele>
        <time>2018-03-05T15:30:43Z</time>
      </trkpt>
      <trkpt lat="38.3016220" lon="-0.6903690">
        <ele>157.0</ele>
        <time>2018-03-05T15:30:44Z</time>
      </trkpt>
      <trkpt lat="38.3015380" lon="-0.6903690">
        <ele>156.0</ele>
        <time>2018-03-05T15:30:45Z</time>
      </trkpt>
      <trkpt lat="38.3014520" lon="-0.6903800">
        <ele>156.0</ele>
        <time>2018-03-05T15:30:46Z</time>
      </trkpt>
      <trkpt lat="38.3013690" lon="-0.6903930">
        <ele>156.0</ele>
        <time>2018-03-05T15:30:47Z</time>
      </trkpt>
      <trkpt lat="38.3012870" lon="-0.6904030">
        <ele>156.0</ele>
        <time>2018-03-05T15:30:48Z</time>
      </trkpt>
      <trkpt lat="38.3012070" lon="-0.6904090">
        <ele>156.0</ele>
        <time>2018-03-05T15:30:49Z</time>
      </trkpt>
      <trkpt lat="38.3011280" lon="-0.6904120">
        <ele>156.0</ele>
        <time>2018-03-05T15:30:50Z</time>
      </trkpt>
      <trkpt lat="38.3010500" lon="-0.6904030">
        <ele>155.0</ele>
        <time>2018-03-05T15:30:51Z</time>
      </trkpt>
      <trkpt lat="38.3009780" lon="-0.6903910">
        <ele>156.0</ele>
        <time>2018-03-05T15:30:52Z</time>
      </trkpt>
      <trkpt lat="38.3009110" lon="-0.6903820">
        <ele>156.0</ele>
        <time>2018-03-05T15:30:53Z</time>
      </trkpt>
      <trkpt lat="38.3008420" lon="-0.6903770">
        <ele>156.0</ele>
        <time>2018-03-05T15:30:54Z</time>
      </trkpt>
      <trkpt lat="38.3007710" lon="-0.6903730">
        <ele>156.0</ele>
        <time>2018-03-05T15:30:55Z</time>
      </trkpt>
      <trkpt lat="38.3007000" lon="-0.6903730">
        <ele>156.0</ele>
        <time>2018-03-05T15:30:56Z</time>
      </trkpt>
      <trkpt lat="38.3006300" lon="-0.6903770">
        <ele>156.0</ele>
        <time>2018-03-05T15:30:57Z</time>
      </trkpt>
      <trkpt lat="38.3005600" lon="-0.6903820">
        <ele>156.0</ele>
        <time>2018-03-05T15:30:58Z</time>
      </trkpt>
      <trkpt lat="38.3004910" lon="-0.6903870">
        <ele>156.0</ele>
        <time>2018-03-05T15:30:59Z</time>
      </trkpt>
      <trkpt lat="38.3004220" lon="-0.6903920">
        <ele>156.0</ele>
        <time>2018-03-05T15:31:00Z</time>
      </trkpt>
      <trkpt lat="38.3003550" lon="-0.6904000">
        <ele>156.0</ele>
        <time>2018-03-05T15:31:01Z</time>
      </trkpt>
      <trkpt lat="38.3002940" lon="-0.6904220">
        <ele>156.0</ele>
        <time>2018-03-05T15:31:02Z</time>
      </trkpt>
      <trkpt lat="38.3002530" lon="-0.6904580">
        <ele>155.0</ele>
        <time>2018-03-05T15:31:03Z</time>
      </trkpt>
      <trkpt lat="38.3002280" lon="-0.6905070">
        <ele>155.0</ele>
        <time>2018-03-05T15:31:04Z</time>
      </trkpt>
      <trkpt lat="38.3002040" lon="-0.6905740">
        <ele>155.0</ele>
        <time>2018-03-05T15:31:05Z</time>
      </trkpt>
      <trkpt lat="38.3001860" lon="-0.6906450">
        <ele>154.0</ele>
        <time>2018-03-05T15:31:06Z</time>
      </trkpt>
      <trkpt lat="38.3001660" lon="-0.6907180">
        <ele>154.0</ele>
        <time>2018-03-05T15:31:07Z</time>
      </trkpt>
      <trkpt lat="38.3001470" lon="-0.6907920">
        <ele>155.0</ele>
        <time>2018-03-05T15:31:08Z</time>
      </trkpt>
      <trkpt lat="38.3001350" lon="-0.6908640">
        <ele>154.0</ele>
        <time>2018-03-05T15:31:09Z</time>
      </trkpt>
      <trkpt lat="38.3001350" lon="-0.6909350">
        <ele>155.0</ele>
        <time>2018-03-05T15:31:10Z</time>
      </trkpt>
      <trkpt lat="38.3001460" lon="-0.6909920">
        <ele>156.0</ele>
        <time>2018-03-05T15:31:11Z</time>
      </trkpt>
      <trkpt lat="38.3001580" lon="-0.6910460">
        <ele>156.0</ele>
        <time>2018-03-05T15:31:12Z</time>
      </trkpt>
      <trkpt lat="38.3001670" lon="-0.6910950">
        <ele>157.0</ele>
        <time>2018-03-05T15:31:13Z</time>
      </trkpt>
      <trkpt lat="38.3001790" lon="-0.6911420">
        <ele>157.0</ele>
        <time>2018-03-05T15:31:14Z</time>
      </trkpt>
      <trkpt lat="38.3001950" lon="-0.6911850">
        <ele>158.0</ele>
        <time>2018-03-05T15:31:15Z</time>
      </trkpt>
      <trkpt lat="38.3002050" lon="-0.6912300">
        <ele>158.0</ele>
        <time>2018-03-05T15:31:16Z</time>
      </trkpt>
      <trkpt lat="38.3002130" lon="-0.6912730">
        <ele>159.0</ele>
        <time>2018-03-05T15:31:17Z</time>
      </trkpt>
      <trkpt lat="38.3002170" lon="-0.6913140">
        <ele>159.0</ele>
        <time>2018-03-05T15:31:18Z</time>
      </trkpt>
      <trkpt lat="38.3002210" lon="-0.6913500">
        <ele>160.0</ele>
        <time>2018-03-05T15:31:19Z</time>
      </trkpt>
      <trkpt lat="38.3002250" lon="-0.6913850">
        <ele>161.0</ele>
        <time>2018-03-05T15:31:20Z</time>
      </trkpt>
      <trkpt lat="38.3002280" lon="-0.6914180">
        <ele>161.0</ele>
        <time>2018-03-05T15:31:21Z</time>
      </trkpt>
      <trkpt lat="38.3002320" lon="-0.6914490">
        <ele>161.0</ele>
        <time>2018-03-05T15:31:22Z</time>
      </trkpt>
      <trkpt lat="38.3002370" lon="-0.6914750">
        <ele>162.0</ele>
        <time>2018-03-05T15:31:23Z</time>
      </trkpt>
      <trkpt lat="38.3002460" lon="-0.6915100">
        <ele>162.0</ele>
        <time>2018-03-05T15:31:24Z</time>
      </trkpt>
      <trkpt lat="38.3002550" lon="-0.6915460">
        <ele>162.0</ele>
        <time>2018-03-05T15:31:25Z</time>
      </trkpt>
      <trkpt lat="38.3002660" lon="-0.6915800">
        <ele>163.0</ele>
        <time>2018-03-05T15:31:26Z</time>
      </trkpt>
      <trkpt lat="38.3002770" lon="-0.6916150">
        <ele>163.0</ele>
        <time>2018-03-05T15:31:27Z</time>
      </trkpt>
      <trkpt lat="38.3002880" lon="-0.6916490">
        <ele>164.0</ele>
        <time>2018-03-05T15:31:28Z</time>
      </trkpt>
      <trkpt lat="38.3002960" lon="-0.6916800">
        <ele>164.0</ele>
        <time>2018-03-05T15:31:29Z</time>
      </trkpt>
      <trkpt lat="38.3003020" lon="-0.6917110">
        <ele>164.0</ele>
        <time>2018-03-05T15:31:30Z</time>
      </trkpt>
      <trkpt lat="38.3003100" lon="-0.6917490">
        <ele>164.0</ele>
        <time>2018-03-05T15:31:31Z</time>
      </trkpt>
      <trkpt lat="38.3003230" lon="-0.6917920">
        <ele>164.0</ele>
        <time>2018-03-05T15:31:32Z</time>
      </trkpt>
      <trkpt lat="38.3003340" lon="-0.6918360">
        <ele>164.0</ele>
        <time>2018-03-05T15:31:33Z</time>
      </trkpt>
      <trkpt lat="38.3003410" lon="-0.6918860">
        <ele>164.0</ele>
        <time>2018-03-05T15:31:34Z</time>
      </trkpt>
      <trkpt lat="38.3003410" lon="-0.6919380">
        <ele>164.0</ele>
        <time>2018-03-05T15:31:35Z</time>
      </trkpt>
      <trkpt lat="38.3003370" lon="-0.6919920">
        <ele>164.0</ele>
        <time>2018-03-05T15:31:36Z</time>
      </trkpt>
      <trkpt lat="38.3003290" lon="-0.6920450">
        <ele>165.0</ele>
        <time>2018-03-05T15:31:37Z</time>
      </trkpt>
      <trkpt lat="38.3003150" lon="-0.6920960">
        <ele>165.0</ele>
        <time>2018-03-05T15:31:38Z</time>
      </trkpt>
      <trkpt lat="38.3002890" lon="-0.6921390">
        <ele>165.0</ele>
        <time>2018-03-05T15:31:39Z</time>
      </trkpt>
      <trkpt lat="38.3002640" lon="-0.6921830">
        <ele>165.0</ele>
        <time>2018-03-05T15:31:40Z</time>
      </trkpt>
      <trkpt lat="38.3002390" lon="-0.6922250">
        <ele>165.0</ele>
        <time>2018-03-05T15:31:41Z</time>
      </trkpt>
      <trkpt lat="38.3002130" lon="-0.6922640">
        <ele>165.0</ele>
        <time>2018-03-05T15:31:42Z</time>
      </trkpt>
      <trkpt lat="38.3001870" lon="-0.6922970">
        <ele>166.0</ele>
        <time>2018-03-05T15:31:43Z</time>
      </trkpt>
      <trkpt lat="38.3001600" lon="-0.6923340">
        <ele>166.0</ele>
        <time>2018-03-05T15:31:44Z</time>
      </trkpt>
      <trkpt lat="38.3001360" lon="-0.6923660">
        <ele>166.0</ele>
        <time>2018-03-05T15:31:45Z</time>
      </trkpt>
      <trkpt lat="38.3001050" lon="-0.6924000">
        <ele>166.0</ele>
        <time>2018-03-05T15:31:46Z</time>
      </trkpt>
      <trkpt lat="38.3000720" lon="-0.6924250">
        <ele>166.0</ele>
        <time>2018-03-05T15:31:47Z</time>
      </trkpt>
      <trkpt lat="38.3000380" lon="-0.6924440">
        <ele>167.0</ele>
        <time>2018-03-05T15:31:48Z</time>
      </trkpt>
      <trkpt lat="38.3000070" lon="-0.6924510">
        <ele>167.0</ele>
        <time>2018-03-05T15:31:49Z</time>
      </trkpt>
      <trkpt lat="38.2999790" lon="-0.6924550">
        <ele>168.0</ele>
        <time>2018-03-05T15:31:50Z</time>
      </trkpt>
      <trkpt lat="38.2999520" lon="-0.6924670">
        <ele>168.0</ele>
        <time>2018-03-05T15:31:51Z</time>
      </trkpt>
      <trkpt lat="38.2999240" lon="-0.6924740">
        <ele>168.0</ele>
        <time>2018-03-05T15:31:52Z</time>
      </trkpt>
      <trkpt lat="38.2998950" lon="-0.6924810">
        <ele>168.0</ele>
        <time>2018-03-05T15:31:53Z</time>
      </trkpt>
      <trkpt lat="38.2998650" lon="-0.6924840">
        <ele>168.0</ele>
        <time>2018-03-05T15:31:54Z</time>
      </trkpt>
      <trkpt lat="38.2998330" lon="-0.6924860">
        <ele>168.0</ele>
        <time>2018-03-05T15:31:55Z</time>
      </trkpt>
      <trkpt lat="38.2998000" lon="-0.6924910">
        <ele>168.0</ele>
        <time>2018-03-05T15:31:56Z</time>
      </trkpt>
      <trkpt lat="38.2997650" lon="-0.6925040">
        <ele>168.0</ele>
        <time>2018-03-05T15:31:57Z</time>
      </trkpt>
      <trkpt lat="38.2997270" lon="-0.6925170">
        <ele>168.0</ele>
        <time>2018-03-05T15:31:58Z</time>
      </trkpt>
      <trkpt lat="38.2996900" lon="-0.6925250">
        <ele>168.0</ele>
        <time>2018-03-05T15:31:59Z</time>
      </trkpt>
      <trkpt lat="38.2996500" lon="-0.6925300">
        <ele>168.0</ele>
        <time>2018-03-05T15:32:00Z</time>
      </trkpt>
      <trkpt lat="38.2996080" lon="-0.6925420">
        <ele>168.0</ele>
        <time>2018-03-05T15:32:01Z</time>
      </trkpt>
      <trkpt lat="38.2995640" lon="-0.6925590">
        <ele>168.0</ele>
        <time>2018-03-05T15:32:02Z</time>
      </trkpt>
      <trkpt lat="38.2995220" lon="-0.6925810">
        <ele>168.0</ele>
        <time>2018-03-05T15:32:03Z</time>
      </trkpt>
      <trkpt lat="38.2994800" lon="-0.6926000">
        <ele>168.0</ele>
        <time>2018-03-05T15:32:04Z</time>
      </trkpt>
      <trkpt lat="38.2994370" lon="-0.6926160">
        <ele>167.0</ele>
        <time>2018-03-05T15:32:05Z</time>
      </trkpt>
      <trkpt lat="38.2993970" lon="-0.6926310">
        <ele>167.0</ele>
        <time>2018-03-05T15:32:06Z</time>
      </trkpt>
      <trkpt lat="38.2993530" lon="-0.6926430">
        <ele>166.0</ele>
        <time>2018-03-05T15:32:07Z</time>
      </trkpt>
      <trkpt lat="38.2993080" lon="-0.6926490">
        <ele>166.0</ele>
        <time>2018-03-05T15:32:08Z</time>
      </trkpt>
      <trkpt lat="38.2992580" lon="-0.6926570">
        <ele>166.0</ele>
        <time>2018-03-05T15:32:09Z</time>
      </trkpt>
      <trkpt lat="38.2992090" lon="-0.6926660">
        <ele>166.0</ele>
        <time>2018-03-05T15:32:10Z</time>
      </trkpt>
      <trkpt lat="38.2991630" lon="-0.6926790">
        <ele>166.0</ele>
        <time>2018-03-05T15:32:11Z</time>
      </trkpt>
      <trkpt lat="38.2991170" lon="-0.6926970">
        <ele>167.0</ele>
        <time>2018-03-05T15:32:12Z</time>
      </trkpt>
      <trkpt lat="38.2990710" lon="-0.6927100">
        <ele>168.0</ele>
        <time>2018-03-05T15:32:13Z</time>
      </trkpt>
      <trkpt lat="38.2990240" lon="-0.6927240">
        <ele>168.0</ele>
        <time>2018-03-05T15:32:14Z</time>
      </trkpt>
      <trkpt lat="38.2989780" lon="-0.6927380">
        <ele>168.0</ele>
        <time>2018-03-05T15:32:15Z</time>
      </trkpt>
      <trkpt lat="38.2989340" lon="-0.6927520">
        <ele>168.0</ele>
        <time>2018-03-05T15:32:16Z</time>
      </trkpt>
      <trkpt lat="38.2988900" lon="-0.6927670">
        <ele>168.0</ele>
        <time>2018-03-05T15:32:17Z</time>
      </trkpt>
      <trkpt lat="38.2988460" lon="-0.6927840">
        <ele>168.0</ele>
        <time>2018-03-05T15:32:18Z</time>
      </trkpt>
      <trkpt lat="38.2987990" lon="-0.6927990">
        <ele>168.0</ele>
        <time>2018-03-05T15:32:19Z</time>
      </trkpt>
      <trkpt lat="38.2987540" lon="-0.6928110">
        <ele>168.0</ele>
        <time>2018-03-05T15:32:20Z</time>
      </trkpt>
      <trkpt lat="38.2987060" lon="-0.6928170">
        <ele>168.0</ele>
        <time>2018-03-05T15:32:21Z</time>
      </trkpt>
      <trkpt lat="38.2986550" lon="-0.6928110">
        <ele>168.0</ele>
        <time>2018-03-05T15:32:22Z</time>
      </trkpt>
      <trkpt lat="38.2986020" lon="-0.6927970">
        <ele>167.0</ele>
        <time>2018-03-05T15:32:23Z</time>
      </trkpt>
      <trkpt lat="38.2985480" lon="-0.6927750">
        <ele>167.0</ele>
        <time>2018-03-05T15:32:24Z</time>
      </trkpt>
      <trkpt lat="38.2984980" lon="-0.6927410">
        <ele>167.0</ele>
        <time>2018-03-05T15:32:25Z</time>
      </trkpt>
      <trkpt lat="38.2984550" lon="-0.6926930">
        <ele>166.0</ele>
        <time>2018-03-05T15:32:26Z</time>
      </trkpt>
      <trkpt lat="38.2984150" lon="-0.6926410">
        <ele>165.0</ele>
        <time>2018-03-05T15:32:27Z</time>
      </trkpt>
      <trkpt lat="38.2983760" lon="-0.6925900">
        <ele>165.0</ele>
        <time>2018-03-05T15:32:28Z</time>
      </trkpt>
      <trkpt lat="38.2983360" lon="-0.6925390">
        <ele>165.0</ele>
        <time>2018-03-05T15:32:29Z</time>
      </trkpt>
      <trkpt lat="38.2982980" lon="-0.6924850">
        <ele>165.0</ele>
        <time>2018-03-05T15:32:30Z</time>
      </trkpt>
      <trkpt lat="38.2982580" lon="-0.6924320">
        <ele>165.0</ele>
        <time>2018-03-05T15:32:31Z</time>
      </trkpt>
      <trkpt lat="38.2982140" lon="-0.6923790">
        <ele>164.0</ele>
        <time>2018-03-05T15:32:32Z</time>
      </trkpt>
      <trkpt lat="38.2981660" lon="-0.6923250">
        <ele>164.0</ele>
        <time>2018-03-05T15:32:33Z</time>
      </trkpt>
      <trkpt lat="38.2981120" lon="-0.6922750">
        <ele>164.0</ele>
        <time>2018-03-05T15:32:34Z</time>
      </trkpt>
      <trkpt lat="38.2980520" lon="-0.6922240">
        <ele>163.0</ele>
        <time>2018-03-05T15:32:35Z</time>
      </trkpt>
      <trkpt lat="38.2979920" lon="-0.6921690">
        <ele>163.0</ele>
        <time>2018-03-05T15:32:36Z</time>
      </trkpt>
      <trkpt lat="38.2979380" lon="-0.6921060">
        <ele>162.0</ele>
        <time>2018-03-05T15:32:37Z</time>
      </trkpt>
      <trkpt lat="38.2978770" lon="-0.6920430">
        <ele>161.0</ele>
        <time>2018-03-05T15:32:38Z</time>
      </trkpt>
      <trkpt lat="38.2978160" lon="-0.6919750">
        <ele>161.0</ele>
        <time>2018-03-05T15:32:39Z</time>
      </trkpt>
      <trkpt lat="38.2977680" lon="-0.6918950">
        <ele>161.0</ele>
        <time>2018-03-05T15:32:40Z</time>
      </trkpt>
      <trkpt lat="38.2977210" lon="-0.6918100">
        <ele>160.0</ele>
        <time>2018-03-05T15:32:41Z</time>
      </trkpt>
      <trkpt lat="38.2976800" lon="-0.6917160">
        <ele>159.0</ele>
        <time>2018-03-05T15:32:42Z</time>
      </trkpt>
      <trkpt lat="38.2976420" lon="-0.6916190">
        <ele>158.0</ele>
        <time>2018-03-05T15:32:43Z</time>
      </trkpt>
      <trkpt lat="38.2976170" lon="-0.6915160">
        <ele>159.0</ele>
        <time>2018-03-05T15:32:44Z</time>
      </trkpt>
      <trkpt lat="38.2975870" lon="-0.6914130">
        <ele>158.0</ele>
        <time>2018-03-05T15:32:45Z</time>
      </trkpt>
      <trkpt lat="38.2975490" lon="-0.6913080">
        <ele>157.0</ele>
        <time>2018-03-05T15:32:46Z</time>
      </trkpt>
      <trkpt lat="38.2975060" lon="-0.6912070">
        <ele>156.0</ele>
        <time>2018-03-05T15:32:47Z</time>
      </trkpt>
      <trkpt lat="38.2974640" lon="-0.6911230">
        <ele>156.0</ele>
        <time>2018-03-05T15:32:48Z</time>
      </trkpt>
      <trkpt lat="38.2974230" lon="-0.6910640">
        <ele>157.0</ele>
        <time>2018-03-05T15:32:49Z</time>
      </trkpt>
      <trkpt lat="38.2973840" lon="-0.6910260">
        <ele>157.0</ele>
        <time>2018-03-05T15:32:50Z</time>
      </trkpt>
      <trkpt lat="38.2973440" lon="-0.6910140">
        <ele>156.0</ele>
        <time>2018-03-05T15:32:51Z</time>
      </trkpt>
      <trkpt lat="38.2972980" lon="-0.6910190">
        <ele>155.0</ele>
        <time>2018-03-05T15:32:52Z</time>
      </trkpt>
      <trkpt lat="38.2972430" lon="-0.6910350">
        <ele>155.0</ele>
        <time>2018-03-05T15:32:53Z</time>
      </trkpt>
      <trkpt lat="38.2971860" lon="-0.6910540">
        <ele>155.0</ele>
        <time>2018-03-05T15:32:54Z</time>
      </trkpt>
      <trkpt lat="38.2971280" lon="-0.6910790">
        <ele>154.0</ele>
        <time>2018-03-05T15:32:55Z</time>
      </trkpt>
      <trkpt lat="38.2970650" lon="-0.6911030">
        <ele>153.0</ele>
        <time>2018-03-05T15:32:56Z</time>
      </trkpt>
      <trkpt lat="38.2969980" lon="-0.6911270">
        <ele>153.0</ele>
        <time>2018-03-05T15:32:57Z</time>
      </trkpt>
      <trkpt lat="38.2969250" lon="-0.6911500">
        <ele>153.0</ele>
        <time>2018-03-05T15:32:58Z</time>
      </trkpt>
      <trkpt lat="38.2968510" lon="-0.6911740">
        <ele>153.0</ele>
        <time>2018-03-05T15:32:59Z</time>
      </trkpt>
      <trkpt lat="38.2967750" lon="-0.6911990">
        <ele>152.0</ele>
        <time>2018-03-05T15:33:00Z</time>
      </trkpt>
      <trkpt lat="38.2966990" lon="-0.6912260">
        <ele>152.0</ele>
        <time>2018-03-05T15:33:01Z</time>
      </trkpt>
      <trkpt lat="38.2966230" lon="-0.6912530">
        <ele>152.0</ele>
        <time>2018-03-05T15:33:02Z</time>
      </trkpt>
      <trkpt lat="38.2965480" lon="-0.6912780">
        <ele>152.0</ele>
        <time>2018-03-05T15:33:03Z</time>
      </trkpt>
      <trkpt lat="38.2964750" lon="-0.6913030">
        <ele>152.0</ele>
        <time>2018-03-05T15:33:04Z</time>
      </trkpt>
      <trkpt lat="38.2964040" lon="-0.6913330">
        <ele>152.0</ele>
        <time>2018-03-05T15:33:05Z</time>
      </trkpt>
      <trkpt lat="38.2963300" lon="-0.6913590">
        <ele>152.0</ele>
        <time>2018-03-05T15:33:06Z</time>
      </trkpt>
      <trkpt lat="38.2962580" lon="-0.6913890">
        <ele>152.0</ele>
        <time>2018-03-05T15:33:07Z</time>
      </trkpt>
      <trkpt lat="38.2961860" lon="-0.6914180">
        <ele>152.0</ele>
        <time>2018-03-05T15:33:08Z</time>
      </trkpt>
      <trkpt lat="38.2961130" lon="-0.6914470">
        <ele>152.0</ele>
        <time>2018-03-05T15:33:09Z</time>
      </trkpt>
      <trkpt lat="38.2960400" lon="-0.6914760">
        <ele>152.0</ele>
        <time>2018-03-05T15:33:10Z</time>
      </trkpt>
      <trkpt lat="38.2959670" lon="-0.6915040">
        <ele>151.0</ele>
        <time>2018-03-05T15:33:11Z</time>
      </trkpt>
      <trkpt lat="38.2958930" lon="-0.6915330">
        <ele>151.0</ele>
        <time>2018-03-05T15:33:12Z</time>
      </trkpt>
      <trkpt lat="38.2958190" lon="-0.6915660">
        <ele>151.0</ele>
        <time>2018-03-05T15:33:13Z</time>
      </trkpt>
      <trkpt lat="38.2957440" lon="-0.6916000">
        <ele>151.0</ele>
        <time>2018-03-05T15:33:14Z</time>
      </trkpt>
      <trkpt lat="38.2956680" lon="-0.6916380">
        <ele>150.0</ele>
        <time>2018-03-05T15:33:15Z</time>
      </trkpt>
      <trkpt lat="38.2955920" lon="-0.6916780">
        <ele>150.0</ele>
        <time>2018-03-05T15:33:16Z</time>
      </trkpt>
      <trkpt lat="38.2955160" lon="-0.6917200">
        <ele>150.0</ele>
        <time>2018-03-05T15:33:17Z</time>
      </trkpt>
      <trkpt lat="38.2954400" lon="-0.6917640">
        <ele>150.0</ele>
        <time>2018-03-05T15:33:18Z</time>
      </trkpt>
      <trkpt lat="38.2953650" lon="-0.6918060">
        <ele>150.0</ele>
        <time>2018-03-05T15:33:19Z</time>
      </trkpt>
      <trkpt lat="38.2952890" lon="-0.6918480">
        <ele>149.0</ele>
        <time>2018-03-05T15:33:20Z</time>
      </trkpt>
      <trkpt lat="38.2952140" lon="-0.6918890">
        <ele>149.0</ele>
        <time>2018-03-05T15:33:21Z</time>
      </trkpt>
      <trkpt lat="38.2951390" lon="-0.6919300">
        <ele>149.0</ele>
        <time>2018-03-05T15:33:22Z</time>
      </trkpt>
      <trkpt lat="38.2950640" lon="-0.6919680">
        <ele>149.0</ele>
        <time>2018-03-05T15:33:23Z</time>
      </trkpt>
      <trkpt lat="38.2949870" lon="-0.6920050">
        <ele>148.0</ele>
        <time>2018-03-05T15:33:24Z</time>
      </trkpt>
      <trkpt lat="38.2949110" lon="-0.6920420">
        <ele>148.0</ele>
        <time>2018-03-05T15:33:25Z</time>
      </trkpt>
      <trkpt lat="38.2948350" lon="-0.6920780">
        <ele>147.0</ele>
        <time>2018-03-05T15:33:26Z</time>
      </trkpt>
      <trkpt lat="38.2947580" lon="-0.6921150">
        <ele>147.0</ele>
        <time>2018-03-05T15:33:27Z</time>
      </trkpt>
      <trkpt lat="38.2946810" lon="-0.6921520">
        <ele>146.0</ele>
        <time>2018-03-05T15:33:28Z</time>
      </trkpt>
      <trkpt lat="38.2946020" lon="-0.6921900">
        <ele>146.0</ele>
        <time>2018-03-05T15:33:29Z</time>
      </trkpt>
      <trkpt lat="38.2945190" lon="-0.6922270">
        <ele>145.0</ele>
        <time>2018-03-05T15:33:30Z</time>
      </trkpt>
      <trkpt lat="38.2944320" lon="-0.6922650">
        <ele>144.0</ele>
        <time>2018-03-05T15:33:31Z</time>
      </trkpt>
      <trkpt lat="38.2943440" lon="-0.6923130">
        <ele>143.0</ele>
        <time>2018-03-05T15:33:32Z</time>
      </trkpt>
      <trkpt lat="38.2942560" lon="-0.6923690">
        <ele>142.0</ele>
        <time>2018-03-05T15:33:33Z</time>
      </trkpt>
      <trkpt lat="38.2941760" lon="-0.6924450">
        <ele>140.0</ele>
        <time>2018-03-05T15:33:34Z</time>
      </trkpt>
      <trkpt lat="38.2941020" lon="-0.6925380">
        <ele>139.0</ele>
        <time>2018-03-05T15:33:35Z</time>
      </trkpt>
      <trkpt lat="38.2940220" lon="-0.6926250">
        <ele>138.0</ele>
        <time>2018-03-05T15:33:36Z</time>
      </trkpt>
      <trkpt lat="38.2939330" lon="-0.6927040">
        <ele>137.0</ele>
        <time>2018-03-05T15:33:37Z</time>
      </trkpt>
      <trkpt lat="38.2938390" lon="-0.6927740">
        <ele>135.0</ele>
        <time>2018-03-05T15:33:38Z</time>
      </trkpt>
      <trkpt lat="38.2937380" lon="-0.6928260">
        <ele>135.0</ele>
        <time>2018-03-05T15:33:39Z</time>
      </trkpt>
      <trkpt lat="38.2936330" lon="-0.6928690">
        <ele>134.0</ele>
        <time>2018-03-05T15:33:40Z</time>
      </trkpt>
      <trkpt lat="38.2935280" lon="-0.6929070">
        <ele>133.0</ele>
        <time>2018-03-05T15:33:41Z</time>
      </trkpt>
      <trkpt lat="38.2934240" lon="-0.6929460">
        <ele>133.0</ele>
        <time>2018-03-05T15:33:42Z</time>
      </trkpt>
      <trkpt lat="38.2933220" lon="-0.6929840">
        <ele>132.0</ele>
        <time>2018-03-05T15:33:43Z</time>
      </trkpt>
      <trkpt lat="38.2932280" lon="-0.6930210">
        <ele>132.0</ele>
        <time>2018-03-05T15:33:44Z</time>
      </trkpt>
      <trkpt lat="38.2931540" lon="-0.6930350">
        <ele>133.0</ele>
        <time>2018-03-05T15:33:45Z</time>
      </trkpt>
      <trkpt lat="38.2930780" lon="-0.6930510">
        <ele>133.0</ele>
        <time>2018-03-05T15:33:46Z</time>
      </trkpt>
      <trkpt lat="38.2930010" lon="-0.6930730">
        <ele>134.0</ele>
        <time>2018-03-05T15:33:47Z</time>
      </trkpt>
      <trkpt lat="38.2929270" lon="-0.6930980">
        <ele>134.0</ele>
        <time>2018-03-05T15:33:48Z</time>
      </trkpt>
      <trkpt lat="38.2928560" lon="-0.6931220">
        <ele>134.0</ele>
        <time>2018-03-05T15:33:49Z</time>
      </trkpt>
      <trkpt lat="38.2927890" lon="-0.6931440">
        <ele>135.0</ele>
        <time>2018-03-05T15:33:50Z</time>
      </trkpt>
      <trkpt lat="38.2927260" lon="-0.6931650">
        <ele>135.0</ele>
        <time>2018-03-05T15:33:51Z</time>
      </trkpt>
      <trkpt lat="38.2926650" lon="-0.6931860">
        <ele>135.0</ele>
        <time>2018-03-05T15:33:52Z</time>
      </trkpt>
      <trkpt lat="38.2926080" lon="-0.6932050">
        <ele>136.0</ele>
        <time>2018-03-05T15:33:53Z</time>
      </trkpt>
      <trkpt lat="38.2925530" lon="-0.6932240">
        <ele>136.0</ele>
        <time>2018-03-05T15:33:54Z</time>
      </trkpt>
      <trkpt lat="38.2925000" lon="-0.6932450">
        <ele>137.0</ele>
        <time>2018-03-05T15:33:55Z</time>
      </trkpt>
      <trkpt lat="38.2924490" lon="-0.6932680">
        <ele>137.0</ele>
        <time>2018-03-05T15:33:56Z</time>
      </trkpt>
      <trkpt lat="38.2923980" lon="-0.6932910">
        <ele>137.0</ele>
        <time>2018-03-05T15:33:57Z</time>
      </trkpt>
      <trkpt lat="38.2923460" lon="-0.6933130">
        <ele>137.0</ele>
        <time>2018-03-05T15:33:58Z</time>
      </trkpt>
      <trkpt lat="38.2922950" lon="-0.6933350">
        <ele>137.0</ele>
        <time>2018-03-05T15:33:59Z</time>
      </trkpt>
      <trkpt lat="38.2922420" lon="-0.6933580">
        <ele>137.0</ele>
        <time>2018-03-05T15:34:00Z</time>
      </trkpt>
      <trkpt lat="38.2921880" lon="-0.6933830">
        <ele>137.0</ele>
        <time>2018-03-05T15:34:01Z</time>
      </trkpt>
      <trkpt lat="38.2921320" lon="-0.6934130">
        <ele>137.0</ele>
        <time>2018-03-05T15:34:02Z</time>
      </trkpt>
      <trkpt lat="38.2920760" lon="-0.6934440">
        <ele>137.0</ele>
        <time>2018-03-05T15:34:03Z</time>
      </trkpt>
      <trkpt lat="38.2920190" lon="-0.6934770">
        <ele>136.0</ele>
        <time>2018-03-05T15:34:04Z</time>
      </trkpt>
      <trkpt lat="38.2919600" lon="-0.6935100">
        <ele>136.0</ele>
        <time>2018-03-05T15:34:05Z</time>
      </trkpt>
      <trkpt lat="38.2919020" lon="-0.6935450">
        <ele>136.0</ele>
        <time>2018-03-05T15:34:06Z</time>
      </trkpt>
      <trkpt lat="38.2918440" lon="-0.6935820">
        <ele>136.0</ele>
        <time>2018-03-05T15:34:07Z</time>
      </trkpt>
      <trkpt lat="38.2917840" lon="-0.6936200">
        <ele>136.0</ele>
        <time>2018-03-05T15:34:08Z</time>
      </trkpt>
      <trkpt lat="38.2917240" lon="-0.6936590">
        <ele>136.0</ele>
        <time>2018-03-05T15:34:09Z</time>
      </trkpt>
      <trkpt lat="38.2916640" lon="-0.6937000">
        <ele>136.0</ele>
        <time>2018-03-05T15:34:10Z</time>
      </trkpt>
      <trkpt lat="38.2916030" lon="-0.6937400">
        <ele>136.0</ele>
        <time>2018-03-05T15:34:11Z</time>
      </trkpt>
      <trkpt lat="38.2915410" lon="-0.6937800">
        <ele>135.0</ele>
        <time>2018-03-05T15:34:12Z</time>
      </trkpt>
      <trkpt lat="38.2914800" lon="-0.6938210">
        <ele>135.0</ele>
        <time>2018-03-05T15:34:13Z</time>
      </trkpt>
      <trkpt lat="38.2914190" lon="-0.6938640">
        <ele>135.0</ele>
        <time>2018-03-05T15:34:14Z</time>
      </trkpt>
      <trkpt lat="38.2913580" lon="-0.6939070">
        <ele>135.0</ele>
        <time>2018-03-05T15:34:15Z</time>
      </trkpt>
      <trkpt lat="38.2912970" lon="-0.6939500">
        <ele>135.0</ele>
        <time>2018-03-05T15:34:16Z</time>
      </trkpt>
      <trkpt lat="38.2912360" lon="-0.6939930">
        <ele>135.0</ele>
        <time>2018-03-05T15:34:17Z</time>
      </trkpt>
      <trkpt lat="38.2911750" lon="-0.6940370">
        <ele>135.0</ele>
        <time>2018-03-05T15:34:18Z</time>
      </trkpt>
      <trkpt lat="38.2911140" lon="-0.6940820">
        <ele>135.0</ele>
        <time>2018-03-05T15:34:19Z</time>
      </trkpt>
      <trkpt lat="38.2910520" lon="-0.6941270">
        <ele>134.0</ele>
        <time>2018-03-05T15:34:20Z</time>
      </trkpt>
      <trkpt lat="38.2909900" lon="-0.6941740">
        <ele>134.0</ele>
        <time>2018-03-05T15:34:21Z</time>
      </trkpt>
      <trkpt lat="38.2909270" lon="-0.6942250">
        <ele>134.0</ele>
        <time>2018-03-05T15:34:22Z</time>
      </trkpt>
      <trkpt lat="38.2908650" lon="-0.6942790">
        <ele>133.0</ele>
        <time>2018-03-05T15:34:23Z</time>
      </trkpt>
      <trkpt lat="38.2908030" lon="-0.6943370">
        <ele>132.0</ele>
        <time>2018-03-05T15:34:24Z</time>
      </trkpt>
      <trkpt lat="38.2907400" lon="-0.6944010">
        <ele>132.0</ele>
        <time>2018-03-05T15:34:25Z</time>
      </trkpt>
      <trkpt lat="38.2906750" lon="-0.6944680">
        <ele>131.0</ele>
        <time>2018-03-05T15:34:26Z</time>
      </trkpt>
      <trkpt lat="38.2906080" lon="-0.6945340">
        <ele>130.0</ele>
        <time>2018-03-05T15:34:27Z</time>
      </trkpt>
      <trkpt lat="38.2905380" lon="-0.6945990">
        <ele>130.0</ele>
        <time>2018-03-05T15:34:28Z</time>
      </trkpt>
      <trkpt lat="38.2904640" lon="-0.6946620">
        <ele>129.0</ele>
        <time>2018-03-05T15:34:29Z</time>
      </trkpt>
      <trkpt lat="38.2903880" lon="-0.6947250">
        <ele>129.0</ele>
        <time>2018-03-05T15:34:30Z</time>
      </trkpt>
      <trkpt lat="38.2903110" lon="-0.6947830">
        <ele>128.0</ele>
        <time>2018-03-05T15:34:31Z</time>
      </trkpt>
      <trkpt lat="38.2902310" lon="-0.6948350">
        <ele>128.0</ele>
        <time>2018-03-05T15:34:32Z</time>
      </trkpt>
      <trkpt lat="38.2901530" lon="-0.6948830">
        <ele>128.0</ele>
        <time>2018-03-05T15:34:33Z</time>
      </trkpt>
      <trkpt lat="38.2900740" lon="-0.6949290">
        <ele>128.0</ele>
        <time>2018-03-05T15:34:34Z</time>
      </trkpt>
      <trkpt lat="38.2899950" lon="-0.6949740">
        <ele>127.0</ele>
        <time>2018-03-05T15:34:35Z</time>
      </trkpt>
      <trkpt lat="38.2899180" lon="-0.6950190">
        <ele>127.0</ele>
        <time>2018-03-05T15:34:36Z</time>
      </trkpt>
      <trkpt lat="38.2898410" lon="-0.6950640">
        <ele>127.0</ele>
        <time>2018-03-05T15:34:37Z</time>
      </trkpt>
      <trkpt lat="38.2897650" lon="-0.6951080">
        <ele>127.0</ele>
        <time>2018-03-05T15:34:38Z</time>
      </trkpt>
      <trkpt lat="38.2896900" lon="-0.6951540">
        <ele>126.0</ele>
        <time>2018-03-05T15:34:39Z</time>
      </trkpt>
      <trkpt lat="38.2896160" lon="-0.6952000">
        <ele>126.0</ele>
        <time>2018-03-05T15:34:40Z</time>
      </trkpt>
      <trkpt lat="38.2895420" lon="-0.6952470">
        <ele>126.0</ele>
        <time>2018-03-05T15:34:41Z</time>
      </trkpt>
      <trkpt lat="38.2894680" lon="-0.6952940">
        <ele>126.0</ele>
        <time>2018-03-05T15:34:42Z</time>
      </trkpt>
      <trkpt lat="38.2893940" lon="-0.6953380">
        <ele>126.0</ele>
        <time>2018-03-05T15:34:43Z</time>
      </trkpt>
      <trkpt lat="38.2893200" lon="-0.6953790">
        <ele>126.0</ele>
        <time>2018-03-05T15:34:44Z</time>
      </trkpt>
      <trkpt lat="38.2892470" lon="-0.6954210">
        <ele>125.0</ele>
        <time>2018-03-05T15:34:45Z</time>
      </trkpt>
      <trkpt lat="38.2891730" lon="-0.6954650">
        <ele>125.0</ele>
        <time>2018-03-05T15:34:46Z</time>
      </trkpt>
      <trkpt lat="38.2890990" lon="-0.6955070">
        <ele>125.0</ele>
        <time>2018-03-05T15:34:47Z</time>
      </trkpt>
      <trkpt lat="38.2890250" lon="-0.6955470">
        <ele>124.0</ele>
        <time>2018-03-05T15:34:48Z</time>
      </trkpt>
      <trkpt lat="38.2889510" lon="-0.6955890">
        <ele>124.0</ele>
        <time>2018-03-05T15:34:49Z</time>
      </trkpt>
      <trkpt lat="38.2888800" lon="-0.6956380">
        <ele>124.0</ele>
        <time>2018-03-05T15:34:50Z</time>
      </trkpt>
      <trkpt lat="38.2888120" lon="-0.6956910">
        <ele>124.0</ele>
        <time>2018-03-05T15:34:51Z</time>
      </trkpt>
      <trkpt lat="38.2887480" lon="-0.6957530">
        <ele>123.0</ele>
        <time>2018-03-05T15:34:52Z</time>
      </trkpt>
      <trkpt lat="38.2886870" lon="-0.6958230">
        <ele>122.0</ele>
        <time>2018-03-05T15:34:53Z</time>
      </trkpt>
      <trkpt lat="38.2886300" lon="-0.6958970">
        <ele>122.0</ele>
        <time>2018-03-05T15:34:54Z</time>
      </trkpt>
      <trkpt lat="38.2885730" lon="-0.6959710">
        <ele>122.0</ele>
        <time>2018-03-05T15:34:55Z</time>
      </trkpt>
      <trkpt lat="38.2885230" lon="-0.6960500">
        <ele>121.0</ele>
        <time>2018-03-05T15:34:56Z</time>
      </trkpt>
      <trkpt lat="38.2884810" lon="-0.6961320">
        <ele>121.0</ele>
        <time>2018-03-05T15:34:57Z</time>
      </trkpt>
      <trkpt lat="38.2884430" lon="-0.6962180">
        <ele>121.0</ele>
        <time>2018-03-05T15:34:58Z</time>
      </trkpt>
      <trkpt lat="38.2884090" lon="-0.6963040">
        <ele>120.0</ele>
        <time>2018-03-05T15:34:59Z</time>
      </trkpt>
      <trkpt lat="38.2883710" lon="-0.6963920">
        <ele>120.0</ele>
        <time>2018-03-05T15:35:00Z</time>
      </trkpt>
      <trkpt lat="38.2883200" lon="-0.6964730">
        <ele>119.0</ele>
        <time>2018-03-05T15:35:01Z</time>
      </trkpt>
      <trkpt lat="38.2882550" lon="-0.6965410">
        <ele>119.0</ele>
        <time>2018-03-05T15:35:02Z</time>
      </trkpt>
      <trkpt lat="38.2881820" lon="-0.6965890">
        <ele>118.0</ele>
        <time>2018-03-05T15:35:03Z</time>
      </trkpt>
      <trkpt lat="38.2881050" lon="-0.6966140">
        <ele>117.0</ele>
        <time>2018-03-05T15:35:04Z</time>
      </trkpt>
      <trkpt lat="38.2880240" lon="-0.6965980">
        <ele>115.0</ele>
        <time>2018-03-05T15:35:05Z</time>
      </trkpt>
      <trkpt lat="38.2879410" lon="-0.6965580">
        <ele>115.0</ele>
        <time>2018-03-05T15:35:06Z</time>
      </trkpt>
      <trkpt lat="38.2878600" lon="-0.6965110">
        <ele>114.0</ele>
        <time>2018-03-05T15:35:07Z</time>
      </trkpt>
      <trkpt lat="38.2877740" lon="-0.6964720">
        <ele>114.0</ele>
        <time>2018-03-05T15:35:08Z</time>
      </trkpt>
      <trkpt lat="38.2876870" lon="-0.6964500">
        <ele>113.0</ele>
        <time>2018-03-05T15:35:09Z</time>
      </trkpt>
      <trkpt lat="38.2875970" lon="-0.6964620">
        <ele>113.0</ele>
        <time>2018-03-05T15:35:10Z</time>
      </trkpt>
      <trkpt lat="38.2875100" lon="-0.6964960">
        <ele>112.0</ele>
        <time>2018-03-05T15:35:11Z</time>
      </trkpt>
      <trkpt lat="38.2874280" lon="-0.6965410">
        <ele>113.0</ele>
        <time>2018-03-05T15:35:12Z</time>
      </trkpt>
      <trkpt lat="38.2873480" lon="-0.6965910">
        <ele>112.0</ele>
        <time>2018-03-05T15:35:13Z</time>
      </trkpt>
      <trkpt lat="38.2872690" lon="-0.6966380">
        <ele>112.0</ele>
        <time>2018-03-05T15:35:14Z</time>
      </trkpt>
      <trkpt lat="38.2871900" lon="-0.6966820">
        <ele>112.0</ele>
        <time>2018-03-05T15:35:15Z</time>
      </trkpt>
      <trkpt lat="38.2871100" lon="-0.6967190">
        <ele>112.0</ele>
        <time>2018-03-05T15:35:16Z</time>
      </trkpt>
      <trkpt lat="38.2870290" lon="-0.6967500">
        <ele>113.0</ele>
        <time>2018-03-05T15:35:17Z</time>
      </trkpt>
      <trkpt lat="38.2869490" lon="-0.6967740">
        <ele>113.0</ele>
        <time>2018-03-05T15:35:18Z</time>
      </trkpt>
      <trkpt lat="38.2868680" lon="-0.6967960">
        <ele>112.0</ele>
        <time>2018-03-05T15:35:19Z</time>
      </trkpt>
      <trkpt lat="38.2867870" lon="-0.6968100">
        <ele>112.0</ele>
        <time>2018-03-05T15:35:20Z</time>
      </trkpt>
      <trkpt lat="38.2867050" lon="-0.6968200">
        <ele>112.0</ele>
        <time>2018-03-05T15:35:21Z</time>
      </trkpt>
      <trkpt lat="38.2866240" lon="-0.6968260">
        <ele>112.0</ele>
        <time>2018-03-05T15:35:22Z</time>
      </trkpt>
      <trkpt lat="38.2865440" lon="-0.6968360">
        <ele>112.0</ele>
        <time>2018-03-05T15:35:23Z</time>
      </trkpt>
      <trkpt lat="38.2864660" lon="-0.6968450">
        <ele>112.0</ele>
        <time>2018-03-05T15:35:24Z</time>
      </trkpt>
      <trkpt lat="38.2863880" lon="-0.6968580">
        <ele>112.0</ele>
        <time>2018-03-05T15:35:25Z</time>
      </trkpt>
      <trkpt lat="38.2863120" lon="-0.6968720">
        <ele>112.0</ele>
        <time>2018-03-05T15:35:26Z</time>
      </trkpt>
      <trkpt lat="38.2862390" lon="-0.6968930">
        <ele>112.0</ele>
        <time>2018-03-05T15:35:27Z</time>
      </trkpt>
      <trkpt lat="38.2861680" lon="-0.6969210">
        <ele>112.0</ele>
        <time>2018-03-05T15:35:28Z</time>
      </trkpt>
      <trkpt lat="38.2861000" lon="-0.6969570">
        <ele>112.0</ele>
        <time>2018-03-05T15:35:29Z</time>
      </trkpt>
      <trkpt lat="38.2860330" lon="-0.6969950">
        <ele>112.0</ele>
        <time>2018-03-05T15:35:30Z</time>
      </trkpt>
      <trkpt lat="38.2859660" lon="-0.6970360">
        <ele>112.0</ele>
        <time>2018-03-05T15:35:31Z</time>
      </trkpt>
      <trkpt lat="38.2859010" lon="-0.6970750">
        <ele>112.0</ele>
        <time>2018-03-05T15:35:32Z</time>
      </trkpt>
      <trkpt lat="38.2858360" lon="-0.6971160">
        <ele>112.0</ele>
        <time>2018-03-05T15:35:33Z</time>
      </trkpt>
      <trkpt lat="38.2857720" lon="-0.6971570">
        <ele>112.0</ele>
        <time>2018-03-05T15:35:34Z</time>
      </trkpt>
      <trkpt lat="38.2857090" lon="-0.6971980">
        <ele>112.0</ele>
        <time>2018-03-05T15:35:35Z</time>
      </trkpt>
      <trkpt lat="38.2856480" lon="-0.6972390">
        <ele>112.0</ele>
        <time>2018-03-05T15:35:36Z</time>
      </trkpt>
      <trkpt lat="38.2855880" lon="-0.6972810">
        <ele>112.0</ele>
        <time>2018-03-05T15:35:37Z</time>
      </trkpt>
      <trkpt lat="38.2855290" lon="-0.6973230">
        <ele>112.0</ele>
        <time>2018-03-05T15:35:38Z</time>
      </trkpt>
      <trkpt lat="38.2854690" lon="-0.6973650">
        <ele>112.0</ele>
        <time>2018-03-05T15:35:39Z</time>
      </trkpt>
      <trkpt lat="38.2854050" lon="-0.6974020">
        <ele>111.0</ele>
        <time>2018-03-05T15:35:40Z</time>
      </trkpt>
      <trkpt lat="38.2853370" lon="-0.6974370">
        <ele>110.0</ele>
        <time>2018-03-05T15:35:41Z</time>
      </trkpt>
      <trkpt lat="38.2852670" lon="-0.6974660">
        <ele>110.0</ele>
        <time>2018-03-05T15:35:42Z</time>
      </trkpt>
      <trkpt lat="38.2851920" lon="-0.6974880">
        <ele>110.0</ele>
        <time>2018-03-05T15:35:43Z</time>
      </trkpt>
      <trkpt lat="38.2851130" lon="-0.6975020">
        <ele>109.0</ele>
        <time>2018-03-05T15:35:44Z</time>
      </trkpt>
      <trkpt lat="38.2850240" lon="-0.6975010">
        <ele>109.0</ele>
        <time>2018-03-05T15:35:45Z</time>
      </trkpt>
      <trkpt lat="38.2849340" lon="-0.6974940">
        <ele>108.0</ele>
        <time>2018-03-05T15:35:46Z</time>
      </trkpt>
      <trkpt lat="38.2848440" lon="-0.6974860">
        <ele>108.0</ele>
        <time>2018-03-05T15:35:47Z</time>
      </trkpt>
      <trkpt lat="38.2847550" lon="-0.6974780">
        <ele>108.0</ele>
        <time>2018-03-05T15:35:48Z</time>
      </trkpt>
      <trkpt lat="38.2846630" lon="-0.6974730">
        <ele>107.0</ele>
        <time>2018-03-05T15:35:49Z</time>
      </trkpt>
      <trkpt lat="38.2845670" lon="-0.6974680">
        <ele>107.0</ele>
        <time>2018-03-05T15:35:50Z</time>
      </trkpt>
      <trkpt lat="38.2844740" lon="-0.6974660">
        <ele>107.0</ele>
        <time>2018-03-05T15:35:51Z</time>
      </trkpt>
      <trkpt lat="38.2843830" lon="-0.6974620">
        <ele>107.0</ele>
        <time>2018-03-05T15:35:52Z</time>
      </trkpt>
      <trkpt lat="38.2842980" lon="-0.6974540">
        <ele>107.0</ele>
        <time>2018-03-05T15:35:53Z</time>
      </trkpt>
      <trkpt lat="38.2842120" lon="-0.6974520">
        <ele>107.0</ele>
        <time>2018-03-05T15:35:54Z</time>
      </trkpt>
      <trkpt lat="38.2841390" lon="-0.6974590">
        <ele>108.0</ele>
        <time>2018-03-05T15:35:55Z</time>
      </trkpt>
      <trkpt lat="38.2840650" lon="-0.6974530">
        <ele>108.0</ele>
        <time>2018-03-05T15:35:56Z</time>
      </trkpt>
      <trkpt lat="38.2840010" lon="-0.6974400">
        <ele>108.0</ele>
        <time>2018-03-05T15:35:57Z</time>
      </trkpt>
      <trkpt lat="38.2839420" lon="-0.6974240">
        <ele>109.0</ele>
        <time>2018-03-05T15:35:58Z</time>
      </trkpt>
      <trkpt lat="38.2838820" lon="-0.6974070">
        <ele>109.0</ele>
        <time>2018-03-05T15:35:59Z</time>
      </trkpt>
      <trkpt lat="38.2838320" lon="-0.6973850">
        <ele>109.0</ele>
        <time>2018-03-05T15:36:00Z</time>
      </trkpt>
      <trkpt lat="38.2837800" lon="-0.6973660">
        <ele>109.0</ele>
        <time>2018-03-05T15:36:01Z</time>
      </trkpt>
      <trkpt lat="38.2837280" lon="-0.6973420">
        <ele>109.0</ele>
        <time>2018-03-05T15:36:02Z</time>
      </trkpt>
      <trkpt lat="38.2836690" lon="-0.6973240">
        <ele>108.0</ele>
        <time>2018-03-05T15:36:03Z</time>
      </trkpt>
      <trkpt lat="38.2836140" lon="-0.6973070">
        <ele>108.0</ele>
        <time>2018-03-05T15:36:04Z</time>
      </trkpt>
      <trkpt lat="38.2835530" lon="-0.6972890">
        <ele>108.0</ele>
        <time>2018-03-05T15:36:05Z</time>
      </trkpt>
      <trkpt lat="38.2834930" lon="-0.6972720">
        <ele>108.0</ele>
        <time>2018-03-05T15:36:06Z</time>
      </trkpt>
      <trkpt lat="38.2834310" lon="-0.6972570">
        <ele>108.0</ele>
        <time>2018-03-05T15:36:07Z</time>
      </trkpt>
      <trkpt lat="38.2833680" lon="-0.6972410">
        <ele>108.0</ele>
        <time>2018-03-05T15:36:08Z</time>
      </trkpt>
      <trkpt lat="38.2833040" lon="-0.6972260">
        <ele>108.0</ele>
        <time>2018-03-05T15:36:09Z</time>
      </trkpt>
      <trkpt lat="38.2832390" lon="-0.6972140">
        <ele>108.0</ele>
        <time>2018-03-05T15:36:10Z</time>
      </trkpt>
      <trkpt lat="38.2831740" lon="-0.6972030">
        <ele>108.0</ele>
        <time>2018-03-05T15:36:11Z</time>
      </trkpt>
      <trkpt lat="38.2831070" lon="-0.6971900">
        <ele>108.0</ele>
        <time>2018-03-05T15:36:12Z</time>
      </trkpt>
      <trkpt lat="38.2830400" lon="-0.6971740">
        <ele>108.0</ele>
        <time>2018-03-05T15:36:13Z</time>
      </trkpt>
      <trkpt lat="38.2829710" lon="-0.6971600">
        <ele>108.0</ele>
        <time>2018-03-05T15:36:14Z</time>
      </trkpt>
      <trkpt lat="38.2829020" lon="-0.6971430">
        <ele>107.0</ele>
        <time>2018-03-05T15:36:15Z</time>
      </trkpt>
      <trkpt lat="38.2828330" lon="-0.6971230">
        <ele>107.0</ele>
        <time>2018-03-05T15:36:16Z</time>
      </trkpt>
      <trkpt lat="38.2827640" lon="-0.6971050">
        <ele>107.0</ele>
        <time>2018-03-05T15:36:17Z</time>
      </trkpt>
      <trkpt lat="38.2826940" lon="-0.6970880">
        <ele>107.0</ele>
        <time>2018-03-05T15:36:18Z</time>
      </trkpt>
      <trkpt lat="38.2826240" lon="-0.6970730">
        <ele>107.0</ele>
        <time>2018-03-05T15:36:19Z</time>
      </trkpt>
      <trkpt lat="38.2825550" lon="-0.6970600">
        <ele>107.0</ele>
        <time>2018-03-05T15:36:20Z</time>
      </trkpt>
      <trkpt lat="38.2824870" lon="-0.6970450">
        <ele>107.0</ele>
        <time>2018-03-05T15:36:21Z</time>
      </trkpt>
      <trkpt lat="38.2824220" lon="-0.6970250">
        <ele>107.0</ele>
        <time>2018-03-05T15:36:22Z</time>
      </trkpt>
      <trkpt lat="38.2823550" lon="-0.6970100">
        <ele>107.0</ele>
        <time>2018-03-05T15:36:23Z</time>
      </trkpt>
      <trkpt lat="38.2822890" lon="-0.6969900">
        <ele>107.0</ele>
        <time>2018-03-05T15:36:24Z</time>
      </trkpt>
      <trkpt lat="38.2822270" lon="-0.6969620">
        <ele>107.0</ele>
        <time>2018-03-05T15:36:25Z</time>
      </trkpt>
      <trkpt lat="38.2821630" lon="-0.6969330">
        <ele>107.0</ele>
        <time>2018-03-05T15:36:26Z</time>
      </trkpt>
      <trkpt lat="38.2821010" lon="-0.6969020">
        <ele>107.0</ele>
        <time>2018-03-05T15:36:27Z</time>
      </trkpt>
      <trkpt lat="38.2820390" lon="-0.6968730">
        <ele>107.0</ele>
        <time>2018-03-05T15:36:28Z</time>
      </trkpt>
      <trkpt lat="38.2819760" lon="-0.6968460">
        <ele>107.0</ele>
        <time>2018-03-05T15:36:29Z</time>
      </trkpt>
      <trkpt lat="38.2819150" lon="-0.6968200">
        <ele>107.0</ele>
        <time>2018-03-05T15:36:30Z</time>
      </trkpt>
      <trkpt lat="38.2818530" lon="-0.6967950">
        <ele>107.0</ele>
        <time>2018-03-05T15:36:31Z</time>
      </trkpt>
      <trkpt lat="38.2817900" lon="-0.6967730">
        <ele>108.0</ele>
        <time>2018-03-05T15:36:32Z</time>
      </trkpt>
      <trkpt lat="38.2817310" lon="-0.6967590">
        <ele>107.0</ele>
        <time>2018-03-05T15:36:33Z</time>
      </trkpt>
      <trkpt lat="38.2817940" lon="-0.6967620">
        <ele>108.0</ele>
        <time>2018-03-05T15:36:34Z</time>
      </trkpt>
      <trkpt lat="38.2817710" lon="-0.6967590">
        <ele>109.0</ele>
        <time>2018-03-05T15:36:35Z</time>
      </trkpt>
      <trkpt lat="38.2817480" lon="-0.6967510">
        <ele>109.0</ele>
        <time>2018-03-05T15:36:36Z</time>
      </trkpt>
      <trkpt lat="38.2816960" lon="-0.6967500">
        <ele>108.0</ele>
        <time>2018-03-05T15:36:37Z</time>
      </trkpt>
      <trkpt lat="38.2816530" lon="-0.6967430">
        <ele>108.0</ele>
        <time>2018-03-05T15:36:38Z</time>
      </trkpt>
      <trkpt lat="38.2816030" lon="-0.6967330">
        <ele>107.0</ele>
        <time>2018-03-05T15:36:39Z</time>
      </trkpt>
      <trkpt lat="38.2815510" lon="-0.6967200">
        <ele>107.0</ele>
        <time>2018-03-05T15:36:40Z</time>
      </trkpt>
      <trkpt lat="38.2814960" lon="-0.6967120">
        <ele>107.0</ele>
        <time>2018-03-05T15:36:41Z</time>
      </trkpt>
      <trkpt lat="38.2814380" lon="-0.6967060">
        <ele>107.0</ele>
        <time>2018-03-05T15:36:42Z</time>
      </trkpt>
      <trkpt lat="38.2813800" lon="-0.6967030">
        <ele>107.0</ele>
        <time>2018-03-05T15:36:43Z</time>
      </trkpt>
      <trkpt lat="38.2813190" lon="-0.6967040">
        <ele>107.0</ele>
        <time>2018-03-05T15:36:44Z</time>
      </trkpt>
      <trkpt lat="38.2812590" lon="-0.6967060">
        <ele>107.0</ele>
        <time>2018-03-05T15:36:45Z</time>
      </trkpt>
      <trkpt lat="38.2811970" lon="-0.6967060">
        <ele>107.0</ele>
        <time>2018-03-05T15:36:46Z</time>
      </trkpt>
      <trkpt lat="38.2811340" lon="-0.6967060">
        <ele>106.0</ele>
        <time>2018-03-05T15:36:47Z</time>
      </trkpt>
      <trkpt lat="38.2810710" lon="-0.6967070">
        <ele>106.0</ele>
        <time>2018-03-05T15:36:48Z</time>
      </trkpt>
      <trkpt lat="38.2810040" lon="-0.6967090">
        <ele>106.0</ele>
        <time>2018-03-05T15:36:49Z</time>
      </trkpt>
      <trkpt lat="38.2809380" lon="-0.6967090">
        <ele>106.0</ele>
        <time>2018-03-05T15:36:50Z</time>
      </trkpt>
      <trkpt lat="38.2808730" lon="-0.6967070">
        <ele>106.0</ele>
        <time>2018-03-05T15:36:51Z</time>
      </trkpt>
      <trkpt lat="38.2808010" lon="-0.6967080">
        <ele>106.0</ele>
        <time>2018-03-05T15:36:52Z</time>
      </trkpt>
      <trkpt lat="38.2807290" lon="-0.6967080">
        <ele>105.0</ele>
        <time>2018-03-05T15:36:53Z</time>
      </trkpt>
      <trkpt lat="38.2806540" lon="-0.6967080">
        <ele>105.0</ele>
        <time>2018-03-05T15:36:54Z</time>
      </trkpt>
      <trkpt lat="38.2805800" lon="-0.6967050">
        <ele>105.0</ele>
        <time>2018-03-05T15:36:55Z</time>
      </trkpt>
      <trkpt lat="38.2805060" lon="-0.6967010">
        <ele>104.0</ele>
        <time>2018-03-05T15:36:56Z</time>
      </trkpt>
      <trkpt lat="38.2804330" lon="-0.6966970">
        <ele>104.0</ele>
        <time>2018-03-05T15:36:57Z</time>
      </trkpt>
      <trkpt lat="38.2803620" lon="-0.6966930">
        <ele>104.0</ele>
        <time>2018-03-05T15:36:58Z</time>
      </trkpt>
      <trkpt lat="38.2803000" lon="-0.6966920">
        <ele>104.0</ele>
        <time>2018-03-05T15:36:59Z</time>
      </trkpt>
      <trkpt lat="38.2802520" lon="-0.6966920">
        <ele>104.0</ele>
        <time>2018-03-05T15:37:00Z</time>
      </trkpt>
      <trkpt lat="38.2802100" lon="-0.6966970">
        <ele>104.0</ele>
        <time>2018-03-05T15:37:01Z</time>
      </trkpt>
      <trkpt lat="38.2801860" lon="-0.6967020">
        <ele>104.0</ele>
        <time>2018-03-05T15:37:02Z</time>
      </trkpt>
      <trkpt lat="38.2801640" lon="-0.6967110">
        <ele>104.0</ele>
        <time>2018-03-05T15:37:03Z</time>
      </trkpt>
      <trkpt lat="38.2801470" lon="-0.6967180">
        <ele>104.0</ele>
        <time>2018-03-05T15:37:04Z</time>
      </trkpt>
      <trkpt lat="38.2801320" lon="-0.6967230">
        <ele>104.0</ele>
        <time>2018-03-05T15:37:05Z</time>
      </trkpt>
      <trkpt lat="38.2801150" lon="-0.6967320">
        <ele>104.0</ele>
        <time>2018-03-05T15:37:06Z</time>
      </trkpt>
      <trkpt lat="38.2800930" lon="-0.6967500">
        <ele>104.0</ele>
        <time>2018-03-05T15:37:07Z</time>
      </trkpt>
      <trkpt lat="38.2800630" lon="-0.6967670">
        <ele>104.0</ele>
        <time>2018-03-05T15:37:08Z</time>
      </trkpt>
      <trkpt lat="38.2800260" lon="-0.6968020">
        <ele>105.0</ele>
        <time>2018-03-05T15:37:09Z</time>
      </trkpt>
      <trkpt lat="38.2799890" lon="-0.6968340">
        <ele>105.0</ele>
        <time>2018-03-05T15:37:10Z</time>
      </trkpt>
      <trkpt lat="38.2799450" lon="-0.6968660">
        <ele>105.0</ele>
        <time>2018-03-05T15:37:11Z</time>
      </trkpt>
      <trkpt lat="38.2798910" lon="-0.6968900">
        <ele>104.0</ele>
        <time>2018-03-05T15:37:12Z</time>
      </trkpt>
      <trkpt lat="38.2798340" lon="-0.6969060">
        <ele>104.0</ele>
        <time>2018-03-05T15:37:13Z</time>
      </trkpt>
      <trkpt lat="38.2797740" lon="-0.6969120">
        <ele>104.0</ele>
        <time>2018-03-05T15:37:14Z</time>
      </trkpt>
      <trkpt lat="38.2797090" lon="-0.6969050">
        <ele>103.0</ele>
        <time>2018-03-05T15:37:15Z</time>
      </trkpt>
      <trkpt lat="38.2796460" lon="-0.6968820">
        <ele>102.0</ele>
        <time>2018-03-05T15:37:16Z</time>
      </trkpt>
      <trkpt lat="38.2795840" lon="-0.6968510">
        <ele>102.0</ele>
        <time>2018-03-05T15:37:17Z</time>
      </trkpt>
      <trkpt lat="38.2795280" lon="-0.6968010">
        <ele>102.0</ele>
        <time>2018-03-05T15:37:18Z</time>
      </trkpt>
      <trkpt lat="38.2794900" lon="-0.6967330">
        <ele>102.0</ele>
        <time>2018-03-05T15:37:19Z</time>
      </trkpt>
      <trkpt lat="38.2794560" lon="-0.6966570">
        <ele>102.0</ele>
        <time>2018-03-05T15:37:20Z</time>
      </trkpt>
      <trkpt lat="38.2794340" lon="-0.6965720">
        <ele>102.0</ele>
        <time>2018-03-05T15:37:21Z</time>
      </trkpt>
      <trkpt lat="38.2794250" lon="-0.6964820">
        <ele>102.0</ele>
        <time>2018-03-05T15:37:22Z</time>
      </trkpt>
      <trkpt lat="38.2794320" lon="-0.6963930">
        <ele>102.0</ele>
        <time>2018-03-05T15:37:23Z</time>
      </trkpt>
      <trkpt lat="38.2794510" lon="-0.6963090">
        <ele>101.0</ele>
        <time>2018-03-05T15:37:24Z</time>
      </trkpt>
      <trkpt lat="38.2794850" lon="-0.6962310">
        <ele>101.0</ele>
        <time>2018-03-05T15:37:25Z</time>
      </trkpt>
      <trkpt lat="38.2795280" lon="-0.6961600">
        <ele>101.0</ele>
        <time>2018-03-05T15:37:26Z</time>
      </trkpt>
      <trkpt lat="38.2795760" lon="-0.6960990">
        <ele>102.0</ele>
        <time>2018-03-05T15:37:27Z</time>
      </trkpt>
      <trkpt lat="38.2796290" lon="-0.6960390">
        <ele>102.0</ele>
        <time>2018-03-05T15:37:28Z</time>
      </trkpt>
      <trkpt lat="38.2796780" lon="-0.6959730">
        <ele>103.0</ele>
        <time>2018-03-05T15:37:29Z</time>
      </trkpt>
      <trkpt lat="38.2797110" lon="-0.6958950">
        <ele>102.0</ele>
        <time>2018-03-05T15:37:30Z</time>
      </trkpt>
      <trkpt lat="38.2797300" lon="-0.6958110">
        <ele>103.0</ele>
        <time>2018-03-05T15:37:31Z</time>
      </trkpt>
      <trkpt lat="38.2797320" lon="-0.6957230">
        <ele>103.0</ele>
        <time>2018-03-05T15:37:32Z</time>
      </trkpt>
      <trkpt lat="38.2797330" lon="-0.6956370">
        <ele>103.0</ele>
        <time>2018-03-05T15:37:33Z</time>
      </trkpt>
      <trkpt lat="38.2797370" lon="-0.6955490">
        <ele>103.0</ele>
        <time>2018-03-05T15:37:34Z</time>
      </trkpt>
      <trkpt lat="38.2797420" lon="-0.6954620">
        <ele>103.0</ele>
        <time>2018-03-05T15:37:35Z</time>
      </trkpt>
      <trkpt lat="38.2797460" lon="-0.6953730">
        <ele>103.0</ele>
        <time>2018-03-05T15:37:36Z</time>
      </trkpt>
      <trkpt lat="38.2797510" lon="-0.6952840">
        <ele>103.0</ele>
        <time>2018-03-05T15:37:37Z</time>
      </trkpt>
      <trkpt lat="38.2797570" lon="-0.6951930">
        <ele>103.0</ele>
        <time>2018-03-05T15:37:38Z</time>
      </trkpt>
      <trkpt lat="38.2797630" lon="-0.6951020">
        <ele>103.0</ele>
        <time>2018-03-05T15:37:39Z</time>
      </trkpt>
      <trkpt lat="38.2797690" lon="-0.6950100">
        <ele>103.0</ele>
        <time>2018-03-05T15:37:40Z</time>
      </trkpt>
      <trkpt lat="38.2797760" lon="-0.6949180">
        <ele>103.0</ele>
        <time>2018-03-05T15:37:41Z</time>
      </trkpt>
      <trkpt lat="38.2797830" lon="-0.6948270">
        <ele>103.0</ele>
        <time>2018-03-05T15:37:42Z</time>
      </trkpt>
      <trkpt lat="38.2797910" lon="-0.6947350">
        <ele>103.0</ele>
        <time>2018-03-05T15:37:43Z</time>
      </trkpt>
      <trkpt lat="38.2797960" lon="-0.6946430">
        <ele>103.0</ele>
        <time>2018-03-05T15:37:44Z</time>
      </trkpt>
      <trkpt lat="38.2798020" lon="-0.6945520">
        <ele>103.0</ele>
        <time>2018-03-05T15:37:45Z</time>
      </trkpt>
      <trkpt lat="38.2798070" lon="-0.6944610">
        <ele>103.0</ele>
        <time>2018-03-05T15:37:46Z</time>
      </trkpt>
      <trkpt lat="38.2798120" lon="-0.6943700">
        <ele>103.0</ele>
        <time>2018-03-05T15:37:47Z</time>
      </trkpt>
      <trkpt lat="38.2798160" lon="-0.6942780">
        <ele>104.0</ele>
        <time>2018-03-05T15:37:48Z</time>
      </trkpt>
      <trkpt lat="38.2798200" lon="-0.6941840">
        <ele>104.0</ele>
        <time>2018-03-05T15:37:49Z</time>
      </trkpt>
      <trkpt lat="38.2798250" lon="-0.6940940">
        <ele>104.0</ele>
        <time>2018-03-05T15:37:50Z</time>
      </trkpt>
      <trkpt lat="38.2798310" lon="-0.6940050">
        <ele>105.0</ele>
        <time>2018-03-05T15:37:51Z</time>
      </trkpt>
      <trkpt lat="38.2798360" lon="-0.6939160">
        <ele>105.0</ele>
        <time>2018-03-05T15:37:52Z</time>
      </trkpt>
      <trkpt lat="38.2798400" lon="-0.6938270">
        <ele>105.0</ele>
        <time>2018-03-05T15:37:53Z</time>
      </trkpt>
      <trkpt lat="38.2798470" lon="-0.6937410">
        <ele>105.0</ele>
        <time>2018-03-05T15:37:54Z</time>
      </trkpt>
      <trkpt lat="38.2798530" lon="-0.6936540">
        <ele>105.0</ele>
        <time>2018-03-05T15:37:55Z</time>
      </trkpt>
      <trkpt lat="38.2798580" lon="-0.6935680">
        <ele>105.0</ele>
        <time>2018-03-05T15:37:56Z</time>
      </trkpt>
      <trkpt lat="38.2798630" lon="-0.6934810">
        <ele>105.0</ele>
        <time>2018-03-05T15:37:57Z</time>
      </trkpt>
      <trkpt lat="38.2798690" lon="-0.6933950">
        <ele>105.0</ele>
        <time>2018-03-05T15:37:58Z</time>
      </trkpt>
      <trkpt lat="38.2798760" lon="-0.6933080">
        <ele>105.0</ele>
        <time>2018-03-05T15:37:59Z</time>
      </trkpt>
      <trkpt lat="38.2798830" lon="-0.6932210">
        <ele>105.0</ele>
        <time>2018-03-05T15:38:00Z</time>
      </trkpt>
      <trkpt lat="38.2798910" lon="-0.6931330">
        <ele>105.0</ele>
        <time>2018-03-05T15:38:01Z</time>
      </trkpt>
      <trkpt lat="38.2798990" lon="-0.6930470">
        <ele>105.0</ele>
        <time>2018-03-05T15:38:02Z</time>
      </trkpt>
      <trkpt lat="38.2799090" lon="-0.6929600">
        <ele>105.0</ele>
        <time>2018-03-05T15:38:03Z</time>
      </trkpt>
      <trkpt lat="38.2799230" lon="-0.6928740">
        <ele>105.0</ele>
        <time>2018-03-05T15:38:04Z</time>
      </trkpt>
      <trkpt lat="38.2799380" lon="-0.6927870">
        <ele>105.0</ele>
        <time>2018-03-05T15:38:05Z</time>
      </trkpt>
      <trkpt lat="38.2799540" lon="-0.6927000">
        <ele>105.0</ele>
        <time>2018-03-05T15:38:06Z</time>
      </trkpt>
      <trkpt lat="38.2799710" lon="-0.6926120">
        <ele>106.0</ele>
        <time>2018-03-05T15:38:07Z</time>
      </trkpt>
      <trkpt lat="38.2799900" lon="-0.6925250">
        <ele>106.0</ele>
        <time>2018-03-05T15:38:08Z</time>
      </trkpt>
      <trkpt lat="38.2800090" lon="-0.6924370">
        <ele>107.0</ele>
        <time>2018-03-05T15:38:09Z</time>
      </trkpt>
      <trkpt lat="38.2800330" lon="-0.6923520">
        <ele>107.0</ele>
        <time>2018-03-05T15:38:10Z</time>
      </trkpt>
      <trkpt lat="38.2800570" lon="-0.6922670">
        <ele>107.0</ele>
        <time>2018-03-05T15:38:11Z</time>
      </trkpt>
      <trkpt lat="38.2800820" lon="-0.6921820">
        <ele>107.0</ele>
        <time>2018-03-05T15:38:12Z</time>
      </trkpt>
      <trkpt lat="38.2801090" lon="-0.6920990">
        <ele>107.0</ele>
        <time>2018-03-05T15:38:13Z</time>
      </trkpt>
      <trkpt lat="38.2801380" lon="-0.6920150">
        <ele>107.0</ele>
        <time>2018-03-05T15:38:14Z</time>
      </trkpt>
      <trkpt lat="38.2801660" lon="-0.6919280">
        <ele>107.0</ele>
        <time>2018-03-05T15:38:15Z</time>
      </trkpt>
      <trkpt lat="38.2801950" lon="-0.6918420">
        <ele>107.0</ele>
        <time>2018-03-05T15:38:16Z</time>
      </trkpt>
      <trkpt lat="38.2802250" lon="-0.6917560">
        <ele>107.0</ele>
        <time>2018-03-05T15:38:17Z</time>
      </trkpt>
      <trkpt lat="38.2802540" lon="-0.6916690">
        <ele>107.0</ele>
        <time>2018-03-05T15:38:18Z</time>
      </trkpt>
      <trkpt lat="38.2802840" lon="-0.6915820">
        <ele>107.0</ele>
        <time>2018-03-05T15:38:19Z</time>
      </trkpt>
      <trkpt lat="38.2803130" lon="-0.6914950">
        <ele>107.0</ele>
        <time>2018-03-05T15:38:20Z</time>
      </trkpt>
      <trkpt lat="38.2803430" lon="-0.6914090">
        <ele>107.0</ele>
        <time>2018-03-05T15:38:21Z</time>
      </trkpt>
      <trkpt lat="38.2803730" lon="-0.6913220">
        <ele>107.0</ele>
        <time>2018-03-05T15:38:22Z</time>
      </trkpt>
      <trkpt lat="38.2804040" lon="-0.6912350">
        <ele>107.0</ele>
        <time>2018-03-05T15:38:23Z</time>
      </trkpt>
      <trkpt lat="38.2804340" lon="-0.6911500">
        <ele>107.0</ele>
        <time>2018-03-05T15:38:24Z</time>
      </trkpt>
      <trkpt lat="38.2804650" lon="-0.6910650">
        <ele>107.0</ele>
        <time>2018-03-05T15:38:25Z</time>
      </trkpt>
      <trkpt lat="38.2804940" lon="-0.6909800">
        <ele>107.0</ele>
        <time>2018-03-05T15:38:26Z</time>
      </trkpt>
      <trkpt lat="38.2805210" lon="-0.6908920">
        <ele>108.0</ele>
        <time>2018-03-05T15:38:27Z</time>
      </trkpt>
      <trkpt lat="38.2805490" lon="-0.6908050">
        <ele>109.0</ele>
        <time>2018-03-05T15:38:28Z</time>
      </trkpt>
      <trkpt lat="38.2805780" lon="-0.6907220">
        <ele>108.0</ele>
        <time>2018-03-05T15:38:29Z</time>
      </trkpt>
      <trkpt lat="38.2806080" lon="-0.6906390">
        <ele>108.0</ele>
        <time>2018-03-05T15:38:30Z</time>
      </trkpt>
      <trkpt lat="38.2806360" lon="-0.6905540">
        <ele>108.0</ele>
        <time>2018-03-05T15:38:31Z</time>
      </trkpt>
      <trkpt lat="38.2806650" lon="-0.6904710">
        <ele>108.0</ele>
        <time>2018-03-05T15:38:32Z</time>
      </trkpt>
      <trkpt lat="38.2806940" lon="-0.6903890">
        <ele>108.0</ele>
        <time>2018-03-05T15:38:33Z</time>
      </trkpt>
      <trkpt lat="38.2807220" lon="-0.6903070">
        <ele>109.0</ele>
        <time>2018-03-05T15:38:34Z</time>
      </trkpt>
      <trkpt lat="38.2807510" lon="-0.6902260">
        <ele>109.0</ele>
        <time>2018-03-05T15:38:35Z</time>
      </trkpt>
      <trkpt lat="38.2807790" lon="-0.6901440">
        <ele>109.0</ele>
        <time>2018-03-05T15:38:36Z</time>
      </trkpt>
      <trkpt lat="38.2808030" lon="-0.6900590">
        <ele>109.0</ele>
        <time>2018-03-05T15:38:37Z</time>
      </trkpt>
      <trkpt lat="38.2808260" lon="-0.6899730">
        <ele>108.0</ele>
        <time>2018-03-05T15:38:38Z</time>
      </trkpt>
      <trkpt lat="38.2808280" lon="-0.6898780">
        <ele>108.0</ele>
        <time>2018-03-05T15:38:39Z</time>
      </trkpt>
      <trkpt lat="38.2808060" lon="-0.6897880">
        <ele>107.0</ele>
        <time>2018-03-05T15:38:40Z</time>
      </trkpt>
      <trkpt lat="38.2807660" lon="-0.6897060">
        <ele>106.0</ele>
        <time>2018-03-05T15:38:41Z</time>
      </trkpt>
      <trkpt lat="38.2807490" lon="-0.6896130">
        <ele>107.0</ele>
        <time>2018-03-05T15:38:42Z</time>
      </trkpt>
      <trkpt lat="38.2807400" lon="-0.6895160">
        <ele>107.0</ele>
        <time>2018-03-05T15:38:43Z</time>
      </trkpt>
      <trkpt lat="38.2807540" lon="-0.6894190">
        <ele>107.0</ele>
        <time>2018-03-05T15:38:44Z</time>
      </trkpt>
      <trkpt lat="38.2807860" lon="-0.6893350">
        <ele>106.0</ele>
        <time>2018-03-05T15:38:45Z</time>
      </trkpt>
      <trkpt lat="38.2808280" lon="-0.6892570">
        <ele>105.0</ele>
        <time>2018-03-05T15:38:46Z</time>
      </trkpt>
      <trkpt lat="38.2808770" lon="-0.6891860">
        <ele>106.0</ele>
        <time>2018-03-05T15:38:47Z</time>
      </trkpt>
      <trkpt lat="38.2809320" lon="-0.6891220">
        <ele>106.0</ele>
        <time>2018-03-05T15:38:48Z</time>
      </trkpt>
      <trkpt lat="38.2809880" lon="-0.6890630">
        <ele>106.0</ele>
        <time>2018-03-05T15:38:49Z</time>
      </trkpt>
      <trkpt lat="38.2810440" lon="-0.6890030">
        <ele>106.0</ele>
        <time>2018-03-05T15:38:50Z</time>
      </trkpt>
      <trkpt lat="38.2810990" lon="-0.6889310">
        <ele>107.0</ele>
        <time>2018-03-05T15:38:51Z</time>
      </trkpt>
      <trkpt lat="38.2811410" lon="-0.6888500">
        <ele>108.0</ele>
        <time>2018-03-05T15:38:52Z</time>
      </trkpt>
      <trkpt lat="38.2811570" lon="-0.6887620">
        <ele>106.0</ele>
        <time>2018-03-05T15:38:53Z</time>
      </trkpt>
      <trkpt lat="38.2811910" lon="-0.6886730">
        <ele>107.0</ele>
        <time>2018-03-05T15:38:54Z</time>
      </trkpt>
      <trkpt lat="38.2812250" lon="-0.6885820">
        <ele>107.0</ele>
        <time>2018-03-05T15:38:55Z</time>
      </trkpt>
      <trkpt lat="38.2812590" lon="-0.6884900">
        <ele>107.0</ele>
        <time>2018-03-05T15:38:56Z</time>
      </trkpt>
      <trkpt lat="38.2812930" lon="-0.6883950">
        <ele>107.0</ele>
        <time>2018-03-05T15:38:57Z</time>
      </trkpt>
      <trkpt lat="38.2813260" lon="-0.6883000">
        <ele>107.0</ele>
        <time>2018-03-05T15:38:58Z</time>
      </trkpt>
      <trkpt lat="38.2813600" lon="-0.6882040">
        <ele>107.0</ele>
        <time>2018-03-05T15:38:59Z</time>
      </trkpt>
      <trkpt lat="38.2813940" lon="-0.6881070">
        <ele>107.0</ele>
        <time>2018-03-05T15:39:00Z</time>
      </trkpt>
      <trkpt lat="38.2814280" lon="-0.6880100">
        <ele>107.0</ele>
        <time>2018-03-05T15:39:01Z</time>
      </trkpt>
      <trkpt lat="38.2814610" lon="-0.6879130">
        <ele>107.0</ele>
        <time>2018-03-05T15:39:02Z</time>
      </trkpt>
      <trkpt lat="38.2814960" lon="-0.6878180">
        <ele>107.0</ele>
        <time>2018-03-05T15:39:03Z</time>
      </trkpt>
      <trkpt lat="38.2815310" lon="-0.6877220">
        <ele>107.0</ele>
        <time>2018-03-05T15:39:04Z</time>
      </trkpt>
      <trkpt lat="38.2815650" lon="-0.6876260">
        <ele>107.0</ele>
        <time>2018-03-05T15:39:05Z</time>
      </trkpt>
      <trkpt lat="38.2816000" lon="-0.6875300">
        <ele>107.0</ele>
        <time>2018-03-05T15:39:06Z</time>
      </trkpt>
      <trkpt lat="38.2816330" lon="-0.6874340">
        <ele>107.0</ele>
        <time>2018-03-05T15:39:07Z</time>
      </trkpt>
      <trkpt lat="38.2816650" lon="-0.6873350">
        <ele>106.0</ele>
        <time>2018-03-05T15:39:08Z</time>
      </trkpt>
      <trkpt lat="38.2816980" lon="-0.6872370">
        <ele>106.0</ele>
        <time>2018-03-05T15:39:09Z</time>
      </trkpt>
      <trkpt lat="38.2817310" lon="-0.6871380">
        <ele>106.0</ele>
        <time>2018-03-05T15:39:10Z</time>
      </trkpt>
      <trkpt lat="38.2817640" lon="-0.6870400">
        <ele>106.0</ele>
        <time>2018-03-05T15:39:11Z</time>
      </trkpt>
      <trkpt lat="38.2817940" lon="-0.6869390">
        <ele>106.0</ele>
        <time>2018-03-05T15:39:12Z</time>
      </trkpt>
      <trkpt lat="38.2818250" lon="-0.6868380">
        <ele>106.0</ele>
        <time>2018-03-05T15:39:13Z</time>
      </trkpt>
      <trkpt lat="38.2818550" lon="-0.6867370">
        <ele>106.0</ele>
        <time>2018-03-05T15:39:14Z</time>
      </trkpt>
      <trkpt lat="38.2818860" lon="-0.6866350">
        <ele>106.0</ele>
        <time>2018-03-05T15:39:15Z</time>
      </trkpt>
      <trkpt lat="38.2819150" lon="-0.6865320">
        <ele>106.0</ele>
        <time>2018-03-05T15:39:16Z</time>
      </trkpt>
      <trkpt lat="38.2819430" lon="-0.6864290">
        <ele>106.0</ele>
        <time>2018-03-05T15:39:17Z</time>
      </trkpt>
      <trkpt lat="38.2819700" lon="-0.6863270">
        <ele>106.0</ele>
        <time>2018-03-05T15:39:18Z</time>
      </trkpt>
      <trkpt lat="38.2819960" lon="-0.6862240">
        <ele>106.0</ele>
        <time>2018-03-05T15:39:19Z</time>
      </trkpt>
      <trkpt lat="38.2820220" lon="-0.6861200">
        <ele>106.0</ele>
        <time>2018-03-05T15:39:20Z</time>
      </trkpt>
      <trkpt lat="38.2820460" lon="-0.6860160">
        <ele>106.0</ele>
        <time>2018-03-05T15:39:21Z</time>
      </trkpt>
      <trkpt lat="38.2820690" lon="-0.6859120">
        <ele>106.0</ele>
        <time>2018-03-05T15:39:22Z</time>
      </trkpt>
      <trkpt lat="38.2820920" lon="-0.6858090">
        <ele>105.0</ele>
        <time>2018-03-05T15:39:23Z</time>
      </trkpt>
      <trkpt lat="38.2821150" lon="-0.6857050">
        <ele>105.0</ele>
        <time>2018-03-05T15:39:24Z</time>
      </trkpt>
      <trkpt lat="38.2821370" lon="-0.6855990">
        <ele>105.0</ele>
        <time>2018-03-05T15:39:25Z</time>
      </trkpt>
      <trkpt lat="38.2821580" lon="-0.6854930">
        <ele>106.0</ele>
        <time>2018-03-05T15:39:26Z</time>
      </trkpt>
      <trkpt lat="38.2821800" lon="-0.6853880">
        <ele>106.0</ele>
        <time>2018-03-05T15:39:27Z</time>
      </trkpt>
      <trkpt lat="38.2821990" lon="-0.6852830">
        <ele>105.0</ele>
        <time>2018-03-05T15:39:28Z</time>
      </trkpt>
      <trkpt lat="38.2822170" lon="-0.6851760">
        <ele>105.0</ele>
        <time>2018-03-05T15:39:29Z</time>
      </trkpt>
      <trkpt lat="38.2822360" lon="-0.6850710">
        <ele>105.0</ele>
        <time>2018-03-05T15:39:30Z</time>
      </trkpt>
      <trkpt lat="38.2822520" lon="-0.6849620">
        <ele>105.0</ele>
        <time>2018-03-05T15:39:31Z</time>
      </trkpt>
      <trkpt lat="38.2822680" lon="-0.6848540">
        <ele>105.0</ele>
        <time>2018-03-05T15:39:32Z</time>
      </trkpt>
      <trkpt lat="38.2822830" lon="-0.6847470">
        <ele>105.0</ele>
        <time>2018-03-05T15:39:33Z</time>
      </trkpt>
      <trkpt lat="38.2822980" lon="-0.6846410">
        <ele>105.0</ele>
        <time>2018-03-05T15:39:34Z</time>
      </trkpt>
      <trkpt lat="38.2823110" lon="-0.6845350">
        <ele>105.0</ele>
        <time>2018-03-05T15:39:35Z</time>
      </trkpt>
      <trkpt lat="38.2823230" lon="-0.6844300">
        <ele>105.0</ele>
        <time>2018-03-05T15:39:36Z</time>
      </trkpt>
      <trkpt lat="38.2823350" lon="-0.6843260">
        <ele>105.0</ele>
        <time>2018-03-05T15:39:37Z</time>
      </trkpt>
      <trkpt lat="38.2823450" lon="-0.6842210">
        <ele>105.0</ele>
        <time>2018-03-05T15:39:38Z</time>
      </trkpt>
      <trkpt lat="38.2823570" lon="-0.6841160">
        <ele>105.0</ele>
        <time>2018-03-05T15:39:39Z</time>
      </trkpt>
      <trkpt lat="38.2823670" lon="-0.6840100">
        <ele>105.0</ele>
        <time>2018-03-05T15:39:40Z</time>
      </trkpt>
      <trkpt lat="38.2823760" lon="-0.6839050">
        <ele>105.0</ele>
        <time>2018-03-05T15:39:41Z</time>
      </trkpt>
      <trkpt lat="38.2823850" lon="-0.6838010">
        <ele>105.0</ele>
        <time>2018-03-05T15:39:42Z</time>
      </trkpt>
      <trkpt lat="38.2824000" lon="-0.6836990">
        <ele>104.0</ele>
        <time>2018-03-05T15:39:43Z</time>
      </trkpt>
      <trkpt lat="38.2824080" lon="-0.6835970">
        <ele>104.0</ele>
        <time>2018-03-05T15:39:44Z</time>
      </trkpt>
      <trkpt lat="38.2824140" lon="-0.6834950">
        <ele>104.0</ele>
        <time>2018-03-05T15:39:45Z</time>
      </trkpt>
      <trkpt lat="38.2824180" lon="-0.6833940">
        <ele>104.0</ele>
        <time>2018-03-05T15:39:46Z</time>
      </trkpt>
      <trkpt lat="38.2824220" lon="-0.6832930">
        <ele>104.0</ele>
        <time>2018-03-05T15:39:47Z</time>
      </trkpt>
      <trkpt lat="38.2824260" lon="-0.6831930">
        <ele>104.0</ele>
        <time>2018-03-05T15:39:48Z</time>
      </trkpt>
      <trkpt lat="38.2824280" lon="-0.6830950">
        <ele>104.0</ele>
        <time>2018-03-05T15:39:49Z</time>
      </trkpt>
      <trkpt lat="38.2824220" lon="-0.6829970">
        <ele>104.0</ele>
        <time>2018-03-05T15:39:50Z</time>
      </trkpt>
      <trkpt lat="38.2823990" lon="-0.6828970">
        <ele>105.0</ele>
        <time>2018-03-05T15:39:51Z</time>
      </trkpt>
      <trkpt lat="38.2823610" lon="-0.6828090">
        <ele>105.0</ele>
        <time>2018-03-05T15:39:52Z</time>
      </trkpt>
      <trkpt lat="38.2823100" lon="-0.6827550">
        <ele>105.0</ele>
        <time>2018-03-05T15:39:53Z</time>
      </trkpt>
      <trkpt lat="38.2822470" lon="-0.6827050">
        <ele>105.0</ele>
        <time>2018-03-05T15:39:54Z</time>
      </trkpt>
      <trkpt lat="38.2821780" lon="-0.6826610">
        <ele>106.0</ele>
        <time>2018-03-05T15:39:55Z</time>
      </trkpt>
      <trkpt lat="38.2821010" lon="-0.6826560">
        <ele>105.0</ele>
        <time>2018-03-05T15:39:56Z</time>
      </trkpt>
      <trkpt lat="38.2820250" lon="-0.6826540">
        <ele>105.0</ele>
        <time>2018-03-05T15:39:57Z</time>
      </trkpt>
      <trkpt lat="38.2819510" lon="-0.6826610">
        <ele>105.0</ele>
        <time>2018-03-05T15:39:58Z</time>
      </trkpt>
      <trkpt lat="38.2818730" lon="-0.6826840">
        <ele>105.0</ele>
        <time>2018-03-05T15:39:59Z</time>
      </trkpt>
      <trkpt lat="38.2817990" lon="-0.6827060">
        <ele>105.0</ele>
        <time>2018-03-05T15:40:00Z</time>
      </trkpt>
      <trkpt lat="38.2817250" lon="-0.6827290">
        <ele>105.0</ele>
        <time>2018-03-05T15:40:01Z</time>
      </trkpt>
      <trkpt lat="38.2816500" lon="-0.6827530">
        <ele>104.0</ele>
        <time>2018-03-05T15:40:02Z</time>
      </trkpt>
      <trkpt lat="38.2815750" lon="-0.6827740">
        <ele>104.0</ele>
        <time>2018-03-05T15:40:03Z</time>
      </trkpt>
      <trkpt lat="38.2815000" lon="-0.6827950">
        <ele>104.0</ele>
        <time>2018-03-05T15:40:04Z</time>
      </trkpt>
      <trkpt lat="38.2814250" lon="-0.6828110">
        <ele>104.0</ele>
        <time>2018-03-05T15:40:05Z</time>
      </trkpt>
      <trkpt lat="38.2813500" lon="-0.6828210">
        <ele>103.0</ele>
        <time>2018-03-05T15:40:06Z</time>
      </trkpt>
      <trkpt lat="38.2812750" lon="-0.6828260">
        <ele>103.0</ele>
        <time>2018-03-05T15:40:07Z</time>
      </trkpt>
      <trkpt lat="38.2812020" lon="-0.6828280">
        <ele>103.0</ele>
        <time>2018-03-05T15:40:08Z</time>
      </trkpt>
      <trkpt lat="38.2811280" lon="-0.6828250">
        <ele>103.0</ele>
        <time>2018-03-05T15:40:09Z</time>
      </trkpt>
      <trkpt lat="38.2810560" lon="-0.6828200">
        <ele>103.0</ele>
        <time>2018-03-05T15:40:10Z</time>
      </trkpt>
      <trkpt lat="38.2809840" lon="-0.6828130">
        <ele>103.0</ele>
        <time>2018-03-05T15:40:11Z</time>
      </trkpt>
      <trkpt lat="38.2809120" lon="-0.6828040">
        <ele>102.0</ele>
        <time>2018-03-05T15:40:12Z</time>
      </trkpt>
      <trkpt lat="38.2808410" lon="-0.6827870">
        <ele>102.0</ele>
        <time>2018-03-05T15:40:13Z</time>
      </trkpt>
      <trkpt lat="38.2807710" lon="-0.6827660">
        <ele>102.0</ele>
        <time>2018-03-05T15:40:14Z</time>
      </trkpt>
      <trkpt lat="38.2806990" lon="-0.6827470">
        <ele>102.0</ele>
        <time>2018-03-05T15:40:15Z</time>
      </trkpt>
      <trkpt lat="38.2806290" lon="-0.6827250">
        <ele>102.0</ele>
        <time>2018-03-05T15:40:16Z</time>
      </trkpt>
      <trkpt lat="38.2805600" lon="-0.6827010">
        <ele>102.0</ele>
        <time>2018-03-05T15:40:17Z</time>
      </trkpt>
      <trkpt lat="38.2804910" lon="-0.6826760">
        <ele>101.0</ele>
        <time>2018-03-05T15:40:18Z</time>
      </trkpt>
      <trkpt lat="38.2804220" lon="-0.6826500">
        <ele>101.0</ele>
        <time>2018-03-05T15:40:19Z</time>
      </trkpt>
      <trkpt lat="38.2803520" lon="-0.6826230">
        <ele>101.0</ele>
        <time>2018-03-05T15:40:20Z</time>
      </trkpt>
      <trkpt lat="38.2802820" lon="-0.6825950">
        <ele>101.0</ele>
        <time>2018-03-05T15:40:21Z</time>
      </trkpt>
      <trkpt lat="38.2802120" lon="-0.6825680">
        <ele>101.0</ele>
        <time>2018-03-05T15:40:22Z</time>
      </trkpt>
      <trkpt lat="38.2801420" lon="-0.6825390">
        <ele>101.0</ele>
        <time>2018-03-05T15:40:23Z</time>
      </trkpt>
      <trkpt lat="38.2800740" lon="-0.6825110">
        <ele>100.0</ele>
        <time>2018-03-05T15:40:24Z</time>
      </trkpt>
      <trkpt lat="38.2800040" lon="-0.6824840">
        <ele>100.0</ele>
        <time>2018-03-05T15:40:25Z</time>
      </trkpt>
      <trkpt lat="38.2799350" lon="-0.6824560">
        <ele>100.0</ele>
        <time>2018-03-05T15:40:26Z</time>
      </trkpt>
      <trkpt lat="38.2798660" lon="-0.6824280">
        <ele>100.0</ele>
        <time>2018-03-05T15:40:27Z</time>
      </trkpt>
      <trkpt lat="38.2797980" lon="-0.6824020">
        <ele>100.0</ele>
        <time>2018-03-05T15:40:28Z</time>
      </trkpt>
      <trkpt lat="38.2797290" lon="-0.6823740">
        <ele>100.0</ele>
        <time>2018-03-05T15:40:29Z</time>
      </trkpt>
      <trkpt lat="38.2796610" lon="-0.6823460">
        <ele>100.0</ele>
        <time>2018-03-05T15:40:30Z</time>
      </trkpt>
      <trkpt lat="38.2795920" lon="-0.6823220">
        <ele>100.0</ele>
        <time>2018-03-05T15:40:31Z</time>
      </trkpt>
      <trkpt lat="38.2795230" lon="-0.6822950">
        <ele>100.0</ele>
        <time>2018-03-05T15:40:32Z</time>
      </trkpt>
      <trkpt lat="38.2794540" lon="-0.6822670">
        <ele>99.0</ele>
        <time>2018-03-05T15:40:33Z</time>
      </trkpt>
      <trkpt lat="38.2793860" lon="-0.6822400">
        <ele>99.0</ele>
        <time>2018-03-05T15:40:34Z</time>
      </trkpt>
      <trkpt lat="38.2793170" lon="-0.6822110">
        <ele>99.0</ele>
        <time>2018-03-05T15:40:35Z</time>
      </trkpt>
      <trkpt lat="38.2792480" lon="-0.6821830">
        <ele>99.0</ele>
        <time>2018-03-05T15:40:36Z</time>
      </trkpt>
      <trkpt lat="38.2791780" lon="-0.6821530">
        <ele>99.0</ele>
        <time>2018-03-05T15:40:37Z</time>
      </trkpt>
      <trkpt lat="38.2791090" lon="-0.6821260">
        <ele>99.0</ele>
        <time>2018-03-05T15:40:38Z</time>
      </trkpt>
      <trkpt lat="38.2790390" lon="-0.6820990">
        <ele>99.0</ele>
        <time>2018-03-05T15:40:39Z</time>
      </trkpt>
      <trkpt lat="38.2789700" lon="-0.6820720">
        <ele>99.0</ele>
        <time>2018-03-05T15:40:40Z</time>
      </trkpt>
      <trkpt lat="38.2789000" lon="-0.6820440">
        <ele>99.0</ele>
        <time>2018-03-05T15:40:41Z</time>
      </trkpt>
      <trkpt lat="38.2788310" lon="-0.6820170">
        <ele>99.0</ele>
        <time>2018-03-05T15:40:42Z</time>
      </trkpt>
      <trkpt lat="38.2787620" lon="-0.6819890">
        <ele>99.0</ele>
        <time>2018-03-05T15:40:43Z</time>
      </trkpt>
      <trkpt lat="38.2786930" lon="-0.6819600">
        <ele>99.0</ele>
        <time>2018-03-05T15:40:44Z</time>
      </trkpt>
      <trkpt lat="38.2786260" lon="-0.6819310">
        <ele>98.0</ele>
        <time>2018-03-05T15:40:45Z</time>
      </trkpt>
      <trkpt lat="38.2785570" lon="-0.6819020">
        <ele>98.0</ele>
        <time>2018-03-05T15:40:46Z</time>
      </trkpt>
      <trkpt lat="38.2784870" lon="-0.6818760">
        <ele>98.0</ele>
        <time>2018-03-05T15:40:47Z</time>
      </trkpt>
      <trkpt lat="38.2784190" lon="-0.6818490">
        <ele>98.0</ele>
        <time>2018-03-05T15:40:48Z</time>
      </trkpt>
      <trkpt lat="38.2783500" lon="-0.6818220">
        <ele>98.0</ele>
        <time>2018-03-05T15:40:49Z</time>
      </trkpt>
      <trkpt lat="38.2782810" lon="-0.6817930">
        <ele>98.0</ele>
        <time>2018-03-05T15:40:50Z</time>
      </trkpt>
      <trkpt lat="38.2782130" lon="-0.6817650">
        <ele>98.0</ele>
        <time>2018-03-05T15:40:51Z</time>
      </trkpt>
      <trkpt lat="38.2781450" lon="-0.6817370">
        <ele>98.0</ele>
        <time>2018-03-05T15:40:52Z</time>
      </trkpt>
      <trkpt lat="38.2780780" lon="-0.6817140">
        <ele>97.0</ele>
        <time>2018-03-05T15:40:53Z</time>
      </trkpt>
      <trkpt lat="38.2780090" lon="-0.6817010">
        <ele>98.0</ele>
        <time>2018-03-05T15:40:54Z</time>
      </trkpt>
      <trkpt lat="38.2779400" lon="-0.6817100">
        <ele>97.0</ele>
        <time>2018-03-05T15:40:55Z</time>
      </trkpt>
      <trkpt lat="38.2778720" lon="-0.6817340">
        <ele>97.0</ele>
        <time>2018-03-05T15:40:56Z</time>
      </trkpt>
      <trkpt lat="38.2778040" lon="-0.6817480">
        <ele>97.0</ele>
        <time>2018-03-05T15:40:57Z</time>
      </trkpt>
      <trkpt lat="38.2777360" lon="-0.6817460">
        <ele>97.0</ele>
        <time>2018-03-05T15:40:58Z</time>
      </trkpt>
      <trkpt lat="38.2776720" lon="-0.6817250">
        <ele>96.0</ele>
        <time>2018-03-05T15:40:59Z</time>
      </trkpt>
      <trkpt lat="38.2776110" lon="-0.6816860">
        <ele>96.0</ele>
        <time>2018-03-05T15:41:00Z</time>
      </trkpt>
      <trkpt lat="38.2775550" lon="-0.6816330">
        <ele>96.0</ele>
        <time>2018-03-05T15:41:01Z</time>
      </trkpt>
      <trkpt lat="38.2775240" lon="-0.6815560">
        <ele>96.0</ele>
        <time>2018-03-05T15:41:02Z</time>
      </trkpt>
      <trkpt lat="38.2774950" lon="-0.6814750">
        <ele>96.0</ele>
        <time>2018-03-05T15:41:03Z</time>
      </trkpt>
      <trkpt lat="38.2774640" lon="-0.6813920">
        <ele>96.0</ele>
        <time>2018-03-05T15:41:04Z</time>
      </trkpt>
      <trkpt lat="38.2774170" lon="-0.6813110">
        <ele>97.0</ele>
        <time>2018-03-05T15:41:05Z</time>
      </trkpt>
      <trkpt lat="38.2773610" lon="-0.6812720">
        <ele>96.0</ele>
        <time>2018-03-05T15:41:06Z</time>
      </trkpt>
      <trkpt lat="38.2772910" lon="-0.6812530">
        <ele>95.0</ele>
        <time>2018-03-05T15:41:07Z</time>
      </trkpt>
      <trkpt lat="38.2772220" lon="-0.6812270">
        <ele>95.0</ele>
        <time>2018-03-05T15:41:08Z</time>
      </trkpt>
      <trkpt lat="38.2771520" lon="-0.6812000">
        <ele>95.0</ele>
        <time>2018-03-05T15:41:09Z</time>
      </trkpt>
      <trkpt lat="38.2770830" lon="-0.6811720">
        <ele>94.0</ele>
        <time>2018-03-05T15:41:10Z</time>
      </trkpt>
      <trkpt lat="38.2770140" lon="-0.6811450">
        <ele>94.0</ele>
        <time>2018-03-05T15:41:11Z</time>
      </trkpt>
      <trkpt lat="38.2769450" lon="-0.6811170">
        <ele>94.0</ele>
        <time>2018-03-05T15:41:12Z</time>
      </trkpt>
      <trkpt lat="38.2768790" lon="-0.6810910">
        <ele>94.0</ele>
        <time>2018-03-05T15:41:13Z</time>
      </trkpt>
      <trkpt lat="38.2768120" lon="-0.6810650">
        <ele>94.0</ele>
        <time>2018-03-05T15:41:14Z</time>
      </trkpt>
      <trkpt lat="38.2767470" lon="-0.6810390">
        <ele>94.0</ele>
        <time>2018-03-05T15:41:15Z</time>
      </trkpt>
      <trkpt lat="38.2766810" lon="-0.6810130">
        <ele>94.0</ele>
        <time>2018-03-05T15:41:16Z</time>
      </trkpt>
      <trkpt lat="38.2766180" lon="-0.6809840">
        <ele>93.0</ele>
        <time>2018-03-05T15:41:17Z</time>
      </trkpt>
      <trkpt lat="38.2765540" lon="-0.6809590">
        <ele>93.0</ele>
        <time>2018-03-05T15:41:18Z</time>
      </trkpt>
      <trkpt lat="38.2763740" lon="-0.6808800">
        <ele>91.0</ele>
        <time>2018-03-05T15:41:19Z</time>
      </trkpt>
      <trkpt lat="38.2761940" lon="-0.6808010">
        <ele>91.0</ele>
        <time>2018-03-05T15:41:20Z</time>
      </trkpt>
      <trkpt lat="38.2761610" lon="-0.6807880">
        <ele>91.0</ele>
        <time>2018-03-05T15:41:21Z</time>
      </trkpt>
      <trkpt lat="38.2761220" lon="-0.6807710">
        <ele>91.0</ele>
        <time>2018-03-05T15:41:22Z</time>
      </trkpt>
      <trkpt lat="38.2760770" lon="-0.6807550">
        <ele>91.0</ele>
        <time>2018-03-05T15:41:23Z</time>
      </trkpt>
      <trkpt lat="38.2760300" lon="-0.6807360">
        <ele>91.0</ele>
        <time>2018-03-05T15:41:24Z</time>
      </trkpt>
      <trkpt lat="38.2759790" lon="-0.6807170">
        <ele>91.0</ele>
        <time>2018-03-05T15:41:25Z</time>
      </trkpt>
      <trkpt lat="38.2759280" lon="-0.6806960">
        <ele>91.0</ele>
        <time>2018-03-05T15:41:26Z</time>
      </trkpt>
      <trkpt lat="38.2758730" lon="-0.6806750">
        <ele>91.0</ele>
        <time>2018-03-05T15:41:27Z</time>
      </trkpt>
      <trkpt lat="38.2758160" lon="-0.6806530">
        <ele>91.0</ele>
        <time>2018-03-05T15:41:28Z</time>
      </trkpt>
      <trkpt lat="38.2757560" lon="-0.6806310">
        <ele>91.0</ele>
        <time>2018-03-05T15:41:29Z</time>
      </trkpt>
      <trkpt lat="38.2756950" lon="-0.6806070">
        <ele>91.0</ele>
        <time>2018-03-05T15:41:30Z</time>
      </trkpt>
      <trkpt lat="38.2756320" lon="-0.6805840">
        <ele>91.0</ele>
        <time>2018-03-05T15:41:31Z</time>
      </trkpt>
      <trkpt lat="38.2755680" lon="-0.6805590">
        <ele>91.0</ele>
        <time>2018-03-05T15:41:32Z</time>
      </trkpt>
      <trkpt lat="38.2755050" lon="-0.6805350">
        <ele>92.0</ele>
        <time>2018-03-05T15:41:33Z</time>
      </trkpt>
      <trkpt lat="38.2754420" lon="-0.6805100">
        <ele>92.0</ele>
        <time>2018-03-05T15:41:34Z</time>
      </trkpt>
      <trkpt lat="38.2753800" lon="-0.6804830">
        <ele>92.0</ele>
        <time>2018-03-05T15:41:35Z</time>
      </trkpt>
      <trkpt lat="38.2753170" lon="-0.6804580">
        <ele>92.0</ele>
        <time>2018-03-05T15:41:36Z</time>
      </trkpt>
      <trkpt lat="38.2752570" lon="-0.6804320">
        <ele>92.0</ele>
        <time>2018-03-05T15:41:37Z</time>
      </trkpt>
      <trkpt lat="38.2752010" lon="-0.6804080">
        <ele>91.0</ele>
        <time>2018-03-05T15:41:38Z</time>
      </trkpt>
      <trkpt lat="38.2751460" lon="-0.6803910">
        <ele>92.0</ele>
        <time>2018-03-05T15:41:39Z</time>
      </trkpt>
      <trkpt lat="38.2750930" lon="-0.6803740">
        <ele>92.0</ele>
        <time>2018-03-05T15:41:40Z</time>
      </trkpt>
      <trkpt lat="38.2750440" lon="-0.6803580">
        <ele>92.0</ele>
        <time>2018-03-05T15:41:41Z</time>
      </trkpt>
      <trkpt lat="38.2750140" lon="-0.6803480">
        <ele>92.0</ele>
        <time>2018-03-05T15:41:42Z</time>
      </trkpt>
      <trkpt lat="38.2749900" lon="-0.6803410">
        <ele>93.0</ele>
        <time>2018-03-05T15:41:43Z</time>
      </trkpt>
      <trkpt lat="38.2749680" lon="-0.6803280">
        <ele>92.0</ele>
        <time>2018-03-05T15:41:44Z</time>
      </trkpt>
      <trkpt lat="38.2749430" lon="-0.6803160">
        <ele>92.0</ele>
        <time>2018-03-05T15:41:45Z</time>
      </trkpt>
      <trkpt lat="38.2749240" lon="-0.6803140">
        <ele>92.0</ele>
        <time>2018-03-05T15:41:46Z</time>
      </trkpt>
      <trkpt lat="38.2749150" lon="-0.6803120">
        <ele>92.0</ele>
        <time>2018-03-05T15:41:47Z</time>
      </trkpt>
      <trkpt lat="38.2749100" lon="-0.6803090">
        <ele>91.0</ele>
        <time>2018-03-05T15:41:48Z</time>
      </trkpt>
      <trkpt lat="38.2748910" lon="-0.6803080">
        <ele>92.0</ele>
        <time>2018-03-05T15:41:49Z</time>
      </trkpt>
      <trkpt lat="38.2748710" lon="-0.6803080">
        <ele>93.0</ele>
        <time>2018-03-05T15:41:50Z</time>
      </trkpt>
      <trkpt lat="38.2748420" lon="-0.6803180">
        <ele>92.0</ele>
        <time>2018-03-05T15:41:51Z</time>
      </trkpt>
      <trkpt lat="38.2748070" lon="-0.6803430">
        <ele>91.0</ele>
        <time>2018-03-05T15:41:52Z</time>
      </trkpt>
      <trkpt lat="38.2747750" lon="-0.6803790">
        <ele>91.0</ele>
        <time>2018-03-05T15:41:53Z</time>
      </trkpt>
      <trkpt lat="38.2747490" lon="-0.6804200">
        <ele>90.0</ele>
        <time>2018-03-05T15:41:54Z</time>
      </trkpt>
      <trkpt lat="38.2747240" lon="-0.6804620">
        <ele>90.0</ele>
        <time>2018-03-05T15:41:55Z</time>
      </trkpt>
      <trkpt lat="38.2747060" lon="-0.6805090">
        <ele>90.0</ele>
        <time>2018-03-05T15:41:56Z</time>
      </trkpt>
      <trkpt lat="38.2746980" lon="-0.6805800">
        <ele>89.0</ele>
        <time>2018-03-05T15:41:57Z</time>
      </trkpt>
      <trkpt lat="38.2746840" lon="-0.6806440">
        <ele>88.0</ele>
        <time>2018-03-05T15:41:58Z</time>
      </trkpt>
      <trkpt lat="38.2746710" lon="-0.6807160">
        <ele>89.0</ele>
        <time>2018-03-05T15:41:59Z</time>
      </trkpt>
      <trkpt lat="38.2746560" lon="-0.6807990">
        <ele>88.0</ele>
        <time>2018-03-05T15:42:00Z</time>
      </trkpt>
      <trkpt lat="38.2746440" lon="-0.6808790">
        <ele>88.0</ele>
        <time>2018-03-05T15:42:01Z</time>
      </trkpt>
      <trkpt lat="38.2746310" lon="-0.6809570">
        <ele>88.0</ele>
        <time>2018-03-05T15:42:02Z</time>
      </trkpt>
      <trkpt lat="38.2746230" lon="-0.6810360">
        <ele>88.0</ele>
        <time>2018-03-05T15:42:03Z</time>
      </trkpt>
      <trkpt lat="38.2746110" lon="-0.6811140">
        <ele>88.0</ele>
        <time>2018-03-05T15:42:04Z</time>
      </trkpt>
      <trkpt lat="38.2745980" lon="-0.6811890">
        <ele>87.0</ele>
        <time>2018-03-05T15:42:05Z</time>
      </trkpt>
      <trkpt lat="38.2745840" lon="-0.6812680">
        <ele>87.0</ele>
        <time>2018-03-05T15:42:06Z</time>
      </trkpt>
      <trkpt lat="38.2745730" lon="-0.6813460">
        <ele>87.0</ele>
        <time>2018-03-05T15:42:07Z</time>
      </trkpt>
      <trkpt lat="38.2745610" lon="-0.6814230">
        <ele>86.0</ele>
        <time>2018-03-05T15:42:08Z</time>
      </trkpt>
      <trkpt lat="38.2745470" lon="-0.6815000">
        <ele>87.0</ele>
        <time>2018-03-05T15:42:09Z</time>
      </trkpt>
      <trkpt lat="38.2745370" lon="-0.6815760">
        <ele>86.0</ele>
        <time>2018-03-05T15:42:10Z</time>
      </trkpt>
      <trkpt lat="38.2745250" lon="-0.6816540">
        <ele>86.0</ele>
        <time>2018-03-05T15:42:11Z</time>
      </trkpt>
      <trkpt lat="38.2745160" lon="-0.6817280">
        <ele>85.0</ele>
        <time>2018-03-05T15:42:12Z</time>
      </trkpt>
      <trkpt lat="38.2745040" lon="-0.6818050">
        <ele>85.0</ele>
        <time>2018-03-05T15:42:13Z</time>
      </trkpt>
      <trkpt lat="38.2744910" lon="-0.6818840">
        <ele>86.0</ele>
        <time>2018-03-05T15:42:14Z</time>
      </trkpt>
      <trkpt lat="38.2744760" lon="-0.6819640">
        <ele>86.0</ele>
        <time>2018-03-05T15:42:15Z</time>
      </trkpt>
      <trkpt lat="38.2744550" lon="-0.6820450">
        <ele>89.0</ele>
        <time>2018-03-05T15:42:16Z</time>
      </trkpt>
      <trkpt lat="38.2744420" lon="-0.6821220">
        <ele>89.0</ele>
        <time>2018-03-05T15:42:17Z</time>
      </trkpt>
      <trkpt lat="38.2744310" lon="-0.6822000">
        <ele>88.0</ele>
        <time>2018-03-05T15:42:18Z</time>
      </trkpt>
      <trkpt lat="38.2744190" lon="-0.6822830">
        <ele>89.0</ele>
        <time>2018-03-05T15:42:19Z</time>
      </trkpt>
      <trkpt lat="38.2744050" lon="-0.6823650">
        <ele>89.0</ele>
        <time>2018-03-05T15:42:20Z</time>
      </trkpt>
      <trkpt lat="38.2743920" lon="-0.6824440">
        <ele>88.0</ele>
        <time>2018-03-05T15:42:21Z</time>
      </trkpt>
      <trkpt lat="38.2743780" lon="-0.6825280">
        <ele>88.0</ele>
        <time>2018-03-05T15:42:22Z</time>
      </trkpt>
      <trkpt lat="38.2743650" lon="-0.6826100">
        <ele>88.0</ele>
        <time>2018-03-05T15:42:23Z</time>
      </trkpt>
      <trkpt lat="38.2743530" lon="-0.6826940">
        <ele>88.0</ele>
        <time>2018-03-05T15:42:24Z</time>
      </trkpt>
      <trkpt lat="38.2743410" lon="-0.6827810">
        <ele>89.0</ele>
        <time>2018-03-05T15:42:25Z</time>
      </trkpt>
      <trkpt lat="38.2743280" lon="-0.6828710">
        <ele>89.0</ele>
        <time>2018-03-05T15:42:26Z</time>
      </trkpt>
      <trkpt lat="38.2743150" lon="-0.6829600">
        <ele>89.0</ele>
        <time>2018-03-05T15:42:27Z</time>
      </trkpt>
      <trkpt lat="38.2743020" lon="-0.6830470">
        <ele>89.0</ele>
        <time>2018-03-05T15:42:28Z</time>
      </trkpt>
      <trkpt lat="38.2742850" lon="-0.6831370">
        <ele>89.0</ele>
        <time>2018-03-05T15:42:29Z</time>
      </trkpt>
      <trkpt lat="38.2742670" lon="-0.6832260">
        <ele>90.0</ele>
        <time>2018-03-05T15:42:30Z</time>
      </trkpt>
      <trkpt lat="38.2742480" lon="-0.6833160">
        <ele>91.0</ele>
        <time>2018-03-05T15:42:31Z</time>
      </trkpt>
      <trkpt lat="38.2742310" lon="-0.6834060">
        <ele>91.0</ele>
        <time>2018-03-05T15:42:32Z</time>
      </trkpt>
      <trkpt lat="38.2742170" lon="-0.6834950">
        <ele>90.0</ele>
        <time>2018-03-05T15:42:33Z</time>
      </trkpt>
      <trkpt lat="38.2742020" lon="-0.6835870">
        <ele>90.0</ele>
        <time>2018-03-05T15:42:34Z</time>
      </trkpt>
      <trkpt lat="38.2741890" lon="-0.6836760">
        <ele>91.0</ele>
        <time>2018-03-05T15:42:35Z</time>
      </trkpt>
      <trkpt lat="38.2741750" lon="-0.6837620">
        <ele>90.0</ele>
        <time>2018-03-05T15:42:36Z</time>
      </trkpt>
      <trkpt lat="38.2741620" lon="-0.6838490">
        <ele>90.0</ele>
        <time>2018-03-05T15:42:37Z</time>
      </trkpt>
      <trkpt lat="38.2741470" lon="-0.6839370">
        <ele>89.0</ele>
        <time>2018-03-05T15:42:38Z</time>
      </trkpt>
      <trkpt lat="38.2741300" lon="-0.6840260">
        <ele>89.0</ele>
        <time>2018-03-05T15:42:39Z</time>
      </trkpt>
      <trkpt lat="38.2741150" lon="-0.6841140">
        <ele>88.0</ele>
        <time>2018-03-05T15:42:40Z</time>
      </trkpt>
      <trkpt lat="38.2741010" lon="-0.6842010">
        <ele>88.0</ele>
        <time>2018-03-05T15:42:41Z</time>
      </trkpt>
      <trkpt lat="38.2740840" lon="-0.6842890">
        <ele>88.0</ele>
        <time>2018-03-05T15:42:42Z</time>
      </trkpt>
      <trkpt lat="38.2740720" lon="-0.6843780">
        <ele>87.0</ele>
        <time>2018-03-05T15:42:43Z</time>
      </trkpt>
      <trkpt lat="38.2740590" lon="-0.6844640">
        <ele>86.0</ele>
        <time>2018-03-05T15:42:44Z</time>
      </trkpt>
      <trkpt lat="38.2740460" lon="-0.6845530">
        <ele>85.0</ele>
        <time>2018-03-05T15:42:45Z</time>
      </trkpt>
      <trkpt lat="38.2740340" lon="-0.6846390">
        <ele>84.0</ele>
        <time>2018-03-05T15:42:46Z</time>
      </trkpt>
      <trkpt lat="38.2740190" lon="-0.6847290">
        <ele>85.0</ele>
        <time>2018-03-05T15:42:47Z</time>
      </trkpt>
      <trkpt lat="38.2740030" lon="-0.6848170">
        <ele>85.0</ele>
        <time>2018-03-05T15:42:48Z</time>
      </trkpt>
      <trkpt lat="38.2739820" lon="-0.6849060">
        <ele>86.0</ele>
        <time>2018-03-05T15:42:49Z</time>
      </trkpt>
      <trkpt lat="38.2739700" lon="-0.6849950">
        <ele>86.0</ele>
        <time>2018-03-05T15:42:50Z</time>
      </trkpt>
      <trkpt lat="38.2739560" lon="-0.6850820">
        <ele>87.0</ele>
        <time>2018-03-05T15:42:51Z</time>
      </trkpt>
      <trkpt lat="38.2739390" lon="-0.6851720">
        <ele>88.0</ele>
        <time>2018-03-05T15:42:52Z</time>
      </trkpt>
      <trkpt lat="38.2739220" lon="-0.6852580">
        <ele>88.0</ele>
        <time>2018-03-05T15:42:53Z</time>
      </trkpt>
      <trkpt lat="38.2739080" lon="-0.6853440">
        <ele>88.0</ele>
        <time>2018-03-05T15:42:54Z</time>
      </trkpt>
      <trkpt lat="38.2738920" lon="-0.6854330">
        <ele>88.0</ele>
        <time>2018-03-05T15:42:55Z</time>
      </trkpt>
      <trkpt lat="38.2738770" lon="-0.6855210">
        <ele>88.0</ele>
        <time>2018-03-05T15:42:56Z</time>
      </trkpt>
      <trkpt lat="38.2738620" lon="-0.6856110">
        <ele>88.0</ele>
        <time>2018-03-05T15:42:57Z</time>
      </trkpt>
      <trkpt lat="38.2738480" lon="-0.6857000">
        <ele>87.0</ele>
        <time>2018-03-05T15:42:58Z</time>
      </trkpt>
      <trkpt lat="38.2738330" lon="-0.6857870">
        <ele>87.0</ele>
        <time>2018-03-05T15:42:59Z</time>
      </trkpt>
      <trkpt lat="38.2738180" lon="-0.6858760">
        <ele>86.0</ele>
        <time>2018-03-05T15:43:00Z</time>
      </trkpt>
      <trkpt lat="38.2738040" lon="-0.6859640">
        <ele>85.0</ele>
        <time>2018-03-05T15:43:01Z</time>
      </trkpt>
      <trkpt lat="38.2737890" lon="-0.6860540">
        <ele>85.0</ele>
        <time>2018-03-05T15:43:02Z</time>
      </trkpt>
      <trkpt lat="38.2737720" lon="-0.6861430">
        <ele>86.0</ele>
        <time>2018-03-05T15:43:03Z</time>
      </trkpt>
      <trkpt lat="38.2737530" lon="-0.6862340">
        <ele>87.0</ele>
        <time>2018-03-05T15:43:04Z</time>
      </trkpt>
      <trkpt lat="38.2737380" lon="-0.6863240">
        <ele>87.0</ele>
        <time>2018-03-05T15:43:05Z</time>
      </trkpt>
      <trkpt lat="38.2737210" lon="-0.6864130">
        <ele>87.0</ele>
        <time>2018-03-05T15:43:06Z</time>
      </trkpt>
      <trkpt lat="38.2737030" lon="-0.6865050">
        <ele>88.0</ele>
        <time>2018-03-05T15:43:07Z</time>
      </trkpt>
      <trkpt lat="38.2736860" lon="-0.6865950">
        <ele>88.0</ele>
        <time>2018-03-05T15:43:08Z</time>
      </trkpt>
      <trkpt lat="38.2736710" lon="-0.6866860">
        <ele>89.0</ele>
        <time>2018-03-05T15:43:09Z</time>
      </trkpt>
      <trkpt lat="38.2736570" lon="-0.6867770">
        <ele>88.0</ele>
        <time>2018-03-05T15:43:10Z</time>
      </trkpt>
      <trkpt lat="38.2736430" lon="-0.6868690">
        <ele>87.0</ele>
        <time>2018-03-05T15:43:11Z</time>
      </trkpt>
      <trkpt lat="38.2736280" lon="-0.6869610">
        <ele>87.0</ele>
        <time>2018-03-05T15:43:12Z</time>
      </trkpt>
      <trkpt lat="38.2736110" lon="-0.6870550">
        <ele>87.0</ele>
        <time>2018-03-05T15:43:13Z</time>
      </trkpt>
      <trkpt lat="38.2735970" lon="-0.6871430">
        <ele>86.0</ele>
        <time>2018-03-05T15:43:14Z</time>
      </trkpt>
      <trkpt lat="38.2735820" lon="-0.6872340">
        <ele>86.0</ele>
        <time>2018-03-05T15:43:15Z</time>
      </trkpt>
      <trkpt lat="38.2735660" lon="-0.6873240">
        <ele>86.0</ele>
        <time>2018-03-05T15:43:16Z</time>
      </trkpt>
      <trkpt lat="38.2735460" lon="-0.6874160">
        <ele>85.0</ele>
        <time>2018-03-05T15:43:17Z</time>
      </trkpt>
      <trkpt lat="38.2735190" lon="-0.6875070">
        <ele>85.0</ele>
        <time>2018-03-05T15:43:18Z</time>
      </trkpt>
      <trkpt lat="38.2734870" lon="-0.6875970">
        <ele>85.0</ele>
        <time>2018-03-05T15:43:19Z</time>
      </trkpt>
      <trkpt lat="38.2734660" lon="-0.6876940">
        <ele>86.0</ele>
        <time>2018-03-05T15:43:20Z</time>
      </trkpt>
      <trkpt lat="38.2734460" lon="-0.6877880">
        <ele>88.0</ele>
        <time>2018-03-05T15:43:21Z</time>
      </trkpt>
      <trkpt lat="38.2734300" lon="-0.6878850">
        <ele>88.0</ele>
        <time>2018-03-05T15:43:22Z</time>
      </trkpt>
      <trkpt lat="38.2734130" lon="-0.6879800">
        <ele>89.0</ele>
        <time>2018-03-05T15:43:23Z</time>
      </trkpt>
      <trkpt lat="38.2733950" lon="-0.6880700">
        <ele>89.0</ele>
        <time>2018-03-05T15:43:24Z</time>
      </trkpt>
      <trkpt lat="38.2733730" lon="-0.6881560">
        <ele>89.0</ele>
        <time>2018-03-05T15:43:25Z</time>
      </trkpt>
      <trkpt lat="38.2733500" lon="-0.6882400">
        <ele>89.0</ele>
        <time>2018-03-05T15:43:26Z</time>
      </trkpt>
      <trkpt lat="38.2733230" lon="-0.6883120">
        <ele>88.0</ele>
        <time>2018-03-05T15:43:27Z</time>
      </trkpt>
      <trkpt lat="38.2732630" lon="-0.6883470">
        <ele>89.0</ele>
        <time>2018-03-05T15:43:28Z</time>
      </trkpt>
      <trkpt lat="38.2732210" lon="-0.6883710">
        <ele>88.0</ele>
        <time>2018-03-05T15:43:29Z</time>
      </trkpt>
      <trkpt lat="38.2731760" lon="-0.6883810">
        <ele>88.0</ele>
        <time>2018-03-05T15:43:30Z</time>
      </trkpt>
      <trkpt lat="38.2731680" lon="-0.6883620">
        <ele>87.0</ele>
        <time>2018-03-05T15:43:31Z</time>
      </trkpt>
      <trkpt lat="38.2731560" lon="-0.6883470">
        <ele>88.0</ele>
        <time>2018-03-05T15:43:32Z</time>
      </trkpt>
      <trkpt lat="38.2731490" lon="-0.6883380">
        <ele>89.0</ele>
        <time>2018-03-05T15:43:33Z</time>
      </trkpt>
      <trkpt lat="38.2731430" lon="-0.6883340">
        <ele>88.0</ele>
        <time>2018-03-05T15:43:34Z</time>
      </trkpt>
      <trkpt lat="38.2731150" lon="-0.6882900">
        <ele>88.0</ele>
        <time>2018-03-05T15:43:36Z</time>
      </trkpt>
      <trkpt lat="38.2731140" lon="-0.6882530">
        <ele>88.0</ele>
        <time>2018-03-05T15:43:37Z</time>
      </trkpt>
      <trkpt lat="38.2731180" lon="-0.6882120">
        <ele>89.0</ele>
        <time>2018-03-05T15:43:38Z</time>
      </trkpt>
      <trkpt lat="38.2731370" lon="-0.6881640">
        <ele>89.0</ele>
        <time>2018-03-05T15:43:39Z</time>
      </trkpt>
      <trkpt lat="38.2731640" lon="-0.6881070">
        <ele>87.0</ele>
        <time>2018-03-05T15:43:40Z</time>
      </trkpt>
      <trkpt lat="38.2731890" lon="-0.6880530">
        <ele>87.0</ele>
        <time>2018-03-05T15:43:41Z</time>
      </trkpt>
      <trkpt lat="38.2732040" lon="-0.6879870">
        <ele>87.0</ele>
        <time>2018-03-05T15:43:42Z</time>
      </trkpt>
      <trkpt lat="38.2732220" lon="-0.6879250">
        <ele>86.0</ele>
        <time>2018-03-05T15:43:43Z</time>
      </trkpt>
      <trkpt lat="38.2732350" lon="-0.6878550">
        <ele>86.0</ele>
        <time>2018-03-05T15:43:44Z</time>
      </trkpt>
      <trkpt lat="38.2732470" lon="-0.6877840">
        <ele>86.0</ele>
        <time>2018-03-05T15:43:45Z</time>
      </trkpt>
      <trkpt lat="38.2732550" lon="-0.6877090">
        <ele>86.0</ele>
        <time>2018-03-05T15:43:46Z</time>
      </trkpt>
      <trkpt lat="38.2732610" lon="-0.6876310">
        <ele>86.0</ele>
        <time>2018-03-05T15:43:47Z</time>
      </trkpt>
      <trkpt lat="38.2732810" lon="-0.6875560">
        <ele>87.0</ele>
        <time>2018-03-05T15:43:48Z</time>
      </trkpt>
      <trkpt lat="38.2732900" lon="-0.6874760">
        <ele>86.0</ele>
        <time>2018-03-05T15:43:49Z</time>
      </trkpt>
      <trkpt lat="38.2733110" lon="-0.6873980">
        <ele>86.0</ele>
        <time>2018-03-05T15:43:50Z</time>
      </trkpt>
      <trkpt lat="38.2733280" lon="-0.6873180">
        <ele>86.0</ele>
        <time>2018-03-05T15:43:51Z</time>
      </trkpt>
      <trkpt lat="38.2733390" lon="-0.6872350">
        <ele>86.0</ele>
        <time>2018-03-05T15:43:52Z</time>
      </trkpt>
      <trkpt lat="38.2733520" lon="-0.6871530">
        <ele>86.0</ele>
        <time>2018-03-05T15:43:53Z</time>
      </trkpt>
      <trkpt lat="38.2733730" lon="-0.6870720">
        <ele>86.0</ele>
        <time>2018-03-05T15:43:54Z</time>
      </trkpt>
      <trkpt lat="38.2733800" lon="-0.6869880">
        <ele>86.0</ele>
        <time>2018-03-05T15:43:55Z</time>
      </trkpt>
      <trkpt lat="38.2733830" lon="-0.6869030">
        <ele>86.0</ele>
        <time>2018-03-05T15:43:56Z</time>
      </trkpt>
      <trkpt lat="38.2733980" lon="-0.6868220">
        <ele>86.0</ele>
        <time>2018-03-05T15:43:57Z</time>
      </trkpt>
      <trkpt lat="38.2734110" lon="-0.6867400">
        <ele>86.0</ele>
        <time>2018-03-05T15:43:58Z</time>
      </trkpt>
      <trkpt lat="38.2734240" lon="-0.6866590">
        <ele>86.0</ele>
        <time>2018-03-05T15:43:59Z</time>
      </trkpt>
      <trkpt lat="38.2734380" lon="-0.6865770">
        <ele>86.0</ele>
        <time>2018-03-05T15:44:00Z</time>
      </trkpt>
      <trkpt lat="38.2734540" lon="-0.6864940">
        <ele>86.0</ele>
        <time>2018-03-05T15:44:01Z</time>
      </trkpt>
      <trkpt lat="38.2734680" lon="-0.6864120">
        <ele>86.0</ele>
        <time>2018-03-05T15:44:02Z</time>
      </trkpt>
      <trkpt lat="38.2734830" lon="-0.6863310">
        <ele>86.0</ele>
        <time>2018-03-05T15:44:03Z</time>
      </trkpt>
      <trkpt lat="38.2734960" lon="-0.6862470">
        <ele>86.0</ele>
        <time>2018-03-05T15:44:04Z</time>
      </trkpt>
      <trkpt lat="38.2735130" lon="-0.6861650">
        <ele>86.0</ele>
        <time>2018-03-05T15:44:05Z</time>
      </trkpt>
      <trkpt lat="38.2735170" lon="-0.6860780">
        <ele>86.0</ele>
        <time>2018-03-05T15:44:06Z</time>
      </trkpt>
      <trkpt lat="38.2735380" lon="-0.6859970">
        <ele>87.0</ele>
        <time>2018-03-05T15:44:07Z</time>
      </trkpt>
      <trkpt lat="38.2735640" lon="-0.6859180">
        <ele>86.0</ele>
        <time>2018-03-05T15:44:08Z</time>
      </trkpt>
      <trkpt lat="38.2735760" lon="-0.6858350">
        <ele>86.0</ele>
        <time>2018-03-05T15:44:09Z</time>
      </trkpt>
      <trkpt lat="38.2735930" lon="-0.6857540">
        <ele>87.0</ele>
        <time>2018-03-05T15:44:10Z</time>
      </trkpt>
      <trkpt lat="38.2736120" lon="-0.6856770">
        <ele>86.0</ele>
        <time>2018-03-05T15:44:11Z</time>
      </trkpt>
      <trkpt lat="38.2736280" lon="-0.6856010">
        <ele>86.0</ele>
        <time>2018-03-05T15:44:12Z</time>
      </trkpt>
      <trkpt lat="38.2736470" lon="-0.6855270">
        <ele>86.0</ele>
        <time>2018-03-05T15:44:13Z</time>
      </trkpt>
      <trkpt lat="38.2736550" lon="-0.6854510">
        <ele>86.0</ele>
        <time>2018-03-05T15:44:14Z</time>
      </trkpt>
      <trkpt lat="38.2736590" lon="-0.6853760">
        <ele>86.0</ele>
        <time>2018-03-05T15:44:15Z</time>
      </trkpt>
      <trkpt lat="38.2736750" lon="-0.6853050">
        <ele>86.0</ele>
        <time>2018-03-05T15:44:16Z</time>
      </trkpt>
      <trkpt lat="38.2736840" lon="-0.6852350">
        <ele>86.0</ele>
        <time>2018-03-05T15:44:17Z</time>
      </trkpt>
      <trkpt lat="38.2737010" lon="-0.6851690">
        <ele>86.0</ele>
        <time>2018-03-05T15:44:18Z</time>
      </trkpt>
    </trkseg>
  </trk>
</gpx>
